<?xml version="1.0" encoding="UTF-8" standalone="no" ?>
<gpx xmlns="http://www.topografix.com/GPX/1/1" xmlns:xsi="http://www.w3.org/2001/XMLSchema-instance" xsi:schemaLocation="http://www.topografix.com/GPX/1/1 http://www.topografix.com/GPX/1/1/gpx.xsd" version="1.1" creator="VisuGPX - https://www.visugpx.com">
  <metadata>
    <name>VTTAE Montagne de Raton</name>
    <desc><![CDATA[Je cherchais un itinéraire sans portage pour faire la traversée de la Montagne de Raton en vttae, le voici:
A partir de Rosans, monter par les pistes au Col de Pomerol, puis emprunter le chemin nord de montée au Raton (1km) et descendre sur la piste vers le Col du Faux, du col il faut rejoindre le chemin de montée à la Montagne des Gravières, ce chemin est bien roulant sauf les 200 derniers mètres pénibles où il faut pousser. La suite est superbe, elle se déroule en partie sur la crête, il y a quelques passages avec des blocs pierreux que l'on franchi à coté du VTT. J'ai choisi d'emprunter la descente sud du Raton un gros kiern indique son départ, cette descente est bien raide pendant 500m jusqu'au chemin qui file plein Est pour rejoindre le Col de Pomerol. La descente vers Rosans par le "chemin du facteur" est une classique, elle est caillouteuse par endroit... mais qu'elle est belle!!!]]></desc>
  </metadata>
  <trk>
    <name><![CDATA[VTTAE Col de Pomerol Montagne des Gravières Montagne de Raton Rosans]]></name>
    <trkseg>
      <trkpt lat="44.37738" lon="5.51305">
        <ele>731.8</ele>
        <time>2023-07-24T05:32:24Z</time>
      </trkpt>
      <trkpt lat="44.37738" lon="5.51305">
        <ele>731.8</ele>
        <time>2023-07-24T05:32:25Z</time>
      </trkpt>
      <trkpt lat="44.37738" lon="5.51305">
        <ele>731.8</ele>
        <time>2023-07-24T05:32:26Z</time>
      </trkpt>
      <trkpt lat="44.37738" lon="5.51305">
        <ele>731.8</ele>
        <time>2023-07-24T05:32:27Z</time>
      </trkpt>
      <trkpt lat="44.37738" lon="5.51305">
        <ele>731.8</ele>
        <time>2023-07-24T05:32:28Z</time>
      </trkpt>
      <trkpt lat="44.37739" lon="5.51305">
        <ele>731.8</ele>
        <time>2023-07-24T05:32:29Z</time>
      </trkpt>
      <trkpt lat="44.37739" lon="5.51305">
        <ele>731.8</ele>
        <time>2023-07-24T05:32:30Z</time>
      </trkpt>
      <trkpt lat="44.37738" lon="5.51305">
        <ele>731.8</ele>
        <time>2023-07-24T05:32:31Z</time>
      </trkpt>
      <trkpt lat="44.37738" lon="5.51305">
        <ele>731.8</ele>
        <time>2023-07-24T05:32:32Z</time>
      </trkpt>
      <trkpt lat="44.37738" lon="5.51305">
        <ele>731.8</ele>
        <time>2023-07-24T05:32:33Z</time>
      </trkpt>
      <trkpt lat="44.37739" lon="5.51305">
        <ele>731.8</ele>
        <time>2023-07-24T05:32:36Z</time>
      </trkpt>
      <trkpt lat="44.37735" lon="5.51303">
        <ele>731.8</ele>
        <time>2023-07-24T05:33:09Z</time>
      </trkpt>
      <trkpt lat="44.37735" lon="5.51303">
        <ele>731.8</ele>
        <time>2023-07-24T05:33:10Z</time>
      </trkpt>
      <trkpt lat="44.37735" lon="5.51302">
        <ele>731.8</ele>
        <time>2023-07-24T05:33:11Z</time>
      </trkpt>
      <trkpt lat="44.37735" lon="5.51301">
        <ele>731.8</ele>
        <time>2023-07-24T05:33:12Z</time>
      </trkpt>
      <trkpt lat="44.37735" lon="5.513">
        <ele>731.8</ele>
        <time>2023-07-24T05:33:13Z</time>
      </trkpt>
      <trkpt lat="44.37735" lon="5.513">
        <ele>731.8</ele>
        <time>2023-07-24T05:33:14Z</time>
      </trkpt>
      <trkpt lat="44.37735" lon="5.513">
        <ele>731.8</ele>
        <time>2023-07-24T05:33:15Z</time>
      </trkpt>
      <trkpt lat="44.37735" lon="5.51299">
        <ele>731.8</ele>
        <time>2023-07-24T05:33:16Z</time>
      </trkpt>
      <trkpt lat="44.37735" lon="5.51298">
        <ele>731.8</ele>
        <time>2023-07-24T05:33:17Z</time>
      </trkpt>
      <trkpt lat="44.37735" lon="5.51297">
        <ele>731.8</ele>
        <time>2023-07-24T05:33:18Z</time>
      </trkpt>
      <trkpt lat="44.37734" lon="5.51295">
        <ele>731.8</ele>
        <time>2023-07-24T05:33:19Z</time>
      </trkpt>
      <trkpt lat="44.37734" lon="5.51294">
        <ele>731.8</ele>
        <time>2023-07-24T05:33:20Z</time>
      </trkpt>
      <trkpt lat="44.37734" lon="5.51293">
        <ele>731.8</ele>
        <time>2023-07-24T05:33:21Z</time>
      </trkpt>
      <trkpt lat="44.37734" lon="5.51292">
        <ele>731.8</ele>
        <time>2023-07-24T05:33:22Z</time>
      </trkpt>
      <trkpt lat="44.37733" lon="5.51291">
        <ele>731.8</ele>
        <time>2023-07-24T05:33:30Z</time>
      </trkpt>
      <trkpt lat="44.37733" lon="5.5129">
        <ele>731.8</ele>
        <time>2023-07-24T05:33:31Z</time>
      </trkpt>
      <trkpt lat="44.37733" lon="5.51289">
        <ele>731.8</ele>
        <time>2023-07-24T05:33:32Z</time>
      </trkpt>
      <trkpt lat="44.37732" lon="5.51284">
        <ele>731.8</ele>
        <time>2023-07-24T05:33:33Z</time>
      </trkpt>
      <trkpt lat="44.37732" lon="5.51282">
        <ele>731.8</ele>
        <time>2023-07-24T05:33:34Z</time>
      </trkpt>
      <trkpt lat="44.37732" lon="5.51277">
        <ele>731.8</ele>
        <time>2023-07-24T05:33:35Z</time>
      </trkpt>
      <trkpt lat="44.37732" lon="5.51275">
        <ele>731.8</ele>
        <time>2023-07-24T05:33:36Z</time>
      </trkpt>
      <trkpt lat="44.37733" lon="5.51271">
        <ele>731.8</ele>
        <time>2023-07-24T05:33:37Z</time>
      </trkpt>
      <trkpt lat="44.37733" lon="5.5127">
        <ele>731.8</ele>
        <time>2023-07-24T05:33:38Z</time>
      </trkpt>
      <trkpt lat="44.37736" lon="5.51268">
        <ele>731.7</ele>
        <time>2023-07-24T05:33:39Z</time>
      </trkpt>
      <trkpt lat="44.37737" lon="5.51269">
        <ele>731.7</ele>
        <time>2023-07-24T05:33:40Z</time>
      </trkpt>
      <trkpt lat="44.37741" lon="5.51269">
        <ele>731.7</ele>
        <time>2023-07-24T05:33:41Z</time>
      </trkpt>
      <trkpt lat="44.37744" lon="5.5127">
        <ele>731.6</ele>
        <time>2023-07-24T05:33:42Z</time>
      </trkpt>
      <trkpt lat="44.37747" lon="5.51272">
        <ele>731.6</ele>
        <time>2023-07-24T05:33:43Z</time>
      </trkpt>
      <trkpt lat="44.37751" lon="5.51274">
        <ele>731.6</ele>
        <time>2023-07-24T05:33:44Z</time>
      </trkpt>
      <trkpt lat="44.37752" lon="5.51274">
        <ele>731.6</ele>
        <time>2023-07-24T05:33:45Z</time>
      </trkpt>
      <trkpt lat="44.37755" lon="5.51276">
        <ele>731.5</ele>
        <time>2023-07-24T05:33:46Z</time>
      </trkpt>
      <trkpt lat="44.37758" lon="5.51278">
        <ele>731.5</ele>
        <time>2023-07-24T05:33:47Z</time>
      </trkpt>
      <trkpt lat="44.37762" lon="5.51281">
        <ele>731.5</ele>
        <time>2023-07-24T05:33:48Z</time>
      </trkpt>
      <trkpt lat="44.37765" lon="5.51284">
        <ele>731.5</ele>
        <time>2023-07-24T05:33:49Z</time>
      </trkpt>
      <trkpt lat="44.37768" lon="5.51287">
        <ele>731.5</ele>
        <time>2023-07-24T05:33:50Z</time>
      </trkpt>
      <trkpt lat="44.37771" lon="5.5129">
        <ele>731.6</ele>
        <time>2023-07-24T05:33:51Z</time>
      </trkpt>
      <trkpt lat="44.37773" lon="5.51294">
        <ele>731.6</ele>
        <time>2023-07-24T05:33:52Z</time>
      </trkpt>
      <trkpt lat="44.37774" lon="5.51298">
        <ele>731.7</ele>
        <time>2023-07-24T05:33:53Z</time>
      </trkpt>
      <trkpt lat="44.37776" lon="5.51302">
        <ele>731.8</ele>
        <time>2023-07-24T05:33:54Z</time>
      </trkpt>
      <trkpt lat="44.37776" lon="5.51307">
        <ele>731.8</ele>
        <time>2023-07-24T05:33:55Z</time>
      </trkpt>
      <trkpt lat="44.37776" lon="5.51312">
        <ele>731.9</ele>
        <time>2023-07-24T05:33:56Z</time>
      </trkpt>
      <trkpt lat="44.37776" lon="5.51317">
        <ele>732</ele>
        <time>2023-07-24T05:33:57Z</time>
      </trkpt>
      <trkpt lat="44.37774" lon="5.51321">
        <ele>732.1</ele>
        <time>2023-07-24T05:33:58Z</time>
      </trkpt>
      <trkpt lat="44.37771" lon="5.51325">
        <ele>732.2</ele>
        <time>2023-07-24T05:33:59Z</time>
      </trkpt>
      <trkpt lat="44.3777" lon="5.51329">
        <ele>732.3</ele>
        <time>2023-07-24T05:34:00Z</time>
      </trkpt>
      <trkpt lat="44.37768" lon="5.51333">
        <ele>732.5</ele>
        <time>2023-07-24T05:34:01Z</time>
      </trkpt>
      <trkpt lat="44.37768" lon="5.51337">
        <ele>732.6</ele>
        <time>2023-07-24T05:34:02Z</time>
      </trkpt>
      <trkpt lat="44.37769" lon="5.51338">
        <ele>732.6</ele>
        <time>2023-07-24T05:34:03Z</time>
      </trkpt>
      <trkpt lat="44.37772" lon="5.51339">
        <ele>732.6</ele>
        <time>2023-07-24T05:34:04Z</time>
      </trkpt>
      <trkpt lat="44.37773" lon="5.51339">
        <ele>732.6</ele>
        <time>2023-07-24T05:34:05Z</time>
      </trkpt>
      <trkpt lat="44.37777" lon="5.51338">
        <ele>732.5</ele>
        <time>2023-07-24T05:34:06Z</time>
      </trkpt>
      <trkpt lat="44.3778" lon="5.51337">
        <ele>732.4</ele>
        <time>2023-07-24T05:34:07Z</time>
      </trkpt>
      <trkpt lat="44.37784" lon="5.51335">
        <ele>732.3</ele>
        <time>2023-07-24T05:34:08Z</time>
      </trkpt>
      <trkpt lat="44.37788" lon="5.51334">
        <ele>732.2</ele>
        <time>2023-07-24T05:34:09Z</time>
      </trkpt>
      <trkpt lat="44.37792" lon="5.51332">
        <ele>732.1</ele>
        <time>2023-07-24T05:34:10Z</time>
      </trkpt>
      <trkpt lat="44.37796" lon="5.51331">
        <ele>732</ele>
        <time>2023-07-24T05:34:11Z</time>
      </trkpt>
      <trkpt lat="44.378" lon="5.5133">
        <ele>731.9</ele>
        <time>2023-07-24T05:34:12Z</time>
      </trkpt>
      <trkpt lat="44.37804" lon="5.51329">
        <ele>731.8</ele>
        <time>2023-07-24T05:34:13Z</time>
      </trkpt>
      <trkpt lat="44.37808" lon="5.51329">
        <ele>731.7</ele>
        <time>2023-07-24T05:34:14Z</time>
      </trkpt>
      <trkpt lat="44.37813" lon="5.51328">
        <ele>731.6</ele>
        <time>2023-07-24T05:34:15Z</time>
      </trkpt>
      <trkpt lat="44.37817" lon="5.51327">
        <ele>731.5</ele>
        <time>2023-07-24T05:34:16Z</time>
      </trkpt>
      <trkpt lat="44.37822" lon="5.51326">
        <ele>731.4</ele>
        <time>2023-07-24T05:34:17Z</time>
      </trkpt>
      <trkpt lat="44.37826" lon="5.51326">
        <ele>731.3</ele>
        <time>2023-07-24T05:34:18Z</time>
      </trkpt>
      <trkpt lat="44.37831" lon="5.51325">
        <ele>731.2</ele>
        <time>2023-07-24T05:34:19Z</time>
      </trkpt>
      <trkpt lat="44.37836" lon="5.51324">
        <ele>731.1</ele>
        <time>2023-07-24T05:34:20Z</time>
      </trkpt>
      <trkpt lat="44.37841" lon="5.51323">
        <ele>731</ele>
        <time>2023-07-24T05:34:21Z</time>
      </trkpt>
      <trkpt lat="44.37846" lon="5.51322">
        <ele>730.9</ele>
        <time>2023-07-24T05:34:22Z</time>
      </trkpt>
      <trkpt lat="44.37851" lon="5.51321">
        <ele>730.8</ele>
        <time>2023-07-24T05:34:23Z</time>
      </trkpt>
      <trkpt lat="44.37855" lon="5.5132">
        <ele>730.7</ele>
        <time>2023-07-24T05:34:24Z</time>
      </trkpt>
      <trkpt lat="44.3786" lon="5.51319">
        <ele>730.6</ele>
        <time>2023-07-24T05:34:25Z</time>
      </trkpt>
      <trkpt lat="44.37865" lon="5.51319">
        <ele>730.5</ele>
        <time>2023-07-24T05:34:26Z</time>
      </trkpt>
      <trkpt lat="44.3787" lon="5.51317">
        <ele>730.4</ele>
        <time>2023-07-24T05:34:27Z</time>
      </trkpt>
      <trkpt lat="44.37875" lon="5.51316">
        <ele>730.4</ele>
        <time>2023-07-24T05:34:28Z</time>
      </trkpt>
      <trkpt lat="44.3788" lon="5.51314">
        <ele>730.3</ele>
        <time>2023-07-24T05:34:29Z</time>
      </trkpt>
      <trkpt lat="44.37885" lon="5.51313">
        <ele>730.3</ele>
        <time>2023-07-24T05:34:30Z</time>
      </trkpt>
      <trkpt lat="44.37889" lon="5.51312">
        <ele>730.2</ele>
        <time>2023-07-24T05:34:31Z</time>
      </trkpt>
      <trkpt lat="44.37894" lon="5.51311">
        <ele>730.1</ele>
        <time>2023-07-24T05:34:32Z</time>
      </trkpt>
      <trkpt lat="44.37905" lon="5.51311">
        <ele>729.8</ele>
        <time>2023-07-24T05:34:34Z</time>
      </trkpt>
      <trkpt lat="44.37911" lon="5.51311">
        <ele>729.7</ele>
        <time>2023-07-24T05:34:35Z</time>
      </trkpt>
      <trkpt lat="44.37916" lon="5.51309">
        <ele>729.6</ele>
        <time>2023-07-24T05:34:36Z</time>
      </trkpt>
      <trkpt lat="44.37921" lon="5.51307">
        <ele>729.5</ele>
        <time>2023-07-24T05:34:37Z</time>
      </trkpt>
      <trkpt lat="44.37927" lon="5.51306">
        <ele>729.3</ele>
        <time>2023-07-24T05:34:38Z</time>
      </trkpt>
      <trkpt lat="44.37932" lon="5.51306">
        <ele>729.2</ele>
        <time>2023-07-24T05:34:39Z</time>
      </trkpt>
      <trkpt lat="44.37937" lon="5.51305">
        <ele>729</ele>
        <time>2023-07-24T05:34:40Z</time>
      </trkpt>
      <trkpt lat="44.37943" lon="5.51306">
        <ele>728.8</ele>
        <time>2023-07-24T05:34:41Z</time>
      </trkpt>
      <trkpt lat="44.37948" lon="5.51308">
        <ele>728.6</ele>
        <time>2023-07-24T05:34:42Z</time>
      </trkpt>
      <trkpt lat="44.37953" lon="5.51313">
        <ele>728.4</ele>
        <time>2023-07-24T05:34:43Z</time>
      </trkpt>
      <trkpt lat="44.37957" lon="5.51318">
        <ele>728.1</ele>
        <time>2023-07-24T05:34:44Z</time>
      </trkpt>
      <trkpt lat="44.37961" lon="5.51325">
        <ele>727.9</ele>
        <time>2023-07-24T05:34:45Z</time>
      </trkpt>
      <trkpt lat="44.37965" lon="5.51332">
        <ele>727.6</ele>
        <time>2023-07-24T05:34:46Z</time>
      </trkpt>
      <trkpt lat="44.37968" lon="5.51339">
        <ele>727.4</ele>
        <time>2023-07-24T05:34:47Z</time>
      </trkpt>
      <trkpt lat="44.37972" lon="5.51346">
        <ele>727.1</ele>
        <time>2023-07-24T05:34:48Z</time>
      </trkpt>
      <trkpt lat="44.37975" lon="5.51354">
        <ele>726.8</ele>
        <time>2023-07-24T05:34:49Z</time>
      </trkpt>
      <trkpt lat="44.37978" lon="5.51363">
        <ele>726.5</ele>
        <time>2023-07-24T05:34:50Z</time>
      </trkpt>
      <trkpt lat="44.37981" lon="5.5137">
        <ele>726.1</ele>
        <time>2023-07-24T05:34:51Z</time>
      </trkpt>
      <trkpt lat="44.37984" lon="5.51378">
        <ele>725.8</ele>
        <time>2023-07-24T05:34:52Z</time>
      </trkpt>
      <trkpt lat="44.37988" lon="5.51386">
        <ele>725.5</ele>
        <time>2023-07-24T05:34:53Z</time>
      </trkpt>
      <trkpt lat="44.37991" lon="5.51394">
        <ele>725.1</ele>
        <time>2023-07-24T05:34:54Z</time>
      </trkpt>
      <trkpt lat="44.37995" lon="5.51402">
        <ele>724.8</ele>
        <time>2023-07-24T05:34:55Z</time>
      </trkpt>
      <trkpt lat="44.38001" lon="5.51408">
        <ele>724.4</ele>
        <time>2023-07-24T05:34:56Z</time>
      </trkpt>
      <trkpt lat="44.38008" lon="5.51411">
        <ele>724</ele>
        <time>2023-07-24T05:34:57Z</time>
      </trkpt>
      <trkpt lat="44.38016" lon="5.51411">
        <ele>723.6</ele>
        <time>2023-07-24T05:34:58Z</time>
      </trkpt>
      <trkpt lat="44.38023" lon="5.5141">
        <ele>723.3</ele>
        <time>2023-07-24T05:34:59Z</time>
      </trkpt>
      <trkpt lat="44.38029" lon="5.51405">
        <ele>723</ele>
        <time>2023-07-24T05:35:00Z</time>
      </trkpt>
      <trkpt lat="44.38034" lon="5.51397">
        <ele>722.8</ele>
        <time>2023-07-24T05:35:01Z</time>
      </trkpt>
      <trkpt lat="44.38037" lon="5.51389">
        <ele>722.6</ele>
        <time>2023-07-24T05:35:02Z</time>
      </trkpt>
      <trkpt lat="44.3804" lon="5.51379">
        <ele>722.4</ele>
        <time>2023-07-24T05:35:03Z</time>
      </trkpt>
      <trkpt lat="44.38041" lon="5.51369">
        <ele>722.2</ele>
        <time>2023-07-24T05:35:04Z</time>
      </trkpt>
      <trkpt lat="44.38043" lon="5.51359">
        <ele>722</ele>
        <time>2023-07-24T05:35:05Z</time>
      </trkpt>
      <trkpt lat="44.38044" lon="5.51349">
        <ele>721.8</ele>
        <time>2023-07-24T05:35:06Z</time>
      </trkpt>
      <trkpt lat="44.38045" lon="5.51341">
        <ele>721.7</ele>
        <time>2023-07-24T05:35:07Z</time>
      </trkpt>
      <trkpt lat="44.38046" lon="5.51332">
        <ele>721.6</ele>
        <time>2023-07-24T05:35:08Z</time>
      </trkpt>
      <trkpt lat="44.38047" lon="5.51323">
        <ele>721.5</ele>
        <time>2023-07-24T05:35:09Z</time>
      </trkpt>
      <trkpt lat="44.38048" lon="5.51315">
        <ele>721.5</ele>
        <time>2023-07-24T05:35:10Z</time>
      </trkpt>
      <trkpt lat="44.38048" lon="5.51307">
        <ele>721.4</ele>
        <time>2023-07-24T05:35:11Z</time>
      </trkpt>
      <trkpt lat="44.38048" lon="5.51299">
        <ele>721.3</ele>
        <time>2023-07-24T05:35:12Z</time>
      </trkpt>
      <trkpt lat="44.38048" lon="5.51291">
        <ele>721.2</ele>
        <time>2023-07-24T05:35:13Z</time>
      </trkpt>
      <trkpt lat="44.38049" lon="5.51283">
        <ele>721.2</ele>
        <time>2023-07-24T05:35:14Z</time>
      </trkpt>
      <trkpt lat="44.38049" lon="5.51275">
        <ele>721.1</ele>
        <time>2023-07-24T05:35:15Z</time>
      </trkpt>
      <trkpt lat="44.3805" lon="5.51267">
        <ele>721</ele>
        <time>2023-07-24T05:35:16Z</time>
      </trkpt>
      <trkpt lat="44.38051" lon="5.51258">
        <ele>721</ele>
        <time>2023-07-24T05:35:17Z</time>
      </trkpt>
      <trkpt lat="44.38052" lon="5.51251">
        <ele>720.8</ele>
        <time>2023-07-24T05:35:18Z</time>
      </trkpt>
      <trkpt lat="44.38055" lon="5.51243">
        <ele>720.7</ele>
        <time>2023-07-24T05:35:19Z</time>
      </trkpt>
      <trkpt lat="44.3806" lon="5.51237">
        <ele>720.5</ele>
        <time>2023-07-24T05:35:20Z</time>
      </trkpt>
      <trkpt lat="44.38065" lon="5.51233">
        <ele>720.3</ele>
        <time>2023-07-24T05:35:21Z</time>
      </trkpt>
      <trkpt lat="44.38071" lon="5.51232">
        <ele>720</ele>
        <time>2023-07-24T05:35:22Z</time>
      </trkpt>
      <trkpt lat="44.38078" lon="5.51232">
        <ele>719.7</ele>
        <time>2023-07-24T05:35:23Z</time>
      </trkpt>
      <trkpt lat="44.38085" lon="5.51234">
        <ele>719.4</ele>
        <time>2023-07-24T05:35:24Z</time>
      </trkpt>
      <trkpt lat="44.38092" lon="5.51237">
        <ele>719</ele>
        <time>2023-07-24T05:35:25Z</time>
      </trkpt>
      <trkpt lat="44.381" lon="5.51241">
        <ele>718.6</ele>
        <time>2023-07-24T05:35:26Z</time>
      </trkpt>
      <trkpt lat="44.38107" lon="5.51244">
        <ele>718.2</ele>
        <time>2023-07-24T05:35:27Z</time>
      </trkpt>
      <trkpt lat="44.38115" lon="5.51248">
        <ele>717.9</ele>
        <time>2023-07-24T05:35:28Z</time>
      </trkpt>
      <trkpt lat="44.38122" lon="5.51251">
        <ele>717.4</ele>
        <time>2023-07-24T05:35:29Z</time>
      </trkpt>
      <trkpt lat="44.3813" lon="5.51254">
        <ele>717</ele>
        <time>2023-07-24T05:35:30Z</time>
      </trkpt>
      <trkpt lat="44.38137" lon="5.51258">
        <ele>716.6</ele>
        <time>2023-07-24T05:35:31Z</time>
      </trkpt>
      <trkpt lat="44.38146" lon="5.5126">
        <ele>716.2</ele>
        <time>2023-07-24T05:35:32Z</time>
      </trkpt>
      <trkpt lat="44.38153" lon="5.51263">
        <ele>715.8</ele>
        <time>2023-07-24T05:35:33Z</time>
      </trkpt>
      <trkpt lat="44.38161" lon="5.51266">
        <ele>715.4</ele>
        <time>2023-07-24T05:35:34Z</time>
      </trkpt>
      <trkpt lat="44.3817" lon="5.5127">
        <ele>715</ele>
        <time>2023-07-24T05:35:35Z</time>
      </trkpt>
      <trkpt lat="44.38178" lon="5.51273">
        <ele>714.6</ele>
        <time>2023-07-24T05:35:36Z</time>
      </trkpt>
      <trkpt lat="44.38186" lon="5.51276">
        <ele>714.1</ele>
        <time>2023-07-24T05:35:37Z</time>
      </trkpt>
      <trkpt lat="44.38194" lon="5.51278">
        <ele>713.5</ele>
        <time>2023-07-24T05:35:38Z</time>
      </trkpt>
      <trkpt lat="44.38203" lon="5.51281">
        <ele>713</ele>
        <time>2023-07-24T05:35:39Z</time>
      </trkpt>
      <trkpt lat="44.38211" lon="5.51283">
        <ele>712.5</ele>
        <time>2023-07-24T05:35:40Z</time>
      </trkpt>
      <trkpt lat="44.38219" lon="5.51285">
        <ele>712</ele>
        <time>2023-07-24T05:35:41Z</time>
      </trkpt>
      <trkpt lat="44.38228" lon="5.51285">
        <ele>711.6</ele>
        <time>2023-07-24T05:35:42Z</time>
      </trkpt>
      <trkpt lat="44.38236" lon="5.51284">
        <ele>711.1</ele>
        <time>2023-07-24T05:35:43Z</time>
      </trkpt>
      <trkpt lat="44.38245" lon="5.51281">
        <ele>710.7</ele>
        <time>2023-07-24T05:35:44Z</time>
      </trkpt>
      <trkpt lat="44.38253" lon="5.51278">
        <ele>710.2</ele>
        <time>2023-07-24T05:35:45Z</time>
      </trkpt>
      <trkpt lat="44.38261" lon="5.51275">
        <ele>709.9</ele>
        <time>2023-07-24T05:35:46Z</time>
      </trkpt>
      <trkpt lat="44.3827" lon="5.51272">
        <ele>709.6</ele>
        <time>2023-07-24T05:35:47Z</time>
      </trkpt>
      <trkpt lat="44.38279" lon="5.51269">
        <ele>709.2</ele>
        <time>2023-07-24T05:35:48Z</time>
      </trkpt>
      <trkpt lat="44.38287" lon="5.51265">
        <ele>708.9</ele>
        <time>2023-07-24T05:35:49Z</time>
      </trkpt>
      <trkpt lat="44.38294" lon="5.51258">
        <ele>708.7</ele>
        <time>2023-07-24T05:35:50Z</time>
      </trkpt>
      <trkpt lat="44.38299" lon="5.51246">
        <ele>708.5</ele>
        <time>2023-07-24T05:35:51Z</time>
      </trkpt>
      <trkpt lat="44.383" lon="5.51235">
        <ele>708.3</ele>
        <time>2023-07-24T05:35:52Z</time>
      </trkpt>
      <trkpt lat="44.38299" lon="5.51223">
        <ele>708.2</ele>
        <time>2023-07-24T05:35:53Z</time>
      </trkpt>
      <trkpt lat="44.38296" lon="5.51213">
        <ele>708</ele>
        <time>2023-07-24T05:35:54Z</time>
      </trkpt>
      <trkpt lat="44.38292" lon="5.51205">
        <ele>707.9</ele>
        <time>2023-07-24T05:35:55Z</time>
      </trkpt>
      <trkpt lat="44.38287" lon="5.51198">
        <ele>707.7</ele>
        <time>2023-07-24T05:35:56Z</time>
      </trkpt>
      <trkpt lat="44.38281" lon="5.51192">
        <ele>707.6</ele>
        <time>2023-07-24T05:35:57Z</time>
      </trkpt>
      <trkpt lat="44.38276" lon="5.51186">
        <ele>707.5</ele>
        <time>2023-07-24T05:35:58Z</time>
      </trkpt>
      <trkpt lat="44.3827" lon="5.5118">
        <ele>707.4</ele>
        <time>2023-07-24T05:35:59Z</time>
      </trkpt>
      <trkpt lat="44.38265" lon="5.51174">
        <ele>707.4</ele>
        <time>2023-07-24T05:36:00Z</time>
      </trkpt>
      <trkpt lat="44.38259" lon="5.51168">
        <ele>707.3</ele>
        <time>2023-07-24T05:36:01Z</time>
      </trkpt>
      <trkpt lat="44.38254" lon="5.51162">
        <ele>707.3</ele>
        <time>2023-07-24T05:36:02Z</time>
      </trkpt>
      <trkpt lat="44.38249" lon="5.51156">
        <ele>707.3</ele>
        <time>2023-07-24T05:36:03Z</time>
      </trkpt>
      <trkpt lat="44.38244" lon="5.51151">
        <ele>707.4</ele>
        <time>2023-07-24T05:36:04Z</time>
      </trkpt>
      <trkpt lat="44.38239" lon="5.51144">
        <ele>707.4</ele>
        <time>2023-07-24T05:36:05Z</time>
      </trkpt>
      <trkpt lat="44.38235" lon="5.51138">
        <ele>707.4</ele>
        <time>2023-07-24T05:36:06Z</time>
      </trkpt>
      <trkpt lat="44.38232" lon="5.5113">
        <ele>707.4</ele>
        <time>2023-07-24T05:36:07Z</time>
      </trkpt>
      <trkpt lat="44.3823" lon="5.51122">
        <ele>707.4</ele>
        <time>2023-07-24T05:36:08Z</time>
      </trkpt>
      <trkpt lat="44.3823" lon="5.51114">
        <ele>707.4</ele>
        <time>2023-07-24T05:36:09Z</time>
      </trkpt>
      <trkpt lat="44.38233" lon="5.51106">
        <ele>707.5</ele>
        <time>2023-07-24T05:36:10Z</time>
      </trkpt>
      <trkpt lat="44.38237" lon="5.511">
        <ele>707.5</ele>
        <time>2023-07-24T05:36:11Z</time>
      </trkpt>
      <trkpt lat="44.38241" lon="5.51095">
        <ele>707.4</ele>
        <time>2023-07-24T05:36:12Z</time>
      </trkpt>
      <trkpt lat="44.38247" lon="5.51094">
        <ele>707.3</ele>
        <time>2023-07-24T05:36:13Z</time>
      </trkpt>
      <trkpt lat="44.38253" lon="5.51093">
        <ele>707.2</ele>
        <time>2023-07-24T05:36:14Z</time>
      </trkpt>
      <trkpt lat="44.38259" lon="5.51093">
        <ele>707.1</ele>
        <time>2023-07-24T05:36:15Z</time>
      </trkpt>
      <trkpt lat="44.38265" lon="5.51093">
        <ele>707</ele>
        <time>2023-07-24T05:36:16Z</time>
      </trkpt>
      <trkpt lat="44.3827" lon="5.51094">
        <ele>706.8</ele>
        <time>2023-07-24T05:36:17Z</time>
      </trkpt>
      <trkpt lat="44.38276" lon="5.51093">
        <ele>706.7</ele>
        <time>2023-07-24T05:36:18Z</time>
      </trkpt>
      <trkpt lat="44.38281" lon="5.51091">
        <ele>706.6</ele>
        <time>2023-07-24T05:36:19Z</time>
      </trkpt>
      <trkpt lat="44.38286" lon="5.51088">
        <ele>706.4</ele>
        <time>2023-07-24T05:36:20Z</time>
      </trkpt>
      <trkpt lat="44.3829" lon="5.51084">
        <ele>706.3</ele>
        <time>2023-07-24T05:36:21Z</time>
      </trkpt>
      <trkpt lat="44.38295" lon="5.51079">
        <ele>706.2</ele>
        <time>2023-07-24T05:36:22Z</time>
      </trkpt>
      <trkpt lat="44.38298" lon="5.51072">
        <ele>706</ele>
        <time>2023-07-24T05:36:23Z</time>
      </trkpt>
      <trkpt lat="44.38301" lon="5.51065">
        <ele>705.9</ele>
        <time>2023-07-24T05:36:24Z</time>
      </trkpt>
      <trkpt lat="44.38304" lon="5.51057">
        <ele>705.7</ele>
        <time>2023-07-24T05:36:25Z</time>
      </trkpt>
      <trkpt lat="44.38306" lon="5.5105">
        <ele>705.6</ele>
        <time>2023-07-24T05:36:26Z</time>
      </trkpt>
      <trkpt lat="44.38308" lon="5.51042">
        <ele>705.4</ele>
        <time>2023-07-24T05:36:27Z</time>
      </trkpt>
      <trkpt lat="44.3831" lon="5.51035">
        <ele>705.2</ele>
        <time>2023-07-24T05:36:28Z</time>
      </trkpt>
      <trkpt lat="44.38312" lon="5.51027">
        <ele>705</ele>
        <time>2023-07-24T05:36:29Z</time>
      </trkpt>
      <trkpt lat="44.38315" lon="5.51019">
        <ele>704.8</ele>
        <time>2023-07-24T05:36:30Z</time>
      </trkpt>
      <trkpt lat="44.38317" lon="5.5101">
        <ele>704.5</ele>
        <time>2023-07-24T05:36:31Z</time>
      </trkpt>
      <trkpt lat="44.38319" lon="5.51002">
        <ele>704.3</ele>
        <time>2023-07-24T05:36:32Z</time>
      </trkpt>
      <trkpt lat="44.38321" lon="5.50994">
        <ele>704.1</ele>
        <time>2023-07-24T05:36:33Z</time>
      </trkpt>
      <trkpt lat="44.38323" lon="5.50985">
        <ele>703.9</ele>
        <time>2023-07-24T05:36:34Z</time>
      </trkpt>
      <trkpt lat="44.38325" lon="5.50976">
        <ele>703.8</ele>
        <time>2023-07-24T05:36:35Z</time>
      </trkpt>
      <trkpt lat="44.38327" lon="5.50967">
        <ele>703.6</ele>
        <time>2023-07-24T05:36:36Z</time>
      </trkpt>
      <trkpt lat="44.38328" lon="5.50958">
        <ele>703.4</ele>
        <time>2023-07-24T05:36:37Z</time>
      </trkpt>
      <trkpt lat="44.38329" lon="5.50949">
        <ele>703.3</ele>
        <time>2023-07-24T05:36:38Z</time>
      </trkpt>
      <trkpt lat="44.38329" lon="5.5094">
        <ele>703.1</ele>
        <time>2023-07-24T05:36:39Z</time>
      </trkpt>
      <trkpt lat="44.38329" lon="5.50931">
        <ele>702.9</ele>
        <time>2023-07-24T05:36:40Z</time>
      </trkpt>
      <trkpt lat="44.38328" lon="5.50922">
        <ele>702.7</ele>
        <time>2023-07-24T05:36:41Z</time>
      </trkpt>
      <trkpt lat="44.38327" lon="5.50913">
        <ele>702.5</ele>
        <time>2023-07-24T05:36:42Z</time>
      </trkpt>
      <trkpt lat="44.38326" lon="5.50904">
        <ele>702.3</ele>
        <time>2023-07-24T05:36:43Z</time>
      </trkpt>
      <trkpt lat="44.38325" lon="5.50895">
        <ele>702</ele>
        <time>2023-07-24T05:36:44Z</time>
      </trkpt>
      <trkpt lat="44.38325" lon="5.50886">
        <ele>701.8</ele>
        <time>2023-07-24T05:36:45Z</time>
      </trkpt>
      <trkpt lat="44.38324" lon="5.50877">
        <ele>701.6</ele>
        <time>2023-07-24T05:36:46Z</time>
      </trkpt>
      <trkpt lat="44.38325" lon="5.50868">
        <ele>701.3</ele>
        <time>2023-07-24T05:36:47Z</time>
      </trkpt>
      <trkpt lat="44.38327" lon="5.50858">
        <ele>701</ele>
        <time>2023-07-24T05:36:48Z</time>
      </trkpt>
      <trkpt lat="44.3833" lon="5.5085">
        <ele>700.6</ele>
        <time>2023-07-24T05:36:49Z</time>
      </trkpt>
      <trkpt lat="44.38335" lon="5.50842">
        <ele>700.1</ele>
        <time>2023-07-24T05:36:50Z</time>
      </trkpt>
      <trkpt lat="44.38341" lon="5.50836">
        <ele>699.7</ele>
        <time>2023-07-24T05:36:51Z</time>
      </trkpt>
      <trkpt lat="44.38348" lon="5.50832">
        <ele>699.3</ele>
        <time>2023-07-24T05:36:52Z</time>
      </trkpt>
      <trkpt lat="44.38355" lon="5.50829">
        <ele>698.8</ele>
        <time>2023-07-24T05:36:53Z</time>
      </trkpt>
      <trkpt lat="44.38363" lon="5.50828">
        <ele>698.3</ele>
        <time>2023-07-24T05:36:54Z</time>
      </trkpt>
      <trkpt lat="44.3837" lon="5.50829">
        <ele>697.9</ele>
        <time>2023-07-24T05:36:55Z</time>
      </trkpt>
      <trkpt lat="44.38378" lon="5.50829">
        <ele>697.5</ele>
        <time>2023-07-24T05:36:56Z</time>
      </trkpt>
      <trkpt lat="44.38386" lon="5.50829">
        <ele>697.1</ele>
        <time>2023-07-24T05:36:57Z</time>
      </trkpt>
      <trkpt lat="44.38393" lon="5.50828">
        <ele>696.7</ele>
        <time>2023-07-24T05:36:58Z</time>
      </trkpt>
      <trkpt lat="44.38401" lon="5.50826">
        <ele>696.2</ele>
        <time>2023-07-24T05:36:59Z</time>
      </trkpt>
      <trkpt lat="44.38409" lon="5.50824">
        <ele>695.8</ele>
        <time>2023-07-24T05:37:00Z</time>
      </trkpt>
      <trkpt lat="44.38417" lon="5.50819">
        <ele>695.5</ele>
        <time>2023-07-24T05:37:01Z</time>
      </trkpt>
      <trkpt lat="44.38424" lon="5.50814">
        <ele>695.2</ele>
        <time>2023-07-24T05:37:02Z</time>
      </trkpt>
      <trkpt lat="44.38431" lon="5.50806">
        <ele>694.9</ele>
        <time>2023-07-24T05:37:03Z</time>
      </trkpt>
      <trkpt lat="44.38437" lon="5.50799">
        <ele>694.7</ele>
        <time>2023-07-24T05:37:04Z</time>
      </trkpt>
      <trkpt lat="44.38442" lon="5.50791">
        <ele>694.6</ele>
        <time>2023-07-24T05:37:05Z</time>
      </trkpt>
      <trkpt lat="44.38447" lon="5.50783">
        <ele>694.4</ele>
        <time>2023-07-24T05:37:06Z</time>
      </trkpt>
      <trkpt lat="44.38451" lon="5.50775">
        <ele>694.3</ele>
        <time>2023-07-24T05:37:07Z</time>
      </trkpt>
      <trkpt lat="44.38456" lon="5.50767">
        <ele>694.2</ele>
        <time>2023-07-24T05:37:08Z</time>
      </trkpt>
      <trkpt lat="44.3846" lon="5.5076">
        <ele>694</ele>
        <time>2023-07-24T05:37:09Z</time>
      </trkpt>
      <trkpt lat="44.38465" lon="5.50752">
        <ele>693.8</ele>
        <time>2023-07-24T05:37:10Z</time>
      </trkpt>
      <trkpt lat="44.38469" lon="5.50744">
        <ele>693.6</ele>
        <time>2023-07-24T05:37:11Z</time>
      </trkpt>
      <trkpt lat="44.38473" lon="5.50736">
        <ele>693.4</ele>
        <time>2023-07-24T05:37:12Z</time>
      </trkpt>
      <trkpt lat="44.38478" lon="5.50728">
        <ele>693.1</ele>
        <time>2023-07-24T05:37:13Z</time>
      </trkpt>
      <trkpt lat="44.38482" lon="5.50721">
        <ele>692.9</ele>
        <time>2023-07-24T05:37:14Z</time>
      </trkpt>
      <trkpt lat="44.38486" lon="5.50713">
        <ele>692.6</ele>
        <time>2023-07-24T05:37:15Z</time>
      </trkpt>
      <trkpt lat="44.38491" lon="5.50705">
        <ele>692.4</ele>
        <time>2023-07-24T05:37:16Z</time>
      </trkpt>
      <trkpt lat="44.38495" lon="5.50697">
        <ele>692.1</ele>
        <time>2023-07-24T05:37:17Z</time>
      </trkpt>
      <trkpt lat="44.385" lon="5.5069">
        <ele>691.9</ele>
        <time>2023-07-24T05:37:18Z</time>
      </trkpt>
      <trkpt lat="44.38504" lon="5.50681">
        <ele>691.6</ele>
        <time>2023-07-24T05:37:19Z</time>
      </trkpt>
      <trkpt lat="44.38509" lon="5.50673">
        <ele>691.4</ele>
        <time>2023-07-24T05:37:20Z</time>
      </trkpt>
      <trkpt lat="44.38513" lon="5.50666">
        <ele>691.2</ele>
        <time>2023-07-24T05:37:21Z</time>
      </trkpt>
      <trkpt lat="44.38518" lon="5.50658">
        <ele>691</ele>
        <time>2023-07-24T05:37:22Z</time>
      </trkpt>
      <trkpt lat="44.38522" lon="5.5065">
        <ele>690.8</ele>
        <time>2023-07-24T05:37:23Z</time>
      </trkpt>
      <trkpt lat="44.38526" lon="5.50643">
        <ele>690.5</ele>
        <time>2023-07-24T05:37:24Z</time>
      </trkpt>
      <trkpt lat="44.38531" lon="5.50635">
        <ele>690.3</ele>
        <time>2023-07-24T05:37:25Z</time>
      </trkpt>
      <trkpt lat="44.38536" lon="5.50627">
        <ele>690.1</ele>
        <time>2023-07-24T05:37:26Z</time>
      </trkpt>
      <trkpt lat="44.3854" lon="5.50619">
        <ele>689.9</ele>
        <time>2023-07-24T05:37:27Z</time>
      </trkpt>
      <trkpt lat="44.38545" lon="5.50611">
        <ele>689.7</ele>
        <time>2023-07-24T05:37:28Z</time>
      </trkpt>
      <trkpt lat="44.38549" lon="5.50603">
        <ele>689.5</ele>
        <time>2023-07-24T05:37:29Z</time>
      </trkpt>
      <trkpt lat="44.38553" lon="5.50596">
        <ele>689.3</ele>
        <time>2023-07-24T05:37:30Z</time>
      </trkpt>
      <trkpt lat="44.38557" lon="5.50588">
        <ele>689.2</ele>
        <time>2023-07-24T05:37:31Z</time>
      </trkpt>
      <trkpt lat="44.38562" lon="5.50581">
        <ele>689</ele>
        <time>2023-07-24T05:37:32Z</time>
      </trkpt>
      <trkpt lat="44.38568" lon="5.50575">
        <ele>688.8</ele>
        <time>2023-07-24T05:37:33Z</time>
      </trkpt>
      <trkpt lat="44.38573" lon="5.50569">
        <ele>688.6</ele>
        <time>2023-07-24T05:37:34Z</time>
      </trkpt>
      <trkpt lat="44.38579" lon="5.50564">
        <ele>688.4</ele>
        <time>2023-07-24T05:37:35Z</time>
      </trkpt>
      <trkpt lat="44.38585" lon="5.50558">
        <ele>688.2</ele>
        <time>2023-07-24T05:37:36Z</time>
      </trkpt>
      <trkpt lat="44.3859" lon="5.50553">
        <ele>687.9</ele>
        <time>2023-07-24T05:37:37Z</time>
      </trkpt>
      <trkpt lat="44.38596" lon="5.50548">
        <ele>687.7</ele>
        <time>2023-07-24T05:37:38Z</time>
      </trkpt>
      <trkpt lat="44.38602" lon="5.50543">
        <ele>687.4</ele>
        <time>2023-07-24T05:37:39Z</time>
      </trkpt>
      <trkpt lat="44.38608" lon="5.50538">
        <ele>687.1</ele>
        <time>2023-07-24T05:37:40Z</time>
      </trkpt>
      <trkpt lat="44.38614" lon="5.50532">
        <ele>686.8</ele>
        <time>2023-07-24T05:37:41Z</time>
      </trkpt>
      <trkpt lat="44.3862" lon="5.50527">
        <ele>686.6</ele>
        <time>2023-07-24T05:37:42Z</time>
      </trkpt>
      <trkpt lat="44.38627" lon="5.50522">
        <ele>686.4</ele>
        <time>2023-07-24T05:37:43Z</time>
      </trkpt>
      <trkpt lat="44.38633" lon="5.50516">
        <ele>686.2</ele>
        <time>2023-07-24T05:37:44Z</time>
      </trkpt>
      <trkpt lat="44.38639" lon="5.50511">
        <ele>686</ele>
        <time>2023-07-24T05:37:45Z</time>
      </trkpt>
      <trkpt lat="44.38645" lon="5.50506">
        <ele>685.8</ele>
        <time>2023-07-24T05:37:46Z</time>
      </trkpt>
      <trkpt lat="44.38651" lon="5.50501">
        <ele>685.5</ele>
        <time>2023-07-24T05:37:47Z</time>
      </trkpt>
      <trkpt lat="44.38657" lon="5.50495">
        <ele>685.3</ele>
        <time>2023-07-24T05:37:48Z</time>
      </trkpt>
      <trkpt lat="44.38664" lon="5.5049">
        <ele>685.1</ele>
        <time>2023-07-24T05:37:49Z</time>
      </trkpt>
      <trkpt lat="44.3867" lon="5.50485">
        <ele>684.9</ele>
        <time>2023-07-24T05:37:50Z</time>
      </trkpt>
      <trkpt lat="44.38676" lon="5.50479">
        <ele>684.7</ele>
        <time>2023-07-24T05:37:51Z</time>
      </trkpt>
      <trkpt lat="44.38682" lon="5.50474">
        <ele>684.5</ele>
        <time>2023-07-24T05:37:52Z</time>
      </trkpt>
      <trkpt lat="44.38688" lon="5.50469">
        <ele>684.3</ele>
        <time>2023-07-24T05:37:53Z</time>
      </trkpt>
      <trkpt lat="44.38694" lon="5.50464">
        <ele>684.1</ele>
        <time>2023-07-24T05:37:54Z</time>
      </trkpt>
      <trkpt lat="44.38701" lon="5.50458">
        <ele>684</ele>
        <time>2023-07-24T05:37:55Z</time>
      </trkpt>
      <trkpt lat="44.38707" lon="5.50453">
        <ele>683.8</ele>
        <time>2023-07-24T05:37:56Z</time>
      </trkpt>
      <trkpt lat="44.38713" lon="5.50447">
        <ele>683.6</ele>
        <time>2023-07-24T05:37:57Z</time>
      </trkpt>
      <trkpt lat="44.38719" lon="5.50443">
        <ele>683.5</ele>
        <time>2023-07-24T05:37:58Z</time>
      </trkpt>
      <trkpt lat="44.38725" lon="5.50438">
        <ele>683.3</ele>
        <time>2023-07-24T05:37:59Z</time>
      </trkpt>
      <trkpt lat="44.38731" lon="5.50433">
        <ele>683.2</ele>
        <time>2023-07-24T05:38:00Z</time>
      </trkpt>
      <trkpt lat="44.38736" lon="5.50428">
        <ele>683</ele>
        <time>2023-07-24T05:38:01Z</time>
      </trkpt>
      <trkpt lat="44.38742" lon="5.50423">
        <ele>682.8</ele>
        <time>2023-07-24T05:38:02Z</time>
      </trkpt>
      <trkpt lat="44.38748" lon="5.50418">
        <ele>682.6</ele>
        <time>2023-07-24T05:38:03Z</time>
      </trkpt>
      <trkpt lat="44.38754" lon="5.50413">
        <ele>682.4</ele>
        <time>2023-07-24T05:38:04Z</time>
      </trkpt>
      <trkpt lat="44.3876" lon="5.50408">
        <ele>682.2</ele>
        <time>2023-07-24T05:38:05Z</time>
      </trkpt>
      <trkpt lat="44.38766" lon="5.50403">
        <ele>682</ele>
        <time>2023-07-24T05:38:06Z</time>
      </trkpt>
      <trkpt lat="44.38771" lon="5.50397">
        <ele>681.8</ele>
        <time>2023-07-24T05:38:07Z</time>
      </trkpt>
      <trkpt lat="44.38777" lon="5.50392">
        <ele>681.7</ele>
        <time>2023-07-24T05:38:08Z</time>
      </trkpt>
      <trkpt lat="44.38782" lon="5.50387">
        <ele>681.5</ele>
        <time>2023-07-24T05:38:09Z</time>
      </trkpt>
      <trkpt lat="44.38788" lon="5.50382">
        <ele>681.3</ele>
        <time>2023-07-24T05:38:10Z</time>
      </trkpt>
      <trkpt lat="44.38793" lon="5.50377">
        <ele>681.1</ele>
        <time>2023-07-24T05:38:11Z</time>
      </trkpt>
      <trkpt lat="44.38799" lon="5.50373">
        <ele>680.9</ele>
        <time>2023-07-24T05:38:12Z</time>
      </trkpt>
      <trkpt lat="44.38805" lon="5.50368">
        <ele>680.7</ele>
        <time>2023-07-24T05:38:13Z</time>
      </trkpt>
      <trkpt lat="44.38811" lon="5.50363">
        <ele>680.5</ele>
        <time>2023-07-24T05:38:14Z</time>
      </trkpt>
      <trkpt lat="44.38816" lon="5.50358">
        <ele>680.3</ele>
        <time>2023-07-24T05:38:15Z</time>
      </trkpt>
      <trkpt lat="44.38822" lon="5.50353">
        <ele>680.1</ele>
        <time>2023-07-24T05:38:16Z</time>
      </trkpt>
      <trkpt lat="44.38828" lon="5.50348">
        <ele>679.9</ele>
        <time>2023-07-24T05:38:17Z</time>
      </trkpt>
      <trkpt lat="44.38834" lon="5.50343">
        <ele>679.7</ele>
        <time>2023-07-24T05:38:18Z</time>
      </trkpt>
      <trkpt lat="44.3884" lon="5.50338">
        <ele>679.4</ele>
        <time>2023-07-24T05:38:19Z</time>
      </trkpt>
      <trkpt lat="44.38846" lon="5.50333">
        <ele>679.1</ele>
        <time>2023-07-24T05:38:20Z</time>
      </trkpt>
      <trkpt lat="44.38852" lon="5.50327">
        <ele>678.8</ele>
        <time>2023-07-24T05:38:21Z</time>
      </trkpt>
      <trkpt lat="44.38858" lon="5.50322">
        <ele>678.5</ele>
        <time>2023-07-24T05:38:22Z</time>
      </trkpt>
      <trkpt lat="44.38864" lon="5.50316">
        <ele>678.2</ele>
        <time>2023-07-24T05:38:23Z</time>
      </trkpt>
      <trkpt lat="44.38871" lon="5.50311">
        <ele>677.8</ele>
        <time>2023-07-24T05:38:24Z</time>
      </trkpt>
      <trkpt lat="44.38877" lon="5.50306">
        <ele>677.5</ele>
        <time>2023-07-24T05:38:25Z</time>
      </trkpt>
      <trkpt lat="44.38884" lon="5.503">
        <ele>677.1</ele>
        <time>2023-07-24T05:38:26Z</time>
      </trkpt>
      <trkpt lat="44.3889" lon="5.50295">
        <ele>676.7</ele>
        <time>2023-07-24T05:38:27Z</time>
      </trkpt>
      <trkpt lat="44.38897" lon="5.5029">
        <ele>676.3</ele>
        <time>2023-07-24T05:38:28Z</time>
      </trkpt>
      <trkpt lat="44.38904" lon="5.50284">
        <ele>676</ele>
        <time>2023-07-24T05:38:29Z</time>
      </trkpt>
      <trkpt lat="44.38911" lon="5.50278">
        <ele>675.6</ele>
        <time>2023-07-24T05:38:30Z</time>
      </trkpt>
      <trkpt lat="44.38918" lon="5.50272">
        <ele>675.3</ele>
        <time>2023-07-24T05:38:31Z</time>
      </trkpt>
      <trkpt lat="44.38924" lon="5.50267">
        <ele>674.9</ele>
        <time>2023-07-24T05:38:32Z</time>
      </trkpt>
      <trkpt lat="44.38931" lon="5.50261">
        <ele>674.6</ele>
        <time>2023-07-24T05:38:33Z</time>
      </trkpt>
      <trkpt lat="44.38938" lon="5.50256">
        <ele>674.2</ele>
        <time>2023-07-24T05:38:34Z</time>
      </trkpt>
      <trkpt lat="44.38945" lon="5.50249">
        <ele>673.9</ele>
        <time>2023-07-24T05:38:35Z</time>
      </trkpt>
      <trkpt lat="44.38952" lon="5.50243">
        <ele>673.6</ele>
        <time>2023-07-24T05:38:36Z</time>
      </trkpt>
      <trkpt lat="44.38959" lon="5.50236">
        <ele>673.4</ele>
        <time>2023-07-24T05:38:37Z</time>
      </trkpt>
      <trkpt lat="44.38965" lon="5.50228">
        <ele>673.2</ele>
        <time>2023-07-24T05:38:38Z</time>
      </trkpt>
      <trkpt lat="44.3897" lon="5.50219">
        <ele>673</ele>
        <time>2023-07-24T05:38:39Z</time>
      </trkpt>
      <trkpt lat="44.38973" lon="5.5021">
        <ele>672.8</ele>
        <time>2023-07-24T05:38:40Z</time>
      </trkpt>
      <trkpt lat="44.38976" lon="5.502">
        <ele>672.6</ele>
        <time>2023-07-24T05:38:41Z</time>
      </trkpt>
      <trkpt lat="44.38978" lon="5.5019">
        <ele>672.4</ele>
        <time>2023-07-24T05:38:42Z</time>
      </trkpt>
      <trkpt lat="44.38979" lon="5.5018">
        <ele>672.2</ele>
        <time>2023-07-24T05:38:43Z</time>
      </trkpt>
      <trkpt lat="44.3898" lon="5.5017">
        <ele>672</ele>
        <time>2023-07-24T05:38:44Z</time>
      </trkpt>
      <trkpt lat="44.3898" lon="5.5016">
        <ele>671.8</ele>
        <time>2023-07-24T05:38:45Z</time>
      </trkpt>
      <trkpt lat="44.38981" lon="5.5015">
        <ele>671.6</ele>
        <time>2023-07-24T05:38:46Z</time>
      </trkpt>
      <trkpt lat="44.38981" lon="5.50139">
        <ele>671.4</ele>
        <time>2023-07-24T05:38:47Z</time>
      </trkpt>
      <trkpt lat="44.38981" lon="5.50129">
        <ele>671.1</ele>
        <time>2023-07-24T05:38:48Z</time>
      </trkpt>
      <trkpt lat="44.38981" lon="5.50119">
        <ele>670.9</ele>
        <time>2023-07-24T05:38:49Z</time>
      </trkpt>
      <trkpt lat="44.38981" lon="5.50108">
        <ele>670.6</ele>
        <time>2023-07-24T05:38:50Z</time>
      </trkpt>
      <trkpt lat="44.38981" lon="5.50098">
        <ele>670.4</ele>
        <time>2023-07-24T05:38:51Z</time>
      </trkpt>
      <trkpt lat="44.38982" lon="5.50088">
        <ele>670.2</ele>
        <time>2023-07-24T05:38:52Z</time>
      </trkpt>
      <trkpt lat="44.38982" lon="5.50078">
        <ele>670</ele>
        <time>2023-07-24T05:38:53Z</time>
      </trkpt>
      <trkpt lat="44.38982" lon="5.50068">
        <ele>669.8</ele>
        <time>2023-07-24T05:38:54Z</time>
      </trkpt>
      <trkpt lat="44.38982" lon="5.50057">
        <ele>669.5</ele>
        <time>2023-07-24T05:38:55Z</time>
      </trkpt>
      <trkpt lat="44.38982" lon="5.50047">
        <ele>669.3</ele>
        <time>2023-07-24T05:38:56Z</time>
      </trkpt>
      <trkpt lat="44.38982" lon="5.50037">
        <ele>669.1</ele>
        <time>2023-07-24T05:38:57Z</time>
      </trkpt>
      <trkpt lat="44.38982" lon="5.50026">
        <ele>668.8</ele>
        <time>2023-07-24T05:38:58Z</time>
      </trkpt>
      <trkpt lat="44.38982" lon="5.50016">
        <ele>668.6</ele>
        <time>2023-07-24T05:38:59Z</time>
      </trkpt>
      <trkpt lat="44.38982" lon="5.50006">
        <ele>668.4</ele>
        <time>2023-07-24T05:39:00Z</time>
      </trkpt>
      <trkpt lat="44.38983" lon="5.49995">
        <ele>668.2</ele>
        <time>2023-07-24T05:39:01Z</time>
      </trkpt>
      <trkpt lat="44.38983" lon="5.49984">
        <ele>668.1</ele>
        <time>2023-07-24T05:39:02Z</time>
      </trkpt>
      <trkpt lat="44.38984" lon="5.49974">
        <ele>667.9</ele>
        <time>2023-07-24T05:39:03Z</time>
      </trkpt>
      <trkpt lat="44.38985" lon="5.49963">
        <ele>667.7</ele>
        <time>2023-07-24T05:39:04Z</time>
      </trkpt>
      <trkpt lat="44.38987" lon="5.49953">
        <ele>667.5</ele>
        <time>2023-07-24T05:39:05Z</time>
      </trkpt>
      <trkpt lat="44.38991" lon="5.49943">
        <ele>667.4</ele>
        <time>2023-07-24T05:39:06Z</time>
      </trkpt>
      <trkpt lat="44.38997" lon="5.49936">
        <ele>667.2</ele>
        <time>2023-07-24T05:39:07Z</time>
      </trkpt>
      <trkpt lat="44.39004" lon="5.49931">
        <ele>667</ele>
        <time>2023-07-24T05:39:08Z</time>
      </trkpt>
      <trkpt lat="44.3901" lon="5.49926">
        <ele>666.8</ele>
        <time>2023-07-24T05:39:09Z</time>
      </trkpt>
      <trkpt lat="44.39018" lon="5.49922">
        <ele>666.5</ele>
        <time>2023-07-24T05:39:10Z</time>
      </trkpt>
      <trkpt lat="44.39025" lon="5.49919">
        <ele>666.3</ele>
        <time>2023-07-24T05:39:11Z</time>
      </trkpt>
      <trkpt lat="44.39032" lon="5.49915">
        <ele>666.1</ele>
        <time>2023-07-24T05:39:12Z</time>
      </trkpt>
      <trkpt lat="44.3904" lon="5.49912">
        <ele>665.8</ele>
        <time>2023-07-24T05:39:13Z</time>
      </trkpt>
      <trkpt lat="44.39047" lon="5.49909">
        <ele>665.5</ele>
        <time>2023-07-24T05:39:14Z</time>
      </trkpt>
      <trkpt lat="44.39055" lon="5.49907">
        <ele>665.3</ele>
        <time>2023-07-24T05:39:15Z</time>
      </trkpt>
      <trkpt lat="44.39063" lon="5.49906">
        <ele>665.1</ele>
        <time>2023-07-24T05:39:16Z</time>
      </trkpt>
      <trkpt lat="44.39071" lon="5.49905">
        <ele>665</ele>
        <time>2023-07-24T05:39:17Z</time>
      </trkpt>
      <trkpt lat="44.39078" lon="5.49905">
        <ele>664.8</ele>
        <time>2023-07-24T05:39:18Z</time>
      </trkpt>
      <trkpt lat="44.39086" lon="5.49906">
        <ele>664.5</ele>
        <time>2023-07-24T05:39:19Z</time>
      </trkpt>
      <trkpt lat="44.39094" lon="5.49908">
        <ele>664.3</ele>
        <time>2023-07-24T05:39:20Z</time>
      </trkpt>
      <trkpt lat="44.39102" lon="5.49912">
        <ele>664.1</ele>
        <time>2023-07-24T05:39:21Z</time>
      </trkpt>
      <trkpt lat="44.39109" lon="5.49915">
        <ele>663.9</ele>
        <time>2023-07-24T05:39:22Z</time>
      </trkpt>
      <trkpt lat="44.39117" lon="5.4992">
        <ele>663.7</ele>
        <time>2023-07-24T05:39:23Z</time>
      </trkpt>
      <trkpt lat="44.39124" lon="5.49923">
        <ele>663.5</ele>
        <time>2023-07-24T05:39:24Z</time>
      </trkpt>
      <trkpt lat="44.39131" lon="5.49928">
        <ele>663.3</ele>
        <time>2023-07-24T05:39:25Z</time>
      </trkpt>
      <trkpt lat="44.39139" lon="5.49932">
        <ele>663.1</ele>
        <time>2023-07-24T05:39:26Z</time>
      </trkpt>
      <trkpt lat="44.39146" lon="5.49936">
        <ele>662.9</ele>
        <time>2023-07-24T05:39:27Z</time>
      </trkpt>
      <trkpt lat="44.39153" lon="5.49939">
        <ele>662.8</ele>
        <time>2023-07-24T05:39:28Z</time>
      </trkpt>
      <trkpt lat="44.3916" lon="5.49941">
        <ele>662.6</ele>
        <time>2023-07-24T05:39:29Z</time>
      </trkpt>
      <trkpt lat="44.39168" lon="5.49944">
        <ele>662.5</ele>
        <time>2023-07-24T05:39:30Z</time>
      </trkpt>
      <trkpt lat="44.39175" lon="5.49946">
        <ele>662.3</ele>
        <time>2023-07-24T05:39:31Z</time>
      </trkpt>
      <trkpt lat="44.39182" lon="5.49948">
        <ele>662.2</ele>
        <time>2023-07-24T05:39:32Z</time>
      </trkpt>
      <trkpt lat="44.3919" lon="5.4995">
        <ele>662</ele>
        <time>2023-07-24T05:39:33Z</time>
      </trkpt>
      <trkpt lat="44.39197" lon="5.49952">
        <ele>661.8</ele>
        <time>2023-07-24T05:39:34Z</time>
      </trkpt>
      <trkpt lat="44.39205" lon="5.49954">
        <ele>661.6</ele>
        <time>2023-07-24T05:39:35Z</time>
      </trkpt>
      <trkpt lat="44.39212" lon="5.49956">
        <ele>661.4</ele>
        <time>2023-07-24T05:39:36Z</time>
      </trkpt>
      <trkpt lat="44.39219" lon="5.4996">
        <ele>661.2</ele>
        <time>2023-07-24T05:39:37Z</time>
      </trkpt>
      <trkpt lat="44.39226" lon="5.49964">
        <ele>661</ele>
        <time>2023-07-24T05:39:38Z</time>
      </trkpt>
      <trkpt lat="44.39232" lon="5.49968">
        <ele>660.9</ele>
        <time>2023-07-24T05:39:39Z</time>
      </trkpt>
      <trkpt lat="44.39239" lon="5.4997">
        <ele>660.7</ele>
        <time>2023-07-24T05:39:40Z</time>
      </trkpt>
      <trkpt lat="44.39246" lon="5.4997">
        <ele>660.6</ele>
        <time>2023-07-24T05:39:41Z</time>
      </trkpt>
      <trkpt lat="44.39252" lon="5.49967">
        <ele>660.5</ele>
        <time>2023-07-24T05:39:42Z</time>
      </trkpt>
      <trkpt lat="44.39258" lon="5.49961">
        <ele>660.4</ele>
        <time>2023-07-24T05:39:43Z</time>
      </trkpt>
      <trkpt lat="44.39262" lon="5.49953">
        <ele>660.3</ele>
        <time>2023-07-24T05:39:44Z</time>
      </trkpt>
      <trkpt lat="44.39265" lon="5.49944">
        <ele>660.3</ele>
        <time>2023-07-24T05:39:45Z</time>
      </trkpt>
      <trkpt lat="44.39266" lon="5.49935">
        <ele>660.2</ele>
        <time>2023-07-24T05:39:46Z</time>
      </trkpt>
      <trkpt lat="44.39265" lon="5.49926">
        <ele>660.1</ele>
        <time>2023-07-24T05:39:47Z</time>
      </trkpt>
      <trkpt lat="44.39263" lon="5.49919">
        <ele>660.1</ele>
        <time>2023-07-24T05:39:48Z</time>
      </trkpt>
      <trkpt lat="44.39261" lon="5.49912">
        <ele>660.1</ele>
        <time>2023-07-24T05:39:49Z</time>
      </trkpt>
      <trkpt lat="44.39259" lon="5.49905">
        <ele>660.1</ele>
        <time>2023-07-24T05:39:50Z</time>
      </trkpt>
      <trkpt lat="44.39256" lon="5.49898">
        <ele>660.1</ele>
        <time>2023-07-24T05:39:51Z</time>
      </trkpt>
      <trkpt lat="44.39254" lon="5.49892">
        <ele>660.2</ele>
        <time>2023-07-24T05:39:52Z</time>
      </trkpt>
      <trkpt lat="44.39252" lon="5.49886">
        <ele>660.3</ele>
        <time>2023-07-24T05:39:53Z</time>
      </trkpt>
      <trkpt lat="44.3925" lon="5.49879">
        <ele>660.3</ele>
        <time>2023-07-24T05:39:54Z</time>
      </trkpt>
      <trkpt lat="44.39249" lon="5.49873">
        <ele>660.4</ele>
        <time>2023-07-24T05:39:55Z</time>
      </trkpt>
      <trkpt lat="44.39247" lon="5.49866">
        <ele>660.5</ele>
        <time>2023-07-24T05:39:56Z</time>
      </trkpt>
      <trkpt lat="44.39246" lon="5.4986">
        <ele>660.5</ele>
        <time>2023-07-24T05:39:57Z</time>
      </trkpt>
      <trkpt lat="44.39244" lon="5.49854">
        <ele>660.6</ele>
        <time>2023-07-24T05:39:58Z</time>
      </trkpt>
      <trkpt lat="44.39242" lon="5.49849">
        <ele>660.7</ele>
        <time>2023-07-24T05:39:59Z</time>
      </trkpt>
      <trkpt lat="44.39239" lon="5.49843">
        <ele>660.7</ele>
        <time>2023-07-24T05:40:00Z</time>
      </trkpt>
      <trkpt lat="44.39236" lon="5.49839">
        <ele>660.8</ele>
        <time>2023-07-24T05:40:01Z</time>
      </trkpt>
      <trkpt lat="44.39233" lon="5.49835">
        <ele>660.8</ele>
        <time>2023-07-24T05:40:02Z</time>
      </trkpt>
      <trkpt lat="44.39229" lon="5.49831">
        <ele>660.9</ele>
        <time>2023-07-24T05:40:03Z</time>
      </trkpt>
      <trkpt lat="44.39224" lon="5.49828">
        <ele>660.9</ele>
        <time>2023-07-24T05:40:04Z</time>
      </trkpt>
      <trkpt lat="44.3922" lon="5.49826">
        <ele>661</ele>
        <time>2023-07-24T05:40:05Z</time>
      </trkpt>
      <trkpt lat="44.39215" lon="5.49824">
        <ele>661</ele>
        <time>2023-07-24T05:40:06Z</time>
      </trkpt>
      <trkpt lat="44.3921" lon="5.49822">
        <ele>661.2</ele>
        <time>2023-07-24T05:40:07Z</time>
      </trkpt>
      <trkpt lat="44.39206" lon="5.4982">
        <ele>661.3</ele>
        <time>2023-07-24T05:40:08Z</time>
      </trkpt>
      <trkpt lat="44.39202" lon="5.49818">
        <ele>661.4</ele>
        <time>2023-07-24T05:40:09Z</time>
      </trkpt>
      <trkpt lat="44.39198" lon="5.49817">
        <ele>661.5</ele>
        <time>2023-07-24T05:40:10Z</time>
      </trkpt>
      <trkpt lat="44.39195" lon="5.49815">
        <ele>661.6</ele>
        <time>2023-07-24T05:40:11Z</time>
      </trkpt>
      <trkpt lat="44.39191" lon="5.49813">
        <ele>661.7</ele>
        <time>2023-07-24T05:40:12Z</time>
      </trkpt>
      <trkpt lat="44.39188" lon="5.4981">
        <ele>661.9</ele>
        <time>2023-07-24T05:40:13Z</time>
      </trkpt>
      <trkpt lat="44.39185" lon="5.49808">
        <ele>662</ele>
        <time>2023-07-24T05:40:14Z</time>
      </trkpt>
      <trkpt lat="44.39181" lon="5.49805">
        <ele>662.1</ele>
        <time>2023-07-24T05:40:15Z</time>
      </trkpt>
      <trkpt lat="44.39178" lon="5.49801">
        <ele>662.2</ele>
        <time>2023-07-24T05:40:16Z</time>
      </trkpt>
      <trkpt lat="44.39175" lon="5.49798">
        <ele>662.3</ele>
        <time>2023-07-24T05:40:17Z</time>
      </trkpt>
      <trkpt lat="44.39172" lon="5.49795">
        <ele>662.4</ele>
        <time>2023-07-24T05:40:18Z</time>
      </trkpt>
      <trkpt lat="44.39168" lon="5.49791">
        <ele>662.4</ele>
        <time>2023-07-24T05:40:19Z</time>
      </trkpt>
      <trkpt lat="44.39165" lon="5.49787">
        <ele>662.5</ele>
        <time>2023-07-24T05:40:20Z</time>
      </trkpt>
      <trkpt lat="44.39162" lon="5.49784">
        <ele>662.6</ele>
        <time>2023-07-24T05:40:21Z</time>
      </trkpt>
      <trkpt lat="44.39159" lon="5.4978">
        <ele>662.7</ele>
        <time>2023-07-24T05:40:22Z</time>
      </trkpt>
      <trkpt lat="44.39155" lon="5.49777">
        <ele>662.8</ele>
        <time>2023-07-24T05:40:23Z</time>
      </trkpt>
      <trkpt lat="44.39152" lon="5.49773">
        <ele>662.9</ele>
        <time>2023-07-24T05:40:24Z</time>
      </trkpt>
      <trkpt lat="44.3915" lon="5.4977">
        <ele>663.1</ele>
        <time>2023-07-24T05:40:25Z</time>
      </trkpt>
      <trkpt lat="44.39147" lon="5.49766">
        <ele>663.2</ele>
        <time>2023-07-24T05:40:26Z</time>
      </trkpt>
      <trkpt lat="44.39144" lon="5.49763">
        <ele>663.4</ele>
        <time>2023-07-24T05:40:27Z</time>
      </trkpt>
      <trkpt lat="44.39141" lon="5.49759">
        <ele>663.5</ele>
        <time>2023-07-24T05:40:28Z</time>
      </trkpt>
      <trkpt lat="44.39139" lon="5.49756">
        <ele>663.6</ele>
        <time>2023-07-24T05:40:29Z</time>
      </trkpt>
      <trkpt lat="44.39136" lon="5.49752">
        <ele>663.8</ele>
        <time>2023-07-24T05:40:30Z</time>
      </trkpt>
      <trkpt lat="44.39134" lon="5.49749">
        <ele>663.9</ele>
        <time>2023-07-24T05:40:31Z</time>
      </trkpt>
      <trkpt lat="44.39132" lon="5.49745">
        <ele>664.1</ele>
        <time>2023-07-24T05:40:32Z</time>
      </trkpt>
      <trkpt lat="44.3913" lon="5.4974">
        <ele>664.2</ele>
        <time>2023-07-24T05:40:33Z</time>
      </trkpt>
      <trkpt lat="44.39128" lon="5.49736">
        <ele>664.3</ele>
        <time>2023-07-24T05:40:34Z</time>
      </trkpt>
      <trkpt lat="44.39127" lon="5.49731">
        <ele>664.4</ele>
        <time>2023-07-24T05:40:35Z</time>
      </trkpt>
      <trkpt lat="44.39126" lon="5.49726">
        <ele>664.5</ele>
        <time>2023-07-24T05:40:36Z</time>
      </trkpt>
      <trkpt lat="44.39125" lon="5.4972">
        <ele>664.6</ele>
        <time>2023-07-24T05:40:37Z</time>
      </trkpt>
      <trkpt lat="44.39124" lon="5.49715">
        <ele>664.7</ele>
        <time>2023-07-24T05:40:38Z</time>
      </trkpt>
      <trkpt lat="44.39123" lon="5.4971">
        <ele>664.8</ele>
        <time>2023-07-24T05:40:39Z</time>
      </trkpt>
      <trkpt lat="44.39123" lon="5.49705">
        <ele>664.8</ele>
        <time>2023-07-24T05:40:40Z</time>
      </trkpt>
      <trkpt lat="44.39123" lon="5.497">
        <ele>664.9</ele>
        <time>2023-07-24T05:40:41Z</time>
      </trkpt>
      <trkpt lat="44.39123" lon="5.49694">
        <ele>664.9</ele>
        <time>2023-07-24T05:40:42Z</time>
      </trkpt>
      <trkpt lat="44.39124" lon="5.49689">
        <ele>665</ele>
        <time>2023-07-24T05:40:43Z</time>
      </trkpt>
      <trkpt lat="44.39124" lon="5.49683">
        <ele>665</ele>
        <time>2023-07-24T05:40:44Z</time>
      </trkpt>
      <trkpt lat="44.39125" lon="5.49678">
        <ele>665.1</ele>
        <time>2023-07-24T05:40:45Z</time>
      </trkpt>
      <trkpt lat="44.39125" lon="5.49672">
        <ele>665.1</ele>
        <time>2023-07-24T05:40:46Z</time>
      </trkpt>
      <trkpt lat="44.39125" lon="5.49666">
        <ele>665.1</ele>
        <time>2023-07-24T05:40:47Z</time>
      </trkpt>
      <trkpt lat="44.39126" lon="5.49661">
        <ele>665.1</ele>
        <time>2023-07-24T05:40:48Z</time>
      </trkpt>
      <trkpt lat="44.39127" lon="5.49655">
        <ele>665.1</ele>
        <time>2023-07-24T05:40:49Z</time>
      </trkpt>
      <trkpt lat="44.39128" lon="5.4965">
        <ele>665.1</ele>
        <time>2023-07-24T05:40:50Z</time>
      </trkpt>
      <trkpt lat="44.39128" lon="5.49644">
        <ele>665.1</ele>
        <time>2023-07-24T05:40:51Z</time>
      </trkpt>
      <trkpt lat="44.39128" lon="5.49638">
        <ele>665.1</ele>
        <time>2023-07-24T05:40:52Z</time>
      </trkpt>
      <trkpt lat="44.39127" lon="5.49631">
        <ele>665.1</ele>
        <time>2023-07-24T05:40:53Z</time>
      </trkpt>
      <trkpt lat="44.39127" lon="5.49626">
        <ele>665.1</ele>
        <time>2023-07-24T05:40:54Z</time>
      </trkpt>
      <trkpt lat="44.39125" lon="5.4962">
        <ele>665.2</ele>
        <time>2023-07-24T05:40:55Z</time>
      </trkpt>
      <trkpt lat="44.39124" lon="5.49614">
        <ele>665.2</ele>
        <time>2023-07-24T05:40:56Z</time>
      </trkpt>
      <trkpt lat="44.39122" lon="5.49609">
        <ele>665.3</ele>
        <time>2023-07-24T05:40:57Z</time>
      </trkpt>
      <trkpt lat="44.3912" lon="5.49604">
        <ele>665.4</ele>
        <time>2023-07-24T05:40:58Z</time>
      </trkpt>
      <trkpt lat="44.39117" lon="5.49599">
        <ele>665.5</ele>
        <time>2023-07-24T05:40:59Z</time>
      </trkpt>
      <trkpt lat="44.39116" lon="5.49594">
        <ele>665.6</ele>
        <time>2023-07-24T05:41:00Z</time>
      </trkpt>
      <trkpt lat="44.39114" lon="5.4959">
        <ele>665.7</ele>
        <time>2023-07-24T05:41:01Z</time>
      </trkpt>
      <trkpt lat="44.39112" lon="5.49585">
        <ele>665.8</ele>
        <time>2023-07-24T05:41:02Z</time>
      </trkpt>
      <trkpt lat="44.3911" lon="5.49581">
        <ele>665.9</ele>
        <time>2023-07-24T05:41:03Z</time>
      </trkpt>
      <trkpt lat="44.39108" lon="5.49577">
        <ele>666</ele>
        <time>2023-07-24T05:41:04Z</time>
      </trkpt>
      <trkpt lat="44.39106" lon="5.49573">
        <ele>666.1</ele>
        <time>2023-07-24T05:41:05Z</time>
      </trkpt>
      <trkpt lat="44.39104" lon="5.49569">
        <ele>666.2</ele>
        <time>2023-07-24T05:41:06Z</time>
      </trkpt>
      <trkpt lat="44.39102" lon="5.49565">
        <ele>666.4</ele>
        <time>2023-07-24T05:41:07Z</time>
      </trkpt>
      <trkpt lat="44.391" lon="5.49561">
        <ele>666.5</ele>
        <time>2023-07-24T05:41:08Z</time>
      </trkpt>
      <trkpt lat="44.39098" lon="5.49557">
        <ele>666.6</ele>
        <time>2023-07-24T05:41:09Z</time>
      </trkpt>
      <trkpt lat="44.39095" lon="5.49553">
        <ele>666.7</ele>
        <time>2023-07-24T05:41:10Z</time>
      </trkpt>
      <trkpt lat="44.39093" lon="5.49549">
        <ele>666.8</ele>
        <time>2023-07-24T05:41:11Z</time>
      </trkpt>
      <trkpt lat="44.39091" lon="5.49545">
        <ele>666.9</ele>
        <time>2023-07-24T05:41:12Z</time>
      </trkpt>
      <trkpt lat="44.39089" lon="5.4954">
        <ele>667</ele>
        <time>2023-07-24T05:41:13Z</time>
      </trkpt>
      <trkpt lat="44.39087" lon="5.49536">
        <ele>667.1</ele>
        <time>2023-07-24T05:41:14Z</time>
      </trkpt>
      <trkpt lat="44.39085" lon="5.49532">
        <ele>667.2</ele>
        <time>2023-07-24T05:41:15Z</time>
      </trkpt>
      <trkpt lat="44.39083" lon="5.49528">
        <ele>667.3</ele>
        <time>2023-07-24T05:41:16Z</time>
      </trkpt>
      <trkpt lat="44.39081" lon="5.49524">
        <ele>667.4</ele>
        <time>2023-07-24T05:41:17Z</time>
      </trkpt>
      <trkpt lat="44.39078" lon="5.49519">
        <ele>667.5</ele>
        <time>2023-07-24T05:41:18Z</time>
      </trkpt>
      <trkpt lat="44.39076" lon="5.49515">
        <ele>667.6</ele>
        <time>2023-07-24T05:41:19Z</time>
      </trkpt>
      <trkpt lat="44.39073" lon="5.49511">
        <ele>667.7</ele>
        <time>2023-07-24T05:41:20Z</time>
      </trkpt>
      <trkpt lat="44.39071" lon="5.49507">
        <ele>667.8</ele>
        <time>2023-07-24T05:41:21Z</time>
      </trkpt>
      <trkpt lat="44.39069" lon="5.49502">
        <ele>667.9</ele>
        <time>2023-07-24T05:41:22Z</time>
      </trkpt>
      <trkpt lat="44.39067" lon="5.49498">
        <ele>668</ele>
        <time>2023-07-24T05:41:23Z</time>
      </trkpt>
      <trkpt lat="44.39065" lon="5.49494">
        <ele>668</ele>
        <time>2023-07-24T05:41:24Z</time>
      </trkpt>
      <trkpt lat="44.39062" lon="5.4949">
        <ele>668.1</ele>
        <time>2023-07-24T05:41:25Z</time>
      </trkpt>
      <trkpt lat="44.3906" lon="5.49485">
        <ele>668.2</ele>
        <time>2023-07-24T05:41:26Z</time>
      </trkpt>
      <trkpt lat="44.39058" lon="5.4948">
        <ele>668.3</ele>
        <time>2023-07-24T05:41:27Z</time>
      </trkpt>
      <trkpt lat="44.39056" lon="5.49476">
        <ele>668.4</ele>
        <time>2023-07-24T05:41:28Z</time>
      </trkpt>
      <trkpt lat="44.39054" lon="5.49472">
        <ele>668.5</ele>
        <time>2023-07-24T05:41:29Z</time>
      </trkpt>
      <trkpt lat="44.39052" lon="5.49467">
        <ele>668.6</ele>
        <time>2023-07-24T05:41:30Z</time>
      </trkpt>
      <trkpt lat="44.39051" lon="5.49462">
        <ele>668.7</ele>
        <time>2023-07-24T05:41:31Z</time>
      </trkpt>
      <trkpt lat="44.39049" lon="5.49457">
        <ele>668.8</ele>
        <time>2023-07-24T05:41:32Z</time>
      </trkpt>
      <trkpt lat="44.39046" lon="5.49452">
        <ele>668.9</ele>
        <time>2023-07-24T05:41:33Z</time>
      </trkpt>
      <trkpt lat="44.39044" lon="5.49448">
        <ele>669</ele>
        <time>2023-07-24T05:41:34Z</time>
      </trkpt>
      <trkpt lat="44.39042" lon="5.49444">
        <ele>669.1</ele>
        <time>2023-07-24T05:41:35Z</time>
      </trkpt>
      <trkpt lat="44.3904" lon="5.4944">
        <ele>669.2</ele>
        <time>2023-07-24T05:41:36Z</time>
      </trkpt>
      <trkpt lat="44.39038" lon="5.49436">
        <ele>669.4</ele>
        <time>2023-07-24T05:41:37Z</time>
      </trkpt>
      <trkpt lat="44.39036" lon="5.49432">
        <ele>669.5</ele>
        <time>2023-07-24T05:41:38Z</time>
      </trkpt>
      <trkpt lat="44.39034" lon="5.49428">
        <ele>669.6</ele>
        <time>2023-07-24T05:41:39Z</time>
      </trkpt>
      <trkpt lat="44.39032" lon="5.49424">
        <ele>669.8</ele>
        <time>2023-07-24T05:41:40Z</time>
      </trkpt>
      <trkpt lat="44.3903" lon="5.4942">
        <ele>669.9</ele>
        <time>2023-07-24T05:41:41Z</time>
      </trkpt>
      <trkpt lat="44.39028" lon="5.49416">
        <ele>670.1</ele>
        <time>2023-07-24T05:41:42Z</time>
      </trkpt>
      <trkpt lat="44.39027" lon="5.49412">
        <ele>670.2</ele>
        <time>2023-07-24T05:41:43Z</time>
      </trkpt>
      <trkpt lat="44.39026" lon="5.49408">
        <ele>670.4</ele>
        <time>2023-07-24T05:41:44Z</time>
      </trkpt>
      <trkpt lat="44.39024" lon="5.49404">
        <ele>670.5</ele>
        <time>2023-07-24T05:41:45Z</time>
      </trkpt>
      <trkpt lat="44.39023" lon="5.49399">
        <ele>670.7</ele>
        <time>2023-07-24T05:41:46Z</time>
      </trkpt>
      <trkpt lat="44.39022" lon="5.49395">
        <ele>670.9</ele>
        <time>2023-07-24T05:41:47Z</time>
      </trkpt>
      <trkpt lat="44.39021" lon="5.49391">
        <ele>670.9</ele>
        <time>2023-07-24T05:41:48Z</time>
      </trkpt>
      <trkpt lat="44.39021" lon="5.49386">
        <ele>671</ele>
        <time>2023-07-24T05:41:49Z</time>
      </trkpt>
      <trkpt lat="44.3902" lon="5.49381">
        <ele>671.1</ele>
        <time>2023-07-24T05:41:50Z</time>
      </trkpt>
      <trkpt lat="44.3902" lon="5.49376">
        <ele>671.1</ele>
        <time>2023-07-24T05:41:51Z</time>
      </trkpt>
      <trkpt lat="44.39021" lon="5.4937">
        <ele>671.1</ele>
        <time>2023-07-24T05:41:52Z</time>
      </trkpt>
      <trkpt lat="44.39022" lon="5.49365">
        <ele>671.1</ele>
        <time>2023-07-24T05:41:53Z</time>
      </trkpt>
      <trkpt lat="44.39023" lon="5.49359">
        <ele>671</ele>
        <time>2023-07-24T05:41:54Z</time>
      </trkpt>
      <trkpt lat="44.39024" lon="5.49353">
        <ele>671</ele>
        <time>2023-07-24T05:41:55Z</time>
      </trkpt>
      <trkpt lat="44.39025" lon="5.49348">
        <ele>670.9</ele>
        <time>2023-07-24T05:41:56Z</time>
      </trkpt>
      <trkpt lat="44.39026" lon="5.49342">
        <ele>670.8</ele>
        <time>2023-07-24T05:41:57Z</time>
      </trkpt>
      <trkpt lat="44.39028" lon="5.49336">
        <ele>670.7</ele>
        <time>2023-07-24T05:41:58Z</time>
      </trkpt>
      <trkpt lat="44.39029" lon="5.4933">
        <ele>670.7</ele>
        <time>2023-07-24T05:41:59Z</time>
      </trkpt>
      <trkpt lat="44.39031" lon="5.49324">
        <ele>670.6</ele>
        <time>2023-07-24T05:42:00Z</time>
      </trkpt>
      <trkpt lat="44.39033" lon="5.49318">
        <ele>670.5</ele>
        <time>2023-07-24T05:42:01Z</time>
      </trkpt>
      <trkpt lat="44.39034" lon="5.49311">
        <ele>670.3</ele>
        <time>2023-07-24T05:42:02Z</time>
      </trkpt>
      <trkpt lat="44.39036" lon="5.49305">
        <ele>670.2</ele>
        <time>2023-07-24T05:42:03Z</time>
      </trkpt>
      <trkpt lat="44.39038" lon="5.49298">
        <ele>670.2</ele>
        <time>2023-07-24T05:42:04Z</time>
      </trkpt>
      <trkpt lat="44.39039" lon="5.49292">
        <ele>670.1</ele>
        <time>2023-07-24T05:42:05Z</time>
      </trkpt>
      <trkpt lat="44.3904" lon="5.49285">
        <ele>670</ele>
        <time>2023-07-24T05:42:06Z</time>
      </trkpt>
      <trkpt lat="44.3904" lon="5.49278">
        <ele>669.9</ele>
        <time>2023-07-24T05:42:07Z</time>
      </trkpt>
      <trkpt lat="44.3904" lon="5.49271">
        <ele>669.8</ele>
        <time>2023-07-24T05:42:08Z</time>
      </trkpt>
      <trkpt lat="44.3904" lon="5.49264">
        <ele>669.8</ele>
        <time>2023-07-24T05:42:09Z</time>
      </trkpt>
      <trkpt lat="44.39039" lon="5.49258">
        <ele>669.8</ele>
        <time>2023-07-24T05:42:10Z</time>
      </trkpt>
      <trkpt lat="44.39039" lon="5.49252">
        <ele>669.8</ele>
        <time>2023-07-24T05:42:11Z</time>
      </trkpt>
      <trkpt lat="44.39037" lon="5.49246">
        <ele>669.8</ele>
        <time>2023-07-24T05:42:12Z</time>
      </trkpt>
      <trkpt lat="44.39035" lon="5.4924">
        <ele>669.9</ele>
        <time>2023-07-24T05:42:13Z</time>
      </trkpt>
      <trkpt lat="44.39033" lon="5.49234">
        <ele>669.9</ele>
        <time>2023-07-24T05:42:14Z</time>
      </trkpt>
      <trkpt lat="44.3903" lon="5.49228">
        <ele>670</ele>
        <time>2023-07-24T05:42:15Z</time>
      </trkpt>
      <trkpt lat="44.39028" lon="5.49223">
        <ele>670.1</ele>
        <time>2023-07-24T05:42:16Z</time>
      </trkpt>
      <trkpt lat="44.39025" lon="5.49219">
        <ele>670.2</ele>
        <time>2023-07-24T05:42:17Z</time>
      </trkpt>
      <trkpt lat="44.39022" lon="5.49215">
        <ele>670.3</ele>
        <time>2023-07-24T05:42:18Z</time>
      </trkpt>
      <trkpt lat="44.39018" lon="5.49212">
        <ele>670.5</ele>
        <time>2023-07-24T05:42:19Z</time>
      </trkpt>
      <trkpt lat="44.39015" lon="5.49209">
        <ele>670.6</ele>
        <time>2023-07-24T05:42:20Z</time>
      </trkpt>
      <trkpt lat="44.39012" lon="5.49206">
        <ele>670.7</ele>
        <time>2023-07-24T05:42:21Z</time>
      </trkpt>
      <trkpt lat="44.39009" lon="5.49203">
        <ele>670.8</ele>
        <time>2023-07-24T05:42:22Z</time>
      </trkpt>
      <trkpt lat="44.39006" lon="5.492">
        <ele>671</ele>
        <time>2023-07-24T05:42:23Z</time>
      </trkpt>
      <trkpt lat="44.39003" lon="5.49197">
        <ele>671.1</ele>
        <time>2023-07-24T05:42:24Z</time>
      </trkpt>
      <trkpt lat="44.39" lon="5.49195">
        <ele>671.3</ele>
        <time>2023-07-24T05:42:25Z</time>
      </trkpt>
      <trkpt lat="44.38996" lon="5.49192">
        <ele>671.5</ele>
        <time>2023-07-24T05:42:26Z</time>
      </trkpt>
      <trkpt lat="44.38993" lon="5.49189">
        <ele>671.6</ele>
        <time>2023-07-24T05:42:27Z</time>
      </trkpt>
      <trkpt lat="44.38991" lon="5.49187">
        <ele>671.8</ele>
        <time>2023-07-24T05:42:28Z</time>
      </trkpt>
      <trkpt lat="44.38988" lon="5.49184">
        <ele>671.9</ele>
        <time>2023-07-24T05:42:29Z</time>
      </trkpt>
      <trkpt lat="44.38985" lon="5.49181">
        <ele>672.1</ele>
        <time>2023-07-24T05:42:30Z</time>
      </trkpt>
      <trkpt lat="44.38982" lon="5.49179">
        <ele>672.2</ele>
        <time>2023-07-24T05:42:31Z</time>
      </trkpt>
      <trkpt lat="44.38979" lon="5.49176">
        <ele>672.4</ele>
        <time>2023-07-24T05:42:32Z</time>
      </trkpt>
      <trkpt lat="44.38976" lon="5.49173">
        <ele>672.6</ele>
        <time>2023-07-24T05:42:33Z</time>
      </trkpt>
      <trkpt lat="44.38973" lon="5.4917">
        <ele>672.7</ele>
        <time>2023-07-24T05:42:34Z</time>
      </trkpt>
      <trkpt lat="44.3897" lon="5.49168">
        <ele>672.9</ele>
        <time>2023-07-24T05:42:35Z</time>
      </trkpt>
      <trkpt lat="44.38968" lon="5.49165">
        <ele>673</ele>
        <time>2023-07-24T05:42:36Z</time>
      </trkpt>
      <trkpt lat="44.38965" lon="5.49162">
        <ele>673.2</ele>
        <time>2023-07-24T05:42:37Z</time>
      </trkpt>
      <trkpt lat="44.38962" lon="5.49159">
        <ele>673.3</ele>
        <time>2023-07-24T05:42:38Z</time>
      </trkpt>
      <trkpt lat="44.38959" lon="5.49157">
        <ele>673.5</ele>
        <time>2023-07-24T05:42:39Z</time>
      </trkpt>
      <trkpt lat="44.38956" lon="5.49154">
        <ele>673.6</ele>
        <time>2023-07-24T05:42:40Z</time>
      </trkpt>
      <trkpt lat="44.38953" lon="5.49151">
        <ele>673.7</ele>
        <time>2023-07-24T05:42:41Z</time>
      </trkpt>
      <trkpt lat="44.3895" lon="5.49148">
        <ele>673.9</ele>
        <time>2023-07-24T05:42:42Z</time>
      </trkpt>
      <trkpt lat="44.38948" lon="5.49145">
        <ele>674</ele>
        <time>2023-07-24T05:42:43Z</time>
      </trkpt>
      <trkpt lat="44.38946" lon="5.49141">
        <ele>674.1</ele>
        <time>2023-07-24T05:42:44Z</time>
      </trkpt>
      <trkpt lat="44.38943" lon="5.49137">
        <ele>674.3</ele>
        <time>2023-07-24T05:42:45Z</time>
      </trkpt>
      <trkpt lat="44.38941" lon="5.49133">
        <ele>674.4</ele>
        <time>2023-07-24T05:42:46Z</time>
      </trkpt>
      <trkpt lat="44.38939" lon="5.4913">
        <ele>674.5</ele>
        <time>2023-07-24T05:42:47Z</time>
      </trkpt>
      <trkpt lat="44.38937" lon="5.49126">
        <ele>674.6</ele>
        <time>2023-07-24T05:42:48Z</time>
      </trkpt>
      <trkpt lat="44.38935" lon="5.49122">
        <ele>674.7</ele>
        <time>2023-07-24T05:42:49Z</time>
      </trkpt>
      <trkpt lat="44.38934" lon="5.49118">
        <ele>674.8</ele>
        <time>2023-07-24T05:42:50Z</time>
      </trkpt>
      <trkpt lat="44.38932" lon="5.49113">
        <ele>674.9</ele>
        <time>2023-07-24T05:42:51Z</time>
      </trkpt>
      <trkpt lat="44.38931" lon="5.49108">
        <ele>675</ele>
        <time>2023-07-24T05:42:52Z</time>
      </trkpt>
      <trkpt lat="44.38929" lon="5.49104">
        <ele>675.1</ele>
        <time>2023-07-24T05:42:53Z</time>
      </trkpt>
      <trkpt lat="44.38928" lon="5.49099">
        <ele>675.1</ele>
        <time>2023-07-24T05:42:54Z</time>
      </trkpt>
      <trkpt lat="44.38926" lon="5.49095">
        <ele>675.2</ele>
        <time>2023-07-24T05:42:55Z</time>
      </trkpt>
      <trkpt lat="44.38925" lon="5.4909">
        <ele>675.3</ele>
        <time>2023-07-24T05:42:56Z</time>
      </trkpt>
      <trkpt lat="44.38923" lon="5.49086">
        <ele>675.4</ele>
        <time>2023-07-24T05:42:57Z</time>
      </trkpt>
      <trkpt lat="44.38922" lon="5.49082">
        <ele>675.4</ele>
        <time>2023-07-24T05:42:58Z</time>
      </trkpt>
      <trkpt lat="44.3892" lon="5.49078">
        <ele>675.5</ele>
        <time>2023-07-24T05:42:59Z</time>
      </trkpt>
      <trkpt lat="44.38919" lon="5.49073">
        <ele>675.6</ele>
        <time>2023-07-24T05:43:00Z</time>
      </trkpt>
      <trkpt lat="44.38917" lon="5.49068">
        <ele>675.7</ele>
        <time>2023-07-24T05:43:01Z</time>
      </trkpt>
      <trkpt lat="44.38916" lon="5.49063">
        <ele>675.8</ele>
        <time>2023-07-24T05:43:02Z</time>
      </trkpt>
      <trkpt lat="44.38915" lon="5.49059">
        <ele>675.8</ele>
        <time>2023-07-24T05:43:03Z</time>
      </trkpt>
      <trkpt lat="44.38913" lon="5.49054">
        <ele>675.9</ele>
        <time>2023-07-24T05:43:04Z</time>
      </trkpt>
      <trkpt lat="44.38912" lon="5.4905">
        <ele>676</ele>
        <time>2023-07-24T05:43:05Z</time>
      </trkpt>
      <trkpt lat="44.3891" lon="5.49045">
        <ele>676.1</ele>
        <time>2023-07-24T05:43:06Z</time>
      </trkpt>
      <trkpt lat="44.38909" lon="5.4904">
        <ele>676.2</ele>
        <time>2023-07-24T05:43:07Z</time>
      </trkpt>
      <trkpt lat="44.38907" lon="5.49035">
        <ele>676.2</ele>
        <time>2023-07-24T05:43:08Z</time>
      </trkpt>
      <trkpt lat="44.38906" lon="5.4903">
        <ele>676.3</ele>
        <time>2023-07-24T05:43:09Z</time>
      </trkpt>
      <trkpt lat="44.38904" lon="5.49025">
        <ele>676.4</ele>
        <time>2023-07-24T05:43:10Z</time>
      </trkpt>
      <trkpt lat="44.38901" lon="5.49015">
        <ele>676.5</ele>
        <time>2023-07-24T05:43:12Z</time>
      </trkpt>
      <trkpt lat="44.389" lon="5.49011">
        <ele>676.5</ele>
        <time>2023-07-24T05:43:13Z</time>
      </trkpt>
      <trkpt lat="44.38899" lon="5.49006">
        <ele>676.5</ele>
        <time>2023-07-24T05:43:14Z</time>
      </trkpt>
      <trkpt lat="44.38897" lon="5.49001">
        <ele>676.6</ele>
        <time>2023-07-24T05:43:15Z</time>
      </trkpt>
      <trkpt lat="44.38896" lon="5.48995">
        <ele>676.7</ele>
        <time>2023-07-24T05:43:16Z</time>
      </trkpt>
      <trkpt lat="44.38895" lon="5.4899">
        <ele>676.7</ele>
        <time>2023-07-24T05:43:17Z</time>
      </trkpt>
      <trkpt lat="44.38894" lon="5.48984">
        <ele>676.8</ele>
        <time>2023-07-24T05:43:18Z</time>
      </trkpt>
      <trkpt lat="44.38893" lon="5.48979">
        <ele>676.9</ele>
        <time>2023-07-24T05:43:19Z</time>
      </trkpt>
      <trkpt lat="44.38892" lon="5.48974">
        <ele>677</ele>
        <time>2023-07-24T05:43:20Z</time>
      </trkpt>
      <trkpt lat="44.38892" lon="5.48968">
        <ele>677</ele>
        <time>2023-07-24T05:43:21Z</time>
      </trkpt>
      <trkpt lat="44.38891" lon="5.48963">
        <ele>677.1</ele>
        <time>2023-07-24T05:43:22Z</time>
      </trkpt>
      <trkpt lat="44.3889" lon="5.48957">
        <ele>677.3</ele>
        <time>2023-07-24T05:43:23Z</time>
      </trkpt>
      <trkpt lat="44.38889" lon="5.48952">
        <ele>677.4</ele>
        <time>2023-07-24T05:43:24Z</time>
      </trkpt>
      <trkpt lat="44.38888" lon="5.48946">
        <ele>677.5</ele>
        <time>2023-07-24T05:43:25Z</time>
      </trkpt>
      <trkpt lat="44.38886" lon="5.48941">
        <ele>677.6</ele>
        <time>2023-07-24T05:43:26Z</time>
      </trkpt>
      <trkpt lat="44.38885" lon="5.48935">
        <ele>677.7</ele>
        <time>2023-07-24T05:43:27Z</time>
      </trkpt>
      <trkpt lat="44.38884" lon="5.4893">
        <ele>677.9</ele>
        <time>2023-07-24T05:43:28Z</time>
      </trkpt>
      <trkpt lat="44.38883" lon="5.48925">
        <ele>678</ele>
        <time>2023-07-24T05:43:29Z</time>
      </trkpt>
      <trkpt lat="44.38882" lon="5.4892">
        <ele>678.1</ele>
        <time>2023-07-24T05:43:30Z</time>
      </trkpt>
      <trkpt lat="44.3888" lon="5.48915">
        <ele>678.2</ele>
        <time>2023-07-24T05:43:31Z</time>
      </trkpt>
      <trkpt lat="44.38879" lon="5.4891">
        <ele>678.3</ele>
        <time>2023-07-24T05:43:32Z</time>
      </trkpt>
      <trkpt lat="44.38877" lon="5.48905">
        <ele>678.4</ele>
        <time>2023-07-24T05:43:33Z</time>
      </trkpt>
      <trkpt lat="44.38875" lon="5.489">
        <ele>678.5</ele>
        <time>2023-07-24T05:43:34Z</time>
      </trkpt>
      <trkpt lat="44.38873" lon="5.48895">
        <ele>678.7</ele>
        <time>2023-07-24T05:43:35Z</time>
      </trkpt>
      <trkpt lat="44.38871" lon="5.4889">
        <ele>678.8</ele>
        <time>2023-07-24T05:43:36Z</time>
      </trkpt>
      <trkpt lat="44.38869" lon="5.48886">
        <ele>679</ele>
        <time>2023-07-24T05:43:37Z</time>
      </trkpt>
      <trkpt lat="44.38867" lon="5.48881">
        <ele>679.1</ele>
        <time>2023-07-24T05:43:38Z</time>
      </trkpt>
      <trkpt lat="44.38865" lon="5.48877">
        <ele>679.2</ele>
        <time>2023-07-24T05:43:39Z</time>
      </trkpt>
      <trkpt lat="44.38863" lon="5.48873">
        <ele>679.4</ele>
        <time>2023-07-24T05:43:40Z</time>
      </trkpt>
      <trkpt lat="44.3886" lon="5.48869">
        <ele>679.5</ele>
        <time>2023-07-24T05:43:41Z</time>
      </trkpt>
      <trkpt lat="44.38858" lon="5.48865">
        <ele>679.6</ele>
        <time>2023-07-24T05:43:42Z</time>
      </trkpt>
      <trkpt lat="44.38856" lon="5.4886">
        <ele>679.8</ele>
        <time>2023-07-24T05:43:43Z</time>
      </trkpt>
      <trkpt lat="44.38853" lon="5.48856">
        <ele>679.9</ele>
        <time>2023-07-24T05:43:44Z</time>
      </trkpt>
      <trkpt lat="44.3885" lon="5.48852">
        <ele>680.1</ele>
        <time>2023-07-24T05:43:45Z</time>
      </trkpt>
      <trkpt lat="44.38848" lon="5.48848">
        <ele>680.2</ele>
        <time>2023-07-24T05:43:46Z</time>
      </trkpt>
      <trkpt lat="44.38845" lon="5.48845">
        <ele>680.4</ele>
        <time>2023-07-24T05:43:47Z</time>
      </trkpt>
      <trkpt lat="44.38842" lon="5.48842">
        <ele>680.5</ele>
        <time>2023-07-24T05:43:48Z</time>
      </trkpt>
      <trkpt lat="44.38839" lon="5.48838">
        <ele>680.7</ele>
        <time>2023-07-24T05:43:49Z</time>
      </trkpt>
      <trkpt lat="44.38837" lon="5.48835">
        <ele>680.8</ele>
        <time>2023-07-24T05:43:50Z</time>
      </trkpt>
      <trkpt lat="44.38834" lon="5.48831">
        <ele>681</ele>
        <time>2023-07-24T05:43:51Z</time>
      </trkpt>
      <trkpt lat="44.38831" lon="5.48827">
        <ele>681.2</ele>
        <time>2023-07-24T05:43:52Z</time>
      </trkpt>
      <trkpt lat="44.38829" lon="5.48824">
        <ele>681.3</ele>
        <time>2023-07-24T05:43:53Z</time>
      </trkpt>
      <trkpt lat="44.38826" lon="5.4882">
        <ele>681.5</ele>
        <time>2023-07-24T05:43:54Z</time>
      </trkpt>
      <trkpt lat="44.38824" lon="5.48816">
        <ele>681.7</ele>
        <time>2023-07-24T05:43:55Z</time>
      </trkpt>
      <trkpt lat="44.38822" lon="5.48812">
        <ele>681.9</ele>
        <time>2023-07-24T05:43:56Z</time>
      </trkpt>
      <trkpt lat="44.3882" lon="5.48807">
        <ele>682.1</ele>
        <time>2023-07-24T05:43:57Z</time>
      </trkpt>
      <trkpt lat="44.38818" lon="5.48803">
        <ele>682.3</ele>
        <time>2023-07-24T05:43:58Z</time>
      </trkpt>
      <trkpt lat="44.38817" lon="5.48798">
        <ele>682.4</ele>
        <time>2023-07-24T05:43:59Z</time>
      </trkpt>
      <trkpt lat="44.38815" lon="5.48793">
        <ele>682.6</ele>
        <time>2023-07-24T05:44:00Z</time>
      </trkpt>
      <trkpt lat="44.38814" lon="5.48789">
        <ele>682.8</ele>
        <time>2023-07-24T05:44:01Z</time>
      </trkpt>
      <trkpt lat="44.38813" lon="5.48784">
        <ele>683</ele>
        <time>2023-07-24T05:44:02Z</time>
      </trkpt>
      <trkpt lat="44.38811" lon="5.48779">
        <ele>683.1</ele>
        <time>2023-07-24T05:44:03Z</time>
      </trkpt>
      <trkpt lat="44.3881" lon="5.48775">
        <ele>683.3</ele>
        <time>2023-07-24T05:44:04Z</time>
      </trkpt>
      <trkpt lat="44.38809" lon="5.4877">
        <ele>683.5</ele>
        <time>2023-07-24T05:44:05Z</time>
      </trkpt>
      <trkpt lat="44.38808" lon="5.48765">
        <ele>683.7</ele>
        <time>2023-07-24T05:44:06Z</time>
      </trkpt>
      <trkpt lat="44.38807" lon="5.4876">
        <ele>683.9</ele>
        <time>2023-07-24T05:44:07Z</time>
      </trkpt>
      <trkpt lat="44.38806" lon="5.48756">
        <ele>684.1</ele>
        <time>2023-07-24T05:44:08Z</time>
      </trkpt>
      <trkpt lat="44.38805" lon="5.48751">
        <ele>684.2</ele>
        <time>2023-07-24T05:44:09Z</time>
      </trkpt>
      <trkpt lat="44.38804" lon="5.48746">
        <ele>684.4</ele>
        <time>2023-07-24T05:44:10Z</time>
      </trkpt>
      <trkpt lat="44.38802" lon="5.4874">
        <ele>684.6</ele>
        <time>2023-07-24T05:44:11Z</time>
      </trkpt>
      <trkpt lat="44.388" lon="5.48735">
        <ele>684.8</ele>
        <time>2023-07-24T05:44:12Z</time>
      </trkpt>
      <trkpt lat="44.38799" lon="5.48731">
        <ele>685</ele>
        <time>2023-07-24T05:44:13Z</time>
      </trkpt>
      <trkpt lat="44.38798" lon="5.48726">
        <ele>685.1</ele>
        <time>2023-07-24T05:44:14Z</time>
      </trkpt>
      <trkpt lat="44.38797" lon="5.48722">
        <ele>685.3</ele>
        <time>2023-07-24T05:44:15Z</time>
      </trkpt>
      <trkpt lat="44.38796" lon="5.48717">
        <ele>685.4</ele>
        <time>2023-07-24T05:44:16Z</time>
      </trkpt>
      <trkpt lat="44.38795" lon="5.48713">
        <ele>685.6</ele>
        <time>2023-07-24T05:44:17Z</time>
      </trkpt>
      <trkpt lat="44.38794" lon="5.48708">
        <ele>685.8</ele>
        <time>2023-07-24T05:44:18Z</time>
      </trkpt>
      <trkpt lat="44.38793" lon="5.48703">
        <ele>686</ele>
        <time>2023-07-24T05:44:19Z</time>
      </trkpt>
      <trkpt lat="44.38792" lon="5.48699">
        <ele>686.2</ele>
        <time>2023-07-24T05:44:20Z</time>
      </trkpt>
      <trkpt lat="44.3879" lon="5.48694">
        <ele>686.4</ele>
        <time>2023-07-24T05:44:21Z</time>
      </trkpt>
      <trkpt lat="44.38789" lon="5.4869">
        <ele>686.5</ele>
        <time>2023-07-24T05:44:22Z</time>
      </trkpt>
      <trkpt lat="44.38788" lon="5.48685">
        <ele>686.7</ele>
        <time>2023-07-24T05:44:23Z</time>
      </trkpt>
      <trkpt lat="44.38787" lon="5.4868">
        <ele>686.9</ele>
        <time>2023-07-24T05:44:24Z</time>
      </trkpt>
      <trkpt lat="44.38786" lon="5.48676">
        <ele>687.1</ele>
        <time>2023-07-24T05:44:25Z</time>
      </trkpt>
      <trkpt lat="44.38784" lon="5.48671">
        <ele>687.3</ele>
        <time>2023-07-24T05:44:26Z</time>
      </trkpt>
      <trkpt lat="44.38783" lon="5.48667">
        <ele>687.5</ele>
        <time>2023-07-24T05:44:27Z</time>
      </trkpt>
      <trkpt lat="44.38782" lon="5.48662">
        <ele>687.8</ele>
        <time>2023-07-24T05:44:28Z</time>
      </trkpt>
      <trkpt lat="44.38781" lon="5.48658">
        <ele>688</ele>
        <time>2023-07-24T05:44:29Z</time>
      </trkpt>
      <trkpt lat="44.3878" lon="5.48653">
        <ele>688.2</ele>
        <time>2023-07-24T05:44:30Z</time>
      </trkpt>
      <trkpt lat="44.38779" lon="5.48648">
        <ele>688.4</ele>
        <time>2023-07-24T05:44:31Z</time>
      </trkpt>
      <trkpt lat="44.38778" lon="5.48643">
        <ele>688.6</ele>
        <time>2023-07-24T05:44:32Z</time>
      </trkpt>
      <trkpt lat="44.38777" lon="5.48638">
        <ele>688.8</ele>
        <time>2023-07-24T05:44:33Z</time>
      </trkpt>
      <trkpt lat="44.38776" lon="5.48633">
        <ele>689</ele>
        <time>2023-07-24T05:44:34Z</time>
      </trkpt>
      <trkpt lat="44.38775" lon="5.48629">
        <ele>689.2</ele>
        <time>2023-07-24T05:44:35Z</time>
      </trkpt>
      <trkpt lat="44.38774" lon="5.48624">
        <ele>689.4</ele>
        <time>2023-07-24T05:44:36Z</time>
      </trkpt>
      <trkpt lat="44.38774" lon="5.48619">
        <ele>689.6</ele>
        <time>2023-07-24T05:44:37Z</time>
      </trkpt>
      <trkpt lat="44.38774" lon="5.48614">
        <ele>689.8</ele>
        <time>2023-07-24T05:44:38Z</time>
      </trkpt>
      <trkpt lat="44.38774" lon="5.48608">
        <ele>690</ele>
        <time>2023-07-24T05:44:39Z</time>
      </trkpt>
      <trkpt lat="44.38774" lon="5.48604">
        <ele>690.3</ele>
        <time>2023-07-24T05:44:40Z</time>
      </trkpt>
      <trkpt lat="44.38774" lon="5.48599">
        <ele>690.5</ele>
        <time>2023-07-24T05:44:41Z</time>
      </trkpt>
      <trkpt lat="44.38775" lon="5.48595">
        <ele>690.7</ele>
        <time>2023-07-24T05:44:42Z</time>
      </trkpt>
      <trkpt lat="44.38777" lon="5.48591">
        <ele>690.9</ele>
        <time>2023-07-24T05:44:43Z</time>
      </trkpt>
      <trkpt lat="44.38779" lon="5.48588">
        <ele>690.9</ele>
        <time>2023-07-24T05:44:44Z</time>
      </trkpt>
      <trkpt lat="44.38781" lon="5.48587">
        <ele>691</ele>
        <time>2023-07-24T05:44:45Z</time>
      </trkpt>
      <trkpt lat="44.38784" lon="5.48587">
        <ele>691</ele>
        <time>2023-07-24T05:44:46Z</time>
      </trkpt>
      <trkpt lat="44.38787" lon="5.48589">
        <ele>691.1</ele>
        <time>2023-07-24T05:44:47Z</time>
      </trkpt>
      <trkpt lat="44.3879" lon="5.4859">
        <ele>691.2</ele>
        <time>2023-07-24T05:44:48Z</time>
      </trkpt>
      <trkpt lat="44.38794" lon="5.48591">
        <ele>691.2</ele>
        <time>2023-07-24T05:44:49Z</time>
      </trkpt>
      <trkpt lat="44.38798" lon="5.4859">
        <ele>689.9</ele>
        <time>2023-07-24T05:44:50Z</time>
      </trkpt>
      <trkpt lat="44.38802" lon="5.48588">
        <ele>687.6</ele>
        <time>2023-07-24T05:44:51Z</time>
      </trkpt>
      <trkpt lat="44.38805" lon="5.48584">
        <ele>689.9</ele>
        <time>2023-07-24T05:44:52Z</time>
      </trkpt>
      <trkpt lat="44.38809" lon="5.48579">
        <ele>692.1</ele>
        <time>2023-07-24T05:44:53Z</time>
      </trkpt>
      <trkpt lat="44.38811" lon="5.48574">
        <ele>693.6</ele>
        <time>2023-07-24T05:44:54Z</time>
      </trkpt>
      <trkpt lat="44.38813" lon="5.48569">
        <ele>693.6</ele>
        <time>2023-07-24T05:44:55Z</time>
      </trkpt>
      <trkpt lat="44.38815" lon="5.48564">
        <ele>693.5</ele>
        <time>2023-07-24T05:44:56Z</time>
      </trkpt>
      <trkpt lat="44.38817" lon="5.48558">
        <ele>693.4</ele>
        <time>2023-07-24T05:44:57Z</time>
      </trkpt>
      <trkpt lat="44.38818" lon="5.48553">
        <ele>693.4</ele>
        <time>2023-07-24T05:44:58Z</time>
      </trkpt>
      <trkpt lat="44.3882" lon="5.48547">
        <ele>693.3</ele>
        <time>2023-07-24T05:44:59Z</time>
      </trkpt>
      <trkpt lat="44.38822" lon="5.48541">
        <ele>693.3</ele>
        <time>2023-07-24T05:45:00Z</time>
      </trkpt>
      <trkpt lat="44.38824" lon="5.48535">
        <ele>693.2</ele>
        <time>2023-07-24T05:45:01Z</time>
      </trkpt>
      <trkpt lat="44.38825" lon="5.48529">
        <ele>693.1</ele>
        <time>2023-07-24T05:45:02Z</time>
      </trkpt>
      <trkpt lat="44.38827" lon="5.48524">
        <ele>693.1</ele>
        <time>2023-07-24T05:45:03Z</time>
      </trkpt>
      <trkpt lat="44.38828" lon="5.48518">
        <ele>693</ele>
        <time>2023-07-24T05:45:04Z</time>
      </trkpt>
      <trkpt lat="44.38829" lon="5.48512">
        <ele>692.9</ele>
        <time>2023-07-24T05:45:05Z</time>
      </trkpt>
      <trkpt lat="44.38829" lon="5.48505">
        <ele>692.9</ele>
        <time>2023-07-24T05:45:06Z</time>
      </trkpt>
      <trkpt lat="44.3883" lon="5.48499">
        <ele>692.8</ele>
        <time>2023-07-24T05:45:07Z</time>
      </trkpt>
      <trkpt lat="44.3883" lon="5.48492">
        <ele>692.7</ele>
        <time>2023-07-24T05:45:08Z</time>
      </trkpt>
      <trkpt lat="44.38831" lon="5.48486">
        <ele>692.7</ele>
        <time>2023-07-24T05:45:09Z</time>
      </trkpt>
      <trkpt lat="44.38832" lon="5.48479">
        <ele>692.8</ele>
        <time>2023-07-24T05:45:10Z</time>
      </trkpt>
      <trkpt lat="44.38832" lon="5.48474">
        <ele>692.8</ele>
        <time>2023-07-24T05:45:11Z</time>
      </trkpt>
      <trkpt lat="44.38833" lon="5.48467">
        <ele>692.8</ele>
        <time>2023-07-24T05:45:12Z</time>
      </trkpt>
      <trkpt lat="44.38833" lon="5.48461">
        <ele>692.8</ele>
        <time>2023-07-24T05:45:13Z</time>
      </trkpt>
      <trkpt lat="44.38834" lon="5.48455">
        <ele>692.8</ele>
        <time>2023-07-24T05:45:14Z</time>
      </trkpt>
      <trkpt lat="44.38834" lon="5.48448">
        <ele>692.9</ele>
        <time>2023-07-24T05:45:15Z</time>
      </trkpt>
      <trkpt lat="44.38835" lon="5.48442">
        <ele>692.9</ele>
        <time>2023-07-24T05:45:16Z</time>
      </trkpt>
      <trkpt lat="44.38835" lon="5.48436">
        <ele>692.9</ele>
        <time>2023-07-24T05:45:17Z</time>
      </trkpt>
      <trkpt lat="44.38835" lon="5.4843">
        <ele>692.9</ele>
        <time>2023-07-24T05:45:18Z</time>
      </trkpt>
      <trkpt lat="44.38835" lon="5.48423">
        <ele>692.9</ele>
        <time>2023-07-24T05:45:19Z</time>
      </trkpt>
      <trkpt lat="44.38836" lon="5.48417">
        <ele>692.9</ele>
        <time>2023-07-24T05:45:20Z</time>
      </trkpt>
      <trkpt lat="44.38837" lon="5.48411">
        <ele>692.9</ele>
        <time>2023-07-24T05:45:21Z</time>
      </trkpt>
      <trkpt lat="44.38837" lon="5.48404">
        <ele>692.8</ele>
        <time>2023-07-24T05:45:22Z</time>
      </trkpt>
      <trkpt lat="44.38837" lon="5.48398">
        <ele>692.8</ele>
        <time>2023-07-24T05:45:23Z</time>
      </trkpt>
      <trkpt lat="44.38838" lon="5.48391">
        <ele>692.8</ele>
        <time>2023-07-24T05:45:24Z</time>
      </trkpt>
      <trkpt lat="44.38838" lon="5.48385">
        <ele>692.7</ele>
        <time>2023-07-24T05:45:25Z</time>
      </trkpt>
      <trkpt lat="44.38839" lon="5.48379">
        <ele>692.7</ele>
        <time>2023-07-24T05:45:26Z</time>
      </trkpt>
      <trkpt lat="44.38839" lon="5.48372">
        <ele>692.6</ele>
        <time>2023-07-24T05:45:27Z</time>
      </trkpt>
      <trkpt lat="44.3884" lon="5.48366">
        <ele>692.5</ele>
        <time>2023-07-24T05:45:28Z</time>
      </trkpt>
      <trkpt lat="44.38841" lon="5.48359">
        <ele>692.5</ele>
        <time>2023-07-24T05:45:29Z</time>
      </trkpt>
      <trkpt lat="44.38842" lon="5.48353">
        <ele>692.4</ele>
        <time>2023-07-24T05:45:30Z</time>
      </trkpt>
      <trkpt lat="44.38843" lon="5.48346">
        <ele>692.3</ele>
        <time>2023-07-24T05:45:31Z</time>
      </trkpt>
      <trkpt lat="44.38844" lon="5.4834">
        <ele>692.2</ele>
        <time>2023-07-24T05:45:32Z</time>
      </trkpt>
      <trkpt lat="44.38845" lon="5.48333">
        <ele>692.2</ele>
        <time>2023-07-24T05:45:33Z</time>
      </trkpt>
      <trkpt lat="44.38846" lon="5.48327">
        <ele>692.1</ele>
        <time>2023-07-24T05:45:34Z</time>
      </trkpt>
      <trkpt lat="44.38847" lon="5.4832">
        <ele>691.9</ele>
        <time>2023-07-24T05:45:35Z</time>
      </trkpt>
      <trkpt lat="44.38849" lon="5.48313">
        <ele>691.8</ele>
        <time>2023-07-24T05:45:36Z</time>
      </trkpt>
      <trkpt lat="44.3885" lon="5.48306">
        <ele>691.7</ele>
        <time>2023-07-24T05:45:37Z</time>
      </trkpt>
      <trkpt lat="44.38851" lon="5.483">
        <ele>691.5</ele>
        <time>2023-07-24T05:45:38Z</time>
      </trkpt>
      <trkpt lat="44.38853" lon="5.48293">
        <ele>691.4</ele>
        <time>2023-07-24T05:45:39Z</time>
      </trkpt>
      <trkpt lat="44.38854" lon="5.48285">
        <ele>691.2</ele>
        <time>2023-07-24T05:45:40Z</time>
      </trkpt>
      <trkpt lat="44.38855" lon="5.48278">
        <ele>691</ele>
        <time>2023-07-24T05:45:41Z</time>
      </trkpt>
      <trkpt lat="44.38856" lon="5.48271">
        <ele>690.8</ele>
        <time>2023-07-24T05:45:42Z</time>
      </trkpt>
      <trkpt lat="44.38857" lon="5.48263">
        <ele>690.6</ele>
        <time>2023-07-24T05:45:43Z</time>
      </trkpt>
      <trkpt lat="44.38859" lon="5.48256">
        <ele>690.4</ele>
        <time>2023-07-24T05:45:44Z</time>
      </trkpt>
      <trkpt lat="44.38861" lon="5.48248">
        <ele>690.2</ele>
        <time>2023-07-24T05:45:45Z</time>
      </trkpt>
      <trkpt lat="44.38863" lon="5.4824">
        <ele>690</ele>
        <time>2023-07-24T05:45:46Z</time>
      </trkpt>
      <trkpt lat="44.38865" lon="5.48232">
        <ele>689.8</ele>
        <time>2023-07-24T05:45:47Z</time>
      </trkpt>
      <trkpt lat="44.38867" lon="5.48224">
        <ele>689.6</ele>
        <time>2023-07-24T05:45:48Z</time>
      </trkpt>
      <trkpt lat="44.38869" lon="5.48216">
        <ele>689.3</ele>
        <time>2023-07-24T05:45:49Z</time>
      </trkpt>
      <trkpt lat="44.3887" lon="5.48207">
        <ele>689.1</ele>
        <time>2023-07-24T05:45:50Z</time>
      </trkpt>
      <trkpt lat="44.38872" lon="5.48199">
        <ele>688.8</ele>
        <time>2023-07-24T05:45:51Z</time>
      </trkpt>
      <trkpt lat="44.38875" lon="5.48191">
        <ele>688.6</ele>
        <time>2023-07-24T05:45:52Z</time>
      </trkpt>
      <trkpt lat="44.38877" lon="5.48182">
        <ele>688.3</ele>
        <time>2023-07-24T05:45:53Z</time>
      </trkpt>
      <trkpt lat="44.38879" lon="5.48174">
        <ele>688</ele>
        <time>2023-07-24T05:45:54Z</time>
      </trkpt>
      <trkpt lat="44.38882" lon="5.48166">
        <ele>687.8</ele>
        <time>2023-07-24T05:45:55Z</time>
      </trkpt>
      <trkpt lat="44.38884" lon="5.48157">
        <ele>687.5</ele>
        <time>2023-07-24T05:45:56Z</time>
      </trkpt>
      <trkpt lat="44.38887" lon="5.48148">
        <ele>687.2</ele>
        <time>2023-07-24T05:45:57Z</time>
      </trkpt>
      <trkpt lat="44.38889" lon="5.48139">
        <ele>686.8</ele>
        <time>2023-07-24T05:45:58Z</time>
      </trkpt>
      <trkpt lat="44.38892" lon="5.48131">
        <ele>686.5</ele>
        <time>2023-07-24T05:45:59Z</time>
      </trkpt>
      <trkpt lat="44.38894" lon="5.48122">
        <ele>686.1</ele>
        <time>2023-07-24T05:46:00Z</time>
      </trkpt>
      <trkpt lat="44.38897" lon="5.48113">
        <ele>685.7</ele>
        <time>2023-07-24T05:46:01Z</time>
      </trkpt>
      <trkpt lat="44.38899" lon="5.48103">
        <ele>685.2</ele>
        <time>2023-07-24T05:46:02Z</time>
      </trkpt>
      <trkpt lat="44.38902" lon="5.48094">
        <ele>684.8</ele>
        <time>2023-07-24T05:46:03Z</time>
      </trkpt>
      <trkpt lat="44.38905" lon="5.48085">
        <ele>684.5</ele>
        <time>2023-07-24T05:46:04Z</time>
      </trkpt>
      <trkpt lat="44.38907" lon="5.48076">
        <ele>684.1</ele>
        <time>2023-07-24T05:46:05Z</time>
      </trkpt>
      <trkpt lat="44.3891" lon="5.48066">
        <ele>683.7</ele>
        <time>2023-07-24T05:46:06Z</time>
      </trkpt>
      <trkpt lat="44.38913" lon="5.48057">
        <ele>683.4</ele>
        <time>2023-07-24T05:46:07Z</time>
      </trkpt>
      <trkpt lat="44.38915" lon="5.48047">
        <ele>683</ele>
        <time>2023-07-24T05:46:08Z</time>
      </trkpt>
      <trkpt lat="44.38918" lon="5.48037">
        <ele>682.7</ele>
        <time>2023-07-24T05:46:09Z</time>
      </trkpt>
      <trkpt lat="44.38921" lon="5.48028">
        <ele>682.4</ele>
        <time>2023-07-24T05:46:10Z</time>
      </trkpt>
      <trkpt lat="44.38924" lon="5.48019">
        <ele>682.1</ele>
        <time>2023-07-24T05:46:11Z</time>
      </trkpt>
      <trkpt lat="44.38926" lon="5.48009">
        <ele>681.9</ele>
        <time>2023-07-24T05:46:12Z</time>
      </trkpt>
      <trkpt lat="44.38929" lon="5.48">
        <ele>681.7</ele>
        <time>2023-07-24T05:46:13Z</time>
      </trkpt>
      <trkpt lat="44.38932" lon="5.47991">
        <ele>681.5</ele>
        <time>2023-07-24T05:46:14Z</time>
      </trkpt>
      <trkpt lat="44.38934" lon="5.47982">
        <ele>681.3</ele>
        <time>2023-07-24T05:46:15Z</time>
      </trkpt>
      <trkpt lat="44.38936" lon="5.47973">
        <ele>681.2</ele>
        <time>2023-07-24T05:46:16Z</time>
      </trkpt>
      <trkpt lat="44.38938" lon="5.47964">
        <ele>681</ele>
        <time>2023-07-24T05:46:17Z</time>
      </trkpt>
      <trkpt lat="44.3894" lon="5.47955">
        <ele>680.9</ele>
        <time>2023-07-24T05:46:18Z</time>
      </trkpt>
      <trkpt lat="44.38941" lon="5.47947">
        <ele>680.9</ele>
        <time>2023-07-24T05:46:19Z</time>
      </trkpt>
      <trkpt lat="44.38941" lon="5.47939">
        <ele>680.8</ele>
        <time>2023-07-24T05:46:20Z</time>
      </trkpt>
      <trkpt lat="44.38941" lon="5.47931">
        <ele>680.8</ele>
        <time>2023-07-24T05:46:21Z</time>
      </trkpt>
      <trkpt lat="44.38939" lon="5.47924">
        <ele>680.8</ele>
        <time>2023-07-24T05:46:22Z</time>
      </trkpt>
      <trkpt lat="44.38937" lon="5.47916">
        <ele>680.8</ele>
        <time>2023-07-24T05:46:23Z</time>
      </trkpt>
      <trkpt lat="44.38935" lon="5.47909">
        <ele>680.7</ele>
        <time>2023-07-24T05:46:24Z</time>
      </trkpt>
      <trkpt lat="44.38932" lon="5.47902">
        <ele>680.7</ele>
        <time>2023-07-24T05:46:25Z</time>
      </trkpt>
      <trkpt lat="44.38928" lon="5.47896">
        <ele>680.7</ele>
        <time>2023-07-24T05:46:26Z</time>
      </trkpt>
      <trkpt lat="44.38924" lon="5.4789">
        <ele>680.7</ele>
        <time>2023-07-24T05:46:27Z</time>
      </trkpt>
      <trkpt lat="44.3892" lon="5.47884">
        <ele>680.8</ele>
        <time>2023-07-24T05:46:28Z</time>
      </trkpt>
      <trkpt lat="44.38915" lon="5.4788">
        <ele>680.8</ele>
        <time>2023-07-24T05:46:29Z</time>
      </trkpt>
      <trkpt lat="44.3891" lon="5.47877">
        <ele>680.9</ele>
        <time>2023-07-24T05:46:30Z</time>
      </trkpt>
      <trkpt lat="44.38904" lon="5.47875">
        <ele>681</ele>
        <time>2023-07-24T05:46:31Z</time>
      </trkpt>
      <trkpt lat="44.38899" lon="5.47874">
        <ele>681</ele>
        <time>2023-07-24T05:46:32Z</time>
      </trkpt>
      <trkpt lat="44.38893" lon="5.47873">
        <ele>681.1</ele>
        <time>2023-07-24T05:46:33Z</time>
      </trkpt>
      <trkpt lat="44.38888" lon="5.47872">
        <ele>681.1</ele>
        <time>2023-07-24T05:46:34Z</time>
      </trkpt>
      <trkpt lat="44.38882" lon="5.47871">
        <ele>681.2</ele>
        <time>2023-07-24T05:46:35Z</time>
      </trkpt>
      <trkpt lat="44.38876" lon="5.4787">
        <ele>681.2</ele>
        <time>2023-07-24T05:46:36Z</time>
      </trkpt>
      <trkpt lat="44.3887" lon="5.47869">
        <ele>681.2</ele>
        <time>2023-07-24T05:46:37Z</time>
      </trkpt>
      <trkpt lat="44.38865" lon="5.47867">
        <ele>681.2</ele>
        <time>2023-07-24T05:46:38Z</time>
      </trkpt>
      <trkpt lat="44.38859" lon="5.47866">
        <ele>681.2</ele>
        <time>2023-07-24T05:46:39Z</time>
      </trkpt>
      <trkpt lat="44.38854" lon="5.47863">
        <ele>681.3</ele>
        <time>2023-07-24T05:46:40Z</time>
      </trkpt>
      <trkpt lat="44.38848" lon="5.4786">
        <ele>681.3</ele>
        <time>2023-07-24T05:46:41Z</time>
      </trkpt>
      <trkpt lat="44.38843" lon="5.47857">
        <ele>681.3</ele>
        <time>2023-07-24T05:46:42Z</time>
      </trkpt>
      <trkpt lat="44.38838" lon="5.47854">
        <ele>681.3</ele>
        <time>2023-07-24T05:46:43Z</time>
      </trkpt>
      <trkpt lat="44.38834" lon="5.4785">
        <ele>681.3</ele>
        <time>2023-07-24T05:46:44Z</time>
      </trkpt>
      <trkpt lat="44.38829" lon="5.47845">
        <ele>681.3</ele>
        <time>2023-07-24T05:46:45Z</time>
      </trkpt>
      <trkpt lat="44.38825" lon="5.47841">
        <ele>681.3</ele>
        <time>2023-07-24T05:46:46Z</time>
      </trkpt>
      <trkpt lat="44.38821" lon="5.47835">
        <ele>681.3</ele>
        <time>2023-07-24T05:46:47Z</time>
      </trkpt>
      <trkpt lat="44.38817" lon="5.4783">
        <ele>681.3</ele>
        <time>2023-07-24T05:46:48Z</time>
      </trkpt>
      <trkpt lat="44.38813" lon="5.47824">
        <ele>681.3</ele>
        <time>2023-07-24T05:46:49Z</time>
      </trkpt>
      <trkpt lat="44.3881" lon="5.47819">
        <ele>681.3</ele>
        <time>2023-07-24T05:46:50Z</time>
      </trkpt>
      <trkpt lat="44.38807" lon="5.47813">
        <ele>681.4</ele>
        <time>2023-07-24T05:46:51Z</time>
      </trkpt>
      <trkpt lat="44.38804" lon="5.47807">
        <ele>681.4</ele>
        <time>2023-07-24T05:46:52Z</time>
      </trkpt>
      <trkpt lat="44.38801" lon="5.478">
        <ele>681.4</ele>
        <time>2023-07-24T05:46:53Z</time>
      </trkpt>
      <trkpt lat="44.38798" lon="5.47794">
        <ele>681.4</ele>
        <time>2023-07-24T05:46:54Z</time>
      </trkpt>
      <trkpt lat="44.38796" lon="5.47787">
        <ele>681.5</ele>
        <time>2023-07-24T05:46:55Z</time>
      </trkpt>
      <trkpt lat="44.38794" lon="5.47781">
        <ele>681.5</ele>
        <time>2023-07-24T05:46:56Z</time>
      </trkpt>
      <trkpt lat="44.38792" lon="5.47774">
        <ele>681.5</ele>
        <time>2023-07-24T05:46:57Z</time>
      </trkpt>
      <trkpt lat="44.38791" lon="5.47768">
        <ele>681.5</ele>
        <time>2023-07-24T05:46:58Z</time>
      </trkpt>
      <trkpt lat="44.38789" lon="5.47761">
        <ele>681.5</ele>
        <time>2023-07-24T05:46:59Z</time>
      </trkpt>
      <trkpt lat="44.38788" lon="5.47753">
        <ele>681.6</ele>
        <time>2023-07-24T05:47:00Z</time>
      </trkpt>
      <trkpt lat="44.38787" lon="5.47746">
        <ele>681.6</ele>
        <time>2023-07-24T05:47:01Z</time>
      </trkpt>
      <trkpt lat="44.38787" lon="5.4774">
        <ele>681.6</ele>
        <time>2023-07-24T05:47:02Z</time>
      </trkpt>
      <trkpt lat="44.38786" lon="5.47733">
        <ele>681.6</ele>
        <time>2023-07-24T05:47:03Z</time>
      </trkpt>
      <trkpt lat="44.38786" lon="5.47726">
        <ele>681.6</ele>
        <time>2023-07-24T05:47:04Z</time>
      </trkpt>
      <trkpt lat="44.38786" lon="5.47719">
        <ele>681.6</ele>
        <time>2023-07-24T05:47:05Z</time>
      </trkpt>
      <trkpt lat="44.38786" lon="5.47712">
        <ele>681.6</ele>
        <time>2023-07-24T05:47:06Z</time>
      </trkpt>
      <trkpt lat="44.38787" lon="5.47705">
        <ele>681.6</ele>
        <time>2023-07-24T05:47:07Z</time>
      </trkpt>
      <trkpt lat="44.38788" lon="5.47698">
        <ele>681.6</ele>
        <time>2023-07-24T05:47:08Z</time>
      </trkpt>
      <trkpt lat="44.38789" lon="5.47691">
        <ele>681.6</ele>
        <time>2023-07-24T05:47:09Z</time>
      </trkpt>
      <trkpt lat="44.3879" lon="5.47685">
        <ele>681.6</ele>
        <time>2023-07-24T05:47:10Z</time>
      </trkpt>
      <trkpt lat="44.38792" lon="5.47678">
        <ele>681.6</ele>
        <time>2023-07-24T05:47:11Z</time>
      </trkpt>
      <trkpt lat="44.38793" lon="5.47671">
        <ele>681.6</ele>
        <time>2023-07-24T05:47:12Z</time>
      </trkpt>
      <trkpt lat="44.38795" lon="5.47664">
        <ele>681.6</ele>
        <time>2023-07-24T05:47:13Z</time>
      </trkpt>
      <trkpt lat="44.38796" lon="5.47658">
        <ele>681.6</ele>
        <time>2023-07-24T05:47:14Z</time>
      </trkpt>
      <trkpt lat="44.38797" lon="5.47651">
        <ele>681.6</ele>
        <time>2023-07-24T05:47:15Z</time>
      </trkpt>
      <trkpt lat="44.38798" lon="5.47644">
        <ele>681.6</ele>
        <time>2023-07-24T05:47:16Z</time>
      </trkpt>
      <trkpt lat="44.38799" lon="5.47637">
        <ele>681.6</ele>
        <time>2023-07-24T05:47:17Z</time>
      </trkpt>
      <trkpt lat="44.388" lon="5.4763">
        <ele>681.6</ele>
        <time>2023-07-24T05:47:18Z</time>
      </trkpt>
      <trkpt lat="44.38801" lon="5.47623">
        <ele>681.6</ele>
        <time>2023-07-24T05:47:19Z</time>
      </trkpt>
      <trkpt lat="44.38802" lon="5.47616">
        <ele>681.6</ele>
        <time>2023-07-24T05:47:20Z</time>
      </trkpt>
      <trkpt lat="44.38803" lon="5.47609">
        <ele>681.6</ele>
        <time>2023-07-24T05:47:21Z</time>
      </trkpt>
      <trkpt lat="44.38804" lon="5.47602">
        <ele>681.6</ele>
        <time>2023-07-24T05:47:22Z</time>
      </trkpt>
      <trkpt lat="44.38806" lon="5.47596">
        <ele>681.6</ele>
        <time>2023-07-24T05:47:23Z</time>
      </trkpt>
      <trkpt lat="44.38807" lon="5.47589">
        <ele>681.6</ele>
        <time>2023-07-24T05:47:24Z</time>
      </trkpt>
      <trkpt lat="44.38809" lon="5.47583">
        <ele>681.6</ele>
        <time>2023-07-24T05:47:25Z</time>
      </trkpt>
      <trkpt lat="44.38811" lon="5.47576">
        <ele>681.6</ele>
        <time>2023-07-24T05:47:26Z</time>
      </trkpt>
      <trkpt lat="44.38813" lon="5.4757">
        <ele>681.6</ele>
        <time>2023-07-24T05:47:27Z</time>
      </trkpt>
      <trkpt lat="44.38813" lon="5.47564">
        <ele>681.6</ele>
        <time>2023-07-24T05:47:28Z</time>
      </trkpt>
      <trkpt lat="44.38814" lon="5.47557">
        <ele>681.6</ele>
        <time>2023-07-24T05:47:29Z</time>
      </trkpt>
      <trkpt lat="44.38815" lon="5.47551">
        <ele>681.6</ele>
        <time>2023-07-24T05:47:30Z</time>
      </trkpt>
      <trkpt lat="44.38816" lon="5.47544">
        <ele>681.6</ele>
        <time>2023-07-24T05:47:31Z</time>
      </trkpt>
      <trkpt lat="44.38817" lon="5.47537">
        <ele>681.6</ele>
        <time>2023-07-24T05:47:32Z</time>
      </trkpt>
      <trkpt lat="44.38818" lon="5.47531">
        <ele>681.6</ele>
        <time>2023-07-24T05:47:33Z</time>
      </trkpt>
      <trkpt lat="44.38819" lon="5.47524">
        <ele>681.6</ele>
        <time>2023-07-24T05:47:34Z</time>
      </trkpt>
      <trkpt lat="44.38819" lon="5.47518">
        <ele>681.6</ele>
        <time>2023-07-24T05:47:35Z</time>
      </trkpt>
      <trkpt lat="44.3882" lon="5.47511">
        <ele>681.5</ele>
        <time>2023-07-24T05:47:36Z</time>
      </trkpt>
      <trkpt lat="44.38821" lon="5.47504">
        <ele>681.5</ele>
        <time>2023-07-24T05:47:37Z</time>
      </trkpt>
      <trkpt lat="44.38822" lon="5.47497">
        <ele>681.5</ele>
        <time>2023-07-24T05:47:38Z</time>
      </trkpt>
      <trkpt lat="44.38823" lon="5.47491">
        <ele>681.5</ele>
        <time>2023-07-24T05:47:39Z</time>
      </trkpt>
      <trkpt lat="44.38824" lon="5.47485">
        <ele>681.5</ele>
        <time>2023-07-24T05:47:40Z</time>
      </trkpt>
      <trkpt lat="44.38825" lon="5.47478">
        <ele>681.4</ele>
        <time>2023-07-24T05:47:41Z</time>
      </trkpt>
      <trkpt lat="44.38826" lon="5.47472">
        <ele>681.4</ele>
        <time>2023-07-24T05:47:42Z</time>
      </trkpt>
      <trkpt lat="44.38827" lon="5.47465">
        <ele>681.4</ele>
        <time>2023-07-24T05:47:43Z</time>
      </trkpt>
      <trkpt lat="44.38828" lon="5.47459">
        <ele>681.3</ele>
        <time>2023-07-24T05:47:44Z</time>
      </trkpt>
      <trkpt lat="44.38829" lon="5.47453">
        <ele>681.3</ele>
        <time>2023-07-24T05:47:45Z</time>
      </trkpt>
      <trkpt lat="44.38831" lon="5.47446">
        <ele>681.2</ele>
        <time>2023-07-24T05:47:46Z</time>
      </trkpt>
      <trkpt lat="44.38832" lon="5.4744">
        <ele>681.2</ele>
        <time>2023-07-24T05:47:47Z</time>
      </trkpt>
      <trkpt lat="44.38833" lon="5.47434">
        <ele>681.1</ele>
        <time>2023-07-24T05:47:48Z</time>
      </trkpt>
      <trkpt lat="44.38835" lon="5.47428">
        <ele>681.1</ele>
        <time>2023-07-24T05:47:49Z</time>
      </trkpt>
      <trkpt lat="44.38836" lon="5.47422">
        <ele>681</ele>
        <time>2023-07-24T05:47:50Z</time>
      </trkpt>
      <trkpt lat="44.38838" lon="5.47415">
        <ele>681</ele>
        <time>2023-07-24T05:47:51Z</time>
      </trkpt>
      <trkpt lat="44.3884" lon="5.47409">
        <ele>680.9</ele>
        <time>2023-07-24T05:47:52Z</time>
      </trkpt>
      <trkpt lat="44.38841" lon="5.47403">
        <ele>680.9</ele>
        <time>2023-07-24T05:47:53Z</time>
      </trkpt>
      <trkpt lat="44.38843" lon="5.47398">
        <ele>680.8</ele>
        <time>2023-07-24T05:47:54Z</time>
      </trkpt>
      <trkpt lat="44.38844" lon="5.47392">
        <ele>680.7</ele>
        <time>2023-07-24T05:47:55Z</time>
      </trkpt>
      <trkpt lat="44.38846" lon="5.47386">
        <ele>680.7</ele>
        <time>2023-07-24T05:47:56Z</time>
      </trkpt>
      <trkpt lat="44.38848" lon="5.4738">
        <ele>680.6</ele>
        <time>2023-07-24T05:47:57Z</time>
      </trkpt>
      <trkpt lat="44.38851" lon="5.47375">
        <ele>680.6</ele>
        <time>2023-07-24T05:47:58Z</time>
      </trkpt>
      <trkpt lat="44.38853" lon="5.4737">
        <ele>680.5</ele>
        <time>2023-07-24T05:47:59Z</time>
      </trkpt>
      <trkpt lat="44.38856" lon="5.47365">
        <ele>680.4</ele>
        <time>2023-07-24T05:48:00Z</time>
      </trkpt>
      <trkpt lat="44.38859" lon="5.47361">
        <ele>680.4</ele>
        <time>2023-07-24T05:48:01Z</time>
      </trkpt>
      <trkpt lat="44.38862" lon="5.47359">
        <ele>680.8</ele>
        <time>2023-07-24T05:48:02Z</time>
      </trkpt>
      <trkpt lat="44.38866" lon="5.47358">
        <ele>681</ele>
        <time>2023-07-24T05:48:03Z</time>
      </trkpt>
      <trkpt lat="44.38869" lon="5.47356">
        <ele>681.2</ele>
        <time>2023-07-24T05:48:04Z</time>
      </trkpt>
      <trkpt lat="44.38873" lon="5.47355">
        <ele>681.5</ele>
        <time>2023-07-24T05:48:05Z</time>
      </trkpt>
      <trkpt lat="44.38876" lon="5.47353">
        <ele>681.7</ele>
        <time>2023-07-24T05:48:06Z</time>
      </trkpt>
      <trkpt lat="44.38879" lon="5.47352">
        <ele>681.9</ele>
        <time>2023-07-24T05:48:07Z</time>
      </trkpt>
      <trkpt lat="44.38882" lon="5.4735">
        <ele>682.2</ele>
        <time>2023-07-24T05:48:08Z</time>
      </trkpt>
      <trkpt lat="44.38884" lon="5.47349">
        <ele>682.4</ele>
        <time>2023-07-24T05:48:09Z</time>
      </trkpt>
      <trkpt lat="44.38887" lon="5.47348">
        <ele>682.6</ele>
        <time>2023-07-24T05:48:10Z</time>
      </trkpt>
      <trkpt lat="44.3889" lon="5.47346">
        <ele>682.8</ele>
        <time>2023-07-24T05:48:11Z</time>
      </trkpt>
      <trkpt lat="44.38893" lon="5.47344">
        <ele>683.1</ele>
        <time>2023-07-24T05:48:12Z</time>
      </trkpt>
      <trkpt lat="44.38895" lon="5.47342">
        <ele>683.3</ele>
        <time>2023-07-24T05:48:13Z</time>
      </trkpt>
      <trkpt lat="44.38898" lon="5.4734">
        <ele>683.5</ele>
        <time>2023-07-24T05:48:14Z</time>
      </trkpt>
      <trkpt lat="44.38901" lon="5.47338">
        <ele>683.7</ele>
        <time>2023-07-24T05:48:15Z</time>
      </trkpt>
      <trkpt lat="44.38903" lon="5.47337">
        <ele>683.9</ele>
        <time>2023-07-24T05:48:16Z</time>
      </trkpt>
      <trkpt lat="44.38906" lon="5.47336">
        <ele>684.1</ele>
        <time>2023-07-24T05:48:17Z</time>
      </trkpt>
      <trkpt lat="44.38909" lon="5.47334">
        <ele>684.4</ele>
        <time>2023-07-24T05:48:18Z</time>
      </trkpt>
      <trkpt lat="44.38911" lon="5.47332">
        <ele>684.6</ele>
        <time>2023-07-24T05:48:19Z</time>
      </trkpt>
      <trkpt lat="44.38914" lon="5.4733">
        <ele>684.8</ele>
        <time>2023-07-24T05:48:20Z</time>
      </trkpt>
      <trkpt lat="44.38916" lon="5.47328">
        <ele>685</ele>
        <time>2023-07-24T05:48:21Z</time>
      </trkpt>
      <trkpt lat="44.38919" lon="5.47327">
        <ele>685.2</ele>
        <time>2023-07-24T05:48:22Z</time>
      </trkpt>
      <trkpt lat="44.38921" lon="5.47325">
        <ele>685.4</ele>
        <time>2023-07-24T05:48:23Z</time>
      </trkpt>
      <trkpt lat="44.38924" lon="5.47322">
        <ele>685.7</ele>
        <time>2023-07-24T05:48:24Z</time>
      </trkpt>
      <trkpt lat="44.38927" lon="5.4732">
        <ele>685.9</ele>
        <time>2023-07-24T05:48:25Z</time>
      </trkpt>
      <trkpt lat="44.38929" lon="5.47318">
        <ele>686.1</ele>
        <time>2023-07-24T05:48:26Z</time>
      </trkpt>
      <trkpt lat="44.38932" lon="5.47316">
        <ele>686.3</ele>
        <time>2023-07-24T05:48:27Z</time>
      </trkpt>
      <trkpt lat="44.38934" lon="5.47313">
        <ele>686.5</ele>
        <time>2023-07-24T05:48:28Z</time>
      </trkpt>
      <trkpt lat="44.38937" lon="5.47311">
        <ele>686.7</ele>
        <time>2023-07-24T05:48:29Z</time>
      </trkpt>
      <trkpt lat="44.38939" lon="5.47308">
        <ele>686.9</ele>
        <time>2023-07-24T05:48:30Z</time>
      </trkpt>
      <trkpt lat="44.38941" lon="5.47306">
        <ele>687.1</ele>
        <time>2023-07-24T05:48:31Z</time>
      </trkpt>
      <trkpt lat="44.38944" lon="5.47304">
        <ele>687.2</ele>
        <time>2023-07-24T05:48:32Z</time>
      </trkpt>
      <trkpt lat="44.38946" lon="5.47301">
        <ele>687.4</ele>
        <time>2023-07-24T05:48:33Z</time>
      </trkpt>
      <trkpt lat="44.38948" lon="5.47299">
        <ele>687.5</ele>
        <time>2023-07-24T05:48:34Z</time>
      </trkpt>
      <trkpt lat="44.38951" lon="5.47296">
        <ele>687.7</ele>
        <time>2023-07-24T05:48:35Z</time>
      </trkpt>
      <trkpt lat="44.38953" lon="5.47293">
        <ele>687.8</ele>
        <time>2023-07-24T05:48:36Z</time>
      </trkpt>
      <trkpt lat="44.38956" lon="5.4729">
        <ele>687.9</ele>
        <time>2023-07-24T05:48:37Z</time>
      </trkpt>
      <trkpt lat="44.38958" lon="5.47288">
        <ele>688</ele>
        <time>2023-07-24T05:48:38Z</time>
      </trkpt>
      <trkpt lat="44.3896" lon="5.47285">
        <ele>688.1</ele>
        <time>2023-07-24T05:48:39Z</time>
      </trkpt>
      <trkpt lat="44.38962" lon="5.47282">
        <ele>688.2</ele>
        <time>2023-07-24T05:48:40Z</time>
      </trkpt>
      <trkpt lat="44.38965" lon="5.47279">
        <ele>688.3</ele>
        <time>2023-07-24T05:48:41Z</time>
      </trkpt>
      <trkpt lat="44.38968" lon="5.47276">
        <ele>688.4</ele>
        <time>2023-07-24T05:48:42Z</time>
      </trkpt>
      <trkpt lat="44.3897" lon="5.47273">
        <ele>688.4</ele>
        <time>2023-07-24T05:48:43Z</time>
      </trkpt>
      <trkpt lat="44.38974" lon="5.4727">
        <ele>688.5</ele>
        <time>2023-07-24T05:48:44Z</time>
      </trkpt>
      <trkpt lat="44.38977" lon="5.47267">
        <ele>688.5</ele>
        <time>2023-07-24T05:48:45Z</time>
      </trkpt>
      <trkpt lat="44.3898" lon="5.47264">
        <ele>688.5</ele>
        <time>2023-07-24T05:48:46Z</time>
      </trkpt>
      <trkpt lat="44.38984" lon="5.47263">
        <ele>688.6</ele>
        <time>2023-07-24T05:48:47Z</time>
      </trkpt>
      <trkpt lat="44.38987" lon="5.47261">
        <ele>688.6</ele>
        <time>2023-07-24T05:48:48Z</time>
      </trkpt>
      <trkpt lat="44.38991" lon="5.4726">
        <ele>688.7</ele>
        <time>2023-07-24T05:48:49Z</time>
      </trkpt>
      <trkpt lat="44.38995" lon="5.47259">
        <ele>688.7</ele>
        <time>2023-07-24T05:48:50Z</time>
      </trkpt>
      <trkpt lat="44.38999" lon="5.47258">
        <ele>688.7</ele>
        <time>2023-07-24T05:48:51Z</time>
      </trkpt>
      <trkpt lat="44.39003" lon="5.47259">
        <ele>688.8</ele>
        <time>2023-07-24T05:48:52Z</time>
      </trkpt>
      <trkpt lat="44.39007" lon="5.47259">
        <ele>688.8</ele>
        <time>2023-07-24T05:48:53Z</time>
      </trkpt>
      <trkpt lat="44.39011" lon="5.4726">
        <ele>688.8</ele>
        <time>2023-07-24T05:48:54Z</time>
      </trkpt>
      <trkpt lat="44.39015" lon="5.47262">
        <ele>688.8</ele>
        <time>2023-07-24T05:48:55Z</time>
      </trkpt>
      <trkpt lat="44.39019" lon="5.47264">
        <ele>688.8</ele>
        <time>2023-07-24T05:48:56Z</time>
      </trkpt>
      <trkpt lat="44.39023" lon="5.47265">
        <ele>688.8</ele>
        <time>2023-07-24T05:48:57Z</time>
      </trkpt>
      <trkpt lat="44.39028" lon="5.47268">
        <ele>688.9</ele>
        <time>2023-07-24T05:48:58Z</time>
      </trkpt>
      <trkpt lat="44.39032" lon="5.4727">
        <ele>688.9</ele>
        <time>2023-07-24T05:48:59Z</time>
      </trkpt>
      <trkpt lat="44.39035" lon="5.47272">
        <ele>688.9</ele>
        <time>2023-07-24T05:49:00Z</time>
      </trkpt>
      <trkpt lat="44.39039" lon="5.47276">
        <ele>688.9</ele>
        <time>2023-07-24T05:49:01Z</time>
      </trkpt>
      <trkpt lat="44.39042" lon="5.4728">
        <ele>688.9</ele>
        <time>2023-07-24T05:49:02Z</time>
      </trkpt>
      <trkpt lat="44.39046" lon="5.47283">
        <ele>688.9</ele>
        <time>2023-07-24T05:49:03Z</time>
      </trkpt>
      <trkpt lat="44.39049" lon="5.47287">
        <ele>688.9</ele>
        <time>2023-07-24T05:49:04Z</time>
      </trkpt>
      <trkpt lat="44.39052" lon="5.4729">
        <ele>688.9</ele>
        <time>2023-07-24T05:49:05Z</time>
      </trkpt>
      <trkpt lat="44.39055" lon="5.47293">
        <ele>689</ele>
        <time>2023-07-24T05:49:06Z</time>
      </trkpt>
      <trkpt lat="44.39059" lon="5.47296">
        <ele>689</ele>
        <time>2023-07-24T05:49:07Z</time>
      </trkpt>
      <trkpt lat="44.39062" lon="5.47299">
        <ele>689</ele>
        <time>2023-07-24T05:49:08Z</time>
      </trkpt>
      <trkpt lat="44.39065" lon="5.47303">
        <ele>689</ele>
        <time>2023-07-24T05:49:09Z</time>
      </trkpt>
      <trkpt lat="44.39068" lon="5.47307">
        <ele>689</ele>
        <time>2023-07-24T05:49:10Z</time>
      </trkpt>
      <trkpt lat="44.39071" lon="5.4731">
        <ele>689</ele>
        <time>2023-07-24T05:49:11Z</time>
      </trkpt>
      <trkpt lat="44.39074" lon="5.47313">
        <ele>689</ele>
        <time>2023-07-24T05:49:12Z</time>
      </trkpt>
      <trkpt lat="44.39077" lon="5.47317">
        <ele>689</ele>
        <time>2023-07-24T05:49:13Z</time>
      </trkpt>
      <trkpt lat="44.3908" lon="5.47321">
        <ele>689</ele>
        <time>2023-07-24T05:49:14Z</time>
      </trkpt>
      <trkpt lat="44.39083" lon="5.47325">
        <ele>689</ele>
        <time>2023-07-24T05:49:15Z</time>
      </trkpt>
      <trkpt lat="44.39086" lon="5.47329">
        <ele>689</ele>
        <time>2023-07-24T05:49:16Z</time>
      </trkpt>
      <trkpt lat="44.39089" lon="5.47334">
        <ele>689</ele>
        <time>2023-07-24T05:49:17Z</time>
      </trkpt>
      <trkpt lat="44.39093" lon="5.47338">
        <ele>688.9</ele>
        <time>2023-07-24T05:49:18Z</time>
      </trkpt>
      <trkpt lat="44.39096" lon="5.47342">
        <ele>688.9</ele>
        <time>2023-07-24T05:49:19Z</time>
      </trkpt>
      <trkpt lat="44.39099" lon="5.47346">
        <ele>688.9</ele>
        <time>2023-07-24T05:49:20Z</time>
      </trkpt>
      <trkpt lat="44.39102" lon="5.47351">
        <ele>688.9</ele>
        <time>2023-07-24T05:49:21Z</time>
      </trkpt>
      <trkpt lat="44.39105" lon="5.47354">
        <ele>688.9</ele>
        <time>2023-07-24T05:49:22Z</time>
      </trkpt>
      <trkpt lat="44.39109" lon="5.47358">
        <ele>688.9</ele>
        <time>2023-07-24T05:49:23Z</time>
      </trkpt>
      <trkpt lat="44.39112" lon="5.4736">
        <ele>688.9</ele>
        <time>2023-07-24T05:49:24Z</time>
      </trkpt>
      <trkpt lat="44.39117" lon="5.47362">
        <ele>688.9</ele>
        <time>2023-07-24T05:49:25Z</time>
      </trkpt>
      <trkpt lat="44.39121" lon="5.47365">
        <ele>688.9</ele>
        <time>2023-07-24T05:49:26Z</time>
      </trkpt>
      <trkpt lat="44.39125" lon="5.47367">
        <ele>688.9</ele>
        <time>2023-07-24T05:49:27Z</time>
      </trkpt>
      <trkpt lat="44.39129" lon="5.47369">
        <ele>688.9</ele>
        <time>2023-07-24T05:49:28Z</time>
      </trkpt>
      <trkpt lat="44.39133" lon="5.47371">
        <ele>688.9</ele>
        <time>2023-07-24T05:49:29Z</time>
      </trkpt>
      <trkpt lat="44.39137" lon="5.47372">
        <ele>688.9</ele>
        <time>2023-07-24T05:49:30Z</time>
      </trkpt>
      <trkpt lat="44.39141" lon="5.47374">
        <ele>688.8</ele>
        <time>2023-07-24T05:49:31Z</time>
      </trkpt>
      <trkpt lat="44.39146" lon="5.47375">
        <ele>688.8</ele>
        <time>2023-07-24T05:49:32Z</time>
      </trkpt>
      <trkpt lat="44.39149" lon="5.47377">
        <ele>688.8</ele>
        <time>2023-07-24T05:49:33Z</time>
      </trkpt>
      <trkpt lat="44.39154" lon="5.47379">
        <ele>688.8</ele>
        <time>2023-07-24T05:49:34Z</time>
      </trkpt>
      <trkpt lat="44.39157" lon="5.4738">
        <ele>688.8</ele>
        <time>2023-07-24T05:49:35Z</time>
      </trkpt>
      <trkpt lat="44.39161" lon="5.47382">
        <ele>688.8</ele>
        <time>2023-07-24T05:49:36Z</time>
      </trkpt>
      <trkpt lat="44.39166" lon="5.47383">
        <ele>688.8</ele>
        <time>2023-07-24T05:49:37Z</time>
      </trkpt>
      <trkpt lat="44.3917" lon="5.47385">
        <ele>688.8</ele>
        <time>2023-07-24T05:49:38Z</time>
      </trkpt>
      <trkpt lat="44.39174" lon="5.47387">
        <ele>688.8</ele>
        <time>2023-07-24T05:49:39Z</time>
      </trkpt>
      <trkpt lat="44.39178" lon="5.47388">
        <ele>688.8</ele>
        <time>2023-07-24T05:49:40Z</time>
      </trkpt>
      <trkpt lat="44.39182" lon="5.4739">
        <ele>688.8</ele>
        <time>2023-07-24T05:49:41Z</time>
      </trkpt>
      <trkpt lat="44.39185" lon="5.47392">
        <ele>688.8</ele>
        <time>2023-07-24T05:49:42Z</time>
      </trkpt>
      <trkpt lat="44.39189" lon="5.47394">
        <ele>688.8</ele>
        <time>2023-07-24T05:49:43Z</time>
      </trkpt>
      <trkpt lat="44.39193" lon="5.47396">
        <ele>688.8</ele>
        <time>2023-07-24T05:49:44Z</time>
      </trkpt>
      <trkpt lat="44.39197" lon="5.47397">
        <ele>688.8</ele>
        <time>2023-07-24T05:49:45Z</time>
      </trkpt>
      <trkpt lat="44.39201" lon="5.47399">
        <ele>688.8</ele>
        <time>2023-07-24T05:49:46Z</time>
      </trkpt>
      <trkpt lat="44.39205" lon="5.47401">
        <ele>688.8</ele>
        <time>2023-07-24T05:49:47Z</time>
      </trkpt>
      <trkpt lat="44.39209" lon="5.47403">
        <ele>688.8</ele>
        <time>2023-07-24T05:49:48Z</time>
      </trkpt>
      <trkpt lat="44.39213" lon="5.47404">
        <ele>688.8</ele>
        <time>2023-07-24T05:49:49Z</time>
      </trkpt>
      <trkpt lat="44.39217" lon="5.47406">
        <ele>688.8</ele>
        <time>2023-07-24T05:49:50Z</time>
      </trkpt>
      <trkpt lat="44.39221" lon="5.47408">
        <ele>688.8</ele>
        <time>2023-07-24T05:49:51Z</time>
      </trkpt>
      <trkpt lat="44.39224" lon="5.47411">
        <ele>688.9</ele>
        <time>2023-07-24T05:49:52Z</time>
      </trkpt>
      <trkpt lat="44.39228" lon="5.47413">
        <ele>688.9</ele>
        <time>2023-07-24T05:49:53Z</time>
      </trkpt>
      <trkpt lat="44.39231" lon="5.47417">
        <ele>688.9</ele>
        <time>2023-07-24T05:49:54Z</time>
      </trkpt>
      <trkpt lat="44.39235" lon="5.4742">
        <ele>688.9</ele>
        <time>2023-07-24T05:49:55Z</time>
      </trkpt>
      <trkpt lat="44.39238" lon="5.47423">
        <ele>688.9</ele>
        <time>2023-07-24T05:49:56Z</time>
      </trkpt>
      <trkpt lat="44.39241" lon="5.47427">
        <ele>689</ele>
        <time>2023-07-24T05:49:57Z</time>
      </trkpt>
      <trkpt lat="44.39245" lon="5.47431">
        <ele>689</ele>
        <time>2023-07-24T05:49:58Z</time>
      </trkpt>
      <trkpt lat="44.39248" lon="5.47435">
        <ele>689.1</ele>
        <time>2023-07-24T05:49:59Z</time>
      </trkpt>
      <trkpt lat="44.39251" lon="5.47438">
        <ele>689.1</ele>
        <time>2023-07-24T05:50:00Z</time>
      </trkpt>
      <trkpt lat="44.39254" lon="5.47442">
        <ele>689.1</ele>
        <time>2023-07-24T05:50:01Z</time>
      </trkpt>
      <trkpt lat="44.39257" lon="5.47445">
        <ele>689.2</ele>
        <time>2023-07-24T05:50:02Z</time>
      </trkpt>
      <trkpt lat="44.3926" lon="5.47449">
        <ele>689.2</ele>
        <time>2023-07-24T05:50:03Z</time>
      </trkpt>
      <trkpt lat="44.39262" lon="5.47454">
        <ele>689.3</ele>
        <time>2023-07-24T05:50:04Z</time>
      </trkpt>
      <trkpt lat="44.39265" lon="5.47458">
        <ele>689.4</ele>
        <time>2023-07-24T05:50:05Z</time>
      </trkpt>
      <trkpt lat="44.39268" lon="5.47461">
        <ele>689.4</ele>
        <time>2023-07-24T05:50:06Z</time>
      </trkpt>
      <trkpt lat="44.39271" lon="5.47464">
        <ele>689.5</ele>
        <time>2023-07-24T05:50:07Z</time>
      </trkpt>
      <trkpt lat="44.39274" lon="5.47468">
        <ele>689.6</ele>
        <time>2023-07-24T05:50:08Z</time>
      </trkpt>
      <trkpt lat="44.39277" lon="5.47471">
        <ele>689.7</ele>
        <time>2023-07-24T05:50:09Z</time>
      </trkpt>
      <trkpt lat="44.3928" lon="5.47473">
        <ele>689.8</ele>
        <time>2023-07-24T05:50:10Z</time>
      </trkpt>
      <trkpt lat="44.39284" lon="5.47475">
        <ele>689.9</ele>
        <time>2023-07-24T05:50:11Z</time>
      </trkpt>
      <trkpt lat="44.39287" lon="5.47477">
        <ele>690</ele>
        <time>2023-07-24T05:50:12Z</time>
      </trkpt>
      <trkpt lat="44.39291" lon="5.47478">
        <ele>690.2</ele>
        <time>2023-07-24T05:50:13Z</time>
      </trkpt>
      <trkpt lat="44.39294" lon="5.47479">
        <ele>690.3</ele>
        <time>2023-07-24T05:50:14Z</time>
      </trkpt>
      <trkpt lat="44.39298" lon="5.4748">
        <ele>690.4</ele>
        <time>2023-07-24T05:50:15Z</time>
      </trkpt>
      <trkpt lat="44.39301" lon="5.4748">
        <ele>690.5</ele>
        <time>2023-07-24T05:50:16Z</time>
      </trkpt>
      <trkpt lat="44.39305" lon="5.4748">
        <ele>690.7</ele>
        <time>2023-07-24T05:50:17Z</time>
      </trkpt>
      <trkpt lat="44.39308" lon="5.47478">
        <ele>690.8</ele>
        <time>2023-07-24T05:50:18Z</time>
      </trkpt>
      <trkpt lat="44.39312" lon="5.47477">
        <ele>691</ele>
        <time>2023-07-24T05:50:19Z</time>
      </trkpt>
      <trkpt lat="44.39315" lon="5.47474">
        <ele>691.1</ele>
        <time>2023-07-24T05:50:20Z</time>
      </trkpt>
      <trkpt lat="44.39317" lon="5.47471">
        <ele>691.3</ele>
        <time>2023-07-24T05:50:21Z</time>
      </trkpt>
      <trkpt lat="44.3932" lon="5.47467">
        <ele>691.4</ele>
        <time>2023-07-24T05:50:22Z</time>
      </trkpt>
      <trkpt lat="44.39321" lon="5.47463">
        <ele>691.5</ele>
        <time>2023-07-24T05:50:23Z</time>
      </trkpt>
      <trkpt lat="44.39322" lon="5.47459">
        <ele>691.6</ele>
        <time>2023-07-24T05:50:24Z</time>
      </trkpt>
      <trkpt lat="44.39323" lon="5.47454">
        <ele>691.6</ele>
        <time>2023-07-24T05:50:25Z</time>
      </trkpt>
      <trkpt lat="44.39323" lon="5.47448">
        <ele>691.5</ele>
        <time>2023-07-24T05:50:26Z</time>
      </trkpt>
      <trkpt lat="44.39323" lon="5.47444">
        <ele>691.5</ele>
        <time>2023-07-24T05:50:27Z</time>
      </trkpt>
      <trkpt lat="44.39322" lon="5.47439">
        <ele>691.5</ele>
        <time>2023-07-24T05:50:28Z</time>
      </trkpt>
      <trkpt lat="44.39321" lon="5.47434">
        <ele>691.6</ele>
        <time>2023-07-24T05:50:29Z</time>
      </trkpt>
      <trkpt lat="44.3932" lon="5.4743">
        <ele>691.7</ele>
        <time>2023-07-24T05:50:30Z</time>
      </trkpt>
      <trkpt lat="44.39318" lon="5.47426">
        <ele>691.8</ele>
        <time>2023-07-24T05:50:31Z</time>
      </trkpt>
      <trkpt lat="44.39318" lon="5.47421">
        <ele>691.9</ele>
        <time>2023-07-24T05:50:32Z</time>
      </trkpt>
      <trkpt lat="44.39317" lon="5.47417">
        <ele>692</ele>
        <time>2023-07-24T05:50:33Z</time>
      </trkpt>
      <trkpt lat="44.39316" lon="5.47412">
        <ele>692.1</ele>
        <time>2023-07-24T05:50:34Z</time>
      </trkpt>
      <trkpt lat="44.39315" lon="5.47407">
        <ele>692.3</ele>
        <time>2023-07-24T05:50:35Z</time>
      </trkpt>
      <trkpt lat="44.39314" lon="5.47402">
        <ele>692.4</ele>
        <time>2023-07-24T05:50:36Z</time>
      </trkpt>
      <trkpt lat="44.39313" lon="5.47397">
        <ele>692.6</ele>
        <time>2023-07-24T05:50:37Z</time>
      </trkpt>
      <trkpt lat="44.39312" lon="5.47392">
        <ele>692.7</ele>
        <time>2023-07-24T05:50:38Z</time>
      </trkpt>
      <trkpt lat="44.39311" lon="5.47387">
        <ele>692.9</ele>
        <time>2023-07-24T05:50:39Z</time>
      </trkpt>
      <trkpt lat="44.3931" lon="5.47383">
        <ele>693.1</ele>
        <time>2023-07-24T05:50:40Z</time>
      </trkpt>
      <trkpt lat="44.39309" lon="5.47378">
        <ele>693.2</ele>
        <time>2023-07-24T05:50:41Z</time>
      </trkpt>
      <trkpt lat="44.39308" lon="5.47373">
        <ele>693.4</ele>
        <time>2023-07-24T05:50:42Z</time>
      </trkpt>
      <trkpt lat="44.39307" lon="5.47369">
        <ele>693.6</ele>
        <time>2023-07-24T05:50:43Z</time>
      </trkpt>
      <trkpt lat="44.39306" lon="5.47364">
        <ele>693.8</ele>
        <time>2023-07-24T05:50:44Z</time>
      </trkpt>
      <trkpt lat="44.39305" lon="5.4736">
        <ele>694</ele>
        <time>2023-07-24T05:50:45Z</time>
      </trkpt>
      <trkpt lat="44.39304" lon="5.47356">
        <ele>694.2</ele>
        <time>2023-07-24T05:50:46Z</time>
      </trkpt>
      <trkpt lat="44.39303" lon="5.47352">
        <ele>694.4</ele>
        <time>2023-07-24T05:50:47Z</time>
      </trkpt>
      <trkpt lat="44.39303" lon="5.47347">
        <ele>694.6</ele>
        <time>2023-07-24T05:50:48Z</time>
      </trkpt>
      <trkpt lat="44.39302" lon="5.47343">
        <ele>694.8</ele>
        <time>2023-07-24T05:50:49Z</time>
      </trkpt>
      <trkpt lat="44.39301" lon="5.47338">
        <ele>695.1</ele>
        <time>2023-07-24T05:50:50Z</time>
      </trkpt>
      <trkpt lat="44.39301" lon="5.47333">
        <ele>695.3</ele>
        <time>2023-07-24T05:50:51Z</time>
      </trkpt>
      <trkpt lat="44.39301" lon="5.47329">
        <ele>695.5</ele>
        <time>2023-07-24T05:50:52Z</time>
      </trkpt>
      <trkpt lat="44.393" lon="5.47324">
        <ele>695.8</ele>
        <time>2023-07-24T05:50:53Z</time>
      </trkpt>
      <trkpt lat="44.393" lon="5.4732">
        <ele>696</ele>
        <time>2023-07-24T05:50:54Z</time>
      </trkpt>
      <trkpt lat="44.393" lon="5.47316">
        <ele>696.2</ele>
        <time>2023-07-24T05:50:55Z</time>
      </trkpt>
      <trkpt lat="44.393" lon="5.47312">
        <ele>696.4</ele>
        <time>2023-07-24T05:50:56Z</time>
      </trkpt>
      <trkpt lat="44.393" lon="5.47307">
        <ele>696.6</ele>
        <time>2023-07-24T05:50:57Z</time>
      </trkpt>
      <trkpt lat="44.393" lon="5.47303">
        <ele>696.9</ele>
        <time>2023-07-24T05:50:58Z</time>
      </trkpt>
      <trkpt lat="44.393" lon="5.47298">
        <ele>697.1</ele>
        <time>2023-07-24T05:50:59Z</time>
      </trkpt>
      <trkpt lat="44.39301" lon="5.47294">
        <ele>697.3</ele>
        <time>2023-07-24T05:51:00Z</time>
      </trkpt>
      <trkpt lat="44.39301" lon="5.4729">
        <ele>697.5</ele>
        <time>2023-07-24T05:51:01Z</time>
      </trkpt>
      <trkpt lat="44.39302" lon="5.47286">
        <ele>697.7</ele>
        <time>2023-07-24T05:51:02Z</time>
      </trkpt>
      <trkpt lat="44.39302" lon="5.47282">
        <ele>697.9</ele>
        <time>2023-07-24T05:51:03Z</time>
      </trkpt>
      <trkpt lat="44.39302" lon="5.47278">
        <ele>698.1</ele>
        <time>2023-07-24T05:51:04Z</time>
      </trkpt>
      <trkpt lat="44.39303" lon="5.47273">
        <ele>698.3</ele>
        <time>2023-07-24T05:51:05Z</time>
      </trkpt>
      <trkpt lat="44.39303" lon="5.47271">
        <ele>698.4</ele>
        <time>2023-07-24T05:51:06Z</time>
      </trkpt>
      <trkpt lat="44.39304" lon="5.47267">
        <ele>698.6</ele>
        <time>2023-07-24T05:51:07Z</time>
      </trkpt>
      <trkpt lat="44.39305" lon="5.47263">
        <ele>698.8</ele>
        <time>2023-07-24T05:51:08Z</time>
      </trkpt>
      <trkpt lat="44.39305" lon="5.47258">
        <ele>699.1</ele>
        <time>2023-07-24T05:51:09Z</time>
      </trkpt>
      <trkpt lat="44.39305" lon="5.47256">
        <ele>699.2</ele>
        <time>2023-07-24T05:51:10Z</time>
      </trkpt>
      <trkpt lat="44.39305" lon="5.47252">
        <ele>699.4</ele>
        <time>2023-07-24T05:51:11Z</time>
      </trkpt>
      <trkpt lat="44.39306" lon="5.47248">
        <ele>699.6</ele>
        <time>2023-07-24T05:51:12Z</time>
      </trkpt>
      <trkpt lat="44.39306" lon="5.47241">
        <ele>699.9</ele>
        <time>2023-07-24T05:51:14Z</time>
      </trkpt>
      <trkpt lat="44.39306" lon="5.47237">
        <ele>700.1</ele>
        <time>2023-07-24T05:51:15Z</time>
      </trkpt>
      <trkpt lat="44.39305" lon="5.47231">
        <ele>700.4</ele>
        <time>2023-07-24T05:51:16Z</time>
      </trkpt>
      <trkpt lat="44.39305" lon="5.4723">
        <ele>700.4</ele>
        <time>2023-07-24T05:51:17Z</time>
      </trkpt>
      <trkpt lat="44.39304" lon="5.47224">
        <ele>700.7</ele>
        <time>2023-07-24T05:51:18Z</time>
      </trkpt>
      <trkpt lat="44.39303" lon="5.47222">
        <ele>700.8</ele>
        <time>2023-07-24T05:51:19Z</time>
      </trkpt>
      <trkpt lat="44.39302" lon="5.47219">
        <ele>701</ele>
        <time>2023-07-24T05:51:20Z</time>
      </trkpt>
      <trkpt lat="44.39301" lon="5.47216">
        <ele>701.2</ele>
        <time>2023-07-24T05:51:21Z</time>
      </trkpt>
      <trkpt lat="44.39299" lon="5.47212">
        <ele>701.4</ele>
        <time>2023-07-24T05:51:22Z</time>
      </trkpt>
      <trkpt lat="44.39297" lon="5.47207">
        <ele>701.7</ele>
        <time>2023-07-24T05:51:23Z</time>
      </trkpt>
      <trkpt lat="44.39297" lon="5.47206">
        <ele>701.8</ele>
        <time>2023-07-24T05:51:24Z</time>
      </trkpt>
      <trkpt lat="44.39295" lon="5.47201">
        <ele>702.1</ele>
        <time>2023-07-24T05:51:25Z</time>
      </trkpt>
      <trkpt lat="44.39294" lon="5.47199">
        <ele>702.2</ele>
        <time>2023-07-24T05:51:26Z</time>
      </trkpt>
      <trkpt lat="44.39293" lon="5.47196">
        <ele>702.4</ele>
        <time>2023-07-24T05:51:27Z</time>
      </trkpt>
      <trkpt lat="44.3929" lon="5.47191">
        <ele>702.7</ele>
        <time>2023-07-24T05:51:28Z</time>
      </trkpt>
      <trkpt lat="44.3929" lon="5.4719">
        <ele>702.8</ele>
        <time>2023-07-24T05:51:29Z</time>
      </trkpt>
      <trkpt lat="44.39287" lon="5.47185">
        <ele>703.1</ele>
        <time>2023-07-24T05:51:30Z</time>
      </trkpt>
      <trkpt lat="44.39287" lon="5.47183">
        <ele>703.2</ele>
        <time>2023-07-24T05:51:31Z</time>
      </trkpt>
      <trkpt lat="44.39284" lon="5.47179">
        <ele>703.5</ele>
        <time>2023-07-24T05:51:32Z</time>
      </trkpt>
      <trkpt lat="44.39284" lon="5.47178">
        <ele>703.6</ele>
        <time>2023-07-24T05:51:33Z</time>
      </trkpt>
      <trkpt lat="44.39282" lon="5.47174">
        <ele>703.9</ele>
        <time>2023-07-24T05:51:34Z</time>
      </trkpt>
      <trkpt lat="44.39281" lon="5.47173">
        <ele>704</ele>
        <time>2023-07-24T05:51:35Z</time>
      </trkpt>
      <trkpt lat="44.39279" lon="5.47168">
        <ele>704.2</ele>
        <time>2023-07-24T05:51:36Z</time>
      </trkpt>
      <trkpt lat="44.39278" lon="5.47167">
        <ele>704.3</ele>
        <time>2023-07-24T05:51:37Z</time>
      </trkpt>
      <trkpt lat="44.39276" lon="5.47163">
        <ele>704.7</ele>
        <time>2023-07-24T05:51:38Z</time>
      </trkpt>
      <trkpt lat="44.39275" lon="5.47161">
        <ele>704.7</ele>
        <time>2023-07-24T05:51:39Z</time>
      </trkpt>
      <trkpt lat="44.39273" lon="5.47158">
        <ele>705</ele>
        <time>2023-07-24T05:51:40Z</time>
      </trkpt>
      <trkpt lat="44.39271" lon="5.47153">
        <ele>705.3</ele>
        <time>2023-07-24T05:51:41Z</time>
      </trkpt>
      <trkpt lat="44.39271" lon="5.47151">
        <ele>705.4</ele>
        <time>2023-07-24T05:51:42Z</time>
      </trkpt>
      <trkpt lat="44.39269" lon="5.47148">
        <ele>705.6</ele>
        <time>2023-07-24T05:51:43Z</time>
      </trkpt>
      <trkpt lat="44.39267" lon="5.47144">
        <ele>705.8</ele>
        <time>2023-07-24T05:51:44Z</time>
      </trkpt>
      <trkpt lat="44.39267" lon="5.47142">
        <ele>705.9</ele>
        <time>2023-07-24T05:51:45Z</time>
      </trkpt>
      <trkpt lat="44.39265" lon="5.47138">
        <ele>706.2</ele>
        <time>2023-07-24T05:51:46Z</time>
      </trkpt>
      <trkpt lat="44.39265" lon="5.47136">
        <ele>706.2</ele>
        <time>2023-07-24T05:51:47Z</time>
      </trkpt>
      <trkpt lat="44.39263" lon="5.47132">
        <ele>706.5</ele>
        <time>2023-07-24T05:51:48Z</time>
      </trkpt>
      <trkpt lat="44.39263" lon="5.4713">
        <ele>706.5</ele>
        <time>2023-07-24T05:51:49Z</time>
      </trkpt>
      <trkpt lat="44.39261" lon="5.47126">
        <ele>706.8</ele>
        <time>2023-07-24T05:51:50Z</time>
      </trkpt>
      <trkpt lat="44.39261" lon="5.47124">
        <ele>706.8</ele>
        <time>2023-07-24T05:51:51Z</time>
      </trkpt>
      <trkpt lat="44.39261" lon="5.47119">
        <ele>706.9</ele>
        <time>2023-07-24T05:51:52Z</time>
      </trkpt>
      <trkpt lat="44.39261" lon="5.47117">
        <ele>707</ele>
        <time>2023-07-24T05:51:53Z</time>
      </trkpt>
      <trkpt lat="44.39262" lon="5.47112">
        <ele>707</ele>
        <time>2023-07-24T05:51:54Z</time>
      </trkpt>
      <trkpt lat="44.39262" lon="5.4711">
        <ele>707.1</ele>
        <time>2023-07-24T05:51:55Z</time>
      </trkpt>
      <trkpt lat="44.39264" lon="5.47105">
        <ele>707.5</ele>
        <time>2023-07-24T05:51:56Z</time>
      </trkpt>
      <trkpt lat="44.39264" lon="5.47103">
        <ele>707.6</ele>
        <time>2023-07-24T05:51:57Z</time>
      </trkpt>
      <trkpt lat="44.39268" lon="5.47103">
        <ele>707.8</ele>
        <time>2023-07-24T05:51:58Z</time>
      </trkpt>
      <trkpt lat="44.39269" lon="5.47103">
        <ele>707.9</ele>
        <time>2023-07-24T05:51:59Z</time>
      </trkpt>
      <trkpt lat="44.39272" lon="5.47105">
        <ele>708.2</ele>
        <time>2023-07-24T05:52:00Z</time>
      </trkpt>
      <trkpt lat="44.39272" lon="5.47105">
        <ele>708.3</ele>
        <time>2023-07-24T05:52:01Z</time>
      </trkpt>
      <trkpt lat="44.39273" lon="5.47107">
        <ele>708.4</ele>
        <time>2023-07-24T05:52:02Z</time>
      </trkpt>
      <trkpt lat="44.39273" lon="5.47108">
        <ele>708.5</ele>
        <time>2023-07-24T05:52:03Z</time>
      </trkpt>
      <trkpt lat="44.39272" lon="5.47109">
        <ele>708.6</ele>
        <time>2023-07-24T05:52:04Z</time>
      </trkpt>
      <trkpt lat="44.39271" lon="5.47109">
        <ele>708.6</ele>
        <time>2023-07-24T05:52:05Z</time>
      </trkpt>
      <trkpt lat="44.39271" lon="5.47109">
        <ele>708.7</ele>
        <time>2023-07-24T05:52:06Z</time>
      </trkpt>
      <trkpt lat="44.39271" lon="5.47109">
        <ele>708.7</ele>
        <time>2023-07-24T05:52:07Z</time>
      </trkpt>
      <trkpt lat="44.39271" lon="5.4711">
        <ele>708.7</ele>
        <time>2023-07-24T05:52:08Z</time>
      </trkpt>
      <trkpt lat="44.39271" lon="5.4711">
        <ele>708.8</ele>
        <time>2023-07-24T05:52:09Z</time>
      </trkpt>
      <trkpt lat="44.39271" lon="5.4711">
        <ele>708.8</ele>
        <time>2023-07-24T05:52:10Z</time>
      </trkpt>
      <trkpt lat="44.3927" lon="5.4711">
        <ele>708.8</ele>
        <time>2023-07-24T05:52:11Z</time>
      </trkpt>
      <trkpt lat="44.3927" lon="5.4711">
        <ele>708.8</ele>
        <time>2023-07-24T05:52:12Z</time>
      </trkpt>
      <trkpt lat="44.3927" lon="5.4711">
        <ele>708.9</ele>
        <time>2023-07-24T05:52:13Z</time>
      </trkpt>
      <trkpt lat="44.3927" lon="5.47111">
        <ele>708.9</ele>
        <time>2023-07-24T05:52:14Z</time>
      </trkpt>
      <trkpt lat="44.3927" lon="5.47112">
        <ele>709</ele>
        <time>2023-07-24T05:52:15Z</time>
      </trkpt>
      <trkpt lat="44.3927" lon="5.47112">
        <ele>709</ele>
        <time>2023-07-24T05:52:16Z</time>
      </trkpt>
      <trkpt lat="44.39271" lon="5.47113">
        <ele>709</ele>
        <time>2023-07-24T05:52:17Z</time>
      </trkpt>
      <trkpt lat="44.39271" lon="5.47113">
        <ele>709.1</ele>
        <time>2023-07-24T05:52:18Z</time>
      </trkpt>
      <trkpt lat="44.39271" lon="5.47113">
        <ele>709.1</ele>
        <time>2023-07-24T05:52:19Z</time>
      </trkpt>
      <trkpt lat="44.39271" lon="5.47113">
        <ele>709.1</ele>
        <time>2023-07-24T05:52:20Z</time>
      </trkpt>
      <trkpt lat="44.39271" lon="5.47113">
        <ele>709.1</ele>
        <time>2023-07-24T05:52:21Z</time>
      </trkpt>
      <trkpt lat="44.3927" lon="5.47112">
        <ele>709.2</ele>
        <time>2023-07-24T05:52:22Z</time>
      </trkpt>
      <trkpt lat="44.3927" lon="5.47112">
        <ele>709.2</ele>
        <time>2023-07-24T05:52:23Z</time>
      </trkpt>
      <trkpt lat="44.3927" lon="5.47112">
        <ele>709.2</ele>
        <time>2023-07-24T05:52:24Z</time>
      </trkpt>
      <trkpt lat="44.39269" lon="5.47112">
        <ele>709.3</ele>
        <time>2023-07-24T05:52:25Z</time>
      </trkpt>
      <trkpt lat="44.39269" lon="5.47112">
        <ele>709.3</ele>
        <time>2023-07-24T05:52:26Z</time>
      </trkpt>
      <trkpt lat="44.39269" lon="5.47112">
        <ele>709.3</ele>
        <time>2023-07-24T05:52:27Z</time>
      </trkpt>
      <trkpt lat="44.3927" lon="5.47112">
        <ele>709.3</ele>
        <time>2023-07-24T05:52:28Z</time>
      </trkpt>
      <trkpt lat="44.3927" lon="5.47112">
        <ele>709.3</ele>
        <time>2023-07-24T05:52:29Z</time>
      </trkpt>
      <trkpt lat="44.3927" lon="5.47112">
        <ele>709.3</ele>
        <time>2023-07-24T05:52:30Z</time>
      </trkpt>
      <trkpt lat="44.3927" lon="5.47111">
        <ele>709.3</ele>
        <time>2023-07-24T05:52:31Z</time>
      </trkpt>
      <trkpt lat="44.3927" lon="5.47111">
        <ele>709.3</ele>
        <time>2023-07-24T05:52:32Z</time>
      </trkpt>
      <trkpt lat="44.3927" lon="5.47111">
        <ele>709.3</ele>
        <time>2023-07-24T05:52:33Z</time>
      </trkpt>
      <trkpt lat="44.3927" lon="5.47111">
        <ele>709.3</ele>
        <time>2023-07-24T05:52:34Z</time>
      </trkpt>
      <trkpt lat="44.39272" lon="5.47117">
        <ele>709.8</ele>
        <time>2023-07-24T05:53:13Z</time>
      </trkpt>
      <trkpt lat="44.39275" lon="5.47118">
        <ele>710.1</ele>
        <time>2023-07-24T05:53:14Z</time>
      </trkpt>
      <trkpt lat="44.39279" lon="5.47119">
        <ele>710.5</ele>
        <time>2023-07-24T05:53:15Z</time>
      </trkpt>
      <trkpt lat="44.39284" lon="5.47119">
        <ele>710.9</ele>
        <time>2023-07-24T05:53:16Z</time>
      </trkpt>
      <trkpt lat="44.39289" lon="5.47119">
        <ele>711.4</ele>
        <time>2023-07-24T05:53:17Z</time>
      </trkpt>
      <trkpt lat="44.39293" lon="5.47119">
        <ele>711.7</ele>
        <time>2023-07-24T05:53:18Z</time>
      </trkpt>
      <trkpt lat="44.39295" lon="5.47121">
        <ele>712.1</ele>
        <time>2023-07-24T05:53:19Z</time>
      </trkpt>
      <trkpt lat="44.39298" lon="5.47124">
        <ele>712.4</ele>
        <time>2023-07-24T05:53:20Z</time>
      </trkpt>
      <trkpt lat="44.39301" lon="5.47127">
        <ele>712.7</ele>
        <time>2023-07-24T05:53:21Z</time>
      </trkpt>
      <trkpt lat="44.39303" lon="5.4713">
        <ele>713</ele>
        <time>2023-07-24T05:53:22Z</time>
      </trkpt>
      <trkpt lat="44.39305" lon="5.47134">
        <ele>713.3</ele>
        <time>2023-07-24T05:53:23Z</time>
      </trkpt>
      <trkpt lat="44.39307" lon="5.47137">
        <ele>713.5</ele>
        <time>2023-07-24T05:53:24Z</time>
      </trkpt>
      <trkpt lat="44.39309" lon="5.47141">
        <ele>713.7</ele>
        <time>2023-07-24T05:53:25Z</time>
      </trkpt>
      <trkpt lat="44.39311" lon="5.47144">
        <ele>714</ele>
        <time>2023-07-24T05:53:26Z</time>
      </trkpt>
      <trkpt lat="44.39314" lon="5.47147">
        <ele>714.2</ele>
        <time>2023-07-24T05:53:27Z</time>
      </trkpt>
      <trkpt lat="44.39316" lon="5.4715">
        <ele>714.5</ele>
        <time>2023-07-24T05:53:28Z</time>
      </trkpt>
      <trkpt lat="44.39319" lon="5.47154">
        <ele>714.7</ele>
        <time>2023-07-24T05:53:29Z</time>
      </trkpt>
      <trkpt lat="44.39321" lon="5.47157">
        <ele>714.9</ele>
        <time>2023-07-24T05:53:30Z</time>
      </trkpt>
      <trkpt lat="44.39324" lon="5.47161">
        <ele>715.1</ele>
        <time>2023-07-24T05:53:31Z</time>
      </trkpt>
      <trkpt lat="44.39326" lon="5.47164">
        <ele>715.3</ele>
        <time>2023-07-24T05:53:32Z</time>
      </trkpt>
      <trkpt lat="44.39328" lon="5.47167">
        <ele>715.5</ele>
        <time>2023-07-24T05:53:33Z</time>
      </trkpt>
      <trkpt lat="44.39331" lon="5.4717">
        <ele>715.7</ele>
        <time>2023-07-24T05:53:34Z</time>
      </trkpt>
      <trkpt lat="44.39334" lon="5.47174">
        <ele>715.9</ele>
        <time>2023-07-24T05:53:35Z</time>
      </trkpt>
      <trkpt lat="44.39336" lon="5.47178">
        <ele>716.1</ele>
        <time>2023-07-24T05:53:36Z</time>
      </trkpt>
      <trkpt lat="44.39339" lon="5.47182">
        <ele>716.3</ele>
        <time>2023-07-24T05:53:37Z</time>
      </trkpt>
      <trkpt lat="44.39342" lon="5.47186">
        <ele>716.5</ele>
        <time>2023-07-24T05:53:38Z</time>
      </trkpt>
      <trkpt lat="44.39344" lon="5.4719">
        <ele>716.6</ele>
        <time>2023-07-24T05:53:39Z</time>
      </trkpt>
      <trkpt lat="44.39346" lon="5.47193">
        <ele>716.8</ele>
        <time>2023-07-24T05:53:40Z</time>
      </trkpt>
      <trkpt lat="44.39349" lon="5.47197">
        <ele>717</ele>
        <time>2023-07-24T05:53:41Z</time>
      </trkpt>
      <trkpt lat="44.39351" lon="5.47201">
        <ele>717.1</ele>
        <time>2023-07-24T05:53:42Z</time>
      </trkpt>
      <trkpt lat="44.39353" lon="5.47205">
        <ele>717.3</ele>
        <time>2023-07-24T05:53:43Z</time>
      </trkpt>
      <trkpt lat="44.39355" lon="5.47209">
        <ele>717.5</ele>
        <time>2023-07-24T05:53:44Z</time>
      </trkpt>
      <trkpt lat="44.39358" lon="5.47213">
        <ele>717.7</ele>
        <time>2023-07-24T05:53:45Z</time>
      </trkpt>
      <trkpt lat="44.3936" lon="5.47218">
        <ele>717.9</ele>
        <time>2023-07-24T05:53:46Z</time>
      </trkpt>
      <trkpt lat="44.39361" lon="5.47222">
        <ele>718.1</ele>
        <time>2023-07-24T05:53:47Z</time>
      </trkpt>
      <trkpt lat="44.39363" lon="5.47226">
        <ele>718.4</ele>
        <time>2023-07-24T05:53:48Z</time>
      </trkpt>
      <trkpt lat="44.39365" lon="5.4723">
        <ele>718.6</ele>
        <time>2023-07-24T05:53:49Z</time>
      </trkpt>
      <trkpt lat="44.39367" lon="5.47235">
        <ele>718.8</ele>
        <time>2023-07-24T05:53:50Z</time>
      </trkpt>
      <trkpt lat="44.39368" lon="5.4724">
        <ele>719.1</ele>
        <time>2023-07-24T05:53:51Z</time>
      </trkpt>
      <trkpt lat="44.3937" lon="5.47244">
        <ele>719.3</ele>
        <time>2023-07-24T05:53:52Z</time>
      </trkpt>
      <trkpt lat="44.39372" lon="5.47249">
        <ele>719.6</ele>
        <time>2023-07-24T05:53:53Z</time>
      </trkpt>
      <trkpt lat="44.39373" lon="5.47254">
        <ele>719.8</ele>
        <time>2023-07-24T05:53:54Z</time>
      </trkpt>
      <trkpt lat="44.39375" lon="5.47258">
        <ele>720</ele>
        <time>2023-07-24T05:53:55Z</time>
      </trkpt>
      <trkpt lat="44.39377" lon="5.47263">
        <ele>720.2</ele>
        <time>2023-07-24T05:53:56Z</time>
      </trkpt>
      <trkpt lat="44.39379" lon="5.47267">
        <ele>720.4</ele>
        <time>2023-07-24T05:53:57Z</time>
      </trkpt>
      <trkpt lat="44.39381" lon="5.47271">
        <ele>720.6</ele>
        <time>2023-07-24T05:53:58Z</time>
      </trkpt>
      <trkpt lat="44.39383" lon="5.47274">
        <ele>720.8</ele>
        <time>2023-07-24T05:53:59Z</time>
      </trkpt>
      <trkpt lat="44.39386" lon="5.47277">
        <ele>721</ele>
        <time>2023-07-24T05:54:00Z</time>
      </trkpt>
      <trkpt lat="44.39389" lon="5.47279">
        <ele>721.2</ele>
        <time>2023-07-24T05:54:01Z</time>
      </trkpt>
      <trkpt lat="44.39393" lon="5.47281">
        <ele>721.5</ele>
        <time>2023-07-24T05:54:02Z</time>
      </trkpt>
      <trkpt lat="44.39396" lon="5.47283">
        <ele>721.7</ele>
        <time>2023-07-24T05:54:03Z</time>
      </trkpt>
      <trkpt lat="44.394" lon="5.47285">
        <ele>722</ele>
        <time>2023-07-24T05:54:04Z</time>
      </trkpt>
      <trkpt lat="44.39403" lon="5.47286">
        <ele>722.3</ele>
        <time>2023-07-24T05:54:05Z</time>
      </trkpt>
      <trkpt lat="44.39407" lon="5.47288">
        <ele>722.6</ele>
        <time>2023-07-24T05:54:06Z</time>
      </trkpt>
      <trkpt lat="44.3941" lon="5.4729">
        <ele>723</ele>
        <time>2023-07-24T05:54:07Z</time>
      </trkpt>
      <trkpt lat="44.39413" lon="5.47291">
        <ele>723.3</ele>
        <time>2023-07-24T05:54:08Z</time>
      </trkpt>
      <trkpt lat="44.39417" lon="5.47292">
        <ele>723.6</ele>
        <time>2023-07-24T05:54:09Z</time>
      </trkpt>
      <trkpt lat="44.3942" lon="5.47293">
        <ele>724</ele>
        <time>2023-07-24T05:54:10Z</time>
      </trkpt>
      <trkpt lat="44.39423" lon="5.47294">
        <ele>724.3</ele>
        <time>2023-07-24T05:54:11Z</time>
      </trkpt>
      <trkpt lat="44.39426" lon="5.47296">
        <ele>724.5</ele>
        <time>2023-07-24T05:54:12Z</time>
      </trkpt>
      <trkpt lat="44.3943" lon="5.47297">
        <ele>724.8</ele>
        <time>2023-07-24T05:54:13Z</time>
      </trkpt>
      <trkpt lat="44.39433" lon="5.47298">
        <ele>725</ele>
        <time>2023-07-24T05:54:14Z</time>
      </trkpt>
      <trkpt lat="44.39436" lon="5.47299">
        <ele>725.2</ele>
        <time>2023-07-24T05:54:15Z</time>
      </trkpt>
      <trkpt lat="44.39439" lon="5.47301">
        <ele>725.3</ele>
        <time>2023-07-24T05:54:16Z</time>
      </trkpt>
      <trkpt lat="44.39442" lon="5.47302">
        <ele>725.5</ele>
        <time>2023-07-24T05:54:17Z</time>
      </trkpt>
      <trkpt lat="44.39446" lon="5.47303">
        <ele>725.7</ele>
        <time>2023-07-24T05:54:18Z</time>
      </trkpt>
      <trkpt lat="44.3945" lon="5.47304">
        <ele>725.9</ele>
        <time>2023-07-24T05:54:19Z</time>
      </trkpt>
      <trkpt lat="44.39453" lon="5.47305">
        <ele>726</ele>
        <time>2023-07-24T05:54:20Z</time>
      </trkpt>
      <trkpt lat="44.39456" lon="5.47306">
        <ele>726.1</ele>
        <time>2023-07-24T05:54:21Z</time>
      </trkpt>
      <trkpt lat="44.39459" lon="5.47307">
        <ele>726.2</ele>
        <time>2023-07-24T05:54:22Z</time>
      </trkpt>
      <trkpt lat="44.39463" lon="5.47309">
        <ele>726.3</ele>
        <time>2023-07-24T05:54:23Z</time>
      </trkpt>
      <trkpt lat="44.39467" lon="5.4731">
        <ele>726.4</ele>
        <time>2023-07-24T05:54:24Z</time>
      </trkpt>
      <trkpt lat="44.3947" lon="5.47311">
        <ele>726.5</ele>
        <time>2023-07-24T05:54:25Z</time>
      </trkpt>
      <trkpt lat="44.39474" lon="5.47312">
        <ele>726.6</ele>
        <time>2023-07-24T05:54:26Z</time>
      </trkpt>
      <trkpt lat="44.39477" lon="5.47313">
        <ele>726.7</ele>
        <time>2023-07-24T05:54:27Z</time>
      </trkpt>
      <trkpt lat="44.39481" lon="5.47313">
        <ele>726.9</ele>
        <time>2023-07-24T05:54:28Z</time>
      </trkpt>
      <trkpt lat="44.39484" lon="5.47314">
        <ele>727</ele>
        <time>2023-07-24T05:54:29Z</time>
      </trkpt>
      <trkpt lat="44.39488" lon="5.47315">
        <ele>727.1</ele>
        <time>2023-07-24T05:54:30Z</time>
      </trkpt>
      <trkpt lat="44.39492" lon="5.47316">
        <ele>727.3</ele>
        <time>2023-07-24T05:54:31Z</time>
      </trkpt>
      <trkpt lat="44.39496" lon="5.47317">
        <ele>727.4</ele>
        <time>2023-07-24T05:54:32Z</time>
      </trkpt>
      <trkpt lat="44.395" lon="5.47318">
        <ele>727.6</ele>
        <time>2023-07-24T05:54:33Z</time>
      </trkpt>
      <trkpt lat="44.39503" lon="5.47319">
        <ele>727.8</ele>
        <time>2023-07-24T05:54:34Z</time>
      </trkpt>
      <trkpt lat="44.39506" lon="5.4732">
        <ele>728</ele>
        <time>2023-07-24T05:54:35Z</time>
      </trkpt>
      <trkpt lat="44.3951" lon="5.47321">
        <ele>728.2</ele>
        <time>2023-07-24T05:54:36Z</time>
      </trkpt>
      <trkpt lat="44.39513" lon="5.47322">
        <ele>728.5</ele>
        <time>2023-07-24T05:54:37Z</time>
      </trkpt>
      <trkpt lat="44.39517" lon="5.47322">
        <ele>728.8</ele>
        <time>2023-07-24T05:54:38Z</time>
      </trkpt>
      <trkpt lat="44.39521" lon="5.47322">
        <ele>729.1</ele>
        <time>2023-07-24T05:54:39Z</time>
      </trkpt>
      <trkpt lat="44.39524" lon="5.47321">
        <ele>729.4</ele>
        <time>2023-07-24T05:54:40Z</time>
      </trkpt>
      <trkpt lat="44.39528" lon="5.47322">
        <ele>729.7</ele>
        <time>2023-07-24T05:54:41Z</time>
      </trkpt>
      <trkpt lat="44.39531" lon="5.47322">
        <ele>730</ele>
        <time>2023-07-24T05:54:42Z</time>
      </trkpt>
      <trkpt lat="44.39535" lon="5.47323">
        <ele>730.3</ele>
        <time>2023-07-24T05:54:43Z</time>
      </trkpt>
      <trkpt lat="44.39538" lon="5.47323">
        <ele>730.6</ele>
        <time>2023-07-24T05:54:44Z</time>
      </trkpt>
      <trkpt lat="44.39541" lon="5.47323">
        <ele>730.9</ele>
        <time>2023-07-24T05:54:45Z</time>
      </trkpt>
      <trkpt lat="44.39545" lon="5.47323">
        <ele>731.2</ele>
        <time>2023-07-24T05:54:46Z</time>
      </trkpt>
      <trkpt lat="44.39548" lon="5.47323">
        <ele>731.5</ele>
        <time>2023-07-24T05:54:47Z</time>
      </trkpt>
      <trkpt lat="44.39551" lon="5.47323">
        <ele>731.9</ele>
        <time>2023-07-24T05:54:48Z</time>
      </trkpt>
      <trkpt lat="44.39554" lon="5.47322">
        <ele>732.2</ele>
        <time>2023-07-24T05:54:49Z</time>
      </trkpt>
      <trkpt lat="44.39557" lon="5.47322">
        <ele>732.5</ele>
        <time>2023-07-24T05:54:50Z</time>
      </trkpt>
      <trkpt lat="44.3956" lon="5.47322">
        <ele>732.9</ele>
        <time>2023-07-24T05:54:51Z</time>
      </trkpt>
      <trkpt lat="44.39563" lon="5.47321">
        <ele>733.2</ele>
        <time>2023-07-24T05:54:52Z</time>
      </trkpt>
      <trkpt lat="44.39566" lon="5.47321">
        <ele>733.6</ele>
        <time>2023-07-24T05:54:53Z</time>
      </trkpt>
      <trkpt lat="44.39569" lon="5.47321">
        <ele>734.1</ele>
        <time>2023-07-24T05:54:54Z</time>
      </trkpt>
      <trkpt lat="44.39572" lon="5.47321">
        <ele>734.5</ele>
        <time>2023-07-24T05:54:55Z</time>
      </trkpt>
      <trkpt lat="44.39575" lon="5.47322">
        <ele>734.9</ele>
        <time>2023-07-24T05:54:56Z</time>
      </trkpt>
      <trkpt lat="44.39579" lon="5.47322">
        <ele>735.4</ele>
        <time>2023-07-24T05:54:57Z</time>
      </trkpt>
      <trkpt lat="44.3958" lon="5.47322">
        <ele>735.6</ele>
        <time>2023-07-24T05:54:58Z</time>
      </trkpt>
      <trkpt lat="44.39584" lon="5.47322">
        <ele>736.2</ele>
        <time>2023-07-24T05:54:59Z</time>
      </trkpt>
      <trkpt lat="44.39585" lon="5.47322">
        <ele>736.4</ele>
        <time>2023-07-24T05:55:00Z</time>
      </trkpt>
      <trkpt lat="44.39589" lon="5.47321">
        <ele>736.9</ele>
        <time>2023-07-24T05:55:01Z</time>
      </trkpt>
      <trkpt lat="44.3959" lon="5.47321">
        <ele>737.1</ele>
        <time>2023-07-24T05:55:02Z</time>
      </trkpt>
      <trkpt lat="44.39593" lon="5.4732">
        <ele>737.5</ele>
        <time>2023-07-24T05:55:03Z</time>
      </trkpt>
      <trkpt lat="44.39597" lon="5.47319">
        <ele>737.9</ele>
        <time>2023-07-24T05:55:04Z</time>
      </trkpt>
      <trkpt lat="44.396" lon="5.4732">
        <ele>738.3</ele>
        <time>2023-07-24T05:55:05Z</time>
      </trkpt>
      <trkpt lat="44.39603" lon="5.4732">
        <ele>738.7</ele>
        <time>2023-07-24T05:55:06Z</time>
      </trkpt>
      <trkpt lat="44.39606" lon="5.4732">
        <ele>739.1</ele>
        <time>2023-07-24T05:55:07Z</time>
      </trkpt>
      <trkpt lat="44.39609" lon="5.47319">
        <ele>739.4</ele>
        <time>2023-07-24T05:55:08Z</time>
      </trkpt>
      <trkpt lat="44.39613" lon="5.47319">
        <ele>739.9</ele>
        <time>2023-07-24T05:55:09Z</time>
      </trkpt>
      <trkpt lat="44.39614" lon="5.4732">
        <ele>740</ele>
        <time>2023-07-24T05:55:10Z</time>
      </trkpt>
      <trkpt lat="44.39618" lon="5.4732">
        <ele>740.5</ele>
        <time>2023-07-24T05:55:11Z</time>
      </trkpt>
      <trkpt lat="44.39619" lon="5.4732">
        <ele>740.7</ele>
        <time>2023-07-24T05:55:12Z</time>
      </trkpt>
      <trkpt lat="44.39622" lon="5.4732">
        <ele>741</ele>
        <time>2023-07-24T05:55:13Z</time>
      </trkpt>
      <trkpt lat="44.39625" lon="5.47319">
        <ele>741.4</ele>
        <time>2023-07-24T05:55:14Z</time>
      </trkpt>
      <trkpt lat="44.39627" lon="5.47319">
        <ele>741.8</ele>
        <time>2023-07-24T05:55:15Z</time>
      </trkpt>
      <trkpt lat="44.39631" lon="5.47317">
        <ele>742.3</ele>
        <time>2023-07-24T05:55:16Z</time>
      </trkpt>
      <trkpt lat="44.39632" lon="5.47316">
        <ele>742.5</ele>
        <time>2023-07-24T05:55:17Z</time>
      </trkpt>
      <trkpt lat="44.39636" lon="5.47315">
        <ele>743.1</ele>
        <time>2023-07-24T05:55:18Z</time>
      </trkpt>
      <trkpt lat="44.39637" lon="5.47314">
        <ele>743.3</ele>
        <time>2023-07-24T05:55:19Z</time>
      </trkpt>
      <trkpt lat="44.39641" lon="5.47314">
        <ele>743.9</ele>
        <time>2023-07-24T05:55:20Z</time>
      </trkpt>
      <trkpt lat="44.39642" lon="5.47314">
        <ele>744.1</ele>
        <time>2023-07-24T05:55:21Z</time>
      </trkpt>
      <trkpt lat="44.39646" lon="5.47314">
        <ele>744.7</ele>
        <time>2023-07-24T05:55:22Z</time>
      </trkpt>
      <trkpt lat="44.39647" lon="5.47315">
        <ele>744.9</ele>
        <time>2023-07-24T05:55:23Z</time>
      </trkpt>
      <trkpt lat="44.3965" lon="5.47315">
        <ele>745.4</ele>
        <time>2023-07-24T05:55:24Z</time>
      </trkpt>
      <trkpt lat="44.39651" lon="5.47315">
        <ele>745.6</ele>
        <time>2023-07-24T05:55:25Z</time>
      </trkpt>
      <trkpt lat="44.39654" lon="5.47316">
        <ele>746.1</ele>
        <time>2023-07-24T05:55:26Z</time>
      </trkpt>
      <trkpt lat="44.39656" lon="5.47316">
        <ele>746.2</ele>
        <time>2023-07-24T05:55:27Z</time>
      </trkpt>
      <trkpt lat="44.39659" lon="5.47317">
        <ele>746.8</ele>
        <time>2023-07-24T05:55:28Z</time>
      </trkpt>
      <trkpt lat="44.3966" lon="5.47317">
        <ele>746.9</ele>
        <time>2023-07-24T05:55:29Z</time>
      </trkpt>
      <trkpt lat="44.39663" lon="5.47317">
        <ele>747.4</ele>
        <time>2023-07-24T05:55:30Z</time>
      </trkpt>
      <trkpt lat="44.39665" lon="5.47317">
        <ele>747.6</ele>
        <time>2023-07-24T05:55:31Z</time>
      </trkpt>
      <trkpt lat="44.39668" lon="5.47318">
        <ele>748.1</ele>
        <time>2023-07-24T05:55:32Z</time>
      </trkpt>
      <trkpt lat="44.39669" lon="5.47319">
        <ele>748.3</ele>
        <time>2023-07-24T05:55:33Z</time>
      </trkpt>
      <trkpt lat="44.39672" lon="5.47321">
        <ele>748.8</ele>
        <time>2023-07-24T05:55:34Z</time>
      </trkpt>
      <trkpt lat="44.39673" lon="5.47322">
        <ele>748.9</ele>
        <time>2023-07-24T05:55:35Z</time>
      </trkpt>
      <trkpt lat="44.39676" lon="5.47325">
        <ele>749.4</ele>
        <time>2023-07-24T05:55:36Z</time>
      </trkpt>
      <trkpt lat="44.39677" lon="5.47326">
        <ele>749.6</ele>
        <time>2023-07-24T05:55:37Z</time>
      </trkpt>
      <trkpt lat="44.39679" lon="5.47329">
        <ele>750</ele>
        <time>2023-07-24T05:55:38Z</time>
      </trkpt>
      <trkpt lat="44.39679" lon="5.4733">
        <ele>750.2</ele>
        <time>2023-07-24T05:55:39Z</time>
      </trkpt>
      <trkpt lat="44.39681" lon="5.47335">
        <ele>750.6</ele>
        <time>2023-07-24T05:55:40Z</time>
      </trkpt>
      <trkpt lat="44.39681" lon="5.47336">
        <ele>750.8</ele>
        <time>2023-07-24T05:55:41Z</time>
      </trkpt>
      <trkpt lat="44.39681" lon="5.47341">
        <ele>751.3</ele>
        <time>2023-07-24T05:55:42Z</time>
      </trkpt>
      <trkpt lat="44.39681" lon="5.47343">
        <ele>751.4</ele>
        <time>2023-07-24T05:55:43Z</time>
      </trkpt>
      <trkpt lat="44.39681" lon="5.47348">
        <ele>751.9</ele>
        <time>2023-07-24T05:55:44Z</time>
      </trkpt>
      <trkpt lat="44.39681" lon="5.47349">
        <ele>752.1</ele>
        <time>2023-07-24T05:55:45Z</time>
      </trkpt>
      <trkpt lat="44.3968" lon="5.47354">
        <ele>752.5</ele>
        <time>2023-07-24T05:55:46Z</time>
      </trkpt>
      <trkpt lat="44.3968" lon="5.47356">
        <ele>752.7</ele>
        <time>2023-07-24T05:55:47Z</time>
      </trkpt>
      <trkpt lat="44.39679" lon="5.4736">
        <ele>753.1</ele>
        <time>2023-07-24T05:55:48Z</time>
      </trkpt>
      <trkpt lat="44.39679" lon="5.47362">
        <ele>753.3</ele>
        <time>2023-07-24T05:55:49Z</time>
      </trkpt>
      <trkpt lat="44.39678" lon="5.47366">
        <ele>753.7</ele>
        <time>2023-07-24T05:55:50Z</time>
      </trkpt>
      <trkpt lat="44.39678" lon="5.47368">
        <ele>753.9</ele>
        <time>2023-07-24T05:55:51Z</time>
      </trkpt>
      <trkpt lat="44.39677" lon="5.47372">
        <ele>754.3</ele>
        <time>2023-07-24T05:55:52Z</time>
      </trkpt>
      <trkpt lat="44.39677" lon="5.47374">
        <ele>754.5</ele>
        <time>2023-07-24T05:55:53Z</time>
      </trkpt>
      <trkpt lat="44.39676" lon="5.47378">
        <ele>754.9</ele>
        <time>2023-07-24T05:55:54Z</time>
      </trkpt>
      <trkpt lat="44.39676" lon="5.47379">
        <ele>755</ele>
        <time>2023-07-24T05:55:55Z</time>
      </trkpt>
      <trkpt lat="44.39676" lon="5.47385">
        <ele>755.5</ele>
        <time>2023-07-24T05:55:56Z</time>
      </trkpt>
      <trkpt lat="44.39676" lon="5.47387">
        <ele>755.7</ele>
        <time>2023-07-24T05:55:57Z</time>
      </trkpt>
      <trkpt lat="44.39676" lon="5.47392">
        <ele>756.1</ele>
        <time>2023-07-24T05:55:58Z</time>
      </trkpt>
      <trkpt lat="44.39676" lon="5.47393">
        <ele>756.3</ele>
        <time>2023-07-24T05:55:59Z</time>
      </trkpt>
      <trkpt lat="44.39675" lon="5.47398">
        <ele>756.7</ele>
        <time>2023-07-24T05:56:00Z</time>
      </trkpt>
      <trkpt lat="44.39675" lon="5.474">
        <ele>756.8</ele>
        <time>2023-07-24T05:56:01Z</time>
      </trkpt>
      <trkpt lat="44.39676" lon="5.47405">
        <ele>757.2</ele>
        <time>2023-07-24T05:56:02Z</time>
      </trkpt>
      <trkpt lat="44.39676" lon="5.47406">
        <ele>757.4</ele>
        <time>2023-07-24T05:56:03Z</time>
      </trkpt>
      <trkpt lat="44.39677" lon="5.47411">
        <ele>757.8</ele>
        <time>2023-07-24T05:56:04Z</time>
      </trkpt>
      <trkpt lat="44.39677" lon="5.47412">
        <ele>757.9</ele>
        <time>2023-07-24T05:56:05Z</time>
      </trkpt>
      <trkpt lat="44.39679" lon="5.47417">
        <ele>758.3</ele>
        <time>2023-07-24T05:56:06Z</time>
      </trkpt>
      <trkpt lat="44.39679" lon="5.47418">
        <ele>758.5</ele>
        <time>2023-07-24T05:56:07Z</time>
      </trkpt>
      <trkpt lat="44.39681" lon="5.47422">
        <ele>759</ele>
        <time>2023-07-24T05:56:08Z</time>
      </trkpt>
      <trkpt lat="44.39682" lon="5.47424">
        <ele>759.1</ele>
        <time>2023-07-24T05:56:09Z</time>
      </trkpt>
      <trkpt lat="44.39683" lon="5.47427">
        <ele>759.5</ele>
        <time>2023-07-24T05:56:10Z</time>
      </trkpt>
      <trkpt lat="44.39686" lon="5.4743">
        <ele>760</ele>
        <time>2023-07-24T05:56:11Z</time>
      </trkpt>
      <trkpt lat="44.39688" lon="5.47431">
        <ele>760.2</ele>
        <time>2023-07-24T05:56:12Z</time>
      </trkpt>
      <trkpt lat="44.39691" lon="5.47433">
        <ele>760.6</ele>
        <time>2023-07-24T05:56:13Z</time>
      </trkpt>
      <trkpt lat="44.39692" lon="5.47433">
        <ele>760.7</ele>
        <time>2023-07-24T05:56:14Z</time>
      </trkpt>
      <trkpt lat="44.39695" lon="5.47435">
        <ele>761.2</ele>
        <time>2023-07-24T05:56:15Z</time>
      </trkpt>
      <trkpt lat="44.39696" lon="5.47435">
        <ele>761.3</ele>
        <time>2023-07-24T05:56:16Z</time>
      </trkpt>
      <trkpt lat="44.39699" lon="5.47436">
        <ele>761.7</ele>
        <time>2023-07-24T05:56:17Z</time>
      </trkpt>
      <trkpt lat="44.397" lon="5.47437">
        <ele>761.8</ele>
        <time>2023-07-24T05:56:18Z</time>
      </trkpt>
      <trkpt lat="44.39703" lon="5.47438">
        <ele>762.1</ele>
        <time>2023-07-24T05:56:19Z</time>
      </trkpt>
      <trkpt lat="44.39704" lon="5.47438">
        <ele>762.2</ele>
        <time>2023-07-24T05:56:20Z</time>
      </trkpt>
      <trkpt lat="44.39707" lon="5.4744">
        <ele>762.5</ele>
        <time>2023-07-24T05:56:21Z</time>
      </trkpt>
      <trkpt lat="44.39707" lon="5.47441">
        <ele>762.6</ele>
        <time>2023-07-24T05:56:22Z</time>
      </trkpt>
      <trkpt lat="44.3971" lon="5.47443">
        <ele>762.9</ele>
        <time>2023-07-24T05:56:23Z</time>
      </trkpt>
      <trkpt lat="44.39711" lon="5.47443">
        <ele>763</ele>
        <time>2023-07-24T05:56:24Z</time>
      </trkpt>
      <trkpt lat="44.39714" lon="5.47446">
        <ele>763.3</ele>
        <time>2023-07-24T05:56:25Z</time>
      </trkpt>
      <trkpt lat="44.39715" lon="5.47446">
        <ele>763.4</ele>
        <time>2023-07-24T05:56:26Z</time>
      </trkpt>
      <trkpt lat="44.39718" lon="5.47449">
        <ele>763.8</ele>
        <time>2023-07-24T05:56:27Z</time>
      </trkpt>
      <trkpt lat="44.39719" lon="5.4745">
        <ele>763.9</ele>
        <time>2023-07-24T05:56:28Z</time>
      </trkpt>
      <trkpt lat="44.39722" lon="5.47453">
        <ele>764.2</ele>
        <time>2023-07-24T05:56:29Z</time>
      </trkpt>
      <trkpt lat="44.39723" lon="5.47454">
        <ele>764.3</ele>
        <time>2023-07-24T05:56:30Z</time>
      </trkpt>
      <trkpt lat="44.39725" lon="5.47457">
        <ele>764.6</ele>
        <time>2023-07-24T05:56:31Z</time>
      </trkpt>
      <trkpt lat="44.39726" lon="5.47458">
        <ele>764.7</ele>
        <time>2023-07-24T05:56:32Z</time>
      </trkpt>
      <trkpt lat="44.39729" lon="5.47461">
        <ele>765.1</ele>
        <time>2023-07-24T05:56:33Z</time>
      </trkpt>
      <trkpt lat="44.3973" lon="5.47462">
        <ele>765.3</ele>
        <time>2023-07-24T05:56:34Z</time>
      </trkpt>
      <trkpt lat="44.39732" lon="5.47466">
        <ele>765.6</ele>
        <time>2023-07-24T05:56:35Z</time>
      </trkpt>
      <trkpt lat="44.39733" lon="5.47467">
        <ele>765.8</ele>
        <time>2023-07-24T05:56:36Z</time>
      </trkpt>
      <trkpt lat="44.39735" lon="5.4747">
        <ele>766.2</ele>
        <time>2023-07-24T05:56:37Z</time>
      </trkpt>
      <trkpt lat="44.39736" lon="5.47472">
        <ele>766.3</ele>
        <time>2023-07-24T05:56:38Z</time>
      </trkpt>
      <trkpt lat="44.39739" lon="5.47475">
        <ele>766.7</ele>
        <time>2023-07-24T05:56:39Z</time>
      </trkpt>
      <trkpt lat="44.39739" lon="5.47476">
        <ele>766.8</ele>
        <time>2023-07-24T05:56:40Z</time>
      </trkpt>
      <trkpt lat="44.39742" lon="5.47478">
        <ele>767.2</ele>
        <time>2023-07-24T05:56:41Z</time>
      </trkpt>
      <trkpt lat="44.39743" lon="5.47479">
        <ele>767.3</ele>
        <time>2023-07-24T05:56:42Z</time>
      </trkpt>
      <trkpt lat="44.39746" lon="5.47481">
        <ele>767.7</ele>
        <time>2023-07-24T05:56:43Z</time>
      </trkpt>
      <trkpt lat="44.39747" lon="5.47481">
        <ele>767.9</ele>
        <time>2023-07-24T05:56:44Z</time>
      </trkpt>
      <trkpt lat="44.3975" lon="5.47482">
        <ele>768.3</ele>
        <time>2023-07-24T05:56:45Z</time>
      </trkpt>
      <trkpt lat="44.39751" lon="5.47482">
        <ele>768.4</ele>
        <time>2023-07-24T05:56:46Z</time>
      </trkpt>
      <trkpt lat="44.39754" lon="5.4748">
        <ele>768.8</ele>
        <time>2023-07-24T05:56:47Z</time>
      </trkpt>
      <trkpt lat="44.39756" lon="5.4748">
        <ele>769</ele>
        <time>2023-07-24T05:56:48Z</time>
      </trkpt>
      <trkpt lat="44.39758" lon="5.47476">
        <ele>769.4</ele>
        <time>2023-07-24T05:56:49Z</time>
      </trkpt>
      <trkpt lat="44.39759" lon="5.47475">
        <ele>769.5</ele>
        <time>2023-07-24T05:56:50Z</time>
      </trkpt>
      <trkpt lat="44.3976" lon="5.4747">
        <ele>769.9</ele>
        <time>2023-07-24T05:56:51Z</time>
      </trkpt>
      <trkpt lat="44.3976" lon="5.47468">
        <ele>770</ele>
        <time>2023-07-24T05:56:52Z</time>
      </trkpt>
      <trkpt lat="44.39759" lon="5.47464">
        <ele>770.4</ele>
        <time>2023-07-24T05:56:53Z</time>
      </trkpt>
      <trkpt lat="44.39758" lon="5.47462">
        <ele>770.6</ele>
        <time>2023-07-24T05:56:54Z</time>
      </trkpt>
      <trkpt lat="44.39756" lon="5.47457">
        <ele>771</ele>
        <time>2023-07-24T05:56:55Z</time>
      </trkpt>
      <trkpt lat="44.39755" lon="5.47455">
        <ele>771.2</ele>
        <time>2023-07-24T05:56:56Z</time>
      </trkpt>
      <trkpt lat="44.39753" lon="5.47452">
        <ele>771.5</ele>
        <time>2023-07-24T05:56:57Z</time>
      </trkpt>
      <trkpt lat="44.39751" lon="5.4745">
        <ele>771.8</ele>
        <time>2023-07-24T05:56:58Z</time>
      </trkpt>
      <trkpt lat="44.39748" lon="5.47446">
        <ele>772.2</ele>
        <time>2023-07-24T05:56:59Z</time>
      </trkpt>
      <trkpt lat="44.39748" lon="5.47445">
        <ele>772.3</ele>
        <time>2023-07-24T05:57:00Z</time>
      </trkpt>
      <trkpt lat="44.39745" lon="5.47441">
        <ele>772.7</ele>
        <time>2023-07-24T05:57:01Z</time>
      </trkpt>
      <trkpt lat="44.39744" lon="5.4744">
        <ele>772.9</ele>
        <time>2023-07-24T05:57:02Z</time>
      </trkpt>
      <trkpt lat="44.39741" lon="5.47436">
        <ele>773.3</ele>
        <time>2023-07-24T05:57:03Z</time>
      </trkpt>
      <trkpt lat="44.39741" lon="5.47434">
        <ele>773.5</ele>
        <time>2023-07-24T05:57:04Z</time>
      </trkpt>
      <trkpt lat="44.39739" lon="5.4743">
        <ele>773.8</ele>
        <time>2023-07-24T05:57:05Z</time>
      </trkpt>
      <trkpt lat="44.39738" lon="5.47426">
        <ele>774.1</ele>
        <time>2023-07-24T05:57:06Z</time>
      </trkpt>
      <trkpt lat="44.39738" lon="5.47421">
        <ele>774.5</ele>
        <time>2023-07-24T05:57:07Z</time>
      </trkpt>
      <trkpt lat="44.39738" lon="5.4742">
        <ele>774.6</ele>
        <time>2023-07-24T05:57:08Z</time>
      </trkpt>
      <trkpt lat="44.39738" lon="5.47415">
        <ele>775</ele>
        <time>2023-07-24T05:57:09Z</time>
      </trkpt>
      <trkpt lat="44.39739" lon="5.47414">
        <ele>775.1</ele>
        <time>2023-07-24T05:57:10Z</time>
      </trkpt>
      <trkpt lat="44.3974" lon="5.47409">
        <ele>775.4</ele>
        <time>2023-07-24T05:57:11Z</time>
      </trkpt>
      <trkpt lat="44.3974" lon="5.47408">
        <ele>775.6</ele>
        <time>2023-07-24T05:57:12Z</time>
      </trkpt>
      <trkpt lat="44.39741" lon="5.47403">
        <ele>775.9</ele>
        <time>2023-07-24T05:57:13Z</time>
      </trkpt>
      <trkpt lat="44.39742" lon="5.47402">
        <ele>776</ele>
        <time>2023-07-24T05:57:14Z</time>
      </trkpt>
      <trkpt lat="44.39744" lon="5.47398">
        <ele>776.4</ele>
        <time>2023-07-24T05:57:15Z</time>
      </trkpt>
      <trkpt lat="44.39745" lon="5.47397">
        <ele>776.5</ele>
        <time>2023-07-24T05:57:16Z</time>
      </trkpt>
      <trkpt lat="44.39748" lon="5.47394">
        <ele>776.9</ele>
        <time>2023-07-24T05:57:17Z</time>
      </trkpt>
      <trkpt lat="44.39749" lon="5.47393">
        <ele>777</ele>
        <time>2023-07-24T05:57:18Z</time>
      </trkpt>
      <trkpt lat="44.39752" lon="5.47391">
        <ele>777.4</ele>
        <time>2023-07-24T05:57:19Z</time>
      </trkpt>
      <trkpt lat="44.39754" lon="5.4739">
        <ele>777.5</ele>
        <time>2023-07-24T05:57:20Z</time>
      </trkpt>
      <trkpt lat="44.39756" lon="5.47389">
        <ele>777.8</ele>
        <time>2023-07-24T05:57:21Z</time>
      </trkpt>
      <trkpt lat="44.3976" lon="5.47388">
        <ele>778.2</ele>
        <time>2023-07-24T05:57:22Z</time>
      </trkpt>
      <trkpt lat="44.39761" lon="5.47387">
        <ele>778.3</ele>
        <time>2023-07-24T05:57:23Z</time>
      </trkpt>
      <trkpt lat="44.39764" lon="5.47387">
        <ele>778.7</ele>
        <time>2023-07-24T05:57:24Z</time>
      </trkpt>
      <trkpt lat="44.39766" lon="5.47386">
        <ele>778.8</ele>
        <time>2023-07-24T05:57:25Z</time>
      </trkpt>
      <trkpt lat="44.39769" lon="5.47386">
        <ele>779.2</ele>
        <time>2023-07-24T05:57:26Z</time>
      </trkpt>
      <trkpt lat="44.39771" lon="5.47385">
        <ele>779.3</ele>
        <time>2023-07-24T05:57:27Z</time>
      </trkpt>
      <trkpt lat="44.39775" lon="5.47385">
        <ele>779.7</ele>
        <time>2023-07-24T05:57:28Z</time>
      </trkpt>
      <trkpt lat="44.39776" lon="5.47384">
        <ele>779.9</ele>
        <time>2023-07-24T05:57:29Z</time>
      </trkpt>
      <trkpt lat="44.39779" lon="5.47384">
        <ele>780.2</ele>
        <time>2023-07-24T05:57:30Z</time>
      </trkpt>
      <trkpt lat="44.39781" lon="5.47384">
        <ele>780.3</ele>
        <time>2023-07-24T05:57:31Z</time>
      </trkpt>
      <trkpt lat="44.39784" lon="5.47384">
        <ele>780.7</ele>
        <time>2023-07-24T05:57:32Z</time>
      </trkpt>
      <trkpt lat="44.39785" lon="5.47384">
        <ele>780.8</ele>
        <time>2023-07-24T05:57:33Z</time>
      </trkpt>
      <trkpt lat="44.39789" lon="5.47383">
        <ele>781.2</ele>
        <time>2023-07-24T05:57:34Z</time>
      </trkpt>
      <trkpt lat="44.3979" lon="5.47383">
        <ele>781.4</ele>
        <time>2023-07-24T05:57:35Z</time>
      </trkpt>
      <trkpt lat="44.39794" lon="5.47383">
        <ele>781.8</ele>
        <time>2023-07-24T05:57:36Z</time>
      </trkpt>
      <trkpt lat="44.39795" lon="5.47383">
        <ele>782</ele>
        <time>2023-07-24T05:57:37Z</time>
      </trkpt>
      <trkpt lat="44.39799" lon="5.47382">
        <ele>782.4</ele>
        <time>2023-07-24T05:57:38Z</time>
      </trkpt>
      <trkpt lat="44.398" lon="5.47382">
        <ele>782.6</ele>
        <time>2023-07-24T05:57:39Z</time>
      </trkpt>
      <trkpt lat="44.39804" lon="5.4738">
        <ele>783.1</ele>
        <time>2023-07-24T05:57:40Z</time>
      </trkpt>
      <trkpt lat="44.39805" lon="5.47379">
        <ele>783.2</ele>
        <time>2023-07-24T05:57:41Z</time>
      </trkpt>
      <trkpt lat="44.39809" lon="5.47378">
        <ele>783.7</ele>
        <time>2023-07-24T05:57:42Z</time>
      </trkpt>
      <trkpt lat="44.39811" lon="5.47377">
        <ele>783.8</ele>
        <time>2023-07-24T05:57:43Z</time>
      </trkpt>
      <trkpt lat="44.39814" lon="5.47377">
        <ele>784.3</ele>
        <time>2023-07-24T05:57:44Z</time>
      </trkpt>
      <trkpt lat="44.39816" lon="5.47377">
        <ele>784.4</ele>
        <time>2023-07-24T05:57:45Z</time>
      </trkpt>
      <trkpt lat="44.39819" lon="5.47376">
        <ele>784.8</ele>
        <time>2023-07-24T05:57:46Z</time>
      </trkpt>
      <trkpt lat="44.39821" lon="5.47375">
        <ele>784.9</ele>
        <time>2023-07-24T05:57:47Z</time>
      </trkpt>
      <trkpt lat="44.39824" lon="5.47376">
        <ele>785.3</ele>
        <time>2023-07-24T05:57:48Z</time>
      </trkpt>
      <trkpt lat="44.39825" lon="5.47376">
        <ele>785.5</ele>
        <time>2023-07-24T05:57:49Z</time>
      </trkpt>
      <trkpt lat="44.39829" lon="5.47377">
        <ele>785.8</ele>
        <time>2023-07-24T05:57:50Z</time>
      </trkpt>
      <trkpt lat="44.3983" lon="5.47377">
        <ele>785.9</ele>
        <time>2023-07-24T05:57:51Z</time>
      </trkpt>
      <trkpt lat="44.39833" lon="5.47379">
        <ele>786.3</ele>
        <time>2023-07-24T05:57:52Z</time>
      </trkpt>
      <trkpt lat="44.39834" lon="5.4738">
        <ele>786.4</ele>
        <time>2023-07-24T05:57:53Z</time>
      </trkpt>
      <trkpt lat="44.39837" lon="5.47383">
        <ele>786.8</ele>
        <time>2023-07-24T05:57:54Z</time>
      </trkpt>
      <trkpt lat="44.39838" lon="5.47385">
        <ele>786.9</ele>
        <time>2023-07-24T05:57:55Z</time>
      </trkpt>
      <trkpt lat="44.39841" lon="5.47388">
        <ele>787.3</ele>
        <time>2023-07-24T05:57:56Z</time>
      </trkpt>
      <trkpt lat="44.39842" lon="5.47389">
        <ele>787.4</ele>
        <time>2023-07-24T05:57:57Z</time>
      </trkpt>
      <trkpt lat="44.39844" lon="5.47393">
        <ele>787.7</ele>
        <time>2023-07-24T05:57:58Z</time>
      </trkpt>
      <trkpt lat="44.39845" lon="5.47394">
        <ele>787.8</ele>
        <time>2023-07-24T05:57:59Z</time>
      </trkpt>
      <trkpt lat="44.39847" lon="5.47398">
        <ele>788</ele>
        <time>2023-07-24T05:58:00Z</time>
      </trkpt>
      <trkpt lat="44.39848" lon="5.474">
        <ele>788.1</ele>
        <time>2023-07-24T05:58:01Z</time>
      </trkpt>
      <trkpt lat="44.3985" lon="5.47404">
        <ele>788.3</ele>
        <time>2023-07-24T05:58:02Z</time>
      </trkpt>
      <trkpt lat="44.3985" lon="5.47405">
        <ele>788.3</ele>
        <time>2023-07-24T05:58:03Z</time>
      </trkpt>
      <trkpt lat="44.39852" lon="5.47409">
        <ele>788.5</ele>
        <time>2023-07-24T05:58:04Z</time>
      </trkpt>
      <trkpt lat="44.39853" lon="5.47411">
        <ele>788.6</ele>
        <time>2023-07-24T05:58:05Z</time>
      </trkpt>
      <trkpt lat="44.39855" lon="5.47415">
        <ele>788.8</ele>
        <time>2023-07-24T05:58:06Z</time>
      </trkpt>
      <trkpt lat="44.39856" lon="5.47417">
        <ele>788.9</ele>
        <time>2023-07-24T05:58:07Z</time>
      </trkpt>
      <trkpt lat="44.39857" lon="5.47422">
        <ele>789.1</ele>
        <time>2023-07-24T05:58:08Z</time>
      </trkpt>
      <trkpt lat="44.39857" lon="5.47424">
        <ele>789.2</ele>
        <time>2023-07-24T05:58:09Z</time>
      </trkpt>
      <trkpt lat="44.39858" lon="5.47429">
        <ele>789.5</ele>
        <time>2023-07-24T05:58:10Z</time>
      </trkpt>
      <trkpt lat="44.39859" lon="5.47431">
        <ele>789.6</ele>
        <time>2023-07-24T05:58:11Z</time>
      </trkpt>
      <trkpt lat="44.39859" lon="5.47436">
        <ele>789.8</ele>
        <time>2023-07-24T05:58:12Z</time>
      </trkpt>
      <trkpt lat="44.39859" lon="5.47437">
        <ele>789.9</ele>
        <time>2023-07-24T05:58:13Z</time>
      </trkpt>
      <trkpt lat="44.39859" lon="5.47442">
        <ele>790.1</ele>
        <time>2023-07-24T05:58:14Z</time>
      </trkpt>
      <trkpt lat="44.39859" lon="5.47444">
        <ele>790.2</ele>
        <time>2023-07-24T05:58:15Z</time>
      </trkpt>
      <trkpt lat="44.39858" lon="5.47448">
        <ele>790.4</ele>
        <time>2023-07-24T05:58:16Z</time>
      </trkpt>
      <trkpt lat="44.39857" lon="5.47451">
        <ele>790.6</ele>
        <time>2023-07-24T05:58:17Z</time>
      </trkpt>
      <trkpt lat="44.39857" lon="5.47456">
        <ele>790.9</ele>
        <time>2023-07-24T05:58:18Z</time>
      </trkpt>
      <trkpt lat="44.39857" lon="5.47458">
        <ele>791</ele>
        <time>2023-07-24T05:58:19Z</time>
      </trkpt>
      <trkpt lat="44.39857" lon="5.47462">
        <ele>791.2</ele>
        <time>2023-07-24T05:58:20Z</time>
      </trkpt>
      <trkpt lat="44.39857" lon="5.47464">
        <ele>791.3</ele>
        <time>2023-07-24T05:58:21Z</time>
      </trkpt>
      <trkpt lat="44.39857" lon="5.47468">
        <ele>791.5</ele>
        <time>2023-07-24T05:58:22Z</time>
      </trkpt>
      <trkpt lat="44.39858" lon="5.47473">
        <ele>791.7</ele>
        <time>2023-07-24T05:58:23Z</time>
      </trkpt>
      <trkpt lat="44.39858" lon="5.47474">
        <ele>791.8</ele>
        <time>2023-07-24T05:58:24Z</time>
      </trkpt>
      <trkpt lat="44.3986" lon="5.47479">
        <ele>792.1</ele>
        <time>2023-07-24T05:58:25Z</time>
      </trkpt>
      <trkpt lat="44.39861" lon="5.47481">
        <ele>792.2</ele>
        <time>2023-07-24T05:58:26Z</time>
      </trkpt>
      <trkpt lat="44.39863" lon="5.47484">
        <ele>792.4</ele>
        <time>2023-07-24T05:58:27Z</time>
      </trkpt>
      <trkpt lat="44.39864" lon="5.47485">
        <ele>792.5</ele>
        <time>2023-07-24T05:58:28Z</time>
      </trkpt>
      <trkpt lat="44.39867" lon="5.47488">
        <ele>792.7</ele>
        <time>2023-07-24T05:58:29Z</time>
      </trkpt>
      <trkpt lat="44.39868" lon="5.47488">
        <ele>792.8</ele>
        <time>2023-07-24T05:58:30Z</time>
      </trkpt>
      <trkpt lat="44.39871" lon="5.4749">
        <ele>793</ele>
        <time>2023-07-24T05:58:31Z</time>
      </trkpt>
      <trkpt lat="44.39872" lon="5.4749">
        <ele>793.1</ele>
        <time>2023-07-24T05:58:32Z</time>
      </trkpt>
      <trkpt lat="44.39876" lon="5.47491">
        <ele>793.4</ele>
        <time>2023-07-24T05:58:33Z</time>
      </trkpt>
      <trkpt lat="44.39878" lon="5.47491">
        <ele>793.4</ele>
        <time>2023-07-24T05:58:34Z</time>
      </trkpt>
      <trkpt lat="44.39881" lon="5.47491">
        <ele>793.7</ele>
        <time>2023-07-24T05:58:35Z</time>
      </trkpt>
      <trkpt lat="44.39882" lon="5.47491">
        <ele>793.7</ele>
        <time>2023-07-24T05:58:36Z</time>
      </trkpt>
      <trkpt lat="44.39886" lon="5.47491">
        <ele>794</ele>
        <time>2023-07-24T05:58:37Z</time>
      </trkpt>
      <trkpt lat="44.39887" lon="5.47492">
        <ele>794.1</ele>
        <time>2023-07-24T05:58:38Z</time>
      </trkpt>
      <trkpt lat="44.39891" lon="5.47494">
        <ele>794.3</ele>
        <time>2023-07-24T05:58:39Z</time>
      </trkpt>
      <trkpt lat="44.39892" lon="5.47494">
        <ele>794.4</ele>
        <time>2023-07-24T05:58:40Z</time>
      </trkpt>
      <trkpt lat="44.39895" lon="5.47497">
        <ele>794.7</ele>
        <time>2023-07-24T05:58:41Z</time>
      </trkpt>
      <trkpt lat="44.39896" lon="5.47497">
        <ele>794.8</ele>
        <time>2023-07-24T05:58:42Z</time>
      </trkpt>
      <trkpt lat="44.39899" lon="5.475">
        <ele>795.1</ele>
        <time>2023-07-24T05:58:43Z</time>
      </trkpt>
      <trkpt lat="44.39901" lon="5.475">
        <ele>795.2</ele>
        <time>2023-07-24T05:58:44Z</time>
      </trkpt>
      <trkpt lat="44.39904" lon="5.47503">
        <ele>795.4</ele>
        <time>2023-07-24T05:58:45Z</time>
      </trkpt>
      <trkpt lat="44.39905" lon="5.47504">
        <ele>795.5</ele>
        <time>2023-07-24T05:58:46Z</time>
      </trkpt>
      <trkpt lat="44.39908" lon="5.47508">
        <ele>795.8</ele>
        <time>2023-07-24T05:58:47Z</time>
      </trkpt>
      <trkpt lat="44.39909" lon="5.47509">
        <ele>795.9</ele>
        <time>2023-07-24T05:58:48Z</time>
      </trkpt>
      <trkpt lat="44.39911" lon="5.47513">
        <ele>796.2</ele>
        <time>2023-07-24T05:58:49Z</time>
      </trkpt>
      <trkpt lat="44.39912" lon="5.47514">
        <ele>796.3</ele>
        <time>2023-07-24T05:58:50Z</time>
      </trkpt>
      <trkpt lat="44.39915" lon="5.47517">
        <ele>796.6</ele>
        <time>2023-07-24T05:58:51Z</time>
      </trkpt>
      <trkpt lat="44.39915" lon="5.47518">
        <ele>796.6</ele>
        <time>2023-07-24T05:58:52Z</time>
      </trkpt>
      <trkpt lat="44.39919" lon="5.4752">
        <ele>796.9</ele>
        <time>2023-07-24T05:58:53Z</time>
      </trkpt>
      <trkpt lat="44.3992" lon="5.47521">
        <ele>797</ele>
        <time>2023-07-24T05:58:54Z</time>
      </trkpt>
      <trkpt lat="44.39923" lon="5.47523">
        <ele>797.3</ele>
        <time>2023-07-24T05:58:55Z</time>
      </trkpt>
      <trkpt lat="44.39924" lon="5.47524">
        <ele>797.4</ele>
        <time>2023-07-24T05:58:56Z</time>
      </trkpt>
      <trkpt lat="44.39928" lon="5.47525">
        <ele>797.7</ele>
        <time>2023-07-24T05:58:57Z</time>
      </trkpt>
      <trkpt lat="44.39929" lon="5.47525">
        <ele>797.8</ele>
        <time>2023-07-24T05:58:58Z</time>
      </trkpt>
      <trkpt lat="44.39932" lon="5.47526">
        <ele>798</ele>
        <time>2023-07-24T05:58:59Z</time>
      </trkpt>
      <trkpt lat="44.39933" lon="5.47527">
        <ele>798.1</ele>
        <time>2023-07-24T05:59:00Z</time>
      </trkpt>
      <trkpt lat="44.39936" lon="5.47529">
        <ele>798.3</ele>
        <time>2023-07-24T05:59:01Z</time>
      </trkpt>
      <trkpt lat="44.39938" lon="5.47529">
        <ele>798.4</ele>
        <time>2023-07-24T05:59:02Z</time>
      </trkpt>
      <trkpt lat="44.39941" lon="5.47529">
        <ele>798.6</ele>
        <time>2023-07-24T05:59:03Z</time>
      </trkpt>
      <trkpt lat="44.39943" lon="5.47528">
        <ele>798.7</ele>
        <time>2023-07-24T05:59:04Z</time>
      </trkpt>
      <trkpt lat="44.39946" lon="5.47526">
        <ele>798.9</ele>
        <time>2023-07-24T05:59:05Z</time>
      </trkpt>
      <trkpt lat="44.39947" lon="5.47525">
        <ele>799</ele>
        <time>2023-07-24T05:59:06Z</time>
      </trkpt>
      <trkpt lat="44.39949" lon="5.47521">
        <ele>799.2</ele>
        <time>2023-07-24T05:59:07Z</time>
      </trkpt>
      <trkpt lat="44.39949" lon="5.47519">
        <ele>799.3</ele>
        <time>2023-07-24T05:59:08Z</time>
      </trkpt>
      <trkpt lat="44.3995" lon="5.47515">
        <ele>799.5</ele>
        <time>2023-07-24T05:59:09Z</time>
      </trkpt>
      <trkpt lat="44.39949" lon="5.4751">
        <ele>799.7</ele>
        <time>2023-07-24T05:59:10Z</time>
      </trkpt>
      <trkpt lat="44.39949" lon="5.47508">
        <ele>799.8</ele>
        <time>2023-07-24T05:59:11Z</time>
      </trkpt>
      <trkpt lat="44.39948" lon="5.47503">
        <ele>800.1</ele>
        <time>2023-07-24T05:59:12Z</time>
      </trkpt>
      <trkpt lat="44.39947" lon="5.47501">
        <ele>800.2</ele>
        <time>2023-07-24T05:59:13Z</time>
      </trkpt>
      <trkpt lat="44.39944" lon="5.47498">
        <ele>800.5</ele>
        <time>2023-07-24T05:59:14Z</time>
      </trkpt>
      <trkpt lat="44.39943" lon="5.47497">
        <ele>800.5</ele>
        <time>2023-07-24T05:59:15Z</time>
      </trkpt>
      <trkpt lat="44.3994" lon="5.47494">
        <ele>800.8</ele>
        <time>2023-07-24T05:59:16Z</time>
      </trkpt>
      <trkpt lat="44.39938" lon="5.47493">
        <ele>800.9</ele>
        <time>2023-07-24T05:59:17Z</time>
      </trkpt>
      <trkpt lat="44.39935" lon="5.4749">
        <ele>801.2</ele>
        <time>2023-07-24T05:59:18Z</time>
      </trkpt>
      <trkpt lat="44.39934" lon="5.4749">
        <ele>801.3</ele>
        <time>2023-07-24T05:59:19Z</time>
      </trkpt>
      <trkpt lat="44.3993" lon="5.47487">
        <ele>801.6</ele>
        <time>2023-07-24T05:59:20Z</time>
      </trkpt>
      <trkpt lat="44.39929" lon="5.47486">
        <ele>801.7</ele>
        <time>2023-07-24T05:59:21Z</time>
      </trkpt>
      <trkpt lat="44.39926" lon="5.47483">
        <ele>802</ele>
        <time>2023-07-24T05:59:22Z</time>
      </trkpt>
      <trkpt lat="44.39925" lon="5.47482">
        <ele>802</ele>
        <time>2023-07-24T05:59:23Z</time>
      </trkpt>
      <trkpt lat="44.39922" lon="5.4748">
        <ele>802.3</ele>
        <time>2023-07-24T05:59:24Z</time>
      </trkpt>
      <trkpt lat="44.39921" lon="5.47479">
        <ele>802.4</ele>
        <time>2023-07-24T05:59:25Z</time>
      </trkpt>
      <trkpt lat="44.39918" lon="5.47477">
        <ele>802.7</ele>
        <time>2023-07-24T05:59:26Z</time>
      </trkpt>
      <trkpt lat="44.39917" lon="5.47476">
        <ele>802.7</ele>
        <time>2023-07-24T05:59:27Z</time>
      </trkpt>
      <trkpt lat="44.39913" lon="5.47474">
        <ele>803</ele>
        <time>2023-07-24T05:59:28Z</time>
      </trkpt>
      <trkpt lat="44.39912" lon="5.47473">
        <ele>803.1</ele>
        <time>2023-07-24T05:59:29Z</time>
      </trkpt>
      <trkpt lat="44.3991" lon="5.4747">
        <ele>803.3</ele>
        <time>2023-07-24T05:59:30Z</time>
      </trkpt>
      <trkpt lat="44.39908" lon="5.47467">
        <ele>803.5</ele>
        <time>2023-07-24T05:59:31Z</time>
      </trkpt>
      <trkpt lat="44.39907" lon="5.47462">
        <ele>803.8</ele>
        <time>2023-07-24T05:59:32Z</time>
      </trkpt>
      <trkpt lat="44.39906" lon="5.4746">
        <ele>803.9</ele>
        <time>2023-07-24T05:59:33Z</time>
      </trkpt>
      <trkpt lat="44.39906" lon="5.47455">
        <ele>804.1</ele>
        <time>2023-07-24T05:59:34Z</time>
      </trkpt>
      <trkpt lat="44.39906" lon="5.47453">
        <ele>804.2</ele>
        <time>2023-07-24T05:59:35Z</time>
      </trkpt>
      <trkpt lat="44.39907" lon="5.47448">
        <ele>804.5</ele>
        <time>2023-07-24T05:59:36Z</time>
      </trkpt>
      <trkpt lat="44.39908" lon="5.47446">
        <ele>804.6</ele>
        <time>2023-07-24T05:59:37Z</time>
      </trkpt>
      <trkpt lat="44.3991" lon="5.47442">
        <ele>804.8</ele>
        <time>2023-07-24T05:59:38Z</time>
      </trkpt>
      <trkpt lat="44.3991" lon="5.4744">
        <ele>804.9</ele>
        <time>2023-07-24T05:59:39Z</time>
      </trkpt>
      <trkpt lat="44.39912" lon="5.47436">
        <ele>805.2</ele>
        <time>2023-07-24T05:59:40Z</time>
      </trkpt>
      <trkpt lat="44.39913" lon="5.47435">
        <ele>805.3</ele>
        <time>2023-07-24T05:59:41Z</time>
      </trkpt>
      <trkpt lat="44.39915" lon="5.47431">
        <ele>805.5</ele>
        <time>2023-07-24T05:59:42Z</time>
      </trkpt>
      <trkpt lat="44.39916" lon="5.4743">
        <ele>805.6</ele>
        <time>2023-07-24T05:59:43Z</time>
      </trkpt>
      <trkpt lat="44.39918" lon="5.47426">
        <ele>805.8</ele>
        <time>2023-07-24T05:59:44Z</time>
      </trkpt>
      <trkpt lat="44.39919" lon="5.47425">
        <ele>805.9</ele>
        <time>2023-07-24T05:59:45Z</time>
      </trkpt>
      <trkpt lat="44.39921" lon="5.47422">
        <ele>806.2</ele>
        <time>2023-07-24T05:59:46Z</time>
      </trkpt>
      <trkpt lat="44.39922" lon="5.4742">
        <ele>806.3</ele>
        <time>2023-07-24T05:59:47Z</time>
      </trkpt>
      <trkpt lat="44.39924" lon="5.47416">
        <ele>806.5</ele>
        <time>2023-07-24T05:59:48Z</time>
      </trkpt>
      <trkpt lat="44.39924" lon="5.47415">
        <ele>806.6</ele>
        <time>2023-07-24T05:59:49Z</time>
      </trkpt>
      <trkpt lat="44.39926" lon="5.47411">
        <ele>806.9</ele>
        <time>2023-07-24T05:59:50Z</time>
      </trkpt>
      <trkpt lat="44.39926" lon="5.47409">
        <ele>807</ele>
        <time>2023-07-24T05:59:51Z</time>
      </trkpt>
      <trkpt lat="44.39928" lon="5.47405">
        <ele>807.3</ele>
        <time>2023-07-24T05:59:52Z</time>
      </trkpt>
      <trkpt lat="44.39929" lon="5.47404">
        <ele>807.3</ele>
        <time>2023-07-24T05:59:53Z</time>
      </trkpt>
      <trkpt lat="44.39931" lon="5.474">
        <ele>807.6</ele>
        <time>2023-07-24T05:59:54Z</time>
      </trkpt>
      <trkpt lat="44.39932" lon="5.47398">
        <ele>807.7</ele>
        <time>2023-07-24T05:59:55Z</time>
      </trkpt>
      <trkpt lat="44.39934" lon="5.47395">
        <ele>808</ele>
        <time>2023-07-24T05:59:56Z</time>
      </trkpt>
      <trkpt lat="44.39934" lon="5.47393">
        <ele>808.1</ele>
        <time>2023-07-24T05:59:57Z</time>
      </trkpt>
      <trkpt lat="44.39937" lon="5.4739">
        <ele>808.4</ele>
        <time>2023-07-24T05:59:58Z</time>
      </trkpt>
      <trkpt lat="44.39938" lon="5.47389">
        <ele>808.5</ele>
        <time>2023-07-24T05:59:59Z</time>
      </trkpt>
      <trkpt lat="44.3994" lon="5.47386">
        <ele>808.8</ele>
        <time>2023-07-24T06:00:00Z</time>
      </trkpt>
      <trkpt lat="44.39941" lon="5.47384">
        <ele>808.9</ele>
        <time>2023-07-24T06:00:01Z</time>
      </trkpt>
      <trkpt lat="44.39944" lon="5.47381">
        <ele>809.2</ele>
        <time>2023-07-24T06:00:02Z</time>
      </trkpt>
      <trkpt lat="44.39945" lon="5.4738">
        <ele>809.3</ele>
        <time>2023-07-24T06:00:03Z</time>
      </trkpt>
      <trkpt lat="44.39948" lon="5.47377">
        <ele>809.6</ele>
        <time>2023-07-24T06:00:04Z</time>
      </trkpt>
      <trkpt lat="44.39948" lon="5.47376">
        <ele>809.7</ele>
        <time>2023-07-24T06:00:05Z</time>
      </trkpt>
      <trkpt lat="44.39951" lon="5.47373">
        <ele>810</ele>
        <time>2023-07-24T06:00:06Z</time>
      </trkpt>
      <trkpt lat="44.39952" lon="5.47372">
        <ele>810.1</ele>
        <time>2023-07-24T06:00:07Z</time>
      </trkpt>
      <trkpt lat="44.39955" lon="5.47369">
        <ele>810.3</ele>
        <time>2023-07-24T06:00:08Z</time>
      </trkpt>
      <trkpt lat="44.39956" lon="5.47368">
        <ele>810.4</ele>
        <time>2023-07-24T06:00:09Z</time>
      </trkpt>
      <trkpt lat="44.39958" lon="5.47364">
        <ele>810.7</ele>
        <time>2023-07-24T06:00:10Z</time>
      </trkpt>
      <trkpt lat="44.39959" lon="5.47363">
        <ele>810.8</ele>
        <time>2023-07-24T06:00:11Z</time>
      </trkpt>
      <trkpt lat="44.39961" lon="5.47359">
        <ele>811.1</ele>
        <time>2023-07-24T06:00:12Z</time>
      </trkpt>
      <trkpt lat="44.39962" lon="5.47358">
        <ele>811.2</ele>
        <time>2023-07-24T06:00:13Z</time>
      </trkpt>
      <trkpt lat="44.39965" lon="5.47354">
        <ele>811.5</ele>
        <time>2023-07-24T06:00:14Z</time>
      </trkpt>
      <trkpt lat="44.39966" lon="5.47353">
        <ele>811.6</ele>
        <time>2023-07-24T06:00:15Z</time>
      </trkpt>
      <trkpt lat="44.39969" lon="5.47352">
        <ele>811.8</ele>
        <time>2023-07-24T06:00:16Z</time>
      </trkpt>
      <trkpt lat="44.3997" lon="5.47352">
        <ele>811.9</ele>
        <time>2023-07-24T06:00:17Z</time>
      </trkpt>
      <trkpt lat="44.39973" lon="5.47353">
        <ele>812.1</ele>
        <time>2023-07-24T06:00:18Z</time>
      </trkpt>
      <trkpt lat="44.39974" lon="5.47354">
        <ele>812.2</ele>
        <time>2023-07-24T06:00:19Z</time>
      </trkpt>
      <trkpt lat="44.39977" lon="5.47357">
        <ele>812.5</ele>
        <time>2023-07-24T06:00:20Z</time>
      </trkpt>
      <trkpt lat="44.39978" lon="5.47359">
        <ele>812.5</ele>
        <time>2023-07-24T06:00:21Z</time>
      </trkpt>
      <trkpt lat="44.39979" lon="5.47364">
        <ele>812.7</ele>
        <time>2023-07-24T06:00:22Z</time>
      </trkpt>
      <trkpt lat="44.39979" lon="5.47366">
        <ele>812.8</ele>
        <time>2023-07-24T06:00:23Z</time>
      </trkpt>
      <trkpt lat="44.39978" lon="5.4737">
        <ele>813</ele>
        <time>2023-07-24T06:00:24Z</time>
      </trkpt>
      <trkpt lat="44.39978" lon="5.47372">
        <ele>813</ele>
        <time>2023-07-24T06:00:25Z</time>
      </trkpt>
      <trkpt lat="44.39975" lon="5.47378">
        <ele>813.3</ele>
        <time>2023-07-24T06:00:27Z</time>
      </trkpt>
      <trkpt lat="44.39972" lon="5.47381">
        <ele>813.4</ele>
        <time>2023-07-24T06:00:28Z</time>
      </trkpt>
      <trkpt lat="44.39971" lon="5.47382">
        <ele>813.5</ele>
        <time>2023-07-24T06:00:29Z</time>
      </trkpt>
      <trkpt lat="44.39968" lon="5.47383">
        <ele>813.6</ele>
        <time>2023-07-24T06:00:30Z</time>
      </trkpt>
      <trkpt lat="44.39967" lon="5.47384">
        <ele>813.7</ele>
        <time>2023-07-24T06:00:31Z</time>
      </trkpt>
      <trkpt lat="44.39964" lon="5.47386">
        <ele>813.9</ele>
        <time>2023-07-24T06:00:32Z</time>
      </trkpt>
      <trkpt lat="44.39962" lon="5.47387">
        <ele>813.9</ele>
        <time>2023-07-24T06:00:33Z</time>
      </trkpt>
      <trkpt lat="44.39959" lon="5.47391">
        <ele>814.1</ele>
        <time>2023-07-24T06:00:34Z</time>
      </trkpt>
      <trkpt lat="44.39959" lon="5.47392">
        <ele>814.2</ele>
        <time>2023-07-24T06:00:35Z</time>
      </trkpt>
      <trkpt lat="44.39957" lon="5.47397">
        <ele>814.4</ele>
        <time>2023-07-24T06:00:36Z</time>
      </trkpt>
      <trkpt lat="44.39957" lon="5.47398">
        <ele>814.5</ele>
        <time>2023-07-24T06:00:37Z</time>
      </trkpt>
      <trkpt lat="44.39957" lon="5.47403">
        <ele>814.7</ele>
        <time>2023-07-24T06:00:38Z</time>
      </trkpt>
      <trkpt lat="44.39957" lon="5.47405">
        <ele>814.8</ele>
        <time>2023-07-24T06:00:39Z</time>
      </trkpt>
      <trkpt lat="44.39958" lon="5.4741">
        <ele>815</ele>
        <time>2023-07-24T06:00:40Z</time>
      </trkpt>
      <trkpt lat="44.39959" lon="5.47411">
        <ele>815.1</ele>
        <time>2023-07-24T06:00:41Z</time>
      </trkpt>
      <trkpt lat="44.39961" lon="5.47415">
        <ele>815.3</ele>
        <time>2023-07-24T06:00:42Z</time>
      </trkpt>
      <trkpt lat="44.39962" lon="5.47416">
        <ele>815.4</ele>
        <time>2023-07-24T06:00:43Z</time>
      </trkpt>
      <trkpt lat="44.39965" lon="5.47419">
        <ele>815.7</ele>
        <time>2023-07-24T06:00:44Z</time>
      </trkpt>
      <trkpt lat="44.39966" lon="5.47419">
        <ele>815.8</ele>
        <time>2023-07-24T06:00:45Z</time>
      </trkpt>
      <trkpt lat="44.39969" lon="5.4742">
        <ele>816</ele>
        <time>2023-07-24T06:00:46Z</time>
      </trkpt>
      <trkpt lat="44.3997" lon="5.4742">
        <ele>816.1</ele>
        <time>2023-07-24T06:00:47Z</time>
      </trkpt>
      <trkpt lat="44.39974" lon="5.4742">
        <ele>816.4</ele>
        <time>2023-07-24T06:00:48Z</time>
      </trkpt>
      <trkpt lat="44.39975" lon="5.4742">
        <ele>816.4</ele>
        <time>2023-07-24T06:00:49Z</time>
      </trkpt>
      <trkpt lat="44.39978" lon="5.47419">
        <ele>816.7</ele>
        <time>2023-07-24T06:00:50Z</time>
      </trkpt>
      <trkpt lat="44.39979" lon="5.47418">
        <ele>816.8</ele>
        <time>2023-07-24T06:00:51Z</time>
      </trkpt>
      <trkpt lat="44.39983" lon="5.47417">
        <ele>817.1</ele>
        <time>2023-07-24T06:00:52Z</time>
      </trkpt>
      <trkpt lat="44.39984" lon="5.47417">
        <ele>817.2</ele>
        <time>2023-07-24T06:00:53Z</time>
      </trkpt>
      <trkpt lat="44.39988" lon="5.47415">
        <ele>817.5</ele>
        <time>2023-07-24T06:00:54Z</time>
      </trkpt>
      <trkpt lat="44.39989" lon="5.47415">
        <ele>817.6</ele>
        <time>2023-07-24T06:00:55Z</time>
      </trkpt>
      <trkpt lat="44.39993" lon="5.47414">
        <ele>817.8</ele>
        <time>2023-07-24T06:00:56Z</time>
      </trkpt>
      <trkpt lat="44.39993" lon="5.47413">
        <ele>817.9</ele>
        <time>2023-07-24T06:00:57Z</time>
      </trkpt>
      <trkpt lat="44.39997" lon="5.47411">
        <ele>818.2</ele>
        <time>2023-07-24T06:00:58Z</time>
      </trkpt>
      <trkpt lat="44.39998" lon="5.4741">
        <ele>818.2</ele>
        <time>2023-07-24T06:00:59Z</time>
      </trkpt>
      <trkpt lat="44.40001" lon="5.47409">
        <ele>818.5</ele>
        <time>2023-07-24T06:01:00Z</time>
      </trkpt>
      <trkpt lat="44.40002" lon="5.47408">
        <ele>818.6</ele>
        <time>2023-07-24T06:01:01Z</time>
      </trkpt>
      <trkpt lat="44.40006" lon="5.47408">
        <ele>818.9</ele>
        <time>2023-07-24T06:01:02Z</time>
      </trkpt>
      <trkpt lat="44.40007" lon="5.47407">
        <ele>819</ele>
        <time>2023-07-24T06:01:03Z</time>
      </trkpt>
      <trkpt lat="44.40011" lon="5.47406">
        <ele>819.3</ele>
        <time>2023-07-24T06:01:04Z</time>
      </trkpt>
      <trkpt lat="44.40012" lon="5.47406">
        <ele>819.4</ele>
        <time>2023-07-24T06:01:05Z</time>
      </trkpt>
      <trkpt lat="44.40015" lon="5.47405">
        <ele>819.7</ele>
        <time>2023-07-24T06:01:06Z</time>
      </trkpt>
      <trkpt lat="44.40016" lon="5.47404">
        <ele>819.8</ele>
        <time>2023-07-24T06:01:07Z</time>
      </trkpt>
      <trkpt lat="44.4002" lon="5.47404">
        <ele>820.1</ele>
        <time>2023-07-24T06:01:08Z</time>
      </trkpt>
      <trkpt lat="44.40021" lon="5.47404">
        <ele>820.2</ele>
        <time>2023-07-24T06:01:09Z</time>
      </trkpt>
      <trkpt lat="44.40024" lon="5.47405">
        <ele>820.5</ele>
        <time>2023-07-24T06:01:10Z</time>
      </trkpt>
      <trkpt lat="44.40025" lon="5.47405">
        <ele>820.6</ele>
        <time>2023-07-24T06:01:11Z</time>
      </trkpt>
      <trkpt lat="44.40029" lon="5.47407">
        <ele>820.9</ele>
        <time>2023-07-24T06:01:12Z</time>
      </trkpt>
      <trkpt lat="44.4003" lon="5.47408">
        <ele>821</ele>
        <time>2023-07-24T06:01:13Z</time>
      </trkpt>
      <trkpt lat="44.40034" lon="5.47409">
        <ele>821.3</ele>
        <time>2023-07-24T06:01:14Z</time>
      </trkpt>
      <trkpt lat="44.40035" lon="5.4741">
        <ele>821.4</ele>
        <time>2023-07-24T06:01:15Z</time>
      </trkpt>
      <trkpt lat="44.40038" lon="5.47411">
        <ele>821.7</ele>
        <time>2023-07-24T06:01:16Z</time>
      </trkpt>
      <trkpt lat="44.40039" lon="5.47412">
        <ele>821.8</ele>
        <time>2023-07-24T06:01:17Z</time>
      </trkpt>
      <trkpt lat="44.40043" lon="5.47411">
        <ele>822.1</ele>
        <time>2023-07-24T06:01:18Z</time>
      </trkpt>
      <trkpt lat="44.40044" lon="5.47411">
        <ele>822.2</ele>
        <time>2023-07-24T06:01:19Z</time>
      </trkpt>
      <trkpt lat="44.40047" lon="5.47412">
        <ele>822.4</ele>
        <time>2023-07-24T06:01:20Z</time>
      </trkpt>
      <trkpt lat="44.4005" lon="5.47412">
        <ele>822.6</ele>
        <time>2023-07-24T06:01:21Z</time>
      </trkpt>
      <trkpt lat="44.40053" lon="5.47412">
        <ele>822.8</ele>
        <time>2023-07-24T06:01:22Z</time>
      </trkpt>
      <trkpt lat="44.40056" lon="5.47411">
        <ele>823.1</ele>
        <time>2023-07-24T06:01:23Z</time>
      </trkpt>
      <trkpt lat="44.40058" lon="5.4741">
        <ele>823.2</ele>
        <time>2023-07-24T06:01:24Z</time>
      </trkpt>
      <trkpt lat="44.40061" lon="5.4741">
        <ele>823.5</ele>
        <time>2023-07-24T06:01:25Z</time>
      </trkpt>
      <trkpt lat="44.40062" lon="5.4741">
        <ele>823.5</ele>
        <time>2023-07-24T06:01:26Z</time>
      </trkpt>
      <trkpt lat="44.40066" lon="5.4741">
        <ele>823.8</ele>
        <time>2023-07-24T06:01:27Z</time>
      </trkpt>
      <trkpt lat="44.40067" lon="5.4741">
        <ele>823.9</ele>
        <time>2023-07-24T06:01:28Z</time>
      </trkpt>
      <trkpt lat="44.40071" lon="5.4741">
        <ele>824.1</ele>
        <time>2023-07-24T06:01:29Z</time>
      </trkpt>
      <trkpt lat="44.40072" lon="5.4741">
        <ele>824.2</ele>
        <time>2023-07-24T06:01:30Z</time>
      </trkpt>
      <trkpt lat="44.40076" lon="5.47411">
        <ele>824.5</ele>
        <time>2023-07-24T06:01:31Z</time>
      </trkpt>
      <trkpt lat="44.40077" lon="5.47411">
        <ele>824.5</ele>
        <time>2023-07-24T06:01:32Z</time>
      </trkpt>
      <trkpt lat="44.40081" lon="5.47412">
        <ele>824.8</ele>
        <time>2023-07-24T06:01:33Z</time>
      </trkpt>
      <trkpt lat="44.40082" lon="5.47412">
        <ele>824.8</ele>
        <time>2023-07-24T06:01:34Z</time>
      </trkpt>
      <trkpt lat="44.40085" lon="5.47413">
        <ele>825</ele>
        <time>2023-07-24T06:01:35Z</time>
      </trkpt>
      <trkpt lat="44.40086" lon="5.47414">
        <ele>825.1</ele>
        <time>2023-07-24T06:01:36Z</time>
      </trkpt>
      <trkpt lat="44.40089" lon="5.47415">
        <ele>825.3</ele>
        <time>2023-07-24T06:01:37Z</time>
      </trkpt>
      <trkpt lat="44.4009" lon="5.47416">
        <ele>825.3</ele>
        <time>2023-07-24T06:01:38Z</time>
      </trkpt>
      <trkpt lat="44.40094" lon="5.47417">
        <ele>825.5</ele>
        <time>2023-07-24T06:01:39Z</time>
      </trkpt>
      <trkpt lat="44.40095" lon="5.47418">
        <ele>825.5</ele>
        <time>2023-07-24T06:01:40Z</time>
      </trkpt>
      <trkpt lat="44.40098" lon="5.4742">
        <ele>825.7</ele>
        <time>2023-07-24T06:01:41Z</time>
      </trkpt>
      <trkpt lat="44.40099" lon="5.47421">
        <ele>825.8</ele>
        <time>2023-07-24T06:01:42Z</time>
      </trkpt>
      <trkpt lat="44.40104" lon="5.47424">
        <ele>826</ele>
        <time>2023-07-24T06:01:44Z</time>
      </trkpt>
      <trkpt lat="44.40107" lon="5.47426">
        <ele>826.1</ele>
        <time>2023-07-24T06:01:45Z</time>
      </trkpt>
      <trkpt lat="44.40109" lon="5.47427">
        <ele>826.2</ele>
        <time>2023-07-24T06:01:46Z</time>
      </trkpt>
      <trkpt lat="44.40111" lon="5.47428">
        <ele>826.3</ele>
        <time>2023-07-24T06:01:47Z</time>
      </trkpt>
      <trkpt lat="44.40113" lon="5.47431">
        <ele>826.4</ele>
        <time>2023-07-24T06:01:48Z</time>
      </trkpt>
      <trkpt lat="44.40116" lon="5.47433">
        <ele>826.5</ele>
        <time>2023-07-24T06:01:49Z</time>
      </trkpt>
      <trkpt lat="44.40118" lon="5.47436">
        <ele>826.6</ele>
        <time>2023-07-24T06:01:50Z</time>
      </trkpt>
      <trkpt lat="44.40119" lon="5.47439">
        <ele>826.7</ele>
        <time>2023-07-24T06:01:51Z</time>
      </trkpt>
      <trkpt lat="44.40121" lon="5.47443">
        <ele>826.8</ele>
        <time>2023-07-24T06:01:52Z</time>
      </trkpt>
      <trkpt lat="44.40122" lon="5.47447">
        <ele>826.9</ele>
        <time>2023-07-24T06:01:53Z</time>
      </trkpt>
      <trkpt lat="44.40123" lon="5.47451">
        <ele>827.1</ele>
        <time>2023-07-24T06:01:54Z</time>
      </trkpt>
      <trkpt lat="44.40124" lon="5.47456">
        <ele>827.2</ele>
        <time>2023-07-24T06:01:55Z</time>
      </trkpt>
      <trkpt lat="44.40124" lon="5.4746">
        <ele>827.3</ele>
        <time>2023-07-24T06:01:56Z</time>
      </trkpt>
      <trkpt lat="44.40125" lon="5.47464">
        <ele>827.4</ele>
        <time>2023-07-24T06:01:57Z</time>
      </trkpt>
      <trkpt lat="44.40124" lon="5.47469">
        <ele>827.5</ele>
        <time>2023-07-24T06:01:58Z</time>
      </trkpt>
      <trkpt lat="44.40124" lon="5.47473">
        <ele>827.7</ele>
        <time>2023-07-24T06:01:59Z</time>
      </trkpt>
      <trkpt lat="44.40123" lon="5.47478">
        <ele>827.8</ele>
        <time>2023-07-24T06:02:00Z</time>
      </trkpt>
      <trkpt lat="44.40123" lon="5.47482">
        <ele>828</ele>
        <time>2023-07-24T06:02:01Z</time>
      </trkpt>
      <trkpt lat="44.40122" lon="5.47487">
        <ele>828.1</ele>
        <time>2023-07-24T06:02:02Z</time>
      </trkpt>
      <trkpt lat="44.40121" lon="5.47491">
        <ele>828.3</ele>
        <time>2023-07-24T06:02:03Z</time>
      </trkpt>
      <trkpt lat="44.40121" lon="5.47495">
        <ele>828.5</ele>
        <time>2023-07-24T06:02:04Z</time>
      </trkpt>
      <trkpt lat="44.4012" lon="5.47499">
        <ele>828.7</ele>
        <time>2023-07-24T06:02:05Z</time>
      </trkpt>
      <trkpt lat="44.40119" lon="5.47504">
        <ele>828.9</ele>
        <time>2023-07-24T06:02:06Z</time>
      </trkpt>
      <trkpt lat="44.40119" lon="5.47508">
        <ele>829</ele>
        <time>2023-07-24T06:02:07Z</time>
      </trkpt>
      <trkpt lat="44.40119" lon="5.47512">
        <ele>829.2</ele>
        <time>2023-07-24T06:02:08Z</time>
      </trkpt>
      <trkpt lat="44.40121" lon="5.47516">
        <ele>829.3</ele>
        <time>2023-07-24T06:02:09Z</time>
      </trkpt>
      <trkpt lat="44.40122" lon="5.4752">
        <ele>829.5</ele>
        <time>2023-07-24T06:02:10Z</time>
      </trkpt>
      <trkpt lat="44.40125" lon="5.47523">
        <ele>829.7</ele>
        <time>2023-07-24T06:02:11Z</time>
      </trkpt>
      <trkpt lat="44.40126" lon="5.47525">
        <ele>829.8</ele>
        <time>2023-07-24T06:02:12Z</time>
      </trkpt>
      <trkpt lat="44.40129" lon="5.47527">
        <ele>830</ele>
        <time>2023-07-24T06:02:13Z</time>
      </trkpt>
      <trkpt lat="44.40131" lon="5.47528">
        <ele>830.1</ele>
        <time>2023-07-24T06:02:14Z</time>
      </trkpt>
      <trkpt lat="44.40134" lon="5.47529">
        <ele>830.3</ele>
        <time>2023-07-24T06:02:15Z</time>
      </trkpt>
      <trkpt lat="44.40136" lon="5.47529">
        <ele>830.4</ele>
        <time>2023-07-24T06:02:16Z</time>
      </trkpt>
      <trkpt lat="44.40139" lon="5.47532">
        <ele>830.7</ele>
        <time>2023-07-24T06:02:17Z</time>
      </trkpt>
      <trkpt lat="44.4014" lon="5.47533">
        <ele>830.8</ele>
        <time>2023-07-24T06:02:18Z</time>
      </trkpt>
      <trkpt lat="44.40143" lon="5.47535">
        <ele>831</ele>
        <time>2023-07-24T06:02:19Z</time>
      </trkpt>
      <trkpt lat="44.40145" lon="5.47537">
        <ele>831.2</ele>
        <time>2023-07-24T06:02:20Z</time>
      </trkpt>
      <trkpt lat="44.40147" lon="5.47539">
        <ele>831.4</ele>
        <time>2023-07-24T06:02:21Z</time>
      </trkpt>
      <trkpt lat="44.40151" lon="5.47542">
        <ele>831.6</ele>
        <time>2023-07-24T06:02:22Z</time>
      </trkpt>
      <trkpt lat="44.40152" lon="5.47543">
        <ele>831.7</ele>
        <time>2023-07-24T06:02:23Z</time>
      </trkpt>
      <trkpt lat="44.40154" lon="5.47545">
        <ele>831.9</ele>
        <time>2023-07-24T06:02:24Z</time>
      </trkpt>
      <trkpt lat="44.40157" lon="5.47548">
        <ele>832.2</ele>
        <time>2023-07-24T06:02:25Z</time>
      </trkpt>
      <trkpt lat="44.40158" lon="5.47549">
        <ele>832.3</ele>
        <time>2023-07-24T06:02:26Z</time>
      </trkpt>
      <trkpt lat="44.40162" lon="5.47551">
        <ele>832.5</ele>
        <time>2023-07-24T06:02:27Z</time>
      </trkpt>
      <trkpt lat="44.40163" lon="5.47552">
        <ele>832.6</ele>
        <time>2023-07-24T06:02:28Z</time>
      </trkpt>
      <trkpt lat="44.40166" lon="5.47554">
        <ele>832.9</ele>
        <time>2023-07-24T06:02:29Z</time>
      </trkpt>
      <trkpt lat="44.40167" lon="5.47555">
        <ele>833</ele>
        <time>2023-07-24T06:02:30Z</time>
      </trkpt>
      <trkpt lat="44.4017" lon="5.47557">
        <ele>833.2</ele>
        <time>2023-07-24T06:02:31Z</time>
      </trkpt>
      <trkpt lat="44.40171" lon="5.47558">
        <ele>833.3</ele>
        <time>2023-07-24T06:02:32Z</time>
      </trkpt>
      <trkpt lat="44.40174" lon="5.4756">
        <ele>833.5</ele>
        <time>2023-07-24T06:02:33Z</time>
      </trkpt>
      <trkpt lat="44.40175" lon="5.47561">
        <ele>833.6</ele>
        <time>2023-07-24T06:02:34Z</time>
      </trkpt>
      <trkpt lat="44.40178" lon="5.47563">
        <ele>833.9</ele>
        <time>2023-07-24T06:02:35Z</time>
      </trkpt>
      <trkpt lat="44.40179" lon="5.47564">
        <ele>834</ele>
        <time>2023-07-24T06:02:36Z</time>
      </trkpt>
      <trkpt lat="44.40183" lon="5.47566">
        <ele>834.3</ele>
        <time>2023-07-24T06:02:37Z</time>
      </trkpt>
      <trkpt lat="44.40184" lon="5.47567">
        <ele>834.4</ele>
        <time>2023-07-24T06:02:38Z</time>
      </trkpt>
      <trkpt lat="44.40188" lon="5.47569">
        <ele>834.7</ele>
        <time>2023-07-24T06:02:39Z</time>
      </trkpt>
      <trkpt lat="44.40189" lon="5.47569">
        <ele>834.8</ele>
        <time>2023-07-24T06:02:40Z</time>
      </trkpt>
      <trkpt lat="44.40192" lon="5.47571">
        <ele>835.1</ele>
        <time>2023-07-24T06:02:41Z</time>
      </trkpt>
      <trkpt lat="44.40193" lon="5.47571">
        <ele>835.2</ele>
        <time>2023-07-24T06:02:42Z</time>
      </trkpt>
      <trkpt lat="44.40197" lon="5.47573">
        <ele>835.5</ele>
        <time>2023-07-24T06:02:43Z</time>
      </trkpt>
      <trkpt lat="44.40198" lon="5.47574">
        <ele>835.6</ele>
        <time>2023-07-24T06:02:44Z</time>
      </trkpt>
      <trkpt lat="44.40201" lon="5.47576">
        <ele>835.9</ele>
        <time>2023-07-24T06:02:45Z</time>
      </trkpt>
      <trkpt lat="44.40203" lon="5.47577">
        <ele>835.9</ele>
        <time>2023-07-24T06:02:46Z</time>
      </trkpt>
      <trkpt lat="44.40206" lon="5.47578">
        <ele>836.2</ele>
        <time>2023-07-24T06:02:47Z</time>
      </trkpt>
      <trkpt lat="44.40207" lon="5.47579">
        <ele>836.3</ele>
        <time>2023-07-24T06:02:48Z</time>
      </trkpt>
      <trkpt lat="44.4021" lon="5.47581">
        <ele>836.6</ele>
        <time>2023-07-24T06:02:49Z</time>
      </trkpt>
      <trkpt lat="44.40212" lon="5.47581">
        <ele>836.7</ele>
        <time>2023-07-24T06:02:50Z</time>
      </trkpt>
      <trkpt lat="44.40215" lon="5.47583">
        <ele>837</ele>
        <time>2023-07-24T06:02:51Z</time>
      </trkpt>
      <trkpt lat="44.40217" lon="5.47584">
        <ele>837.1</ele>
        <time>2023-07-24T06:02:52Z</time>
      </trkpt>
      <trkpt lat="44.4022" lon="5.47586">
        <ele>837.4</ele>
        <time>2023-07-24T06:02:53Z</time>
      </trkpt>
      <trkpt lat="44.40221" lon="5.47587">
        <ele>837.5</ele>
        <time>2023-07-24T06:02:54Z</time>
      </trkpt>
      <trkpt lat="44.40224" lon="5.47588">
        <ele>837.7</ele>
        <time>2023-07-24T06:02:55Z</time>
      </trkpt>
      <trkpt lat="44.40228" lon="5.4759">
        <ele>838</ele>
        <time>2023-07-24T06:02:56Z</time>
      </trkpt>
      <trkpt lat="44.40229" lon="5.4759">
        <ele>838.1</ele>
        <time>2023-07-24T06:02:57Z</time>
      </trkpt>
      <trkpt lat="44.40233" lon="5.47591">
        <ele>838.3</ele>
        <time>2023-07-24T06:02:58Z</time>
      </trkpt>
      <trkpt lat="44.40234" lon="5.47592">
        <ele>838.4</ele>
        <time>2023-07-24T06:02:59Z</time>
      </trkpt>
      <trkpt lat="44.40237" lon="5.47593">
        <ele>838.6</ele>
        <time>2023-07-24T06:03:00Z</time>
      </trkpt>
      <trkpt lat="44.4024" lon="5.47594">
        <ele>838.8</ele>
        <time>2023-07-24T06:03:01Z</time>
      </trkpt>
      <trkpt lat="44.40243" lon="5.47595">
        <ele>839.1</ele>
        <time>2023-07-24T06:03:02Z</time>
      </trkpt>
      <trkpt lat="44.40245" lon="5.47596">
        <ele>839.2</ele>
        <time>2023-07-24T06:03:03Z</time>
      </trkpt>
      <trkpt lat="44.40248" lon="5.47597">
        <ele>839.3</ele>
        <time>2023-07-24T06:03:04Z</time>
      </trkpt>
      <trkpt lat="44.4025" lon="5.47598">
        <ele>839.5</ele>
        <time>2023-07-24T06:03:05Z</time>
      </trkpt>
      <trkpt lat="44.40253" lon="5.47599">
        <ele>839.7</ele>
        <time>2023-07-24T06:03:06Z</time>
      </trkpt>
      <trkpt lat="44.40256" lon="5.476">
        <ele>839.9</ele>
        <time>2023-07-24T06:03:07Z</time>
      </trkpt>
      <trkpt lat="44.40259" lon="5.47601">
        <ele>840.1</ele>
        <time>2023-07-24T06:03:08Z</time>
      </trkpt>
      <trkpt lat="44.40263" lon="5.47602">
        <ele>840.3</ele>
        <time>2023-07-24T06:03:09Z</time>
      </trkpt>
      <trkpt lat="44.40264" lon="5.47603">
        <ele>840.4</ele>
        <time>2023-07-24T06:03:10Z</time>
      </trkpt>
      <trkpt lat="44.40267" lon="5.47604">
        <ele>840.6</ele>
        <time>2023-07-24T06:03:11Z</time>
      </trkpt>
      <trkpt lat="44.40269" lon="5.47605">
        <ele>840.7</ele>
        <time>2023-07-24T06:03:12Z</time>
      </trkpt>
      <trkpt lat="44.40273" lon="5.47606">
        <ele>841</ele>
        <time>2023-07-24T06:03:13Z</time>
      </trkpt>
      <trkpt lat="44.40274" lon="5.47606">
        <ele>841.1</ele>
        <time>2023-07-24T06:03:14Z</time>
      </trkpt>
      <trkpt lat="44.40278" lon="5.47608">
        <ele>841.3</ele>
        <time>2023-07-24T06:03:15Z</time>
      </trkpt>
      <trkpt lat="44.4028" lon="5.47608">
        <ele>841.4</ele>
        <time>2023-07-24T06:03:16Z</time>
      </trkpt>
      <trkpt lat="44.40283" lon="5.4761">
        <ele>841.6</ele>
        <time>2023-07-24T06:03:17Z</time>
      </trkpt>
      <trkpt lat="44.40284" lon="5.4761">
        <ele>841.7</ele>
        <time>2023-07-24T06:03:18Z</time>
      </trkpt>
      <trkpt lat="44.40287" lon="5.47611">
        <ele>841.8</ele>
        <time>2023-07-24T06:03:19Z</time>
      </trkpt>
      <trkpt lat="44.4029" lon="5.47612">
        <ele>842</ele>
        <time>2023-07-24T06:03:20Z</time>
      </trkpt>
      <trkpt lat="44.40293" lon="5.47614">
        <ele>842.1</ele>
        <time>2023-07-24T06:03:21Z</time>
      </trkpt>
      <trkpt lat="44.40296" lon="5.47615">
        <ele>842.3</ele>
        <time>2023-07-24T06:03:22Z</time>
      </trkpt>
      <trkpt lat="44.40298" lon="5.47616">
        <ele>842.5</ele>
        <time>2023-07-24T06:03:23Z</time>
      </trkpt>
      <trkpt lat="44.40302" lon="5.47618">
        <ele>842.7</ele>
        <time>2023-07-24T06:03:24Z</time>
      </trkpt>
      <trkpt lat="44.40304" lon="5.47618">
        <ele>842.8</ele>
        <time>2023-07-24T06:03:25Z</time>
      </trkpt>
      <trkpt lat="44.40306" lon="5.47619">
        <ele>842.9</ele>
        <time>2023-07-24T06:03:26Z</time>
      </trkpt>
      <trkpt lat="44.40309" lon="5.4762">
        <ele>843.1</ele>
        <time>2023-07-24T06:03:27Z</time>
      </trkpt>
      <trkpt lat="44.40314" lon="5.47621">
        <ele>843.4</ele>
        <time>2023-07-24T06:03:29Z</time>
      </trkpt>
      <trkpt lat="44.40317" lon="5.47622">
        <ele>843.6</ele>
        <time>2023-07-24T06:03:30Z</time>
      </trkpt>
      <trkpt lat="44.4032" lon="5.47622">
        <ele>843.8</ele>
        <time>2023-07-24T06:03:31Z</time>
      </trkpt>
      <trkpt lat="44.40323" lon="5.47623">
        <ele>844.1</ele>
        <time>2023-07-24T06:03:32Z</time>
      </trkpt>
      <trkpt lat="44.40325" lon="5.47623">
        <ele>844.2</ele>
        <time>2023-07-24T06:03:33Z</time>
      </trkpt>
      <trkpt lat="44.40329" lon="5.47624">
        <ele>844.4</ele>
        <time>2023-07-24T06:03:34Z</time>
      </trkpt>
      <trkpt lat="44.4033" lon="5.47625">
        <ele>844.5</ele>
        <time>2023-07-24T06:03:35Z</time>
      </trkpt>
      <trkpt lat="44.40333" lon="5.47625">
        <ele>844.7</ele>
        <time>2023-07-24T06:03:36Z</time>
      </trkpt>
      <trkpt lat="44.40337" lon="5.47626">
        <ele>845</ele>
        <time>2023-07-24T06:03:37Z</time>
      </trkpt>
      <trkpt lat="44.40338" lon="5.47626">
        <ele>845.1</ele>
        <time>2023-07-24T06:03:38Z</time>
      </trkpt>
      <trkpt lat="44.40342" lon="5.47627">
        <ele>845.3</ele>
        <time>2023-07-24T06:03:39Z</time>
      </trkpt>
      <trkpt lat="44.40343" lon="5.47627">
        <ele>845.4</ele>
        <time>2023-07-24T06:03:40Z</time>
      </trkpt>
      <trkpt lat="44.40346" lon="5.4763">
        <ele>845.5</ele>
        <time>2023-07-24T06:03:41Z</time>
      </trkpt>
      <trkpt lat="44.40348" lon="5.47632">
        <ele>845.7</ele>
        <time>2023-07-24T06:03:42Z</time>
      </trkpt>
      <trkpt lat="44.4035" lon="5.47635">
        <ele>845.8</ele>
        <time>2023-07-24T06:03:43Z</time>
      </trkpt>
      <trkpt lat="44.40353" lon="5.47638">
        <ele>846</ele>
        <time>2023-07-24T06:03:44Z</time>
      </trkpt>
      <trkpt lat="44.40355" lon="5.4764">
        <ele>846.1</ele>
        <time>2023-07-24T06:03:45Z</time>
      </trkpt>
      <trkpt lat="44.40358" lon="5.47642">
        <ele>846.2</ele>
        <time>2023-07-24T06:03:46Z</time>
      </trkpt>
      <trkpt lat="44.40361" lon="5.47644">
        <ele>846.5</ele>
        <time>2023-07-24T06:03:47Z</time>
      </trkpt>
      <trkpt lat="44.40364" lon="5.47645">
        <ele>846.8</ele>
        <time>2023-07-24T06:03:48Z</time>
      </trkpt>
      <trkpt lat="44.40367" lon="5.47646">
        <ele>847.1</ele>
        <time>2023-07-24T06:03:49Z</time>
      </trkpt>
      <trkpt lat="44.4037" lon="5.47646">
        <ele>847.4</ele>
        <time>2023-07-24T06:03:50Z</time>
      </trkpt>
      <trkpt lat="44.40373" lon="5.47647">
        <ele>847.7</ele>
        <time>2023-07-24T06:03:51Z</time>
      </trkpt>
      <trkpt lat="44.40376" lon="5.47649">
        <ele>848</ele>
        <time>2023-07-24T06:03:52Z</time>
      </trkpt>
      <trkpt lat="44.40379" lon="5.47651">
        <ele>848.3</ele>
        <time>2023-07-24T06:03:53Z</time>
      </trkpt>
      <trkpt lat="44.40382" lon="5.47652">
        <ele>848.6</ele>
        <time>2023-07-24T06:03:54Z</time>
      </trkpt>
      <trkpt lat="44.40385" lon="5.47654">
        <ele>848.9</ele>
        <time>2023-07-24T06:03:55Z</time>
      </trkpt>
      <trkpt lat="44.40388" lon="5.47656">
        <ele>849.3</ele>
        <time>2023-07-24T06:03:56Z</time>
      </trkpt>
      <trkpt lat="44.40391" lon="5.47657">
        <ele>849.6</ele>
        <time>2023-07-24T06:03:57Z</time>
      </trkpt>
      <trkpt lat="44.40394" lon="5.47659">
        <ele>850</ele>
        <time>2023-07-24T06:03:58Z</time>
      </trkpt>
      <trkpt lat="44.40397" lon="5.4766">
        <ele>850.3</ele>
        <time>2023-07-24T06:03:59Z</time>
      </trkpt>
      <trkpt lat="44.404" lon="5.47662">
        <ele>850.7</ele>
        <time>2023-07-24T06:04:00Z</time>
      </trkpt>
      <trkpt lat="44.40403" lon="5.47663">
        <ele>851</ele>
        <time>2023-07-24T06:04:01Z</time>
      </trkpt>
      <trkpt lat="44.40406" lon="5.47665">
        <ele>851.4</ele>
        <time>2023-07-24T06:04:02Z</time>
      </trkpt>
      <trkpt lat="44.40409" lon="5.47666">
        <ele>851.7</ele>
        <time>2023-07-24T06:04:03Z</time>
      </trkpt>
      <trkpt lat="44.40412" lon="5.47667">
        <ele>852</ele>
        <time>2023-07-24T06:04:04Z</time>
      </trkpt>
      <trkpt lat="44.40415" lon="5.47668">
        <ele>852.4</ele>
        <time>2023-07-24T06:04:05Z</time>
      </trkpt>
      <trkpt lat="44.40418" lon="5.47669">
        <ele>852.7</ele>
        <time>2023-07-24T06:04:06Z</time>
      </trkpt>
      <trkpt lat="44.40421" lon="5.4767">
        <ele>853</ele>
        <time>2023-07-24T06:04:07Z</time>
      </trkpt>
      <trkpt lat="44.40423" lon="5.47671">
        <ele>853.3</ele>
        <time>2023-07-24T06:04:08Z</time>
      </trkpt>
      <trkpt lat="44.40426" lon="5.47673">
        <ele>853.6</ele>
        <time>2023-07-24T06:04:09Z</time>
      </trkpt>
      <trkpt lat="44.40428" lon="5.47673">
        <ele>853.7</ele>
        <time>2023-07-24T06:04:10Z</time>
      </trkpt>
      <trkpt lat="44.40431" lon="5.47676">
        <ele>854.1</ele>
        <time>2023-07-24T06:04:11Z</time>
      </trkpt>
      <trkpt lat="44.40432" lon="5.47677">
        <ele>854.2</ele>
        <time>2023-07-24T06:04:12Z</time>
      </trkpt>
      <trkpt lat="44.40435" lon="5.4768">
        <ele>854.5</ele>
        <time>2023-07-24T06:04:13Z</time>
      </trkpt>
      <trkpt lat="44.40437" lon="5.47683">
        <ele>854.7</ele>
        <time>2023-07-24T06:04:14Z</time>
      </trkpt>
      <trkpt lat="44.40439" lon="5.47687">
        <ele>855</ele>
        <time>2023-07-24T06:04:15Z</time>
      </trkpt>
      <trkpt lat="44.4044" lon="5.4769">
        <ele>855.2</ele>
        <time>2023-07-24T06:04:16Z</time>
      </trkpt>
      <trkpt lat="44.40442" lon="5.47694">
        <ele>855.4</ele>
        <time>2023-07-24T06:04:17Z</time>
      </trkpt>
      <trkpt lat="44.40445" lon="5.47697">
        <ele>855.6</ele>
        <time>2023-07-24T06:04:18Z</time>
      </trkpt>
      <trkpt lat="44.40446" lon="5.477">
        <ele>855.9</ele>
        <time>2023-07-24T06:04:19Z</time>
      </trkpt>
      <trkpt lat="44.40448" lon="5.47703">
        <ele>856.1</ele>
        <time>2023-07-24T06:04:20Z</time>
      </trkpt>
      <trkpt lat="44.40451" lon="5.47705">
        <ele>856.4</ele>
        <time>2023-07-24T06:04:21Z</time>
      </trkpt>
      <trkpt lat="44.40454" lon="5.47706">
        <ele>856.7</ele>
        <time>2023-07-24T06:04:22Z</time>
      </trkpt>
      <trkpt lat="44.40456" lon="5.47707">
        <ele>857</ele>
        <time>2023-07-24T06:04:23Z</time>
      </trkpt>
      <trkpt lat="44.40459" lon="5.47707">
        <ele>857.3</ele>
        <time>2023-07-24T06:04:24Z</time>
      </trkpt>
      <trkpt lat="44.40462" lon="5.47707">
        <ele>857.7</ele>
        <time>2023-07-24T06:04:25Z</time>
      </trkpt>
      <trkpt lat="44.40465" lon="5.47707">
        <ele>858</ele>
        <time>2023-07-24T06:04:26Z</time>
      </trkpt>
      <trkpt lat="44.40469" lon="5.47705">
        <ele>858.5</ele>
        <time>2023-07-24T06:04:27Z</time>
      </trkpt>
      <trkpt lat="44.40471" lon="5.47704">
        <ele>858.7</ele>
        <time>2023-07-24T06:04:28Z</time>
      </trkpt>
      <trkpt lat="44.40475" lon="5.47704">
        <ele>859.2</ele>
        <time>2023-07-24T06:04:29Z</time>
      </trkpt>
      <trkpt lat="44.40476" lon="5.47704">
        <ele>859.4</ele>
        <time>2023-07-24T06:04:30Z</time>
      </trkpt>
      <trkpt lat="44.4048" lon="5.47704">
        <ele>860</ele>
        <time>2023-07-24T06:04:31Z</time>
      </trkpt>
      <trkpt lat="44.40482" lon="5.47704">
        <ele>860.2</ele>
        <time>2023-07-24T06:04:32Z</time>
      </trkpt>
      <trkpt lat="44.40486" lon="5.47704">
        <ele>860.7</ele>
        <time>2023-07-24T06:04:33Z</time>
      </trkpt>
      <trkpt lat="44.40487" lon="5.47704">
        <ele>860.8</ele>
        <time>2023-07-24T06:04:34Z</time>
      </trkpt>
      <trkpt lat="44.40491" lon="5.47703">
        <ele>861.3</ele>
        <time>2023-07-24T06:04:35Z</time>
      </trkpt>
      <trkpt lat="44.40492" lon="5.47703">
        <ele>861.5</ele>
        <time>2023-07-24T06:04:36Z</time>
      </trkpt>
      <trkpt lat="44.40496" lon="5.47703">
        <ele>861.9</ele>
        <time>2023-07-24T06:04:37Z</time>
      </trkpt>
      <trkpt lat="44.40497" lon="5.47703">
        <ele>862.1</ele>
        <time>2023-07-24T06:04:38Z</time>
      </trkpt>
      <trkpt lat="44.40501" lon="5.47703">
        <ele>862.6</ele>
        <time>2023-07-24T06:04:39Z</time>
      </trkpt>
      <trkpt lat="44.40503" lon="5.47703">
        <ele>862.7</ele>
        <time>2023-07-24T06:04:40Z</time>
      </trkpt>
      <trkpt lat="44.40505" lon="5.47703">
        <ele>863</ele>
        <time>2023-07-24T06:04:41Z</time>
      </trkpt>
      <trkpt lat="44.40509" lon="5.47704">
        <ele>863.5</ele>
        <time>2023-07-24T06:04:42Z</time>
      </trkpt>
      <trkpt lat="44.40511" lon="5.47704">
        <ele>863.6</ele>
        <time>2023-07-24T06:04:43Z</time>
      </trkpt>
      <trkpt lat="44.40514" lon="5.47705">
        <ele>863.9</ele>
        <time>2023-07-24T06:04:44Z</time>
      </trkpt>
      <trkpt lat="44.40517" lon="5.47705">
        <ele>864.2</ele>
        <time>2023-07-24T06:04:45Z</time>
      </trkpt>
      <trkpt lat="44.4052" lon="5.47705">
        <ele>864.5</ele>
        <time>2023-07-24T06:04:46Z</time>
      </trkpt>
      <trkpt lat="44.40523" lon="5.47704">
        <ele>864.9</ele>
        <time>2023-07-24T06:04:47Z</time>
      </trkpt>
      <trkpt lat="44.40526" lon="5.47704">
        <ele>865.1</ele>
        <time>2023-07-24T06:04:48Z</time>
      </trkpt>
      <trkpt lat="44.40529" lon="5.47703">
        <ele>865.4</ele>
        <time>2023-07-24T06:04:49Z</time>
      </trkpt>
      <trkpt lat="44.40532" lon="5.47702">
        <ele>865.7</ele>
        <time>2023-07-24T06:04:50Z</time>
      </trkpt>
      <trkpt lat="44.40535" lon="5.47701">
        <ele>866</ele>
        <time>2023-07-24T06:04:51Z</time>
      </trkpt>
      <trkpt lat="44.40538" lon="5.47699">
        <ele>866.3</ele>
        <time>2023-07-24T06:04:52Z</time>
      </trkpt>
      <trkpt lat="44.40541" lon="5.47698">
        <ele>866.5</ele>
        <time>2023-07-24T06:04:53Z</time>
      </trkpt>
      <trkpt lat="44.40544" lon="5.47697">
        <ele>866.8</ele>
        <time>2023-07-24T06:04:54Z</time>
      </trkpt>
      <trkpt lat="44.40547" lon="5.47695">
        <ele>867.1</ele>
        <time>2023-07-24T06:04:55Z</time>
      </trkpt>
      <trkpt lat="44.4055" lon="5.47695">
        <ele>867.4</ele>
        <time>2023-07-24T06:04:56Z</time>
      </trkpt>
      <trkpt lat="44.40553" lon="5.47694">
        <ele>867.7</ele>
        <time>2023-07-24T06:04:57Z</time>
      </trkpt>
      <trkpt lat="44.40556" lon="5.47694">
        <ele>868</ele>
        <time>2023-07-24T06:04:58Z</time>
      </trkpt>
      <trkpt lat="44.40559" lon="5.47693">
        <ele>868.3</ele>
        <time>2023-07-24T06:04:59Z</time>
      </trkpt>
      <trkpt lat="44.40561" lon="5.47693">
        <ele>868.5</ele>
        <time>2023-07-24T06:05:00Z</time>
      </trkpt>
      <trkpt lat="44.40565" lon="5.47692">
        <ele>868.9</ele>
        <time>2023-07-24T06:05:01Z</time>
      </trkpt>
      <trkpt lat="44.40566" lon="5.47692">
        <ele>869</ele>
        <time>2023-07-24T06:05:02Z</time>
      </trkpt>
      <trkpt lat="44.4057" lon="5.47691">
        <ele>869.4</ele>
        <time>2023-07-24T06:05:03Z</time>
      </trkpt>
      <trkpt lat="44.40571" lon="5.47691">
        <ele>869.5</ele>
        <time>2023-07-24T06:05:04Z</time>
      </trkpt>
      <trkpt lat="44.40574" lon="5.47689">
        <ele>869.9</ele>
        <time>2023-07-24T06:05:05Z</time>
      </trkpt>
      <trkpt lat="44.40575" lon="5.47688">
        <ele>870.1</ele>
        <time>2023-07-24T06:05:06Z</time>
      </trkpt>
      <trkpt lat="44.40579" lon="5.47687">
        <ele>870.5</ele>
        <time>2023-07-24T06:05:07Z</time>
      </trkpt>
      <trkpt lat="44.4058" lon="5.47686">
        <ele>870.7</ele>
        <time>2023-07-24T06:05:08Z</time>
      </trkpt>
      <trkpt lat="44.40583" lon="5.47686">
        <ele>871</ele>
        <time>2023-07-24T06:05:09Z</time>
      </trkpt>
      <trkpt lat="44.40587" lon="5.47685">
        <ele>871.5</ele>
        <time>2023-07-24T06:05:10Z</time>
      </trkpt>
      <trkpt lat="44.40588" lon="5.47685">
        <ele>871.6</ele>
        <time>2023-07-24T06:05:11Z</time>
      </trkpt>
      <trkpt lat="44.40592" lon="5.47685">
        <ele>872.1</ele>
        <time>2023-07-24T06:05:12Z</time>
      </trkpt>
      <trkpt lat="44.40593" lon="5.47685">
        <ele>872.3</ele>
        <time>2023-07-24T06:05:13Z</time>
      </trkpt>
      <trkpt lat="44.40597" lon="5.47686">
        <ele>872.7</ele>
        <time>2023-07-24T06:05:14Z</time>
      </trkpt>
      <trkpt lat="44.40598" lon="5.47686">
        <ele>872.9</ele>
        <time>2023-07-24T06:05:15Z</time>
      </trkpt>
      <trkpt lat="44.40601" lon="5.47687">
        <ele>873.2</ele>
        <time>2023-07-24T06:05:16Z</time>
      </trkpt>
      <trkpt lat="44.40604" lon="5.47687">
        <ele>873.5</ele>
        <time>2023-07-24T06:05:17Z</time>
      </trkpt>
      <trkpt lat="44.40607" lon="5.47688">
        <ele>873.9</ele>
        <time>2023-07-24T06:05:18Z</time>
      </trkpt>
      <trkpt lat="44.40609" lon="5.4769">
        <ele>874.2</ele>
        <time>2023-07-24T06:05:19Z</time>
      </trkpt>
      <trkpt lat="44.40612" lon="5.47691">
        <ele>874.5</ele>
        <time>2023-07-24T06:05:20Z</time>
      </trkpt>
      <trkpt lat="44.40614" lon="5.47694">
        <ele>874.9</ele>
        <time>2023-07-24T06:05:21Z</time>
      </trkpt>
      <trkpt lat="44.40616" lon="5.47696">
        <ele>875.3</ele>
        <time>2023-07-24T06:05:22Z</time>
      </trkpt>
      <trkpt lat="44.40619" lon="5.47698">
        <ele>875.7</ele>
        <time>2023-07-24T06:05:23Z</time>
      </trkpt>
      <trkpt lat="44.40622" lon="5.47701">
        <ele>876.2</ele>
        <time>2023-07-24T06:05:24Z</time>
      </trkpt>
      <trkpt lat="44.40623" lon="5.47702">
        <ele>876.4</ele>
        <time>2023-07-24T06:05:25Z</time>
      </trkpt>
      <trkpt lat="44.40626" lon="5.47704">
        <ele>876.8</ele>
        <time>2023-07-24T06:05:26Z</time>
      </trkpt>
      <trkpt lat="44.40629" lon="5.47705">
        <ele>877.2</ele>
        <time>2023-07-24T06:05:27Z</time>
      </trkpt>
      <trkpt lat="44.40633" lon="5.47706">
        <ele>877.7</ele>
        <time>2023-07-24T06:05:28Z</time>
      </trkpt>
      <trkpt lat="44.40634" lon="5.47706">
        <ele>877.9</ele>
        <time>2023-07-24T06:05:29Z</time>
      </trkpt>
      <trkpt lat="44.40638" lon="5.47707">
        <ele>878.3</ele>
        <time>2023-07-24T06:05:30Z</time>
      </trkpt>
      <trkpt lat="44.40639" lon="5.47707">
        <ele>878.5</ele>
        <time>2023-07-24T06:05:31Z</time>
      </trkpt>
      <trkpt lat="44.40643" lon="5.47708">
        <ele>878.9</ele>
        <time>2023-07-24T06:05:32Z</time>
      </trkpt>
      <trkpt lat="44.40644" lon="5.47709">
        <ele>879</ele>
        <time>2023-07-24T06:05:33Z</time>
      </trkpt>
      <trkpt lat="44.40647" lon="5.4771">
        <ele>879.4</ele>
        <time>2023-07-24T06:05:34Z</time>
      </trkpt>
      <trkpt lat="44.40648" lon="5.4771">
        <ele>879.5</ele>
        <time>2023-07-24T06:05:35Z</time>
      </trkpt>
      <trkpt lat="44.40652" lon="5.47711">
        <ele>879.9</ele>
        <time>2023-07-24T06:05:36Z</time>
      </trkpt>
      <trkpt lat="44.40653" lon="5.47711">
        <ele>880</ele>
        <time>2023-07-24T06:05:37Z</time>
      </trkpt>
      <trkpt lat="44.40656" lon="5.47712">
        <ele>880.4</ele>
        <time>2023-07-24T06:05:38Z</time>
      </trkpt>
      <trkpt lat="44.40657" lon="5.47713">
        <ele>880.5</ele>
        <time>2023-07-24T06:05:39Z</time>
      </trkpt>
      <trkpt lat="44.4066" lon="5.47714">
        <ele>880.9</ele>
        <time>2023-07-24T06:05:40Z</time>
      </trkpt>
      <trkpt lat="44.40662" lon="5.47715">
        <ele>881.1</ele>
        <time>2023-07-24T06:05:41Z</time>
      </trkpt>
      <trkpt lat="44.40664" lon="5.47715">
        <ele>881.4</ele>
        <time>2023-07-24T06:05:42Z</time>
      </trkpt>
      <trkpt lat="44.40668" lon="5.47717">
        <ele>881.9</ele>
        <time>2023-07-24T06:05:43Z</time>
      </trkpt>
      <trkpt lat="44.40669" lon="5.47717">
        <ele>882.1</ele>
        <time>2023-07-24T06:05:44Z</time>
      </trkpt>
      <trkpt lat="44.40673" lon="5.47719">
        <ele>882.5</ele>
        <time>2023-07-24T06:05:45Z</time>
      </trkpt>
      <trkpt lat="44.40674" lon="5.4772">
        <ele>882.7</ele>
        <time>2023-07-24T06:05:46Z</time>
      </trkpt>
      <trkpt lat="44.40676" lon="5.47721">
        <ele>883.1</ele>
        <time>2023-07-24T06:05:47Z</time>
      </trkpt>
      <trkpt lat="44.4068" lon="5.47724">
        <ele>883.8</ele>
        <time>2023-07-24T06:05:49Z</time>
      </trkpt>
      <trkpt lat="44.40683" lon="5.47725">
        <ele>884.3</ele>
        <time>2023-07-24T06:05:50Z</time>
      </trkpt>
      <trkpt lat="44.40685" lon="5.47726">
        <ele>884.5</ele>
        <time>2023-07-24T06:05:51Z</time>
      </trkpt>
      <trkpt lat="44.40688" lon="5.47727">
        <ele>885.1</ele>
        <time>2023-07-24T06:05:52Z</time>
      </trkpt>
      <trkpt lat="44.40689" lon="5.47727">
        <ele>885.3</ele>
        <time>2023-07-24T06:05:53Z</time>
      </trkpt>
      <trkpt lat="44.40692" lon="5.47728">
        <ele>885.8</ele>
        <time>2023-07-24T06:05:54Z</time>
      </trkpt>
      <trkpt lat="44.40693" lon="5.47728">
        <ele>886</ele>
        <time>2023-07-24T06:05:55Z</time>
      </trkpt>
      <trkpt lat="44.40697" lon="5.4773">
        <ele>886.6</ele>
        <time>2023-07-24T06:05:56Z</time>
      </trkpt>
      <trkpt lat="44.40698" lon="5.4773">
        <ele>886.8</ele>
        <time>2023-07-24T06:05:57Z</time>
      </trkpt>
      <trkpt lat="44.407" lon="5.47731">
        <ele>887.3</ele>
        <time>2023-07-24T06:05:58Z</time>
      </trkpt>
      <trkpt lat="44.40701" lon="5.47731">
        <ele>887.5</ele>
        <time>2023-07-24T06:05:59Z</time>
      </trkpt>
      <trkpt lat="44.40704" lon="5.47732">
        <ele>888</ele>
        <time>2023-07-24T06:06:00Z</time>
      </trkpt>
      <trkpt lat="44.40705" lon="5.47732">
        <ele>888.2</ele>
        <time>2023-07-24T06:06:01Z</time>
      </trkpt>
      <trkpt lat="44.40708" lon="5.47733">
        <ele>888.7</ele>
        <time>2023-07-24T06:06:02Z</time>
      </trkpt>
      <trkpt lat="44.40709" lon="5.47734">
        <ele>888.8</ele>
        <time>2023-07-24T06:06:03Z</time>
      </trkpt>
      <trkpt lat="44.40712" lon="5.47735">
        <ele>889.3</ele>
        <time>2023-07-24T06:06:04Z</time>
      </trkpt>
      <trkpt lat="44.40713" lon="5.47735">
        <ele>889.5</ele>
        <time>2023-07-24T06:06:05Z</time>
      </trkpt>
      <trkpt lat="44.40714" lon="5.47737">
        <ele>889.7</ele>
        <time>2023-07-24T06:06:06Z</time>
      </trkpt>
      <trkpt lat="44.40715" lon="5.47738">
        <ele>890</ele>
        <time>2023-07-24T06:06:07Z</time>
      </trkpt>
      <trkpt lat="44.40717" lon="5.4774">
        <ele>890.2</ele>
        <time>2023-07-24T06:06:08Z</time>
      </trkpt>
      <trkpt lat="44.40718" lon="5.47742">
        <ele>890.4</ele>
        <time>2023-07-24T06:06:09Z</time>
      </trkpt>
      <trkpt lat="44.40719" lon="5.47744">
        <ele>890.7</ele>
        <time>2023-07-24T06:06:10Z</time>
      </trkpt>
      <trkpt lat="44.40719" lon="5.47745">
        <ele>890.9</ele>
        <time>2023-07-24T06:06:11Z</time>
      </trkpt>
      <trkpt lat="44.40719" lon="5.47746">
        <ele>891</ele>
        <time>2023-07-24T06:06:12Z</time>
      </trkpt>
      <trkpt lat="44.4072" lon="5.47748">
        <ele>891.2</ele>
        <time>2023-07-24T06:06:13Z</time>
      </trkpt>
      <trkpt lat="44.4072" lon="5.4775">
        <ele>891.4</ele>
        <time>2023-07-24T06:06:14Z</time>
      </trkpt>
      <trkpt lat="44.40721" lon="5.47754">
        <ele>891.7</ele>
        <time>2023-07-24T06:06:15Z</time>
      </trkpt>
      <trkpt lat="44.40721" lon="5.47755">
        <ele>891.7</ele>
        <time>2023-07-24T06:06:16Z</time>
      </trkpt>
      <trkpt lat="44.40722" lon="5.47759">
        <ele>892</ele>
        <time>2023-07-24T06:06:17Z</time>
      </trkpt>
      <trkpt lat="44.40722" lon="5.4776">
        <ele>892.1</ele>
        <time>2023-07-24T06:06:18Z</time>
      </trkpt>
      <trkpt lat="44.40724" lon="5.47765">
        <ele>892.5</ele>
        <time>2023-07-24T06:06:19Z</time>
      </trkpt>
      <trkpt lat="44.40725" lon="5.47767">
        <ele>892.6</ele>
        <time>2023-07-24T06:06:20Z</time>
      </trkpt>
      <trkpt lat="44.40728" lon="5.47771">
        <ele>893</ele>
        <time>2023-07-24T06:06:21Z</time>
      </trkpt>
      <trkpt lat="44.40729" lon="5.47772">
        <ele>893.2</ele>
        <time>2023-07-24T06:06:22Z</time>
      </trkpt>
      <trkpt lat="44.40732" lon="5.47775">
        <ele>893.5</ele>
        <time>2023-07-24T06:06:23Z</time>
      </trkpt>
      <trkpt lat="44.40733" lon="5.47776">
        <ele>893.6</ele>
        <time>2023-07-24T06:06:24Z</time>
      </trkpt>
      <trkpt lat="44.40735" lon="5.4778">
        <ele>894</ele>
        <time>2023-07-24T06:06:25Z</time>
      </trkpt>
      <trkpt lat="44.40736" lon="5.47781">
        <ele>894.1</ele>
        <time>2023-07-24T06:06:26Z</time>
      </trkpt>
      <trkpt lat="44.40738" lon="5.47785">
        <ele>894.5</ele>
        <time>2023-07-24T06:06:27Z</time>
      </trkpt>
      <trkpt lat="44.40739" lon="5.47786">
        <ele>894.6</ele>
        <time>2023-07-24T06:06:28Z</time>
      </trkpt>
      <trkpt lat="44.40741" lon="5.4779">
        <ele>894.9</ele>
        <time>2023-07-24T06:06:29Z</time>
      </trkpt>
      <trkpt lat="44.40742" lon="5.47791">
        <ele>894.9</ele>
        <time>2023-07-24T06:06:30Z</time>
      </trkpt>
      <trkpt lat="44.40745" lon="5.47794">
        <ele>895.2</ele>
        <time>2023-07-24T06:06:31Z</time>
      </trkpt>
      <trkpt lat="44.40746" lon="5.47795">
        <ele>895.3</ele>
        <time>2023-07-24T06:06:32Z</time>
      </trkpt>
      <trkpt lat="44.40748" lon="5.47798">
        <ele>895.6</ele>
        <time>2023-07-24T06:06:33Z</time>
      </trkpt>
      <trkpt lat="44.40749" lon="5.47799">
        <ele>895.7</ele>
        <time>2023-07-24T06:06:34Z</time>
      </trkpt>
      <trkpt lat="44.40752" lon="5.47802">
        <ele>896</ele>
        <time>2023-07-24T06:06:35Z</time>
      </trkpt>
      <trkpt lat="44.40753" lon="5.47803">
        <ele>896.1</ele>
        <time>2023-07-24T06:06:36Z</time>
      </trkpt>
      <trkpt lat="44.40755" lon="5.47806">
        <ele>896.3</ele>
        <time>2023-07-24T06:06:37Z</time>
      </trkpt>
      <trkpt lat="44.40756" lon="5.47807">
        <ele>896.4</ele>
        <time>2023-07-24T06:06:38Z</time>
      </trkpt>
      <trkpt lat="44.40759" lon="5.4781">
        <ele>896.7</ele>
        <time>2023-07-24T06:06:39Z</time>
      </trkpt>
      <trkpt lat="44.4076" lon="5.47811">
        <ele>896.8</ele>
        <time>2023-07-24T06:06:40Z</time>
      </trkpt>
      <trkpt lat="44.40762" lon="5.47814">
        <ele>897.1</ele>
        <time>2023-07-24T06:06:41Z</time>
      </trkpt>
      <trkpt lat="44.40763" lon="5.47815">
        <ele>897.2</ele>
        <time>2023-07-24T06:06:42Z</time>
      </trkpt>
      <trkpt lat="44.40765" lon="5.47819">
        <ele>897.5</ele>
        <time>2023-07-24T06:06:43Z</time>
      </trkpt>
      <trkpt lat="44.40765" lon="5.4782">
        <ele>897.6</ele>
        <time>2023-07-24T06:06:44Z</time>
      </trkpt>
      <trkpt lat="44.40767" lon="5.47824">
        <ele>897.9</ele>
        <time>2023-07-24T06:06:45Z</time>
      </trkpt>
      <trkpt lat="44.40768" lon="5.47825">
        <ele>898</ele>
        <time>2023-07-24T06:06:46Z</time>
      </trkpt>
      <trkpt lat="44.4077" lon="5.47829">
        <ele>898.3</ele>
        <time>2023-07-24T06:06:47Z</time>
      </trkpt>
      <trkpt lat="44.40771" lon="5.4783">
        <ele>898.5</ele>
        <time>2023-07-24T06:06:48Z</time>
      </trkpt>
      <trkpt lat="44.40772" lon="5.47833">
        <ele>898.7</ele>
        <time>2023-07-24T06:06:49Z</time>
      </trkpt>
      <trkpt lat="44.40772" lon="5.47835">
        <ele>898.9</ele>
        <time>2023-07-24T06:06:50Z</time>
      </trkpt>
      <trkpt lat="44.40773" lon="5.47839">
        <ele>899.1</ele>
        <time>2023-07-24T06:06:51Z</time>
      </trkpt>
      <trkpt lat="44.40774" lon="5.4784">
        <ele>899.2</ele>
        <time>2023-07-24T06:06:52Z</time>
      </trkpt>
      <trkpt lat="44.40775" lon="5.47844">
        <ele>899.6</ele>
        <time>2023-07-24T06:06:53Z</time>
      </trkpt>
      <trkpt lat="44.40775" lon="5.47846">
        <ele>899.7</ele>
        <time>2023-07-24T06:06:54Z</time>
      </trkpt>
      <trkpt lat="44.40776" lon="5.4785">
        <ele>900</ele>
        <time>2023-07-24T06:06:55Z</time>
      </trkpt>
      <trkpt lat="44.40776" lon="5.47852">
        <ele>900.1</ele>
        <time>2023-07-24T06:06:56Z</time>
      </trkpt>
      <trkpt lat="44.40778" lon="5.47856">
        <ele>900.4</ele>
        <time>2023-07-24T06:06:57Z</time>
      </trkpt>
      <trkpt lat="44.40779" lon="5.47857">
        <ele>900.5</ele>
        <time>2023-07-24T06:06:58Z</time>
      </trkpt>
      <trkpt lat="44.40781" lon="5.47861">
        <ele>900.8</ele>
        <time>2023-07-24T06:06:59Z</time>
      </trkpt>
      <trkpt lat="44.40781" lon="5.47862">
        <ele>900.9</ele>
        <time>2023-07-24T06:07:00Z</time>
      </trkpt>
      <trkpt lat="44.40783" lon="5.47865">
        <ele>901.2</ele>
        <time>2023-07-24T06:07:01Z</time>
      </trkpt>
      <trkpt lat="44.40783" lon="5.47867">
        <ele>901.3</ele>
        <time>2023-07-24T06:07:02Z</time>
      </trkpt>
      <trkpt lat="44.40785" lon="5.4787">
        <ele>901.6</ele>
        <time>2023-07-24T06:07:03Z</time>
      </trkpt>
      <trkpt lat="44.40785" lon="5.47872">
        <ele>901.7</ele>
        <time>2023-07-24T06:07:04Z</time>
      </trkpt>
      <trkpt lat="44.40787" lon="5.47876">
        <ele>902</ele>
        <time>2023-07-24T06:07:05Z</time>
      </trkpt>
      <trkpt lat="44.40787" lon="5.47877">
        <ele>902.1</ele>
        <time>2023-07-24T06:07:06Z</time>
      </trkpt>
      <trkpt lat="44.40789" lon="5.47881">
        <ele>902.4</ele>
        <time>2023-07-24T06:07:07Z</time>
      </trkpt>
      <trkpt lat="44.40789" lon="5.47882">
        <ele>902.5</ele>
        <time>2023-07-24T06:07:08Z</time>
      </trkpt>
      <trkpt lat="44.40791" lon="5.47886">
        <ele>902.8</ele>
        <time>2023-07-24T06:07:09Z</time>
      </trkpt>
      <trkpt lat="44.40792" lon="5.47887">
        <ele>902.9</ele>
        <time>2023-07-24T06:07:10Z</time>
      </trkpt>
      <trkpt lat="44.40793" lon="5.47891">
        <ele>903.1</ele>
        <time>2023-07-24T06:07:11Z</time>
      </trkpt>
      <trkpt lat="44.40794" lon="5.47892">
        <ele>903.2</ele>
        <time>2023-07-24T06:07:12Z</time>
      </trkpt>
      <trkpt lat="44.40796" lon="5.47896">
        <ele>903.5</ele>
        <time>2023-07-24T06:07:13Z</time>
      </trkpt>
      <trkpt lat="44.40796" lon="5.47898">
        <ele>903.5</ele>
        <time>2023-07-24T06:07:14Z</time>
      </trkpt>
      <trkpt lat="44.40798" lon="5.47902">
        <ele>903.8</ele>
        <time>2023-07-24T06:07:15Z</time>
      </trkpt>
      <trkpt lat="44.40799" lon="5.47903">
        <ele>903.9</ele>
        <time>2023-07-24T06:07:16Z</time>
      </trkpt>
      <trkpt lat="44.40802" lon="5.47906">
        <ele>904.2</ele>
        <time>2023-07-24T06:07:17Z</time>
      </trkpt>
      <trkpt lat="44.40803" lon="5.47907">
        <ele>904.3</ele>
        <time>2023-07-24T06:07:18Z</time>
      </trkpt>
      <trkpt lat="44.40805" lon="5.47911">
        <ele>904.6</ele>
        <time>2023-07-24T06:07:19Z</time>
      </trkpt>
      <trkpt lat="44.40806" lon="5.47913">
        <ele>904.7</ele>
        <time>2023-07-24T06:07:20Z</time>
      </trkpt>
      <trkpt lat="44.40808" lon="5.47917">
        <ele>905</ele>
        <time>2023-07-24T06:07:21Z</time>
      </trkpt>
      <trkpt lat="44.40808" lon="5.47918">
        <ele>905.1</ele>
        <time>2023-07-24T06:07:22Z</time>
      </trkpt>
      <trkpt lat="44.4081" lon="5.47923">
        <ele>905.4</ele>
        <time>2023-07-24T06:07:23Z</time>
      </trkpt>
      <trkpt lat="44.40811" lon="5.47924">
        <ele>905.5</ele>
        <time>2023-07-24T06:07:24Z</time>
      </trkpt>
      <trkpt lat="44.40813" lon="5.47927">
        <ele>905.8</ele>
        <time>2023-07-24T06:07:25Z</time>
      </trkpt>
      <trkpt lat="44.40815" lon="5.47933">
        <ele>906.2</ele>
        <time>2023-07-24T06:07:27Z</time>
      </trkpt>
      <trkpt lat="44.40817" lon="5.47937">
        <ele>906.5</ele>
        <time>2023-07-24T06:07:28Z</time>
      </trkpt>
      <trkpt lat="44.40818" lon="5.47938">
        <ele>906.6</ele>
        <time>2023-07-24T06:07:29Z</time>
      </trkpt>
      <trkpt lat="44.40822" lon="5.47941">
        <ele>907</ele>
        <time>2023-07-24T06:07:30Z</time>
      </trkpt>
      <trkpt lat="44.40823" lon="5.47941">
        <ele>907.1</ele>
        <time>2023-07-24T06:07:31Z</time>
      </trkpt>
      <trkpt lat="44.40826" lon="5.47941">
        <ele>907.4</ele>
        <time>2023-07-24T06:07:32Z</time>
      </trkpt>
      <trkpt lat="44.40828" lon="5.4794">
        <ele>907.5</ele>
        <time>2023-07-24T06:07:33Z</time>
      </trkpt>
      <trkpt lat="44.4083" lon="5.47936">
        <ele>907.8</ele>
        <time>2023-07-24T06:07:34Z</time>
      </trkpt>
      <trkpt lat="44.40831" lon="5.47935">
        <ele>907.9</ele>
        <time>2023-07-24T06:07:35Z</time>
      </trkpt>
      <trkpt lat="44.40832" lon="5.47931">
        <ele>908.1</ele>
        <time>2023-07-24T06:07:36Z</time>
      </trkpt>
      <trkpt lat="44.40832" lon="5.47927">
        <ele>908.4</ele>
        <time>2023-07-24T06:07:37Z</time>
      </trkpt>
      <trkpt lat="44.4083" lon="5.47923">
        <ele>908.6</ele>
        <time>2023-07-24T06:07:38Z</time>
      </trkpt>
      <trkpt lat="44.40829" lon="5.4792">
        <ele>908.9</ele>
        <time>2023-07-24T06:07:39Z</time>
      </trkpt>
      <trkpt lat="44.40827" lon="5.47917">
        <ele>909.1</ele>
        <time>2023-07-24T06:07:40Z</time>
      </trkpt>
      <trkpt lat="44.40825" lon="5.47912">
        <ele>909.5</ele>
        <time>2023-07-24T06:07:41Z</time>
      </trkpt>
      <trkpt lat="44.40824" lon="5.4791">
        <ele>909.6</ele>
        <time>2023-07-24T06:07:42Z</time>
      </trkpt>
      <trkpt lat="44.40822" lon="5.47907">
        <ele>909.8</ele>
        <time>2023-07-24T06:07:43Z</time>
      </trkpt>
      <trkpt lat="44.40821" lon="5.47904">
        <ele>910.1</ele>
        <time>2023-07-24T06:07:44Z</time>
      </trkpt>
      <trkpt lat="44.40819" lon="5.47899">
        <ele>910.4</ele>
        <time>2023-07-24T06:07:45Z</time>
      </trkpt>
      <trkpt lat="44.40818" lon="5.47897">
        <ele>910.5</ele>
        <time>2023-07-24T06:07:46Z</time>
      </trkpt>
      <trkpt lat="44.40817" lon="5.47892">
        <ele>910.8</ele>
        <time>2023-07-24T06:07:47Z</time>
      </trkpt>
      <trkpt lat="44.40816" lon="5.4789">
        <ele>911</ele>
        <time>2023-07-24T06:07:48Z</time>
      </trkpt>
      <trkpt lat="44.40815" lon="5.47886">
        <ele>911.2</ele>
        <time>2023-07-24T06:07:49Z</time>
      </trkpt>
      <trkpt lat="44.40814" lon="5.47882">
        <ele>911.5</ele>
        <time>2023-07-24T06:07:50Z</time>
      </trkpt>
      <trkpt lat="44.40814" lon="5.4788">
        <ele>911.6</ele>
        <time>2023-07-24T06:07:51Z</time>
      </trkpt>
      <trkpt lat="44.40813" lon="5.47875">
        <ele>911.9</ele>
        <time>2023-07-24T06:07:52Z</time>
      </trkpt>
      <trkpt lat="44.40813" lon="5.47873">
        <ele>912.1</ele>
        <time>2023-07-24T06:07:53Z</time>
      </trkpt>
      <trkpt lat="44.40813" lon="5.47868">
        <ele>912.4</ele>
        <time>2023-07-24T06:07:54Z</time>
      </trkpt>
      <trkpt lat="44.40813" lon="5.47866">
        <ele>912.5</ele>
        <time>2023-07-24T06:07:55Z</time>
      </trkpt>
      <trkpt lat="44.40813" lon="5.47861">
        <ele>912.9</ele>
        <time>2023-07-24T06:07:56Z</time>
      </trkpt>
      <trkpt lat="44.40812" lon="5.47859">
        <ele>913</ele>
        <time>2023-07-24T06:07:57Z</time>
      </trkpt>
      <trkpt lat="44.40812" lon="5.47854">
        <ele>913.4</ele>
        <time>2023-07-24T06:07:58Z</time>
      </trkpt>
      <trkpt lat="44.40812" lon="5.47852">
        <ele>913.5</ele>
        <time>2023-07-24T06:07:59Z</time>
      </trkpt>
      <trkpt lat="44.40812" lon="5.47846">
        <ele>913.9</ele>
        <time>2023-07-24T06:08:00Z</time>
      </trkpt>
      <trkpt lat="44.40812" lon="5.47845">
        <ele>914</ele>
        <time>2023-07-24T06:08:01Z</time>
      </trkpt>
      <trkpt lat="44.40813" lon="5.4784">
        <ele>914.3</ele>
        <time>2023-07-24T06:08:02Z</time>
      </trkpt>
      <trkpt lat="44.40813" lon="5.47839">
        <ele>914.4</ele>
        <time>2023-07-24T06:08:03Z</time>
      </trkpt>
      <trkpt lat="44.40813" lon="5.47834">
        <ele>914.7</ele>
        <time>2023-07-24T06:08:04Z</time>
      </trkpt>
      <trkpt lat="44.40814" lon="5.47833">
        <ele>914.8</ele>
        <time>2023-07-24T06:08:05Z</time>
      </trkpt>
      <trkpt lat="44.40814" lon="5.47828">
        <ele>915.2</ele>
        <time>2023-07-24T06:08:06Z</time>
      </trkpt>
      <trkpt lat="44.40814" lon="5.47826">
        <ele>915.3</ele>
        <time>2023-07-24T06:08:07Z</time>
      </trkpt>
      <trkpt lat="44.40813" lon="5.47821">
        <ele>915.6</ele>
        <time>2023-07-24T06:08:08Z</time>
      </trkpt>
      <trkpt lat="44.40813" lon="5.4782">
        <ele>915.7</ele>
        <time>2023-07-24T06:08:09Z</time>
      </trkpt>
      <trkpt lat="44.40813" lon="5.47815">
        <ele>916.1</ele>
        <time>2023-07-24T06:08:10Z</time>
      </trkpt>
      <trkpt lat="44.40814" lon="5.47813">
        <ele>916.2</ele>
        <time>2023-07-24T06:08:11Z</time>
      </trkpt>
      <trkpt lat="44.40814" lon="5.47808">
        <ele>916.5</ele>
        <time>2023-07-24T06:08:12Z</time>
      </trkpt>
      <trkpt lat="44.40813" lon="5.47806">
        <ele>916.6</ele>
        <time>2023-07-24T06:08:13Z</time>
      </trkpt>
      <trkpt lat="44.40814" lon="5.47802">
        <ele>916.9</ele>
        <time>2023-07-24T06:08:14Z</time>
      </trkpt>
      <trkpt lat="44.40814" lon="5.478">
        <ele>917</ele>
        <time>2023-07-24T06:08:15Z</time>
      </trkpt>
      <trkpt lat="44.40814" lon="5.47796">
        <ele>917.3</ele>
        <time>2023-07-24T06:08:16Z</time>
      </trkpt>
      <trkpt lat="44.40814" lon="5.47794">
        <ele>917.5</ele>
        <time>2023-07-24T06:08:17Z</time>
      </trkpt>
      <trkpt lat="44.40814" lon="5.47789">
        <ele>917.7</ele>
        <time>2023-07-24T06:08:18Z</time>
      </trkpt>
      <trkpt lat="44.40814" lon="5.47788">
        <ele>917.8</ele>
        <time>2023-07-24T06:08:19Z</time>
      </trkpt>
      <trkpt lat="44.40814" lon="5.47783">
        <ele>918.2</ele>
        <time>2023-07-24T06:08:20Z</time>
      </trkpt>
      <trkpt lat="44.40814" lon="5.47781">
        <ele>918.3</ele>
        <time>2023-07-24T06:08:21Z</time>
      </trkpt>
      <trkpt lat="44.40814" lon="5.47776">
        <ele>918.6</ele>
        <time>2023-07-24T06:08:22Z</time>
      </trkpt>
      <trkpt lat="44.40814" lon="5.47775">
        <ele>918.6</ele>
        <time>2023-07-24T06:08:23Z</time>
      </trkpt>
      <trkpt lat="44.40814" lon="5.4777">
        <ele>918.9</ele>
        <time>2023-07-24T06:08:24Z</time>
      </trkpt>
      <trkpt lat="44.40814" lon="5.47768">
        <ele>919</ele>
        <time>2023-07-24T06:08:25Z</time>
      </trkpt>
      <trkpt lat="44.40814" lon="5.47763">
        <ele>919.3</ele>
        <time>2023-07-24T06:08:26Z</time>
      </trkpt>
      <trkpt lat="44.40813" lon="5.47762">
        <ele>919.4</ele>
        <time>2023-07-24T06:08:27Z</time>
      </trkpt>
      <trkpt lat="44.40813" lon="5.47757">
        <ele>919.7</ele>
        <time>2023-07-24T06:08:28Z</time>
      </trkpt>
      <trkpt lat="44.40813" lon="5.47755">
        <ele>919.8</ele>
        <time>2023-07-24T06:08:29Z</time>
      </trkpt>
      <trkpt lat="44.40812" lon="5.4775">
        <ele>920.1</ele>
        <time>2023-07-24T06:08:30Z</time>
      </trkpt>
      <trkpt lat="44.40812" lon="5.47749">
        <ele>920.2</ele>
        <time>2023-07-24T06:08:31Z</time>
      </trkpt>
      <trkpt lat="44.40811" lon="5.47744">
        <ele>920.5</ele>
        <time>2023-07-24T06:08:32Z</time>
      </trkpt>
      <trkpt lat="44.40811" lon="5.47742">
        <ele>920.7</ele>
        <time>2023-07-24T06:08:33Z</time>
      </trkpt>
      <trkpt lat="44.4081" lon="5.47737">
        <ele>921</ele>
        <time>2023-07-24T06:08:34Z</time>
      </trkpt>
      <trkpt lat="44.4081" lon="5.47736">
        <ele>921.1</ele>
        <time>2023-07-24T06:08:35Z</time>
      </trkpt>
      <trkpt lat="44.4081" lon="5.4773">
        <ele>921.4</ele>
        <time>2023-07-24T06:08:36Z</time>
      </trkpt>
      <trkpt lat="44.4081" lon="5.47729">
        <ele>921.5</ele>
        <time>2023-07-24T06:08:37Z</time>
      </trkpt>
      <trkpt lat="44.4081" lon="5.47723">
        <ele>921.8</ele>
        <time>2023-07-24T06:08:38Z</time>
      </trkpt>
      <trkpt lat="44.4081" lon="5.47722">
        <ele>921.9</ele>
        <time>2023-07-24T06:08:39Z</time>
      </trkpt>
      <trkpt lat="44.40811" lon="5.47717">
        <ele>922.2</ele>
        <time>2023-07-24T06:08:40Z</time>
      </trkpt>
      <trkpt lat="44.40811" lon="5.47715">
        <ele>922.3</ele>
        <time>2023-07-24T06:08:41Z</time>
      </trkpt>
      <trkpt lat="44.40812" lon="5.4771">
        <ele>922.6</ele>
        <time>2023-07-24T06:08:42Z</time>
      </trkpt>
      <trkpt lat="44.40812" lon="5.47708">
        <ele>922.7</ele>
        <time>2023-07-24T06:08:43Z</time>
      </trkpt>
      <trkpt lat="44.40814" lon="5.47705">
        <ele>922.9</ele>
        <time>2023-07-24T06:08:44Z</time>
      </trkpt>
      <trkpt lat="44.40815" lon="5.47701">
        <ele>923.2</ele>
        <time>2023-07-24T06:08:45Z</time>
      </trkpt>
      <trkpt lat="44.40816" lon="5.47699">
        <ele>923.3</ele>
        <time>2023-07-24T06:08:46Z</time>
      </trkpt>
      <trkpt lat="44.40819" lon="5.47697">
        <ele>923.5</ele>
        <time>2023-07-24T06:08:47Z</time>
      </trkpt>
      <trkpt lat="44.4082" lon="5.47696">
        <ele>923.6</ele>
        <time>2023-07-24T06:08:48Z</time>
      </trkpt>
      <trkpt lat="44.40823" lon="5.47693">
        <ele>923.9</ele>
        <time>2023-07-24T06:08:49Z</time>
      </trkpt>
      <trkpt lat="44.40825" lon="5.47693">
        <ele>924.1</ele>
        <time>2023-07-24T06:08:50Z</time>
      </trkpt>
      <trkpt lat="44.40829" lon="5.47693">
        <ele>924.4</ele>
        <time>2023-07-24T06:08:51Z</time>
      </trkpt>
      <trkpt lat="44.4083" lon="5.47693">
        <ele>924.4</ele>
        <time>2023-07-24T06:08:52Z</time>
      </trkpt>
      <trkpt lat="44.40834" lon="5.47694">
        <ele>924.8</ele>
        <time>2023-07-24T06:08:53Z</time>
      </trkpt>
      <trkpt lat="44.40835" lon="5.47695">
        <ele>924.9</ele>
        <time>2023-07-24T06:08:54Z</time>
      </trkpt>
      <trkpt lat="44.40838" lon="5.47697">
        <ele>925.2</ele>
        <time>2023-07-24T06:08:55Z</time>
      </trkpt>
      <trkpt lat="44.4084" lon="5.47699">
        <ele>925.3</ele>
        <time>2023-07-24T06:08:56Z</time>
      </trkpt>
      <trkpt lat="44.40842" lon="5.47703">
        <ele>925.6</ele>
        <time>2023-07-24T06:08:57Z</time>
      </trkpt>
      <trkpt lat="44.40842" lon="5.47705">
        <ele>925.7</ele>
        <time>2023-07-24T06:08:58Z</time>
      </trkpt>
      <trkpt lat="44.40844" lon="5.47708">
        <ele>925.9</ele>
        <time>2023-07-24T06:08:59Z</time>
      </trkpt>
      <trkpt lat="44.40845" lon="5.47712">
        <ele>926.2</ele>
        <time>2023-07-24T06:09:00Z</time>
      </trkpt>
      <trkpt lat="44.40846" lon="5.47717">
        <ele>926.5</ele>
        <time>2023-07-24T06:09:01Z</time>
      </trkpt>
      <trkpt lat="44.40846" lon="5.47719">
        <ele>926.6</ele>
        <time>2023-07-24T06:09:02Z</time>
      </trkpt>
      <trkpt lat="44.40847" lon="5.47724">
        <ele>926.9</ele>
        <time>2023-07-24T06:09:03Z</time>
      </trkpt>
      <trkpt lat="44.40847" lon="5.47726">
        <ele>927</ele>
        <time>2023-07-24T06:09:04Z</time>
      </trkpt>
      <trkpt lat="44.40848" lon="5.47732">
        <ele>927.2</ele>
        <time>2023-07-24T06:09:05Z</time>
      </trkpt>
      <trkpt lat="44.40849" lon="5.47733">
        <ele>927.3</ele>
        <time>2023-07-24T06:09:06Z</time>
      </trkpt>
      <trkpt lat="44.40849" lon="5.47737">
        <ele>927.5</ele>
        <time>2023-07-24T06:09:07Z</time>
      </trkpt>
      <trkpt lat="44.4085" lon="5.47742">
        <ele>927.7</ele>
        <time>2023-07-24T06:09:08Z</time>
      </trkpt>
      <trkpt lat="44.40851" lon="5.47744">
        <ele>927.8</ele>
        <time>2023-07-24T06:09:09Z</time>
      </trkpt>
      <trkpt lat="44.40851" lon="5.47748">
        <ele>928</ele>
        <time>2023-07-24T06:09:10Z</time>
      </trkpt>
      <trkpt lat="44.40853" lon="5.47753">
        <ele>928.2</ele>
        <time>2023-07-24T06:09:11Z</time>
      </trkpt>
      <trkpt lat="44.40853" lon="5.47754">
        <ele>928.3</ele>
        <time>2023-07-24T06:09:12Z</time>
      </trkpt>
      <trkpt lat="44.40854" lon="5.47759">
        <ele>928.5</ele>
        <time>2023-07-24T06:09:13Z</time>
      </trkpt>
      <trkpt lat="44.40854" lon="5.47761">
        <ele>928.5</ele>
        <time>2023-07-24T06:09:14Z</time>
      </trkpt>
      <trkpt lat="44.40855" lon="5.47766">
        <ele>928.8</ele>
        <time>2023-07-24T06:09:15Z</time>
      </trkpt>
      <trkpt lat="44.40856" lon="5.47768">
        <ele>928.9</ele>
        <time>2023-07-24T06:09:16Z</time>
      </trkpt>
      <trkpt lat="44.40857" lon="5.47773">
        <ele>929.1</ele>
        <time>2023-07-24T06:09:17Z</time>
      </trkpt>
      <trkpt lat="44.40857" lon="5.47775">
        <ele>929.2</ele>
        <time>2023-07-24T06:09:18Z</time>
      </trkpt>
      <trkpt lat="44.40858" lon="5.47781">
        <ele>929.4</ele>
        <time>2023-07-24T06:09:19Z</time>
      </trkpt>
      <trkpt lat="44.40858" lon="5.47783">
        <ele>929.5</ele>
        <time>2023-07-24T06:09:20Z</time>
      </trkpt>
      <trkpt lat="44.40858" lon="5.47787">
        <ele>929.7</ele>
        <time>2023-07-24T06:09:21Z</time>
      </trkpt>
      <trkpt lat="44.40859" lon="5.47791">
        <ele>929.8</ele>
        <time>2023-07-24T06:09:22Z</time>
      </trkpt>
      <trkpt lat="44.4086" lon="5.47796">
        <ele>930</ele>
        <time>2023-07-24T06:09:23Z</time>
      </trkpt>
      <trkpt lat="44.4086" lon="5.47798">
        <ele>930.1</ele>
        <time>2023-07-24T06:09:24Z</time>
      </trkpt>
      <trkpt lat="44.4086" lon="5.47803">
        <ele>930.3</ele>
        <time>2023-07-24T06:09:25Z</time>
      </trkpt>
      <trkpt lat="44.40861" lon="5.47805">
        <ele>930.4</ele>
        <time>2023-07-24T06:09:26Z</time>
      </trkpt>
      <trkpt lat="44.40861" lon="5.4781">
        <ele>930.6</ele>
        <time>2023-07-24T06:09:27Z</time>
      </trkpt>
      <trkpt lat="44.40861" lon="5.47812">
        <ele>930.7</ele>
        <time>2023-07-24T06:09:28Z</time>
      </trkpt>
      <trkpt lat="44.40862" lon="5.47818">
        <ele>931</ele>
        <time>2023-07-24T06:09:29Z</time>
      </trkpt>
      <trkpt lat="44.40863" lon="5.47819">
        <ele>931.1</ele>
        <time>2023-07-24T06:09:30Z</time>
      </trkpt>
      <trkpt lat="44.40864" lon="5.47824">
        <ele>931.4</ele>
        <time>2023-07-24T06:09:31Z</time>
      </trkpt>
      <trkpt lat="44.40865" lon="5.47826">
        <ele>931.5</ele>
        <time>2023-07-24T06:09:32Z</time>
      </trkpt>
      <trkpt lat="44.40867" lon="5.4783">
        <ele>931.8</ele>
        <time>2023-07-24T06:09:33Z</time>
      </trkpt>
      <trkpt lat="44.40868" lon="5.47831">
        <ele>931.9</ele>
        <time>2023-07-24T06:09:34Z</time>
      </trkpt>
      <trkpt lat="44.40871" lon="5.47834">
        <ele>932.2</ele>
        <time>2023-07-24T06:09:35Z</time>
      </trkpt>
      <trkpt lat="44.40872" lon="5.47835">
        <ele>932.4</ele>
        <time>2023-07-24T06:09:36Z</time>
      </trkpt>
      <trkpt lat="44.40875" lon="5.47837">
        <ele>932.7</ele>
        <time>2023-07-24T06:09:37Z</time>
      </trkpt>
      <trkpt lat="44.40876" lon="5.47838">
        <ele>932.8</ele>
        <time>2023-07-24T06:09:38Z</time>
      </trkpt>
      <trkpt lat="44.40879" lon="5.47839">
        <ele>933.1</ele>
        <time>2023-07-24T06:09:39Z</time>
      </trkpt>
      <trkpt lat="44.4088" lon="5.4784">
        <ele>933.2</ele>
        <time>2023-07-24T06:09:40Z</time>
      </trkpt>
      <trkpt lat="44.40884" lon="5.47841">
        <ele>933.5</ele>
        <time>2023-07-24T06:09:41Z</time>
      </trkpt>
      <trkpt lat="44.40886" lon="5.47841">
        <ele>933.7</ele>
        <time>2023-07-24T06:09:42Z</time>
      </trkpt>
      <trkpt lat="44.40888" lon="5.47842">
        <ele>933.9</ele>
        <time>2023-07-24T06:09:43Z</time>
      </trkpt>
      <trkpt lat="44.40891" lon="5.47843">
        <ele>934.1</ele>
        <time>2023-07-24T06:09:44Z</time>
      </trkpt>
      <trkpt lat="44.40895" lon="5.47844">
        <ele>934.4</ele>
        <time>2023-07-24T06:09:45Z</time>
      </trkpt>
      <trkpt lat="44.40896" lon="5.47845">
        <ele>934.6</ele>
        <time>2023-07-24T06:09:46Z</time>
      </trkpt>
      <trkpt lat="44.409" lon="5.47847">
        <ele>934.8</ele>
        <time>2023-07-24T06:09:47Z</time>
      </trkpt>
      <trkpt lat="44.40901" lon="5.47847">
        <ele>934.9</ele>
        <time>2023-07-24T06:09:48Z</time>
      </trkpt>
      <trkpt lat="44.40904" lon="5.47849">
        <ele>935.1</ele>
        <time>2023-07-24T06:09:49Z</time>
      </trkpt>
      <trkpt lat="44.40907" lon="5.47851">
        <ele>935.3</ele>
        <time>2023-07-24T06:09:50Z</time>
      </trkpt>
      <trkpt lat="44.40909" lon="5.47852">
        <ele>935.5</ele>
        <time>2023-07-24T06:09:51Z</time>
      </trkpt>
      <trkpt lat="44.40913" lon="5.47855">
        <ele>935.7</ele>
        <time>2023-07-24T06:09:52Z</time>
      </trkpt>
      <trkpt lat="44.40914" lon="5.47856">
        <ele>935.7</ele>
        <time>2023-07-24T06:09:53Z</time>
      </trkpt>
      <trkpt lat="44.40916" lon="5.47857">
        <ele>935.9</ele>
        <time>2023-07-24T06:09:54Z</time>
      </trkpt>
      <trkpt lat="44.40919" lon="5.4786">
        <ele>936</ele>
        <time>2023-07-24T06:09:55Z</time>
      </trkpt>
      <trkpt lat="44.40921" lon="5.47862">
        <ele>936.1</ele>
        <time>2023-07-24T06:09:56Z</time>
      </trkpt>
      <trkpt lat="44.40923" lon="5.47865">
        <ele>936.3</ele>
        <time>2023-07-24T06:09:57Z</time>
      </trkpt>
      <trkpt lat="44.40926" lon="5.47868">
        <ele>936.4</ele>
        <time>2023-07-24T06:09:58Z</time>
      </trkpt>
      <trkpt lat="44.40928" lon="5.47872">
        <ele>936.5</ele>
        <time>2023-07-24T06:09:59Z</time>
      </trkpt>
      <trkpt lat="44.40931" lon="5.47875">
        <ele>936.6</ele>
        <time>2023-07-24T06:10:00Z</time>
      </trkpt>
      <trkpt lat="44.40933" lon="5.47877">
        <ele>936.8</ele>
        <time>2023-07-24T06:10:01Z</time>
      </trkpt>
      <trkpt lat="44.40936" lon="5.4788">
        <ele>936.9</ele>
        <time>2023-07-24T06:10:02Z</time>
      </trkpt>
      <trkpt lat="44.40939" lon="5.47882">
        <ele>936.9</ele>
        <time>2023-07-24T06:10:03Z</time>
      </trkpt>
      <trkpt lat="44.40941" lon="5.47884">
        <ele>937</ele>
        <time>2023-07-24T06:10:04Z</time>
      </trkpt>
      <trkpt lat="44.40944" lon="5.47887">
        <ele>937.1</ele>
        <time>2023-07-24T06:10:05Z</time>
      </trkpt>
      <trkpt lat="44.40947" lon="5.47889">
        <ele>937.2</ele>
        <time>2023-07-24T06:10:06Z</time>
      </trkpt>
      <trkpt lat="44.4095" lon="5.47892">
        <ele>937.3</ele>
        <time>2023-07-24T06:10:07Z</time>
      </trkpt>
      <trkpt lat="44.40952" lon="5.47894">
        <ele>937.4</ele>
        <time>2023-07-24T06:10:08Z</time>
      </trkpt>
      <trkpt lat="44.40954" lon="5.47896">
        <ele>937.4</ele>
        <time>2023-07-24T06:10:09Z</time>
      </trkpt>
      <trkpt lat="44.40957" lon="5.47899">
        <ele>937.5</ele>
        <time>2023-07-24T06:10:10Z</time>
      </trkpt>
      <trkpt lat="44.4096" lon="5.47902">
        <ele>937.6</ele>
        <time>2023-07-24T06:10:11Z</time>
      </trkpt>
      <trkpt lat="44.40963" lon="5.47905">
        <ele>937.7</ele>
        <time>2023-07-24T06:10:12Z</time>
      </trkpt>
      <trkpt lat="44.40965" lon="5.47908">
        <ele>937.7</ele>
        <time>2023-07-24T06:10:13Z</time>
      </trkpt>
      <trkpt lat="44.40967" lon="5.47911">
        <ele>937.8</ele>
        <time>2023-07-24T06:10:14Z</time>
      </trkpt>
      <trkpt lat="44.40969" lon="5.47915">
        <ele>938</ele>
        <time>2023-07-24T06:10:15Z</time>
      </trkpt>
      <trkpt lat="44.40971" lon="5.47919">
        <ele>938.1</ele>
        <time>2023-07-24T06:10:16Z</time>
      </trkpt>
      <trkpt lat="44.40974" lon="5.47923">
        <ele>938.2</ele>
        <time>2023-07-24T06:10:17Z</time>
      </trkpt>
      <trkpt lat="44.40976" lon="5.47926">
        <ele>938.3</ele>
        <time>2023-07-24T06:10:18Z</time>
      </trkpt>
      <trkpt lat="44.40978" lon="5.4793">
        <ele>938.4</ele>
        <time>2023-07-24T06:10:19Z</time>
      </trkpt>
      <trkpt lat="44.40979" lon="5.47933">
        <ele>938.6</ele>
        <time>2023-07-24T06:10:20Z</time>
      </trkpt>
      <trkpt lat="44.40981" lon="5.47937">
        <ele>938.7</ele>
        <time>2023-07-24T06:10:21Z</time>
      </trkpt>
      <trkpt lat="44.40982" lon="5.47941">
        <ele>938.8</ele>
        <time>2023-07-24T06:10:22Z</time>
      </trkpt>
      <trkpt lat="44.40983" lon="5.47945">
        <ele>938.9</ele>
        <time>2023-07-24T06:10:23Z</time>
      </trkpt>
      <trkpt lat="44.40984" lon="5.47949">
        <ele>939.1</ele>
        <time>2023-07-24T06:10:24Z</time>
      </trkpt>
      <trkpt lat="44.40984" lon="5.47954">
        <ele>939.3</ele>
        <time>2023-07-24T06:10:25Z</time>
      </trkpt>
      <trkpt lat="44.40984" lon="5.47958">
        <ele>939.5</ele>
        <time>2023-07-24T06:10:26Z</time>
      </trkpt>
      <trkpt lat="44.40984" lon="5.47962">
        <ele>939.6</ele>
        <time>2023-07-24T06:10:27Z</time>
      </trkpt>
      <trkpt lat="44.40983" lon="5.47967">
        <ele>939.8</ele>
        <time>2023-07-24T06:10:28Z</time>
      </trkpt>
      <trkpt lat="44.40982" lon="5.47971">
        <ele>940</ele>
        <time>2023-07-24T06:10:29Z</time>
      </trkpt>
      <trkpt lat="44.40982" lon="5.47976">
        <ele>940.2</ele>
        <time>2023-07-24T06:10:30Z</time>
      </trkpt>
      <trkpt lat="44.40981" lon="5.4798">
        <ele>940.4</ele>
        <time>2023-07-24T06:10:31Z</time>
      </trkpt>
      <trkpt lat="44.4098" lon="5.47985">
        <ele>940.6</ele>
        <time>2023-07-24T06:10:32Z</time>
      </trkpt>
      <trkpt lat="44.40979" lon="5.47989">
        <ele>940.8</ele>
        <time>2023-07-24T06:10:33Z</time>
      </trkpt>
      <trkpt lat="44.40979" lon="5.47993">
        <ele>941</ele>
        <time>2023-07-24T06:10:34Z</time>
      </trkpt>
      <trkpt lat="44.40978" lon="5.47998">
        <ele>941.2</ele>
        <time>2023-07-24T06:10:35Z</time>
      </trkpt>
      <trkpt lat="44.40978" lon="5.48003">
        <ele>941.4</ele>
        <time>2023-07-24T06:10:36Z</time>
      </trkpt>
      <trkpt lat="44.40978" lon="5.48008">
        <ele>941.7</ele>
        <time>2023-07-24T06:10:37Z</time>
      </trkpt>
      <trkpt lat="44.40978" lon="5.48012">
        <ele>941.9</ele>
        <time>2023-07-24T06:10:38Z</time>
      </trkpt>
      <trkpt lat="44.40979" lon="5.48016">
        <ele>942.1</ele>
        <time>2023-07-24T06:10:39Z</time>
      </trkpt>
      <trkpt lat="44.40979" lon="5.4802">
        <ele>942.4</ele>
        <time>2023-07-24T06:10:40Z</time>
      </trkpt>
      <trkpt lat="44.40981" lon="5.48024">
        <ele>942.6</ele>
        <time>2023-07-24T06:10:41Z</time>
      </trkpt>
      <trkpt lat="44.40982" lon="5.48028">
        <ele>942.9</ele>
        <time>2023-07-24T06:10:42Z</time>
      </trkpt>
      <trkpt lat="44.40984" lon="5.48032">
        <ele>943.1</ele>
        <time>2023-07-24T06:10:43Z</time>
      </trkpt>
      <trkpt lat="44.40985" lon="5.48035">
        <ele>943.3</ele>
        <time>2023-07-24T06:10:44Z</time>
      </trkpt>
      <trkpt lat="44.40987" lon="5.48039">
        <ele>943.6</ele>
        <time>2023-07-24T06:10:45Z</time>
      </trkpt>
      <trkpt lat="44.40988" lon="5.48042">
        <ele>943.8</ele>
        <time>2023-07-24T06:10:46Z</time>
      </trkpt>
      <trkpt lat="44.4099" lon="5.48046">
        <ele>944.1</ele>
        <time>2023-07-24T06:10:47Z</time>
      </trkpt>
      <trkpt lat="44.40992" lon="5.4805">
        <ele>944.4</ele>
        <time>2023-07-24T06:10:48Z</time>
      </trkpt>
      <trkpt lat="44.40994" lon="5.48053">
        <ele>944.7</ele>
        <time>2023-07-24T06:10:49Z</time>
      </trkpt>
      <trkpt lat="44.40996" lon="5.48056">
        <ele>945</ele>
        <time>2023-07-24T06:10:50Z</time>
      </trkpt>
      <trkpt lat="44.40998" lon="5.48061">
        <ele>945.3</ele>
        <time>2023-07-24T06:10:51Z</time>
      </trkpt>
      <trkpt lat="44.40999" lon="5.48062">
        <ele>945.4</ele>
        <time>2023-07-24T06:10:52Z</time>
      </trkpt>
      <trkpt lat="44.41001" lon="5.48065">
        <ele>945.7</ele>
        <time>2023-07-24T06:10:53Z</time>
      </trkpt>
      <trkpt lat="44.41002" lon="5.48069">
        <ele>946</ele>
        <time>2023-07-24T06:10:54Z</time>
      </trkpt>
      <trkpt lat="44.41004" lon="5.48072">
        <ele>946.2</ele>
        <time>2023-07-24T06:10:55Z</time>
      </trkpt>
      <trkpt lat="44.41005" lon="5.48075">
        <ele>946.5</ele>
        <time>2023-07-24T06:10:56Z</time>
      </trkpt>
      <trkpt lat="44.41007" lon="5.48079">
        <ele>946.9</ele>
        <time>2023-07-24T06:10:57Z</time>
      </trkpt>
      <trkpt lat="44.41008" lon="5.48081">
        <ele>947</ele>
        <time>2023-07-24T06:10:58Z</time>
      </trkpt>
      <trkpt lat="44.4101" lon="5.48084">
        <ele>947.3</ele>
        <time>2023-07-24T06:10:59Z</time>
      </trkpt>
      <trkpt lat="44.4101" lon="5.48086">
        <ele>947.3</ele>
        <time>2023-07-24T06:11:00Z</time>
      </trkpt>
      <trkpt lat="44.4101" lon="5.48087">
        <ele>947.5</ele>
        <time>2023-07-24T06:11:01Z</time>
      </trkpt>
      <trkpt lat="44.41011" lon="5.4809">
        <ele>947.6</ele>
        <time>2023-07-24T06:11:02Z</time>
      </trkpt>
      <trkpt lat="44.41012" lon="5.48093">
        <ele>947.9</ele>
        <time>2023-07-24T06:11:03Z</time>
      </trkpt>
      <trkpt lat="44.41012" lon="5.48094">
        <ele>948</ele>
        <time>2023-07-24T06:11:04Z</time>
      </trkpt>
      <trkpt lat="44.41013" lon="5.48098">
        <ele>948.3</ele>
        <time>2023-07-24T06:11:05Z</time>
      </trkpt>
      <trkpt lat="44.41014" lon="5.48099">
        <ele>948.3</ele>
        <time>2023-07-24T06:11:06Z</time>
      </trkpt>
      <trkpt lat="44.41015" lon="5.48103">
        <ele>948.6</ele>
        <time>2023-07-24T06:11:07Z</time>
      </trkpt>
      <trkpt lat="44.41015" lon="5.48104">
        <ele>948.7</ele>
        <time>2023-07-24T06:11:08Z</time>
      </trkpt>
      <trkpt lat="44.41017" lon="5.48109">
        <ele>949</ele>
        <time>2023-07-24T06:11:09Z</time>
      </trkpt>
      <trkpt lat="44.41017" lon="5.4811">
        <ele>949.1</ele>
        <time>2023-07-24T06:11:10Z</time>
      </trkpt>
      <trkpt lat="44.41019" lon="5.48115">
        <ele>949.5</ele>
        <time>2023-07-24T06:11:11Z</time>
      </trkpt>
      <trkpt lat="44.4102" lon="5.48116">
        <ele>949.6</ele>
        <time>2023-07-24T06:11:12Z</time>
      </trkpt>
      <trkpt lat="44.41022" lon="5.4812">
        <ele>949.9</ele>
        <time>2023-07-24T06:11:13Z</time>
      </trkpt>
      <trkpt lat="44.41024" lon="5.48123">
        <ele>950.1</ele>
        <time>2023-07-24T06:11:14Z</time>
      </trkpt>
      <trkpt lat="44.41025" lon="5.48126">
        <ele>950.4</ele>
        <time>2023-07-24T06:11:15Z</time>
      </trkpt>
      <trkpt lat="44.41027" lon="5.48129">
        <ele>950.6</ele>
        <time>2023-07-24T06:11:16Z</time>
      </trkpt>
      <trkpt lat="44.41029" lon="5.48133">
        <ele>950.9</ele>
        <time>2023-07-24T06:11:17Z</time>
      </trkpt>
      <trkpt lat="44.41031" lon="5.48136">
        <ele>951.2</ele>
        <time>2023-07-24T06:11:18Z</time>
      </trkpt>
      <trkpt lat="44.41033" lon="5.4814">
        <ele>951.5</ele>
        <time>2023-07-24T06:11:19Z</time>
      </trkpt>
      <trkpt lat="44.41034" lon="5.48142">
        <ele>951.6</ele>
        <time>2023-07-24T06:11:20Z</time>
      </trkpt>
      <trkpt lat="44.41035" lon="5.48145">
        <ele>951.9</ele>
        <time>2023-07-24T06:11:21Z</time>
      </trkpt>
      <trkpt lat="44.41038" lon="5.48149">
        <ele>952.2</ele>
        <time>2023-07-24T06:11:22Z</time>
      </trkpt>
      <trkpt lat="44.41038" lon="5.4815">
        <ele>952.3</ele>
        <time>2023-07-24T06:11:23Z</time>
      </trkpt>
      <trkpt lat="44.41041" lon="5.48153">
        <ele>952.6</ele>
        <time>2023-07-24T06:11:24Z</time>
      </trkpt>
      <trkpt lat="44.41042" lon="5.48154">
        <ele>952.7</ele>
        <time>2023-07-24T06:11:25Z</time>
      </trkpt>
      <trkpt lat="44.41045" lon="5.48158">
        <ele>953.1</ele>
        <time>2023-07-24T06:11:26Z</time>
      </trkpt>
      <trkpt lat="44.41046" lon="5.4816">
        <ele>953.2</ele>
        <time>2023-07-24T06:11:27Z</time>
      </trkpt>
      <trkpt lat="44.41047" lon="5.48163">
        <ele>953.5</ele>
        <time>2023-07-24T06:11:28Z</time>
      </trkpt>
      <trkpt lat="44.4105" lon="5.48166">
        <ele>953.8</ele>
        <time>2023-07-24T06:11:29Z</time>
      </trkpt>
      <trkpt lat="44.41051" lon="5.48167">
        <ele>954</ele>
        <time>2023-07-24T06:11:30Z</time>
      </trkpt>
      <trkpt lat="44.41053" lon="5.48171">
        <ele>954.3</ele>
        <time>2023-07-24T06:11:31Z</time>
      </trkpt>
      <trkpt lat="44.41054" lon="5.48172">
        <ele>954.5</ele>
        <time>2023-07-24T06:11:32Z</time>
      </trkpt>
      <trkpt lat="44.41057" lon="5.48175">
        <ele>954.8</ele>
        <time>2023-07-24T06:11:33Z</time>
      </trkpt>
      <trkpt lat="44.41057" lon="5.48176">
        <ele>954.9</ele>
        <time>2023-07-24T06:11:34Z</time>
      </trkpt>
      <trkpt lat="44.4106" lon="5.48179">
        <ele>955.3</ele>
        <time>2023-07-24T06:11:35Z</time>
      </trkpt>
      <trkpt lat="44.41061" lon="5.4818">
        <ele>955.4</ele>
        <time>2023-07-24T06:11:36Z</time>
      </trkpt>
      <trkpt lat="44.41063" lon="5.48183">
        <ele>955.7</ele>
        <time>2023-07-24T06:11:37Z</time>
      </trkpt>
      <trkpt lat="44.41064" lon="5.48184">
        <ele>955.8</ele>
        <time>2023-07-24T06:11:38Z</time>
      </trkpt>
      <trkpt lat="44.41067" lon="5.48187">
        <ele>956.2</ele>
        <time>2023-07-24T06:11:39Z</time>
      </trkpt>
      <trkpt lat="44.41068" lon="5.48188">
        <ele>956.3</ele>
        <time>2023-07-24T06:11:40Z</time>
      </trkpt>
      <trkpt lat="44.41069" lon="5.48192">
        <ele>956.6</ele>
        <time>2023-07-24T06:11:41Z</time>
      </trkpt>
      <trkpt lat="44.4107" lon="5.48193">
        <ele>956.8</ele>
        <time>2023-07-24T06:11:42Z</time>
      </trkpt>
      <trkpt lat="44.41072" lon="5.48197">
        <ele>957.1</ele>
        <time>2023-07-24T06:11:43Z</time>
      </trkpt>
      <trkpt lat="44.41073" lon="5.48198">
        <ele>957.2</ele>
        <time>2023-07-24T06:11:44Z</time>
      </trkpt>
      <trkpt lat="44.41076" lon="5.482">
        <ele>957.5</ele>
        <time>2023-07-24T06:11:45Z</time>
      </trkpt>
      <trkpt lat="44.41077" lon="5.482">
        <ele>957.6</ele>
        <time>2023-07-24T06:11:46Z</time>
      </trkpt>
      <trkpt lat="44.4108" lon="5.48199">
        <ele>957.9</ele>
        <time>2023-07-24T06:11:47Z</time>
      </trkpt>
      <trkpt lat="44.41081" lon="5.48199">
        <ele>958.1</ele>
        <time>2023-07-24T06:11:48Z</time>
      </trkpt>
      <trkpt lat="44.41084" lon="5.48195">
        <ele>958.3</ele>
        <time>2023-07-24T06:11:49Z</time>
      </trkpt>
      <trkpt lat="44.41084" lon="5.48191">
        <ele>958.5</ele>
        <time>2023-07-24T06:11:50Z</time>
      </trkpt>
      <trkpt lat="44.41084" lon="5.48188">
        <ele>958.7</ele>
        <time>2023-07-24T06:11:51Z</time>
      </trkpt>
      <trkpt lat="44.41083" lon="5.48184">
        <ele>958.9</ele>
        <time>2023-07-24T06:11:52Z</time>
      </trkpt>
      <trkpt lat="44.41081" lon="5.48179">
        <ele>959.2</ele>
        <time>2023-07-24T06:11:53Z</time>
      </trkpt>
      <trkpt lat="44.4108" lon="5.48178">
        <ele>959.3</ele>
        <time>2023-07-24T06:11:54Z</time>
      </trkpt>
      <trkpt lat="44.41078" lon="5.48176">
        <ele>959.5</ele>
        <time>2023-07-24T06:11:55Z</time>
      </trkpt>
      <trkpt lat="44.41076" lon="5.48173">
        <ele>959.7</ele>
        <time>2023-07-24T06:11:56Z</time>
      </trkpt>
      <trkpt lat="44.41073" lon="5.48169">
        <ele>959.9</ele>
        <time>2023-07-24T06:11:57Z</time>
      </trkpt>
      <trkpt lat="44.41072" lon="5.48168">
        <ele>960</ele>
        <time>2023-07-24T06:11:58Z</time>
      </trkpt>
      <trkpt lat="44.4107" lon="5.48164">
        <ele>960.3</ele>
        <time>2023-07-24T06:11:59Z</time>
      </trkpt>
      <trkpt lat="44.4107" lon="5.48163">
        <ele>960.4</ele>
        <time>2023-07-24T06:12:00Z</time>
      </trkpt>
      <trkpt lat="44.41068" lon="5.48159">
        <ele>960.7</ele>
        <time>2023-07-24T06:12:01Z</time>
      </trkpt>
      <trkpt lat="44.41068" lon="5.48157">
        <ele>960.8</ele>
        <time>2023-07-24T06:12:02Z</time>
      </trkpt>
      <trkpt lat="44.41067" lon="5.48153">
        <ele>961</ele>
        <time>2023-07-24T06:12:03Z</time>
      </trkpt>
      <trkpt lat="44.41067" lon="5.48152">
        <ele>961.1</ele>
        <time>2023-07-24T06:12:04Z</time>
      </trkpt>
      <trkpt lat="44.41068" lon="5.48148">
        <ele>961.4</ele>
        <time>2023-07-24T06:12:05Z</time>
      </trkpt>
      <trkpt lat="44.41068" lon="5.48146">
        <ele>961.5</ele>
        <time>2023-07-24T06:12:06Z</time>
      </trkpt>
      <trkpt lat="44.41069" lon="5.48144">
        <ele>961.7</ele>
        <time>2023-07-24T06:12:07Z</time>
      </trkpt>
      <trkpt lat="44.41069" lon="5.48142">
        <ele>961.8</ele>
        <time>2023-07-24T06:12:08Z</time>
      </trkpt>
      <trkpt lat="44.41069" lon="5.48139">
        <ele>962</ele>
        <time>2023-07-24T06:12:09Z</time>
      </trkpt>
      <trkpt lat="44.41069" lon="5.48137">
        <ele>962.1</ele>
        <time>2023-07-24T06:12:10Z</time>
      </trkpt>
      <trkpt lat="44.41069" lon="5.48136">
        <ele>962.1</ele>
        <time>2023-07-24T06:12:11Z</time>
      </trkpt>
      <trkpt lat="44.4107" lon="5.48134">
        <ele>962.3</ele>
        <time>2023-07-24T06:12:12Z</time>
      </trkpt>
      <trkpt lat="44.4107" lon="5.48132">
        <ele>962.4</ele>
        <time>2023-07-24T06:12:13Z</time>
      </trkpt>
      <trkpt lat="44.41069" lon="5.48129">
        <ele>962.6</ele>
        <time>2023-07-24T06:12:14Z</time>
      </trkpt>
      <trkpt lat="44.41069" lon="5.48128">
        <ele>962.7</ele>
        <time>2023-07-24T06:12:15Z</time>
      </trkpt>
      <trkpt lat="44.41068" lon="5.48127">
        <ele>962.7</ele>
        <time>2023-07-24T06:12:16Z</time>
      </trkpt>
      <trkpt lat="44.41068" lon="5.48125">
        <ele>962.9</ele>
        <time>2023-07-24T06:12:17Z</time>
      </trkpt>
      <trkpt lat="44.41068" lon="5.48122">
        <ele>963</ele>
        <time>2023-07-24T06:12:18Z</time>
      </trkpt>
      <trkpt lat="44.41069" lon="5.48118">
        <ele>963.2</ele>
        <time>2023-07-24T06:12:19Z</time>
      </trkpt>
      <trkpt lat="44.41069" lon="5.48117">
        <ele>963.3</ele>
        <time>2023-07-24T06:12:20Z</time>
      </trkpt>
      <trkpt lat="44.4107" lon="5.48114">
        <ele>963.5</ele>
        <time>2023-07-24T06:12:21Z</time>
      </trkpt>
      <trkpt lat="44.4107" lon="5.48112">
        <ele>963.6</ele>
        <time>2023-07-24T06:12:22Z</time>
      </trkpt>
      <trkpt lat="44.4107" lon="5.4811">
        <ele>963.7</ele>
        <time>2023-07-24T06:12:23Z</time>
      </trkpt>
      <trkpt lat="44.4107" lon="5.48108">
        <ele>963.8</ele>
        <time>2023-07-24T06:12:24Z</time>
      </trkpt>
      <trkpt lat="44.4107" lon="5.48103">
        <ele>964.1</ele>
        <time>2023-07-24T06:12:25Z</time>
      </trkpt>
      <trkpt lat="44.41071" lon="5.48101">
        <ele>964.3</ele>
        <time>2023-07-24T06:12:26Z</time>
      </trkpt>
      <trkpt lat="44.41071" lon="5.48096">
        <ele>964.6</ele>
        <time>2023-07-24T06:12:27Z</time>
      </trkpt>
      <trkpt lat="44.41072" lon="5.48094">
        <ele>964.8</ele>
        <time>2023-07-24T06:12:28Z</time>
      </trkpt>
      <trkpt lat="44.41072" lon="5.48088">
        <ele>965.2</ele>
        <time>2023-07-24T06:12:29Z</time>
      </trkpt>
      <trkpt lat="44.41072" lon="5.48087">
        <ele>965.3</ele>
        <time>2023-07-24T06:12:30Z</time>
      </trkpt>
      <trkpt lat="44.41071" lon="5.48082">
        <ele>965.7</ele>
        <time>2023-07-24T06:12:31Z</time>
      </trkpt>
      <trkpt lat="44.41071" lon="5.4808">
        <ele>965.8</ele>
        <time>2023-07-24T06:12:32Z</time>
      </trkpt>
      <trkpt lat="44.41071" lon="5.48075">
        <ele>966.2</ele>
        <time>2023-07-24T06:12:33Z</time>
      </trkpt>
      <trkpt lat="44.4107" lon="5.48074">
        <ele>966.3</ele>
        <time>2023-07-24T06:12:34Z</time>
      </trkpt>
      <trkpt lat="44.41071" lon="5.48069">
        <ele>966.7</ele>
        <time>2023-07-24T06:12:35Z</time>
      </trkpt>
      <trkpt lat="44.41071" lon="5.48068">
        <ele>966.9</ele>
        <time>2023-07-24T06:12:36Z</time>
      </trkpt>
      <trkpt lat="44.41071" lon="5.48065">
        <ele>967.1</ele>
        <time>2023-07-24T06:12:37Z</time>
      </trkpt>
      <trkpt lat="44.41072" lon="5.48063">
        <ele>967.3</ele>
        <time>2023-07-24T06:12:38Z</time>
      </trkpt>
      <trkpt lat="44.41072" lon="5.48061">
        <ele>967.5</ele>
        <time>2023-07-24T06:12:39Z</time>
      </trkpt>
      <trkpt lat="44.41072" lon="5.48058">
        <ele>967.7</ele>
        <time>2023-07-24T06:12:40Z</time>
      </trkpt>
      <trkpt lat="44.41072" lon="5.48054">
        <ele>968.1</ele>
        <time>2023-07-24T06:12:41Z</time>
      </trkpt>
      <trkpt lat="44.41072" lon="5.48053">
        <ele>968.2</ele>
        <time>2023-07-24T06:12:42Z</time>
      </trkpt>
      <trkpt lat="44.41073" lon="5.4805">
        <ele>968.5</ele>
        <time>2023-07-24T06:12:43Z</time>
      </trkpt>
      <trkpt lat="44.41072" lon="5.48048">
        <ele>968.7</ele>
        <time>2023-07-24T06:12:44Z</time>
      </trkpt>
      <trkpt lat="44.41072" lon="5.48043">
        <ele>969.2</ele>
        <time>2023-07-24T06:12:45Z</time>
      </trkpt>
      <trkpt lat="44.41072" lon="5.48041">
        <ele>969.4</ele>
        <time>2023-07-24T06:12:46Z</time>
      </trkpt>
      <trkpt lat="44.41072" lon="5.48036">
        <ele>969.9</ele>
        <time>2023-07-24T06:12:47Z</time>
      </trkpt>
      <trkpt lat="44.41072" lon="5.48034">
        <ele>970.1</ele>
        <time>2023-07-24T06:12:48Z</time>
      </trkpt>
      <trkpt lat="44.41072" lon="5.48029">
        <ele>970.6</ele>
        <time>2023-07-24T06:12:49Z</time>
      </trkpt>
      <trkpt lat="44.41072" lon="5.48027">
        <ele>970.7</ele>
        <time>2023-07-24T06:12:50Z</time>
      </trkpt>
      <trkpt lat="44.41072" lon="5.48023">
        <ele>971.1</ele>
        <time>2023-07-24T06:12:51Z</time>
      </trkpt>
      <trkpt lat="44.41072" lon="5.48021">
        <ele>971.2</ele>
        <time>2023-07-24T06:12:52Z</time>
      </trkpt>
      <trkpt lat="44.41073" lon="5.48017">
        <ele>971.6</ele>
        <time>2023-07-24T06:12:53Z</time>
      </trkpt>
      <trkpt lat="44.41073" lon="5.48016">
        <ele>971.7</ele>
        <time>2023-07-24T06:12:54Z</time>
      </trkpt>
      <trkpt lat="44.41074" lon="5.48011">
        <ele>972.1</ele>
        <time>2023-07-24T06:12:55Z</time>
      </trkpt>
      <trkpt lat="44.41074" lon="5.4801">
        <ele>972.3</ele>
        <time>2023-07-24T06:12:56Z</time>
      </trkpt>
      <trkpt lat="44.41074" lon="5.48006">
        <ele>972.6</ele>
        <time>2023-07-24T06:12:57Z</time>
      </trkpt>
      <trkpt lat="44.41073" lon="5.48005">
        <ele>972.7</ele>
        <time>2023-07-24T06:12:58Z</time>
      </trkpt>
      <trkpt lat="44.41073" lon="5.48003">
        <ele>972.9</ele>
        <time>2023-07-24T06:12:59Z</time>
      </trkpt>
      <trkpt lat="44.41072" lon="5.48">
        <ele>973.1</ele>
        <time>2023-07-24T06:13:00Z</time>
      </trkpt>
      <trkpt lat="44.41071" lon="5.47994">
        <ele>973.7</ele>
        <time>2023-07-24T06:13:02Z</time>
      </trkpt>
      <trkpt lat="44.41071" lon="5.4799">
        <ele>974.1</ele>
        <time>2023-07-24T06:13:03Z</time>
      </trkpt>
      <trkpt lat="44.41071" lon="5.47989">
        <ele>974.2</ele>
        <time>2023-07-24T06:13:04Z</time>
      </trkpt>
      <trkpt lat="44.4107" lon="5.47985">
        <ele>974.6</ele>
        <time>2023-07-24T06:13:05Z</time>
      </trkpt>
      <trkpt lat="44.4107" lon="5.47984">
        <ele>974.7</ele>
        <time>2023-07-24T06:13:06Z</time>
      </trkpt>
      <trkpt lat="44.4107" lon="5.47981">
        <ele>974.9</ele>
        <time>2023-07-24T06:13:07Z</time>
      </trkpt>
      <trkpt lat="44.4107" lon="5.47979">
        <ele>975.2</ele>
        <time>2023-07-24T06:13:08Z</time>
      </trkpt>
      <trkpt lat="44.4107" lon="5.47974">
        <ele>975.7</ele>
        <time>2023-07-24T06:13:09Z</time>
      </trkpt>
      <trkpt lat="44.41069" lon="5.47972">
        <ele>975.9</ele>
        <time>2023-07-24T06:13:10Z</time>
      </trkpt>
      <trkpt lat="44.41069" lon="5.47967">
        <ele>976.5</ele>
        <time>2023-07-24T06:13:11Z</time>
      </trkpt>
      <trkpt lat="44.41069" lon="5.47965">
        <ele>976.7</ele>
        <time>2023-07-24T06:13:12Z</time>
      </trkpt>
      <trkpt lat="44.41068" lon="5.4796">
        <ele>977.1</ele>
        <time>2023-07-24T06:13:13Z</time>
      </trkpt>
      <trkpt lat="44.41068" lon="5.47956">
        <ele>977.5</ele>
        <time>2023-07-24T06:13:14Z</time>
      </trkpt>
      <trkpt lat="44.41066" lon="5.47952">
        <ele>978</ele>
        <time>2023-07-24T06:13:15Z</time>
      </trkpt>
      <trkpt lat="44.41066" lon="5.4795">
        <ele>978.2</ele>
        <time>2023-07-24T06:13:16Z</time>
      </trkpt>
      <trkpt lat="44.41065" lon="5.47946">
        <ele>978.5</ele>
        <time>2023-07-24T06:13:17Z</time>
      </trkpt>
      <trkpt lat="44.41064" lon="5.47942">
        <ele>978.9</ele>
        <time>2023-07-24T06:13:18Z</time>
      </trkpt>
      <trkpt lat="44.41063" lon="5.47939">
        <ele>979.1</ele>
        <time>2023-07-24T06:13:19Z</time>
      </trkpt>
      <trkpt lat="44.41061" lon="5.47934">
        <ele>979.6</ele>
        <time>2023-07-24T06:13:20Z</time>
      </trkpt>
      <trkpt lat="44.4106" lon="5.47932">
        <ele>979.7</ele>
        <time>2023-07-24T06:13:21Z</time>
      </trkpt>
      <trkpt lat="44.41059" lon="5.47928">
        <ele>980</ele>
        <time>2023-07-24T06:13:22Z</time>
      </trkpt>
      <trkpt lat="44.41057" lon="5.47925">
        <ele>980.3</ele>
        <time>2023-07-24T06:13:23Z</time>
      </trkpt>
      <trkpt lat="44.41055" lon="5.47921">
        <ele>980.7</ele>
        <time>2023-07-24T06:13:24Z</time>
      </trkpt>
      <trkpt lat="44.41054" lon="5.4792">
        <ele>980.8</ele>
        <time>2023-07-24T06:13:25Z</time>
      </trkpt>
      <trkpt lat="44.41051" lon="5.47916">
        <ele>981.2</ele>
        <time>2023-07-24T06:13:26Z</time>
      </trkpt>
      <trkpt lat="44.4105" lon="5.47915">
        <ele>981.3</ele>
        <time>2023-07-24T06:13:27Z</time>
      </trkpt>
      <trkpt lat="44.41048" lon="5.47912">
        <ele>981.6</ele>
        <time>2023-07-24T06:13:28Z</time>
      </trkpt>
      <trkpt lat="44.41048" lon="5.47912">
        <ele>981.7</ele>
        <time>2023-07-24T06:13:29Z</time>
      </trkpt>
      <trkpt lat="44.41047" lon="5.4791">
        <ele>981.8</ele>
        <time>2023-07-24T06:13:30Z</time>
      </trkpt>
      <trkpt lat="44.41047" lon="5.47908">
        <ele>982</ele>
        <time>2023-07-24T06:13:31Z</time>
      </trkpt>
      <trkpt lat="44.41044" lon="5.47904">
        <ele>982.3</ele>
        <time>2023-07-24T06:13:32Z</time>
      </trkpt>
      <trkpt lat="44.41044" lon="5.47903">
        <ele>982.4</ele>
        <time>2023-07-24T06:13:33Z</time>
      </trkpt>
      <trkpt lat="44.41041" lon="5.479">
        <ele>982.8</ele>
        <time>2023-07-24T06:13:34Z</time>
      </trkpt>
      <trkpt lat="44.4104" lon="5.47898">
        <ele>982.9</ele>
        <time>2023-07-24T06:13:35Z</time>
      </trkpt>
      <trkpt lat="44.41039" lon="5.47894">
        <ele>983.2</ele>
        <time>2023-07-24T06:13:36Z</time>
      </trkpt>
      <trkpt lat="44.41039" lon="5.47891">
        <ele>983.4</ele>
        <time>2023-07-24T06:13:37Z</time>
      </trkpt>
      <trkpt lat="44.41038" lon="5.47885">
        <ele>983.7</ele>
        <time>2023-07-24T06:13:38Z</time>
      </trkpt>
      <trkpt lat="44.41038" lon="5.47884">
        <ele>983.8</ele>
        <time>2023-07-24T06:13:39Z</time>
      </trkpt>
      <trkpt lat="44.41038" lon="5.47879">
        <ele>984.1</ele>
        <time>2023-07-24T06:13:40Z</time>
      </trkpt>
      <trkpt lat="44.41037" lon="5.47877">
        <ele>984.2</ele>
        <time>2023-07-24T06:13:41Z</time>
      </trkpt>
      <trkpt lat="44.41037" lon="5.47873">
        <ele>984.5</ele>
        <time>2023-07-24T06:13:42Z</time>
      </trkpt>
      <trkpt lat="44.41037" lon="5.47872">
        <ele>984.5</ele>
        <time>2023-07-24T06:13:43Z</time>
      </trkpt>
      <trkpt lat="44.41036" lon="5.4787">
        <ele>984.7</ele>
        <time>2023-07-24T06:13:44Z</time>
      </trkpt>
      <trkpt lat="44.41036" lon="5.47868">
        <ele>984.8</ele>
        <time>2023-07-24T06:13:45Z</time>
      </trkpt>
      <trkpt lat="44.41035" lon="5.47866">
        <ele>984.9</ele>
        <time>2023-07-24T06:13:46Z</time>
      </trkpt>
      <trkpt lat="44.41035" lon="5.47863">
        <ele>985</ele>
        <time>2023-07-24T06:13:47Z</time>
      </trkpt>
      <trkpt lat="44.41036" lon="5.47859">
        <ele>985.2</ele>
        <time>2023-07-24T06:13:48Z</time>
      </trkpt>
      <trkpt lat="44.41036" lon="5.47858">
        <ele>985.3</ele>
        <time>2023-07-24T06:13:49Z</time>
      </trkpt>
      <trkpt lat="44.41036" lon="5.47855">
        <ele>985.4</ele>
        <time>2023-07-24T06:13:50Z</time>
      </trkpt>
      <trkpt lat="44.41036" lon="5.47853">
        <ele>985.6</ele>
        <time>2023-07-24T06:13:51Z</time>
      </trkpt>
      <trkpt lat="44.41035" lon="5.47849">
        <ele>985.8</ele>
        <time>2023-07-24T06:13:52Z</time>
      </trkpt>
      <trkpt lat="44.41035" lon="5.47848">
        <ele>985.8</ele>
        <time>2023-07-24T06:13:53Z</time>
      </trkpt>
      <trkpt lat="44.41034" lon="5.47844">
        <ele>986</ele>
        <time>2023-07-24T06:13:54Z</time>
      </trkpt>
      <trkpt lat="44.41034" lon="5.47843">
        <ele>986.1</ele>
        <time>2023-07-24T06:13:55Z</time>
      </trkpt>
      <trkpt lat="44.41033" lon="5.4784">
        <ele>986.3</ele>
        <time>2023-07-24T06:13:56Z</time>
      </trkpt>
      <trkpt lat="44.41033" lon="5.47838">
        <ele>986.4</ele>
        <time>2023-07-24T06:13:57Z</time>
      </trkpt>
      <trkpt lat="44.41032" lon="5.47836">
        <ele>986.6</ele>
        <time>2023-07-24T06:13:58Z</time>
      </trkpt>
      <trkpt lat="44.41032" lon="5.47833">
        <ele>986.8</ele>
        <time>2023-07-24T06:13:59Z</time>
      </trkpt>
      <trkpt lat="44.4103" lon="5.4783">
        <ele>987</ele>
        <time>2023-07-24T06:14:00Z</time>
      </trkpt>
      <trkpt lat="44.4103" lon="5.47828">
        <ele>987.1</ele>
        <time>2023-07-24T06:14:01Z</time>
      </trkpt>
      <trkpt lat="44.41029" lon="5.47824">
        <ele>987.4</ele>
        <time>2023-07-24T06:14:02Z</time>
      </trkpt>
      <trkpt lat="44.41028" lon="5.47823">
        <ele>987.5</ele>
        <time>2023-07-24T06:14:03Z</time>
      </trkpt>
      <trkpt lat="44.41028" lon="5.47818">
        <ele>987.9</ele>
        <time>2023-07-24T06:14:04Z</time>
      </trkpt>
      <trkpt lat="44.41027" lon="5.47817">
        <ele>988</ele>
        <time>2023-07-24T06:14:05Z</time>
      </trkpt>
      <trkpt lat="44.41027" lon="5.47811">
        <ele>988.4</ele>
        <time>2023-07-24T06:14:06Z</time>
      </trkpt>
      <trkpt lat="44.41027" lon="5.47809">
        <ele>988.5</ele>
        <time>2023-07-24T06:14:07Z</time>
      </trkpt>
      <trkpt lat="44.41027" lon="5.47804">
        <ele>988.9</ele>
        <time>2023-07-24T06:14:08Z</time>
      </trkpt>
      <trkpt lat="44.41027" lon="5.47803">
        <ele>989</ele>
        <time>2023-07-24T06:14:09Z</time>
      </trkpt>
      <trkpt lat="44.41026" lon="5.47797">
        <ele>989.4</ele>
        <time>2023-07-24T06:14:10Z</time>
      </trkpt>
      <trkpt lat="44.41025" lon="5.47795">
        <ele>989.5</ele>
        <time>2023-07-24T06:14:11Z</time>
      </trkpt>
      <trkpt lat="44.41024" lon="5.47792">
        <ele>989.8</ele>
        <time>2023-07-24T06:14:12Z</time>
      </trkpt>
      <trkpt lat="44.41024" lon="5.47786">
        <ele>990.2</ele>
        <time>2023-07-24T06:14:13Z</time>
      </trkpt>
      <trkpt lat="44.41023" lon="5.47784">
        <ele>990.4</ele>
        <time>2023-07-24T06:14:14Z</time>
      </trkpt>
      <trkpt lat="44.41023" lon="5.47779">
        <ele>990.8</ele>
        <time>2023-07-24T06:14:15Z</time>
      </trkpt>
      <trkpt lat="44.41023" lon="5.47777">
        <ele>990.9</ele>
        <time>2023-07-24T06:14:16Z</time>
      </trkpt>
      <trkpt lat="44.41021" lon="5.47773">
        <ele>991.3</ele>
        <time>2023-07-24T06:14:17Z</time>
      </trkpt>
      <trkpt lat="44.41021" lon="5.47771">
        <ele>991.4</ele>
        <time>2023-07-24T06:14:18Z</time>
      </trkpt>
      <trkpt lat="44.4102" lon="5.47766">
        <ele>991.8</ele>
        <time>2023-07-24T06:14:19Z</time>
      </trkpt>
      <trkpt lat="44.41019" lon="5.47764">
        <ele>992</ele>
        <time>2023-07-24T06:14:20Z</time>
      </trkpt>
      <trkpt lat="44.41017" lon="5.47759">
        <ele>992.4</ele>
        <time>2023-07-24T06:14:21Z</time>
      </trkpt>
      <trkpt lat="44.41016" lon="5.47757">
        <ele>992.6</ele>
        <time>2023-07-24T06:14:22Z</time>
      </trkpt>
      <trkpt lat="44.41015" lon="5.47753">
        <ele>993</ele>
        <time>2023-07-24T06:14:23Z</time>
      </trkpt>
      <trkpt lat="44.41014" lon="5.47751">
        <ele>993.1</ele>
        <time>2023-07-24T06:14:24Z</time>
      </trkpt>
      <trkpt lat="44.41013" lon="5.47748">
        <ele>993.4</ele>
        <time>2023-07-24T06:14:25Z</time>
      </trkpt>
      <trkpt lat="44.41011" lon="5.47745">
        <ele>993.7</ele>
        <time>2023-07-24T06:14:26Z</time>
      </trkpt>
      <trkpt lat="44.4101" lon="5.4774">
        <ele>994.1</ele>
        <time>2023-07-24T06:14:27Z</time>
      </trkpt>
      <trkpt lat="44.4101" lon="5.47738">
        <ele>994.2</ele>
        <time>2023-07-24T06:14:28Z</time>
      </trkpt>
      <trkpt lat="44.41009" lon="5.47733">
        <ele>994.7</ele>
        <time>2023-07-24T06:14:29Z</time>
      </trkpt>
      <trkpt lat="44.41008" lon="5.47731">
        <ele>994.8</ele>
        <time>2023-07-24T06:14:30Z</time>
      </trkpt>
      <trkpt lat="44.41007" lon="5.47727">
        <ele>995.2</ele>
        <time>2023-07-24T06:14:31Z</time>
      </trkpt>
      <trkpt lat="44.41007" lon="5.47726">
        <ele>995.3</ele>
        <time>2023-07-24T06:14:32Z</time>
      </trkpt>
      <trkpt lat="44.41006" lon="5.47724">
        <ele>995.5</ele>
        <time>2023-07-24T06:14:33Z</time>
      </trkpt>
      <trkpt lat="44.41006" lon="5.47721">
        <ele>995.7</ele>
        <time>2023-07-24T06:14:34Z</time>
      </trkpt>
      <trkpt lat="44.41005" lon="5.47717">
        <ele>996.1</ele>
        <time>2023-07-24T06:14:35Z</time>
      </trkpt>
      <trkpt lat="44.41005" lon="5.47715">
        <ele>996.2</ele>
        <time>2023-07-24T06:14:36Z</time>
      </trkpt>
      <trkpt lat="44.41006" lon="5.47711">
        <ele>996.5</ele>
        <time>2023-07-24T06:14:37Z</time>
      </trkpt>
      <trkpt lat="44.41007" lon="5.47707">
        <ele>996.9</ele>
        <time>2023-07-24T06:14:38Z</time>
      </trkpt>
      <trkpt lat="44.41007" lon="5.47705">
        <ele>997.1</ele>
        <time>2023-07-24T06:14:39Z</time>
      </trkpt>
      <trkpt lat="44.41008" lon="5.477">
        <ele>997.5</ele>
        <time>2023-07-24T06:14:40Z</time>
      </trkpt>
      <trkpt lat="44.41009" lon="5.47696">
        <ele>997.8</ele>
        <time>2023-07-24T06:14:41Z</time>
      </trkpt>
      <trkpt lat="44.4101" lon="5.47692">
        <ele>998.2</ele>
        <time>2023-07-24T06:14:42Z</time>
      </trkpt>
      <trkpt lat="44.41011" lon="5.47689">
        <ele>998.6</ele>
        <time>2023-07-24T06:14:43Z</time>
      </trkpt>
      <trkpt lat="44.41013" lon="5.47684">
        <ele>999.1</ele>
        <time>2023-07-24T06:14:44Z</time>
      </trkpt>
      <trkpt lat="44.41013" lon="5.47682">
        <ele>999.2</ele>
        <time>2023-07-24T06:14:45Z</time>
      </trkpt>
      <trkpt lat="44.41014" lon="5.47677">
        <ele>999.7</ele>
        <time>2023-07-24T06:14:46Z</time>
      </trkpt>
      <trkpt lat="44.41014" lon="5.47675">
        <ele>999.9</ele>
        <time>2023-07-24T06:14:47Z</time>
      </trkpt>
      <trkpt lat="44.41013" lon="5.47672">
        <ele>999.6</ele>
        <time>2023-07-24T06:14:48Z</time>
      </trkpt>
      <trkpt lat="44.41012" lon="5.47671">
        <ele>999.5</ele>
        <time>2023-07-24T06:14:49Z</time>
      </trkpt>
      <trkpt lat="44.41012" lon="5.4767">
        <ele>999.4</ele>
        <time>2023-07-24T06:14:50Z</time>
      </trkpt>
      <trkpt lat="44.41011" lon="5.47671">
        <ele>999.3</ele>
        <time>2023-07-24T06:14:51Z</time>
      </trkpt>
      <trkpt lat="44.41011" lon="5.4767">
        <ele>999.2</ele>
        <time>2023-07-24T06:14:52Z</time>
      </trkpt>
      <trkpt lat="44.41011" lon="5.4767">
        <ele>999.2</ele>
        <time>2023-07-24T06:14:53Z</time>
      </trkpt>
      <trkpt lat="44.41011" lon="5.4767">
        <ele>999.2</ele>
        <time>2023-07-24T06:14:54Z</time>
      </trkpt>
      <trkpt lat="44.4101" lon="5.47669">
        <ele>999.1</ele>
        <time>2023-07-24T06:14:55Z</time>
      </trkpt>
      <trkpt lat="44.4101" lon="5.47669">
        <ele>999</ele>
        <time>2023-07-24T06:14:56Z</time>
      </trkpt>
      <trkpt lat="44.41009" lon="5.47668">
        <ele>998.8</ele>
        <time>2023-07-24T06:14:57Z</time>
      </trkpt>
      <trkpt lat="44.41009" lon="5.47667">
        <ele>998.7</ele>
        <time>2023-07-24T06:14:58Z</time>
      </trkpt>
      <trkpt lat="44.41009" lon="5.47667">
        <ele>998.7</ele>
        <time>2023-07-24T06:14:59Z</time>
      </trkpt>
      <trkpt lat="44.41008" lon="5.47667">
        <ele>998.7</ele>
        <time>2023-07-24T06:15:00Z</time>
      </trkpt>
      <trkpt lat="44.41008" lon="5.47667">
        <ele>998.6</ele>
        <time>2023-07-24T06:15:01Z</time>
      </trkpt>
      <trkpt lat="44.41008" lon="5.47667">
        <ele>998.6</ele>
        <time>2023-07-24T06:15:02Z</time>
      </trkpt>
      <trkpt lat="44.41008" lon="5.47667">
        <ele>998.6</ele>
        <time>2023-07-24T06:15:03Z</time>
      </trkpt>
      <trkpt lat="44.41008" lon="5.47666">
        <ele>998.5</ele>
        <time>2023-07-24T06:15:04Z</time>
      </trkpt>
      <trkpt lat="44.41008" lon="5.47665">
        <ele>998.4</ele>
        <time>2023-07-24T06:15:05Z</time>
      </trkpt>
      <trkpt lat="44.41008" lon="5.47664">
        <ele>998.3</ele>
        <time>2023-07-24T06:15:06Z</time>
      </trkpt>
      <trkpt lat="44.41007" lon="5.47663">
        <ele>998.2</ele>
        <time>2023-07-24T06:15:07Z</time>
      </trkpt>
      <trkpt lat="44.41007" lon="5.47663">
        <ele>998.2</ele>
        <time>2023-07-24T06:15:08Z</time>
      </trkpt>
      <trkpt lat="44.41008" lon="5.47662">
        <ele>998.1</ele>
        <time>2023-07-24T06:15:09Z</time>
      </trkpt>
      <trkpt lat="44.41007" lon="5.47657">
        <ele>997.6</ele>
        <time>2023-07-24T06:15:14Z</time>
      </trkpt>
      <trkpt lat="44.41006" lon="5.47655">
        <ele>997.4</ele>
        <time>2023-07-24T06:15:15Z</time>
      </trkpt>
      <trkpt lat="44.41006" lon="5.47653">
        <ele>997.2</ele>
        <time>2023-07-24T06:15:16Z</time>
      </trkpt>
      <trkpt lat="44.41004" lon="5.47649">
        <ele>996.8</ele>
        <time>2023-07-24T06:15:17Z</time>
      </trkpt>
      <trkpt lat="44.41004" lon="5.47648">
        <ele>996.7</ele>
        <time>2023-07-24T06:15:18Z</time>
      </trkpt>
      <trkpt lat="44.41003" lon="5.47646">
        <ele>996.4</ele>
        <time>2023-07-24T06:15:19Z</time>
      </trkpt>
      <trkpt lat="44.41003" lon="5.47643">
        <ele>996.2</ele>
        <time>2023-07-24T06:15:20Z</time>
      </trkpt>
      <trkpt lat="44.41002" lon="5.47641">
        <ele>996</ele>
        <time>2023-07-24T06:15:21Z</time>
      </trkpt>
      <trkpt lat="44.41002" lon="5.47639">
        <ele>995.7</ele>
        <time>2023-07-24T06:15:22Z</time>
      </trkpt>
      <trkpt lat="44.41001" lon="5.47635">
        <ele>995.3</ele>
        <time>2023-07-24T06:15:23Z</time>
      </trkpt>
      <trkpt lat="44.41" lon="5.47633">
        <ele>995.2</ele>
        <time>2023-07-24T06:15:24Z</time>
      </trkpt>
      <trkpt lat="44.40999" lon="5.47628">
        <ele>994.7</ele>
        <time>2023-07-24T06:15:25Z</time>
      </trkpt>
      <trkpt lat="44.40999" lon="5.47626">
        <ele>994.5</ele>
        <time>2023-07-24T06:15:26Z</time>
      </trkpt>
      <trkpt lat="44.40998" lon="5.47622">
        <ele>994.1</ele>
        <time>2023-07-24T06:15:27Z</time>
      </trkpt>
      <trkpt lat="44.40998" lon="5.4762">
        <ele>993.9</ele>
        <time>2023-07-24T06:15:28Z</time>
      </trkpt>
      <trkpt lat="44.40996" lon="5.47616">
        <ele>993.5</ele>
        <time>2023-07-24T06:15:29Z</time>
      </trkpt>
      <trkpt lat="44.40996" lon="5.47615">
        <ele>993.4</ele>
        <time>2023-07-24T06:15:30Z</time>
      </trkpt>
      <trkpt lat="44.40995" lon="5.47613">
        <ele>993.2</ele>
        <time>2023-07-24T06:15:31Z</time>
      </trkpt>
      <trkpt lat="44.40995" lon="5.47611">
        <ele>993.2</ele>
        <time>2023-07-24T06:15:32Z</time>
      </trkpt>
      <trkpt lat="44.40995" lon="5.47607">
        <ele>993.3</ele>
        <time>2023-07-24T06:15:33Z</time>
      </trkpt>
      <trkpt lat="44.40995" lon="5.47605">
        <ele>993.3</ele>
        <time>2023-07-24T06:15:34Z</time>
      </trkpt>
      <trkpt lat="44.40995" lon="5.47601">
        <ele>993.4</ele>
        <time>2023-07-24T06:15:35Z</time>
      </trkpt>
      <trkpt lat="44.40994" lon="5.47599">
        <ele>993.5</ele>
        <time>2023-07-24T06:15:36Z</time>
      </trkpt>
      <trkpt lat="44.40994" lon="5.47597">
        <ele>993.5</ele>
        <time>2023-07-24T06:15:37Z</time>
      </trkpt>
      <trkpt lat="44.40993" lon="5.47595">
        <ele>993.6</ele>
        <time>2023-07-24T06:15:38Z</time>
      </trkpt>
      <trkpt lat="44.40994" lon="5.47593">
        <ele>993.6</ele>
        <time>2023-07-24T06:15:39Z</time>
      </trkpt>
      <trkpt lat="44.40994" lon="5.4759">
        <ele>993.6</ele>
        <time>2023-07-24T06:15:40Z</time>
      </trkpt>
      <trkpt lat="44.40994" lon="5.47588">
        <ele>993.7</ele>
        <time>2023-07-24T06:15:41Z</time>
      </trkpt>
      <trkpt lat="44.40994" lon="5.47586">
        <ele>993.7</ele>
        <time>2023-07-24T06:15:42Z</time>
      </trkpt>
      <trkpt lat="44.40994" lon="5.47585">
        <ele>993.8</ele>
        <time>2023-07-24T06:15:43Z</time>
      </trkpt>
      <trkpt lat="44.40994" lon="5.47582">
        <ele>993.8</ele>
        <time>2023-07-24T06:15:44Z</time>
      </trkpt>
      <trkpt lat="44.40994" lon="5.4758">
        <ele>993.8</ele>
        <time>2023-07-24T06:15:45Z</time>
      </trkpt>
      <trkpt lat="44.40994" lon="5.47578">
        <ele>993.9</ele>
        <time>2023-07-24T06:15:46Z</time>
      </trkpt>
      <trkpt lat="44.40993" lon="5.47576">
        <ele>993.9</ele>
        <time>2023-07-24T06:15:47Z</time>
      </trkpt>
      <trkpt lat="44.40993" lon="5.47575">
        <ele>993.9</ele>
        <time>2023-07-24T06:15:48Z</time>
      </trkpt>
      <trkpt lat="44.40993" lon="5.47573">
        <ele>994</ele>
        <time>2023-07-24T06:15:49Z</time>
      </trkpt>
      <trkpt lat="44.40994" lon="5.47571">
        <ele>994</ele>
        <time>2023-07-24T06:15:50Z</time>
      </trkpt>
      <trkpt lat="44.40994" lon="5.47569">
        <ele>994.1</ele>
        <time>2023-07-24T06:15:51Z</time>
      </trkpt>
      <trkpt lat="44.40995" lon="5.47567">
        <ele>994.1</ele>
        <time>2023-07-24T06:15:52Z</time>
      </trkpt>
      <trkpt lat="44.40995" lon="5.47565">
        <ele>994.1</ele>
        <time>2023-07-24T06:15:53Z</time>
      </trkpt>
      <trkpt lat="44.40995" lon="5.47563">
        <ele>994.2</ele>
        <time>2023-07-24T06:15:54Z</time>
      </trkpt>
      <trkpt lat="44.40995" lon="5.4756">
        <ele>994.2</ele>
        <time>2023-07-24T06:15:55Z</time>
      </trkpt>
      <trkpt lat="44.40995" lon="5.47557">
        <ele>994.3</ele>
        <time>2023-07-24T06:15:56Z</time>
      </trkpt>
      <trkpt lat="44.40995" lon="5.47555">
        <ele>994.3</ele>
        <time>2023-07-24T06:15:57Z</time>
      </trkpt>
      <trkpt lat="44.40996" lon="5.47551">
        <ele>994.4</ele>
        <time>2023-07-24T06:15:58Z</time>
      </trkpt>
      <trkpt lat="44.40996" lon="5.47549">
        <ele>994.4</ele>
        <time>2023-07-24T06:15:59Z</time>
      </trkpt>
      <trkpt lat="44.40996" lon="5.47547">
        <ele>994.5</ele>
        <time>2023-07-24T06:16:00Z</time>
      </trkpt>
      <trkpt lat="44.40996" lon="5.47544">
        <ele>994.5</ele>
        <time>2023-07-24T06:16:01Z</time>
      </trkpt>
      <trkpt lat="44.40996" lon="5.47539">
        <ele>994.6</ele>
        <time>2023-07-24T06:16:02Z</time>
      </trkpt>
      <trkpt lat="44.40996" lon="5.47537">
        <ele>994.7</ele>
        <time>2023-07-24T06:16:03Z</time>
      </trkpt>
      <trkpt lat="44.40997" lon="5.47533">
        <ele>994.8</ele>
        <time>2023-07-24T06:16:04Z</time>
      </trkpt>
      <trkpt lat="44.40998" lon="5.47528">
        <ele>994.9</ele>
        <time>2023-07-24T06:16:05Z</time>
      </trkpt>
      <trkpt lat="44.40998" lon="5.47524">
        <ele>994.9</ele>
        <time>2023-07-24T06:16:06Z</time>
      </trkpt>
      <trkpt lat="44.40998" lon="5.4752">
        <ele>995</ele>
        <time>2023-07-24T06:16:07Z</time>
      </trkpt>
      <trkpt lat="44.40999" lon="5.47515">
        <ele>995.1</ele>
        <time>2023-07-24T06:16:08Z</time>
      </trkpt>
      <trkpt lat="44.40999" lon="5.47514">
        <ele>995.1</ele>
        <time>2023-07-24T06:16:09Z</time>
      </trkpt>
      <trkpt lat="44.40999" lon="5.47509">
        <ele>995.2</ele>
        <time>2023-07-24T06:16:10Z</time>
      </trkpt>
      <trkpt lat="44.41" lon="5.47507">
        <ele>995.3</ele>
        <time>2023-07-24T06:16:11Z</time>
      </trkpt>
      <trkpt lat="44.41" lon="5.47502">
        <ele>995.4</ele>
        <time>2023-07-24T06:16:12Z</time>
      </trkpt>
      <trkpt lat="44.41001" lon="5.47501">
        <ele>995.4</ele>
        <time>2023-07-24T06:16:13Z</time>
      </trkpt>
      <trkpt lat="44.41001" lon="5.47495">
        <ele>995.5</ele>
        <time>2023-07-24T06:16:14Z</time>
      </trkpt>
      <trkpt lat="44.41001" lon="5.47494">
        <ele>995.5</ele>
        <time>2023-07-24T06:16:15Z</time>
      </trkpt>
      <trkpt lat="44.41002" lon="5.47489">
        <ele>995.6</ele>
        <time>2023-07-24T06:16:16Z</time>
      </trkpt>
      <trkpt lat="44.41002" lon="5.47487">
        <ele>995.7</ele>
        <time>2023-07-24T06:16:17Z</time>
      </trkpt>
      <trkpt lat="44.41002" lon="5.47483">
        <ele>995.7</ele>
        <time>2023-07-24T06:16:18Z</time>
      </trkpt>
      <trkpt lat="44.41002" lon="5.47481">
        <ele>995.8</ele>
        <time>2023-07-24T06:16:19Z</time>
      </trkpt>
      <trkpt lat="44.41002" lon="5.47477">
        <ele>995.9</ele>
        <time>2023-07-24T06:16:20Z</time>
      </trkpt>
      <trkpt lat="44.41002" lon="5.47475">
        <ele>995.9</ele>
        <time>2023-07-24T06:16:21Z</time>
      </trkpt>
      <trkpt lat="44.41003" lon="5.47471">
        <ele>996</ele>
        <time>2023-07-24T06:16:22Z</time>
      </trkpt>
      <trkpt lat="44.41003" lon="5.4747">
        <ele>996</ele>
        <time>2023-07-24T06:16:23Z</time>
      </trkpt>
      <trkpt lat="44.41003" lon="5.47466">
        <ele>996.1</ele>
        <time>2023-07-24T06:16:24Z</time>
      </trkpt>
      <trkpt lat="44.41003" lon="5.47464">
        <ele>996.1</ele>
        <time>2023-07-24T06:16:25Z</time>
      </trkpt>
      <trkpt lat="44.41003" lon="5.4746">
        <ele>996.2</ele>
        <time>2023-07-24T06:16:26Z</time>
      </trkpt>
      <trkpt lat="44.41003" lon="5.47459">
        <ele>996.2</ele>
        <time>2023-07-24T06:16:27Z</time>
      </trkpt>
      <trkpt lat="44.41002" lon="5.47454">
        <ele>996.3</ele>
        <time>2023-07-24T06:16:28Z</time>
      </trkpt>
      <trkpt lat="44.41002" lon="5.47453">
        <ele>996.3</ele>
        <time>2023-07-24T06:16:29Z</time>
      </trkpt>
      <trkpt lat="44.41002" lon="5.47449">
        <ele>996.4</ele>
        <time>2023-07-24T06:16:30Z</time>
      </trkpt>
      <trkpt lat="44.41002" lon="5.47448">
        <ele>996.4</ele>
        <time>2023-07-24T06:16:31Z</time>
      </trkpt>
      <trkpt lat="44.41002" lon="5.47443">
        <ele>996.5</ele>
        <time>2023-07-24T06:16:32Z</time>
      </trkpt>
      <trkpt lat="44.41002" lon="5.47442">
        <ele>996.5</ele>
        <time>2023-07-24T06:16:33Z</time>
      </trkpt>
      <trkpt lat="44.41002" lon="5.47438">
        <ele>996.6</ele>
        <time>2023-07-24T06:16:34Z</time>
      </trkpt>
      <trkpt lat="44.41002" lon="5.47436">
        <ele>996.6</ele>
        <time>2023-07-24T06:16:35Z</time>
      </trkpt>
      <trkpt lat="44.41001" lon="5.47432">
        <ele>996.7</ele>
        <time>2023-07-24T06:16:36Z</time>
      </trkpt>
      <trkpt lat="44.41001" lon="5.47431">
        <ele>996.7</ele>
        <time>2023-07-24T06:16:37Z</time>
      </trkpt>
      <trkpt lat="44.41001" lon="5.47426">
        <ele>996.8</ele>
        <time>2023-07-24T06:16:38Z</time>
      </trkpt>
      <trkpt lat="44.41001" lon="5.47425">
        <ele>996.9</ele>
        <time>2023-07-24T06:16:39Z</time>
      </trkpt>
      <trkpt lat="44.41001" lon="5.4742">
        <ele>996.9</ele>
        <time>2023-07-24T06:16:40Z</time>
      </trkpt>
      <trkpt lat="44.41001" lon="5.47419">
        <ele>997</ele>
        <time>2023-07-24T06:16:41Z</time>
      </trkpt>
      <trkpt lat="44.41" lon="5.47414">
        <ele>997.1</ele>
        <time>2023-07-24T06:16:42Z</time>
      </trkpt>
      <trkpt lat="44.41" lon="5.47413">
        <ele>997.1</ele>
        <time>2023-07-24T06:16:43Z</time>
      </trkpt>
      <trkpt lat="44.40999" lon="5.47409">
        <ele>997.2</ele>
        <time>2023-07-24T06:16:44Z</time>
      </trkpt>
      <trkpt lat="44.40999" lon="5.47407">
        <ele>997.2</ele>
        <time>2023-07-24T06:16:45Z</time>
      </trkpt>
      <trkpt lat="44.40998" lon="5.47404">
        <ele>997.3</ele>
        <time>2023-07-24T06:16:46Z</time>
      </trkpt>
      <trkpt lat="44.40998" lon="5.47402">
        <ele>997.3</ele>
        <time>2023-07-24T06:16:47Z</time>
      </trkpt>
      <trkpt lat="44.40997" lon="5.47398">
        <ele>997.4</ele>
        <time>2023-07-24T06:16:48Z</time>
      </trkpt>
      <trkpt lat="44.40996" lon="5.47396">
        <ele>997.4</ele>
        <time>2023-07-24T06:16:49Z</time>
      </trkpt>
      <trkpt lat="44.40995" lon="5.47393">
        <ele>997.5</ele>
        <time>2023-07-24T06:16:50Z</time>
      </trkpt>
      <trkpt lat="44.40993" lon="5.47389">
        <ele>997.6</ele>
        <time>2023-07-24T06:16:51Z</time>
      </trkpt>
      <trkpt lat="44.40993" lon="5.47387">
        <ele>997.6</ele>
        <time>2023-07-24T06:16:52Z</time>
      </trkpt>
      <trkpt lat="44.40991" lon="5.47384">
        <ele>997.7</ele>
        <time>2023-07-24T06:16:53Z</time>
      </trkpt>
      <trkpt lat="44.40991" lon="5.47383">
        <ele>997.7</ele>
        <time>2023-07-24T06:16:54Z</time>
      </trkpt>
      <trkpt lat="44.40988" lon="5.47379">
        <ele>997.8</ele>
        <time>2023-07-24T06:16:55Z</time>
      </trkpt>
      <trkpt lat="44.40987" lon="5.47378">
        <ele>997.9</ele>
        <time>2023-07-24T06:16:56Z</time>
      </trkpt>
      <trkpt lat="44.40985" lon="5.47375">
        <ele>997.9</ele>
        <time>2023-07-24T06:16:57Z</time>
      </trkpt>
      <trkpt lat="44.40983" lon="5.47372">
        <ele>998</ele>
        <time>2023-07-24T06:16:58Z</time>
      </trkpt>
      <trkpt lat="44.40981" lon="5.47368">
        <ele>998.1</ele>
        <time>2023-07-24T06:16:59Z</time>
      </trkpt>
      <trkpt lat="44.4098" lon="5.47365">
        <ele>998.2</ele>
        <time>2023-07-24T06:17:00Z</time>
      </trkpt>
      <trkpt lat="44.40978" lon="5.47362">
        <ele>998.3</ele>
        <time>2023-07-24T06:17:01Z</time>
      </trkpt>
      <trkpt lat="44.40977" lon="5.47357">
        <ele>998.3</ele>
        <time>2023-07-24T06:17:02Z</time>
      </trkpt>
      <trkpt lat="44.40976" lon="5.47353">
        <ele>998.4</ele>
        <time>2023-07-24T06:17:03Z</time>
      </trkpt>
      <trkpt lat="44.40974" lon="5.47348">
        <ele>998.5</ele>
        <time>2023-07-24T06:17:04Z</time>
      </trkpt>
      <trkpt lat="44.40972" lon="5.47343">
        <ele>998.6</ele>
        <time>2023-07-24T06:17:05Z</time>
      </trkpt>
      <trkpt lat="44.40971" lon="5.47339">
        <ele>998.7</ele>
        <time>2023-07-24T06:17:06Z</time>
      </trkpt>
      <trkpt lat="44.40968" lon="5.47336">
        <ele>998.8</ele>
        <time>2023-07-24T06:17:07Z</time>
      </trkpt>
      <trkpt lat="44.40965" lon="5.47334">
        <ele>998.9</ele>
        <time>2023-07-24T06:17:08Z</time>
      </trkpt>
      <trkpt lat="44.40962" lon="5.47332">
        <ele>999</ele>
        <time>2023-07-24T06:17:09Z</time>
      </trkpt>
      <trkpt lat="44.40959" lon="5.4733">
        <ele>999.1</ele>
        <time>2023-07-24T06:17:10Z</time>
      </trkpt>
      <trkpt lat="44.40956" lon="5.47328">
        <ele>999.2</ele>
        <time>2023-07-24T06:17:11Z</time>
      </trkpt>
      <trkpt lat="44.40953" lon="5.47327">
        <ele>999.3</ele>
        <time>2023-07-24T06:17:12Z</time>
      </trkpt>
      <trkpt lat="44.4095" lon="5.47325">
        <ele>999.4</ele>
        <time>2023-07-24T06:17:13Z</time>
      </trkpt>
      <trkpt lat="44.40947" lon="5.47324">
        <ele>999.4</ele>
        <time>2023-07-24T06:17:14Z</time>
      </trkpt>
      <trkpt lat="44.40944" lon="5.47323">
        <ele>999.5</ele>
        <time>2023-07-24T06:17:15Z</time>
      </trkpt>
      <trkpt lat="44.40941" lon="5.47322">
        <ele>999.6</ele>
        <time>2023-07-24T06:17:16Z</time>
      </trkpt>
      <trkpt lat="44.40937" lon="5.4732">
        <ele>999.7</ele>
        <time>2023-07-24T06:17:17Z</time>
      </trkpt>
      <trkpt lat="44.40936" lon="5.4732">
        <ele>999.8</ele>
        <time>2023-07-24T06:17:18Z</time>
      </trkpt>
      <trkpt lat="44.40932" lon="5.47317">
        <ele>999.9</ele>
        <time>2023-07-24T06:17:19Z</time>
      </trkpt>
      <trkpt lat="44.40931" lon="5.47316">
        <ele>999.9</ele>
        <time>2023-07-24T06:17:20Z</time>
      </trkpt>
      <trkpt lat="44.40927" lon="5.47313">
        <ele>1000</ele>
        <time>2023-07-24T06:17:21Z</time>
      </trkpt>
      <trkpt lat="44.40926" lon="5.47313">
        <ele>1000</ele>
        <time>2023-07-24T06:17:22Z</time>
      </trkpt>
      <trkpt lat="44.40923" lon="5.47311">
        <ele>1000.1</ele>
        <time>2023-07-24T06:17:23Z</time>
      </trkpt>
      <trkpt lat="44.4092" lon="5.4731">
        <ele>1000.2</ele>
        <time>2023-07-24T06:17:24Z</time>
      </trkpt>
      <trkpt lat="44.40917" lon="5.47309">
        <ele>1000.3</ele>
        <time>2023-07-24T06:17:25Z</time>
      </trkpt>
      <trkpt lat="44.40914" lon="5.47307">
        <ele>1000.4</ele>
        <time>2023-07-24T06:17:26Z</time>
      </trkpt>
      <trkpt lat="44.40912" lon="5.47303">
        <ele>1000.5</ele>
        <time>2023-07-24T06:17:27Z</time>
      </trkpt>
      <trkpt lat="44.40911" lon="5.47302">
        <ele>1000.5</ele>
        <time>2023-07-24T06:17:28Z</time>
      </trkpt>
      <trkpt lat="44.40909" lon="5.47299">
        <ele>1000.6</ele>
        <time>2023-07-24T06:17:29Z</time>
      </trkpt>
      <trkpt lat="44.40908" lon="5.47298">
        <ele>1000.6</ele>
        <time>2023-07-24T06:17:30Z</time>
      </trkpt>
      <trkpt lat="44.40906" lon="5.47294">
        <ele>1000.7</ele>
        <time>2023-07-24T06:17:31Z</time>
      </trkpt>
      <trkpt lat="44.40905" lon="5.47293">
        <ele>1000.8</ele>
        <time>2023-07-24T06:17:32Z</time>
      </trkpt>
      <trkpt lat="44.40903" lon="5.47289">
        <ele>1000.8</ele>
        <time>2023-07-24T06:17:33Z</time>
      </trkpt>
      <trkpt lat="44.40902" lon="5.47288">
        <ele>1000.9</ele>
        <time>2023-07-24T06:17:34Z</time>
      </trkpt>
      <trkpt lat="44.40901" lon="5.47284">
        <ele>1001</ele>
        <time>2023-07-24T06:17:35Z</time>
      </trkpt>
      <trkpt lat="44.409" lon="5.47283">
        <ele>1001</ele>
        <time>2023-07-24T06:17:36Z</time>
      </trkpt>
      <trkpt lat="44.40897" lon="5.4728">
        <ele>1001.1</ele>
        <time>2023-07-24T06:17:37Z</time>
      </trkpt>
      <trkpt lat="44.40897" lon="5.47279">
        <ele>1001.1</ele>
        <time>2023-07-24T06:17:38Z</time>
      </trkpt>
      <trkpt lat="44.40894" lon="5.47277">
        <ele>1001.2</ele>
        <time>2023-07-24T06:17:39Z</time>
      </trkpt>
      <trkpt lat="44.40893" lon="5.47277">
        <ele>1001.2</ele>
        <time>2023-07-24T06:17:40Z</time>
      </trkpt>
      <trkpt lat="44.40889" lon="5.47275">
        <ele>1001.3</ele>
        <time>2023-07-24T06:17:41Z</time>
      </trkpt>
      <trkpt lat="44.40888" lon="5.47275">
        <ele>1001.4</ele>
        <time>2023-07-24T06:17:42Z</time>
      </trkpt>
      <trkpt lat="44.40885" lon="5.47274">
        <ele>1001.4</ele>
        <time>2023-07-24T06:17:43Z</time>
      </trkpt>
      <trkpt lat="44.40881" lon="5.47273">
        <ele>1001.5</ele>
        <time>2023-07-24T06:17:44Z</time>
      </trkpt>
      <trkpt lat="44.4088" lon="5.47273">
        <ele>1001.6</ele>
        <time>2023-07-24T06:17:45Z</time>
      </trkpt>
      <trkpt lat="44.40877" lon="5.47272">
        <ele>1001.7</ele>
        <time>2023-07-24T06:17:46Z</time>
      </trkpt>
      <trkpt lat="44.40874" lon="5.47272">
        <ele>1001.7</ele>
        <time>2023-07-24T06:17:47Z</time>
      </trkpt>
      <trkpt lat="44.4087" lon="5.47271">
        <ele>1001.8</ele>
        <time>2023-07-24T06:17:48Z</time>
      </trkpt>
      <trkpt lat="44.40868" lon="5.4727">
        <ele>1001.9</ele>
        <time>2023-07-24T06:17:49Z</time>
      </trkpt>
      <trkpt lat="44.40865" lon="5.47269">
        <ele>1002</ele>
        <time>2023-07-24T06:17:50Z</time>
      </trkpt>
      <trkpt lat="44.40862" lon="5.47269">
        <ele>1002.1</ele>
        <time>2023-07-24T06:17:51Z</time>
      </trkpt>
      <trkpt lat="44.40858" lon="5.47269">
        <ele>1002.2</ele>
        <time>2023-07-24T06:17:52Z</time>
      </trkpt>
      <trkpt lat="44.40857" lon="5.47269">
        <ele>1002.2</ele>
        <time>2023-07-24T06:17:53Z</time>
      </trkpt>
      <trkpt lat="44.40853" lon="5.47268">
        <ele>1002.3</ele>
        <time>2023-07-24T06:17:54Z</time>
      </trkpt>
      <trkpt lat="44.40852" lon="5.47267">
        <ele>1002.3</ele>
        <time>2023-07-24T06:17:55Z</time>
      </trkpt>
      <trkpt lat="44.40849" lon="5.47266">
        <ele>1002.4</ele>
        <time>2023-07-24T06:17:56Z</time>
      </trkpt>
      <trkpt lat="44.40846" lon="5.47264">
        <ele>1002.5</ele>
        <time>2023-07-24T06:17:57Z</time>
      </trkpt>
      <trkpt lat="44.40845" lon="5.47264">
        <ele>1002.5</ele>
        <time>2023-07-24T06:17:58Z</time>
      </trkpt>
      <trkpt lat="44.40842" lon="5.47263">
        <ele>1002.6</ele>
        <time>2023-07-24T06:17:59Z</time>
      </trkpt>
      <trkpt lat="44.4084" lon="5.47263">
        <ele>1002.7</ele>
        <time>2023-07-24T06:18:00Z</time>
      </trkpt>
      <trkpt lat="44.40837" lon="5.47261">
        <ele>1002.8</ele>
        <time>2023-07-24T06:18:01Z</time>
      </trkpt>
      <trkpt lat="44.40834" lon="5.4726">
        <ele>1002.8</ele>
        <time>2023-07-24T06:18:02Z</time>
      </trkpt>
      <trkpt lat="44.40832" lon="5.47259">
        <ele>1002.9</ele>
        <time>2023-07-24T06:18:03Z</time>
      </trkpt>
      <trkpt lat="44.40829" lon="5.47257">
        <ele>1003</ele>
        <time>2023-07-24T06:18:04Z</time>
      </trkpt>
      <trkpt lat="44.40826" lon="5.47255">
        <ele>1003.1</ele>
        <time>2023-07-24T06:18:05Z</time>
      </trkpt>
      <trkpt lat="44.40823" lon="5.47253">
        <ele>1003.2</ele>
        <time>2023-07-24T06:18:06Z</time>
      </trkpt>
      <trkpt lat="44.40819" lon="5.47252">
        <ele>1003.3</ele>
        <time>2023-07-24T06:18:07Z</time>
      </trkpt>
      <trkpt lat="44.40817" lon="5.4725">
        <ele>1003.3</ele>
        <time>2023-07-24T06:18:08Z</time>
      </trkpt>
      <trkpt lat="44.40814" lon="5.47248">
        <ele>1003.4</ele>
        <time>2023-07-24T06:18:09Z</time>
      </trkpt>
      <trkpt lat="44.40811" lon="5.47246">
        <ele>1003.5</ele>
        <time>2023-07-24T06:18:10Z</time>
      </trkpt>
      <trkpt lat="44.40808" lon="5.47244">
        <ele>1003.6</ele>
        <time>2023-07-24T06:18:11Z</time>
      </trkpt>
      <trkpt lat="44.40805" lon="5.47243">
        <ele>1003.7</ele>
        <time>2023-07-24T06:18:12Z</time>
      </trkpt>
      <trkpt lat="44.40801" lon="5.47241">
        <ele>1003.8</ele>
        <time>2023-07-24T06:18:13Z</time>
      </trkpt>
      <trkpt lat="44.40799" lon="5.47238">
        <ele>1003.9</ele>
        <time>2023-07-24T06:18:14Z</time>
      </trkpt>
      <trkpt lat="44.40796" lon="5.47236">
        <ele>1004</ele>
        <time>2023-07-24T06:18:15Z</time>
      </trkpt>
      <trkpt lat="44.40793" lon="5.47234">
        <ele>1004</ele>
        <time>2023-07-24T06:18:16Z</time>
      </trkpt>
      <trkpt lat="44.40791" lon="5.47232">
        <ele>1004.1</ele>
        <time>2023-07-24T06:18:17Z</time>
      </trkpt>
      <trkpt lat="44.40789" lon="5.4723">
        <ele>1004.2</ele>
        <time>2023-07-24T06:18:18Z</time>
      </trkpt>
      <trkpt lat="44.40787" lon="5.47227">
        <ele>1004.3</ele>
        <time>2023-07-24T06:18:19Z</time>
      </trkpt>
      <trkpt lat="44.40785" lon="5.47224">
        <ele>1004.3</ele>
        <time>2023-07-24T06:18:20Z</time>
      </trkpt>
      <trkpt lat="44.40782" lon="5.47222">
        <ele>1004.4</ele>
        <time>2023-07-24T06:18:21Z</time>
      </trkpt>
      <trkpt lat="44.4078" lon="5.47219">
        <ele>1004.5</ele>
        <time>2023-07-24T06:18:22Z</time>
      </trkpt>
      <trkpt lat="44.40778" lon="5.47216">
        <ele>1004.6</ele>
        <time>2023-07-24T06:18:23Z</time>
      </trkpt>
      <trkpt lat="44.40775" lon="5.47213">
        <ele>1004.7</ele>
        <time>2023-07-24T06:18:24Z</time>
      </trkpt>
      <trkpt lat="44.40773" lon="5.4721">
        <ele>1004.8</ele>
        <time>2023-07-24T06:18:25Z</time>
      </trkpt>
      <trkpt lat="44.4077" lon="5.47208">
        <ele>1004.8</ele>
        <time>2023-07-24T06:18:26Z</time>
      </trkpt>
      <trkpt lat="44.40768" lon="5.47206">
        <ele>1004.9</ele>
        <time>2023-07-24T06:18:27Z</time>
      </trkpt>
      <trkpt lat="44.40766" lon="5.47204">
        <ele>1005</ele>
        <time>2023-07-24T06:18:28Z</time>
      </trkpt>
      <trkpt lat="44.40763" lon="5.47202">
        <ele>1005.1</ele>
        <time>2023-07-24T06:18:29Z</time>
      </trkpt>
      <trkpt lat="44.4076" lon="5.47201">
        <ele>1005.2</ele>
        <time>2023-07-24T06:18:30Z</time>
      </trkpt>
      <trkpt lat="44.40756" lon="5.47199">
        <ele>1005.3</ele>
        <time>2023-07-24T06:18:31Z</time>
      </trkpt>
      <trkpt lat="44.40753" lon="5.47197">
        <ele>1005.3</ele>
        <time>2023-07-24T06:18:32Z</time>
      </trkpt>
      <trkpt lat="44.4075" lon="5.47197">
        <ele>1005.4</ele>
        <time>2023-07-24T06:18:33Z</time>
      </trkpt>
      <trkpt lat="44.40747" lon="5.47196">
        <ele>1005.5</ele>
        <time>2023-07-24T06:18:34Z</time>
      </trkpt>
      <trkpt lat="44.40745" lon="5.47195">
        <ele>1005.6</ele>
        <time>2023-07-24T06:18:35Z</time>
      </trkpt>
      <trkpt lat="44.40742" lon="5.47195">
        <ele>1005.6</ele>
        <time>2023-07-24T06:18:36Z</time>
      </trkpt>
      <trkpt lat="44.40739" lon="5.47194">
        <ele>1005.7</ele>
        <time>2023-07-24T06:18:37Z</time>
      </trkpt>
      <trkpt lat="44.40736" lon="5.47193">
        <ele>1005.8</ele>
        <time>2023-07-24T06:18:38Z</time>
      </trkpt>
      <trkpt lat="44.40733" lon="5.47192">
        <ele>1005.9</ele>
        <time>2023-07-24T06:18:39Z</time>
      </trkpt>
      <trkpt lat="44.4073" lon="5.4719">
        <ele>1006</ele>
        <time>2023-07-24T06:18:40Z</time>
      </trkpt>
      <trkpt lat="44.40729" lon="5.4719">
        <ele>1006</ele>
        <time>2023-07-24T06:18:41Z</time>
      </trkpt>
      <trkpt lat="44.40725" lon="5.47188">
        <ele>1006.1</ele>
        <time>2023-07-24T06:18:42Z</time>
      </trkpt>
      <trkpt lat="44.40723" lon="5.47187">
        <ele>1006.2</ele>
        <time>2023-07-24T06:18:43Z</time>
      </trkpt>
      <trkpt lat="44.40721" lon="5.47186">
        <ele>1006.3</ele>
        <time>2023-07-24T06:18:44Z</time>
      </trkpt>
      <trkpt lat="44.40718" lon="5.47184">
        <ele>1006.3</ele>
        <time>2023-07-24T06:18:45Z</time>
      </trkpt>
      <trkpt lat="44.40714" lon="5.47183">
        <ele>1006.4</ele>
        <time>2023-07-24T06:18:46Z</time>
      </trkpt>
      <trkpt lat="44.40711" lon="5.47182">
        <ele>1006.5</ele>
        <time>2023-07-24T06:18:47Z</time>
      </trkpt>
      <trkpt lat="44.40707" lon="5.47182">
        <ele>1006.6</ele>
        <time>2023-07-24T06:18:48Z</time>
      </trkpt>
      <trkpt lat="44.40704" lon="5.47182">
        <ele>1006.7</ele>
        <time>2023-07-24T06:18:49Z</time>
      </trkpt>
      <trkpt lat="44.40701" lon="5.47182">
        <ele>1006.8</ele>
        <time>2023-07-24T06:18:50Z</time>
      </trkpt>
      <trkpt lat="44.40697" lon="5.47182">
        <ele>1006.9</ele>
        <time>2023-07-24T06:18:51Z</time>
      </trkpt>
      <trkpt lat="44.40696" lon="5.47182">
        <ele>1006.9</ele>
        <time>2023-07-24T06:18:52Z</time>
      </trkpt>
      <trkpt lat="44.40693" lon="5.47183">
        <ele>1007</ele>
        <time>2023-07-24T06:18:53Z</time>
      </trkpt>
      <trkpt lat="44.40689" lon="5.47183">
        <ele>1007.1</ele>
        <time>2023-07-24T06:18:54Z</time>
      </trkpt>
      <trkpt lat="44.40688" lon="5.47183">
        <ele>1007.2</ele>
        <time>2023-07-24T06:18:55Z</time>
      </trkpt>
      <trkpt lat="44.40685" lon="5.47183">
        <ele>1007.2</ele>
        <time>2023-07-24T06:18:56Z</time>
      </trkpt>
      <trkpt lat="44.40682" lon="5.47183">
        <ele>1007.3</ele>
        <time>2023-07-24T06:18:57Z</time>
      </trkpt>
      <trkpt lat="44.40678" lon="5.47183">
        <ele>1007.4</ele>
        <time>2023-07-24T06:18:58Z</time>
      </trkpt>
      <trkpt lat="44.40676" lon="5.47183">
        <ele>1007.5</ele>
        <time>2023-07-24T06:18:59Z</time>
      </trkpt>
      <trkpt lat="44.40673" lon="5.47182">
        <ele>1007.5</ele>
        <time>2023-07-24T06:19:00Z</time>
      </trkpt>
      <trkpt lat="44.4067" lon="5.47182">
        <ele>1007.6</ele>
        <time>2023-07-24T06:19:01Z</time>
      </trkpt>
      <trkpt lat="44.40668" lon="5.47181">
        <ele>1007.7</ele>
        <time>2023-07-24T06:19:02Z</time>
      </trkpt>
      <trkpt lat="44.40665" lon="5.47181">
        <ele>1007.8</ele>
        <time>2023-07-24T06:19:03Z</time>
      </trkpt>
      <trkpt lat="44.40661" lon="5.47181">
        <ele>1007.9</ele>
        <time>2023-07-24T06:19:04Z</time>
      </trkpt>
      <trkpt lat="44.40658" lon="5.47181">
        <ele>1008</ele>
        <time>2023-07-24T06:19:05Z</time>
      </trkpt>
      <trkpt lat="44.40655" lon="5.47181">
        <ele>1008</ele>
        <time>2023-07-24T06:19:06Z</time>
      </trkpt>
      <trkpt lat="44.40651" lon="5.4718">
        <ele>1008.1</ele>
        <time>2023-07-24T06:19:07Z</time>
      </trkpt>
      <trkpt lat="44.40648" lon="5.4718">
        <ele>1008.2</ele>
        <time>2023-07-24T06:19:08Z</time>
      </trkpt>
      <trkpt lat="44.40644" lon="5.47178">
        <ele>1008.3</ele>
        <time>2023-07-24T06:19:09Z</time>
      </trkpt>
      <trkpt lat="44.40641" lon="5.47176">
        <ele>1008.4</ele>
        <time>2023-07-24T06:19:10Z</time>
      </trkpt>
      <trkpt lat="44.40637" lon="5.47175">
        <ele>1008.5</ele>
        <time>2023-07-24T06:19:11Z</time>
      </trkpt>
      <trkpt lat="44.40634" lon="5.47173">
        <ele>1008.6</ele>
        <time>2023-07-24T06:19:12Z</time>
      </trkpt>
      <trkpt lat="44.4063" lon="5.47171">
        <ele>1008.7</ele>
        <time>2023-07-24T06:19:13Z</time>
      </trkpt>
      <trkpt lat="44.40627" lon="5.47169">
        <ele>1008.8</ele>
        <time>2023-07-24T06:19:14Z</time>
      </trkpt>
      <trkpt lat="44.40623" lon="5.47167">
        <ele>1008.9</ele>
        <time>2023-07-24T06:19:15Z</time>
      </trkpt>
      <trkpt lat="44.4062" lon="5.47165">
        <ele>1009</ele>
        <time>2023-07-24T06:19:16Z</time>
      </trkpt>
      <trkpt lat="44.40617" lon="5.47163">
        <ele>1009.1</ele>
        <time>2023-07-24T06:19:17Z</time>
      </trkpt>
      <trkpt lat="44.40613" lon="5.4716">
        <ele>1009.2</ele>
        <time>2023-07-24T06:19:18Z</time>
      </trkpt>
      <trkpt lat="44.4061" lon="5.47157">
        <ele>1009.3</ele>
        <time>2023-07-24T06:19:19Z</time>
      </trkpt>
      <trkpt lat="44.40606" lon="5.47154">
        <ele>1009.4</ele>
        <time>2023-07-24T06:19:20Z</time>
      </trkpt>
      <trkpt lat="44.40603" lon="5.47151">
        <ele>1009.6</ele>
        <time>2023-07-24T06:19:21Z</time>
      </trkpt>
      <trkpt lat="44.406" lon="5.47148">
        <ele>1009.7</ele>
        <time>2023-07-24T06:19:22Z</time>
      </trkpt>
      <trkpt lat="44.40596" lon="5.47146">
        <ele>1009.8</ele>
        <time>2023-07-24T06:19:23Z</time>
      </trkpt>
      <trkpt lat="44.40592" lon="5.47143">
        <ele>1009.9</ele>
        <time>2023-07-24T06:19:24Z</time>
      </trkpt>
      <trkpt lat="44.40588" lon="5.4714">
        <ele>1010</ele>
        <time>2023-07-24T06:19:25Z</time>
      </trkpt>
      <trkpt lat="44.40585" lon="5.47137">
        <ele>1010.1</ele>
        <time>2023-07-24T06:19:26Z</time>
      </trkpt>
      <trkpt lat="44.40582" lon="5.47133">
        <ele>1010.2</ele>
        <time>2023-07-24T06:19:27Z</time>
      </trkpt>
      <trkpt lat="44.40579" lon="5.47129">
        <ele>1010.3</ele>
        <time>2023-07-24T06:19:28Z</time>
      </trkpt>
      <trkpt lat="44.40576" lon="5.47126">
        <ele>1010.4</ele>
        <time>2023-07-24T06:19:29Z</time>
      </trkpt>
      <trkpt lat="44.40573" lon="5.47122">
        <ele>1010.5</ele>
        <time>2023-07-24T06:19:30Z</time>
      </trkpt>
      <trkpt lat="44.4057" lon="5.47118">
        <ele>1010.7</ele>
        <time>2023-07-24T06:19:31Z</time>
      </trkpt>
      <trkpt lat="44.40566" lon="5.47114">
        <ele>1010.8</ele>
        <time>2023-07-24T06:19:32Z</time>
      </trkpt>
      <trkpt lat="44.40563" lon="5.4711">
        <ele>1010.9</ele>
        <time>2023-07-24T06:19:33Z</time>
      </trkpt>
      <trkpt lat="44.40561" lon="5.47106">
        <ele>1011</ele>
        <time>2023-07-24T06:19:34Z</time>
      </trkpt>
      <trkpt lat="44.40558" lon="5.47102">
        <ele>1011.1</ele>
        <time>2023-07-24T06:19:35Z</time>
      </trkpt>
      <trkpt lat="44.40556" lon="5.47097">
        <ele>1011.2</ele>
        <time>2023-07-24T06:19:36Z</time>
      </trkpt>
      <trkpt lat="44.40553" lon="5.47093">
        <ele>1011.3</ele>
        <time>2023-07-24T06:19:37Z</time>
      </trkpt>
      <trkpt lat="44.40551" lon="5.47089">
        <ele>1011.4</ele>
        <time>2023-07-24T06:19:38Z</time>
      </trkpt>
      <trkpt lat="44.40548" lon="5.47084">
        <ele>1011.5</ele>
        <time>2023-07-24T06:19:39Z</time>
      </trkpt>
      <trkpt lat="44.40545" lon="5.47079">
        <ele>1011.7</ele>
        <time>2023-07-24T06:19:40Z</time>
      </trkpt>
      <trkpt lat="44.40543" lon="5.47074">
        <ele>1011.8</ele>
        <time>2023-07-24T06:19:41Z</time>
      </trkpt>
      <trkpt lat="44.4054" lon="5.47068">
        <ele>1011.9</ele>
        <time>2023-07-24T06:19:42Z</time>
      </trkpt>
      <trkpt lat="44.40538" lon="5.47064">
        <ele>1012</ele>
        <time>2023-07-24T06:19:43Z</time>
      </trkpt>
      <trkpt lat="44.40535" lon="5.47059">
        <ele>1012.1</ele>
        <time>2023-07-24T06:19:44Z</time>
      </trkpt>
      <trkpt lat="44.40532" lon="5.47055">
        <ele>1012.2</ele>
        <time>2023-07-24T06:19:45Z</time>
      </trkpt>
      <trkpt lat="44.40529" lon="5.47052">
        <ele>1012.3</ele>
        <time>2023-07-24T06:19:46Z</time>
      </trkpt>
      <trkpt lat="44.40526" lon="5.47048">
        <ele>1012.4</ele>
        <time>2023-07-24T06:19:47Z</time>
      </trkpt>
      <trkpt lat="44.40523" lon="5.47045">
        <ele>1012.6</ele>
        <time>2023-07-24T06:19:48Z</time>
      </trkpt>
      <trkpt lat="44.4052" lon="5.47041">
        <ele>1012.7</ele>
        <time>2023-07-24T06:19:49Z</time>
      </trkpt>
      <trkpt lat="44.40517" lon="5.47037">
        <ele>1012.8</ele>
        <time>2023-07-24T06:19:50Z</time>
      </trkpt>
      <trkpt lat="44.40513" lon="5.47034">
        <ele>1012.9</ele>
        <time>2023-07-24T06:19:51Z</time>
      </trkpt>
      <trkpt lat="44.4051" lon="5.4703">
        <ele>1013</ele>
        <time>2023-07-24T06:19:52Z</time>
      </trkpt>
      <trkpt lat="44.40506" lon="5.47027">
        <ele>1013.1</ele>
        <time>2023-07-24T06:19:53Z</time>
      </trkpt>
      <trkpt lat="44.40504" lon="5.47022">
        <ele>1013.2</ele>
        <time>2023-07-24T06:19:54Z</time>
      </trkpt>
      <trkpt lat="44.40501" lon="5.47018">
        <ele>1013.4</ele>
        <time>2023-07-24T06:19:55Z</time>
      </trkpt>
      <trkpt lat="44.40498" lon="5.47013">
        <ele>1013.5</ele>
        <time>2023-07-24T06:19:56Z</time>
      </trkpt>
      <trkpt lat="44.40495" lon="5.47008">
        <ele>1013.6</ele>
        <time>2023-07-24T06:19:57Z</time>
      </trkpt>
      <trkpt lat="44.40493" lon="5.47003">
        <ele>1013.7</ele>
        <time>2023-07-24T06:19:58Z</time>
      </trkpt>
      <trkpt lat="44.40491" lon="5.46998">
        <ele>1013.8</ele>
        <time>2023-07-24T06:19:59Z</time>
      </trkpt>
      <trkpt lat="44.4049" lon="5.46993">
        <ele>1013.9</ele>
        <time>2023-07-24T06:20:00Z</time>
      </trkpt>
      <trkpt lat="44.4049" lon="5.46987">
        <ele>1014</ele>
        <time>2023-07-24T06:20:01Z</time>
      </trkpt>
      <trkpt lat="44.4049" lon="5.46981">
        <ele>1014.1</ele>
        <time>2023-07-24T06:20:02Z</time>
      </trkpt>
      <trkpt lat="44.40491" lon="5.46976">
        <ele>1014.2</ele>
        <time>2023-07-24T06:20:03Z</time>
      </trkpt>
      <trkpt lat="44.40494" lon="5.46971">
        <ele>1014.2</ele>
        <time>2023-07-24T06:20:04Z</time>
      </trkpt>
      <trkpt lat="44.40497" lon="5.46967">
        <ele>1014.3</ele>
        <time>2023-07-24T06:20:05Z</time>
      </trkpt>
      <trkpt lat="44.405" lon="5.46962">
        <ele>1014.3</ele>
        <time>2023-07-24T06:20:06Z</time>
      </trkpt>
      <trkpt lat="44.40504" lon="5.46958">
        <ele>1014.4</ele>
        <time>2023-07-24T06:20:07Z</time>
      </trkpt>
      <trkpt lat="44.40507" lon="5.46953">
        <ele>1014.5</ele>
        <time>2023-07-24T06:20:08Z</time>
      </trkpt>
      <trkpt lat="44.4051" lon="5.46949">
        <ele>1014.5</ele>
        <time>2023-07-24T06:20:09Z</time>
      </trkpt>
      <trkpt lat="44.40514" lon="5.46945">
        <ele>1014.6</ele>
        <time>2023-07-24T06:20:10Z</time>
      </trkpt>
      <trkpt lat="44.40518" lon="5.46941">
        <ele>1014.7</ele>
        <time>2023-07-24T06:20:11Z</time>
      </trkpt>
      <trkpt lat="44.40521" lon="5.46937">
        <ele>1014.8</ele>
        <time>2023-07-24T06:20:12Z</time>
      </trkpt>
      <trkpt lat="44.40525" lon="5.46933">
        <ele>1014.9</ele>
        <time>2023-07-24T06:20:13Z</time>
      </trkpt>
      <trkpt lat="44.40529" lon="5.46929">
        <ele>1014.9</ele>
        <time>2023-07-24T06:20:14Z</time>
      </trkpt>
      <trkpt lat="44.40532" lon="5.46925">
        <ele>1015</ele>
        <time>2023-07-24T06:20:15Z</time>
      </trkpt>
      <trkpt lat="44.40536" lon="5.46922">
        <ele>1015.1</ele>
        <time>2023-07-24T06:20:16Z</time>
      </trkpt>
      <trkpt lat="44.4054" lon="5.46918">
        <ele>1015.2</ele>
        <time>2023-07-24T06:20:17Z</time>
      </trkpt>
      <trkpt lat="44.40543" lon="5.46914">
        <ele>1015.2</ele>
        <time>2023-07-24T06:20:18Z</time>
      </trkpt>
      <trkpt lat="44.40547" lon="5.46909">
        <ele>1015.3</ele>
        <time>2023-07-24T06:20:19Z</time>
      </trkpt>
      <trkpt lat="44.40551" lon="5.46904">
        <ele>1015.3</ele>
        <time>2023-07-24T06:20:20Z</time>
      </trkpt>
      <trkpt lat="44.40554" lon="5.46901">
        <ele>1015.4</ele>
        <time>2023-07-24T06:20:21Z</time>
      </trkpt>
      <trkpt lat="44.40558" lon="5.46896">
        <ele>1015.4</ele>
        <time>2023-07-24T06:20:22Z</time>
      </trkpt>
      <trkpt lat="44.40562" lon="5.46892">
        <ele>1015.4</ele>
        <time>2023-07-24T06:20:23Z</time>
      </trkpt>
      <trkpt lat="44.40565" lon="5.46887">
        <ele>1015.4</ele>
        <time>2023-07-24T06:20:24Z</time>
      </trkpt>
      <trkpt lat="44.40569" lon="5.46882">
        <ele>1015.5</ele>
        <time>2023-07-24T06:20:25Z</time>
      </trkpt>
      <trkpt lat="44.40572" lon="5.46876">
        <ele>1015.5</ele>
        <time>2023-07-24T06:20:26Z</time>
      </trkpt>
      <trkpt lat="44.40575" lon="5.46871">
        <ele>1015.6</ele>
        <time>2023-07-24T06:20:27Z</time>
      </trkpt>
      <trkpt lat="44.40579" lon="5.46865">
        <ele>1015.7</ele>
        <time>2023-07-24T06:20:28Z</time>
      </trkpt>
      <trkpt lat="44.40582" lon="5.4686">
        <ele>1015.8</ele>
        <time>2023-07-24T06:20:29Z</time>
      </trkpt>
      <trkpt lat="44.40585" lon="5.46855">
        <ele>1015.8</ele>
        <time>2023-07-24T06:20:30Z</time>
      </trkpt>
      <trkpt lat="44.40588" lon="5.4685">
        <ele>1015.9</ele>
        <time>2023-07-24T06:20:31Z</time>
      </trkpt>
      <trkpt lat="44.40591" lon="5.46845">
        <ele>1016</ele>
        <time>2023-07-24T06:20:32Z</time>
      </trkpt>
      <trkpt lat="44.40594" lon="5.4684">
        <ele>1016.1</ele>
        <time>2023-07-24T06:20:33Z</time>
      </trkpt>
      <trkpt lat="44.40596" lon="5.46835">
        <ele>1016.1</ele>
        <time>2023-07-24T06:20:34Z</time>
      </trkpt>
      <trkpt lat="44.40599" lon="5.46831">
        <ele>1016.1</ele>
        <time>2023-07-24T06:20:35Z</time>
      </trkpt>
      <trkpt lat="44.40602" lon="5.46826">
        <ele>1016.1</ele>
        <time>2023-07-24T06:20:36Z</time>
      </trkpt>
      <trkpt lat="44.40605" lon="5.46821">
        <ele>1016.1</ele>
        <time>2023-07-24T06:20:37Z</time>
      </trkpt>
      <trkpt lat="44.40607" lon="5.46817">
        <ele>1016.1</ele>
        <time>2023-07-24T06:20:38Z</time>
      </trkpt>
      <trkpt lat="44.4061" lon="5.46812">
        <ele>1016.2</ele>
        <time>2023-07-24T06:20:39Z</time>
      </trkpt>
      <trkpt lat="44.40613" lon="5.46807">
        <ele>1016.2</ele>
        <time>2023-07-24T06:20:40Z</time>
      </trkpt>
      <trkpt lat="44.40616" lon="5.46802">
        <ele>1016.6</ele>
        <time>2023-07-24T06:20:41Z</time>
      </trkpt>
      <trkpt lat="44.40618" lon="5.46798">
        <ele>1017</ele>
        <time>2023-07-24T06:20:42Z</time>
      </trkpt>
      <trkpt lat="44.4062" lon="5.46793">
        <ele>1017.3</ele>
        <time>2023-07-24T06:20:43Z</time>
      </trkpt>
      <trkpt lat="44.40622" lon="5.46788">
        <ele>1017.7</ele>
        <time>2023-07-24T06:20:44Z</time>
      </trkpt>
      <trkpt lat="44.40623" lon="5.46783">
        <ele>1018.1</ele>
        <time>2023-07-24T06:20:45Z</time>
      </trkpt>
      <trkpt lat="44.40625" lon="5.46778">
        <ele>1018.3</ele>
        <time>2023-07-24T06:20:46Z</time>
      </trkpt>
      <trkpt lat="44.40626" lon="5.46774">
        <ele>1018.6</ele>
        <time>2023-07-24T06:20:47Z</time>
      </trkpt>
      <trkpt lat="44.40627" lon="5.4677">
        <ele>1018.9</ele>
        <time>2023-07-24T06:20:48Z</time>
      </trkpt>
      <trkpt lat="44.40628" lon="5.46767">
        <ele>1019.1</ele>
        <time>2023-07-24T06:20:49Z</time>
      </trkpt>
      <trkpt lat="44.4063" lon="5.46763">
        <ele>1019.4</ele>
        <time>2023-07-24T06:20:50Z</time>
      </trkpt>
      <trkpt lat="44.40631" lon="5.46762">
        <ele>1019.6</ele>
        <time>2023-07-24T06:20:51Z</time>
      </trkpt>
      <trkpt lat="44.40633" lon="5.4676">
        <ele>1019.8</ele>
        <time>2023-07-24T06:20:52Z</time>
      </trkpt>
      <trkpt lat="44.40637" lon="5.46758">
        <ele>1020.1</ele>
        <time>2023-07-24T06:20:53Z</time>
      </trkpt>
      <trkpt lat="44.40638" lon="5.46758">
        <ele>1020.3</ele>
        <time>2023-07-24T06:20:54Z</time>
      </trkpt>
      <trkpt lat="44.40642" lon="5.46757">
        <ele>1020.6</ele>
        <time>2023-07-24T06:20:55Z</time>
      </trkpt>
      <trkpt lat="44.40643" lon="5.46756">
        <ele>1020.7</ele>
        <time>2023-07-24T06:20:56Z</time>
      </trkpt>
      <trkpt lat="44.40647" lon="5.46756">
        <ele>1021.1</ele>
        <time>2023-07-24T06:20:57Z</time>
      </trkpt>
      <trkpt lat="44.40648" lon="5.46756">
        <ele>1021.2</ele>
        <time>2023-07-24T06:20:58Z</time>
      </trkpt>
      <trkpt lat="44.40651" lon="5.46757">
        <ele>1021.5</ele>
        <time>2023-07-24T06:20:59Z</time>
      </trkpt>
      <trkpt lat="44.40654" lon="5.46757">
        <ele>1021.8</ele>
        <time>2023-07-24T06:21:00Z</time>
      </trkpt>
      <trkpt lat="44.40659" lon="5.46757">
        <ele>1022.1</ele>
        <time>2023-07-24T06:21:01Z</time>
      </trkpt>
      <trkpt lat="44.4066" lon="5.46757">
        <ele>1022.3</ele>
        <time>2023-07-24T06:21:02Z</time>
      </trkpt>
      <trkpt lat="44.40664" lon="5.46757">
        <ele>1022.6</ele>
        <time>2023-07-24T06:21:03Z</time>
      </trkpt>
      <trkpt lat="44.40665" lon="5.46757">
        <ele>1022.7</ele>
        <time>2023-07-24T06:21:04Z</time>
      </trkpt>
      <trkpt lat="44.40668" lon="5.46757">
        <ele>1023</ele>
        <time>2023-07-24T06:21:05Z</time>
      </trkpt>
      <trkpt lat="44.40671" lon="5.46758">
        <ele>1023.2</ele>
        <time>2023-07-24T06:21:06Z</time>
      </trkpt>
      <trkpt lat="44.40675" lon="5.46758">
        <ele>1023.6</ele>
        <time>2023-07-24T06:21:07Z</time>
      </trkpt>
      <trkpt lat="44.40676" lon="5.46758">
        <ele>1023.7</ele>
        <time>2023-07-24T06:21:08Z</time>
      </trkpt>
      <trkpt lat="44.4068" lon="5.46758">
        <ele>1024.1</ele>
        <time>2023-07-24T06:21:09Z</time>
      </trkpt>
      <trkpt lat="44.40681" lon="5.46758">
        <ele>1024.2</ele>
        <time>2023-07-24T06:21:10Z</time>
      </trkpt>
      <trkpt lat="44.40685" lon="5.46758">
        <ele>1024.5</ele>
        <time>2023-07-24T06:21:11Z</time>
      </trkpt>
      <trkpt lat="44.40686" lon="5.46758">
        <ele>1024.6</ele>
        <time>2023-07-24T06:21:12Z</time>
      </trkpt>
      <trkpt lat="44.4069" lon="5.46759">
        <ele>1024.9</ele>
        <time>2023-07-24T06:21:13Z</time>
      </trkpt>
      <trkpt lat="44.40691" lon="5.46759">
        <ele>1025.1</ele>
        <time>2023-07-24T06:21:14Z</time>
      </trkpt>
      <trkpt lat="44.40695" lon="5.46761">
        <ele>1025.4</ele>
        <time>2023-07-24T06:21:15Z</time>
      </trkpt>
      <trkpt lat="44.40696" lon="5.46761">
        <ele>1025.5</ele>
        <time>2023-07-24T06:21:16Z</time>
      </trkpt>
      <trkpt lat="44.407" lon="5.46763">
        <ele>1025.9</ele>
        <time>2023-07-24T06:21:17Z</time>
      </trkpt>
      <trkpt lat="44.40701" lon="5.46764">
        <ele>1026</ele>
        <time>2023-07-24T06:21:18Z</time>
      </trkpt>
      <trkpt lat="44.40704" lon="5.46766">
        <ele>1026.3</ele>
        <time>2023-07-24T06:21:19Z</time>
      </trkpt>
      <trkpt lat="44.40705" lon="5.46766">
        <ele>1026.4</ele>
        <time>2023-07-24T06:21:20Z</time>
      </trkpt>
      <trkpt lat="44.40709" lon="5.46769">
        <ele>1026.8</ele>
        <time>2023-07-24T06:21:21Z</time>
      </trkpt>
      <trkpt lat="44.4071" lon="5.46769">
        <ele>1026.9</ele>
        <time>2023-07-24T06:21:22Z</time>
      </trkpt>
      <trkpt lat="44.40713" lon="5.46772">
        <ele>1027.2</ele>
        <time>2023-07-24T06:21:23Z</time>
      </trkpt>
      <trkpt lat="44.40714" lon="5.46773">
        <ele>1027.3</ele>
        <time>2023-07-24T06:21:24Z</time>
      </trkpt>
      <trkpt lat="44.40717" lon="5.46776">
        <ele>1027.7</ele>
        <time>2023-07-24T06:21:25Z</time>
      </trkpt>
      <trkpt lat="44.40718" lon="5.46776">
        <ele>1027.8</ele>
        <time>2023-07-24T06:21:26Z</time>
      </trkpt>
      <trkpt lat="44.40721" lon="5.46778">
        <ele>1028.1</ele>
        <time>2023-07-24T06:21:27Z</time>
      </trkpt>
      <trkpt lat="44.40723" lon="5.46779">
        <ele>1028.2</ele>
        <time>2023-07-24T06:21:28Z</time>
      </trkpt>
      <trkpt lat="44.40726" lon="5.46781">
        <ele>1028.5</ele>
        <time>2023-07-24T06:21:29Z</time>
      </trkpt>
      <trkpt lat="44.40727" lon="5.46782">
        <ele>1028.6</ele>
        <time>2023-07-24T06:21:30Z</time>
      </trkpt>
      <trkpt lat="44.4073" lon="5.46783">
        <ele>1029</ele>
        <time>2023-07-24T06:21:31Z</time>
      </trkpt>
      <trkpt lat="44.40732" lon="5.46784">
        <ele>1029.1</ele>
        <time>2023-07-24T06:21:32Z</time>
      </trkpt>
      <trkpt lat="44.40734" lon="5.46786">
        <ele>1029.3</ele>
        <time>2023-07-24T06:21:33Z</time>
      </trkpt>
      <trkpt lat="44.40738" lon="5.46788">
        <ele>1029.7</ele>
        <time>2023-07-24T06:21:34Z</time>
      </trkpt>
      <trkpt lat="44.40739" lon="5.46788">
        <ele>1029.8</ele>
        <time>2023-07-24T06:21:35Z</time>
      </trkpt>
      <trkpt lat="44.40742" lon="5.4679">
        <ele>1030</ele>
        <time>2023-07-24T06:21:36Z</time>
      </trkpt>
      <trkpt lat="44.40743" lon="5.46791">
        <ele>1030.2</ele>
        <time>2023-07-24T06:21:37Z</time>
      </trkpt>
      <trkpt lat="44.40746" lon="5.46793">
        <ele>1030.5</ele>
        <time>2023-07-24T06:21:38Z</time>
      </trkpt>
      <trkpt lat="44.40747" lon="5.46794">
        <ele>1030.6</ele>
        <time>2023-07-24T06:21:39Z</time>
      </trkpt>
      <trkpt lat="44.4075" lon="5.46796">
        <ele>1030.9</ele>
        <time>2023-07-24T06:21:40Z</time>
      </trkpt>
      <trkpt lat="44.40751" lon="5.46797">
        <ele>1031</ele>
        <time>2023-07-24T06:21:41Z</time>
      </trkpt>
      <trkpt lat="44.40753" lon="5.46799">
        <ele>1031.2</ele>
        <time>2023-07-24T06:21:42Z</time>
      </trkpt>
      <trkpt lat="44.40754" lon="5.468">
        <ele>1031.3</ele>
        <time>2023-07-24T06:21:43Z</time>
      </trkpt>
      <trkpt lat="44.40757" lon="5.46801">
        <ele>1031.6</ele>
        <time>2023-07-24T06:21:44Z</time>
      </trkpt>
      <trkpt lat="44.40757" lon="5.46802">
        <ele>1031.7</ele>
        <time>2023-07-24T06:21:45Z</time>
      </trkpt>
      <trkpt lat="44.4076" lon="5.46804">
        <ele>1031.9</ele>
        <time>2023-07-24T06:21:46Z</time>
      </trkpt>
      <trkpt lat="44.40761" lon="5.46805">
        <ele>1032</ele>
        <time>2023-07-24T06:21:47Z</time>
      </trkpt>
      <trkpt lat="44.40763" lon="5.46808">
        <ele>1032.3</ele>
        <time>2023-07-24T06:21:48Z</time>
      </trkpt>
      <trkpt lat="44.40764" lon="5.46809">
        <ele>1032.4</ele>
        <time>2023-07-24T06:21:49Z</time>
      </trkpt>
      <trkpt lat="44.40767" lon="5.46811">
        <ele>1032.7</ele>
        <time>2023-07-24T06:21:50Z</time>
      </trkpt>
      <trkpt lat="44.40768" lon="5.46812">
        <ele>1032.8</ele>
        <time>2023-07-24T06:21:51Z</time>
      </trkpt>
      <trkpt lat="44.40772" lon="5.46814">
        <ele>1033.2</ele>
        <time>2023-07-24T06:21:52Z</time>
      </trkpt>
      <trkpt lat="44.40773" lon="5.46814">
        <ele>1033.3</ele>
        <time>2023-07-24T06:21:53Z</time>
      </trkpt>
      <trkpt lat="44.40776" lon="5.46816">
        <ele>1033.5</ele>
        <time>2023-07-24T06:21:54Z</time>
      </trkpt>
      <trkpt lat="44.40777" lon="5.46816">
        <ele>1033.6</ele>
        <time>2023-07-24T06:21:55Z</time>
      </trkpt>
      <trkpt lat="44.40779" lon="5.46818">
        <ele>1033.9</ele>
        <time>2023-07-24T06:21:56Z</time>
      </trkpt>
      <trkpt lat="44.4078" lon="5.46819">
        <ele>1034</ele>
        <time>2023-07-24T06:21:57Z</time>
      </trkpt>
      <trkpt lat="44.40783" lon="5.4682">
        <ele>1034.3</ele>
        <time>2023-07-24T06:21:58Z</time>
      </trkpt>
      <trkpt lat="44.40785" lon="5.46821">
        <ele>1034.4</ele>
        <time>2023-07-24T06:21:59Z</time>
      </trkpt>
      <trkpt lat="44.40788" lon="5.46822">
        <ele>1034.7</ele>
        <time>2023-07-24T06:22:00Z</time>
      </trkpt>
      <trkpt lat="44.40789" lon="5.46823">
        <ele>1034.8</ele>
        <time>2023-07-24T06:22:01Z</time>
      </trkpt>
      <trkpt lat="44.40792" lon="5.46824">
        <ele>1035.1</ele>
        <time>2023-07-24T06:22:02Z</time>
      </trkpt>
      <trkpt lat="44.40793" lon="5.46824">
        <ele>1035.2</ele>
        <time>2023-07-24T06:22:03Z</time>
      </trkpt>
      <trkpt lat="44.40796" lon="5.46826">
        <ele>1035.5</ele>
        <time>2023-07-24T06:22:04Z</time>
      </trkpt>
      <trkpt lat="44.40797" lon="5.46826">
        <ele>1035.6</ele>
        <time>2023-07-24T06:22:05Z</time>
      </trkpt>
      <trkpt lat="44.408" lon="5.46827">
        <ele>1035.9</ele>
        <time>2023-07-24T06:22:06Z</time>
      </trkpt>
      <trkpt lat="44.40801" lon="5.46827">
        <ele>1036</ele>
        <time>2023-07-24T06:22:07Z</time>
      </trkpt>
      <trkpt lat="44.40805" lon="5.46828">
        <ele>1036.3</ele>
        <time>2023-07-24T06:22:08Z</time>
      </trkpt>
      <trkpt lat="44.40806" lon="5.46829">
        <ele>1036.4</ele>
        <time>2023-07-24T06:22:09Z</time>
      </trkpt>
      <trkpt lat="44.4081" lon="5.46829">
        <ele>1036.8</ele>
        <time>2023-07-24T06:22:10Z</time>
      </trkpt>
      <trkpt lat="44.40811" lon="5.4683">
        <ele>1036.8</ele>
        <time>2023-07-24T06:22:11Z</time>
      </trkpt>
      <trkpt lat="44.40814" lon="5.4683">
        <ele>1037.1</ele>
        <time>2023-07-24T06:22:12Z</time>
      </trkpt>
      <trkpt lat="44.40815" lon="5.46831">
        <ele>1037.2</ele>
        <time>2023-07-24T06:22:13Z</time>
      </trkpt>
      <trkpt lat="44.40816" lon="5.46831">
        <ele>1037.3</ele>
        <time>2023-07-24T06:22:14Z</time>
      </trkpt>
      <trkpt lat="44.40818" lon="5.46831">
        <ele>1037.5</ele>
        <time>2023-07-24T06:22:15Z</time>
      </trkpt>
      <trkpt lat="44.4082" lon="5.46832">
        <ele>1037.6</ele>
        <time>2023-07-24T06:22:16Z</time>
      </trkpt>
      <trkpt lat="44.40821" lon="5.46832">
        <ele>1037.8</ele>
        <time>2023-07-24T06:22:17Z</time>
      </trkpt>
      <trkpt lat="44.40823" lon="5.46833">
        <ele>1037.9</ele>
        <time>2023-07-24T06:22:18Z</time>
      </trkpt>
      <trkpt lat="44.40824" lon="5.46833">
        <ele>1038.1</ele>
        <time>2023-07-24T06:22:19Z</time>
      </trkpt>
      <trkpt lat="44.40826" lon="5.46833">
        <ele>1038.2</ele>
        <time>2023-07-24T06:22:20Z</time>
      </trkpt>
      <trkpt lat="44.40828" lon="5.46833">
        <ele>1038.4</ele>
        <time>2023-07-24T06:22:21Z</time>
      </trkpt>
      <trkpt lat="44.40829" lon="5.46833">
        <ele>1038.5</ele>
        <time>2023-07-24T06:22:22Z</time>
      </trkpt>
      <trkpt lat="44.40831" lon="5.46833">
        <ele>1038.7</ele>
        <time>2023-07-24T06:22:23Z</time>
      </trkpt>
      <trkpt lat="44.40835" lon="5.46834">
        <ele>1039</ele>
        <time>2023-07-24T06:22:24Z</time>
      </trkpt>
      <trkpt lat="44.40836" lon="5.46834">
        <ele>1039.1</ele>
        <time>2023-07-24T06:22:25Z</time>
      </trkpt>
      <trkpt lat="44.40839" lon="5.46834">
        <ele>1039.4</ele>
        <time>2023-07-24T06:22:26Z</time>
      </trkpt>
      <trkpt lat="44.4084" lon="5.46834">
        <ele>1039.5</ele>
        <time>2023-07-24T06:22:27Z</time>
      </trkpt>
      <trkpt lat="44.40844" lon="5.46836">
        <ele>1039.8</ele>
        <time>2023-07-24T06:22:28Z</time>
      </trkpt>
      <trkpt lat="44.40845" lon="5.46836">
        <ele>1039.9</ele>
        <time>2023-07-24T06:22:29Z</time>
      </trkpt>
      <trkpt lat="44.40848" lon="5.46838">
        <ele>1040.3</ele>
        <time>2023-07-24T06:22:30Z</time>
      </trkpt>
      <trkpt lat="44.40849" lon="5.46839">
        <ele>1040.4</ele>
        <time>2023-07-24T06:22:31Z</time>
      </trkpt>
      <trkpt lat="44.40852" lon="5.46841">
        <ele>1040.7</ele>
        <time>2023-07-24T06:22:32Z</time>
      </trkpt>
      <trkpt lat="44.40853" lon="5.46841">
        <ele>1040.8</ele>
        <time>2023-07-24T06:22:33Z</time>
      </trkpt>
      <trkpt lat="44.40856" lon="5.46843">
        <ele>1041.1</ele>
        <time>2023-07-24T06:22:34Z</time>
      </trkpt>
      <trkpt lat="44.40857" lon="5.46843">
        <ele>1041.2</ele>
        <time>2023-07-24T06:22:35Z</time>
      </trkpt>
      <trkpt lat="44.40859" lon="5.46844">
        <ele>1041.3</ele>
        <time>2023-07-24T06:22:36Z</time>
      </trkpt>
      <trkpt lat="44.4086" lon="5.46846">
        <ele>1041.5</ele>
        <time>2023-07-24T06:22:37Z</time>
      </trkpt>
      <trkpt lat="44.40862" lon="5.46848">
        <ele>1041.7</ele>
        <time>2023-07-24T06:22:38Z</time>
      </trkpt>
      <trkpt lat="44.40863" lon="5.4685">
        <ele>1041.8</ele>
        <time>2023-07-24T06:22:39Z</time>
      </trkpt>
      <trkpt lat="44.40865" lon="5.46852">
        <ele>1042.1</ele>
        <time>2023-07-24T06:22:40Z</time>
      </trkpt>
      <trkpt lat="44.40866" lon="5.46853">
        <ele>1042.2</ele>
        <time>2023-07-24T06:22:41Z</time>
      </trkpt>
      <trkpt lat="44.40869" lon="5.46856">
        <ele>1042.5</ele>
        <time>2023-07-24T06:22:42Z</time>
      </trkpt>
      <trkpt lat="44.40869" lon="5.46857">
        <ele>1042.6</ele>
        <time>2023-07-24T06:22:43Z</time>
      </trkpt>
      <trkpt lat="44.40871" lon="5.4686">
        <ele>1042.8</ele>
        <time>2023-07-24T06:22:44Z</time>
      </trkpt>
      <trkpt lat="44.40872" lon="5.46861">
        <ele>1042.9</ele>
        <time>2023-07-24T06:22:45Z</time>
      </trkpt>
      <trkpt lat="44.40873" lon="5.46863">
        <ele>1043.1</ele>
        <time>2023-07-24T06:22:46Z</time>
      </trkpt>
      <trkpt lat="44.40874" lon="5.46865">
        <ele>1043.2</ele>
        <time>2023-07-24T06:22:47Z</time>
      </trkpt>
      <trkpt lat="44.40876" lon="5.46868">
        <ele>1043.5</ele>
        <time>2023-07-24T06:22:48Z</time>
      </trkpt>
      <trkpt lat="44.40877" lon="5.4687">
        <ele>1043.6</ele>
        <time>2023-07-24T06:22:49Z</time>
      </trkpt>
      <trkpt lat="44.40879" lon="5.46873">
        <ele>1043.9</ele>
        <time>2023-07-24T06:22:50Z</time>
      </trkpt>
      <trkpt lat="44.40879" lon="5.46874">
        <ele>1044</ele>
        <time>2023-07-24T06:22:51Z</time>
      </trkpt>
      <trkpt lat="44.40882" lon="5.46876">
        <ele>1044.2</ele>
        <time>2023-07-24T06:22:52Z</time>
      </trkpt>
      <trkpt lat="44.40883" lon="5.46877">
        <ele>1044.3</ele>
        <time>2023-07-24T06:22:53Z</time>
      </trkpt>
      <trkpt lat="44.40885" lon="5.4688">
        <ele>1044.6</ele>
        <time>2023-07-24T06:22:54Z</time>
      </trkpt>
      <trkpt lat="44.40886" lon="5.46881">
        <ele>1044.7</ele>
        <time>2023-07-24T06:22:55Z</time>
      </trkpt>
      <trkpt lat="44.40889" lon="5.46884">
        <ele>1045</ele>
        <time>2023-07-24T06:22:56Z</time>
      </trkpt>
      <trkpt lat="44.4089" lon="5.46885">
        <ele>1045.2</ele>
        <time>2023-07-24T06:22:57Z</time>
      </trkpt>
      <trkpt lat="44.40892" lon="5.46887">
        <ele>1045.4</ele>
        <time>2023-07-24T06:22:58Z</time>
      </trkpt>
      <trkpt lat="44.40894" lon="5.46888">
        <ele>1045.6</ele>
        <time>2023-07-24T06:22:59Z</time>
      </trkpt>
      <trkpt lat="44.40896" lon="5.4689">
        <ele>1045.8</ele>
        <time>2023-07-24T06:23:00Z</time>
      </trkpt>
      <trkpt lat="44.40897" lon="5.46891">
        <ele>1045.9</ele>
        <time>2023-07-24T06:23:01Z</time>
      </trkpt>
      <trkpt lat="44.409" lon="5.46894">
        <ele>1046.2</ele>
        <time>2023-07-24T06:23:02Z</time>
      </trkpt>
      <trkpt lat="44.40901" lon="5.46895">
        <ele>1046.4</ele>
        <time>2023-07-24T06:23:03Z</time>
      </trkpt>
      <trkpt lat="44.40903" lon="5.46897">
        <ele>1046.6</ele>
        <time>2023-07-24T06:23:04Z</time>
      </trkpt>
      <trkpt lat="44.40906" lon="5.469">
        <ele>1046.9</ele>
        <time>2023-07-24T06:23:05Z</time>
      </trkpt>
      <trkpt lat="44.40907" lon="5.46901">
        <ele>1047</ele>
        <time>2023-07-24T06:23:06Z</time>
      </trkpt>
      <trkpt lat="44.4091" lon="5.46903">
        <ele>1047.3</ele>
        <time>2023-07-24T06:23:07Z</time>
      </trkpt>
      <trkpt lat="44.40911" lon="5.46904">
        <ele>1047.4</ele>
        <time>2023-07-24T06:23:08Z</time>
      </trkpt>
      <trkpt lat="44.40913" lon="5.46906">
        <ele>1047.7</ele>
        <time>2023-07-24T06:23:09Z</time>
      </trkpt>
      <trkpt lat="44.40914" lon="5.46906">
        <ele>1047.8</ele>
        <time>2023-07-24T06:23:10Z</time>
      </trkpt>
      <trkpt lat="44.40917" lon="5.46908">
        <ele>1048.1</ele>
        <time>2023-07-24T06:23:11Z</time>
      </trkpt>
      <trkpt lat="44.40918" lon="5.46909">
        <ele>1048.2</ele>
        <time>2023-07-24T06:23:12Z</time>
      </trkpt>
      <trkpt lat="44.40921" lon="5.4691">
        <ele>1048.5</ele>
        <time>2023-07-24T06:23:13Z</time>
      </trkpt>
      <trkpt lat="44.40922" lon="5.46911">
        <ele>1048.6</ele>
        <time>2023-07-24T06:23:14Z</time>
      </trkpt>
      <trkpt lat="44.40925" lon="5.46912">
        <ele>1048.8</ele>
        <time>2023-07-24T06:23:15Z</time>
      </trkpt>
      <trkpt lat="44.40926" lon="5.46913">
        <ele>1048.9</ele>
        <time>2023-07-24T06:23:16Z</time>
      </trkpt>
      <trkpt lat="44.4093" lon="5.46914">
        <ele>1049.3</ele>
        <time>2023-07-24T06:23:17Z</time>
      </trkpt>
      <trkpt lat="44.40931" lon="5.46915">
        <ele>1049.3</ele>
        <time>2023-07-24T06:23:18Z</time>
      </trkpt>
      <trkpt lat="44.40933" lon="5.46917">
        <ele>1049.6</ele>
        <time>2023-07-24T06:23:19Z</time>
      </trkpt>
      <trkpt lat="44.40934" lon="5.46918">
        <ele>1049.7</ele>
        <time>2023-07-24T06:23:20Z</time>
      </trkpt>
      <trkpt lat="44.40938" lon="5.4692">
        <ele>1050</ele>
        <time>2023-07-24T06:23:21Z</time>
      </trkpt>
      <trkpt lat="44.40939" lon="5.4692">
        <ele>1050.1</ele>
        <time>2023-07-24T06:23:22Z</time>
      </trkpt>
      <trkpt lat="44.40942" lon="5.46922">
        <ele>1050.4</ele>
        <time>2023-07-24T06:23:23Z</time>
      </trkpt>
      <trkpt lat="44.40943" lon="5.46922">
        <ele>1050.5</ele>
        <time>2023-07-24T06:23:24Z</time>
      </trkpt>
      <trkpt lat="44.40946" lon="5.46925">
        <ele>1050.8</ele>
        <time>2023-07-24T06:23:25Z</time>
      </trkpt>
      <trkpt lat="44.40947" lon="5.46925">
        <ele>1050.9</ele>
        <time>2023-07-24T06:23:26Z</time>
      </trkpt>
      <trkpt lat="44.40949" lon="5.46928">
        <ele>1051.2</ele>
        <time>2023-07-24T06:23:27Z</time>
      </trkpt>
      <trkpt lat="44.4095" lon="5.46928">
        <ele>1051.3</ele>
        <time>2023-07-24T06:23:28Z</time>
      </trkpt>
      <trkpt lat="44.40953" lon="5.4693">
        <ele>1051.6</ele>
        <time>2023-07-24T06:23:29Z</time>
      </trkpt>
      <trkpt lat="44.40954" lon="5.46931">
        <ele>1051.7</ele>
        <time>2023-07-24T06:23:30Z</time>
      </trkpt>
      <trkpt lat="44.40957" lon="5.46933">
        <ele>1051.9</ele>
        <time>2023-07-24T06:23:31Z</time>
      </trkpt>
      <trkpt lat="44.40957" lon="5.46933">
        <ele>1052</ele>
        <time>2023-07-24T06:23:32Z</time>
      </trkpt>
      <trkpt lat="44.40961" lon="5.46935">
        <ele>1052.3</ele>
        <time>2023-07-24T06:23:33Z</time>
      </trkpt>
      <trkpt lat="44.40962" lon="5.46935">
        <ele>1052.4</ele>
        <time>2023-07-24T06:23:34Z</time>
      </trkpt>
      <trkpt lat="44.40965" lon="5.46937">
        <ele>1052.8</ele>
        <time>2023-07-24T06:23:35Z</time>
      </trkpt>
      <trkpt lat="44.40967" lon="5.46938">
        <ele>1052.9</ele>
        <time>2023-07-24T06:23:36Z</time>
      </trkpt>
      <trkpt lat="44.40969" lon="5.46939">
        <ele>1053.2</ele>
        <time>2023-07-24T06:23:37Z</time>
      </trkpt>
      <trkpt lat="44.4097" lon="5.4694">
        <ele>1053.3</ele>
        <time>2023-07-24T06:23:38Z</time>
      </trkpt>
      <trkpt lat="44.40973" lon="5.46941">
        <ele>1053.5</ele>
        <time>2023-07-24T06:23:39Z</time>
      </trkpt>
      <trkpt lat="44.40974" lon="5.46941">
        <ele>1053.6</ele>
        <time>2023-07-24T06:23:40Z</time>
      </trkpt>
      <trkpt lat="44.40977" lon="5.46943">
        <ele>1053.9</ele>
        <time>2023-07-24T06:23:41Z</time>
      </trkpt>
      <trkpt lat="44.40978" lon="5.46943">
        <ele>1054</ele>
        <time>2023-07-24T06:23:42Z</time>
      </trkpt>
      <trkpt lat="44.40981" lon="5.46944">
        <ele>1054.2</ele>
        <time>2023-07-24T06:23:43Z</time>
      </trkpt>
      <trkpt lat="44.40981" lon="5.46945">
        <ele>1054.3</ele>
        <time>2023-07-24T06:23:44Z</time>
      </trkpt>
      <trkpt lat="44.40984" lon="5.46946">
        <ele>1054.6</ele>
        <time>2023-07-24T06:23:45Z</time>
      </trkpt>
      <trkpt lat="44.40985" lon="5.46946">
        <ele>1054.7</ele>
        <time>2023-07-24T06:23:46Z</time>
      </trkpt>
      <trkpt lat="44.40988" lon="5.46946">
        <ele>1054.9</ele>
        <time>2023-07-24T06:23:47Z</time>
      </trkpt>
      <trkpt lat="44.40989" lon="5.46946">
        <ele>1055</ele>
        <time>2023-07-24T06:23:48Z</time>
      </trkpt>
      <trkpt lat="44.40992" lon="5.46946">
        <ele>1055.3</ele>
        <time>2023-07-24T06:23:49Z</time>
      </trkpt>
      <trkpt lat="44.40993" lon="5.46946">
        <ele>1055.4</ele>
        <time>2023-07-24T06:23:50Z</time>
      </trkpt>
      <trkpt lat="44.40996" lon="5.46946">
        <ele>1055.7</ele>
        <time>2023-07-24T06:23:51Z</time>
      </trkpt>
      <trkpt lat="44.40997" lon="5.46946">
        <ele>1055.8</ele>
        <time>2023-07-24T06:23:52Z</time>
      </trkpt>
      <trkpt lat="44.41" lon="5.46947">
        <ele>1056</ele>
        <time>2023-07-24T06:23:53Z</time>
      </trkpt>
      <trkpt lat="44.41001" lon="5.46948">
        <ele>1056.1</ele>
        <time>2023-07-24T06:23:54Z</time>
      </trkpt>
      <trkpt lat="44.41004" lon="5.46948">
        <ele>1056.4</ele>
        <time>2023-07-24T06:23:55Z</time>
      </trkpt>
      <trkpt lat="44.41005" lon="5.46948">
        <ele>1056.5</ele>
        <time>2023-07-24T06:23:56Z</time>
      </trkpt>
      <trkpt lat="44.41008" lon="5.46948">
        <ele>1056.7</ele>
        <time>2023-07-24T06:23:57Z</time>
      </trkpt>
      <trkpt lat="44.41009" lon="5.46948">
        <ele>1056.8</ele>
        <time>2023-07-24T06:23:58Z</time>
      </trkpt>
      <trkpt lat="44.41012" lon="5.46948">
        <ele>1057.1</ele>
        <time>2023-07-24T06:23:59Z</time>
      </trkpt>
      <trkpt lat="44.41013" lon="5.46948">
        <ele>1057.2</ele>
        <time>2023-07-24T06:24:00Z</time>
      </trkpt>
      <trkpt lat="44.41016" lon="5.46947">
        <ele>1057.5</ele>
        <time>2023-07-24T06:24:01Z</time>
      </trkpt>
      <trkpt lat="44.41017" lon="5.46947">
        <ele>1057.6</ele>
        <time>2023-07-24T06:24:02Z</time>
      </trkpt>
      <trkpt lat="44.41021" lon="5.46948">
        <ele>1057.9</ele>
        <time>2023-07-24T06:24:03Z</time>
      </trkpt>
      <trkpt lat="44.41022" lon="5.46948">
        <ele>1058</ele>
        <time>2023-07-24T06:24:04Z</time>
      </trkpt>
      <trkpt lat="44.41025" lon="5.46949">
        <ele>1058.3</ele>
        <time>2023-07-24T06:24:05Z</time>
      </trkpt>
      <trkpt lat="44.41027" lon="5.46949">
        <ele>1058.4</ele>
        <time>2023-07-24T06:24:06Z</time>
      </trkpt>
      <trkpt lat="44.4103" lon="5.46949">
        <ele>1058.7</ele>
        <time>2023-07-24T06:24:07Z</time>
      </trkpt>
      <trkpt lat="44.41031" lon="5.46949">
        <ele>1058.8</ele>
        <time>2023-07-24T06:24:08Z</time>
      </trkpt>
      <trkpt lat="44.41034" lon="5.4695">
        <ele>1059.1</ele>
        <time>2023-07-24T06:24:09Z</time>
      </trkpt>
      <trkpt lat="44.41035" lon="5.46951">
        <ele>1059.2</ele>
        <time>2023-07-24T06:24:10Z</time>
      </trkpt>
      <trkpt lat="44.41036" lon="5.46952">
        <ele>1059.3</ele>
        <time>2023-07-24T06:24:11Z</time>
      </trkpt>
      <trkpt lat="44.41038" lon="5.46952">
        <ele>1059.5</ele>
        <time>2023-07-24T06:24:12Z</time>
      </trkpt>
      <trkpt lat="44.41041" lon="5.46953">
        <ele>1059.8</ele>
        <time>2023-07-24T06:24:13Z</time>
      </trkpt>
      <trkpt lat="44.41042" lon="5.46954">
        <ele>1059.8</ele>
        <time>2023-07-24T06:24:14Z</time>
      </trkpt>
      <trkpt lat="44.41045" lon="5.46954">
        <ele>1060.2</ele>
        <time>2023-07-24T06:24:15Z</time>
      </trkpt>
      <trkpt lat="44.41047" lon="5.46954">
        <ele>1060.3</ele>
        <time>2023-07-24T06:24:16Z</time>
      </trkpt>
      <trkpt lat="44.4105" lon="5.46955">
        <ele>1060.6</ele>
        <time>2023-07-24T06:24:17Z</time>
      </trkpt>
      <trkpt lat="44.41051" lon="5.46955">
        <ele>1060.7</ele>
        <time>2023-07-24T06:24:18Z</time>
      </trkpt>
      <trkpt lat="44.41053" lon="5.46955">
        <ele>1060.8</ele>
        <time>2023-07-24T06:24:19Z</time>
      </trkpt>
      <trkpt lat="44.41055" lon="5.46956">
        <ele>1061</ele>
        <time>2023-07-24T06:24:20Z</time>
      </trkpt>
      <trkpt lat="44.41057" lon="5.46956">
        <ele>1061.2</ele>
        <time>2023-07-24T06:24:21Z</time>
      </trkpt>
      <trkpt lat="44.41058" lon="5.46957">
        <ele>1061.3</ele>
        <time>2023-07-24T06:24:22Z</time>
      </trkpt>
      <trkpt lat="44.41062" lon="5.46957">
        <ele>1061.6</ele>
        <time>2023-07-24T06:24:23Z</time>
      </trkpt>
      <trkpt lat="44.41063" lon="5.46957">
        <ele>1061.7</ele>
        <time>2023-07-24T06:24:24Z</time>
      </trkpt>
      <trkpt lat="44.41066" lon="5.46957">
        <ele>1062.1</ele>
        <time>2023-07-24T06:24:25Z</time>
      </trkpt>
      <trkpt lat="44.41067" lon="5.46957">
        <ele>1062.2</ele>
        <time>2023-07-24T06:24:26Z</time>
      </trkpt>
      <trkpt lat="44.41071" lon="5.46957">
        <ele>1062.5</ele>
        <time>2023-07-24T06:24:27Z</time>
      </trkpt>
      <trkpt lat="44.41072" lon="5.46958">
        <ele>1062.6</ele>
        <time>2023-07-24T06:24:28Z</time>
      </trkpt>
      <trkpt lat="44.41075" lon="5.46958">
        <ele>1062.9</ele>
        <time>2023-07-24T06:24:29Z</time>
      </trkpt>
      <trkpt lat="44.41077" lon="5.46958">
        <ele>1063</ele>
        <time>2023-07-24T06:24:30Z</time>
      </trkpt>
      <trkpt lat="44.4108" lon="5.46959">
        <ele>1063.3</ele>
        <time>2023-07-24T06:24:31Z</time>
      </trkpt>
      <trkpt lat="44.41081" lon="5.46959">
        <ele>1063.4</ele>
        <time>2023-07-24T06:24:32Z</time>
      </trkpt>
      <trkpt lat="44.41084" lon="5.46959">
        <ele>1063.7</ele>
        <time>2023-07-24T06:24:33Z</time>
      </trkpt>
      <trkpt lat="44.41085" lon="5.46959">
        <ele>1063.7</ele>
        <time>2023-07-24T06:24:34Z</time>
      </trkpt>
      <trkpt lat="44.41089" lon="5.46959">
        <ele>1064.1</ele>
        <time>2023-07-24T06:24:35Z</time>
      </trkpt>
      <trkpt lat="44.4109" lon="5.46959">
        <ele>1064.2</ele>
        <time>2023-07-24T06:24:36Z</time>
      </trkpt>
      <trkpt lat="44.41093" lon="5.46959">
        <ele>1064.5</ele>
        <time>2023-07-24T06:24:37Z</time>
      </trkpt>
      <trkpt lat="44.41094" lon="5.46959">
        <ele>1064.6</ele>
        <time>2023-07-24T06:24:38Z</time>
      </trkpt>
      <trkpt lat="44.41097" lon="5.4696">
        <ele>1064.8</ele>
        <time>2023-07-24T06:24:39Z</time>
      </trkpt>
      <trkpt lat="44.41098" lon="5.4696">
        <ele>1064.9</ele>
        <time>2023-07-24T06:24:40Z</time>
      </trkpt>
      <trkpt lat="44.41101" lon="5.4696">
        <ele>1065.2</ele>
        <time>2023-07-24T06:24:41Z</time>
      </trkpt>
      <trkpt lat="44.41103" lon="5.4696">
        <ele>1065.3</ele>
        <time>2023-07-24T06:24:42Z</time>
      </trkpt>
      <trkpt lat="44.41107" lon="5.4696">
        <ele>1065.7</ele>
        <time>2023-07-24T06:24:43Z</time>
      </trkpt>
      <trkpt lat="44.41108" lon="5.46961">
        <ele>1065.8</ele>
        <time>2023-07-24T06:24:44Z</time>
      </trkpt>
      <trkpt lat="44.41111" lon="5.46962">
        <ele>1066.1</ele>
        <time>2023-07-24T06:24:45Z</time>
      </trkpt>
      <trkpt lat="44.41112" lon="5.46962">
        <ele>1066.2</ele>
        <time>2023-07-24T06:24:46Z</time>
      </trkpt>
      <trkpt lat="44.41115" lon="5.46962">
        <ele>1066.5</ele>
        <time>2023-07-24T06:24:47Z</time>
      </trkpt>
      <trkpt lat="44.41116" lon="5.46962">
        <ele>1066.6</ele>
        <time>2023-07-24T06:24:48Z</time>
      </trkpt>
      <trkpt lat="44.4112" lon="5.46962">
        <ele>1066.9</ele>
        <time>2023-07-24T06:24:49Z</time>
      </trkpt>
      <trkpt lat="44.41121" lon="5.46962">
        <ele>1067</ele>
        <time>2023-07-24T06:24:50Z</time>
      </trkpt>
      <trkpt lat="44.41124" lon="5.46963">
        <ele>1067.3</ele>
        <time>2023-07-24T06:24:51Z</time>
      </trkpt>
      <trkpt lat="44.41125" lon="5.46963">
        <ele>1067.4</ele>
        <time>2023-07-24T06:24:52Z</time>
      </trkpt>
      <trkpt lat="44.41129" lon="5.46963">
        <ele>1067.7</ele>
        <time>2023-07-24T06:24:53Z</time>
      </trkpt>
      <trkpt lat="44.4113" lon="5.46964">
        <ele>1067.8</ele>
        <time>2023-07-24T06:24:54Z</time>
      </trkpt>
      <trkpt lat="44.41133" lon="5.46964">
        <ele>1068.1</ele>
        <time>2023-07-24T06:24:55Z</time>
      </trkpt>
      <trkpt lat="44.41134" lon="5.46964">
        <ele>1068.2</ele>
        <time>2023-07-24T06:24:56Z</time>
      </trkpt>
      <trkpt lat="44.41138" lon="5.46964">
        <ele>1068.5</ele>
        <time>2023-07-24T06:24:57Z</time>
      </trkpt>
      <trkpt lat="44.41139" lon="5.46964">
        <ele>1068.6</ele>
        <time>2023-07-24T06:24:58Z</time>
      </trkpt>
      <trkpt lat="44.41141" lon="5.46964">
        <ele>1068.9</ele>
        <time>2023-07-24T06:24:59Z</time>
      </trkpt>
      <trkpt lat="44.41142" lon="5.46964">
        <ele>1068.9</ele>
        <time>2023-07-24T06:25:00Z</time>
      </trkpt>
      <trkpt lat="44.41144" lon="5.46965">
        <ele>1069.1</ele>
        <time>2023-07-24T06:25:01Z</time>
      </trkpt>
      <trkpt lat="44.41146" lon="5.46965">
        <ele>1069.2</ele>
        <time>2023-07-24T06:25:02Z</time>
      </trkpt>
      <trkpt lat="44.41149" lon="5.46965">
        <ele>1069.5</ele>
        <time>2023-07-24T06:25:03Z</time>
      </trkpt>
      <trkpt lat="44.4115" lon="5.46965">
        <ele>1069.6</ele>
        <time>2023-07-24T06:25:04Z</time>
      </trkpt>
      <trkpt lat="44.41152" lon="5.46965">
        <ele>1069.8</ele>
        <time>2023-07-24T06:25:05Z</time>
      </trkpt>
      <trkpt lat="44.41153" lon="5.46965">
        <ele>1069.9</ele>
        <time>2023-07-24T06:25:06Z</time>
      </trkpt>
      <trkpt lat="44.41156" lon="5.46964">
        <ele>1070.2</ele>
        <time>2023-07-24T06:25:07Z</time>
      </trkpt>
      <trkpt lat="44.41157" lon="5.46964">
        <ele>1070.3</ele>
        <time>2023-07-24T06:25:08Z</time>
      </trkpt>
      <trkpt lat="44.4116" lon="5.46962">
        <ele>1070.6</ele>
        <time>2023-07-24T06:25:09Z</time>
      </trkpt>
      <trkpt lat="44.41161" lon="5.46962">
        <ele>1070.6</ele>
        <time>2023-07-24T06:25:10Z</time>
      </trkpt>
      <trkpt lat="44.41165" lon="5.46961">
        <ele>1071</ele>
        <time>2023-07-24T06:25:11Z</time>
      </trkpt>
      <trkpt lat="44.41166" lon="5.4696">
        <ele>1071.1</ele>
        <time>2023-07-24T06:25:12Z</time>
      </trkpt>
      <trkpt lat="44.4117" lon="5.4696">
        <ele>1071.4</ele>
        <time>2023-07-24T06:25:13Z</time>
      </trkpt>
      <trkpt lat="44.41171" lon="5.4696">
        <ele>1071.5</ele>
        <time>2023-07-24T06:25:14Z</time>
      </trkpt>
      <trkpt lat="44.41174" lon="5.4696">
        <ele>1071.8</ele>
        <time>2023-07-24T06:25:15Z</time>
      </trkpt>
      <trkpt lat="44.41175" lon="5.4696">
        <ele>1071.9</ele>
        <time>2023-07-24T06:25:16Z</time>
      </trkpt>
      <trkpt lat="44.41179" lon="5.46959">
        <ele>1072.2</ele>
        <time>2023-07-24T06:25:17Z</time>
      </trkpt>
      <trkpt lat="44.4118" lon="5.46959">
        <ele>1072.3</ele>
        <time>2023-07-24T06:25:18Z</time>
      </trkpt>
      <trkpt lat="44.41183" lon="5.46959">
        <ele>1072.6</ele>
        <time>2023-07-24T06:25:19Z</time>
      </trkpt>
      <trkpt lat="44.41184" lon="5.46959">
        <ele>1072.7</ele>
        <time>2023-07-24T06:25:20Z</time>
      </trkpt>
      <trkpt lat="44.41187" lon="5.46959">
        <ele>1073</ele>
        <time>2023-07-24T06:25:21Z</time>
      </trkpt>
      <trkpt lat="44.41189" lon="5.46959">
        <ele>1073.1</ele>
        <time>2023-07-24T06:25:22Z</time>
      </trkpt>
      <trkpt lat="44.41192" lon="5.4696">
        <ele>1073.5</ele>
        <time>2023-07-24T06:25:23Z</time>
      </trkpt>
      <trkpt lat="44.41193" lon="5.4696">
        <ele>1073.6</ele>
        <time>2023-07-24T06:25:24Z</time>
      </trkpt>
      <trkpt lat="44.41196" lon="5.46961">
        <ele>1073.9</ele>
        <time>2023-07-24T06:25:25Z</time>
      </trkpt>
      <trkpt lat="44.41197" lon="5.46961">
        <ele>1073.9</ele>
        <time>2023-07-24T06:25:26Z</time>
      </trkpt>
      <trkpt lat="44.41201" lon="5.46962">
        <ele>1074.3</ele>
        <time>2023-07-24T06:25:27Z</time>
      </trkpt>
      <trkpt lat="44.41202" lon="5.46962">
        <ele>1074.4</ele>
        <time>2023-07-24T06:25:28Z</time>
      </trkpt>
      <trkpt lat="44.41205" lon="5.46962">
        <ele>1074.7</ele>
        <time>2023-07-24T06:25:29Z</time>
      </trkpt>
      <trkpt lat="44.41206" lon="5.46962">
        <ele>1074.8</ele>
        <time>2023-07-24T06:25:30Z</time>
      </trkpt>
      <trkpt lat="44.41209" lon="5.46962">
        <ele>1075</ele>
        <time>2023-07-24T06:25:31Z</time>
      </trkpt>
      <trkpt lat="44.41211" lon="5.46961">
        <ele>1075.1</ele>
        <time>2023-07-24T06:25:32Z</time>
      </trkpt>
      <trkpt lat="44.41214" lon="5.46962">
        <ele>1075.4</ele>
        <time>2023-07-24T06:25:33Z</time>
      </trkpt>
      <trkpt lat="44.41215" lon="5.46963">
        <ele>1075.5</ele>
        <time>2023-07-24T06:25:34Z</time>
      </trkpt>
      <trkpt lat="44.41218" lon="5.46963">
        <ele>1075.8</ele>
        <time>2023-07-24T06:25:35Z</time>
      </trkpt>
      <trkpt lat="44.41219" lon="5.46963">
        <ele>1075.9</ele>
        <time>2023-07-24T06:25:36Z</time>
      </trkpt>
      <trkpt lat="44.41222" lon="5.46963">
        <ele>1076.2</ele>
        <time>2023-07-24T06:25:37Z</time>
      </trkpt>
      <trkpt lat="44.41223" lon="5.46963">
        <ele>1076.3</ele>
        <time>2023-07-24T06:25:38Z</time>
      </trkpt>
      <trkpt lat="44.41226" lon="5.46963">
        <ele>1076.5</ele>
        <time>2023-07-24T06:25:39Z</time>
      </trkpt>
      <trkpt lat="44.41227" lon="5.46962">
        <ele>1076.6</ele>
        <time>2023-07-24T06:25:40Z</time>
      </trkpt>
      <trkpt lat="44.4123" lon="5.46962">
        <ele>1076.9</ele>
        <time>2023-07-24T06:25:41Z</time>
      </trkpt>
      <trkpt lat="44.41231" lon="5.46962">
        <ele>1077</ele>
        <time>2023-07-24T06:25:42Z</time>
      </trkpt>
      <trkpt lat="44.41233" lon="5.46963">
        <ele>1077.2</ele>
        <time>2023-07-24T06:25:43Z</time>
      </trkpt>
      <trkpt lat="44.41234" lon="5.46963">
        <ele>1077.3</ele>
        <time>2023-07-24T06:25:44Z</time>
      </trkpt>
      <trkpt lat="44.41237" lon="5.46964">
        <ele>1077.5</ele>
        <time>2023-07-24T06:25:45Z</time>
      </trkpt>
      <trkpt lat="44.41238" lon="5.46963">
        <ele>1077.6</ele>
        <time>2023-07-24T06:25:46Z</time>
      </trkpt>
      <trkpt lat="44.4124" lon="5.46963">
        <ele>1077.8</ele>
        <time>2023-07-24T06:25:47Z</time>
      </trkpt>
      <trkpt lat="44.41242" lon="5.46963">
        <ele>1077.9</ele>
        <time>2023-07-24T06:25:48Z</time>
      </trkpt>
      <trkpt lat="44.41245" lon="5.46964">
        <ele>1078.2</ele>
        <time>2023-07-24T06:25:49Z</time>
      </trkpt>
      <trkpt lat="44.41246" lon="5.46964">
        <ele>1078.3</ele>
        <time>2023-07-24T06:25:50Z</time>
      </trkpt>
      <trkpt lat="44.41249" lon="5.46964">
        <ele>1078.6</ele>
        <time>2023-07-24T06:25:51Z</time>
      </trkpt>
      <trkpt lat="44.4125" lon="5.46964">
        <ele>1078.7</ele>
        <time>2023-07-24T06:25:52Z</time>
      </trkpt>
      <trkpt lat="44.41253" lon="5.46964">
        <ele>1079</ele>
        <time>2023-07-24T06:25:53Z</time>
      </trkpt>
      <trkpt lat="44.41254" lon="5.46964">
        <ele>1079.1</ele>
        <time>2023-07-24T06:25:54Z</time>
      </trkpt>
      <trkpt lat="44.41256" lon="5.46964">
        <ele>1079.2</ele>
        <time>2023-07-24T06:25:55Z</time>
      </trkpt>
      <trkpt lat="44.41258" lon="5.46964">
        <ele>1079.4</ele>
        <time>2023-07-24T06:25:56Z</time>
      </trkpt>
      <trkpt lat="44.4126" lon="5.46965">
        <ele>1079.6</ele>
        <time>2023-07-24T06:25:57Z</time>
      </trkpt>
      <trkpt lat="44.41262" lon="5.46965">
        <ele>1079.7</ele>
        <time>2023-07-24T06:25:58Z</time>
      </trkpt>
      <trkpt lat="44.41265" lon="5.46964">
        <ele>1080</ele>
        <time>2023-07-24T06:25:59Z</time>
      </trkpt>
      <trkpt lat="44.41266" lon="5.46964">
        <ele>1080.1</ele>
        <time>2023-07-24T06:26:00Z</time>
      </trkpt>
      <trkpt lat="44.41269" lon="5.46964">
        <ele>1080.4</ele>
        <time>2023-07-24T06:26:01Z</time>
      </trkpt>
      <trkpt lat="44.4127" lon="5.46964">
        <ele>1080.5</ele>
        <time>2023-07-24T06:26:02Z</time>
      </trkpt>
      <trkpt lat="44.41273" lon="5.46965">
        <ele>1080.7</ele>
        <time>2023-07-24T06:26:03Z</time>
      </trkpt>
      <trkpt lat="44.41274" lon="5.46965">
        <ele>1080.8</ele>
        <time>2023-07-24T06:26:04Z</time>
      </trkpt>
      <trkpt lat="44.41276" lon="5.46967">
        <ele>1081.1</ele>
        <time>2023-07-24T06:26:05Z</time>
      </trkpt>
      <trkpt lat="44.41277" lon="5.46967">
        <ele>1081.2</ele>
        <time>2023-07-24T06:26:06Z</time>
      </trkpt>
      <trkpt lat="44.4128" lon="5.46968">
        <ele>1081.5</ele>
        <time>2023-07-24T06:26:07Z</time>
      </trkpt>
      <trkpt lat="44.41281" lon="5.46968">
        <ele>1081.6</ele>
        <time>2023-07-24T06:26:08Z</time>
      </trkpt>
      <trkpt lat="44.41285" lon="5.46969">
        <ele>1081.9</ele>
        <time>2023-07-24T06:26:09Z</time>
      </trkpt>
      <trkpt lat="44.41286" lon="5.46969">
        <ele>1082</ele>
        <time>2023-07-24T06:26:10Z</time>
      </trkpt>
      <trkpt lat="44.41289" lon="5.4697">
        <ele>1082.3</ele>
        <time>2023-07-24T06:26:11Z</time>
      </trkpt>
      <trkpt lat="44.4129" lon="5.4697">
        <ele>1082.4</ele>
        <time>2023-07-24T06:26:12Z</time>
      </trkpt>
      <trkpt lat="44.41294" lon="5.46971">
        <ele>1082.7</ele>
        <time>2023-07-24T06:26:13Z</time>
      </trkpt>
      <trkpt lat="44.41295" lon="5.46972">
        <ele>1082.8</ele>
        <time>2023-07-24T06:26:14Z</time>
      </trkpt>
      <trkpt lat="44.41298" lon="5.46973">
        <ele>1083.1</ele>
        <time>2023-07-24T06:26:15Z</time>
      </trkpt>
      <trkpt lat="44.41299" lon="5.46974">
        <ele>1083.2</ele>
        <time>2023-07-24T06:26:16Z</time>
      </trkpt>
      <trkpt lat="44.41301" lon="5.46975">
        <ele>1083.3</ele>
        <time>2023-07-24T06:26:17Z</time>
      </trkpt>
      <trkpt lat="44.41305" lon="5.46977">
        <ele>1083.7</ele>
        <time>2023-07-24T06:26:19Z</time>
      </trkpt>
      <trkpt lat="44.41308" lon="5.46979">
        <ele>1084</ele>
        <time>2023-07-24T06:26:20Z</time>
      </trkpt>
      <trkpt lat="44.41308" lon="5.46979">
        <ele>1084.1</ele>
        <time>2023-07-24T06:26:21Z</time>
      </trkpt>
      <trkpt lat="44.41311" lon="5.46981">
        <ele>1084.4</ele>
        <time>2023-07-24T06:26:22Z</time>
      </trkpt>
      <trkpt lat="44.41312" lon="5.46982">
        <ele>1084.5</ele>
        <time>2023-07-24T06:26:23Z</time>
      </trkpt>
      <trkpt lat="44.41315" lon="5.46983">
        <ele>1084.8</ele>
        <time>2023-07-24T06:26:24Z</time>
      </trkpt>
      <trkpt lat="44.41316" lon="5.46984">
        <ele>1084.8</ele>
        <time>2023-07-24T06:26:25Z</time>
      </trkpt>
      <trkpt lat="44.41319" lon="5.46985">
        <ele>1085.1</ele>
        <time>2023-07-24T06:26:26Z</time>
      </trkpt>
      <trkpt lat="44.4132" lon="5.46986">
        <ele>1085.2</ele>
        <time>2023-07-24T06:26:27Z</time>
      </trkpt>
      <trkpt lat="44.41323" lon="5.46987">
        <ele>1085.5</ele>
        <time>2023-07-24T06:26:28Z</time>
      </trkpt>
      <trkpt lat="44.41323" lon="5.46988">
        <ele>1085.6</ele>
        <time>2023-07-24T06:26:29Z</time>
      </trkpt>
      <trkpt lat="44.41325" lon="5.46989">
        <ele>1085.7</ele>
        <time>2023-07-24T06:26:30Z</time>
      </trkpt>
      <trkpt lat="44.41326" lon="5.46991">
        <ele>1085.9</ele>
        <time>2023-07-24T06:26:31Z</time>
      </trkpt>
      <trkpt lat="44.41328" lon="5.46994">
        <ele>1086.1</ele>
        <time>2023-07-24T06:26:32Z</time>
      </trkpt>
      <trkpt lat="44.41329" lon="5.46994">
        <ele>1086.2</ele>
        <time>2023-07-24T06:26:33Z</time>
      </trkpt>
      <trkpt lat="44.41332" lon="5.46996">
        <ele>1086.5</ele>
        <time>2023-07-24T06:26:34Z</time>
      </trkpt>
      <trkpt lat="44.41333" lon="5.46997">
        <ele>1086.6</ele>
        <time>2023-07-24T06:26:35Z</time>
      </trkpt>
      <trkpt lat="44.41335" lon="5.46999">
        <ele>1086.9</ele>
        <time>2023-07-24T06:26:36Z</time>
      </trkpt>
      <trkpt lat="44.41336" lon="5.46999">
        <ele>1087</ele>
        <time>2023-07-24T06:26:37Z</time>
      </trkpt>
      <trkpt lat="44.41338" lon="5.47002">
        <ele>1087.2</ele>
        <time>2023-07-24T06:26:38Z</time>
      </trkpt>
      <trkpt lat="44.41339" lon="5.47003">
        <ele>1087.3</ele>
        <time>2023-07-24T06:26:39Z</time>
      </trkpt>
      <trkpt lat="44.41341" lon="5.47004">
        <ele>1087.5</ele>
        <time>2023-07-24T06:26:40Z</time>
      </trkpt>
      <trkpt lat="44.41342" lon="5.47005">
        <ele>1087.6</ele>
        <time>2023-07-24T06:26:41Z</time>
      </trkpt>
      <trkpt lat="44.41345" lon="5.47007">
        <ele>1087.9</ele>
        <time>2023-07-24T06:26:42Z</time>
      </trkpt>
      <trkpt lat="44.41346" lon="5.47007">
        <ele>1088</ele>
        <time>2023-07-24T06:26:43Z</time>
      </trkpt>
      <trkpt lat="44.41349" lon="5.47009">
        <ele>1088.3</ele>
        <time>2023-07-24T06:26:44Z</time>
      </trkpt>
      <trkpt lat="44.4135" lon="5.4701">
        <ele>1088.4</ele>
        <time>2023-07-24T06:26:45Z</time>
      </trkpt>
      <trkpt lat="44.41352" lon="5.47012">
        <ele>1088.6</ele>
        <time>2023-07-24T06:26:46Z</time>
      </trkpt>
      <trkpt lat="44.41353" lon="5.47013">
        <ele>1088.7</ele>
        <time>2023-07-24T06:26:47Z</time>
      </trkpt>
      <trkpt lat="44.41356" lon="5.47015">
        <ele>1089</ele>
        <time>2023-07-24T06:26:48Z</time>
      </trkpt>
      <trkpt lat="44.41357" lon="5.47015">
        <ele>1089.1</ele>
        <time>2023-07-24T06:26:49Z</time>
      </trkpt>
      <trkpt lat="44.4136" lon="5.47017">
        <ele>1089.4</ele>
        <time>2023-07-24T06:26:50Z</time>
      </trkpt>
      <trkpt lat="44.41361" lon="5.47018">
        <ele>1089.5</ele>
        <time>2023-07-24T06:26:51Z</time>
      </trkpt>
      <trkpt lat="44.41364" lon="5.4702">
        <ele>1089.8</ele>
        <time>2023-07-24T06:26:52Z</time>
      </trkpt>
      <trkpt lat="44.41365" lon="5.4702">
        <ele>1089.9</ele>
        <time>2023-07-24T06:26:53Z</time>
      </trkpt>
      <trkpt lat="44.41368" lon="5.47022">
        <ele>1090.1</ele>
        <time>2023-07-24T06:26:54Z</time>
      </trkpt>
      <trkpt lat="44.41369" lon="5.47023">
        <ele>1090.2</ele>
        <time>2023-07-24T06:26:55Z</time>
      </trkpt>
      <trkpt lat="44.41371" lon="5.47025">
        <ele>1090.5</ele>
        <time>2023-07-24T06:26:56Z</time>
      </trkpt>
      <trkpt lat="44.41372" lon="5.47026">
        <ele>1090.6</ele>
        <time>2023-07-24T06:26:57Z</time>
      </trkpt>
      <trkpt lat="44.41375" lon="5.47028">
        <ele>1090.9</ele>
        <time>2023-07-24T06:26:58Z</time>
      </trkpt>
      <trkpt lat="44.41376" lon="5.47029">
        <ele>1091</ele>
        <time>2023-07-24T06:26:59Z</time>
      </trkpt>
      <trkpt lat="44.41378" lon="5.47031">
        <ele>1091.3</ele>
        <time>2023-07-24T06:27:00Z</time>
      </trkpt>
      <trkpt lat="44.41379" lon="5.47032">
        <ele>1091.4</ele>
        <time>2023-07-24T06:27:01Z</time>
      </trkpt>
      <trkpt lat="44.41381" lon="5.47035">
        <ele>1091.6</ele>
        <time>2023-07-24T06:27:02Z</time>
      </trkpt>
      <trkpt lat="44.41382" lon="5.47036">
        <ele>1091.7</ele>
        <time>2023-07-24T06:27:03Z</time>
      </trkpt>
      <trkpt lat="44.41383" lon="5.4704">
        <ele>1092</ele>
        <time>2023-07-24T06:27:04Z</time>
      </trkpt>
      <trkpt lat="44.41384" lon="5.47042">
        <ele>1092.1</ele>
        <time>2023-07-24T06:27:05Z</time>
      </trkpt>
      <trkpt lat="44.41385" lon="5.47044">
        <ele>1092.3</ele>
        <time>2023-07-24T06:27:06Z</time>
      </trkpt>
      <trkpt lat="44.41386" lon="5.47046">
        <ele>1092.4</ele>
        <time>2023-07-24T06:27:07Z</time>
      </trkpt>
      <trkpt lat="44.41386" lon="5.47048">
        <ele>1092.6</ele>
        <time>2023-07-24T06:27:08Z</time>
      </trkpt>
      <trkpt lat="44.41387" lon="5.4705">
        <ele>1092.7</ele>
        <time>2023-07-24T06:27:09Z</time>
      </trkpt>
      <trkpt lat="44.41389" lon="5.47054">
        <ele>1093</ele>
        <time>2023-07-24T06:27:10Z</time>
      </trkpt>
      <trkpt lat="44.41389" lon="5.47055">
        <ele>1093.1</ele>
        <time>2023-07-24T06:27:11Z</time>
      </trkpt>
      <trkpt lat="44.41391" lon="5.47059">
        <ele>1093.4</ele>
        <time>2023-07-24T06:27:12Z</time>
      </trkpt>
      <trkpt lat="44.41391" lon="5.4706">
        <ele>1093.5</ele>
        <time>2023-07-24T06:27:13Z</time>
      </trkpt>
      <trkpt lat="44.41392" lon="5.47061">
        <ele>1093.6</ele>
        <time>2023-07-24T06:27:14Z</time>
      </trkpt>
      <trkpt lat="44.41394" lon="5.47063">
        <ele>1093.8</ele>
        <time>2023-07-24T06:27:15Z</time>
      </trkpt>
      <trkpt lat="44.41397" lon="5.47064">
        <ele>1094.1</ele>
        <time>2023-07-24T06:27:16Z</time>
      </trkpt>
      <trkpt lat="44.41398" lon="5.47064">
        <ele>1094.2</ele>
        <time>2023-07-24T06:27:17Z</time>
      </trkpt>
      <trkpt lat="44.41402" lon="5.47065">
        <ele>1094.5</ele>
        <time>2023-07-24T06:27:18Z</time>
      </trkpt>
      <trkpt lat="44.41403" lon="5.47065">
        <ele>1094.6</ele>
        <time>2023-07-24T06:27:19Z</time>
      </trkpt>
      <trkpt lat="44.41406" lon="5.47064">
        <ele>1094.9</ele>
        <time>2023-07-24T06:27:20Z</time>
      </trkpt>
      <trkpt lat="44.41407" lon="5.47064">
        <ele>1095.2</ele>
        <time>2023-07-24T06:27:21Z</time>
      </trkpt>
      <trkpt lat="44.4141" lon="5.47062">
        <ele>1095.3</ele>
        <time>2023-07-24T06:27:22Z</time>
      </trkpt>
      <trkpt lat="44.41411" lon="5.47061">
        <ele>1095.4</ele>
        <time>2023-07-24T06:27:23Z</time>
      </trkpt>
      <trkpt lat="44.41414" lon="5.47059">
        <ele>1095.5</ele>
        <time>2023-07-24T06:27:24Z</time>
      </trkpt>
      <trkpt lat="44.41415" lon="5.47058">
        <ele>1095.5</ele>
        <time>2023-07-24T06:27:25Z</time>
      </trkpt>
      <trkpt lat="44.41418" lon="5.47056">
        <ele>1095.6</ele>
        <time>2023-07-24T06:27:26Z</time>
      </trkpt>
      <trkpt lat="44.41419" lon="5.47056">
        <ele>1095.7</ele>
        <time>2023-07-24T06:27:27Z</time>
      </trkpt>
      <trkpt lat="44.41422" lon="5.47053">
        <ele>1095.8</ele>
        <time>2023-07-24T06:27:28Z</time>
      </trkpt>
      <trkpt lat="44.41423" lon="5.47053">
        <ele>1095.8</ele>
        <time>2023-07-24T06:27:29Z</time>
      </trkpt>
      <trkpt lat="44.41425" lon="5.47051">
        <ele>1095.9</ele>
        <time>2023-07-24T06:27:30Z</time>
      </trkpt>
      <trkpt lat="44.41426" lon="5.4705">
        <ele>1096</ele>
        <time>2023-07-24T06:27:31Z</time>
      </trkpt>
      <trkpt lat="44.4143" lon="5.47049">
        <ele>1096.1</ele>
        <time>2023-07-24T06:27:32Z</time>
      </trkpt>
      <trkpt lat="44.41431" lon="5.47048">
        <ele>1096.1</ele>
        <time>2023-07-24T06:27:33Z</time>
      </trkpt>
      <trkpt lat="44.41434" lon="5.47047">
        <ele>1096.2</ele>
        <time>2023-07-24T06:27:34Z</time>
      </trkpt>
      <trkpt lat="44.41435" lon="5.47046">
        <ele>1096.3</ele>
        <time>2023-07-24T06:27:35Z</time>
      </trkpt>
      <trkpt lat="44.41439" lon="5.47045">
        <ele>1096.4</ele>
        <time>2023-07-24T06:27:37Z</time>
      </trkpt>
      <trkpt lat="44.41442" lon="5.47044">
        <ele>1096.5</ele>
        <time>2023-07-24T06:27:38Z</time>
      </trkpt>
      <trkpt lat="44.41443" lon="5.47043">
        <ele>1096.6</ele>
        <time>2023-07-24T06:27:39Z</time>
      </trkpt>
      <trkpt lat="44.41446" lon="5.47042">
        <ele>1096.7</ele>
        <time>2023-07-24T06:27:40Z</time>
      </trkpt>
      <trkpt lat="44.41447" lon="5.47042">
        <ele>1096.7</ele>
        <time>2023-07-24T06:27:41Z</time>
      </trkpt>
      <trkpt lat="44.4145" lon="5.4704">
        <ele>1096.8</ele>
        <time>2023-07-24T06:27:42Z</time>
      </trkpt>
      <trkpt lat="44.41451" lon="5.47039">
        <ele>1096.9</ele>
        <time>2023-07-24T06:27:43Z</time>
      </trkpt>
      <trkpt lat="44.41454" lon="5.47037">
        <ele>1097</ele>
        <time>2023-07-24T06:27:44Z</time>
      </trkpt>
      <trkpt lat="44.41455" lon="5.47037">
        <ele>1097</ele>
        <time>2023-07-24T06:27:45Z</time>
      </trkpt>
      <trkpt lat="44.41459" lon="5.47035">
        <ele>1097.2</ele>
        <time>2023-07-24T06:27:46Z</time>
      </trkpt>
      <trkpt lat="44.4146" lon="5.47035">
        <ele>1097.2</ele>
        <time>2023-07-24T06:27:47Z</time>
      </trkpt>
      <trkpt lat="44.41463" lon="5.47034">
        <ele>1097.3</ele>
        <time>2023-07-24T06:27:48Z</time>
      </trkpt>
      <trkpt lat="44.41465" lon="5.47034">
        <ele>1097.4</ele>
        <time>2023-07-24T06:27:49Z</time>
      </trkpt>
      <trkpt lat="44.41468" lon="5.47034">
        <ele>1097.5</ele>
        <time>2023-07-24T06:27:50Z</time>
      </trkpt>
      <trkpt lat="44.4147" lon="5.47034">
        <ele>1097.6</ele>
        <time>2023-07-24T06:27:51Z</time>
      </trkpt>
      <trkpt lat="44.41473" lon="5.47034">
        <ele>1097.7</ele>
        <time>2023-07-24T06:27:52Z</time>
      </trkpt>
      <trkpt lat="44.41474" lon="5.47034">
        <ele>1097.7</ele>
        <time>2023-07-24T06:27:53Z</time>
      </trkpt>
      <trkpt lat="44.41477" lon="5.47034">
        <ele>1097.8</ele>
        <time>2023-07-24T06:27:54Z</time>
      </trkpt>
      <trkpt lat="44.41478" lon="5.47034">
        <ele>1097.9</ele>
        <time>2023-07-24T06:27:55Z</time>
      </trkpt>
      <trkpt lat="44.41482" lon="5.47034">
        <ele>1098</ele>
        <time>2023-07-24T06:27:56Z</time>
      </trkpt>
      <trkpt lat="44.41483" lon="5.47034">
        <ele>1098</ele>
        <time>2023-07-24T06:27:57Z</time>
      </trkpt>
      <trkpt lat="44.41486" lon="5.47034">
        <ele>1098.2</ele>
        <time>2023-07-24T06:27:58Z</time>
      </trkpt>
      <trkpt lat="44.41487" lon="5.47034">
        <ele>1098.2</ele>
        <time>2023-07-24T06:27:59Z</time>
      </trkpt>
      <trkpt lat="44.41491" lon="5.47034">
        <ele>1098.3</ele>
        <time>2023-07-24T06:28:00Z</time>
      </trkpt>
      <trkpt lat="44.41492" lon="5.47034">
        <ele>1098.4</ele>
        <time>2023-07-24T06:28:01Z</time>
      </trkpt>
      <trkpt lat="44.41496" lon="5.47034">
        <ele>1098.5</ele>
        <time>2023-07-24T06:28:02Z</time>
      </trkpt>
      <trkpt lat="44.41497" lon="5.47034">
        <ele>1098.5</ele>
        <time>2023-07-24T06:28:03Z</time>
      </trkpt>
      <trkpt lat="44.415" lon="5.47034">
        <ele>1098.6</ele>
        <time>2023-07-24T06:28:04Z</time>
      </trkpt>
      <trkpt lat="44.41501" lon="5.47034">
        <ele>1098.7</ele>
        <time>2023-07-24T06:28:05Z</time>
      </trkpt>
      <trkpt lat="44.41505" lon="5.47034">
        <ele>1098.8</ele>
        <time>2023-07-24T06:28:06Z</time>
      </trkpt>
      <trkpt lat="44.41506" lon="5.47034">
        <ele>1098.8</ele>
        <time>2023-07-24T06:28:07Z</time>
      </trkpt>
      <trkpt lat="44.41509" lon="5.47034">
        <ele>1099</ele>
        <time>2023-07-24T06:28:08Z</time>
      </trkpt>
      <trkpt lat="44.4151" lon="5.47034">
        <ele>1099</ele>
        <time>2023-07-24T06:28:09Z</time>
      </trkpt>
      <trkpt lat="44.41513" lon="5.47033">
        <ele>1099.1</ele>
        <time>2023-07-24T06:28:10Z</time>
      </trkpt>
      <trkpt lat="44.41517" lon="5.47033">
        <ele>1099.2</ele>
        <time>2023-07-24T06:28:11Z</time>
      </trkpt>
      <trkpt lat="44.41518" lon="5.47033">
        <ele>1099.3</ele>
        <time>2023-07-24T06:28:12Z</time>
      </trkpt>
      <trkpt lat="44.41521" lon="5.47032">
        <ele>1099.4</ele>
        <time>2023-07-24T06:28:13Z</time>
      </trkpt>
      <trkpt lat="44.41522" lon="5.47032">
        <ele>1099.4</ele>
        <time>2023-07-24T06:28:14Z</time>
      </trkpt>
      <trkpt lat="44.41526" lon="5.47031">
        <ele>1099.6</ele>
        <time>2023-07-24T06:28:15Z</time>
      </trkpt>
      <trkpt lat="44.41527" lon="5.47031">
        <ele>1099.6</ele>
        <time>2023-07-24T06:28:16Z</time>
      </trkpt>
      <trkpt lat="44.4153" lon="5.47029">
        <ele>1099.7</ele>
        <time>2023-07-24T06:28:17Z</time>
      </trkpt>
      <trkpt lat="44.4153" lon="5.47028">
        <ele>1099.7</ele>
        <time>2023-07-24T06:28:18Z</time>
      </trkpt>
      <trkpt lat="44.41533" lon="5.47026">
        <ele>1099.9</ele>
        <time>2023-07-24T06:28:19Z</time>
      </trkpt>
      <trkpt lat="44.41534" lon="5.47025">
        <ele>1099.9</ele>
        <time>2023-07-24T06:28:20Z</time>
      </trkpt>
      <trkpt lat="44.41536" lon="5.47022">
        <ele>1100</ele>
        <time>2023-07-24T06:28:21Z</time>
      </trkpt>
      <trkpt lat="44.41537" lon="5.47021">
        <ele>1100</ele>
        <time>2023-07-24T06:28:22Z</time>
      </trkpt>
      <trkpt lat="44.41539" lon="5.47016">
        <ele>1100.2</ele>
        <time>2023-07-24T06:28:23Z</time>
      </trkpt>
      <trkpt lat="44.41539" lon="5.47015">
        <ele>1100.2</ele>
        <time>2023-07-24T06:28:24Z</time>
      </trkpt>
      <trkpt lat="44.41541" lon="5.47011">
        <ele>1100.3</ele>
        <time>2023-07-24T06:28:25Z</time>
      </trkpt>
      <trkpt lat="44.41541" lon="5.47009">
        <ele>1100.4</ele>
        <time>2023-07-24T06:28:26Z</time>
      </trkpt>
      <trkpt lat="44.41541" lon="5.47005">
        <ele>1100.5</ele>
        <time>2023-07-24T06:28:27Z</time>
      </trkpt>
      <trkpt lat="44.41541" lon="5.47004">
        <ele>1100.5</ele>
        <time>2023-07-24T06:28:28Z</time>
      </trkpt>
      <trkpt lat="44.41541" lon="5.47">
        <ele>1100.6</ele>
        <time>2023-07-24T06:28:29Z</time>
      </trkpt>
      <trkpt lat="44.4154" lon="5.46998">
        <ele>1100.6</ele>
        <time>2023-07-24T06:28:30Z</time>
      </trkpt>
      <trkpt lat="44.41539" lon="5.46995">
        <ele>1100.7</ele>
        <time>2023-07-24T06:28:31Z</time>
      </trkpt>
      <trkpt lat="44.41539" lon="5.46993">
        <ele>1100.8</ele>
        <time>2023-07-24T06:28:32Z</time>
      </trkpt>
      <trkpt lat="44.41538" lon="5.46989">
        <ele>1100.9</ele>
        <time>2023-07-24T06:28:33Z</time>
      </trkpt>
      <trkpt lat="44.41538" lon="5.46988">
        <ele>1100.9</ele>
        <time>2023-07-24T06:28:34Z</time>
      </trkpt>
      <trkpt lat="44.41537" lon="5.46983">
        <ele>1101</ele>
        <time>2023-07-24T06:28:35Z</time>
      </trkpt>
      <trkpt lat="44.41537" lon="5.46982">
        <ele>1101.1</ele>
        <time>2023-07-24T06:28:36Z</time>
      </trkpt>
      <trkpt lat="44.41536" lon="5.46977">
        <ele>1101.2</ele>
        <time>2023-07-24T06:28:37Z</time>
      </trkpt>
      <trkpt lat="44.41535" lon="5.46976">
        <ele>1101.3</ele>
        <time>2023-07-24T06:28:38Z</time>
      </trkpt>
      <trkpt lat="44.41534" lon="5.46972">
        <ele>1101.4</ele>
        <time>2023-07-24T06:28:39Z</time>
      </trkpt>
      <trkpt lat="44.41534" lon="5.46971">
        <ele>1101.4</ele>
        <time>2023-07-24T06:28:40Z</time>
      </trkpt>
      <trkpt lat="44.41533" lon="5.46967">
        <ele>1101.5</ele>
        <time>2023-07-24T06:28:41Z</time>
      </trkpt>
      <trkpt lat="44.41533" lon="5.46966">
        <ele>1101.5</ele>
        <time>2023-07-24T06:28:42Z</time>
      </trkpt>
      <trkpt lat="44.41531" lon="5.46962">
        <ele>1101.6</ele>
        <time>2023-07-24T06:28:43Z</time>
      </trkpt>
      <trkpt lat="44.41531" lon="5.46961">
        <ele>1101.7</ele>
        <time>2023-07-24T06:28:44Z</time>
      </trkpt>
      <trkpt lat="44.41529" lon="5.46957">
        <ele>1101.8</ele>
        <time>2023-07-24T06:28:45Z</time>
      </trkpt>
      <trkpt lat="44.41528" lon="5.46955">
        <ele>1101.8</ele>
        <time>2023-07-24T06:28:46Z</time>
      </trkpt>
      <trkpt lat="44.41527" lon="5.46951">
        <ele>1102</ele>
        <time>2023-07-24T06:28:47Z</time>
      </trkpt>
      <trkpt lat="44.41526" lon="5.46949">
        <ele>1102</ele>
        <time>2023-07-24T06:28:48Z</time>
      </trkpt>
      <trkpt lat="44.41525" lon="5.46945">
        <ele>1102.1</ele>
        <time>2023-07-24T06:28:49Z</time>
      </trkpt>
      <trkpt lat="44.41525" lon="5.46943">
        <ele>1102.2</ele>
        <time>2023-07-24T06:28:50Z</time>
      </trkpt>
      <trkpt lat="44.41524" lon="5.46939">
        <ele>1102.3</ele>
        <time>2023-07-24T06:28:51Z</time>
      </trkpt>
      <trkpt lat="44.41523" lon="5.46937">
        <ele>1102.3</ele>
        <time>2023-07-24T06:28:52Z</time>
      </trkpt>
      <trkpt lat="44.41523" lon="5.46933">
        <ele>1102.4</ele>
        <time>2023-07-24T06:28:53Z</time>
      </trkpt>
      <trkpt lat="44.41522" lon="5.46932">
        <ele>1102.5</ele>
        <time>2023-07-24T06:28:54Z</time>
      </trkpt>
      <trkpt lat="44.41521" lon="5.46927">
        <ele>1102.6</ele>
        <time>2023-07-24T06:28:55Z</time>
      </trkpt>
      <trkpt lat="44.41521" lon="5.46926">
        <ele>1102.6</ele>
        <time>2023-07-24T06:28:56Z</time>
      </trkpt>
      <trkpt lat="44.4152" lon="5.46921">
        <ele>1102.7</ele>
        <time>2023-07-24T06:28:57Z</time>
      </trkpt>
      <trkpt lat="44.41519" lon="5.4692">
        <ele>1102.8</ele>
        <time>2023-07-24T06:28:58Z</time>
      </trkpt>
      <trkpt lat="44.41518" lon="5.46915">
        <ele>1102.9</ele>
        <time>2023-07-24T06:28:59Z</time>
      </trkpt>
      <trkpt lat="44.41517" lon="5.46914">
        <ele>1103</ele>
        <time>2023-07-24T06:29:00Z</time>
      </trkpt>
      <trkpt lat="44.41516" lon="5.46909">
        <ele>1103.1</ele>
        <time>2023-07-24T06:29:01Z</time>
      </trkpt>
      <trkpt lat="44.41516" lon="5.46907">
        <ele>1103.1</ele>
        <time>2023-07-24T06:29:02Z</time>
      </trkpt>
      <trkpt lat="44.41515" lon="5.46902">
        <ele>1103.3</ele>
        <time>2023-07-24T06:29:03Z</time>
      </trkpt>
      <trkpt lat="44.41515" lon="5.469">
        <ele>1103.3</ele>
        <time>2023-07-24T06:29:04Z</time>
      </trkpt>
      <trkpt lat="44.41513" lon="5.46896">
        <ele>1103.4</ele>
        <time>2023-07-24T06:29:05Z</time>
      </trkpt>
      <trkpt lat="44.41513" lon="5.46895">
        <ele>1103.5</ele>
        <time>2023-07-24T06:29:06Z</time>
      </trkpt>
      <trkpt lat="44.41512" lon="5.4689">
        <ele>1103.6</ele>
        <time>2023-07-24T06:29:07Z</time>
      </trkpt>
      <trkpt lat="44.41512" lon="5.46889">
        <ele>1103.6</ele>
        <time>2023-07-24T06:29:08Z</time>
      </trkpt>
      <trkpt lat="44.41511" lon="5.46884">
        <ele>1103.7</ele>
        <time>2023-07-24T06:29:09Z</time>
      </trkpt>
      <trkpt lat="44.41511" lon="5.46883">
        <ele>1103.8</ele>
        <time>2023-07-24T06:29:10Z</time>
      </trkpt>
      <trkpt lat="44.4151" lon="5.46878">
        <ele>1103.9</ele>
        <time>2023-07-24T06:29:11Z</time>
      </trkpt>
      <trkpt lat="44.4151" lon="5.46876">
        <ele>1103.9</ele>
        <time>2023-07-24T06:29:12Z</time>
      </trkpt>
      <trkpt lat="44.4151" lon="5.46873">
        <ele>1104</ele>
        <time>2023-07-24T06:29:13Z</time>
      </trkpt>
      <trkpt lat="44.4151" lon="5.46871">
        <ele>1104.1</ele>
        <time>2023-07-24T06:29:14Z</time>
      </trkpt>
      <trkpt lat="44.41509" lon="5.46868">
        <ele>1104.2</ele>
        <time>2023-07-24T06:29:15Z</time>
      </trkpt>
      <trkpt lat="44.41509" lon="5.46866">
        <ele>1104.2</ele>
        <time>2023-07-24T06:29:16Z</time>
      </trkpt>
      <trkpt lat="44.41509" lon="5.46861">
        <ele>1104.3</ele>
        <time>2023-07-24T06:29:17Z</time>
      </trkpt>
      <trkpt lat="44.41509" lon="5.4686">
        <ele>1104.4</ele>
        <time>2023-07-24T06:29:18Z</time>
      </trkpt>
      <trkpt lat="44.41508" lon="5.46856">
        <ele>1104.5</ele>
        <time>2023-07-24T06:29:19Z</time>
      </trkpt>
      <trkpt lat="44.41508" lon="5.46854">
        <ele>1104.5</ele>
        <time>2023-07-24T06:29:20Z</time>
      </trkpt>
      <trkpt lat="44.41508" lon="5.46852">
        <ele>1104.6</ele>
        <time>2023-07-24T06:29:21Z</time>
      </trkpt>
      <trkpt lat="44.41508" lon="5.46849">
        <ele>1104.6</ele>
        <time>2023-07-24T06:29:22Z</time>
      </trkpt>
      <trkpt lat="44.41507" lon="5.46845">
        <ele>1104.7</ele>
        <time>2023-07-24T06:29:23Z</time>
      </trkpt>
      <trkpt lat="44.41507" lon="5.46844">
        <ele>1104.8</ele>
        <time>2023-07-24T06:29:24Z</time>
      </trkpt>
      <trkpt lat="44.41507" lon="5.4684">
        <ele>1104.9</ele>
        <time>2023-07-24T06:29:25Z</time>
      </trkpt>
      <trkpt lat="44.41507" lon="5.46838">
        <ele>1104.9</ele>
        <time>2023-07-24T06:29:26Z</time>
      </trkpt>
      <trkpt lat="44.41507" lon="5.46833">
        <ele>1105</ele>
        <time>2023-07-24T06:29:27Z</time>
      </trkpt>
      <trkpt lat="44.41508" lon="5.46832">
        <ele>1105.1</ele>
        <time>2023-07-24T06:29:28Z</time>
      </trkpt>
      <trkpt lat="44.41508" lon="5.46828">
        <ele>1105.2</ele>
        <time>2023-07-24T06:29:29Z</time>
      </trkpt>
      <trkpt lat="44.41508" lon="5.46826">
        <ele>1105.2</ele>
        <time>2023-07-24T06:29:30Z</time>
      </trkpt>
      <trkpt lat="44.41508" lon="5.46822">
        <ele>1105.3</ele>
        <time>2023-07-24T06:29:31Z</time>
      </trkpt>
      <trkpt lat="44.41508" lon="5.46821">
        <ele>1105.4</ele>
        <time>2023-07-24T06:29:32Z</time>
      </trkpt>
      <trkpt lat="44.41509" lon="5.46816">
        <ele>1105.5</ele>
        <time>2023-07-24T06:29:33Z</time>
      </trkpt>
      <trkpt lat="44.41509" lon="5.46815">
        <ele>1105.5</ele>
        <time>2023-07-24T06:29:34Z</time>
      </trkpt>
      <trkpt lat="44.41509" lon="5.4681">
        <ele>1105.6</ele>
        <time>2023-07-24T06:29:35Z</time>
      </trkpt>
      <trkpt lat="44.41509" lon="5.46809">
        <ele>1105.7</ele>
        <time>2023-07-24T06:29:36Z</time>
      </trkpt>
      <trkpt lat="44.41509" lon="5.46804">
        <ele>1105.8</ele>
        <time>2023-07-24T06:29:37Z</time>
      </trkpt>
      <trkpt lat="44.4151" lon="5.46802">
        <ele>1105.8</ele>
        <time>2023-07-24T06:29:38Z</time>
      </trkpt>
      <trkpt lat="44.4151" lon="5.46797">
        <ele>1106</ele>
        <time>2023-07-24T06:29:39Z</time>
      </trkpt>
      <trkpt lat="44.4151" lon="5.46796">
        <ele>1106</ele>
        <time>2023-07-24T06:29:40Z</time>
      </trkpt>
      <trkpt lat="44.41511" lon="5.46791">
        <ele>1106.1</ele>
        <time>2023-07-24T06:29:41Z</time>
      </trkpt>
      <trkpt lat="44.41511" lon="5.46789">
        <ele>1106.2</ele>
        <time>2023-07-24T06:29:42Z</time>
      </trkpt>
      <trkpt lat="44.41511" lon="5.46785">
        <ele>1106.3</ele>
        <time>2023-07-24T06:29:43Z</time>
      </trkpt>
      <trkpt lat="44.41512" lon="5.4678">
        <ele>1106.4</ele>
        <time>2023-07-24T06:29:44Z</time>
      </trkpt>
      <trkpt lat="44.41512" lon="5.46779">
        <ele>1106.4</ele>
        <time>2023-07-24T06:29:45Z</time>
      </trkpt>
      <trkpt lat="44.41511" lon="5.46774">
        <ele>1106.6</ele>
        <time>2023-07-24T06:29:46Z</time>
      </trkpt>
      <trkpt lat="44.41511" lon="5.46773">
        <ele>1106.6</ele>
        <time>2023-07-24T06:29:47Z</time>
      </trkpt>
      <trkpt lat="44.41511" lon="5.46768">
        <ele>1106.7</ele>
        <time>2023-07-24T06:29:48Z</time>
      </trkpt>
      <trkpt lat="44.41511" lon="5.46766">
        <ele>1106.8</ele>
        <time>2023-07-24T06:29:49Z</time>
      </trkpt>
      <trkpt lat="44.41511" lon="5.46761">
        <ele>1106.9</ele>
        <time>2023-07-24T06:29:50Z</time>
      </trkpt>
      <trkpt lat="44.41511" lon="5.4676">
        <ele>1106.9</ele>
        <time>2023-07-24T06:29:51Z</time>
      </trkpt>
      <trkpt lat="44.41511" lon="5.46754">
        <ele>1107.1</ele>
        <time>2023-07-24T06:29:52Z</time>
      </trkpt>
      <trkpt lat="44.41511" lon="5.46753">
        <ele>1107.1</ele>
        <time>2023-07-24T06:29:53Z</time>
      </trkpt>
      <trkpt lat="44.4151" lon="5.46747">
        <ele>1107.2</ele>
        <time>2023-07-24T06:29:54Z</time>
      </trkpt>
      <trkpt lat="44.41509" lon="5.46746">
        <ele>1107.3</ele>
        <time>2023-07-24T06:29:55Z</time>
      </trkpt>
      <trkpt lat="44.41509" lon="5.46742">
        <ele>1107.4</ele>
        <time>2023-07-24T06:29:56Z</time>
      </trkpt>
      <trkpt lat="44.41508" lon="5.46736">
        <ele>1107.5</ele>
        <time>2023-07-24T06:29:57Z</time>
      </trkpt>
      <trkpt lat="44.41508" lon="5.46734">
        <ele>1107.6</ele>
        <time>2023-07-24T06:29:58Z</time>
      </trkpt>
      <trkpt lat="44.41508" lon="5.4673">
        <ele>1107.7</ele>
        <time>2023-07-24T06:29:59Z</time>
      </trkpt>
      <trkpt lat="44.41507" lon="5.46724">
        <ele>1107.8</ele>
        <time>2023-07-24T06:30:00Z</time>
      </trkpt>
      <trkpt lat="44.41506" lon="5.46722">
        <ele>1107.9</ele>
        <time>2023-07-24T06:30:01Z</time>
      </trkpt>
      <trkpt lat="44.41505" lon="5.46718">
        <ele>1108</ele>
        <time>2023-07-24T06:30:02Z</time>
      </trkpt>
      <trkpt lat="44.41504" lon="5.46714">
        <ele>1108.1</ele>
        <time>2023-07-24T06:30:03Z</time>
      </trkpt>
      <trkpt lat="44.41502" lon="5.46709">
        <ele>1108.3</ele>
        <time>2023-07-24T06:30:04Z</time>
      </trkpt>
      <trkpt lat="44.415" lon="5.46705">
        <ele>1108.4</ele>
        <time>2023-07-24T06:30:05Z</time>
      </trkpt>
      <trkpt lat="44.41499" lon="5.467">
        <ele>1108.5</ele>
        <time>2023-07-24T06:30:06Z</time>
      </trkpt>
      <trkpt lat="44.41498" lon="5.46695">
        <ele>1108.6</ele>
        <time>2023-07-24T06:30:07Z</time>
      </trkpt>
      <trkpt lat="44.41497" lon="5.46691">
        <ele>1108.8</ele>
        <time>2023-07-24T06:30:08Z</time>
      </trkpt>
      <trkpt lat="44.41496" lon="5.46686">
        <ele>1108.9</ele>
        <time>2023-07-24T06:30:09Z</time>
      </trkpt>
      <trkpt lat="44.41496" lon="5.46681">
        <ele>1109</ele>
        <time>2023-07-24T06:30:10Z</time>
      </trkpt>
      <trkpt lat="44.41495" lon="5.46676">
        <ele>1109.1</ele>
        <time>2023-07-24T06:30:11Z</time>
      </trkpt>
      <trkpt lat="44.41495" lon="5.46671">
        <ele>1109.3</ele>
        <time>2023-07-24T06:30:12Z</time>
      </trkpt>
      <trkpt lat="44.41494" lon="5.46666">
        <ele>1109.4</ele>
        <time>2023-07-24T06:30:13Z</time>
      </trkpt>
      <trkpt lat="44.41493" lon="5.46661">
        <ele>1109.5</ele>
        <time>2023-07-24T06:30:14Z</time>
      </trkpt>
      <trkpt lat="44.41493" lon="5.46655">
        <ele>1109.7</ele>
        <time>2023-07-24T06:30:15Z</time>
      </trkpt>
      <trkpt lat="44.41493" lon="5.4665">
        <ele>1109.8</ele>
        <time>2023-07-24T06:30:16Z</time>
      </trkpt>
      <trkpt lat="44.41492" lon="5.46645">
        <ele>1109.9</ele>
        <time>2023-07-24T06:30:17Z</time>
      </trkpt>
      <trkpt lat="44.41492" lon="5.46641">
        <ele>1110</ele>
        <time>2023-07-24T06:30:18Z</time>
      </trkpt>
      <trkpt lat="44.41491" lon="5.46636">
        <ele>1110.2</ele>
        <time>2023-07-24T06:30:19Z</time>
      </trkpt>
      <trkpt lat="44.41491" lon="5.46631">
        <ele>1110.3</ele>
        <time>2023-07-24T06:30:20Z</time>
      </trkpt>
      <trkpt lat="44.41491" lon="5.46626">
        <ele>1110.4</ele>
        <time>2023-07-24T06:30:21Z</time>
      </trkpt>
      <trkpt lat="44.4149" lon="5.46622">
        <ele>1110.5</ele>
        <time>2023-07-24T06:30:22Z</time>
      </trkpt>
      <trkpt lat="44.4149" lon="5.46617">
        <ele>1110.6</ele>
        <time>2023-07-24T06:30:23Z</time>
      </trkpt>
      <trkpt lat="44.4149" lon="5.46613">
        <ele>1110.8</ele>
        <time>2023-07-24T06:30:24Z</time>
      </trkpt>
      <trkpt lat="44.4149" lon="5.46607">
        <ele>1110.9</ele>
        <time>2023-07-24T06:30:25Z</time>
      </trkpt>
      <trkpt lat="44.4149" lon="5.46602">
        <ele>1111</ele>
        <time>2023-07-24T06:30:26Z</time>
      </trkpt>
      <trkpt lat="44.4149" lon="5.46597">
        <ele>1111.2</ele>
        <time>2023-07-24T06:30:27Z</time>
      </trkpt>
      <trkpt lat="44.41489" lon="5.46592">
        <ele>1111.3</ele>
        <time>2023-07-24T06:30:28Z</time>
      </trkpt>
      <trkpt lat="44.41489" lon="5.46586">
        <ele>1111.4</ele>
        <time>2023-07-24T06:30:29Z</time>
      </trkpt>
      <trkpt lat="44.41488" lon="5.46581">
        <ele>1111.6</ele>
        <time>2023-07-24T06:30:30Z</time>
      </trkpt>
      <trkpt lat="44.41487" lon="5.46577">
        <ele>1111.7</ele>
        <time>2023-07-24T06:30:31Z</time>
      </trkpt>
      <trkpt lat="44.41485" lon="5.46572">
        <ele>1111.8</ele>
        <time>2023-07-24T06:30:32Z</time>
      </trkpt>
      <trkpt lat="44.41484" lon="5.46568">
        <ele>1111.9</ele>
        <time>2023-07-24T06:30:33Z</time>
      </trkpt>
      <trkpt lat="44.41482" lon="5.46563">
        <ele>1112.1</ele>
        <time>2023-07-24T06:30:34Z</time>
      </trkpt>
      <trkpt lat="44.41482" lon="5.46558">
        <ele>1112.2</ele>
        <time>2023-07-24T06:30:35Z</time>
      </trkpt>
      <trkpt lat="44.41481" lon="5.46553">
        <ele>1112.3</ele>
        <time>2023-07-24T06:30:36Z</time>
      </trkpt>
      <trkpt lat="44.41481" lon="5.46547">
        <ele>1112.5</ele>
        <time>2023-07-24T06:30:37Z</time>
      </trkpt>
      <trkpt lat="44.41481" lon="5.46542">
        <ele>1112.6</ele>
        <time>2023-07-24T06:30:38Z</time>
      </trkpt>
      <trkpt lat="44.41482" lon="5.46537">
        <ele>1112.7</ele>
        <time>2023-07-24T06:30:39Z</time>
      </trkpt>
      <trkpt lat="44.41483" lon="5.46532">
        <ele>1112.9</ele>
        <time>2023-07-24T06:30:40Z</time>
      </trkpt>
      <trkpt lat="44.41484" lon="5.46527">
        <ele>1113</ele>
        <time>2023-07-24T06:30:41Z</time>
      </trkpt>
      <trkpt lat="44.41487" lon="5.46523">
        <ele>1113.2</ele>
        <time>2023-07-24T06:30:42Z</time>
      </trkpt>
      <trkpt lat="44.4149" lon="5.46517">
        <ele>1113.3</ele>
        <time>2023-07-24T06:30:43Z</time>
      </trkpt>
      <trkpt lat="44.41493" lon="5.46513">
        <ele>1113.5</ele>
        <time>2023-07-24T06:30:44Z</time>
      </trkpt>
      <trkpt lat="44.41497" lon="5.46507">
        <ele>1113.7</ele>
        <time>2023-07-24T06:30:45Z</time>
      </trkpt>
      <trkpt lat="44.415" lon="5.46501">
        <ele>1113.9</ele>
        <time>2023-07-24T06:30:46Z</time>
      </trkpt>
      <trkpt lat="44.41503" lon="5.46496">
        <ele>1114.1</ele>
        <time>2023-07-24T06:30:47Z</time>
      </trkpt>
      <trkpt lat="44.41506" lon="5.4649">
        <ele>1114.2</ele>
        <time>2023-07-24T06:30:48Z</time>
      </trkpt>
      <trkpt lat="44.4151" lon="5.46484">
        <ele>1114.4</ele>
        <time>2023-07-24T06:30:49Z</time>
      </trkpt>
      <trkpt lat="44.41514" lon="5.46478">
        <ele>1114.6</ele>
        <time>2023-07-24T06:30:50Z</time>
      </trkpt>
      <trkpt lat="44.41518" lon="5.46472">
        <ele>1114.9</ele>
        <time>2023-07-24T06:30:51Z</time>
      </trkpt>
      <trkpt lat="44.41524" lon="5.46466">
        <ele>1115.1</ele>
        <time>2023-07-24T06:30:52Z</time>
      </trkpt>
      <trkpt lat="44.41529" lon="5.46459">
        <ele>1115.4</ele>
        <time>2023-07-24T06:30:53Z</time>
      </trkpt>
      <trkpt lat="44.41534" lon="5.46452">
        <ele>1115.6</ele>
        <time>2023-07-24T06:30:54Z</time>
      </trkpt>
      <trkpt lat="44.4154" lon="5.46445">
        <ele>1115.9</ele>
        <time>2023-07-24T06:30:55Z</time>
      </trkpt>
      <trkpt lat="44.41546" lon="5.46438">
        <ele>1116.2</ele>
        <time>2023-07-24T06:30:56Z</time>
      </trkpt>
      <trkpt lat="44.41552" lon="5.4643">
        <ele>1116.5</ele>
        <time>2023-07-24T06:30:57Z</time>
      </trkpt>
      <trkpt lat="44.41558" lon="5.46422">
        <ele>1116.8</ele>
        <time>2023-07-24T06:30:58Z</time>
      </trkpt>
      <trkpt lat="44.41564" lon="5.46414">
        <ele>1117</ele>
        <time>2023-07-24T06:30:59Z</time>
      </trkpt>
      <trkpt lat="44.41569" lon="5.46406">
        <ele>1117.3</ele>
        <time>2023-07-24T06:31:00Z</time>
      </trkpt>
      <trkpt lat="44.41575" lon="5.46399">
        <ele>1117.6</ele>
        <time>2023-07-24T06:31:01Z</time>
      </trkpt>
      <trkpt lat="44.41581" lon="5.46393">
        <ele>1117.8</ele>
        <time>2023-07-24T06:31:02Z</time>
      </trkpt>
      <trkpt lat="44.41587" lon="5.46388">
        <ele>1118.1</ele>
        <time>2023-07-24T06:31:03Z</time>
      </trkpt>
      <trkpt lat="44.41592" lon="5.46385">
        <ele>1118.3</ele>
        <time>2023-07-24T06:31:04Z</time>
      </trkpt>
      <trkpt lat="44.41595" lon="5.46382">
        <ele>1118.5</ele>
        <time>2023-07-24T06:31:05Z</time>
      </trkpt>
      <trkpt lat="44.41598" lon="5.4638">
        <ele>1118.6</ele>
        <time>2023-07-24T06:31:06Z</time>
      </trkpt>
      <trkpt lat="44.41601" lon="5.46378">
        <ele>1118.8</ele>
        <time>2023-07-24T06:31:07Z</time>
      </trkpt>
      <trkpt lat="44.41604" lon="5.46376">
        <ele>1119</ele>
        <time>2023-07-24T06:31:08Z</time>
      </trkpt>
      <trkpt lat="44.41607" lon="5.46374">
        <ele>1119.1</ele>
        <time>2023-07-24T06:31:09Z</time>
      </trkpt>
      <trkpt lat="44.4161" lon="5.46372">
        <ele>1119.3</ele>
        <time>2023-07-24T06:31:10Z</time>
      </trkpt>
      <trkpt lat="44.41613" lon="5.4637">
        <ele>1119.4</ele>
        <time>2023-07-24T06:31:11Z</time>
      </trkpt>
      <trkpt lat="44.41616" lon="5.46368">
        <ele>1119.6</ele>
        <time>2023-07-24T06:31:12Z</time>
      </trkpt>
      <trkpt lat="44.41618" lon="5.46366">
        <ele>1119.8</ele>
        <time>2023-07-24T06:31:13Z</time>
      </trkpt>
      <trkpt lat="44.41621" lon="5.46365">
        <ele>1119.9</ele>
        <time>2023-07-24T06:31:14Z</time>
      </trkpt>
      <trkpt lat="44.41623" lon="5.46363">
        <ele>1120.1</ele>
        <time>2023-07-24T06:31:15Z</time>
      </trkpt>
      <trkpt lat="44.41626" lon="5.4636">
        <ele>1120.2</ele>
        <time>2023-07-24T06:31:16Z</time>
      </trkpt>
      <trkpt lat="44.41628" lon="5.46358">
        <ele>1120.4</ele>
        <time>2023-07-24T06:31:17Z</time>
      </trkpt>
      <trkpt lat="44.41631" lon="5.46356">
        <ele>1120.5</ele>
        <time>2023-07-24T06:31:18Z</time>
      </trkpt>
      <trkpt lat="44.41634" lon="5.46354">
        <ele>1120.7</ele>
        <time>2023-07-24T06:31:19Z</time>
      </trkpt>
      <trkpt lat="44.41636" lon="5.46352">
        <ele>1120.8</ele>
        <time>2023-07-24T06:31:20Z</time>
      </trkpt>
      <trkpt lat="44.41639" lon="5.46349">
        <ele>1121</ele>
        <time>2023-07-24T06:31:21Z</time>
      </trkpt>
      <trkpt lat="44.41641" lon="5.46348">
        <ele>1121</ele>
        <time>2023-07-24T06:31:22Z</time>
      </trkpt>
      <trkpt lat="44.41644" lon="5.46346">
        <ele>1121.2</ele>
        <time>2023-07-24T06:31:23Z</time>
      </trkpt>
      <trkpt lat="44.41645" lon="5.46345">
        <ele>1121.2</ele>
        <time>2023-07-24T06:31:24Z</time>
      </trkpt>
      <trkpt lat="44.41648" lon="5.46343">
        <ele>1121.4</ele>
        <time>2023-07-24T06:31:25Z</time>
      </trkpt>
      <trkpt lat="44.41649" lon="5.46342">
        <ele>1121.4</ele>
        <time>2023-07-24T06:31:26Z</time>
      </trkpt>
      <trkpt lat="44.41652" lon="5.4634">
        <ele>1121.6</ele>
        <time>2023-07-24T06:31:27Z</time>
      </trkpt>
      <trkpt lat="44.41653" lon="5.46339">
        <ele>1121.6</ele>
        <time>2023-07-24T06:31:28Z</time>
      </trkpt>
      <trkpt lat="44.41656" lon="5.46337">
        <ele>1121.8</ele>
        <time>2023-07-24T06:31:29Z</time>
      </trkpt>
      <trkpt lat="44.41657" lon="5.46337">
        <ele>1121.8</ele>
        <time>2023-07-24T06:31:30Z</time>
      </trkpt>
      <trkpt lat="44.41661" lon="5.46335">
        <ele>1122</ele>
        <time>2023-07-24T06:31:31Z</time>
      </trkpt>
      <trkpt lat="44.41662" lon="5.46335">
        <ele>1122.1</ele>
        <time>2023-07-24T06:31:32Z</time>
      </trkpt>
      <trkpt lat="44.41665" lon="5.46334">
        <ele>1122.3</ele>
        <time>2023-07-24T06:31:33Z</time>
      </trkpt>
      <trkpt lat="44.41669" lon="5.46332">
        <ele>1122.5</ele>
        <time>2023-07-24T06:31:34Z</time>
      </trkpt>
      <trkpt lat="44.4167" lon="5.46331">
        <ele>1122.6</ele>
        <time>2023-07-24T06:31:35Z</time>
      </trkpt>
      <trkpt lat="44.41672" lon="5.46329">
        <ele>1122.8</ele>
        <time>2023-07-24T06:31:36Z</time>
      </trkpt>
      <trkpt lat="44.41676" lon="5.46329">
        <ele>1123</ele>
        <time>2023-07-24T06:31:37Z</time>
      </trkpt>
      <trkpt lat="44.41678" lon="5.4633">
        <ele>1123.1</ele>
        <time>2023-07-24T06:31:38Z</time>
      </trkpt>
      <trkpt lat="44.41681" lon="5.46332">
        <ele>1123.3</ele>
        <time>2023-07-24T06:31:39Z</time>
      </trkpt>
      <trkpt lat="44.41683" lon="5.46333">
        <ele>1123.3</ele>
        <time>2023-07-24T06:31:40Z</time>
      </trkpt>
      <trkpt lat="44.41685" lon="5.46337">
        <ele>1123.5</ele>
        <time>2023-07-24T06:31:41Z</time>
      </trkpt>
      <trkpt lat="44.41686" lon="5.46339">
        <ele>1123.5</ele>
        <time>2023-07-24T06:31:42Z</time>
      </trkpt>
      <trkpt lat="44.41688" lon="5.46342">
        <ele>1123.6</ele>
        <time>2023-07-24T06:31:43Z</time>
      </trkpt>
      <trkpt lat="44.41689" lon="5.46343">
        <ele>1123.7</ele>
        <time>2023-07-24T06:31:44Z</time>
      </trkpt>
      <trkpt lat="44.41691" lon="5.46344">
        <ele>1123.8</ele>
        <time>2023-07-24T06:31:45Z</time>
      </trkpt>
      <trkpt lat="44.41693" lon="5.46346">
        <ele>1123.9</ele>
        <time>2023-07-24T06:31:46Z</time>
      </trkpt>
      <trkpt lat="44.41696" lon="5.46348">
        <ele>1124</ele>
        <time>2023-07-24T06:31:47Z</time>
      </trkpt>
      <trkpt lat="44.41699" lon="5.46352">
        <ele>1124.1</ele>
        <time>2023-07-24T06:31:48Z</time>
      </trkpt>
      <trkpt lat="44.41699" lon="5.46353">
        <ele>1124.1</ele>
        <time>2023-07-24T06:31:49Z</time>
      </trkpt>
      <trkpt lat="44.41701" lon="5.46357">
        <ele>1124.1</ele>
        <time>2023-07-24T06:31:50Z</time>
      </trkpt>
      <trkpt lat="44.41702" lon="5.46358">
        <ele>1124.1</ele>
        <time>2023-07-24T06:31:51Z</time>
      </trkpt>
      <trkpt lat="44.41704" lon="5.46362">
        <ele>1124.1</ele>
        <time>2023-07-24T06:31:52Z</time>
      </trkpt>
      <trkpt lat="44.41706" lon="5.46365">
        <ele>1124</ele>
        <time>2023-07-24T06:31:53Z</time>
      </trkpt>
      <trkpt lat="44.41708" lon="5.46369">
        <ele>1124</ele>
        <time>2023-07-24T06:31:54Z</time>
      </trkpt>
      <trkpt lat="44.4171" lon="5.46373">
        <ele>1123.9</ele>
        <time>2023-07-24T06:31:55Z</time>
      </trkpt>
      <trkpt lat="44.41712" lon="5.46377">
        <ele>1123.8</ele>
        <time>2023-07-24T06:31:56Z</time>
      </trkpt>
      <trkpt lat="44.41712" lon="5.46378">
        <ele>1123.7</ele>
        <time>2023-07-24T06:31:57Z</time>
      </trkpt>
      <trkpt lat="44.41712" lon="5.46378">
        <ele>1123.7</ele>
        <time>2023-07-24T06:31:58Z</time>
      </trkpt>
      <trkpt lat="44.41711" lon="5.46377">
        <ele>1123.7</ele>
        <time>2023-07-24T06:31:59Z</time>
      </trkpt>
      <trkpt lat="44.41711" lon="5.46377">
        <ele>1123.7</ele>
        <time>2023-07-24T06:32:00Z</time>
      </trkpt>
      <trkpt lat="44.41711" lon="5.46377">
        <ele>1123.7</ele>
        <time>2023-07-24T06:32:01Z</time>
      </trkpt>
      <trkpt lat="44.41712" lon="5.46377">
        <ele>1123.7</ele>
        <time>2023-07-24T06:32:02Z</time>
      </trkpt>
      <trkpt lat="44.41712" lon="5.46376">
        <ele>1123.7</ele>
        <time>2023-07-24T06:32:03Z</time>
      </trkpt>
      <trkpt lat="44.41712" lon="5.46376">
        <ele>1123.7</ele>
        <time>2023-07-24T06:32:04Z</time>
      </trkpt>
      <trkpt lat="44.41712" lon="5.46376">
        <ele>1123.7</ele>
        <time>2023-07-24T06:32:05Z</time>
      </trkpt>
      <trkpt lat="44.41712" lon="5.46376">
        <ele>1123.6</ele>
        <time>2023-07-24T06:32:06Z</time>
      </trkpt>
      <trkpt lat="44.41712" lon="5.46376">
        <ele>1123.6</ele>
        <time>2023-07-24T06:32:07Z</time>
      </trkpt>
      <trkpt lat="44.41712" lon="5.46376">
        <ele>1123.6</ele>
        <time>2023-07-24T06:32:08Z</time>
      </trkpt>
      <trkpt lat="44.41711" lon="5.46375">
        <ele>1123.6</ele>
        <time>2023-07-24T06:32:09Z</time>
      </trkpt>
      <trkpt lat="44.4171" lon="5.46374">
        <ele>1123.5</ele>
        <time>2023-07-24T06:32:10Z</time>
      </trkpt>
      <trkpt lat="44.4171" lon="5.46373">
        <ele>1123.5</ele>
        <time>2023-07-24T06:32:11Z</time>
      </trkpt>
      <trkpt lat="44.4171" lon="5.46374">
        <ele>1123.5</ele>
        <time>2023-07-24T06:32:12Z</time>
      </trkpt>
      <trkpt lat="44.4171" lon="5.46374">
        <ele>1123.5</ele>
        <time>2023-07-24T06:32:13Z</time>
      </trkpt>
      <trkpt lat="44.4171" lon="5.46374">
        <ele>1123.5</ele>
        <time>2023-07-24T06:32:14Z</time>
      </trkpt>
      <trkpt lat="44.4171" lon="5.46374">
        <ele>1123.5</ele>
        <time>2023-07-24T06:32:15Z</time>
      </trkpt>
      <trkpt lat="44.4171" lon="5.46374">
        <ele>1123.5</ele>
        <time>2023-07-24T06:32:16Z</time>
      </trkpt>
      <trkpt lat="44.4171" lon="5.46374">
        <ele>1123.5</ele>
        <time>2023-07-24T06:32:17Z</time>
      </trkpt>
      <trkpt lat="44.41711" lon="5.46374">
        <ele>1123.5</ele>
        <time>2023-07-24T06:32:18Z</time>
      </trkpt>
      <trkpt lat="44.41711" lon="5.46374">
        <ele>1123.5</ele>
        <time>2023-07-24T06:32:19Z</time>
      </trkpt>
      <trkpt lat="44.41711" lon="5.46374">
        <ele>1123.5</ele>
        <time>2023-07-24T06:32:20Z</time>
      </trkpt>
      <trkpt lat="44.41711" lon="5.46374">
        <ele>1123.5</ele>
        <time>2023-07-24T06:32:21Z</time>
      </trkpt>
      <trkpt lat="44.41711" lon="5.46374">
        <ele>1123.4</ele>
        <time>2023-07-24T06:32:22Z</time>
      </trkpt>
      <trkpt lat="44.41711" lon="5.46375">
        <ele>1123.4</ele>
        <time>2023-07-24T06:32:23Z</time>
      </trkpt>
      <trkpt lat="44.41711" lon="5.46375">
        <ele>1123.4</ele>
        <time>2023-07-24T06:32:24Z</time>
      </trkpt>
      <trkpt lat="44.41711" lon="5.46375">
        <ele>1123.4</ele>
        <time>2023-07-24T06:32:58Z</time>
      </trkpt>
      <trkpt lat="44.41711" lon="5.46375">
        <ele>1123.4</ele>
        <time>2023-07-24T06:32:59Z</time>
      </trkpt>
      <trkpt lat="44.41711" lon="5.46375">
        <ele>1123.4</ele>
        <time>2023-07-24T06:33:00Z</time>
      </trkpt>
      <trkpt lat="44.41712" lon="5.46375">
        <ele>1123.4</ele>
        <time>2023-07-24T06:33:01Z</time>
      </trkpt>
      <trkpt lat="44.41712" lon="5.46375">
        <ele>1123.4</ele>
        <time>2023-07-24T06:33:02Z</time>
      </trkpt>
      <trkpt lat="44.41712" lon="5.46375">
        <ele>1123.4</ele>
        <time>2023-07-24T06:33:03Z</time>
      </trkpt>
      <trkpt lat="44.41712" lon="5.46375">
        <ele>1123.4</ele>
        <time>2023-07-24T06:33:04Z</time>
      </trkpt>
      <trkpt lat="44.41712" lon="5.46375">
        <ele>1123.4</ele>
        <time>2023-07-24T06:33:05Z</time>
      </trkpt>
      <trkpt lat="44.41712" lon="5.46375">
        <ele>1123.4</ele>
        <time>2023-07-24T06:33:06Z</time>
      </trkpt>
      <trkpt lat="44.41712" lon="5.46376">
        <ele>1123.4</ele>
        <time>2023-07-24T06:33:07Z</time>
      </trkpt>
      <trkpt lat="44.41712" lon="5.46376">
        <ele>1123.4</ele>
        <time>2023-07-24T06:33:08Z</time>
      </trkpt>
      <trkpt lat="44.41712" lon="5.46376">
        <ele>1123.4</ele>
        <time>2023-07-24T06:33:09Z</time>
      </trkpt>
      <trkpt lat="44.41712" lon="5.46376">
        <ele>1123.4</ele>
        <time>2023-07-24T06:33:10Z</time>
      </trkpt>
      <trkpt lat="44.41713" lon="5.46376">
        <ele>1123.4</ele>
        <time>2023-07-24T06:33:12Z</time>
      </trkpt>
      <trkpt lat="44.41713" lon="5.46376">
        <ele>1123.3</ele>
        <time>2023-07-24T06:33:13Z</time>
      </trkpt>
      <trkpt lat="44.41713" lon="5.46376">
        <ele>1123.3</ele>
        <time>2023-07-24T06:33:14Z</time>
      </trkpt>
      <trkpt lat="44.41713" lon="5.46376">
        <ele>1123.3</ele>
        <time>2023-07-24T06:33:15Z</time>
      </trkpt>
      <trkpt lat="44.41713" lon="5.46376">
        <ele>1123.3</ele>
        <time>2023-07-24T06:33:16Z</time>
      </trkpt>
      <trkpt lat="44.41713" lon="5.46376">
        <ele>1123.3</ele>
        <time>2023-07-24T06:33:17Z</time>
      </trkpt>
      <trkpt lat="44.41713" lon="5.46376">
        <ele>1123.3</ele>
        <time>2023-07-24T06:33:18Z</time>
      </trkpt>
      <trkpt lat="44.41713" lon="5.46377">
        <ele>1123.3</ele>
        <time>2023-07-24T06:33:19Z</time>
      </trkpt>
      <trkpt lat="44.41713" lon="5.46377">
        <ele>1123.3</ele>
        <time>2023-07-24T06:33:20Z</time>
      </trkpt>
      <trkpt lat="44.41713" lon="5.46377">
        <ele>1123.3</ele>
        <time>2023-07-24T06:33:21Z</time>
      </trkpt>
      <trkpt lat="44.41714" lon="5.46377">
        <ele>1123.3</ele>
        <time>2023-07-24T06:33:22Z</time>
      </trkpt>
      <trkpt lat="44.41714" lon="5.46377">
        <ele>1123.3</ele>
        <time>2023-07-24T06:33:23Z</time>
      </trkpt>
      <trkpt lat="44.41714" lon="5.46377">
        <ele>1123.3</ele>
        <time>2023-07-24T06:33:24Z</time>
      </trkpt>
      <trkpt lat="44.41714" lon="5.46377">
        <ele>1123.3</ele>
        <time>2023-07-24T06:33:25Z</time>
      </trkpt>
      <trkpt lat="44.41714" lon="5.46377">
        <ele>1123.3</ele>
        <time>2023-07-24T06:33:26Z</time>
      </trkpt>
      <trkpt lat="44.41714" lon="5.46377">
        <ele>1123.3</ele>
        <time>2023-07-24T06:33:27Z</time>
      </trkpt>
      <trkpt lat="44.41714" lon="5.46377">
        <ele>1123.2</ele>
        <time>2023-07-24T06:33:28Z</time>
      </trkpt>
      <trkpt lat="44.41714" lon="5.46377">
        <ele>1123.2</ele>
        <time>2023-07-24T06:33:29Z</time>
      </trkpt>
      <trkpt lat="44.41714" lon="5.46378">
        <ele>1123.2</ele>
        <time>2023-07-24T06:33:30Z</time>
      </trkpt>
      <trkpt lat="44.41714" lon="5.46378">
        <ele>1123.2</ele>
        <time>2023-07-24T06:33:31Z</time>
      </trkpt>
      <trkpt lat="44.41714" lon="5.46378">
        <ele>1123.2</ele>
        <time>2023-07-24T06:33:32Z</time>
      </trkpt>
      <trkpt lat="44.41715" lon="5.46378">
        <ele>1123.2</ele>
        <time>2023-07-24T06:33:33Z</time>
      </trkpt>
      <trkpt lat="44.41715" lon="5.46378">
        <ele>1123.2</ele>
        <time>2023-07-24T06:33:34Z</time>
      </trkpt>
      <trkpt lat="44.41715" lon="5.46378">
        <ele>1123.2</ele>
        <time>2023-07-24T06:33:35Z</time>
      </trkpt>
      <trkpt lat="44.41715" lon="5.46378">
        <ele>1123.2</ele>
        <time>2023-07-24T06:33:36Z</time>
      </trkpt>
      <trkpt lat="44.41715" lon="5.46378">
        <ele>1123.2</ele>
        <time>2023-07-24T06:33:37Z</time>
      </trkpt>
      <trkpt lat="44.41715" lon="5.46378">
        <ele>1123.2</ele>
        <time>2023-07-24T06:33:38Z</time>
      </trkpt>
      <trkpt lat="44.41715" lon="5.46378">
        <ele>1123.2</ele>
        <time>2023-07-24T06:33:39Z</time>
      </trkpt>
      <trkpt lat="44.41715" lon="5.46378">
        <ele>1123.2</ele>
        <time>2023-07-24T06:33:40Z</time>
      </trkpt>
      <trkpt lat="44.41715" lon="5.46379">
        <ele>1123.2</ele>
        <time>2023-07-24T06:33:41Z</time>
      </trkpt>
      <trkpt lat="44.41715" lon="5.46379">
        <ele>1123.2</ele>
        <time>2023-07-24T06:33:42Z</time>
      </trkpt>
      <trkpt lat="44.41716" lon="5.46379">
        <ele>1123.1</ele>
        <time>2023-07-24T06:33:43Z</time>
      </trkpt>
      <trkpt lat="44.41717" lon="5.46382">
        <ele>1123</ele>
        <time>2023-07-24T06:33:44Z</time>
      </trkpt>
      <trkpt lat="44.41719" lon="5.46386">
        <ele>1122.8</ele>
        <time>2023-07-24T06:33:45Z</time>
      </trkpt>
      <trkpt lat="44.41722" lon="5.46391">
        <ele>1122.6</ele>
        <time>2023-07-24T06:33:46Z</time>
      </trkpt>
      <trkpt lat="44.41724" lon="5.46397">
        <ele>1122.3</ele>
        <time>2023-07-24T06:33:47Z</time>
      </trkpt>
      <trkpt lat="44.41727" lon="5.46402">
        <ele>1122</ele>
        <time>2023-07-24T06:33:48Z</time>
      </trkpt>
      <trkpt lat="44.4173" lon="5.46408">
        <ele>1121.7</ele>
        <time>2023-07-24T06:33:49Z</time>
      </trkpt>
      <trkpt lat="44.41732" lon="5.46413">
        <ele>1121.4</ele>
        <time>2023-07-24T06:33:50Z</time>
      </trkpt>
      <trkpt lat="44.41735" lon="5.46418">
        <ele>1121.1</ele>
        <time>2023-07-24T06:33:51Z</time>
      </trkpt>
      <trkpt lat="44.41737" lon="5.46423">
        <ele>1120.8</ele>
        <time>2023-07-24T06:33:52Z</time>
      </trkpt>
      <trkpt lat="44.41739" lon="5.46428">
        <ele>1120.5</ele>
        <time>2023-07-24T06:33:53Z</time>
      </trkpt>
      <trkpt lat="44.41742" lon="5.46433">
        <ele>1120.2</ele>
        <time>2023-07-24T06:33:54Z</time>
      </trkpt>
      <trkpt lat="44.41745" lon="5.46438">
        <ele>1119.8</ele>
        <time>2023-07-24T06:33:55Z</time>
      </trkpt>
      <trkpt lat="44.41748" lon="5.46444">
        <ele>1119.4</ele>
        <time>2023-07-24T06:33:56Z</time>
      </trkpt>
      <trkpt lat="44.41751" lon="5.46452">
        <ele>1118.8</ele>
        <time>2023-07-24T06:33:57Z</time>
      </trkpt>
      <trkpt lat="44.41754" lon="5.46458">
        <ele>1118.4</ele>
        <time>2023-07-24T06:33:58Z</time>
      </trkpt>
      <trkpt lat="44.41757" lon="5.46466">
        <ele>1118</ele>
        <time>2023-07-24T06:33:59Z</time>
      </trkpt>
      <trkpt lat="44.41759" lon="5.46472">
        <ele>1117.6</ele>
        <time>2023-07-24T06:34:00Z</time>
      </trkpt>
      <trkpt lat="44.41761" lon="5.46478">
        <ele>1117.3</ele>
        <time>2023-07-24T06:34:01Z</time>
      </trkpt>
      <trkpt lat="44.41763" lon="5.46483">
        <ele>1117</ele>
        <time>2023-07-24T06:34:02Z</time>
      </trkpt>
      <trkpt lat="44.41765" lon="5.46488">
        <ele>1116.7</ele>
        <time>2023-07-24T06:34:03Z</time>
      </trkpt>
      <trkpt lat="44.41768" lon="5.46493">
        <ele>1116.4</ele>
        <time>2023-07-24T06:34:04Z</time>
      </trkpt>
      <trkpt lat="44.41771" lon="5.46499">
        <ele>1116.1</ele>
        <time>2023-07-24T06:34:05Z</time>
      </trkpt>
      <trkpt lat="44.41774" lon="5.46505">
        <ele>1115.6</ele>
        <time>2023-07-24T06:34:06Z</time>
      </trkpt>
      <trkpt lat="44.41777" lon="5.46511">
        <ele>1115.1</ele>
        <time>2023-07-24T06:34:07Z</time>
      </trkpt>
      <trkpt lat="44.4178" lon="5.46518">
        <ele>1114.5</ele>
        <time>2023-07-24T06:34:08Z</time>
      </trkpt>
      <trkpt lat="44.41784" lon="5.46525">
        <ele>1113.8</ele>
        <time>2023-07-24T06:34:09Z</time>
      </trkpt>
      <trkpt lat="44.41788" lon="5.46532">
        <ele>1113.1</ele>
        <time>2023-07-24T06:34:10Z</time>
      </trkpt>
      <trkpt lat="44.41792" lon="5.4654">
        <ele>1112.4</ele>
        <time>2023-07-24T06:34:11Z</time>
      </trkpt>
      <trkpt lat="44.41795" lon="5.46547">
        <ele>1111.9</ele>
        <time>2023-07-24T06:34:12Z</time>
      </trkpt>
      <trkpt lat="44.418" lon="5.46555">
        <ele>1111.2</ele>
        <time>2023-07-24T06:34:13Z</time>
      </trkpt>
      <trkpt lat="44.41804" lon="5.46563">
        <ele>1110.6</ele>
        <time>2023-07-24T06:34:14Z</time>
      </trkpt>
      <trkpt lat="44.41808" lon="5.46571">
        <ele>1110</ele>
        <time>2023-07-24T06:34:15Z</time>
      </trkpt>
      <trkpt lat="44.41812" lon="5.46579">
        <ele>1109.5</ele>
        <time>2023-07-24T06:34:16Z</time>
      </trkpt>
      <trkpt lat="44.41816" lon="5.46586">
        <ele>1108.9</ele>
        <time>2023-07-24T06:34:17Z</time>
      </trkpt>
      <trkpt lat="44.41821" lon="5.46594">
        <ele>1108.3</ele>
        <time>2023-07-24T06:34:18Z</time>
      </trkpt>
      <trkpt lat="44.41824" lon="5.46601">
        <ele>1107.7</ele>
        <time>2023-07-24T06:34:19Z</time>
      </trkpt>
      <trkpt lat="44.41829" lon="5.46608">
        <ele>1107.1</ele>
        <time>2023-07-24T06:34:20Z</time>
      </trkpt>
      <trkpt lat="44.41833" lon="5.46615">
        <ele>1106.5</ele>
        <time>2023-07-24T06:34:21Z</time>
      </trkpt>
      <trkpt lat="44.41837" lon="5.46621">
        <ele>1106</ele>
        <time>2023-07-24T06:34:22Z</time>
      </trkpt>
      <trkpt lat="44.41841" lon="5.46627">
        <ele>1105.6</ele>
        <time>2023-07-24T06:34:23Z</time>
      </trkpt>
      <trkpt lat="44.41845" lon="5.46634">
        <ele>1105.1</ele>
        <time>2023-07-24T06:34:24Z</time>
      </trkpt>
      <trkpt lat="44.4185" lon="5.46639">
        <ele>1104.7</ele>
        <time>2023-07-24T06:34:25Z</time>
      </trkpt>
      <trkpt lat="44.41856" lon="5.46644">
        <ele>1104</ele>
        <time>2023-07-24T06:34:26Z</time>
      </trkpt>
      <trkpt lat="44.41861" lon="5.46648">
        <ele>1103.3</ele>
        <time>2023-07-24T06:34:27Z</time>
      </trkpt>
      <trkpt lat="44.41868" lon="5.46652">
        <ele>1102.7</ele>
        <time>2023-07-24T06:34:28Z</time>
      </trkpt>
      <trkpt lat="44.41874" lon="5.46654">
        <ele>1102.1</ele>
        <time>2023-07-24T06:34:29Z</time>
      </trkpt>
      <trkpt lat="44.4188" lon="5.46658">
        <ele>1101.7</ele>
        <time>2023-07-24T06:34:30Z</time>
      </trkpt>
      <trkpt lat="44.41886" lon="5.46662">
        <ele>1101.3</ele>
        <time>2023-07-24T06:34:31Z</time>
      </trkpt>
      <trkpt lat="44.41891" lon="5.46667">
        <ele>1100.9</ele>
        <time>2023-07-24T06:34:32Z</time>
      </trkpt>
      <trkpt lat="44.41895" lon="5.46672">
        <ele>1100.4</ele>
        <time>2023-07-24T06:34:33Z</time>
      </trkpt>
      <trkpt lat="44.41899" lon="5.46679">
        <ele>1099.8</ele>
        <time>2023-07-24T06:34:34Z</time>
      </trkpt>
      <trkpt lat="44.41908" lon="5.46693">
        <ele>1098.5</ele>
        <time>2023-07-24T06:34:36Z</time>
      </trkpt>
      <trkpt lat="44.41913" lon="5.467">
        <ele>1097.8</ele>
        <time>2023-07-24T06:34:37Z</time>
      </trkpt>
      <trkpt lat="44.41918" lon="5.46705">
        <ele>1097.2</ele>
        <time>2023-07-24T06:34:38Z</time>
      </trkpt>
      <trkpt lat="44.41924" lon="5.46709">
        <ele>1096.8</ele>
        <time>2023-07-24T06:34:39Z</time>
      </trkpt>
      <trkpt lat="44.41929" lon="5.46712">
        <ele>1096.5</ele>
        <time>2023-07-24T06:34:40Z</time>
      </trkpt>
      <trkpt lat="44.41933" lon="5.46716">
        <ele>1096.1</ele>
        <time>2023-07-24T06:34:41Z</time>
      </trkpt>
      <trkpt lat="44.41937" lon="5.46721">
        <ele>1095.6</ele>
        <time>2023-07-24T06:34:42Z</time>
      </trkpt>
      <trkpt lat="44.41942" lon="5.46726">
        <ele>1095</ele>
        <time>2023-07-24T06:34:43Z</time>
      </trkpt>
      <trkpt lat="44.41946" lon="5.46731">
        <ele>1094.3</ele>
        <time>2023-07-24T06:34:44Z</time>
      </trkpt>
      <trkpt lat="44.41951" lon="5.46736">
        <ele>1093.6</ele>
        <time>2023-07-24T06:34:45Z</time>
      </trkpt>
      <trkpt lat="44.41957" lon="5.46738">
        <ele>1093</ele>
        <time>2023-07-24T06:34:46Z</time>
      </trkpt>
      <trkpt lat="44.41962" lon="5.46738">
        <ele>1092.6</ele>
        <time>2023-07-24T06:34:47Z</time>
      </trkpt>
      <trkpt lat="44.41967" lon="5.46738">
        <ele>1092.2</ele>
        <time>2023-07-24T06:34:48Z</time>
      </trkpt>
      <trkpt lat="44.41972" lon="5.46739">
        <ele>1091.8</ele>
        <time>2023-07-24T06:34:49Z</time>
      </trkpt>
      <trkpt lat="44.41977" lon="5.4674">
        <ele>1091.3</ele>
        <time>2023-07-24T06:34:50Z</time>
      </trkpt>
      <trkpt lat="44.41983" lon="5.46742">
        <ele>1090.8</ele>
        <time>2023-07-24T06:34:51Z</time>
      </trkpt>
      <trkpt lat="44.41988" lon="5.46745">
        <ele>1090.3</ele>
        <time>2023-07-24T06:34:52Z</time>
      </trkpt>
      <trkpt lat="44.41993" lon="5.46747">
        <ele>1089.7</ele>
        <time>2023-07-24T06:34:53Z</time>
      </trkpt>
      <trkpt lat="44.41998" lon="5.46748">
        <ele>1089.2</ele>
        <time>2023-07-24T06:34:54Z</time>
      </trkpt>
      <trkpt lat="44.42002" lon="5.46748">
        <ele>1088.8</ele>
        <time>2023-07-24T06:34:55Z</time>
      </trkpt>
      <trkpt lat="44.42006" lon="5.46745">
        <ele>1088.5</ele>
        <time>2023-07-24T06:34:56Z</time>
      </trkpt>
      <trkpt lat="44.42007" lon="5.46742">
        <ele>1088.3</ele>
        <time>2023-07-24T06:34:57Z</time>
      </trkpt>
      <trkpt lat="44.42009" lon="5.46738">
        <ele>1088</ele>
        <time>2023-07-24T06:34:58Z</time>
      </trkpt>
      <trkpt lat="44.42011" lon="5.46734">
        <ele>1087.6</ele>
        <time>2023-07-24T06:34:59Z</time>
      </trkpt>
      <trkpt lat="44.42014" lon="5.4673">
        <ele>1087.5</ele>
        <time>2023-07-24T06:35:00Z</time>
      </trkpt>
      <trkpt lat="44.42016" lon="5.46727">
        <ele>1087.5</ele>
        <time>2023-07-24T06:35:01Z</time>
      </trkpt>
      <trkpt lat="44.42019" lon="5.46723">
        <ele>1087.3</ele>
        <time>2023-07-24T06:35:02Z</time>
      </trkpt>
      <trkpt lat="44.4202" lon="5.46722">
        <ele>1087.2</ele>
        <time>2023-07-24T06:35:03Z</time>
      </trkpt>
      <trkpt lat="44.42022" lon="5.46719">
        <ele>1087.1</ele>
        <time>2023-07-24T06:35:04Z</time>
      </trkpt>
      <trkpt lat="44.42025" lon="5.46716">
        <ele>1086.9</ele>
        <time>2023-07-24T06:35:05Z</time>
      </trkpt>
      <trkpt lat="44.42027" lon="5.46713">
        <ele>1086.7</ele>
        <time>2023-07-24T06:35:06Z</time>
      </trkpt>
      <trkpt lat="44.4203" lon="5.46711">
        <ele>1086.5</ele>
        <time>2023-07-24T06:35:07Z</time>
      </trkpt>
      <trkpt lat="44.42032" lon="5.46708">
        <ele>1086.4</ele>
        <time>2023-07-24T06:35:08Z</time>
      </trkpt>
      <trkpt lat="44.42035" lon="5.46705">
        <ele>1086.2</ele>
        <time>2023-07-24T06:35:09Z</time>
      </trkpt>
      <trkpt lat="44.42037" lon="5.46701">
        <ele>1086</ele>
        <time>2023-07-24T06:35:10Z</time>
      </trkpt>
      <trkpt lat="44.42039" lon="5.46697">
        <ele>1085.9</ele>
        <time>2023-07-24T06:35:11Z</time>
      </trkpt>
      <trkpt lat="44.42042" lon="5.46693">
        <ele>1085.7</ele>
        <time>2023-07-24T06:35:12Z</time>
      </trkpt>
      <trkpt lat="44.42044" lon="5.46688">
        <ele>1085.5</ele>
        <time>2023-07-24T06:35:13Z</time>
      </trkpt>
      <trkpt lat="44.42047" lon="5.46684">
        <ele>1085.3</ele>
        <time>2023-07-24T06:35:14Z</time>
      </trkpt>
      <trkpt lat="44.4205" lon="5.46679">
        <ele>1085</ele>
        <time>2023-07-24T06:35:15Z</time>
      </trkpt>
      <trkpt lat="44.42054" lon="5.46675">
        <ele>1084.8</ele>
        <time>2023-07-24T06:35:16Z</time>
      </trkpt>
      <trkpt lat="44.42057" lon="5.46672">
        <ele>1084.6</ele>
        <time>2023-07-24T06:35:17Z</time>
      </trkpt>
      <trkpt lat="44.4206" lon="5.46669">
        <ele>1084.5</ele>
        <time>2023-07-24T06:35:18Z</time>
      </trkpt>
      <trkpt lat="44.42063" lon="5.46664">
        <ele>1084.4</ele>
        <time>2023-07-24T06:35:19Z</time>
      </trkpt>
      <trkpt lat="44.42065" lon="5.4666">
        <ele>1084.2</ele>
        <time>2023-07-24T06:35:20Z</time>
      </trkpt>
      <trkpt lat="44.42068" lon="5.46656">
        <ele>1084.1</ele>
        <time>2023-07-24T06:35:21Z</time>
      </trkpt>
      <trkpt lat="44.4207" lon="5.46652">
        <ele>1084</ele>
        <time>2023-07-24T06:35:22Z</time>
      </trkpt>
      <trkpt lat="44.42073" lon="5.46648">
        <ele>1084</ele>
        <time>2023-07-24T06:35:23Z</time>
      </trkpt>
      <trkpt lat="44.42077" lon="5.46644">
        <ele>1084</ele>
        <time>2023-07-24T06:35:24Z</time>
      </trkpt>
      <trkpt lat="44.4208" lon="5.4664">
        <ele>1084</ele>
        <time>2023-07-24T06:35:25Z</time>
      </trkpt>
      <trkpt lat="44.42084" lon="5.46637">
        <ele>1084.2</ele>
        <time>2023-07-24T06:35:26Z</time>
      </trkpt>
      <trkpt lat="44.42087" lon="5.46633">
        <ele>1084.3</ele>
        <time>2023-07-24T06:35:27Z</time>
      </trkpt>
      <trkpt lat="44.42091" lon="5.46631">
        <ele>1084.5</ele>
        <time>2023-07-24T06:35:28Z</time>
      </trkpt>
      <trkpt lat="44.42095" lon="5.46628">
        <ele>1084.7</ele>
        <time>2023-07-24T06:35:29Z</time>
      </trkpt>
      <trkpt lat="44.42098" lon="5.46625">
        <ele>1084.9</ele>
        <time>2023-07-24T06:35:30Z</time>
      </trkpt>
      <trkpt lat="44.421" lon="5.46622">
        <ele>1085</ele>
        <time>2023-07-24T06:35:31Z</time>
      </trkpt>
      <trkpt lat="44.42102" lon="5.46619">
        <ele>1085.1</ele>
        <time>2023-07-24T06:35:32Z</time>
      </trkpt>
      <trkpt lat="44.42104" lon="5.46615">
        <ele>1085.2</ele>
        <time>2023-07-24T06:35:33Z</time>
      </trkpt>
      <trkpt lat="44.42105" lon="5.46614">
        <ele>1085.2</ele>
        <time>2023-07-24T06:35:34Z</time>
      </trkpt>
      <trkpt lat="44.42107" lon="5.4661">
        <ele>1085.2</ele>
        <time>2023-07-24T06:35:35Z</time>
      </trkpt>
      <trkpt lat="44.42108" lon="5.46608">
        <ele>1085.2</ele>
        <time>2023-07-24T06:35:36Z</time>
      </trkpt>
      <trkpt lat="44.42111" lon="5.46605">
        <ele>1085.1</ele>
        <time>2023-07-24T06:35:37Z</time>
      </trkpt>
      <trkpt lat="44.42114" lon="5.46601">
        <ele>1085.1</ele>
        <time>2023-07-24T06:35:38Z</time>
      </trkpt>
      <trkpt lat="44.42116" lon="5.46598">
        <ele>1085.1</ele>
        <time>2023-07-24T06:35:39Z</time>
      </trkpt>
      <trkpt lat="44.42118" lon="5.46594">
        <ele>1085.1</ele>
        <time>2023-07-24T06:35:40Z</time>
      </trkpt>
      <trkpt lat="44.4212" lon="5.46591">
        <ele>1085.1</ele>
        <time>2023-07-24T06:35:41Z</time>
      </trkpt>
      <trkpt lat="44.42122" lon="5.46587">
        <ele>1085.2</ele>
        <time>2023-07-24T06:35:42Z</time>
      </trkpt>
      <trkpt lat="44.42125" lon="5.46583">
        <ele>1085.3</ele>
        <time>2023-07-24T06:35:43Z</time>
      </trkpt>
      <trkpt lat="44.42128" lon="5.46579">
        <ele>1085.4</ele>
        <time>2023-07-24T06:35:44Z</time>
      </trkpt>
      <trkpt lat="44.42131" lon="5.46575">
        <ele>1085.6</ele>
        <time>2023-07-24T06:35:45Z</time>
      </trkpt>
      <trkpt lat="44.42134" lon="5.46571">
        <ele>1085.8</ele>
        <time>2023-07-24T06:35:46Z</time>
      </trkpt>
      <trkpt lat="44.42138" lon="5.46567">
        <ele>1086</ele>
        <time>2023-07-24T06:35:47Z</time>
      </trkpt>
      <trkpt lat="44.42141" lon="5.46563">
        <ele>1086.3</ele>
        <time>2023-07-24T06:35:48Z</time>
      </trkpt>
      <trkpt lat="44.42145" lon="5.4656">
        <ele>1086.6</ele>
        <time>2023-07-24T06:35:49Z</time>
      </trkpt>
      <trkpt lat="44.42147" lon="5.46557">
        <ele>1086.9</ele>
        <time>2023-07-24T06:35:50Z</time>
      </trkpt>
      <trkpt lat="44.42149" lon="5.46554">
        <ele>1087.1</ele>
        <time>2023-07-24T06:35:51Z</time>
      </trkpt>
      <trkpt lat="44.42152" lon="5.4655">
        <ele>1087.3</ele>
        <time>2023-07-24T06:35:52Z</time>
      </trkpt>
      <trkpt lat="44.42154" lon="5.46547">
        <ele>1087.5</ele>
        <time>2023-07-24T06:35:53Z</time>
      </trkpt>
      <trkpt lat="44.42156" lon="5.46543">
        <ele>1087.6</ele>
        <time>2023-07-24T06:35:54Z</time>
      </trkpt>
      <trkpt lat="44.42158" lon="5.4654">
        <ele>1087.7</ele>
        <time>2023-07-24T06:35:55Z</time>
      </trkpt>
      <trkpt lat="44.42161" lon="5.46536">
        <ele>1087.7</ele>
        <time>2023-07-24T06:35:56Z</time>
      </trkpt>
      <trkpt lat="44.42163" lon="5.46534">
        <ele>1087.7</ele>
        <time>2023-07-24T06:35:57Z</time>
      </trkpt>
      <trkpt lat="44.42165" lon="5.46531">
        <ele>1087.7</ele>
        <time>2023-07-24T06:35:58Z</time>
      </trkpt>
      <trkpt lat="44.4217" lon="5.46526">
        <ele>1087.6</ele>
        <time>2023-07-24T06:36:00Z</time>
      </trkpt>
      <trkpt lat="44.42173" lon="5.46524">
        <ele>1087.6</ele>
        <time>2023-07-24T06:36:01Z</time>
      </trkpt>
      <trkpt lat="44.42175" lon="5.46523">
        <ele>1087.5</ele>
        <time>2023-07-24T06:36:02Z</time>
      </trkpt>
      <trkpt lat="44.42178" lon="5.46522">
        <ele>1087.4</ele>
        <time>2023-07-24T06:36:03Z</time>
      </trkpt>
      <trkpt lat="44.42182" lon="5.46522">
        <ele>1087.2</ele>
        <time>2023-07-24T06:36:04Z</time>
      </trkpt>
      <trkpt lat="44.42185" lon="5.46523">
        <ele>1087</ele>
        <time>2023-07-24T06:36:05Z</time>
      </trkpt>
      <trkpt lat="44.4219" lon="5.46524">
        <ele>1086.8</ele>
        <time>2023-07-24T06:36:06Z</time>
      </trkpt>
      <trkpt lat="44.42194" lon="5.46526">
        <ele>1086.4</ele>
        <time>2023-07-24T06:36:07Z</time>
      </trkpt>
      <trkpt lat="44.42199" lon="5.46527">
        <ele>1086.1</ele>
        <time>2023-07-24T06:36:08Z</time>
      </trkpt>
      <trkpt lat="44.42202" lon="5.46527">
        <ele>1085.8</ele>
        <time>2023-07-24T06:36:09Z</time>
      </trkpt>
      <trkpt lat="44.42205" lon="5.46525">
        <ele>1085.4</ele>
        <time>2023-07-24T06:36:10Z</time>
      </trkpt>
      <trkpt lat="44.42206" lon="5.46524">
        <ele>1085.3</ele>
        <time>2023-07-24T06:36:11Z</time>
      </trkpt>
      <trkpt lat="44.42208" lon="5.46519">
        <ele>1085</ele>
        <time>2023-07-24T06:36:12Z</time>
      </trkpt>
      <trkpt lat="44.42208" lon="5.46517">
        <ele>1084.8</ele>
        <time>2023-07-24T06:36:13Z</time>
      </trkpt>
      <trkpt lat="44.42209" lon="5.46512">
        <ele>1084.5</ele>
        <time>2023-07-24T06:36:14Z</time>
      </trkpt>
      <trkpt lat="44.42211" lon="5.46507">
        <ele>1084.1</ele>
        <time>2023-07-24T06:36:15Z</time>
      </trkpt>
      <trkpt lat="44.42213" lon="5.46501">
        <ele>1083.8</ele>
        <time>2023-07-24T06:36:16Z</time>
      </trkpt>
      <trkpt lat="44.42215" lon="5.46495">
        <ele>1083.5</ele>
        <time>2023-07-24T06:36:17Z</time>
      </trkpt>
      <trkpt lat="44.42217" lon="5.4649">
        <ele>1083.2</ele>
        <time>2023-07-24T06:36:18Z</time>
      </trkpt>
      <trkpt lat="44.42218" lon="5.46485">
        <ele>1082.9</ele>
        <time>2023-07-24T06:36:19Z</time>
      </trkpt>
      <trkpt lat="44.42219" lon="5.4648">
        <ele>1082.7</ele>
        <time>2023-07-24T06:36:20Z</time>
      </trkpt>
      <trkpt lat="44.42221" lon="5.46474">
        <ele>1082.5</ele>
        <time>2023-07-24T06:36:21Z</time>
      </trkpt>
      <trkpt lat="44.42223" lon="5.46468">
        <ele>1082.3</ele>
        <time>2023-07-24T06:36:22Z</time>
      </trkpt>
      <trkpt lat="44.42226" lon="5.46463">
        <ele>1082.1</ele>
        <time>2023-07-24T06:36:23Z</time>
      </trkpt>
      <trkpt lat="44.42228" lon="5.46458">
        <ele>1082</ele>
        <time>2023-07-24T06:36:24Z</time>
      </trkpt>
      <trkpt lat="44.4223" lon="5.46454">
        <ele>1082</ele>
        <time>2023-07-24T06:36:25Z</time>
      </trkpt>
      <trkpt lat="44.42232" lon="5.4645">
        <ele>1081.9</ele>
        <time>2023-07-24T06:36:26Z</time>
      </trkpt>
      <trkpt lat="44.42232" lon="5.46449">
        <ele>1081.9</ele>
        <time>2023-07-24T06:36:27Z</time>
      </trkpt>
      <trkpt lat="44.42234" lon="5.46445">
        <ele>1081.9</ele>
        <time>2023-07-24T06:36:28Z</time>
      </trkpt>
      <trkpt lat="44.42237" lon="5.46442">
        <ele>1082</ele>
        <time>2023-07-24T06:36:29Z</time>
      </trkpt>
      <trkpt lat="44.42239" lon="5.46439">
        <ele>1082.1</ele>
        <time>2023-07-24T06:36:30Z</time>
      </trkpt>
      <trkpt lat="44.4224" lon="5.46438">
        <ele>1082.1</ele>
        <time>2023-07-24T06:36:31Z</time>
      </trkpt>
      <trkpt lat="44.42243" lon="5.46436">
        <ele>1082.3</ele>
        <time>2023-07-24T06:36:32Z</time>
      </trkpt>
      <trkpt lat="44.42245" lon="5.46435">
        <ele>1082.3</ele>
        <time>2023-07-24T06:36:33Z</time>
      </trkpt>
      <trkpt lat="44.42247" lon="5.46433">
        <ele>1082.4</ele>
        <time>2023-07-24T06:36:34Z</time>
      </trkpt>
      <trkpt lat="44.42249" lon="5.4643">
        <ele>1082.6</ele>
        <time>2023-07-24T06:36:35Z</time>
      </trkpt>
      <trkpt lat="44.42253" lon="5.46428">
        <ele>1082.7</ele>
        <time>2023-07-24T06:36:36Z</time>
      </trkpt>
      <trkpt lat="44.42256" lon="5.46425">
        <ele>1082.8</ele>
        <time>2023-07-24T06:36:37Z</time>
      </trkpt>
      <trkpt lat="44.4226" lon="5.46421">
        <ele>1082.8</ele>
        <time>2023-07-24T06:36:38Z</time>
      </trkpt>
      <trkpt lat="44.42264" lon="5.46418">
        <ele>1082.9</ele>
        <time>2023-07-24T06:36:39Z</time>
      </trkpt>
      <trkpt lat="44.42268" lon="5.46415">
        <ele>1083.1</ele>
        <time>2023-07-24T06:36:40Z</time>
      </trkpt>
      <trkpt lat="44.42272" lon="5.46412">
        <ele>1083.2</ele>
        <time>2023-07-24T06:36:41Z</time>
      </trkpt>
      <trkpt lat="44.42275" lon="5.46409">
        <ele>1083.4</ele>
        <time>2023-07-24T06:36:42Z</time>
      </trkpt>
      <trkpt lat="44.42278" lon="5.46406">
        <ele>1083.5</ele>
        <time>2023-07-24T06:36:43Z</time>
      </trkpt>
      <trkpt lat="44.42281" lon="5.46403">
        <ele>1083.7</ele>
        <time>2023-07-24T06:36:44Z</time>
      </trkpt>
      <trkpt lat="44.42283" lon="5.46401">
        <ele>1083.8</ele>
        <time>2023-07-24T06:36:45Z</time>
      </trkpt>
      <trkpt lat="44.42286" lon="5.46398">
        <ele>1083.9</ele>
        <time>2023-07-24T06:36:46Z</time>
      </trkpt>
      <trkpt lat="44.42288" lon="5.46395">
        <ele>1084</ele>
        <time>2023-07-24T06:36:47Z</time>
      </trkpt>
      <trkpt lat="44.42291" lon="5.46392">
        <ele>1084.1</ele>
        <time>2023-07-24T06:36:48Z</time>
      </trkpt>
      <trkpt lat="44.42294" lon="5.46388">
        <ele>1084.1</ele>
        <time>2023-07-24T06:36:49Z</time>
      </trkpt>
      <trkpt lat="44.42296" lon="5.46384">
        <ele>1084.1</ele>
        <time>2023-07-24T06:36:50Z</time>
      </trkpt>
      <trkpt lat="44.42299" lon="5.4638">
        <ele>1084</ele>
        <time>2023-07-24T06:36:51Z</time>
      </trkpt>
      <trkpt lat="44.42301" lon="5.46376">
        <ele>1083.9</ele>
        <time>2023-07-24T06:36:52Z</time>
      </trkpt>
      <trkpt lat="44.42304" lon="5.46373">
        <ele>1083.7</ele>
        <time>2023-07-24T06:36:53Z</time>
      </trkpt>
      <trkpt lat="44.42306" lon="5.46369">
        <ele>1083.4</ele>
        <time>2023-07-24T06:36:54Z</time>
      </trkpt>
      <trkpt lat="44.42307" lon="5.46365">
        <ele>1083.2</ele>
        <time>2023-07-24T06:36:55Z</time>
      </trkpt>
      <trkpt lat="44.42308" lon="5.46361">
        <ele>1082.9</ele>
        <time>2023-07-24T06:36:56Z</time>
      </trkpt>
      <trkpt lat="44.42308" lon="5.46356">
        <ele>1082.5</ele>
        <time>2023-07-24T06:36:57Z</time>
      </trkpt>
      <trkpt lat="44.42308" lon="5.4635">
        <ele>1081.9</ele>
        <time>2023-07-24T06:36:58Z</time>
      </trkpt>
      <trkpt lat="44.42309" lon="5.46344">
        <ele>1081.3</ele>
        <time>2023-07-24T06:36:59Z</time>
      </trkpt>
      <trkpt lat="44.42311" lon="5.46338">
        <ele>1080.8</ele>
        <time>2023-07-24T06:37:00Z</time>
      </trkpt>
      <trkpt lat="44.42314" lon="5.46333">
        <ele>1080.4</ele>
        <time>2023-07-24T06:37:01Z</time>
      </trkpt>
      <trkpt lat="44.42316" lon="5.46329">
        <ele>1080.1</ele>
        <time>2023-07-24T06:37:02Z</time>
      </trkpt>
      <trkpt lat="44.42318" lon="5.46324">
        <ele>1080</ele>
        <time>2023-07-24T06:37:03Z</time>
      </trkpt>
      <trkpt lat="44.42321" lon="5.46319">
        <ele>1080</ele>
        <time>2023-07-24T06:37:04Z</time>
      </trkpt>
      <trkpt lat="44.42324" lon="5.46314">
        <ele>1080.2</ele>
        <time>2023-07-24T06:37:05Z</time>
      </trkpt>
      <trkpt lat="44.42327" lon="5.46309">
        <ele>1080.5</ele>
        <time>2023-07-24T06:37:06Z</time>
      </trkpt>
      <trkpt lat="44.42329" lon="5.46304">
        <ele>1080.9</ele>
        <time>2023-07-24T06:37:07Z</time>
      </trkpt>
      <trkpt lat="44.42331" lon="5.46299">
        <ele>1081.3</ele>
        <time>2023-07-24T06:37:08Z</time>
      </trkpt>
      <trkpt lat="44.42333" lon="5.46294">
        <ele>1081.7</ele>
        <time>2023-07-24T06:37:09Z</time>
      </trkpt>
      <trkpt lat="44.42335" lon="5.46289">
        <ele>1082.1</ele>
        <time>2023-07-24T06:37:10Z</time>
      </trkpt>
      <trkpt lat="44.42337" lon="5.46285">
        <ele>1082.4</ele>
        <time>2023-07-24T06:37:11Z</time>
      </trkpt>
      <trkpt lat="44.42339" lon="5.4628">
        <ele>1082.8</ele>
        <time>2023-07-24T06:37:12Z</time>
      </trkpt>
      <trkpt lat="44.42342" lon="5.46275">
        <ele>1083.1</ele>
        <time>2023-07-24T06:37:13Z</time>
      </trkpt>
      <trkpt lat="44.42344" lon="5.4627">
        <ele>1083.3</ele>
        <time>2023-07-24T06:37:14Z</time>
      </trkpt>
      <trkpt lat="44.42346" lon="5.46265">
        <ele>1083.5</ele>
        <time>2023-07-24T06:37:15Z</time>
      </trkpt>
      <trkpt lat="44.42347" lon="5.46261">
        <ele>1083.6</ele>
        <time>2023-07-24T06:37:16Z</time>
      </trkpt>
      <trkpt lat="44.42348" lon="5.46256">
        <ele>1083.6</ele>
        <time>2023-07-24T06:37:17Z</time>
      </trkpt>
      <trkpt lat="44.42349" lon="5.46252">
        <ele>1083.6</ele>
        <time>2023-07-24T06:37:18Z</time>
      </trkpt>
      <trkpt lat="44.4235" lon="5.4625">
        <ele>1083.6</ele>
        <time>2023-07-24T06:37:19Z</time>
      </trkpt>
      <trkpt lat="44.4235" lon="5.46246">
        <ele>1083.5</ele>
        <time>2023-07-24T06:37:20Z</time>
      </trkpt>
      <trkpt lat="44.42351" lon="5.46244">
        <ele>1083.5</ele>
        <time>2023-07-24T06:37:21Z</time>
      </trkpt>
      <trkpt lat="44.42351" lon="5.4624">
        <ele>1083.4</ele>
        <time>2023-07-24T06:37:22Z</time>
      </trkpt>
      <trkpt lat="44.42352" lon="5.46235">
        <ele>1083.2</ele>
        <time>2023-07-24T06:37:23Z</time>
      </trkpt>
      <trkpt lat="44.42353" lon="5.46231">
        <ele>1083.1</ele>
        <time>2023-07-24T06:37:24Z</time>
      </trkpt>
      <trkpt lat="44.42355" lon="5.46227">
        <ele>1083</ele>
        <time>2023-07-24T06:37:25Z</time>
      </trkpt>
      <trkpt lat="44.42358" lon="5.46225">
        <ele>1082.8</ele>
        <time>2023-07-24T06:37:26Z</time>
      </trkpt>
      <trkpt lat="44.4236" lon="5.46222">
        <ele>1082.6</ele>
        <time>2023-07-24T06:37:27Z</time>
      </trkpt>
      <trkpt lat="44.42363" lon="5.46221">
        <ele>1082.5</ele>
        <time>2023-07-24T06:37:28Z</time>
      </trkpt>
      <trkpt lat="44.42366" lon="5.4622">
        <ele>1082.3</ele>
        <time>2023-07-24T06:37:29Z</time>
      </trkpt>
      <trkpt lat="44.42369" lon="5.46219">
        <ele>1082.1</ele>
        <time>2023-07-24T06:37:30Z</time>
      </trkpt>
      <trkpt lat="44.42373" lon="5.46218">
        <ele>1081.8</ele>
        <time>2023-07-24T06:37:31Z</time>
      </trkpt>
      <trkpt lat="44.42378" lon="5.46217">
        <ele>1081.5</ele>
        <time>2023-07-24T06:37:32Z</time>
      </trkpt>
      <trkpt lat="44.42382" lon="5.46217">
        <ele>1081.1</ele>
        <time>2023-07-24T06:37:33Z</time>
      </trkpt>
      <trkpt lat="44.42386" lon="5.46217">
        <ele>1080.7</ele>
        <time>2023-07-24T06:37:34Z</time>
      </trkpt>
      <trkpt lat="44.42391" lon="5.46216">
        <ele>1080.3</ele>
        <time>2023-07-24T06:37:35Z</time>
      </trkpt>
      <trkpt lat="44.42395" lon="5.46216">
        <ele>1079.8</ele>
        <time>2023-07-24T06:37:36Z</time>
      </trkpt>
      <trkpt lat="44.42399" lon="5.46217">
        <ele>1079.3</ele>
        <time>2023-07-24T06:37:37Z</time>
      </trkpt>
      <trkpt lat="44.42403" lon="5.46219">
        <ele>1078.8</ele>
        <time>2023-07-24T06:37:38Z</time>
      </trkpt>
      <trkpt lat="44.42406" lon="5.46221">
        <ele>1078.2</ele>
        <time>2023-07-24T06:37:39Z</time>
      </trkpt>
      <trkpt lat="44.42411" lon="5.46223">
        <ele>1077.6</ele>
        <time>2023-07-24T06:37:40Z</time>
      </trkpt>
      <trkpt lat="44.42415" lon="5.46225">
        <ele>1076.8</ele>
        <time>2023-07-24T06:37:41Z</time>
      </trkpt>
      <trkpt lat="44.4242" lon="5.46227">
        <ele>1076.1</ele>
        <time>2023-07-24T06:37:42Z</time>
      </trkpt>
      <trkpt lat="44.42426" lon="5.46227">
        <ele>1075.4</ele>
        <time>2023-07-24T06:37:43Z</time>
      </trkpt>
      <trkpt lat="44.42431" lon="5.46226">
        <ele>1074.7</ele>
        <time>2023-07-24T06:37:44Z</time>
      </trkpt>
      <trkpt lat="44.42437" lon="5.46227">
        <ele>1074.1</ele>
        <time>2023-07-24T06:37:45Z</time>
      </trkpt>
      <trkpt lat="44.42443" lon="5.46227">
        <ele>1073.6</ele>
        <time>2023-07-24T06:37:46Z</time>
      </trkpt>
      <trkpt lat="44.42449" lon="5.46227">
        <ele>1073.3</ele>
        <time>2023-07-24T06:37:47Z</time>
      </trkpt>
      <trkpt lat="44.42455" lon="5.46229">
        <ele>1073.1</ele>
        <time>2023-07-24T06:37:48Z</time>
      </trkpt>
      <trkpt lat="44.42459" lon="5.4623">
        <ele>1073</ele>
        <time>2023-07-24T06:37:49Z</time>
      </trkpt>
      <trkpt lat="44.42464" lon="5.46231">
        <ele>1072.9</ele>
        <time>2023-07-24T06:37:50Z</time>
      </trkpt>
      <trkpt lat="44.42468" lon="5.46233">
        <ele>1072.9</ele>
        <time>2023-07-24T06:37:51Z</time>
      </trkpt>
      <trkpt lat="44.42473" lon="5.46235">
        <ele>1072.8</ele>
        <time>2023-07-24T06:37:52Z</time>
      </trkpt>
      <trkpt lat="44.42477" lon="5.46238">
        <ele>1072.7</ele>
        <time>2023-07-24T06:37:53Z</time>
      </trkpt>
      <trkpt lat="44.42481" lon="5.46238">
        <ele>1072.6</ele>
        <time>2023-07-24T06:37:54Z</time>
      </trkpt>
      <trkpt lat="44.42484" lon="5.46238">
        <ele>1072.5</ele>
        <time>2023-07-24T06:37:55Z</time>
      </trkpt>
      <trkpt lat="44.42489" lon="5.46238">
        <ele>1072.3</ele>
        <time>2023-07-24T06:37:56Z</time>
      </trkpt>
      <trkpt lat="44.42492" lon="5.46237">
        <ele>1072</ele>
        <time>2023-07-24T06:37:57Z</time>
      </trkpt>
      <trkpt lat="44.42497" lon="5.46237">
        <ele>1071.6</ele>
        <time>2023-07-24T06:37:58Z</time>
      </trkpt>
      <trkpt lat="44.42501" lon="5.46238">
        <ele>1071.1</ele>
        <time>2023-07-24T06:37:59Z</time>
      </trkpt>
      <trkpt lat="44.42506" lon="5.46239">
        <ele>1070.5</ele>
        <time>2023-07-24T06:38:00Z</time>
      </trkpt>
      <trkpt lat="44.4251" lon="5.4624">
        <ele>1069.8</ele>
        <time>2023-07-24T06:38:01Z</time>
      </trkpt>
      <trkpt lat="44.42515" lon="5.46241">
        <ele>1069.2</ele>
        <time>2023-07-24T06:38:02Z</time>
      </trkpt>
      <trkpt lat="44.42519" lon="5.46241">
        <ele>1068.6</ele>
        <time>2023-07-24T06:38:03Z</time>
      </trkpt>
      <trkpt lat="44.42524" lon="5.46242">
        <ele>1067.9</ele>
        <time>2023-07-24T06:38:04Z</time>
      </trkpt>
      <trkpt lat="44.42529" lon="5.46242">
        <ele>1067.2</ele>
        <time>2023-07-24T06:38:05Z</time>
      </trkpt>
      <trkpt lat="44.42534" lon="5.46242">
        <ele>1066.6</ele>
        <time>2023-07-24T06:38:06Z</time>
      </trkpt>
      <trkpt lat="44.42538" lon="5.46243">
        <ele>1066</ele>
        <time>2023-07-24T06:38:07Z</time>
      </trkpt>
      <trkpt lat="44.42542" lon="5.46243">
        <ele>1065.6</ele>
        <time>2023-07-24T06:38:08Z</time>
      </trkpt>
      <trkpt lat="44.42545" lon="5.46244">
        <ele>1065.2</ele>
        <time>2023-07-24T06:38:09Z</time>
      </trkpt>
      <trkpt lat="44.42549" lon="5.46245">
        <ele>1064.7</ele>
        <time>2023-07-24T06:38:10Z</time>
      </trkpt>
      <trkpt lat="44.4255" lon="5.46245">
        <ele>1064.6</ele>
        <time>2023-07-24T06:38:11Z</time>
      </trkpt>
      <trkpt lat="44.42553" lon="5.46245">
        <ele>1064.2</ele>
        <time>2023-07-24T06:38:12Z</time>
      </trkpt>
      <trkpt lat="44.42557" lon="5.46246">
        <ele>1063.9</ele>
        <time>2023-07-24T06:38:13Z</time>
      </trkpt>
      <trkpt lat="44.42561" lon="5.46246">
        <ele>1063.6</ele>
        <time>2023-07-24T06:38:14Z</time>
      </trkpt>
      <trkpt lat="44.42565" lon="5.46248">
        <ele>1063.4</ele>
        <time>2023-07-24T06:38:15Z</time>
      </trkpt>
      <trkpt lat="44.42568" lon="5.4625">
        <ele>1063.4</ele>
        <time>2023-07-24T06:38:16Z</time>
      </trkpt>
      <trkpt lat="44.42571" lon="5.46252">
        <ele>1063.7</ele>
        <time>2023-07-24T06:38:17Z</time>
      </trkpt>
      <trkpt lat="44.42573" lon="5.46253">
        <ele>1063.8</ele>
        <time>2023-07-24T06:38:18Z</time>
      </trkpt>
      <trkpt lat="44.42576" lon="5.46255">
        <ele>1064</ele>
        <time>2023-07-24T06:38:19Z</time>
      </trkpt>
      <trkpt lat="44.42579" lon="5.46256">
        <ele>1064.3</ele>
        <time>2023-07-24T06:38:20Z</time>
      </trkpt>
      <trkpt lat="44.42582" lon="5.46257">
        <ele>1064.5</ele>
        <time>2023-07-24T06:38:21Z</time>
      </trkpt>
      <trkpt lat="44.42585" lon="5.46258">
        <ele>1064.7</ele>
        <time>2023-07-24T06:38:22Z</time>
      </trkpt>
      <trkpt lat="44.42588" lon="5.46259">
        <ele>1065</ele>
        <time>2023-07-24T06:38:23Z</time>
      </trkpt>
      <trkpt lat="44.42591" lon="5.4626">
        <ele>1065.2</ele>
        <time>2023-07-24T06:38:24Z</time>
      </trkpt>
      <trkpt lat="44.42595" lon="5.4626">
        <ele>1065.5</ele>
        <time>2023-07-24T06:38:25Z</time>
      </trkpt>
      <trkpt lat="44.42598" lon="5.46261">
        <ele>1065.7</ele>
        <time>2023-07-24T06:38:26Z</time>
      </trkpt>
      <trkpt lat="44.42601" lon="5.4626">
        <ele>1065.9</ele>
        <time>2023-07-24T06:38:27Z</time>
      </trkpt>
      <trkpt lat="44.42605" lon="5.46261">
        <ele>1066.1</ele>
        <time>2023-07-24T06:38:28Z</time>
      </trkpt>
      <trkpt lat="44.42606" lon="5.46261">
        <ele>1066.2</ele>
        <time>2023-07-24T06:38:29Z</time>
      </trkpt>
      <trkpt lat="44.42609" lon="5.4626">
        <ele>1066.4</ele>
        <time>2023-07-24T06:38:30Z</time>
      </trkpt>
      <trkpt lat="44.42612" lon="5.4626">
        <ele>1066.6</ele>
        <time>2023-07-24T06:38:31Z</time>
      </trkpt>
      <trkpt lat="44.42614" lon="5.46259">
        <ele>1066.8</ele>
        <time>2023-07-24T06:38:32Z</time>
      </trkpt>
      <trkpt lat="44.42617" lon="5.46259">
        <ele>1066.9</ele>
        <time>2023-07-24T06:38:33Z</time>
      </trkpt>
      <trkpt lat="44.4262" lon="5.46259">
        <ele>1067.1</ele>
        <time>2023-07-24T06:38:34Z</time>
      </trkpt>
      <trkpt lat="44.42623" lon="5.46258">
        <ele>1067.3</ele>
        <time>2023-07-24T06:38:35Z</time>
      </trkpt>
      <trkpt lat="44.42626" lon="5.46257">
        <ele>1067.4</ele>
        <time>2023-07-24T06:38:36Z</time>
      </trkpt>
      <trkpt lat="44.42628" lon="5.46256">
        <ele>1067.6</ele>
        <time>2023-07-24T06:38:37Z</time>
      </trkpt>
      <trkpt lat="44.42631" lon="5.46254">
        <ele>1067.7</ele>
        <time>2023-07-24T06:38:38Z</time>
      </trkpt>
      <trkpt lat="44.42634" lon="5.46253">
        <ele>1067.9</ele>
        <time>2023-07-24T06:38:39Z</time>
      </trkpt>
      <trkpt lat="44.42636" lon="5.46252">
        <ele>1068</ele>
        <time>2023-07-24T06:38:40Z</time>
      </trkpt>
      <trkpt lat="44.4264" lon="5.46251">
        <ele>1068.2</ele>
        <time>2023-07-24T06:38:41Z</time>
      </trkpt>
      <trkpt lat="44.42641" lon="5.4625">
        <ele>1068.3</ele>
        <time>2023-07-24T06:38:42Z</time>
      </trkpt>
      <trkpt lat="44.42645" lon="5.46249">
        <ele>1068.5</ele>
        <time>2023-07-24T06:38:43Z</time>
      </trkpt>
      <trkpt lat="44.42646" lon="5.46248">
        <ele>1068.6</ele>
        <time>2023-07-24T06:38:44Z</time>
      </trkpt>
      <trkpt lat="44.42649" lon="5.46246">
        <ele>1069</ele>
        <time>2023-07-24T06:38:45Z</time>
      </trkpt>
      <trkpt lat="44.42651" lon="5.46244">
        <ele>1069.5</ele>
        <time>2023-07-24T06:38:46Z</time>
      </trkpt>
      <trkpt lat="44.42654" lon="5.46241">
        <ele>1069.9</ele>
        <time>2023-07-24T06:38:47Z</time>
      </trkpt>
      <trkpt lat="44.42656" lon="5.46238">
        <ele>1070.2</ele>
        <time>2023-07-24T06:38:48Z</time>
      </trkpt>
      <trkpt lat="44.42659" lon="5.46234">
        <ele>1070.7</ele>
        <time>2023-07-24T06:38:49Z</time>
      </trkpt>
      <trkpt lat="44.4266" lon="5.46233">
        <ele>1070.9</ele>
        <time>2023-07-24T06:38:50Z</time>
      </trkpt>
      <trkpt lat="44.42662" lon="5.4623">
        <ele>1071.2</ele>
        <time>2023-07-24T06:38:51Z</time>
      </trkpt>
      <trkpt lat="44.42664" lon="5.46228">
        <ele>1071.6</ele>
        <time>2023-07-24T06:38:52Z</time>
      </trkpt>
      <trkpt lat="44.42667" lon="5.46225">
        <ele>1071.9</ele>
        <time>2023-07-24T06:38:53Z</time>
      </trkpt>
      <trkpt lat="44.42669" lon="5.46223">
        <ele>1072.2</ele>
        <time>2023-07-24T06:38:54Z</time>
      </trkpt>
      <trkpt lat="44.42672" lon="5.46221">
        <ele>1072.6</ele>
        <time>2023-07-24T06:38:55Z</time>
      </trkpt>
      <trkpt lat="44.42674" lon="5.46218">
        <ele>1072.8</ele>
        <time>2023-07-24T06:38:56Z</time>
      </trkpt>
      <trkpt lat="44.42676" lon="5.46215">
        <ele>1073.1</ele>
        <time>2023-07-24T06:38:57Z</time>
      </trkpt>
      <trkpt lat="44.42678" lon="5.46212">
        <ele>1073.4</ele>
        <time>2023-07-24T06:38:58Z</time>
      </trkpt>
      <trkpt lat="44.4268" lon="5.46209">
        <ele>1073.7</ele>
        <time>2023-07-24T06:38:59Z</time>
      </trkpt>
      <trkpt lat="44.42683" lon="5.46207">
        <ele>1074</ele>
        <time>2023-07-24T06:39:00Z</time>
      </trkpt>
      <trkpt lat="44.42685" lon="5.46204">
        <ele>1074.3</ele>
        <time>2023-07-24T06:39:01Z</time>
      </trkpt>
      <trkpt lat="44.42686" lon="5.46203">
        <ele>1074.4</ele>
        <time>2023-07-24T06:39:02Z</time>
      </trkpt>
      <trkpt lat="44.42689" lon="5.462">
        <ele>1074.8</ele>
        <time>2023-07-24T06:39:03Z</time>
      </trkpt>
      <trkpt lat="44.4269" lon="5.46199">
        <ele>1074.9</ele>
        <time>2023-07-24T06:39:04Z</time>
      </trkpt>
      <trkpt lat="44.42693" lon="5.46197">
        <ele>1075.2</ele>
        <time>2023-07-24T06:39:05Z</time>
      </trkpt>
      <trkpt lat="44.42695" lon="5.46195">
        <ele>1075.4</ele>
        <time>2023-07-24T06:39:06Z</time>
      </trkpt>
      <trkpt lat="44.42698" lon="5.46193">
        <ele>1075.7</ele>
        <time>2023-07-24T06:39:07Z</time>
      </trkpt>
      <trkpt lat="44.427" lon="5.4619">
        <ele>1076</ele>
        <time>2023-07-24T06:39:08Z</time>
      </trkpt>
      <trkpt lat="44.42703" lon="5.46188">
        <ele>1076.3</ele>
        <time>2023-07-24T06:39:09Z</time>
      </trkpt>
      <trkpt lat="44.42705" lon="5.46187">
        <ele>1076.6</ele>
        <time>2023-07-24T06:39:10Z</time>
      </trkpt>
      <trkpt lat="44.42707" lon="5.46184">
        <ele>1076.9</ele>
        <time>2023-07-24T06:39:11Z</time>
      </trkpt>
      <trkpt lat="44.4271" lon="5.46182">
        <ele>1077.2</ele>
        <time>2023-07-24T06:39:12Z</time>
      </trkpt>
      <trkpt lat="44.42713" lon="5.4618">
        <ele>1077.5</ele>
        <time>2023-07-24T06:39:13Z</time>
      </trkpt>
      <trkpt lat="44.42716" lon="5.46177">
        <ele>1078</ele>
        <time>2023-07-24T06:39:14Z</time>
      </trkpt>
      <trkpt lat="44.42717" lon="5.46176">
        <ele>1078.1</ele>
        <time>2023-07-24T06:39:15Z</time>
      </trkpt>
      <trkpt lat="44.4272" lon="5.46174">
        <ele>1078.5</ele>
        <time>2023-07-24T06:39:16Z</time>
      </trkpt>
      <trkpt lat="44.42723" lon="5.46171">
        <ele>1078.9</ele>
        <time>2023-07-24T06:39:17Z</time>
      </trkpt>
      <trkpt lat="44.42724" lon="5.4617">
        <ele>1079.1</ele>
        <time>2023-07-24T06:39:18Z</time>
      </trkpt>
      <trkpt lat="44.42727" lon="5.46167">
        <ele>1079.5</ele>
        <time>2023-07-24T06:39:19Z</time>
      </trkpt>
      <trkpt lat="44.42728" lon="5.46166">
        <ele>1079.6</ele>
        <time>2023-07-24T06:39:20Z</time>
      </trkpt>
      <trkpt lat="44.42731" lon="5.46164">
        <ele>1080</ele>
        <time>2023-07-24T06:39:21Z</time>
      </trkpt>
      <trkpt lat="44.42732" lon="5.46163">
        <ele>1080.2</ele>
        <time>2023-07-24T06:39:22Z</time>
      </trkpt>
      <trkpt lat="44.42736" lon="5.4616">
        <ele>1080.6</ele>
        <time>2023-07-24T06:39:23Z</time>
      </trkpt>
      <trkpt lat="44.42737" lon="5.4616">
        <ele>1080.7</ele>
        <time>2023-07-24T06:39:24Z</time>
      </trkpt>
      <trkpt lat="44.42739" lon="5.46156">
        <ele>1081.2</ele>
        <time>2023-07-24T06:39:25Z</time>
      </trkpt>
      <trkpt lat="44.42741" lon="5.46155">
        <ele>1081.3</ele>
        <time>2023-07-24T06:39:26Z</time>
      </trkpt>
      <trkpt lat="44.42744" lon="5.46153">
        <ele>1081.8</ele>
        <time>2023-07-24T06:39:27Z</time>
      </trkpt>
      <trkpt lat="44.42745" lon="5.46152">
        <ele>1081.9</ele>
        <time>2023-07-24T06:39:28Z</time>
      </trkpt>
      <trkpt lat="44.42748" lon="5.46149">
        <ele>1082.4</ele>
        <time>2023-07-24T06:39:29Z</time>
      </trkpt>
      <trkpt lat="44.42749" lon="5.46149">
        <ele>1082.6</ele>
        <time>2023-07-24T06:39:30Z</time>
      </trkpt>
      <trkpt lat="44.42752" lon="5.46146">
        <ele>1083</ele>
        <time>2023-07-24T06:39:31Z</time>
      </trkpt>
      <trkpt lat="44.42753" lon="5.46145">
        <ele>1083.2</ele>
        <time>2023-07-24T06:39:32Z</time>
      </trkpt>
      <trkpt lat="44.42756" lon="5.46142">
        <ele>1083.6</ele>
        <time>2023-07-24T06:39:33Z</time>
      </trkpt>
      <trkpt lat="44.42757" lon="5.46141">
        <ele>1083.7</ele>
        <time>2023-07-24T06:39:34Z</time>
      </trkpt>
      <trkpt lat="44.4276" lon="5.46139">
        <ele>1084.1</ele>
        <time>2023-07-24T06:39:35Z</time>
      </trkpt>
      <trkpt lat="44.4276" lon="5.46138">
        <ele>1084.3</ele>
        <time>2023-07-24T06:39:36Z</time>
      </trkpt>
      <trkpt lat="44.42763" lon="5.46135">
        <ele>1084.7</ele>
        <time>2023-07-24T06:39:37Z</time>
      </trkpt>
      <trkpt lat="44.42764" lon="5.46134">
        <ele>1084.9</ele>
        <time>2023-07-24T06:39:38Z</time>
      </trkpt>
      <trkpt lat="44.42767" lon="5.46132">
        <ele>1085.3</ele>
        <time>2023-07-24T06:39:39Z</time>
      </trkpt>
      <trkpt lat="44.42768" lon="5.46131">
        <ele>1085.4</ele>
        <time>2023-07-24T06:39:40Z</time>
      </trkpt>
      <trkpt lat="44.42771" lon="5.46128">
        <ele>1085.9</ele>
        <time>2023-07-24T06:39:41Z</time>
      </trkpt>
      <trkpt lat="44.42772" lon="5.46128">
        <ele>1086.1</ele>
        <time>2023-07-24T06:39:42Z</time>
      </trkpt>
      <trkpt lat="44.42775" lon="5.46126">
        <ele>1086.5</ele>
        <time>2023-07-24T06:39:43Z</time>
      </trkpt>
      <trkpt lat="44.42776" lon="5.46125">
        <ele>1086.7</ele>
        <time>2023-07-24T06:39:44Z</time>
      </trkpt>
      <trkpt lat="44.42779" lon="5.46122">
        <ele>1087.3</ele>
        <time>2023-07-24T06:39:45Z</time>
      </trkpt>
      <trkpt lat="44.4278" lon="5.46122">
        <ele>1087.5</ele>
        <time>2023-07-24T06:39:46Z</time>
      </trkpt>
      <trkpt lat="44.42783" lon="5.46119">
        <ele>1088</ele>
        <time>2023-07-24T06:39:47Z</time>
      </trkpt>
      <trkpt lat="44.42784" lon="5.46119">
        <ele>1088.2</ele>
        <time>2023-07-24T06:39:48Z</time>
      </trkpt>
      <trkpt lat="44.42787" lon="5.46116">
        <ele>1088.7</ele>
        <time>2023-07-24T06:39:49Z</time>
      </trkpt>
      <trkpt lat="44.42789" lon="5.46116">
        <ele>1088.9</ele>
        <time>2023-07-24T06:39:50Z</time>
      </trkpt>
      <trkpt lat="44.42792" lon="5.46114">
        <ele>1089.5</ele>
        <time>2023-07-24T06:39:51Z</time>
      </trkpt>
      <trkpt lat="44.42793" lon="5.46113">
        <ele>1089.7</ele>
        <time>2023-07-24T06:39:52Z</time>
      </trkpt>
      <trkpt lat="44.42796" lon="5.46111">
        <ele>1090.2</ele>
        <time>2023-07-24T06:39:53Z</time>
      </trkpt>
      <trkpt lat="44.42797" lon="5.46111">
        <ele>1090.4</ele>
        <time>2023-07-24T06:39:54Z</time>
      </trkpt>
      <trkpt lat="44.428" lon="5.46108">
        <ele>1091</ele>
        <time>2023-07-24T06:39:55Z</time>
      </trkpt>
      <trkpt lat="44.42801" lon="5.46107">
        <ele>1091.2</ele>
        <time>2023-07-24T06:39:56Z</time>
      </trkpt>
      <trkpt lat="44.42804" lon="5.46105">
        <ele>1091.6</ele>
        <time>2023-07-24T06:39:57Z</time>
      </trkpt>
      <trkpt lat="44.42804" lon="5.46104">
        <ele>1091.8</ele>
        <time>2023-07-24T06:39:58Z</time>
      </trkpt>
      <trkpt lat="44.42807" lon="5.46102">
        <ele>1092.3</ele>
        <time>2023-07-24T06:39:59Z</time>
      </trkpt>
      <trkpt lat="44.42808" lon="5.46101">
        <ele>1092.4</ele>
        <time>2023-07-24T06:40:00Z</time>
      </trkpt>
      <trkpt lat="44.42812" lon="5.46099">
        <ele>1092.9</ele>
        <time>2023-07-24T06:40:01Z</time>
      </trkpt>
      <trkpt lat="44.42813" lon="5.46098">
        <ele>1093.1</ele>
        <time>2023-07-24T06:40:02Z</time>
      </trkpt>
      <trkpt lat="44.42814" lon="5.46097">
        <ele>1093.3</ele>
        <time>2023-07-24T06:40:03Z</time>
      </trkpt>
      <trkpt lat="44.42818" lon="5.46095">
        <ele>1093.8</ele>
        <time>2023-07-24T06:40:05Z</time>
      </trkpt>
      <trkpt lat="44.42821" lon="5.46094">
        <ele>1094.2</ele>
        <time>2023-07-24T06:40:06Z</time>
      </trkpt>
      <trkpt lat="44.42822" lon="5.46094">
        <ele>1094.3</ele>
        <time>2023-07-24T06:40:07Z</time>
      </trkpt>
      <trkpt lat="44.42825" lon="5.46093">
        <ele>1094.7</ele>
        <time>2023-07-24T06:40:08Z</time>
      </trkpt>
      <trkpt lat="44.42826" lon="5.46093">
        <ele>1094.8</ele>
        <time>2023-07-24T06:40:09Z</time>
      </trkpt>
      <trkpt lat="44.42829" lon="5.46092">
        <ele>1095.1</ele>
        <time>2023-07-24T06:40:10Z</time>
      </trkpt>
      <trkpt lat="44.4283" lon="5.46092">
        <ele>1095.2</ele>
        <time>2023-07-24T06:40:11Z</time>
      </trkpt>
      <trkpt lat="44.42832" lon="5.46091">
        <ele>1095.6</ele>
        <time>2023-07-24T06:40:12Z</time>
      </trkpt>
      <trkpt lat="44.42833" lon="5.4609">
        <ele>1095.7</ele>
        <time>2023-07-24T06:40:13Z</time>
      </trkpt>
      <trkpt lat="44.42836" lon="5.46088">
        <ele>1096</ele>
        <time>2023-07-24T06:40:14Z</time>
      </trkpt>
      <trkpt lat="44.42837" lon="5.46088">
        <ele>1096.1</ele>
        <time>2023-07-24T06:40:15Z</time>
      </trkpt>
      <trkpt lat="44.42839" lon="5.46085">
        <ele>1096.4</ele>
        <time>2023-07-24T06:40:16Z</time>
      </trkpt>
      <trkpt lat="44.4284" lon="5.46084">
        <ele>1096.5</ele>
        <time>2023-07-24T06:40:17Z</time>
      </trkpt>
      <trkpt lat="44.42842" lon="5.46081">
        <ele>1096.9</ele>
        <time>2023-07-24T06:40:18Z</time>
      </trkpt>
      <trkpt lat="44.42843" lon="5.4608">
        <ele>1097</ele>
        <time>2023-07-24T06:40:19Z</time>
      </trkpt>
      <trkpt lat="44.42845" lon="5.46077">
        <ele>1097.3</ele>
        <time>2023-07-24T06:40:20Z</time>
      </trkpt>
      <trkpt lat="44.42846" lon="5.46076">
        <ele>1097.5</ele>
        <time>2023-07-24T06:40:21Z</time>
      </trkpt>
      <trkpt lat="44.42848" lon="5.46072">
        <ele>1097.9</ele>
        <time>2023-07-24T06:40:22Z</time>
      </trkpt>
      <trkpt lat="44.42849" lon="5.46071">
        <ele>1098.1</ele>
        <time>2023-07-24T06:40:23Z</time>
      </trkpt>
      <trkpt lat="44.42852" lon="5.46069">
        <ele>1098.6</ele>
        <time>2023-07-24T06:40:24Z</time>
      </trkpt>
      <trkpt lat="44.42853" lon="5.46068">
        <ele>1098.7</ele>
        <time>2023-07-24T06:40:25Z</time>
      </trkpt>
      <trkpt lat="44.42856" lon="5.46065">
        <ele>1099.2</ele>
        <time>2023-07-24T06:40:26Z</time>
      </trkpt>
      <trkpt lat="44.42857" lon="5.46064">
        <ele>1099.3</ele>
        <time>2023-07-24T06:40:27Z</time>
      </trkpt>
      <trkpt lat="44.4286" lon="5.46061">
        <ele>1099.8</ele>
        <time>2023-07-24T06:40:28Z</time>
      </trkpt>
      <trkpt lat="44.42861" lon="5.4606">
        <ele>1100</ele>
        <time>2023-07-24T06:40:29Z</time>
      </trkpt>
      <trkpt lat="44.42863" lon="5.46057">
        <ele>1100.4</ele>
        <time>2023-07-24T06:40:30Z</time>
      </trkpt>
      <trkpt lat="44.42864" lon="5.46056">
        <ele>1100.6</ele>
        <time>2023-07-24T06:40:31Z</time>
      </trkpt>
      <trkpt lat="44.42867" lon="5.46054">
        <ele>1101</ele>
        <time>2023-07-24T06:40:32Z</time>
      </trkpt>
      <trkpt lat="44.42867" lon="5.46053">
        <ele>1101.2</ele>
        <time>2023-07-24T06:40:33Z</time>
      </trkpt>
      <trkpt lat="44.42869" lon="5.46052">
        <ele>1101.5</ele>
        <time>2023-07-24T06:40:34Z</time>
      </trkpt>
      <trkpt lat="44.42871" lon="5.46051">
        <ele>1101.7</ele>
        <time>2023-07-24T06:40:35Z</time>
      </trkpt>
      <trkpt lat="44.42872" lon="5.4605">
        <ele>1101.9</ele>
        <time>2023-07-24T06:40:36Z</time>
      </trkpt>
      <trkpt lat="44.42873" lon="5.4605">
        <ele>1102.1</ele>
        <time>2023-07-24T06:40:37Z</time>
      </trkpt>
      <trkpt lat="44.42875" lon="5.46049">
        <ele>1102.4</ele>
        <time>2023-07-24T06:40:38Z</time>
      </trkpt>
      <trkpt lat="44.42876" lon="5.46048">
        <ele>1102.6</ele>
        <time>2023-07-24T06:40:39Z</time>
      </trkpt>
      <trkpt lat="44.42878" lon="5.46047">
        <ele>1102.9</ele>
        <time>2023-07-24T06:40:40Z</time>
      </trkpt>
      <trkpt lat="44.42879" lon="5.46046">
        <ele>1103.1</ele>
        <time>2023-07-24T06:40:41Z</time>
      </trkpt>
      <trkpt lat="44.42881" lon="5.46046">
        <ele>1103.4</ele>
        <time>2023-07-24T06:40:42Z</time>
      </trkpt>
      <trkpt lat="44.42882" lon="5.46045">
        <ele>1103.6</ele>
        <time>2023-07-24T06:40:43Z</time>
      </trkpt>
      <trkpt lat="44.42884" lon="5.46044">
        <ele>1103.9</ele>
        <time>2023-07-24T06:40:44Z</time>
      </trkpt>
      <trkpt lat="44.42885" lon="5.46043">
        <ele>1104.2</ele>
        <time>2023-07-24T06:40:45Z</time>
      </trkpt>
      <trkpt lat="44.42887" lon="5.46042">
        <ele>1104.4</ele>
        <time>2023-07-24T06:40:46Z</time>
      </trkpt>
      <trkpt lat="44.42888" lon="5.4604">
        <ele>1104.7</ele>
        <time>2023-07-24T06:40:47Z</time>
      </trkpt>
      <trkpt lat="44.4289" lon="5.46038">
        <ele>1105.2</ele>
        <time>2023-07-24T06:40:48Z</time>
      </trkpt>
      <trkpt lat="44.42891" lon="5.46037">
        <ele>1105.4</ele>
        <time>2023-07-24T06:40:49Z</time>
      </trkpt>
      <trkpt lat="44.42894" lon="5.46034">
        <ele>1106</ele>
        <time>2023-07-24T06:40:50Z</time>
      </trkpt>
      <trkpt lat="44.42895" lon="5.46034">
        <ele>1106.2</ele>
        <time>2023-07-24T06:40:51Z</time>
      </trkpt>
      <trkpt lat="44.42898" lon="5.46032">
        <ele>1106.7</ele>
        <time>2023-07-24T06:40:52Z</time>
      </trkpt>
      <trkpt lat="44.42899" lon="5.46031">
        <ele>1106.8</ele>
        <time>2023-07-24T06:40:53Z</time>
      </trkpt>
      <trkpt lat="44.429" lon="5.4603">
        <ele>1107.1</ele>
        <time>2023-07-24T06:40:54Z</time>
      </trkpt>
      <trkpt lat="44.42902" lon="5.46029">
        <ele>1107.4</ele>
        <time>2023-07-24T06:40:55Z</time>
      </trkpt>
      <trkpt lat="44.42905" lon="5.46028">
        <ele>1107.8</ele>
        <time>2023-07-24T06:40:56Z</time>
      </trkpt>
      <trkpt lat="44.42906" lon="5.46027">
        <ele>1108</ele>
        <time>2023-07-24T06:40:57Z</time>
      </trkpt>
      <trkpt lat="44.42909" lon="5.46027">
        <ele>1108.5</ele>
        <time>2023-07-24T06:40:58Z</time>
      </trkpt>
      <trkpt lat="44.4291" lon="5.46027">
        <ele>1108.6</ele>
        <time>2023-07-24T06:40:59Z</time>
      </trkpt>
      <trkpt lat="44.42913" lon="5.46026">
        <ele>1109.2</ele>
        <time>2023-07-24T06:41:00Z</time>
      </trkpt>
      <trkpt lat="44.42914" lon="5.46026">
        <ele>1109.3</ele>
        <time>2023-07-24T06:41:01Z</time>
      </trkpt>
      <trkpt lat="44.42918" lon="5.46027">
        <ele>1109.8</ele>
        <time>2023-07-24T06:41:02Z</time>
      </trkpt>
      <trkpt lat="44.42919" lon="5.46027">
        <ele>1110</ele>
        <time>2023-07-24T06:41:03Z</time>
      </trkpt>
      <trkpt lat="44.42922" lon="5.46026">
        <ele>1110.5</ele>
        <time>2023-07-24T06:41:04Z</time>
      </trkpt>
      <trkpt lat="44.42923" lon="5.46026">
        <ele>1110.7</ele>
        <time>2023-07-24T06:41:05Z</time>
      </trkpt>
      <trkpt lat="44.42925" lon="5.46026">
        <ele>1110.9</ele>
        <time>2023-07-24T06:41:06Z</time>
      </trkpt>
      <trkpt lat="44.42927" lon="5.46026">
        <ele>1111.2</ele>
        <time>2023-07-24T06:41:07Z</time>
      </trkpt>
      <trkpt lat="44.4293" lon="5.46025">
        <ele>1111.6</ele>
        <time>2023-07-24T06:41:08Z</time>
      </trkpt>
      <trkpt lat="44.42931" lon="5.46026">
        <ele>1111.8</ele>
        <time>2023-07-24T06:41:09Z</time>
      </trkpt>
      <trkpt lat="44.42932" lon="5.46025">
        <ele>1112.1</ele>
        <time>2023-07-24T06:41:10Z</time>
      </trkpt>
      <trkpt lat="44.42934" lon="5.46024">
        <ele>1112.4</ele>
        <time>2023-07-24T06:41:11Z</time>
      </trkpt>
      <trkpt lat="44.42936" lon="5.46024">
        <ele>1112.6</ele>
        <time>2023-07-24T06:41:12Z</time>
      </trkpt>
      <trkpt lat="44.42937" lon="5.46023">
        <ele>1112.8</ele>
        <time>2023-07-24T06:41:13Z</time>
      </trkpt>
      <trkpt lat="44.42938" lon="5.46022">
        <ele>1113.1</ele>
        <time>2023-07-24T06:41:14Z</time>
      </trkpt>
      <trkpt lat="44.4294" lon="5.46021">
        <ele>1113.3</ele>
        <time>2023-07-24T06:41:15Z</time>
      </trkpt>
      <trkpt lat="44.42943" lon="5.4602">
        <ele>1113.8</ele>
        <time>2023-07-24T06:41:16Z</time>
      </trkpt>
      <trkpt lat="44.42944" lon="5.4602">
        <ele>1114</ele>
        <time>2023-07-24T06:41:17Z</time>
      </trkpt>
      <trkpt lat="44.42947" lon="5.46019">
        <ele>1114.5</ele>
        <time>2023-07-24T06:41:18Z</time>
      </trkpt>
      <trkpt lat="44.42949" lon="5.46019">
        <ele>1114.7</ele>
        <time>2023-07-24T06:41:19Z</time>
      </trkpt>
      <trkpt lat="44.42952" lon="5.46018">
        <ele>1115.2</ele>
        <time>2023-07-24T06:41:20Z</time>
      </trkpt>
      <trkpt lat="44.42953" lon="5.46017">
        <ele>1115.3</ele>
        <time>2023-07-24T06:41:21Z</time>
      </trkpt>
      <trkpt lat="44.42956" lon="5.46015">
        <ele>1115.9</ele>
        <time>2023-07-24T06:41:22Z</time>
      </trkpt>
      <trkpt lat="44.42957" lon="5.46014">
        <ele>1116</ele>
        <time>2023-07-24T06:41:23Z</time>
      </trkpt>
      <trkpt lat="44.42959" lon="5.46013">
        <ele>1116.3</ele>
        <time>2023-07-24T06:41:24Z</time>
      </trkpt>
      <trkpt lat="44.4296" lon="5.46012">
        <ele>1116.6</ele>
        <time>2023-07-24T06:41:25Z</time>
      </trkpt>
      <trkpt lat="44.42961" lon="5.4601">
        <ele>1116.9</ele>
        <time>2023-07-24T06:41:26Z</time>
      </trkpt>
      <trkpt lat="44.42963" lon="5.46009">
        <ele>1117.1</ele>
        <time>2023-07-24T06:41:27Z</time>
      </trkpt>
      <trkpt lat="44.42965" lon="5.46006">
        <ele>1117.6</ele>
        <time>2023-07-24T06:41:28Z</time>
      </trkpt>
      <trkpt lat="44.42965" lon="5.46005">
        <ele>1117.7</ele>
        <time>2023-07-24T06:41:29Z</time>
      </trkpt>
      <trkpt lat="44.42966" lon="5.46002">
        <ele>1118.1</ele>
        <time>2023-07-24T06:41:30Z</time>
      </trkpt>
      <trkpt lat="44.42967" lon="5.46002">
        <ele>1118.2</ele>
        <time>2023-07-24T06:41:31Z</time>
      </trkpt>
      <trkpt lat="44.42968" lon="5.46001">
        <ele>1118.4</ele>
        <time>2023-07-24T06:41:32Z</time>
      </trkpt>
      <trkpt lat="44.4297" lon="5.45998">
        <ele>1118.9</ele>
        <time>2023-07-24T06:41:33Z</time>
      </trkpt>
      <trkpt lat="44.42971" lon="5.45998">
        <ele>1119.1</ele>
        <time>2023-07-24T06:41:34Z</time>
      </trkpt>
      <trkpt lat="44.42974" lon="5.45996">
        <ele>1119.6</ele>
        <time>2023-07-24T06:41:35Z</time>
      </trkpt>
      <trkpt lat="44.42974" lon="5.45995">
        <ele>1119.8</ele>
        <time>2023-07-24T06:41:36Z</time>
      </trkpt>
      <trkpt lat="44.42976" lon="5.45993">
        <ele>1120.3</ele>
        <time>2023-07-24T06:41:37Z</time>
      </trkpt>
      <trkpt lat="44.42977" lon="5.45992">
        <ele>1120.5</ele>
        <time>2023-07-24T06:41:38Z</time>
      </trkpt>
      <trkpt lat="44.42979" lon="5.45991">
        <ele>1120.9</ele>
        <time>2023-07-24T06:41:39Z</time>
      </trkpt>
      <trkpt lat="44.4298" lon="5.4599">
        <ele>1121.2</ele>
        <time>2023-07-24T06:41:40Z</time>
      </trkpt>
      <trkpt lat="44.42982" lon="5.45989">
        <ele>1121.5</ele>
        <time>2023-07-24T06:41:41Z</time>
      </trkpt>
      <trkpt lat="44.42983" lon="5.45988">
        <ele>1121.8</ele>
        <time>2023-07-24T06:41:42Z</time>
      </trkpt>
      <trkpt lat="44.42985" lon="5.45988">
        <ele>1122.1</ele>
        <time>2023-07-24T06:41:43Z</time>
      </trkpt>
      <trkpt lat="44.42986" lon="5.45987">
        <ele>1122.4</ele>
        <time>2023-07-24T06:41:44Z</time>
      </trkpt>
      <trkpt lat="44.42988" lon="5.45986">
        <ele>1122.9</ele>
        <time>2023-07-24T06:41:45Z</time>
      </trkpt>
      <trkpt lat="44.42989" lon="5.45985">
        <ele>1123.1</ele>
        <time>2023-07-24T06:41:46Z</time>
      </trkpt>
      <trkpt lat="44.42991" lon="5.45985">
        <ele>1123.5</ele>
        <time>2023-07-24T06:41:47Z</time>
      </trkpt>
      <trkpt lat="44.42993" lon="5.45984">
        <ele>1123.8</ele>
        <time>2023-07-24T06:41:48Z</time>
      </trkpt>
      <trkpt lat="44.42994" lon="5.45982">
        <ele>1124.2</ele>
        <time>2023-07-24T06:41:49Z</time>
      </trkpt>
      <trkpt lat="44.42996" lon="5.45981">
        <ele>1124.5</ele>
        <time>2023-07-24T06:41:50Z</time>
      </trkpt>
      <trkpt lat="44.42997" lon="5.4598">
        <ele>1124.9</ele>
        <time>2023-07-24T06:41:51Z</time>
      </trkpt>
      <trkpt lat="44.42998" lon="5.45979">
        <ele>1125.2</ele>
        <time>2023-07-24T06:41:52Z</time>
      </trkpt>
      <trkpt lat="44.43" lon="5.45977">
        <ele>1125.5</ele>
        <time>2023-07-24T06:41:53Z</time>
      </trkpt>
      <trkpt lat="44.43001" lon="5.45976">
        <ele>1125.8</ele>
        <time>2023-07-24T06:41:54Z</time>
      </trkpt>
      <trkpt lat="44.43002" lon="5.45975">
        <ele>1126.1</ele>
        <time>2023-07-24T06:41:55Z</time>
      </trkpt>
      <trkpt lat="44.43003" lon="5.45974">
        <ele>1126.4</ele>
        <time>2023-07-24T06:41:56Z</time>
      </trkpt>
      <trkpt lat="44.43005" lon="5.45972">
        <ele>1126.8</ele>
        <time>2023-07-24T06:41:57Z</time>
      </trkpt>
      <trkpt lat="44.43006" lon="5.45971">
        <ele>1127.2</ele>
        <time>2023-07-24T06:41:58Z</time>
      </trkpt>
      <trkpt lat="44.43008" lon="5.45968">
        <ele>1127.7</ele>
        <time>2023-07-24T06:41:59Z</time>
      </trkpt>
      <trkpt lat="44.43009" lon="5.45967">
        <ele>1127.9</ele>
        <time>2023-07-24T06:42:00Z</time>
      </trkpt>
      <trkpt lat="44.4301" lon="5.45965">
        <ele>1128.2</ele>
        <time>2023-07-24T06:42:01Z</time>
      </trkpt>
      <trkpt lat="44.43011" lon="5.45963">
        <ele>1128.5</ele>
        <time>2023-07-24T06:42:02Z</time>
      </trkpt>
      <trkpt lat="44.43012" lon="5.45962">
        <ele>1128.9</ele>
        <time>2023-07-24T06:42:03Z</time>
      </trkpt>
      <trkpt lat="44.43013" lon="5.4596">
        <ele>1129.1</ele>
        <time>2023-07-24T06:42:04Z</time>
      </trkpt>
      <trkpt lat="44.43014" lon="5.45959">
        <ele>1129.4</ele>
        <time>2023-07-24T06:42:05Z</time>
      </trkpt>
      <trkpt lat="44.43015" lon="5.45957">
        <ele>1129.6</ele>
        <time>2023-07-24T06:42:06Z</time>
      </trkpt>
      <trkpt lat="44.43016" lon="5.45954">
        <ele>1130</ele>
        <time>2023-07-24T06:42:07Z</time>
      </trkpt>
      <trkpt lat="44.43016" lon="5.45953">
        <ele>1130.2</ele>
        <time>2023-07-24T06:42:08Z</time>
      </trkpt>
      <trkpt lat="44.43017" lon="5.45952">
        <ele>1130.3</ele>
        <time>2023-07-24T06:42:09Z</time>
      </trkpt>
      <trkpt lat="44.43018" lon="5.45951">
        <ele>1130.6</ele>
        <time>2023-07-24T06:42:10Z</time>
      </trkpt>
      <trkpt lat="44.43019" lon="5.45949">
        <ele>1130.8</ele>
        <time>2023-07-24T06:42:11Z</time>
      </trkpt>
      <trkpt lat="44.4302" lon="5.45947">
        <ele>1131.2</ele>
        <time>2023-07-24T06:42:12Z</time>
      </trkpt>
      <trkpt lat="44.43021" lon="5.45946">
        <ele>1131.3</ele>
        <time>2023-07-24T06:42:13Z</time>
      </trkpt>
      <trkpt lat="44.43021" lon="5.45945">
        <ele>1131.5</ele>
        <time>2023-07-24T06:42:14Z</time>
      </trkpt>
      <trkpt lat="44.43023" lon="5.45943">
        <ele>1131.8</ele>
        <time>2023-07-24T06:42:15Z</time>
      </trkpt>
      <trkpt lat="44.43023" lon="5.45942">
        <ele>1131.9</ele>
        <time>2023-07-24T06:42:16Z</time>
      </trkpt>
      <trkpt lat="44.43023" lon="5.45941">
        <ele>1132.1</ele>
        <time>2023-07-24T06:42:17Z</time>
      </trkpt>
      <trkpt lat="44.43024" lon="5.45941">
        <ele>1132.1</ele>
        <time>2023-07-24T06:42:18Z</time>
      </trkpt>
      <trkpt lat="44.43025" lon="5.45939">
        <ele>1132.4</ele>
        <time>2023-07-24T06:42:19Z</time>
      </trkpt>
      <trkpt lat="44.43026" lon="5.45937">
        <ele>1132.7</ele>
        <time>2023-07-24T06:42:20Z</time>
      </trkpt>
      <trkpt lat="44.43027" lon="5.45935">
        <ele>1132.9</ele>
        <time>2023-07-24T06:42:21Z</time>
      </trkpt>
      <trkpt lat="44.43028" lon="5.45934">
        <ele>1133.1</ele>
        <time>2023-07-24T06:42:22Z</time>
      </trkpt>
      <trkpt lat="44.43029" lon="5.45933">
        <ele>1133.3</ele>
        <time>2023-07-24T06:42:23Z</time>
      </trkpt>
      <trkpt lat="44.4303" lon="5.45933">
        <ele>1133.6</ele>
        <time>2023-07-24T06:42:24Z</time>
      </trkpt>
      <trkpt lat="44.43032" lon="5.45932">
        <ele>1133.9</ele>
        <time>2023-07-24T06:42:25Z</time>
      </trkpt>
      <trkpt lat="44.43033" lon="5.4593">
        <ele>1134.1</ele>
        <time>2023-07-24T06:42:26Z</time>
      </trkpt>
      <trkpt lat="44.43034" lon="5.45929">
        <ele>1134.4</ele>
        <time>2023-07-24T06:42:27Z</time>
      </trkpt>
      <trkpt lat="44.43036" lon="5.45927">
        <ele>1134.6</ele>
        <time>2023-07-24T06:42:28Z</time>
      </trkpt>
      <trkpt lat="44.43037" lon="5.45926">
        <ele>1134.9</ele>
        <time>2023-07-24T06:42:29Z</time>
      </trkpt>
      <trkpt lat="44.43039" lon="5.45925">
        <ele>1135.2</ele>
        <time>2023-07-24T06:42:30Z</time>
      </trkpt>
      <trkpt lat="44.4304" lon="5.45924">
        <ele>1135.4</ele>
        <time>2023-07-24T06:42:31Z</time>
      </trkpt>
      <trkpt lat="44.43041" lon="5.45922">
        <ele>1135.6</ele>
        <time>2023-07-24T06:42:32Z</time>
      </trkpt>
      <trkpt lat="44.43043" lon="5.45919">
        <ele>1136.1</ele>
        <time>2023-07-24T06:42:33Z</time>
      </trkpt>
      <trkpt lat="44.43044" lon="5.45919">
        <ele>1136.3</ele>
        <time>2023-07-24T06:42:34Z</time>
      </trkpt>
      <trkpt lat="44.43046" lon="5.45917">
        <ele>1136.6</ele>
        <time>2023-07-24T06:42:35Z</time>
      </trkpt>
      <trkpt lat="44.43047" lon="5.45915">
        <ele>1136.8</ele>
        <time>2023-07-24T06:42:36Z</time>
      </trkpt>
      <trkpt lat="44.43049" lon="5.45913">
        <ele>1137.2</ele>
        <time>2023-07-24T06:42:37Z</time>
      </trkpt>
      <trkpt lat="44.4305" lon="5.45912">
        <ele>1137.4</ele>
        <time>2023-07-24T06:42:38Z</time>
      </trkpt>
      <trkpt lat="44.43051" lon="5.4591">
        <ele>1137.7</ele>
        <time>2023-07-24T06:42:39Z</time>
      </trkpt>
      <trkpt lat="44.43053" lon="5.45909">
        <ele>1138</ele>
        <time>2023-07-24T06:42:40Z</time>
      </trkpt>
      <trkpt lat="44.43054" lon="5.45908">
        <ele>1138.2</ele>
        <time>2023-07-24T06:42:41Z</time>
      </trkpt>
      <trkpt lat="44.43055" lon="5.45907">
        <ele>1138.5</ele>
        <time>2023-07-24T06:42:42Z</time>
      </trkpt>
      <trkpt lat="44.43056" lon="5.45905">
        <ele>1138.7</ele>
        <time>2023-07-24T06:42:43Z</time>
      </trkpt>
      <trkpt lat="44.43057" lon="5.45903">
        <ele>1139</ele>
        <time>2023-07-24T06:42:44Z</time>
      </trkpt>
      <trkpt lat="44.43059" lon="5.45899">
        <ele>1139.6</ele>
        <time>2023-07-24T06:42:46Z</time>
      </trkpt>
      <trkpt lat="44.43059" lon="5.45897">
        <ele>1140</ele>
        <time>2023-07-24T06:42:47Z</time>
      </trkpt>
      <trkpt lat="44.4306" lon="5.45894">
        <ele>1140.3</ele>
        <time>2023-07-24T06:42:48Z</time>
      </trkpt>
      <trkpt lat="44.4306" lon="5.45892">
        <ele>1140.6</ele>
        <time>2023-07-24T06:42:49Z</time>
      </trkpt>
      <trkpt lat="44.43061" lon="5.4589">
        <ele>1140.9</ele>
        <time>2023-07-24T06:42:50Z</time>
      </trkpt>
      <trkpt lat="44.43061" lon="5.45888">
        <ele>1141.2</ele>
        <time>2023-07-24T06:42:51Z</time>
      </trkpt>
      <trkpt lat="44.43062" lon="5.45886">
        <ele>1141.5</ele>
        <time>2023-07-24T06:42:52Z</time>
      </trkpt>
      <trkpt lat="44.43062" lon="5.45884">
        <ele>1141.8</ele>
        <time>2023-07-24T06:42:53Z</time>
      </trkpt>
      <trkpt lat="44.43063" lon="5.45882">
        <ele>1142.1</ele>
        <time>2023-07-24T06:42:54Z</time>
      </trkpt>
      <trkpt lat="44.43064" lon="5.4588">
        <ele>1142.5</ele>
        <time>2023-07-24T06:42:55Z</time>
      </trkpt>
      <trkpt lat="44.43064" lon="5.45879">
        <ele>1142.7</ele>
        <time>2023-07-24T06:42:56Z</time>
      </trkpt>
      <trkpt lat="44.43064" lon="5.45878">
        <ele>1142.9</ele>
        <time>2023-07-24T06:42:57Z</time>
      </trkpt>
      <trkpt lat="44.43065" lon="5.45876">
        <ele>1143.1</ele>
        <time>2023-07-24T06:42:58Z</time>
      </trkpt>
      <trkpt lat="44.43065" lon="5.45875">
        <ele>1143.4</ele>
        <time>2023-07-24T06:42:59Z</time>
      </trkpt>
      <trkpt lat="44.43066" lon="5.45873">
        <ele>1143.6</ele>
        <time>2023-07-24T06:43:00Z</time>
      </trkpt>
      <trkpt lat="44.43066" lon="5.45872">
        <ele>1143.8</ele>
        <time>2023-07-24T06:43:01Z</time>
      </trkpt>
      <trkpt lat="44.43067" lon="5.45868">
        <ele>1144.4</ele>
        <time>2023-07-24T06:43:02Z</time>
      </trkpt>
      <trkpt lat="44.43067" lon="5.45867">
        <ele>1144.6</ele>
        <time>2023-07-24T06:43:03Z</time>
      </trkpt>
      <trkpt lat="44.43068" lon="5.45864">
        <ele>1144.9</ele>
        <time>2023-07-24T06:43:04Z</time>
      </trkpt>
      <trkpt lat="44.43068" lon="5.45862">
        <ele>1145.2</ele>
        <time>2023-07-24T06:43:05Z</time>
      </trkpt>
      <trkpt lat="44.43069" lon="5.4586">
        <ele>1145.6</ele>
        <time>2023-07-24T06:43:06Z</time>
      </trkpt>
      <trkpt lat="44.43069" lon="5.45859">
        <ele>1145.8</ele>
        <time>2023-07-24T06:43:07Z</time>
      </trkpt>
      <trkpt lat="44.4307" lon="5.45857">
        <ele>1146.1</ele>
        <time>2023-07-24T06:43:08Z</time>
      </trkpt>
      <trkpt lat="44.4307" lon="5.45856">
        <ele>1146.3</ele>
        <time>2023-07-24T06:43:09Z</time>
      </trkpt>
      <trkpt lat="44.43071" lon="5.45855">
        <ele>1146.5</ele>
        <time>2023-07-24T06:43:10Z</time>
      </trkpt>
      <trkpt lat="44.43071" lon="5.45853">
        <ele>1146.8</ele>
        <time>2023-07-24T06:43:11Z</time>
      </trkpt>
      <trkpt lat="44.43072" lon="5.45851">
        <ele>1147.1</ele>
        <time>2023-07-24T06:43:12Z</time>
      </trkpt>
      <trkpt lat="44.43072" lon="5.45849">
        <ele>1147.4</ele>
        <time>2023-07-24T06:43:13Z</time>
      </trkpt>
      <trkpt lat="44.43072" lon="5.45847">
        <ele>1147.6</ele>
        <time>2023-07-24T06:43:14Z</time>
      </trkpt>
      <trkpt lat="44.43073" lon="5.45845">
        <ele>1147.9</ele>
        <time>2023-07-24T06:43:15Z</time>
      </trkpt>
      <trkpt lat="44.43073" lon="5.45843">
        <ele>1148.2</ele>
        <time>2023-07-24T06:43:16Z</time>
      </trkpt>
      <trkpt lat="44.43074" lon="5.45842">
        <ele>1148.5</ele>
        <time>2023-07-24T06:43:17Z</time>
      </trkpt>
      <trkpt lat="44.43074" lon="5.4584">
        <ele>1148.8</ele>
        <time>2023-07-24T06:43:18Z</time>
      </trkpt>
      <trkpt lat="44.43074" lon="5.45837">
        <ele>1149.1</ele>
        <time>2023-07-24T06:43:19Z</time>
      </trkpt>
      <trkpt lat="44.43074" lon="5.45835">
        <ele>1149.4</ele>
        <time>2023-07-24T06:43:20Z</time>
      </trkpt>
      <trkpt lat="44.43075" lon="5.45834">
        <ele>1149.7</ele>
        <time>2023-07-24T06:43:21Z</time>
      </trkpt>
      <trkpt lat="44.43075" lon="5.45832">
        <ele>1149.9</ele>
        <time>2023-07-24T06:43:22Z</time>
      </trkpt>
      <trkpt lat="44.43076" lon="5.45831">
        <ele>1150.2</ele>
        <time>2023-07-24T06:43:23Z</time>
      </trkpt>
      <trkpt lat="44.43076" lon="5.45829">
        <ele>1150.5</ele>
        <time>2023-07-24T06:43:24Z</time>
      </trkpt>
      <trkpt lat="44.43077" lon="5.45827">
        <ele>1150.8</ele>
        <time>2023-07-24T06:43:25Z</time>
      </trkpt>
      <trkpt lat="44.43078" lon="5.45825">
        <ele>1151.2</ele>
        <time>2023-07-24T06:43:26Z</time>
      </trkpt>
      <trkpt lat="44.43079" lon="5.45823">
        <ele>1151.5</ele>
        <time>2023-07-24T06:43:27Z</time>
      </trkpt>
      <trkpt lat="44.4308" lon="5.45821">
        <ele>1151.8</ele>
        <time>2023-07-24T06:43:28Z</time>
      </trkpt>
      <trkpt lat="44.43081" lon="5.4582">
        <ele>1152.1</ele>
        <time>2023-07-24T06:43:29Z</time>
      </trkpt>
      <trkpt lat="44.43082" lon="5.45818">
        <ele>1152.4</ele>
        <time>2023-07-24T06:43:30Z</time>
      </trkpt>
      <trkpt lat="44.43083" lon="5.45816">
        <ele>1152.8</ele>
        <time>2023-07-24T06:43:31Z</time>
      </trkpt>
      <trkpt lat="44.43084" lon="5.45815">
        <ele>1153.1</ele>
        <time>2023-07-24T06:43:32Z</time>
      </trkpt>
      <trkpt lat="44.43085" lon="5.45813">
        <ele>1153.4</ele>
        <time>2023-07-24T06:43:33Z</time>
      </trkpt>
      <trkpt lat="44.43086" lon="5.45811">
        <ele>1153.7</ele>
        <time>2023-07-24T06:43:34Z</time>
      </trkpt>
      <trkpt lat="44.43086" lon="5.45809">
        <ele>1154.1</ele>
        <time>2023-07-24T06:43:35Z</time>
      </trkpt>
      <trkpt lat="44.43087" lon="5.45807">
        <ele>1154.4</ele>
        <time>2023-07-24T06:43:36Z</time>
      </trkpt>
      <trkpt lat="44.43088" lon="5.45805">
        <ele>1154.7</ele>
        <time>2023-07-24T06:43:37Z</time>
      </trkpt>
      <trkpt lat="44.43089" lon="5.45802">
        <ele>1155.1</ele>
        <time>2023-07-24T06:43:38Z</time>
      </trkpt>
      <trkpt lat="44.43089" lon="5.458">
        <ele>1155.4</ele>
        <time>2023-07-24T06:43:39Z</time>
      </trkpt>
      <trkpt lat="44.4309" lon="5.45797">
        <ele>1155.9</ele>
        <time>2023-07-24T06:43:40Z</time>
      </trkpt>
      <trkpt lat="44.43091" lon="5.45796">
        <ele>1156.1</ele>
        <time>2023-07-24T06:43:41Z</time>
      </trkpt>
      <trkpt lat="44.43092" lon="5.45792">
        <ele>1156.6</ele>
        <time>2023-07-24T06:43:42Z</time>
      </trkpt>
      <trkpt lat="44.43092" lon="5.45791">
        <ele>1156.8</ele>
        <time>2023-07-24T06:43:43Z</time>
      </trkpt>
      <trkpt lat="44.43093" lon="5.45789">
        <ele>1157.1</ele>
        <time>2023-07-24T06:43:44Z</time>
      </trkpt>
      <trkpt lat="44.43093" lon="5.45786">
        <ele>1157.4</ele>
        <time>2023-07-24T06:43:45Z</time>
      </trkpt>
      <trkpt lat="44.43093" lon="5.45783">
        <ele>1157.7</ele>
        <time>2023-07-24T06:43:46Z</time>
      </trkpt>
      <trkpt lat="44.43093" lon="5.45781">
        <ele>1158</ele>
        <time>2023-07-24T06:43:47Z</time>
      </trkpt>
      <trkpt lat="44.43093" lon="5.45779">
        <ele>1158.3</ele>
        <time>2023-07-24T06:43:48Z</time>
      </trkpt>
      <trkpt lat="44.43093" lon="5.45776">
        <ele>1158.6</ele>
        <time>2023-07-24T06:43:49Z</time>
      </trkpt>
      <trkpt lat="44.43093" lon="5.45772">
        <ele>1159</ele>
        <time>2023-07-24T06:43:50Z</time>
      </trkpt>
      <trkpt lat="44.43094" lon="5.45771">
        <ele>1159.2</ele>
        <time>2023-07-24T06:43:51Z</time>
      </trkpt>
      <trkpt lat="44.43094" lon="5.45769">
        <ele>1159.5</ele>
        <time>2023-07-24T06:43:52Z</time>
      </trkpt>
      <trkpt lat="44.43094" lon="5.45767">
        <ele>1159.7</ele>
        <time>2023-07-24T06:43:53Z</time>
      </trkpt>
      <trkpt lat="44.43094" lon="5.45764">
        <ele>1160</ele>
        <time>2023-07-24T06:43:54Z</time>
      </trkpt>
      <trkpt lat="44.43094" lon="5.45762">
        <ele>1160.3</ele>
        <time>2023-07-24T06:43:55Z</time>
      </trkpt>
      <trkpt lat="44.43095" lon="5.45761">
        <ele>1160.5</ele>
        <time>2023-07-24T06:43:56Z</time>
      </trkpt>
      <trkpt lat="44.43096" lon="5.45759">
        <ele>1160.8</ele>
        <time>2023-07-24T06:43:57Z</time>
      </trkpt>
      <trkpt lat="44.43097" lon="5.45757">
        <ele>1161.1</ele>
        <time>2023-07-24T06:43:58Z</time>
      </trkpt>
      <trkpt lat="44.43098" lon="5.45756">
        <ele>1161.3</ele>
        <time>2023-07-24T06:43:59Z</time>
      </trkpt>
      <trkpt lat="44.43099" lon="5.45754">
        <ele>1161.5</ele>
        <time>2023-07-24T06:44:00Z</time>
      </trkpt>
      <trkpt lat="44.431" lon="5.45752">
        <ele>1161.8</ele>
        <time>2023-07-24T06:44:01Z</time>
      </trkpt>
      <trkpt lat="44.43101" lon="5.45749">
        <ele>1162.2</ele>
        <time>2023-07-24T06:44:02Z</time>
      </trkpt>
      <trkpt lat="44.43102" lon="5.45747">
        <ele>1162.4</ele>
        <time>2023-07-24T06:44:03Z</time>
      </trkpt>
      <trkpt lat="44.43103" lon="5.45744">
        <ele>1162.9</ele>
        <time>2023-07-24T06:44:04Z</time>
      </trkpt>
      <trkpt lat="44.43104" lon="5.45742">
        <ele>1163</ele>
        <time>2023-07-24T06:44:05Z</time>
      </trkpt>
      <trkpt lat="44.43105" lon="5.4574">
        <ele>1163.3</ele>
        <time>2023-07-24T06:44:06Z</time>
      </trkpt>
      <trkpt lat="44.43105" lon="5.45738">
        <ele>1163.5</ele>
        <time>2023-07-24T06:44:07Z</time>
      </trkpt>
      <trkpt lat="44.43106" lon="5.45737">
        <ele>1163.7</ele>
        <time>2023-07-24T06:44:08Z</time>
      </trkpt>
      <trkpt lat="44.43107" lon="5.45735">
        <ele>1163.9</ele>
        <time>2023-07-24T06:44:09Z</time>
      </trkpt>
      <trkpt lat="44.43108" lon="5.45733">
        <ele>1164.2</ele>
        <time>2023-07-24T06:44:10Z</time>
      </trkpt>
      <trkpt lat="44.43109" lon="5.45731">
        <ele>1164.4</ele>
        <time>2023-07-24T06:44:11Z</time>
      </trkpt>
      <trkpt lat="44.4311" lon="5.45729">
        <ele>1164.6</ele>
        <time>2023-07-24T06:44:12Z</time>
      </trkpt>
      <trkpt lat="44.4311" lon="5.45728">
        <ele>1164.8</ele>
        <time>2023-07-24T06:44:13Z</time>
      </trkpt>
      <trkpt lat="44.43111" lon="5.45726">
        <ele>1165</ele>
        <time>2023-07-24T06:44:14Z</time>
      </trkpt>
      <trkpt lat="44.43112" lon="5.45724">
        <ele>1165.2</ele>
        <time>2023-07-24T06:44:15Z</time>
      </trkpt>
      <trkpt lat="44.43113" lon="5.45723">
        <ele>1165.4</ele>
        <time>2023-07-24T06:44:16Z</time>
      </trkpt>
      <trkpt lat="44.43114" lon="5.45721">
        <ele>1165.6</ele>
        <time>2023-07-24T06:44:17Z</time>
      </trkpt>
      <trkpt lat="44.43115" lon="5.45718">
        <ele>1165.9</ele>
        <time>2023-07-24T06:44:18Z</time>
      </trkpt>
      <trkpt lat="44.43116" lon="5.45716">
        <ele>1166.1</ele>
        <time>2023-07-24T06:44:19Z</time>
      </trkpt>
      <trkpt lat="44.43116" lon="5.45714">
        <ele>1166.3</ele>
        <time>2023-07-24T06:44:20Z</time>
      </trkpt>
      <trkpt lat="44.43117" lon="5.45712">
        <ele>1166.5</ele>
        <time>2023-07-24T06:44:21Z</time>
      </trkpt>
      <trkpt lat="44.43118" lon="5.4571">
        <ele>1166.7</ele>
        <time>2023-07-24T06:44:22Z</time>
      </trkpt>
      <trkpt lat="44.4312" lon="5.45709">
        <ele>1166.9</ele>
        <time>2023-07-24T06:44:23Z</time>
      </trkpt>
      <trkpt lat="44.43121" lon="5.45707">
        <ele>1167.1</ele>
        <time>2023-07-24T06:44:24Z</time>
      </trkpt>
      <trkpt lat="44.43122" lon="5.45706">
        <ele>1167.3</ele>
        <time>2023-07-24T06:44:25Z</time>
      </trkpt>
      <trkpt lat="44.43125" lon="5.45704">
        <ele>1167.7</ele>
        <time>2023-07-24T06:44:26Z</time>
      </trkpt>
      <trkpt lat="44.43125" lon="5.45704">
        <ele>1167.8</ele>
        <time>2023-07-24T06:44:27Z</time>
      </trkpt>
      <trkpt lat="44.43127" lon="5.45702">
        <ele>1168</ele>
        <time>2023-07-24T06:44:28Z</time>
      </trkpt>
      <trkpt lat="44.43128" lon="5.45701">
        <ele>1168.2</ele>
        <time>2023-07-24T06:44:29Z</time>
      </trkpt>
      <trkpt lat="44.4313" lon="5.45699">
        <ele>1168.4</ele>
        <time>2023-07-24T06:44:30Z</time>
      </trkpt>
      <trkpt lat="44.43131" lon="5.45698">
        <ele>1168.6</ele>
        <time>2023-07-24T06:44:31Z</time>
      </trkpt>
      <trkpt lat="44.43132" lon="5.45697">
        <ele>1168.7</ele>
        <time>2023-07-24T06:44:32Z</time>
      </trkpt>
      <trkpt lat="44.43133" lon="5.45695">
        <ele>1168.9</ele>
        <time>2023-07-24T06:44:33Z</time>
      </trkpt>
      <trkpt lat="44.43134" lon="5.45693">
        <ele>1169.1</ele>
        <time>2023-07-24T06:44:34Z</time>
      </trkpt>
      <trkpt lat="44.43135" lon="5.45691">
        <ele>1169.3</ele>
        <time>2023-07-24T06:44:35Z</time>
      </trkpt>
      <trkpt lat="44.43137" lon="5.45688">
        <ele>1169.7</ele>
        <time>2023-07-24T06:44:36Z</time>
      </trkpt>
      <trkpt lat="44.43137" lon="5.45686">
        <ele>1169.8</ele>
        <time>2023-07-24T06:44:37Z</time>
      </trkpt>
      <trkpt lat="44.43139" lon="5.45684">
        <ele>1170.1</ele>
        <time>2023-07-24T06:44:38Z</time>
      </trkpt>
      <trkpt lat="44.4314" lon="5.45683">
        <ele>1170.2</ele>
        <time>2023-07-24T06:44:39Z</time>
      </trkpt>
      <trkpt lat="44.43142" lon="5.45681">
        <ele>1170.5</ele>
        <time>2023-07-24T06:44:40Z</time>
      </trkpt>
      <trkpt lat="44.43142" lon="5.4568">
        <ele>1170.6</ele>
        <time>2023-07-24T06:44:41Z</time>
      </trkpt>
      <trkpt lat="44.43143" lon="5.45679">
        <ele>1170.7</ele>
        <time>2023-07-24T06:44:42Z</time>
      </trkpt>
      <trkpt lat="44.43144" lon="5.45678">
        <ele>1170.8</ele>
        <time>2023-07-24T06:44:43Z</time>
      </trkpt>
      <trkpt lat="44.43145" lon="5.45677">
        <ele>1171</ele>
        <time>2023-07-24T06:44:44Z</time>
      </trkpt>
      <trkpt lat="44.43146" lon="5.45676">
        <ele>1171.2</ele>
        <time>2023-07-24T06:44:45Z</time>
      </trkpt>
      <trkpt lat="44.43148" lon="5.45675">
        <ele>1171.3</ele>
        <time>2023-07-24T06:44:46Z</time>
      </trkpt>
      <trkpt lat="44.4315" lon="5.45672">
        <ele>1171.7</ele>
        <time>2023-07-24T06:44:47Z</time>
      </trkpt>
      <trkpt lat="44.4315" lon="5.45671">
        <ele>1171.8</ele>
        <time>2023-07-24T06:44:48Z</time>
      </trkpt>
      <trkpt lat="44.43152" lon="5.45667">
        <ele>1172.1</ele>
        <time>2023-07-24T06:44:49Z</time>
      </trkpt>
      <trkpt lat="44.43152" lon="5.45665">
        <ele>1172.2</ele>
        <time>2023-07-24T06:44:50Z</time>
      </trkpt>
      <trkpt lat="44.43153" lon="5.45661">
        <ele>1172.6</ele>
        <time>2023-07-24T06:44:51Z</time>
      </trkpt>
      <trkpt lat="44.43154" lon="5.4566">
        <ele>1172.7</ele>
        <time>2023-07-24T06:44:52Z</time>
      </trkpt>
      <trkpt lat="44.43155" lon="5.45658">
        <ele>1172.9</ele>
        <time>2023-07-24T06:44:53Z</time>
      </trkpt>
      <trkpt lat="44.43156" lon="5.45656">
        <ele>1173.1</ele>
        <time>2023-07-24T06:44:54Z</time>
      </trkpt>
      <trkpt lat="44.43157" lon="5.45654">
        <ele>1173.2</ele>
        <time>2023-07-24T06:44:55Z</time>
      </trkpt>
      <trkpt lat="44.43158" lon="5.45652">
        <ele>1173.4</ele>
        <time>2023-07-24T06:44:56Z</time>
      </trkpt>
      <trkpt lat="44.43159" lon="5.45651">
        <ele>1173.6</ele>
        <time>2023-07-24T06:44:57Z</time>
      </trkpt>
      <trkpt lat="44.4316" lon="5.45649">
        <ele>1173.8</ele>
        <time>2023-07-24T06:44:58Z</time>
      </trkpt>
      <trkpt lat="44.43162" lon="5.45645">
        <ele>1174.1</ele>
        <time>2023-07-24T06:44:59Z</time>
      </trkpt>
      <trkpt lat="44.43163" lon="5.45644">
        <ele>1174.3</ele>
        <time>2023-07-24T06:45:00Z</time>
      </trkpt>
      <trkpt lat="44.43165" lon="5.45641">
        <ele>1174.6</ele>
        <time>2023-07-24T06:45:01Z</time>
      </trkpt>
      <trkpt lat="44.43166" lon="5.45639">
        <ele>1174.7</ele>
        <time>2023-07-24T06:45:02Z</time>
      </trkpt>
      <trkpt lat="44.43167" lon="5.45637">
        <ele>1174.9</ele>
        <time>2023-07-24T06:45:03Z</time>
      </trkpt>
      <trkpt lat="44.43168" lon="5.45636">
        <ele>1175.1</ele>
        <time>2023-07-24T06:45:04Z</time>
      </trkpt>
      <trkpt lat="44.43168" lon="5.45634">
        <ele>1175.2</ele>
        <time>2023-07-24T06:45:05Z</time>
      </trkpt>
      <trkpt lat="44.43169" lon="5.45632">
        <ele>1175.4</ele>
        <time>2023-07-24T06:45:06Z</time>
      </trkpt>
      <trkpt lat="44.4317" lon="5.45629">
        <ele>1175.6</ele>
        <time>2023-07-24T06:45:07Z</time>
      </trkpt>
      <trkpt lat="44.43171" lon="5.45628">
        <ele>1175.7</ele>
        <time>2023-07-24T06:45:08Z</time>
      </trkpt>
      <trkpt lat="44.43171" lon="5.45627">
        <ele>1175.8</ele>
        <time>2023-07-24T06:45:09Z</time>
      </trkpt>
      <trkpt lat="44.43172" lon="5.45624">
        <ele>1176</ele>
        <time>2023-07-24T06:45:10Z</time>
      </trkpt>
      <trkpt lat="44.43172" lon="5.45623">
        <ele>1176.1</ele>
        <time>2023-07-24T06:45:11Z</time>
      </trkpt>
      <trkpt lat="44.43173" lon="5.45622">
        <ele>1176.1</ele>
        <time>2023-07-24T06:45:12Z</time>
      </trkpt>
      <trkpt lat="44.43174" lon="5.45619">
        <ele>1176.4</ele>
        <time>2023-07-24T06:45:13Z</time>
      </trkpt>
      <trkpt lat="44.43175" lon="5.45618">
        <ele>1176.5</ele>
        <time>2023-07-24T06:45:14Z</time>
      </trkpt>
      <trkpt lat="44.43176" lon="5.45616">
        <ele>1176.7</ele>
        <time>2023-07-24T06:45:15Z</time>
      </trkpt>
      <trkpt lat="44.43177" lon="5.45614">
        <ele>1176.9</ele>
        <time>2023-07-24T06:45:16Z</time>
      </trkpt>
      <trkpt lat="44.43179" lon="5.45611">
        <ele>1177.2</ele>
        <time>2023-07-24T06:45:17Z</time>
      </trkpt>
      <trkpt lat="44.43179" lon="5.4561">
        <ele>1177.3</ele>
        <time>2023-07-24T06:45:18Z</time>
      </trkpt>
      <trkpt lat="44.43181" lon="5.45607">
        <ele>1177.7</ele>
        <time>2023-07-24T06:45:19Z</time>
      </trkpt>
      <trkpt lat="44.43181" lon="5.45606">
        <ele>1177.8</ele>
        <time>2023-07-24T06:45:20Z</time>
      </trkpt>
      <trkpt lat="44.43182" lon="5.45602">
        <ele>1178.2</ele>
        <time>2023-07-24T06:45:21Z</time>
      </trkpt>
      <trkpt lat="44.43183" lon="5.45601">
        <ele>1178.3</ele>
        <time>2023-07-24T06:45:22Z</time>
      </trkpt>
      <trkpt lat="44.43184" lon="5.45597">
        <ele>1178.8</ele>
        <time>2023-07-24T06:45:23Z</time>
      </trkpt>
      <trkpt lat="44.43184" lon="5.45596">
        <ele>1179</ele>
        <time>2023-07-24T06:45:24Z</time>
      </trkpt>
      <trkpt lat="44.43185" lon="5.45591">
        <ele>1179.5</ele>
        <time>2023-07-24T06:45:25Z</time>
      </trkpt>
      <trkpt lat="44.43186" lon="5.4559">
        <ele>1179.6</ele>
        <time>2023-07-24T06:45:26Z</time>
      </trkpt>
      <trkpt lat="44.43187" lon="5.45586">
        <ele>1180.1</ele>
        <time>2023-07-24T06:45:27Z</time>
      </trkpt>
      <trkpt lat="44.43188" lon="5.45585">
        <ele>1180.3</ele>
        <time>2023-07-24T06:45:28Z</time>
      </trkpt>
      <trkpt lat="44.43189" lon="5.4558">
        <ele>1180.9</ele>
        <time>2023-07-24T06:45:29Z</time>
      </trkpt>
      <trkpt lat="44.4319" lon="5.45579">
        <ele>1181.1</ele>
        <time>2023-07-24T06:45:30Z</time>
      </trkpt>
      <trkpt lat="44.43192" lon="5.45575">
        <ele>1181.6</ele>
        <time>2023-07-24T06:45:31Z</time>
      </trkpt>
      <trkpt lat="44.43193" lon="5.45574">
        <ele>1181.8</ele>
        <time>2023-07-24T06:45:32Z</time>
      </trkpt>
      <trkpt lat="44.43194" lon="5.4557">
        <ele>1182.3</ele>
        <time>2023-07-24T06:45:33Z</time>
      </trkpt>
      <trkpt lat="44.43194" lon="5.45568">
        <ele>1182.4</ele>
        <time>2023-07-24T06:45:34Z</time>
      </trkpt>
      <trkpt lat="44.43195" lon="5.45566">
        <ele>1182.7</ele>
        <time>2023-07-24T06:45:35Z</time>
      </trkpt>
      <trkpt lat="44.43195" lon="5.45565">
        <ele>1182.9</ele>
        <time>2023-07-24T06:45:36Z</time>
      </trkpt>
      <trkpt lat="44.43196" lon="5.45563">
        <ele>1183.1</ele>
        <time>2023-07-24T06:45:37Z</time>
      </trkpt>
      <trkpt lat="44.43197" lon="5.45561">
        <ele>1183.3</ele>
        <time>2023-07-24T06:45:38Z</time>
      </trkpt>
      <trkpt lat="44.43198" lon="5.4556">
        <ele>1183.5</ele>
        <time>2023-07-24T06:45:39Z</time>
      </trkpt>
      <trkpt lat="44.43199" lon="5.45558">
        <ele>1183.8</ele>
        <time>2023-07-24T06:45:40Z</time>
      </trkpt>
      <trkpt lat="44.432" lon="5.45556">
        <ele>1184</ele>
        <time>2023-07-24T06:45:41Z</time>
      </trkpt>
      <trkpt lat="44.43201" lon="5.45554">
        <ele>1184.2</ele>
        <time>2023-07-24T06:45:42Z</time>
      </trkpt>
      <trkpt lat="44.43203" lon="5.45552">
        <ele>1184.5</ele>
        <time>2023-07-24T06:45:43Z</time>
      </trkpt>
      <trkpt lat="44.43203" lon="5.4555">
        <ele>1184.7</ele>
        <time>2023-07-24T06:45:44Z</time>
      </trkpt>
      <trkpt lat="44.43204" lon="5.45549">
        <ele>1185</ele>
        <time>2023-07-24T06:45:45Z</time>
      </trkpt>
      <trkpt lat="44.43206" lon="5.45546">
        <ele>1185.2</ele>
        <time>2023-07-24T06:45:46Z</time>
      </trkpt>
      <trkpt lat="44.43207" lon="5.45543">
        <ele>1185.6</ele>
        <time>2023-07-24T06:45:47Z</time>
      </trkpt>
      <trkpt lat="44.43208" lon="5.45542">
        <ele>1185.8</ele>
        <time>2023-07-24T06:45:48Z</time>
      </trkpt>
      <trkpt lat="44.43209" lon="5.45538">
        <ele>1186.2</ele>
        <time>2023-07-24T06:45:49Z</time>
      </trkpt>
      <trkpt lat="44.43209" lon="5.45537">
        <ele>1186.3</ele>
        <time>2023-07-24T06:45:50Z</time>
      </trkpt>
      <trkpt lat="44.4321" lon="5.45532">
        <ele>1186.8</ele>
        <time>2023-07-24T06:45:51Z</time>
      </trkpt>
      <trkpt lat="44.4321" lon="5.45531">
        <ele>1187</ele>
        <time>2023-07-24T06:45:52Z</time>
      </trkpt>
      <trkpt lat="44.43212" lon="5.45527">
        <ele>1187.5</ele>
        <time>2023-07-24T06:45:53Z</time>
      </trkpt>
      <trkpt lat="44.43212" lon="5.45525">
        <ele>1187.7</ele>
        <time>2023-07-24T06:45:54Z</time>
      </trkpt>
      <trkpt lat="44.43213" lon="5.45521">
        <ele>1188.2</ele>
        <time>2023-07-24T06:45:55Z</time>
      </trkpt>
      <trkpt lat="44.43214" lon="5.45519">
        <ele>1188.3</ele>
        <time>2023-07-24T06:45:56Z</time>
      </trkpt>
      <trkpt lat="44.43214" lon="5.45515">
        <ele>1188.8</ele>
        <time>2023-07-24T06:45:57Z</time>
      </trkpt>
      <trkpt lat="44.43214" lon="5.45514">
        <ele>1189</ele>
        <time>2023-07-24T06:45:58Z</time>
      </trkpt>
      <trkpt lat="44.43216" lon="5.4551">
        <ele>1189.4</ele>
        <time>2023-07-24T06:45:59Z</time>
      </trkpt>
      <trkpt lat="44.43216" lon="5.45509">
        <ele>1189.5</ele>
        <time>2023-07-24T06:46:00Z</time>
      </trkpt>
      <trkpt lat="44.43218" lon="5.45506">
        <ele>1189.9</ele>
        <time>2023-07-24T06:46:01Z</time>
      </trkpt>
      <trkpt lat="44.43218" lon="5.45505">
        <ele>1190</ele>
        <time>2023-07-24T06:46:02Z</time>
      </trkpt>
      <trkpt lat="44.43219" lon="5.45503">
        <ele>1190.2</ele>
        <time>2023-07-24T06:46:03Z</time>
      </trkpt>
      <trkpt lat="44.4322" lon="5.45501">
        <ele>1190.3</ele>
        <time>2023-07-24T06:46:04Z</time>
      </trkpt>
      <trkpt lat="44.43223" lon="5.45498">
        <ele>1190.7</ele>
        <time>2023-07-24T06:46:05Z</time>
      </trkpt>
      <trkpt lat="44.43223" lon="5.45497">
        <ele>1190.8</ele>
        <time>2023-07-24T06:46:06Z</time>
      </trkpt>
      <trkpt lat="44.43225" lon="5.45494">
        <ele>1191.1</ele>
        <time>2023-07-24T06:46:07Z</time>
      </trkpt>
      <trkpt lat="44.43226" lon="5.45493">
        <ele>1191.2</ele>
        <time>2023-07-24T06:46:08Z</time>
      </trkpt>
      <trkpt lat="44.43229" lon="5.45489">
        <ele>1191.5</ele>
        <time>2023-07-24T06:46:09Z</time>
      </trkpt>
      <trkpt lat="44.4323" lon="5.45488">
        <ele>1191.6</ele>
        <time>2023-07-24T06:46:10Z</time>
      </trkpt>
      <trkpt lat="44.43232" lon="5.45484">
        <ele>1191.9</ele>
        <time>2023-07-24T06:46:11Z</time>
      </trkpt>
      <trkpt lat="44.43233" lon="5.45483">
        <ele>1192</ele>
        <time>2023-07-24T06:46:12Z</time>
      </trkpt>
      <trkpt lat="44.43234" lon="5.45482">
        <ele>1192.1</ele>
        <time>2023-07-24T06:46:13Z</time>
      </trkpt>
      <trkpt lat="44.43236" lon="5.45481">
        <ele>1192.2</ele>
        <time>2023-07-24T06:46:14Z</time>
      </trkpt>
      <trkpt lat="44.43237" lon="5.45479">
        <ele>1192.4</ele>
        <time>2023-07-24T06:46:15Z</time>
      </trkpt>
      <trkpt lat="44.43238" lon="5.45478">
        <ele>1192.5</ele>
        <time>2023-07-24T06:46:16Z</time>
      </trkpt>
      <trkpt lat="44.43239" lon="5.45477">
        <ele>1192.5</ele>
        <time>2023-07-24T06:46:17Z</time>
      </trkpt>
      <trkpt lat="44.43241" lon="5.45473">
        <ele>1192.8</ele>
        <time>2023-07-24T06:46:18Z</time>
      </trkpt>
      <trkpt lat="44.43242" lon="5.45471">
        <ele>1192.9</ele>
        <time>2023-07-24T06:46:19Z</time>
      </trkpt>
      <trkpt lat="44.43244" lon="5.45468">
        <ele>1193</ele>
        <time>2023-07-24T06:46:20Z</time>
      </trkpt>
      <trkpt lat="44.43246" lon="5.45463">
        <ele>1193.2</ele>
        <time>2023-07-24T06:46:21Z</time>
      </trkpt>
      <trkpt lat="44.43247" lon="5.45462">
        <ele>1193.3</ele>
        <time>2023-07-24T06:46:22Z</time>
      </trkpt>
      <trkpt lat="44.43248" lon="5.45458">
        <ele>1193.3</ele>
        <time>2023-07-24T06:46:23Z</time>
      </trkpt>
      <trkpt lat="44.43249" lon="5.45456">
        <ele>1193.4</ele>
        <time>2023-07-24T06:46:24Z</time>
      </trkpt>
      <trkpt lat="44.43251" lon="5.45453">
        <ele>1193.4</ele>
        <time>2023-07-24T06:46:25Z</time>
      </trkpt>
      <trkpt lat="44.43252" lon="5.45452">
        <ele>1193.3</ele>
        <time>2023-07-24T06:46:26Z</time>
      </trkpt>
      <trkpt lat="44.43253" lon="5.45449">
        <ele>1193.3</ele>
        <time>2023-07-24T06:46:27Z</time>
      </trkpt>
      <trkpt lat="44.43254" lon="5.45448">
        <ele>1193.3</ele>
        <time>2023-07-24T06:46:28Z</time>
      </trkpt>
      <trkpt lat="44.43255" lon="5.45445">
        <ele>1193.2</ele>
        <time>2023-07-24T06:46:29Z</time>
      </trkpt>
      <trkpt lat="44.43255" lon="5.45443">
        <ele>1193.2</ele>
        <time>2023-07-24T06:46:30Z</time>
      </trkpt>
      <trkpt lat="44.43257" lon="5.45439">
        <ele>1193.2</ele>
        <time>2023-07-24T06:46:31Z</time>
      </trkpt>
      <trkpt lat="44.43257" lon="5.45438">
        <ele>1193.2</ele>
        <time>2023-07-24T06:46:32Z</time>
      </trkpt>
      <trkpt lat="44.43259" lon="5.45434">
        <ele>1193.2</ele>
        <time>2023-07-24T06:46:33Z</time>
      </trkpt>
      <trkpt lat="44.43259" lon="5.45433">
        <ele>1193.2</ele>
        <time>2023-07-24T06:46:34Z</time>
      </trkpt>
      <trkpt lat="44.4326" lon="5.45429">
        <ele>1193.2</ele>
        <time>2023-07-24T06:46:35Z</time>
      </trkpt>
      <trkpt lat="44.4326" lon="5.45428">
        <ele>1193.2</ele>
        <time>2023-07-24T06:46:36Z</time>
      </trkpt>
      <trkpt lat="44.43261" lon="5.45426">
        <ele>1193.2</ele>
        <time>2023-07-24T06:46:37Z</time>
      </trkpt>
      <trkpt lat="44.43262" lon="5.45423">
        <ele>1193.3</ele>
        <time>2023-07-24T06:46:38Z</time>
      </trkpt>
      <trkpt lat="44.43262" lon="5.4542">
        <ele>1193.3</ele>
        <time>2023-07-24T06:46:39Z</time>
      </trkpt>
      <trkpt lat="44.43263" lon="5.45419">
        <ele>1193.3</ele>
        <time>2023-07-24T06:46:40Z</time>
      </trkpt>
      <trkpt lat="44.43263" lon="5.45416">
        <ele>1193.4</ele>
        <time>2023-07-24T06:46:41Z</time>
      </trkpt>
      <trkpt lat="44.43264" lon="5.45414">
        <ele>1193.4</ele>
        <time>2023-07-24T06:46:42Z</time>
      </trkpt>
      <trkpt lat="44.43265" lon="5.45412">
        <ele>1193.5</ele>
        <time>2023-07-24T06:46:43Z</time>
      </trkpt>
      <trkpt lat="44.43265" lon="5.4541">
        <ele>1193.5</ele>
        <time>2023-07-24T06:46:44Z</time>
      </trkpt>
      <trkpt lat="44.43267" lon="5.45407">
        <ele>1193.6</ele>
        <time>2023-07-24T06:46:45Z</time>
      </trkpt>
      <trkpt lat="44.43267" lon="5.45406">
        <ele>1193.6</ele>
        <time>2023-07-24T06:46:46Z</time>
      </trkpt>
      <trkpt lat="44.43269" lon="5.45401">
        <ele>1193.7</ele>
        <time>2023-07-24T06:46:47Z</time>
      </trkpt>
      <trkpt lat="44.43269" lon="5.454">
        <ele>1193.7</ele>
        <time>2023-07-24T06:46:48Z</time>
      </trkpt>
      <trkpt lat="44.43271" lon="5.45395">
        <ele>1193.8</ele>
        <time>2023-07-24T06:46:49Z</time>
      </trkpt>
      <trkpt lat="44.43271" lon="5.45394">
        <ele>1193.8</ele>
        <time>2023-07-24T06:46:50Z</time>
      </trkpt>
      <trkpt lat="44.43271" lon="5.45392">
        <ele>1193.9</ele>
        <time>2023-07-24T06:46:51Z</time>
      </trkpt>
      <trkpt lat="44.43272" lon="5.4539">
        <ele>1193.9</ele>
        <time>2023-07-24T06:46:52Z</time>
      </trkpt>
      <trkpt lat="44.43273" lon="5.45385">
        <ele>1194</ele>
        <time>2023-07-24T06:46:53Z</time>
      </trkpt>
      <trkpt lat="44.43273" lon="5.45384">
        <ele>1194.1</ele>
        <time>2023-07-24T06:46:54Z</time>
      </trkpt>
      <trkpt lat="44.43275" lon="5.4538">
        <ele>1194.2</ele>
        <time>2023-07-24T06:46:55Z</time>
      </trkpt>
      <trkpt lat="44.43275" lon="5.45379">
        <ele>1194.2</ele>
        <time>2023-07-24T06:46:56Z</time>
      </trkpt>
      <trkpt lat="44.43277" lon="5.45375">
        <ele>1194.3</ele>
        <time>2023-07-24T06:46:57Z</time>
      </trkpt>
      <trkpt lat="44.43277" lon="5.45373">
        <ele>1194.3</ele>
        <time>2023-07-24T06:46:58Z</time>
      </trkpt>
      <trkpt lat="44.43277" lon="5.4537">
        <ele>1194.4</ele>
        <time>2023-07-24T06:46:59Z</time>
      </trkpt>
      <trkpt lat="44.43277" lon="5.45368">
        <ele>1194.5</ele>
        <time>2023-07-24T06:47:00Z</time>
      </trkpt>
      <trkpt lat="44.43279" lon="5.45365">
        <ele>1194.6</ele>
        <time>2023-07-24T06:47:01Z</time>
      </trkpt>
      <trkpt lat="44.43279" lon="5.45364">
        <ele>1194.6</ele>
        <time>2023-07-24T06:47:02Z</time>
      </trkpt>
      <trkpt lat="44.4328" lon="5.45362">
        <ele>1194.6</ele>
        <time>2023-07-24T06:47:03Z</time>
      </trkpt>
      <trkpt lat="44.43281" lon="5.4536">
        <ele>1194.7</ele>
        <time>2023-07-24T06:47:04Z</time>
      </trkpt>
      <trkpt lat="44.43284" lon="5.45358">
        <ele>1194.8</ele>
        <time>2023-07-24T06:47:05Z</time>
      </trkpt>
      <trkpt lat="44.43285" lon="5.45357">
        <ele>1194.8</ele>
        <time>2023-07-24T06:47:06Z</time>
      </trkpt>
      <trkpt lat="44.43286" lon="5.45356">
        <ele>1194.9</ele>
        <time>2023-07-24T06:47:07Z</time>
      </trkpt>
      <trkpt lat="44.43287" lon="5.45354">
        <ele>1194.9</ele>
        <time>2023-07-24T06:47:08Z</time>
      </trkpt>
      <trkpt lat="44.43289" lon="5.45351">
        <ele>1195</ele>
        <time>2023-07-24T06:47:09Z</time>
      </trkpt>
      <trkpt lat="44.4329" lon="5.4535">
        <ele>1195.1</ele>
        <time>2023-07-24T06:47:10Z</time>
      </trkpt>
      <trkpt lat="44.43291" lon="5.45348">
        <ele>1195.2</ele>
        <time>2023-07-24T06:47:11Z</time>
      </trkpt>
      <trkpt lat="44.43292" lon="5.45347">
        <ele>1195.2</ele>
        <time>2023-07-24T06:47:12Z</time>
      </trkpt>
      <trkpt lat="44.43293" lon="5.45345">
        <ele>1195.3</ele>
        <time>2023-07-24T06:47:13Z</time>
      </trkpt>
      <trkpt lat="44.43295" lon="5.45344">
        <ele>1195.3</ele>
        <time>2023-07-24T06:47:14Z</time>
      </trkpt>
      <trkpt lat="44.43297" lon="5.45342">
        <ele>1195.4</ele>
        <time>2023-07-24T06:47:15Z</time>
      </trkpt>
      <trkpt lat="44.43298" lon="5.45341">
        <ele>1195.4</ele>
        <time>2023-07-24T06:47:16Z</time>
      </trkpt>
      <trkpt lat="44.43299" lon="5.45339">
        <ele>1195.4</ele>
        <time>2023-07-24T06:47:17Z</time>
      </trkpt>
      <trkpt lat="44.43302" lon="5.45334">
        <ele>1195.4</ele>
        <time>2023-07-24T06:47:19Z</time>
      </trkpt>
      <trkpt lat="44.43303" lon="5.4533">
        <ele>1195.4</ele>
        <time>2023-07-24T06:47:20Z</time>
      </trkpt>
      <trkpt lat="44.43303" lon="5.45329">
        <ele>1195.3</ele>
        <time>2023-07-24T06:47:21Z</time>
      </trkpt>
      <trkpt lat="44.43305" lon="5.45326">
        <ele>1195.2</ele>
        <time>2023-07-24T06:47:22Z</time>
      </trkpt>
      <trkpt lat="44.43306" lon="5.45325">
        <ele>1195.2</ele>
        <time>2023-07-24T06:47:23Z</time>
      </trkpt>
      <trkpt lat="44.43309" lon="5.45322">
        <ele>1195</ele>
        <time>2023-07-24T06:47:24Z</time>
      </trkpt>
      <trkpt lat="44.4331" lon="5.45321">
        <ele>1194.9</ele>
        <time>2023-07-24T06:47:25Z</time>
      </trkpt>
      <trkpt lat="44.43312" lon="5.45318">
        <ele>1194.8</ele>
        <time>2023-07-24T06:47:26Z</time>
      </trkpt>
      <trkpt lat="44.43313" lon="5.45318">
        <ele>1194.7</ele>
        <time>2023-07-24T06:47:27Z</time>
      </trkpt>
      <trkpt lat="44.43315" lon="5.45316">
        <ele>1194.5</ele>
        <time>2023-07-24T06:47:28Z</time>
      </trkpt>
      <trkpt lat="44.43316" lon="5.45316">
        <ele>1194.4</ele>
        <time>2023-07-24T06:47:29Z</time>
      </trkpt>
      <trkpt lat="44.43319" lon="5.45313">
        <ele>1194.2</ele>
        <time>2023-07-24T06:47:30Z</time>
      </trkpt>
      <trkpt lat="44.43319" lon="5.45312">
        <ele>1194.1</ele>
        <time>2023-07-24T06:47:31Z</time>
      </trkpt>
      <trkpt lat="44.43321" lon="5.45309">
        <ele>1193.8</ele>
        <time>2023-07-24T06:47:32Z</time>
      </trkpt>
      <trkpt lat="44.43323" lon="5.45304">
        <ele>1193.5</ele>
        <time>2023-07-24T06:47:33Z</time>
      </trkpt>
      <trkpt lat="44.43326" lon="5.45299">
        <ele>1193</ele>
        <time>2023-07-24T06:47:34Z</time>
      </trkpt>
      <trkpt lat="44.43329" lon="5.45295">
        <ele>1192.4</ele>
        <time>2023-07-24T06:47:35Z</time>
      </trkpt>
      <trkpt lat="44.43332" lon="5.45289">
        <ele>1191.7</ele>
        <time>2023-07-24T06:47:36Z</time>
      </trkpt>
      <trkpt lat="44.43335" lon="5.45283">
        <ele>1191.1</ele>
        <time>2023-07-24T06:47:37Z</time>
      </trkpt>
      <trkpt lat="44.43337" lon="5.45278">
        <ele>1190.5</ele>
        <time>2023-07-24T06:47:38Z</time>
      </trkpt>
      <trkpt lat="44.43339" lon="5.45273">
        <ele>1189.9</ele>
        <time>2023-07-24T06:47:39Z</time>
      </trkpt>
      <trkpt lat="44.43341" lon="5.45268">
        <ele>1189.4</ele>
        <time>2023-07-24T06:47:40Z</time>
      </trkpt>
      <trkpt lat="44.43342" lon="5.45264">
        <ele>1189</ele>
        <time>2023-07-24T06:47:41Z</time>
      </trkpt>
      <trkpt lat="44.43343" lon="5.4526">
        <ele>1188.7</ele>
        <time>2023-07-24T06:47:42Z</time>
      </trkpt>
      <trkpt lat="44.43344" lon="5.45257">
        <ele>1188.3</ele>
        <time>2023-07-24T06:47:43Z</time>
      </trkpt>
      <trkpt lat="44.43345" lon="5.45253">
        <ele>1188.1</ele>
        <time>2023-07-24T06:47:44Z</time>
      </trkpt>
      <trkpt lat="44.43347" lon="5.45248">
        <ele>1187.6</ele>
        <time>2023-07-24T06:47:45Z</time>
      </trkpt>
      <trkpt lat="44.43348" lon="5.45247">
        <ele>1187.5</ele>
        <time>2023-07-24T06:47:46Z</time>
      </trkpt>
      <trkpt lat="44.43349" lon="5.45243">
        <ele>1187.2</ele>
        <time>2023-07-24T06:47:47Z</time>
      </trkpt>
      <trkpt lat="44.43351" lon="5.45239">
        <ele>1186.9</ele>
        <time>2023-07-24T06:47:48Z</time>
      </trkpt>
      <trkpt lat="44.43352" lon="5.45237">
        <ele>1186.8</ele>
        <time>2023-07-24T06:47:49Z</time>
      </trkpt>
      <trkpt lat="44.43354" lon="5.45232">
        <ele>1186.5</ele>
        <time>2023-07-24T06:47:50Z</time>
      </trkpt>
      <trkpt lat="44.43355" lon="5.45231">
        <ele>1186.4</ele>
        <time>2023-07-24T06:47:51Z</time>
      </trkpt>
      <trkpt lat="44.43355" lon="5.45227">
        <ele>1186.2</ele>
        <time>2023-07-24T06:47:52Z</time>
      </trkpt>
      <trkpt lat="44.43356" lon="5.45223">
        <ele>1185.9</ele>
        <time>2023-07-24T06:47:53Z</time>
      </trkpt>
      <trkpt lat="44.43357" lon="5.45218">
        <ele>1185.5</ele>
        <time>2023-07-24T06:47:54Z</time>
      </trkpt>
      <trkpt lat="44.43357" lon="5.45214">
        <ele>1185.1</ele>
        <time>2023-07-24T06:47:55Z</time>
      </trkpt>
      <trkpt lat="44.43357" lon="5.4521">
        <ele>1184.8</ele>
        <time>2023-07-24T06:47:56Z</time>
      </trkpt>
      <trkpt lat="44.43357" lon="5.45206">
        <ele>1184.5</ele>
        <time>2023-07-24T06:47:57Z</time>
      </trkpt>
      <trkpt lat="44.43359" lon="5.45201">
        <ele>1184.2</ele>
        <time>2023-07-24T06:47:58Z</time>
      </trkpt>
      <trkpt lat="44.43359" lon="5.45199">
        <ele>1184.1</ele>
        <time>2023-07-24T06:47:59Z</time>
      </trkpt>
      <trkpt lat="44.43361" lon="5.45195">
        <ele>1183.9</ele>
        <time>2023-07-24T06:48:00Z</time>
      </trkpt>
      <trkpt lat="44.43362" lon="5.45193">
        <ele>1183.8</ele>
        <time>2023-07-24T06:48:01Z</time>
      </trkpt>
      <trkpt lat="44.43363" lon="5.4519">
        <ele>1183.8</ele>
        <time>2023-07-24T06:48:02Z</time>
      </trkpt>
      <trkpt lat="44.43364" lon="5.45188">
        <ele>1183.8</ele>
        <time>2023-07-24T06:48:03Z</time>
      </trkpt>
      <trkpt lat="44.43365" lon="5.45185">
        <ele>1183.8</ele>
        <time>2023-07-24T06:48:04Z</time>
      </trkpt>
      <trkpt lat="44.43365" lon="5.45184">
        <ele>1183.8</ele>
        <time>2023-07-24T06:48:05Z</time>
      </trkpt>
      <trkpt lat="44.43367" lon="5.45182">
        <ele>1183.9</ele>
        <time>2023-07-24T06:48:06Z</time>
      </trkpt>
      <trkpt lat="44.43368" lon="5.45181">
        <ele>1183.9</ele>
        <time>2023-07-24T06:48:07Z</time>
      </trkpt>
      <trkpt lat="44.4337" lon="5.45179">
        <ele>1184</ele>
        <time>2023-07-24T06:48:08Z</time>
      </trkpt>
      <trkpt lat="44.4337" lon="5.45178">
        <ele>1184</ele>
        <time>2023-07-24T06:48:09Z</time>
      </trkpt>
      <trkpt lat="44.43371" lon="5.45178">
        <ele>1184.1</ele>
        <time>2023-07-24T06:48:10Z</time>
      </trkpt>
      <trkpt lat="44.43371" lon="5.45177">
        <ele>1184.1</ele>
        <time>2023-07-24T06:48:11Z</time>
      </trkpt>
      <trkpt lat="44.43371" lon="5.45177">
        <ele>1184.1</ele>
        <time>2023-07-24T06:48:12Z</time>
      </trkpt>
      <trkpt lat="44.43371" lon="5.45177">
        <ele>1184.1</ele>
        <time>2023-07-24T06:48:13Z</time>
      </trkpt>
      <trkpt lat="44.43372" lon="5.45177">
        <ele>1184.1</ele>
        <time>2023-07-24T06:48:14Z</time>
      </trkpt>
      <trkpt lat="44.43372" lon="5.45177">
        <ele>1184.2</ele>
        <time>2023-07-24T06:48:15Z</time>
      </trkpt>
      <trkpt lat="44.43371" lon="5.45178">
        <ele>1184.2</ele>
        <time>2023-07-24T06:48:16Z</time>
      </trkpt>
      <trkpt lat="44.43371" lon="5.45178">
        <ele>1184.2</ele>
        <time>2023-07-24T06:48:17Z</time>
      </trkpt>
      <trkpt lat="44.43371" lon="5.45178">
        <ele>1184.2</ele>
        <time>2023-07-24T06:48:18Z</time>
      </trkpt>
      <trkpt lat="44.43371" lon="5.45178">
        <ele>1184.2</ele>
        <time>2023-07-24T06:48:19Z</time>
      </trkpt>
      <trkpt lat="44.43371" lon="5.45178">
        <ele>1184.2</ele>
        <time>2023-07-24T06:48:20Z</time>
      </trkpt>
      <trkpt lat="44.43371" lon="5.45178">
        <ele>1184.2</ele>
        <time>2023-07-24T06:48:21Z</time>
      </trkpt>
      <trkpt lat="44.43371" lon="5.45178">
        <ele>1184.2</ele>
        <time>2023-07-24T06:48:22Z</time>
      </trkpt>
      <trkpt lat="44.43371" lon="5.45178">
        <ele>1184.2</ele>
        <time>2023-07-24T06:48:23Z</time>
      </trkpt>
      <trkpt lat="44.43371" lon="5.45178">
        <ele>1184.2</ele>
        <time>2023-07-24T06:48:24Z</time>
      </trkpt>
      <trkpt lat="44.43373" lon="5.45175">
        <ele>1184.3</ele>
        <time>2023-07-24T06:49:06Z</time>
      </trkpt>
      <trkpt lat="44.43373" lon="5.45174">
        <ele>1184.3</ele>
        <time>2023-07-24T06:49:07Z</time>
      </trkpt>
      <trkpt lat="44.43373" lon="5.45173">
        <ele>1184.4</ele>
        <time>2023-07-24T06:49:08Z</time>
      </trkpt>
      <trkpt lat="44.43373" lon="5.45173">
        <ele>1184.4</ele>
        <time>2023-07-24T06:49:09Z</time>
      </trkpt>
      <trkpt lat="44.43375" lon="5.45172">
        <ele>1184.5</ele>
        <time>2023-07-24T06:49:10Z</time>
      </trkpt>
      <trkpt lat="44.43375" lon="5.45172">
        <ele>1184.5</ele>
        <time>2023-07-24T06:49:11Z</time>
      </trkpt>
      <trkpt lat="44.43375" lon="5.45172">
        <ele>1184.5</ele>
        <time>2023-07-24T06:49:12Z</time>
      </trkpt>
      <trkpt lat="44.43375" lon="5.45172">
        <ele>1184.5</ele>
        <time>2023-07-24T06:49:13Z</time>
      </trkpt>
      <trkpt lat="44.43375" lon="5.45172">
        <ele>1184.5</ele>
        <time>2023-07-24T06:49:14Z</time>
      </trkpt>
      <trkpt lat="44.43375" lon="5.45172">
        <ele>1184.5</ele>
        <time>2023-07-24T06:49:15Z</time>
      </trkpt>
      <trkpt lat="44.43375" lon="5.45172">
        <ele>1184.5</ele>
        <time>2023-07-24T06:49:17Z</time>
      </trkpt>
      <trkpt lat="44.43375" lon="5.45172">
        <ele>1184.5</ele>
        <time>2023-07-24T06:49:18Z</time>
      </trkpt>
      <trkpt lat="44.43375" lon="5.45172">
        <ele>1184.5</ele>
        <time>2023-07-24T06:49:19Z</time>
      </trkpt>
      <trkpt lat="44.43375" lon="5.45171">
        <ele>1184.6</ele>
        <time>2023-07-24T06:49:20Z</time>
      </trkpt>
      <trkpt lat="44.43375" lon="5.45171">
        <ele>1184.6</ele>
        <time>2023-07-24T06:49:21Z</time>
      </trkpt>
      <trkpt lat="44.43375" lon="5.45171">
        <ele>1184.6</ele>
        <time>2023-07-24T06:49:22Z</time>
      </trkpt>
      <trkpt lat="44.43375" lon="5.45171">
        <ele>1184.6</ele>
        <time>2023-07-24T06:49:23Z</time>
      </trkpt>
      <trkpt lat="44.43375" lon="5.45171">
        <ele>1184.6</ele>
        <time>2023-07-24T06:49:24Z</time>
      </trkpt>
      <trkpt lat="44.43375" lon="5.45171">
        <ele>1184.6</ele>
        <time>2023-07-24T06:49:25Z</time>
      </trkpt>
      <trkpt lat="44.43375" lon="5.45171">
        <ele>1184.6</ele>
        <time>2023-07-24T06:49:26Z</time>
      </trkpt>
      <trkpt lat="44.43375" lon="5.45171">
        <ele>1184.6</ele>
        <time>2023-07-24T06:49:27Z</time>
      </trkpt>
      <trkpt lat="44.43375" lon="5.45171">
        <ele>1184.6</ele>
        <time>2023-07-24T06:49:28Z</time>
      </trkpt>
      <trkpt lat="44.43375" lon="5.45171">
        <ele>1184.6</ele>
        <time>2023-07-24T06:49:29Z</time>
      </trkpt>
      <trkpt lat="44.43375" lon="5.45171">
        <ele>1184.6</ele>
        <time>2023-07-24T06:49:30Z</time>
      </trkpt>
      <trkpt lat="44.43375" lon="5.45171">
        <ele>1184.6</ele>
        <time>2023-07-24T06:49:31Z</time>
      </trkpt>
      <trkpt lat="44.43375" lon="5.45171">
        <ele>1184.6</ele>
        <time>2023-07-24T06:49:32Z</time>
      </trkpt>
      <trkpt lat="44.43375" lon="5.45171">
        <ele>1184.6</ele>
        <time>2023-07-24T06:49:33Z</time>
      </trkpt>
      <trkpt lat="44.43375" lon="5.45171">
        <ele>1184.6</ele>
        <time>2023-07-24T06:49:34Z</time>
      </trkpt>
      <trkpt lat="44.43375" lon="5.45171">
        <ele>1184.6</ele>
        <time>2023-07-24T06:49:35Z</time>
      </trkpt>
      <trkpt lat="44.43375" lon="5.45171">
        <ele>1184.6</ele>
        <time>2023-07-24T06:49:36Z</time>
      </trkpt>
      <trkpt lat="44.43375" lon="5.45171">
        <ele>1184.6</ele>
        <time>2023-07-24T06:49:37Z</time>
      </trkpt>
      <trkpt lat="44.43375" lon="5.45171">
        <ele>1184.6</ele>
        <time>2023-07-24T06:49:38Z</time>
      </trkpt>
      <trkpt lat="44.43375" lon="5.45171">
        <ele>1184.6</ele>
        <time>2023-07-24T06:49:39Z</time>
      </trkpt>
      <trkpt lat="44.43375" lon="5.45171">
        <ele>1184.6</ele>
        <time>2023-07-24T06:49:40Z</time>
      </trkpt>
      <trkpt lat="44.43375" lon="5.45171">
        <ele>1184.6</ele>
        <time>2023-07-24T06:49:41Z</time>
      </trkpt>
      <trkpt lat="44.43376" lon="5.45171">
        <ele>1184.6</ele>
        <time>2023-07-24T06:49:42Z</time>
      </trkpt>
      <trkpt lat="44.43376" lon="5.45171">
        <ele>1184.6</ele>
        <time>2023-07-24T06:49:43Z</time>
      </trkpt>
      <trkpt lat="44.43376" lon="5.45171">
        <ele>1184.6</ele>
        <time>2023-07-24T06:49:44Z</time>
      </trkpt>
      <trkpt lat="44.43376" lon="5.45171">
        <ele>1184.6</ele>
        <time>2023-07-24T06:49:45Z</time>
      </trkpt>
      <trkpt lat="44.43376" lon="5.45171">
        <ele>1184.6</ele>
        <time>2023-07-24T06:49:46Z</time>
      </trkpt>
      <trkpt lat="44.43376" lon="5.45171">
        <ele>1184.6</ele>
        <time>2023-07-24T06:49:47Z</time>
      </trkpt>
      <trkpt lat="44.43376" lon="5.45171">
        <ele>1184.6</ele>
        <time>2023-07-24T06:49:48Z</time>
      </trkpt>
      <trkpt lat="44.43376" lon="5.45171">
        <ele>1184.6</ele>
        <time>2023-07-24T06:49:49Z</time>
      </trkpt>
      <trkpt lat="44.43376" lon="5.45171">
        <ele>1184.6</ele>
        <time>2023-07-24T06:49:50Z</time>
      </trkpt>
      <trkpt lat="44.43376" lon="5.45171">
        <ele>1184.6</ele>
        <time>2023-07-24T06:49:51Z</time>
      </trkpt>
      <trkpt lat="44.43376" lon="5.45171">
        <ele>1184.6</ele>
        <time>2023-07-24T06:49:52Z</time>
      </trkpt>
      <trkpt lat="44.43376" lon="5.45171">
        <ele>1184.6</ele>
        <time>2023-07-24T06:49:53Z</time>
      </trkpt>
      <trkpt lat="44.43376" lon="5.45171">
        <ele>1184.7</ele>
        <time>2023-07-24T06:49:54Z</time>
      </trkpt>
      <trkpt lat="44.43376" lon="5.45171">
        <ele>1184.7</ele>
        <time>2023-07-24T06:49:55Z</time>
      </trkpt>
      <trkpt lat="44.43376" lon="5.45171">
        <ele>1184.7</ele>
        <time>2023-07-24T06:49:56Z</time>
      </trkpt>
      <trkpt lat="44.43376" lon="5.45171">
        <ele>1184.7</ele>
        <time>2023-07-24T06:49:57Z</time>
      </trkpt>
      <trkpt lat="44.43376" lon="5.4517">
        <ele>1184.7</ele>
        <time>2023-07-24T06:49:58Z</time>
      </trkpt>
      <trkpt lat="44.43376" lon="5.4517">
        <ele>1184.7</ele>
        <time>2023-07-24T06:49:59Z</time>
      </trkpt>
      <trkpt lat="44.43376" lon="5.4517">
        <ele>1184.7</ele>
        <time>2023-07-24T06:50:00Z</time>
      </trkpt>
      <trkpt lat="44.43376" lon="5.4517">
        <ele>1184.7</ele>
        <time>2023-07-24T06:50:01Z</time>
      </trkpt>
      <trkpt lat="44.43376" lon="5.4517">
        <ele>1184.7</ele>
        <time>2023-07-24T06:50:02Z</time>
      </trkpt>
      <trkpt lat="44.43376" lon="5.4517">
        <ele>1184.7</ele>
        <time>2023-07-24T06:50:03Z</time>
      </trkpt>
      <trkpt lat="44.43376" lon="5.4517">
        <ele>1184.7</ele>
        <time>2023-07-24T06:50:04Z</time>
      </trkpt>
      <trkpt lat="44.43376" lon="5.4517">
        <ele>1184.7</ele>
        <time>2023-07-24T06:50:05Z</time>
      </trkpt>
      <trkpt lat="44.43376" lon="5.4517">
        <ele>1184.7</ele>
        <time>2023-07-24T06:50:06Z</time>
      </trkpt>
      <trkpt lat="44.43376" lon="5.4517">
        <ele>1184.7</ele>
        <time>2023-07-24T06:50:07Z</time>
      </trkpt>
      <trkpt lat="44.43376" lon="5.4517">
        <ele>1184.7</ele>
        <time>2023-07-24T06:50:08Z</time>
      </trkpt>
      <trkpt lat="44.43376" lon="5.4517">
        <ele>1184.7</ele>
        <time>2023-07-24T06:50:09Z</time>
      </trkpt>
      <trkpt lat="44.43376" lon="5.4517">
        <ele>1184.7</ele>
        <time>2023-07-24T06:50:10Z</time>
      </trkpt>
      <trkpt lat="44.43376" lon="5.4517">
        <ele>1184.7</ele>
        <time>2023-07-24T06:50:11Z</time>
      </trkpt>
      <trkpt lat="44.43376" lon="5.4517">
        <ele>1184.7</ele>
        <time>2023-07-24T06:50:12Z</time>
      </trkpt>
      <trkpt lat="44.43376" lon="5.4517">
        <ele>1184.7</ele>
        <time>2023-07-24T06:50:13Z</time>
      </trkpt>
      <trkpt lat="44.43376" lon="5.4517">
        <ele>1184.7</ele>
        <time>2023-07-24T06:50:14Z</time>
      </trkpt>
      <trkpt lat="44.43376" lon="5.4517">
        <ele>1184.7</ele>
        <time>2023-07-24T06:50:15Z</time>
      </trkpt>
      <trkpt lat="44.43376" lon="5.4517">
        <ele>1184.7</ele>
        <time>2023-07-24T06:50:16Z</time>
      </trkpt>
      <trkpt lat="44.43376" lon="5.4517">
        <ele>1184.7</ele>
        <time>2023-07-24T06:50:17Z</time>
      </trkpt>
      <trkpt lat="44.43376" lon="5.4517">
        <ele>1184.7</ele>
        <time>2023-07-24T06:50:18Z</time>
      </trkpt>
      <trkpt lat="44.43376" lon="5.4517">
        <ele>1184.7</ele>
        <time>2023-07-24T06:50:19Z</time>
      </trkpt>
      <trkpt lat="44.43376" lon="5.4517">
        <ele>1184.7</ele>
        <time>2023-07-24T06:50:20Z</time>
      </trkpt>
      <trkpt lat="44.43376" lon="5.4517">
        <ele>1184.7</ele>
        <time>2023-07-24T06:50:21Z</time>
      </trkpt>
      <trkpt lat="44.43376" lon="5.4517">
        <ele>1184.7</ele>
        <time>2023-07-24T06:50:22Z</time>
      </trkpt>
      <trkpt lat="44.43376" lon="5.4517">
        <ele>1184.7</ele>
        <time>2023-07-24T06:50:23Z</time>
      </trkpt>
      <trkpt lat="44.43376" lon="5.4517">
        <ele>1184.7</ele>
        <time>2023-07-24T06:50:24Z</time>
      </trkpt>
      <trkpt lat="44.43376" lon="5.4517">
        <ele>1184.7</ele>
        <time>2023-07-24T06:50:25Z</time>
      </trkpt>
      <trkpt lat="44.43376" lon="5.4517">
        <ele>1184.7</ele>
        <time>2023-07-24T06:50:26Z</time>
      </trkpt>
      <trkpt lat="44.43376" lon="5.4517">
        <ele>1184.7</ele>
        <time>2023-07-24T06:50:27Z</time>
      </trkpt>
      <trkpt lat="44.43376" lon="5.4517">
        <ele>1184.8</ele>
        <time>2023-07-24T06:50:28Z</time>
      </trkpt>
      <trkpt lat="44.43376" lon="5.4517">
        <ele>1184.8</ele>
        <time>2023-07-24T06:50:29Z</time>
      </trkpt>
      <trkpt lat="44.43376" lon="5.4517">
        <ele>1184.8</ele>
        <time>2023-07-24T06:50:30Z</time>
      </trkpt>
      <trkpt lat="44.43376" lon="5.4517">
        <ele>1184.8</ele>
        <time>2023-07-24T06:50:31Z</time>
      </trkpt>
      <trkpt lat="44.43376" lon="5.4517">
        <ele>1184.8</ele>
        <time>2023-07-24T06:50:32Z</time>
      </trkpt>
      <trkpt lat="44.43377" lon="5.4517">
        <ele>1184.8</ele>
        <time>2023-07-24T06:50:33Z</time>
      </trkpt>
      <trkpt lat="44.43377" lon="5.4517">
        <ele>1184.8</ele>
        <time>2023-07-24T06:50:34Z</time>
      </trkpt>
      <trkpt lat="44.43377" lon="5.4517">
        <ele>1184.8</ele>
        <time>2023-07-24T06:50:35Z</time>
      </trkpt>
      <trkpt lat="44.43377" lon="5.45169">
        <ele>1184.8</ele>
        <time>2023-07-24T06:50:36Z</time>
      </trkpt>
      <trkpt lat="44.43377" lon="5.45169">
        <ele>1184.8</ele>
        <time>2023-07-24T06:50:37Z</time>
      </trkpt>
      <trkpt lat="44.43377" lon="5.45169">
        <ele>1184.8</ele>
        <time>2023-07-24T06:50:38Z</time>
      </trkpt>
      <trkpt lat="44.43377" lon="5.45169">
        <ele>1184.8</ele>
        <time>2023-07-24T06:50:39Z</time>
      </trkpt>
      <trkpt lat="44.43377" lon="5.45169">
        <ele>1184.8</ele>
        <time>2023-07-24T06:50:40Z</time>
      </trkpt>
      <trkpt lat="44.43377" lon="5.45169">
        <ele>1184.8</ele>
        <time>2023-07-24T06:50:41Z</time>
      </trkpt>
      <trkpt lat="44.43377" lon="5.45169">
        <ele>1184.8</ele>
        <time>2023-07-24T06:50:42Z</time>
      </trkpt>
      <trkpt lat="44.43377" lon="5.45169">
        <ele>1184.8</ele>
        <time>2023-07-24T06:50:43Z</time>
      </trkpt>
      <trkpt lat="44.43377" lon="5.45169">
        <ele>1184.8</ele>
        <time>2023-07-24T06:50:44Z</time>
      </trkpt>
      <trkpt lat="44.43377" lon="5.45169">
        <ele>1184.8</ele>
        <time>2023-07-24T06:50:45Z</time>
      </trkpt>
      <trkpt lat="44.43377" lon="5.45169">
        <ele>1184.8</ele>
        <time>2023-07-24T06:50:46Z</time>
      </trkpt>
      <trkpt lat="44.43377" lon="5.45169">
        <ele>1184.8</ele>
        <time>2023-07-24T06:50:47Z</time>
      </trkpt>
      <trkpt lat="44.43377" lon="5.45169">
        <ele>1184.8</ele>
        <time>2023-07-24T06:50:48Z</time>
      </trkpt>
      <trkpt lat="44.43377" lon="5.45169">
        <ele>1184.8</ele>
        <time>2023-07-24T06:50:49Z</time>
      </trkpt>
      <trkpt lat="44.43377" lon="5.45169">
        <ele>1184.8</ele>
        <time>2023-07-24T06:50:50Z</time>
      </trkpt>
      <trkpt lat="44.43377" lon="5.45169">
        <ele>1184.8</ele>
        <time>2023-07-24T06:50:51Z</time>
      </trkpt>
      <trkpt lat="44.43377" lon="5.45169">
        <ele>1184.8</ele>
        <time>2023-07-24T06:50:52Z</time>
      </trkpt>
      <trkpt lat="44.43377" lon="5.45169">
        <ele>1184.8</ele>
        <time>2023-07-24T06:50:53Z</time>
      </trkpt>
      <trkpt lat="44.43377" lon="5.45169">
        <ele>1184.8</ele>
        <time>2023-07-24T06:50:54Z</time>
      </trkpt>
      <trkpt lat="44.43377" lon="5.45169">
        <ele>1184.8</ele>
        <time>2023-07-24T06:50:55Z</time>
      </trkpt>
      <trkpt lat="44.43377" lon="5.45169">
        <ele>1184.8</ele>
        <time>2023-07-24T06:50:56Z</time>
      </trkpt>
      <trkpt lat="44.43377" lon="5.45169">
        <ele>1184.8</ele>
        <time>2023-07-24T06:50:57Z</time>
      </trkpt>
      <trkpt lat="44.43377" lon="5.45169">
        <ele>1184.8</ele>
        <time>2023-07-24T06:50:58Z</time>
      </trkpt>
      <trkpt lat="44.43377" lon="5.45169">
        <ele>1184.9</ele>
        <time>2023-07-24T06:50:59Z</time>
      </trkpt>
      <trkpt lat="44.43377" lon="5.45169">
        <ele>1184.9</ele>
        <time>2023-07-24T06:51:00Z</time>
      </trkpt>
      <trkpt lat="44.43377" lon="5.45169">
        <ele>1184.9</ele>
        <time>2023-07-24T06:51:01Z</time>
      </trkpt>
      <trkpt lat="44.43377" lon="5.45169">
        <ele>1184.9</ele>
        <time>2023-07-24T06:51:02Z</time>
      </trkpt>
      <trkpt lat="44.43377" lon="5.45169">
        <ele>1184.9</ele>
        <time>2023-07-24T06:51:03Z</time>
      </trkpt>
      <trkpt lat="44.43377" lon="5.45169">
        <ele>1184.9</ele>
        <time>2023-07-24T06:51:04Z</time>
      </trkpt>
      <trkpt lat="44.43377" lon="5.45169">
        <ele>1184.9</ele>
        <time>2023-07-24T06:51:05Z</time>
      </trkpt>
      <trkpt lat="44.43377" lon="5.45169">
        <ele>1184.9</ele>
        <time>2023-07-24T06:51:06Z</time>
      </trkpt>
      <trkpt lat="44.43377" lon="5.45169">
        <ele>1184.9</ele>
        <time>2023-07-24T06:51:07Z</time>
      </trkpt>
      <trkpt lat="44.43377" lon="5.45169">
        <ele>1184.9</ele>
        <time>2023-07-24T06:51:08Z</time>
      </trkpt>
      <trkpt lat="44.43377" lon="5.45169">
        <ele>1184.9</ele>
        <time>2023-07-24T06:51:09Z</time>
      </trkpt>
      <trkpt lat="44.43377" lon="5.45169">
        <ele>1184.9</ele>
        <time>2023-07-24T06:51:10Z</time>
      </trkpt>
      <trkpt lat="44.43378" lon="5.45167">
        <ele>1184.8</ele>
        <time>2023-07-24T06:51:11Z</time>
      </trkpt>
      <trkpt lat="44.43379" lon="5.45166">
        <ele>1184.8</ele>
        <time>2023-07-24T06:51:12Z</time>
      </trkpt>
      <trkpt lat="44.43381" lon="5.45164">
        <ele>1184.7</ele>
        <time>2023-07-24T06:51:13Z</time>
      </trkpt>
      <trkpt lat="44.43382" lon="5.45163">
        <ele>1184.6</ele>
        <time>2023-07-24T06:51:14Z</time>
      </trkpt>
      <trkpt lat="44.43383" lon="5.45163">
        <ele>1184.5</ele>
        <time>2023-07-24T06:51:15Z</time>
      </trkpt>
      <trkpt lat="44.43385" lon="5.45162">
        <ele>1184.4</ele>
        <time>2023-07-24T06:51:16Z</time>
      </trkpt>
      <trkpt lat="44.43386" lon="5.45161">
        <ele>1184.3</ele>
        <time>2023-07-24T06:51:17Z</time>
      </trkpt>
      <trkpt lat="44.43387" lon="5.4516">
        <ele>1184.1</ele>
        <time>2023-07-24T06:51:18Z</time>
      </trkpt>
      <trkpt lat="44.43388" lon="5.45158">
        <ele>1183.9</ele>
        <time>2023-07-24T06:51:19Z</time>
      </trkpt>
      <trkpt lat="44.43392" lon="5.45157">
        <ele>1183.5</ele>
        <time>2023-07-24T06:51:20Z</time>
      </trkpt>
      <trkpt lat="44.43392" lon="5.45157">
        <ele>1183.3</ele>
        <time>2023-07-24T06:51:21Z</time>
      </trkpt>
      <trkpt lat="44.43395" lon="5.45155">
        <ele>1182.8</ele>
        <time>2023-07-24T06:51:22Z</time>
      </trkpt>
      <trkpt lat="44.43398" lon="5.45153">
        <ele>1182.2</ele>
        <time>2023-07-24T06:51:23Z</time>
      </trkpt>
      <trkpt lat="44.43401" lon="5.45152">
        <ele>1181.4</ele>
        <time>2023-07-24T06:51:24Z</time>
      </trkpt>
      <trkpt lat="44.43405" lon="5.45149">
        <ele>1180.4</ele>
        <time>2023-07-24T06:51:25Z</time>
      </trkpt>
      <trkpt lat="44.4341" lon="5.45145">
        <ele>1178.9</ele>
        <time>2023-07-24T06:51:26Z</time>
      </trkpt>
      <trkpt lat="44.43415" lon="5.45141">
        <ele>1177</ele>
        <time>2023-07-24T06:51:27Z</time>
      </trkpt>
      <trkpt lat="44.4342" lon="5.45138">
        <ele>1175.4</ele>
        <time>2023-07-24T06:51:28Z</time>
      </trkpt>
      <trkpt lat="44.43423" lon="5.45135">
        <ele>1174.3</ele>
        <time>2023-07-24T06:51:29Z</time>
      </trkpt>
      <trkpt lat="44.43426" lon="5.45132">
        <ele>1173.3</ele>
        <time>2023-07-24T06:51:30Z</time>
      </trkpt>
      <trkpt lat="44.43429" lon="5.45129">
        <ele>1172.6</ele>
        <time>2023-07-24T06:51:31Z</time>
      </trkpt>
      <trkpt lat="44.43432" lon="5.45126">
        <ele>1171.9</ele>
        <time>2023-07-24T06:51:32Z</time>
      </trkpt>
      <trkpt lat="44.43437" lon="5.45126">
        <ele>1171</ele>
        <time>2023-07-24T06:51:33Z</time>
      </trkpt>
      <trkpt lat="44.43443" lon="5.45126">
        <ele>1170</ele>
        <time>2023-07-24T06:51:34Z</time>
      </trkpt>
      <trkpt lat="44.43448" lon="5.45126">
        <ele>1169.1</ele>
        <time>2023-07-24T06:51:35Z</time>
      </trkpt>
      <trkpt lat="44.43453" lon="5.45125">
        <ele>1168.2</ele>
        <time>2023-07-24T06:51:36Z</time>
      </trkpt>
      <trkpt lat="44.43458" lon="5.45125">
        <ele>1167.2</ele>
        <time>2023-07-24T06:51:37Z</time>
      </trkpt>
      <trkpt lat="44.43462" lon="5.45124">
        <ele>1166.3</ele>
        <time>2023-07-24T06:51:38Z</time>
      </trkpt>
      <trkpt lat="44.43467" lon="5.45123">
        <ele>1165.4</ele>
        <time>2023-07-24T06:51:39Z</time>
      </trkpt>
      <trkpt lat="44.4347" lon="5.45123">
        <ele>1164.6</ele>
        <time>2023-07-24T06:51:40Z</time>
      </trkpt>
      <trkpt lat="44.43474" lon="5.45123">
        <ele>1163.8</ele>
        <time>2023-07-24T06:51:41Z</time>
      </trkpt>
      <trkpt lat="44.43478" lon="5.45123">
        <ele>1162.9</ele>
        <time>2023-07-24T06:51:42Z</time>
      </trkpt>
      <trkpt lat="44.43481" lon="5.45123">
        <ele>1162.1</ele>
        <time>2023-07-24T06:51:43Z</time>
      </trkpt>
      <trkpt lat="44.43484" lon="5.45125">
        <ele>1161.3</ele>
        <time>2023-07-24T06:51:44Z</time>
      </trkpt>
      <trkpt lat="44.43485" lon="5.45127">
        <ele>1161</ele>
        <time>2023-07-24T06:51:45Z</time>
      </trkpt>
      <trkpt lat="44.43485" lon="5.45131">
        <ele>1160.3</ele>
        <time>2023-07-24T06:51:46Z</time>
      </trkpt>
      <trkpt lat="44.43486" lon="5.45135">
        <ele>1159.7</ele>
        <time>2023-07-24T06:51:47Z</time>
      </trkpt>
      <trkpt lat="44.43486" lon="5.4514">
        <ele>1158.9</ele>
        <time>2023-07-24T06:51:48Z</time>
      </trkpt>
      <trkpt lat="44.43487" lon="5.45146">
        <ele>1157.9</ele>
        <time>2023-07-24T06:51:49Z</time>
      </trkpt>
      <trkpt lat="44.43487" lon="5.45152">
        <ele>1157</ele>
        <time>2023-07-24T06:51:50Z</time>
      </trkpt>
      <trkpt lat="44.43487" lon="5.45158">
        <ele>1156.1</ele>
        <time>2023-07-24T06:51:51Z</time>
      </trkpt>
      <trkpt lat="44.43488" lon="5.45164">
        <ele>1155.3</ele>
        <time>2023-07-24T06:51:52Z</time>
      </trkpt>
      <trkpt lat="44.43489" lon="5.4517">
        <ele>1154.6</ele>
        <time>2023-07-24T06:51:53Z</time>
      </trkpt>
      <trkpt lat="44.4349" lon="5.45175">
        <ele>1153.9</ele>
        <time>2023-07-24T06:51:54Z</time>
      </trkpt>
      <trkpt lat="44.4349" lon="5.4518">
        <ele>1153.3</ele>
        <time>2023-07-24T06:51:55Z</time>
      </trkpt>
      <trkpt lat="44.4349" lon="5.45184">
        <ele>1152.6</ele>
        <time>2023-07-24T06:51:56Z</time>
      </trkpt>
      <trkpt lat="44.43491" lon="5.45188">
        <ele>1152</ele>
        <time>2023-07-24T06:51:57Z</time>
      </trkpt>
      <trkpt lat="44.43491" lon="5.45193">
        <ele>1151.2</ele>
        <time>2023-07-24T06:51:58Z</time>
      </trkpt>
      <trkpt lat="44.43492" lon="5.45195">
        <ele>1151</ele>
        <time>2023-07-24T06:51:59Z</time>
      </trkpt>
      <trkpt lat="44.43493" lon="5.45198">
        <ele>1150.4</ele>
        <time>2023-07-24T06:52:00Z</time>
      </trkpt>
      <trkpt lat="44.43496" lon="5.452">
        <ele>1149.7</ele>
        <time>2023-07-24T06:52:01Z</time>
      </trkpt>
      <trkpt lat="44.43499" lon="5.452">
        <ele>1148.8</ele>
        <time>2023-07-24T06:52:02Z</time>
      </trkpt>
      <trkpt lat="44.43502" lon="5.45199">
        <ele>1147.9</ele>
        <time>2023-07-24T06:52:03Z</time>
      </trkpt>
      <trkpt lat="44.43506" lon="5.45197">
        <ele>1147</ele>
        <time>2023-07-24T06:52:04Z</time>
      </trkpt>
      <trkpt lat="44.43509" lon="5.45195">
        <ele>1146</ele>
        <time>2023-07-24T06:52:05Z</time>
      </trkpt>
      <trkpt lat="44.43513" lon="5.45192">
        <ele>1144.9</ele>
        <time>2023-07-24T06:52:06Z</time>
      </trkpt>
      <trkpt lat="44.43518" lon="5.45189">
        <ele>1143.9</ele>
        <time>2023-07-24T06:52:07Z</time>
      </trkpt>
      <trkpt lat="44.4352" lon="5.45184">
        <ele>1143.1</ele>
        <time>2023-07-24T06:52:08Z</time>
      </trkpt>
      <trkpt lat="44.43522" lon="5.45179">
        <ele>1142.4</ele>
        <time>2023-07-24T06:52:09Z</time>
      </trkpt>
      <trkpt lat="44.43525" lon="5.45174">
        <ele>1141.9</ele>
        <time>2023-07-24T06:52:10Z</time>
      </trkpt>
      <trkpt lat="44.43527" lon="5.45169">
        <ele>1141.4</ele>
        <time>2023-07-24T06:52:11Z</time>
      </trkpt>
      <trkpt lat="44.43529" lon="5.45163">
        <ele>1140.9</ele>
        <time>2023-07-24T06:52:12Z</time>
      </trkpt>
      <trkpt lat="44.43531" lon="5.45156">
        <ele>1140.6</ele>
        <time>2023-07-24T06:52:13Z</time>
      </trkpt>
      <trkpt lat="44.43534" lon="5.45149">
        <ele>1140.3</ele>
        <time>2023-07-24T06:52:14Z</time>
      </trkpt>
      <trkpt lat="44.43536" lon="5.45142">
        <ele>1140</ele>
        <time>2023-07-24T06:52:15Z</time>
      </trkpt>
      <trkpt lat="44.43538" lon="5.45135">
        <ele>1139.7</ele>
        <time>2023-07-24T06:52:16Z</time>
      </trkpt>
      <trkpt lat="44.43541" lon="5.4513">
        <ele>1139.4</ele>
        <time>2023-07-24T06:52:17Z</time>
      </trkpt>
      <trkpt lat="44.43543" lon="5.45127">
        <ele>1139.2</ele>
        <time>2023-07-24T06:52:18Z</time>
      </trkpt>
      <trkpt lat="44.43545" lon="5.45124">
        <ele>1139.1</ele>
        <time>2023-07-24T06:52:19Z</time>
      </trkpt>
      <trkpt lat="44.43545" lon="5.45123">
        <ele>1139</ele>
        <time>2023-07-24T06:52:20Z</time>
      </trkpt>
      <trkpt lat="44.43546" lon="5.45122">
        <ele>1139</ele>
        <time>2023-07-24T06:52:21Z</time>
      </trkpt>
      <trkpt lat="44.43546" lon="5.45122">
        <ele>1139</ele>
        <time>2023-07-24T06:52:22Z</time>
      </trkpt>
      <trkpt lat="44.43547" lon="5.45121">
        <ele>1139</ele>
        <time>2023-07-24T06:52:23Z</time>
      </trkpt>
      <trkpt lat="44.43548" lon="5.4512">
        <ele>1138.9</ele>
        <time>2023-07-24T06:52:24Z</time>
      </trkpt>
      <trkpt lat="44.43551" lon="5.45119">
        <ele>1138.7</ele>
        <time>2023-07-24T06:52:25Z</time>
      </trkpt>
      <trkpt lat="44.43553" lon="5.45119">
        <ele>1138.7</ele>
        <time>2023-07-24T06:52:26Z</time>
      </trkpt>
      <trkpt lat="44.43556" lon="5.45119">
        <ele>1138.5</ele>
        <time>2023-07-24T06:52:27Z</time>
      </trkpt>
      <trkpt lat="44.43559" lon="5.45119">
        <ele>1138.3</ele>
        <time>2023-07-24T06:52:28Z</time>
      </trkpt>
      <trkpt lat="44.43563" lon="5.45119">
        <ele>1138</ele>
        <time>2023-07-24T06:52:29Z</time>
      </trkpt>
      <trkpt lat="44.43567" lon="5.45119">
        <ele>1137.5</ele>
        <time>2023-07-24T06:52:30Z</time>
      </trkpt>
      <trkpt lat="44.43572" lon="5.45118">
        <ele>1136.7</ele>
        <time>2023-07-24T06:52:31Z</time>
      </trkpt>
      <trkpt lat="44.43578" lon="5.45117">
        <ele>1135.4</ele>
        <time>2023-07-24T06:52:32Z</time>
      </trkpt>
      <trkpt lat="44.43584" lon="5.45116">
        <ele>1134.1</ele>
        <time>2023-07-24T06:52:33Z</time>
      </trkpt>
      <trkpt lat="44.43589" lon="5.45115">
        <ele>1132.8</ele>
        <time>2023-07-24T06:52:34Z</time>
      </trkpt>
      <trkpt lat="44.43593" lon="5.45113">
        <ele>1131.7</ele>
        <time>2023-07-24T06:52:35Z</time>
      </trkpt>
      <trkpt lat="44.43598" lon="5.45113">
        <ele>1130.7</ele>
        <time>2023-07-24T06:52:36Z</time>
      </trkpt>
      <trkpt lat="44.43603" lon="5.45112">
        <ele>1129.7</ele>
        <time>2023-07-24T06:52:37Z</time>
      </trkpt>
      <trkpt lat="44.43607" lon="5.45112">
        <ele>1128.6</ele>
        <time>2023-07-24T06:52:38Z</time>
      </trkpt>
      <trkpt lat="44.43611" lon="5.45111">
        <ele>1127.6</ele>
        <time>2023-07-24T06:52:39Z</time>
      </trkpt>
      <trkpt lat="44.43617" lon="5.45111">
        <ele>1126.5</ele>
        <time>2023-07-24T06:52:40Z</time>
      </trkpt>
      <trkpt lat="44.43622" lon="5.4511">
        <ele>1125.4</ele>
        <time>2023-07-24T06:52:41Z</time>
      </trkpt>
      <trkpt lat="44.43627" lon="5.45108">
        <ele>1124.3</ele>
        <time>2023-07-24T06:52:42Z</time>
      </trkpt>
      <trkpt lat="44.43632" lon="5.45107">
        <ele>1123.2</ele>
        <time>2023-07-24T06:52:43Z</time>
      </trkpt>
      <trkpt lat="44.43637" lon="5.45106">
        <ele>1122.2</ele>
        <time>2023-07-24T06:52:44Z</time>
      </trkpt>
      <trkpt lat="44.43642" lon="5.45106">
        <ele>1121.3</ele>
        <time>2023-07-24T06:52:45Z</time>
      </trkpt>
      <trkpt lat="44.43646" lon="5.45105">
        <ele>1120.6</ele>
        <time>2023-07-24T06:52:46Z</time>
      </trkpt>
      <trkpt lat="44.4365" lon="5.45105">
        <ele>1119.8</ele>
        <time>2023-07-24T06:52:47Z</time>
      </trkpt>
      <trkpt lat="44.43653" lon="5.45104">
        <ele>1119.1</ele>
        <time>2023-07-24T06:52:48Z</time>
      </trkpt>
      <trkpt lat="44.43657" lon="5.45104">
        <ele>1118.1</ele>
        <time>2023-07-24T06:52:49Z</time>
      </trkpt>
      <trkpt lat="44.43662" lon="5.45103">
        <ele>1117</ele>
        <time>2023-07-24T06:52:50Z</time>
      </trkpt>
      <trkpt lat="44.43666" lon="5.45102">
        <ele>1116</ele>
        <time>2023-07-24T06:52:51Z</time>
      </trkpt>
      <trkpt lat="44.43671" lon="5.45101">
        <ele>1114.9</ele>
        <time>2023-07-24T06:52:52Z</time>
      </trkpt>
      <trkpt lat="44.43675" lon="5.451">
        <ele>1114.1</ele>
        <time>2023-07-24T06:52:53Z</time>
      </trkpt>
      <trkpt lat="44.4368" lon="5.451">
        <ele>1113.1</ele>
        <time>2023-07-24T06:52:54Z</time>
      </trkpt>
      <trkpt lat="44.43684" lon="5.451">
        <ele>1112.3</ele>
        <time>2023-07-24T06:52:55Z</time>
      </trkpt>
      <trkpt lat="44.43687" lon="5.45099">
        <ele>1111.6</ele>
        <time>2023-07-24T06:52:56Z</time>
      </trkpt>
      <trkpt lat="44.43691" lon="5.45099">
        <ele>1110.9</ele>
        <time>2023-07-24T06:52:57Z</time>
      </trkpt>
      <trkpt lat="44.43695" lon="5.45098">
        <ele>1110.1</ele>
        <time>2023-07-24T06:52:58Z</time>
      </trkpt>
      <trkpt lat="44.43699" lon="5.45094">
        <ele>1109.1</ele>
        <time>2023-07-24T06:52:59Z</time>
      </trkpt>
      <trkpt lat="44.43705" lon="5.4509">
        <ele>1108</ele>
        <time>2023-07-24T06:53:00Z</time>
      </trkpt>
      <trkpt lat="44.4371" lon="5.45085">
        <ele>1107</ele>
        <time>2023-07-24T06:53:01Z</time>
      </trkpt>
      <trkpt lat="44.43714" lon="5.4508">
        <ele>1106.1</ele>
        <time>2023-07-24T06:53:02Z</time>
      </trkpt>
      <trkpt lat="44.43718" lon="5.45077">
        <ele>1105.5</ele>
        <time>2023-07-24T06:53:03Z</time>
      </trkpt>
      <trkpt lat="44.43722" lon="5.45075">
        <ele>1104.9</ele>
        <time>2023-07-24T06:53:04Z</time>
      </trkpt>
      <trkpt lat="44.43726" lon="5.45073">
        <ele>1104.5</ele>
        <time>2023-07-24T06:53:05Z</time>
      </trkpt>
      <trkpt lat="44.43729" lon="5.45071">
        <ele>1104.1</ele>
        <time>2023-07-24T06:53:06Z</time>
      </trkpt>
      <trkpt lat="44.43732" lon="5.4507">
        <ele>1103.6</ele>
        <time>2023-07-24T06:53:07Z</time>
      </trkpt>
      <trkpt lat="44.43733" lon="5.45069">
        <ele>1103.5</ele>
        <time>2023-07-24T06:53:08Z</time>
      </trkpt>
      <trkpt lat="44.43736" lon="5.45067">
        <ele>1103.1</ele>
        <time>2023-07-24T06:53:09Z</time>
      </trkpt>
      <trkpt lat="44.43736" lon="5.45066">
        <ele>1102.9</ele>
        <time>2023-07-24T06:53:10Z</time>
      </trkpt>
      <trkpt lat="44.43737" lon="5.45065">
        <ele>1102.8</ele>
        <time>2023-07-24T06:53:11Z</time>
      </trkpt>
      <trkpt lat="44.43737" lon="5.45065">
        <ele>1102.8</ele>
        <time>2023-07-24T06:53:12Z</time>
      </trkpt>
      <trkpt lat="44.43737" lon="5.45065">
        <ele>1102.8</ele>
        <time>2023-07-24T06:53:13Z</time>
      </trkpt>
      <trkpt lat="44.43737" lon="5.45065">
        <ele>1102.8</ele>
        <time>2023-07-24T06:53:14Z</time>
      </trkpt>
      <trkpt lat="44.43737" lon="5.45064">
        <ele>1102.7</ele>
        <time>2023-07-24T06:53:15Z</time>
      </trkpt>
      <trkpt lat="44.43737" lon="5.45064">
        <ele>1102.7</ele>
        <time>2023-07-24T06:53:16Z</time>
      </trkpt>
      <trkpt lat="44.43737" lon="5.45064">
        <ele>1102.7</ele>
        <time>2023-07-24T06:53:17Z</time>
      </trkpt>
      <trkpt lat="44.43737" lon="5.45064">
        <ele>1102.7</ele>
        <time>2023-07-24T06:53:18Z</time>
      </trkpt>
      <trkpt lat="44.43737" lon="5.45064">
        <ele>1102.7</ele>
        <time>2023-07-24T06:53:19Z</time>
      </trkpt>
      <trkpt lat="44.43737" lon="5.45064">
        <ele>1102.7</ele>
        <time>2023-07-24T06:53:20Z</time>
      </trkpt>
      <trkpt lat="44.43737" lon="5.45064">
        <ele>1102.6</ele>
        <time>2023-07-24T06:53:21Z</time>
      </trkpt>
      <trkpt lat="44.43737" lon="5.45063">
        <ele>1102.6</ele>
        <time>2023-07-24T06:53:22Z</time>
      </trkpt>
      <trkpt lat="44.43737" lon="5.45063">
        <ele>1102.5</ele>
        <time>2023-07-24T06:53:23Z</time>
      </trkpt>
      <trkpt lat="44.43737" lon="5.45063">
        <ele>1102.5</ele>
        <time>2023-07-24T06:53:24Z</time>
      </trkpt>
      <trkpt lat="44.43737" lon="5.45063">
        <ele>1102.5</ele>
        <time>2023-07-24T06:53:25Z</time>
      </trkpt>
      <trkpt lat="44.43739" lon="5.45059">
        <ele>1102.1</ele>
        <time>2023-07-24T06:53:39Z</time>
      </trkpt>
      <trkpt lat="44.43742" lon="5.45059">
        <ele>1101.6</ele>
        <time>2023-07-24T06:53:40Z</time>
      </trkpt>
      <trkpt lat="44.43746" lon="5.45059">
        <ele>1101</ele>
        <time>2023-07-24T06:53:41Z</time>
      </trkpt>
      <trkpt lat="44.43752" lon="5.45059">
        <ele>1100.2</ele>
        <time>2023-07-24T06:53:42Z</time>
      </trkpt>
      <trkpt lat="44.43759" lon="5.45061">
        <ele>1098.9</ele>
        <time>2023-07-24T06:53:43Z</time>
      </trkpt>
      <trkpt lat="44.43767" lon="5.45062">
        <ele>1097.3</ele>
        <time>2023-07-24T06:53:44Z</time>
      </trkpt>
      <trkpt lat="44.43774" lon="5.45063">
        <ele>1095.5</ele>
        <time>2023-07-24T06:53:45Z</time>
      </trkpt>
      <trkpt lat="44.43781" lon="5.45064">
        <ele>1093.9</ele>
        <time>2023-07-24T06:53:46Z</time>
      </trkpt>
      <trkpt lat="44.43787" lon="5.45066">
        <ele>1092.5</ele>
        <time>2023-07-24T06:53:47Z</time>
      </trkpt>
      <trkpt lat="44.43794" lon="5.45069">
        <ele>1091.1</ele>
        <time>2023-07-24T06:53:48Z</time>
      </trkpt>
      <trkpt lat="44.438" lon="5.45073">
        <ele>1090</ele>
        <time>2023-07-24T06:53:49Z</time>
      </trkpt>
      <trkpt lat="44.43806" lon="5.45076">
        <ele>1089.2</ele>
        <time>2023-07-24T06:53:50Z</time>
      </trkpt>
      <trkpt lat="44.43811" lon="5.4508">
        <ele>1088.6</ele>
        <time>2023-07-24T06:53:51Z</time>
      </trkpt>
      <trkpt lat="44.43816" lon="5.45083">
        <ele>1088.3</ele>
        <time>2023-07-24T06:53:52Z</time>
      </trkpt>
      <trkpt lat="44.43822" lon="5.45086">
        <ele>1087.9</ele>
        <time>2023-07-24T06:53:53Z</time>
      </trkpt>
      <trkpt lat="44.43827" lon="5.45089">
        <ele>1087.5</ele>
        <time>2023-07-24T06:53:54Z</time>
      </trkpt>
      <trkpt lat="44.43833" lon="5.4509">
        <ele>1087</ele>
        <time>2023-07-24T06:53:55Z</time>
      </trkpt>
      <trkpt lat="44.43838" lon="5.45089">
        <ele>1086.4</ele>
        <time>2023-07-24T06:53:56Z</time>
      </trkpt>
      <trkpt lat="44.43843" lon="5.45085">
        <ele>1085.8</ele>
        <time>2023-07-24T06:53:57Z</time>
      </trkpt>
      <trkpt lat="44.43846" lon="5.45079">
        <ele>1085.3</ele>
        <time>2023-07-24T06:53:58Z</time>
      </trkpt>
      <trkpt lat="44.43848" lon="5.45071">
        <ele>1084.8</ele>
        <time>2023-07-24T06:53:59Z</time>
      </trkpt>
      <trkpt lat="44.43848" lon="5.45065">
        <ele>1084.5</ele>
        <time>2023-07-24T06:54:00Z</time>
      </trkpt>
      <trkpt lat="44.43847" lon="5.45061">
        <ele>1084.4</ele>
        <time>2023-07-24T06:54:01Z</time>
      </trkpt>
      <trkpt lat="44.43847" lon="5.45061">
        <ele>1084.4</ele>
        <time>2023-07-24T06:54:02Z</time>
      </trkpt>
      <trkpt lat="44.43847" lon="5.45061">
        <ele>1084.4</ele>
        <time>2023-07-24T06:54:03Z</time>
      </trkpt>
      <trkpt lat="44.43848" lon="5.4506">
        <ele>1084.4</ele>
        <time>2023-07-24T06:54:04Z</time>
      </trkpt>
      <trkpt lat="44.43848" lon="5.45059">
        <ele>1084.4</ele>
        <time>2023-07-24T06:54:05Z</time>
      </trkpt>
      <trkpt lat="44.43848" lon="5.45058">
        <ele>1084.3</ele>
        <time>2023-07-24T06:54:06Z</time>
      </trkpt>
      <trkpt lat="44.43848" lon="5.45057">
        <ele>1084.3</ele>
        <time>2023-07-24T06:54:07Z</time>
      </trkpt>
      <trkpt lat="44.43849" lon="5.45056">
        <ele>1084.3</ele>
        <time>2023-07-24T06:54:08Z</time>
      </trkpt>
      <trkpt lat="44.4385" lon="5.45052">
        <ele>1084.3</ele>
        <time>2023-07-24T06:54:09Z</time>
      </trkpt>
      <trkpt lat="44.4385" lon="5.45051">
        <ele>1084.3</ele>
        <time>2023-07-24T06:54:10Z</time>
      </trkpt>
      <trkpt lat="44.43853" lon="5.45047">
        <ele>1084.3</ele>
        <time>2023-07-24T06:54:11Z</time>
      </trkpt>
      <trkpt lat="44.43854" lon="5.45046">
        <ele>1084.2</ele>
        <time>2023-07-24T06:54:12Z</time>
      </trkpt>
      <trkpt lat="44.43857" lon="5.45046">
        <ele>1084.2</ele>
        <time>2023-07-24T06:54:13Z</time>
      </trkpt>
      <trkpt lat="44.4386" lon="5.45046">
        <ele>1084.1</ele>
        <time>2023-07-24T06:54:14Z</time>
      </trkpt>
      <trkpt lat="44.43863" lon="5.45047">
        <ele>1084</ele>
        <time>2023-07-24T06:54:15Z</time>
      </trkpt>
      <trkpt lat="44.43867" lon="5.45047">
        <ele>1083.9</ele>
        <time>2023-07-24T06:54:16Z</time>
      </trkpt>
      <trkpt lat="44.43871" lon="5.45048">
        <ele>1083.6</ele>
        <time>2023-07-24T06:54:17Z</time>
      </trkpt>
      <trkpt lat="44.43876" lon="5.45049">
        <ele>1083.3</ele>
        <time>2023-07-24T06:54:18Z</time>
      </trkpt>
      <trkpt lat="44.43881" lon="5.45051">
        <ele>1083</ele>
        <time>2023-07-24T06:54:19Z</time>
      </trkpt>
      <trkpt lat="44.43886" lon="5.45053">
        <ele>1082.7</ele>
        <time>2023-07-24T06:54:20Z</time>
      </trkpt>
      <trkpt lat="44.43892" lon="5.45054">
        <ele>1082.4</ele>
        <time>2023-07-24T06:54:21Z</time>
      </trkpt>
      <trkpt lat="44.43896" lon="5.45056">
        <ele>1082.1</ele>
        <time>2023-07-24T06:54:22Z</time>
      </trkpt>
      <trkpt lat="44.43901" lon="5.45058">
        <ele>1081.9</ele>
        <time>2023-07-24T06:54:23Z</time>
      </trkpt>
      <trkpt lat="44.43906" lon="5.4506">
        <ele>1081.7</ele>
        <time>2023-07-24T06:54:24Z</time>
      </trkpt>
      <trkpt lat="44.4391" lon="5.45062">
        <ele>1081.5</ele>
        <time>2023-07-24T06:54:25Z</time>
      </trkpt>
      <trkpt lat="44.43915" lon="5.45065">
        <ele>1081.3</ele>
        <time>2023-07-24T06:54:26Z</time>
      </trkpt>
      <trkpt lat="44.43919" lon="5.45068">
        <ele>1081.1</ele>
        <time>2023-07-24T06:54:27Z</time>
      </trkpt>
      <trkpt lat="44.43922" lon="5.4507">
        <ele>1080.9</ele>
        <time>2023-07-24T06:54:28Z</time>
      </trkpt>
      <trkpt lat="44.43926" lon="5.45073">
        <ele>1080.6</ele>
        <time>2023-07-24T06:54:29Z</time>
      </trkpt>
      <trkpt lat="44.43929" lon="5.45076">
        <ele>1080.2</ele>
        <time>2023-07-24T06:54:30Z</time>
      </trkpt>
      <trkpt lat="44.43932" lon="5.45079">
        <ele>1079.7</ele>
        <time>2023-07-24T06:54:31Z</time>
      </trkpt>
      <trkpt lat="44.43933" lon="5.4508">
        <ele>1079.5</ele>
        <time>2023-07-24T06:54:32Z</time>
      </trkpt>
      <trkpt lat="44.43935" lon="5.45083">
        <ele>1079</ele>
        <time>2023-07-24T06:54:33Z</time>
      </trkpt>
      <trkpt lat="44.43938" lon="5.45086">
        <ele>1078.3</ele>
        <time>2023-07-24T06:54:34Z</time>
      </trkpt>
      <trkpt lat="44.43941" lon="5.45089">
        <ele>1077.7</ele>
        <time>2023-07-24T06:54:35Z</time>
      </trkpt>
      <trkpt lat="44.43943" lon="5.45092">
        <ele>1077</ele>
        <time>2023-07-24T06:54:36Z</time>
      </trkpt>
      <trkpt lat="44.43945" lon="5.45096">
        <ele>1076.3</ele>
        <time>2023-07-24T06:54:37Z</time>
      </trkpt>
      <trkpt lat="44.43948" lon="5.45099">
        <ele>1075.7</ele>
        <time>2023-07-24T06:54:38Z</time>
      </trkpt>
      <trkpt lat="44.4395" lon="5.45103">
        <ele>1074.9</ele>
        <time>2023-07-24T06:54:39Z</time>
      </trkpt>
      <trkpt lat="44.43951" lon="5.45104">
        <ele>1074.7</ele>
        <time>2023-07-24T06:54:40Z</time>
      </trkpt>
      <trkpt lat="44.43951" lon="5.45106">
        <ele>1074.3</ele>
        <time>2023-07-24T06:54:41Z</time>
      </trkpt>
      <trkpt lat="44.43952" lon="5.45108">
        <ele>1074</ele>
        <time>2023-07-24T06:54:42Z</time>
      </trkpt>
      <trkpt lat="44.43954" lon="5.45109">
        <ele>1073.6</ele>
        <time>2023-07-24T06:54:43Z</time>
      </trkpt>
      <trkpt lat="44.43955" lon="5.45109">
        <ele>1073.2</ele>
        <time>2023-07-24T06:54:44Z</time>
      </trkpt>
      <trkpt lat="44.43958" lon="5.45105">
        <ele>1072.3</ele>
        <time>2023-07-24T06:54:45Z</time>
      </trkpt>
      <trkpt lat="44.43958" lon="5.45103">
        <ele>1072.3</ele>
        <time>2023-07-24T06:54:46Z</time>
      </trkpt>
      <trkpt lat="44.43959" lon="5.45098">
        <ele>1072.4</ele>
        <time>2023-07-24T06:54:47Z</time>
      </trkpt>
      <trkpt lat="44.43959" lon="5.45095">
        <ele>1072.4</ele>
        <time>2023-07-24T06:54:48Z</time>
      </trkpt>
      <trkpt lat="44.43959" lon="5.45091">
        <ele>1072.5</ele>
        <time>2023-07-24T06:54:49Z</time>
      </trkpt>
      <trkpt lat="44.43959" lon="5.45086">
        <ele>1072.6</ele>
        <time>2023-07-24T06:54:50Z</time>
      </trkpt>
      <trkpt lat="44.43959" lon="5.45081">
        <ele>1072.6</ele>
        <time>2023-07-24T06:54:51Z</time>
      </trkpt>
      <trkpt lat="44.4396" lon="5.45077">
        <ele>1072.7</ele>
        <time>2023-07-24T06:54:52Z</time>
      </trkpt>
      <trkpt lat="44.4396" lon="5.45073">
        <ele>1072.9</ele>
        <time>2023-07-24T06:54:53Z</time>
      </trkpt>
      <trkpt lat="44.4396" lon="5.45069">
        <ele>1073</ele>
        <time>2023-07-24T06:54:54Z</time>
      </trkpt>
      <trkpt lat="44.43959" lon="5.45065">
        <ele>1073.1</ele>
        <time>2023-07-24T06:54:55Z</time>
      </trkpt>
      <trkpt lat="44.43959" lon="5.45061">
        <ele>1073.2</ele>
        <time>2023-07-24T06:54:56Z</time>
      </trkpt>
      <trkpt lat="44.43959" lon="5.45057">
        <ele>1073.4</ele>
        <time>2023-07-24T06:54:57Z</time>
      </trkpt>
      <trkpt lat="44.43958" lon="5.45053">
        <ele>1073.5</ele>
        <time>2023-07-24T06:54:58Z</time>
      </trkpt>
      <trkpt lat="44.43958" lon="5.45049">
        <ele>1073.6</ele>
        <time>2023-07-24T06:54:59Z</time>
      </trkpt>
      <trkpt lat="44.43957" lon="5.45045">
        <ele>1073.7</ele>
        <time>2023-07-24T06:55:00Z</time>
      </trkpt>
      <trkpt lat="44.43957" lon="5.45041">
        <ele>1073.9</ele>
        <time>2023-07-24T06:55:01Z</time>
      </trkpt>
      <trkpt lat="44.43956" lon="5.45036">
        <ele>1074</ele>
        <time>2023-07-24T06:55:02Z</time>
      </trkpt>
      <trkpt lat="44.43956" lon="5.45032">
        <ele>1074.2</ele>
        <time>2023-07-24T06:55:03Z</time>
      </trkpt>
      <trkpt lat="44.43955" lon="5.45028">
        <ele>1074.3</ele>
        <time>2023-07-24T06:55:04Z</time>
      </trkpt>
      <trkpt lat="44.43954" lon="5.45024">
        <ele>1074.4</ele>
        <time>2023-07-24T06:55:05Z</time>
      </trkpt>
      <trkpt lat="44.43954" lon="5.4502">
        <ele>1074.6</ele>
        <time>2023-07-24T06:55:06Z</time>
      </trkpt>
      <trkpt lat="44.43953" lon="5.45015">
        <ele>1074.7</ele>
        <time>2023-07-24T06:55:07Z</time>
      </trkpt>
      <trkpt lat="44.43953" lon="5.4501">
        <ele>1074.9</ele>
        <time>2023-07-24T06:55:08Z</time>
      </trkpt>
      <trkpt lat="44.43952" lon="5.45005">
        <ele>1075</ele>
        <time>2023-07-24T06:55:09Z</time>
      </trkpt>
      <trkpt lat="44.43952" lon="5.45001">
        <ele>1075.2</ele>
        <time>2023-07-24T06:55:10Z</time>
      </trkpt>
      <trkpt lat="44.43952" lon="5.44996">
        <ele>1075.3</ele>
        <time>2023-07-24T06:55:11Z</time>
      </trkpt>
      <trkpt lat="44.43953" lon="5.44992">
        <ele>1075.4</ele>
        <time>2023-07-24T06:55:12Z</time>
      </trkpt>
      <trkpt lat="44.43953" lon="5.44987">
        <ele>1075.5</ele>
        <time>2023-07-24T06:55:13Z</time>
      </trkpt>
      <trkpt lat="44.43954" lon="5.44983">
        <ele>1075.6</ele>
        <time>2023-07-24T06:55:14Z</time>
      </trkpt>
      <trkpt lat="44.43956" lon="5.44979">
        <ele>1075.7</ele>
        <time>2023-07-24T06:55:15Z</time>
      </trkpt>
      <trkpt lat="44.43957" lon="5.44976">
        <ele>1075.8</ele>
        <time>2023-07-24T06:55:16Z</time>
      </trkpt>
      <trkpt lat="44.43959" lon="5.44972">
        <ele>1075.9</ele>
        <time>2023-07-24T06:55:17Z</time>
      </trkpt>
      <trkpt lat="44.43961" lon="5.44969">
        <ele>1076</ele>
        <time>2023-07-24T06:55:18Z</time>
      </trkpt>
      <trkpt lat="44.43963" lon="5.44965">
        <ele>1076.2</ele>
        <time>2023-07-24T06:55:19Z</time>
      </trkpt>
      <trkpt lat="44.43966" lon="5.44961">
        <ele>1076.3</ele>
        <time>2023-07-24T06:55:20Z</time>
      </trkpt>
      <trkpt lat="44.4397" lon="5.44958">
        <ele>1076.5</ele>
        <time>2023-07-24T06:55:21Z</time>
      </trkpt>
      <trkpt lat="44.43972" lon="5.44954">
        <ele>1076.7</ele>
        <time>2023-07-24T06:55:22Z</time>
      </trkpt>
      <trkpt lat="44.43975" lon="5.44952">
        <ele>1076.8</ele>
        <time>2023-07-24T06:55:23Z</time>
      </trkpt>
      <trkpt lat="44.43978" lon="5.44949">
        <ele>1077</ele>
        <time>2023-07-24T06:55:24Z</time>
      </trkpt>
      <trkpt lat="44.43981" lon="5.44946">
        <ele>1077.1</ele>
        <time>2023-07-24T06:55:25Z</time>
      </trkpt>
      <trkpt lat="44.43984" lon="5.44943">
        <ele>1077.2</ele>
        <time>2023-07-24T06:55:26Z</time>
      </trkpt>
      <trkpt lat="44.43987" lon="5.4494">
        <ele>1077.4</ele>
        <time>2023-07-24T06:55:27Z</time>
      </trkpt>
      <trkpt lat="44.43989" lon="5.44937">
        <ele>1077.5</ele>
        <time>2023-07-24T06:55:28Z</time>
      </trkpt>
      <trkpt lat="44.43992" lon="5.44933">
        <ele>1077.7</ele>
        <time>2023-07-24T06:55:29Z</time>
      </trkpt>
      <trkpt lat="44.43995" lon="5.4493">
        <ele>1077.8</ele>
        <time>2023-07-24T06:55:30Z</time>
      </trkpt>
      <trkpt lat="44.43998" lon="5.44926">
        <ele>1078</ele>
        <time>2023-07-24T06:55:31Z</time>
      </trkpt>
      <trkpt lat="44.44001" lon="5.44922">
        <ele>1078.2</ele>
        <time>2023-07-24T06:55:32Z</time>
      </trkpt>
      <trkpt lat="44.44004" lon="5.44919">
        <ele>1078.3</ele>
        <time>2023-07-24T06:55:33Z</time>
      </trkpt>
      <trkpt lat="44.44007" lon="5.44917">
        <ele>1078.4</ele>
        <time>2023-07-24T06:55:34Z</time>
      </trkpt>
      <trkpt lat="44.4401" lon="5.44914">
        <ele>1078.6</ele>
        <time>2023-07-24T06:55:35Z</time>
      </trkpt>
      <trkpt lat="44.44013" lon="5.44912">
        <ele>1078.7</ele>
        <time>2023-07-24T06:55:36Z</time>
      </trkpt>
      <trkpt lat="44.44016" lon="5.4491">
        <ele>1078.8</ele>
        <time>2023-07-24T06:55:37Z</time>
      </trkpt>
      <trkpt lat="44.4402" lon="5.44908">
        <ele>1079</ele>
        <time>2023-07-24T06:55:38Z</time>
      </trkpt>
      <trkpt lat="44.44023" lon="5.44905">
        <ele>1079.2</ele>
        <time>2023-07-24T06:55:39Z</time>
      </trkpt>
      <trkpt lat="44.44026" lon="5.44902">
        <ele>1079.3</ele>
        <time>2023-07-24T06:55:40Z</time>
      </trkpt>
      <trkpt lat="44.44029" lon="5.449">
        <ele>1079.5</ele>
        <time>2023-07-24T06:55:41Z</time>
      </trkpt>
      <trkpt lat="44.44032" lon="5.44897">
        <ele>1079.7</ele>
        <time>2023-07-24T06:55:42Z</time>
      </trkpt>
      <trkpt lat="44.44034" lon="5.44894">
        <ele>1079.8</ele>
        <time>2023-07-24T06:55:43Z</time>
      </trkpt>
      <trkpt lat="44.44037" lon="5.44891">
        <ele>1080</ele>
        <time>2023-07-24T06:55:44Z</time>
      </trkpt>
      <trkpt lat="44.4404" lon="5.44888">
        <ele>1080.2</ele>
        <time>2023-07-24T06:55:45Z</time>
      </trkpt>
      <trkpt lat="44.44042" lon="5.44885">
        <ele>1080.4</ele>
        <time>2023-07-24T06:55:46Z</time>
      </trkpt>
      <trkpt lat="44.44045" lon="5.44882">
        <ele>1080.7</ele>
        <time>2023-07-24T06:55:47Z</time>
      </trkpt>
      <trkpt lat="44.44048" lon="5.44879">
        <ele>1080.9</ele>
        <time>2023-07-24T06:55:48Z</time>
      </trkpt>
      <trkpt lat="44.44051" lon="5.44875">
        <ele>1081.1</ele>
        <time>2023-07-24T06:55:49Z</time>
      </trkpt>
      <trkpt lat="44.44053" lon="5.44872">
        <ele>1081.3</ele>
        <time>2023-07-24T06:55:50Z</time>
      </trkpt>
      <trkpt lat="44.44056" lon="5.44869">
        <ele>1081.5</ele>
        <time>2023-07-24T06:55:51Z</time>
      </trkpt>
      <trkpt lat="44.44057" lon="5.44865">
        <ele>1081.6</ele>
        <time>2023-07-24T06:55:52Z</time>
      </trkpt>
      <trkpt lat="44.44059" lon="5.4486">
        <ele>1081.8</ele>
        <time>2023-07-24T06:55:53Z</time>
      </trkpt>
      <trkpt lat="44.44061" lon="5.44856">
        <ele>1082</ele>
        <time>2023-07-24T06:55:54Z</time>
      </trkpt>
      <trkpt lat="44.44062" lon="5.44852">
        <ele>1082.1</ele>
        <time>2023-07-24T06:55:55Z</time>
      </trkpt>
      <trkpt lat="44.44063" lon="5.44847">
        <ele>1082.3</ele>
        <time>2023-07-24T06:55:56Z</time>
      </trkpt>
      <trkpt lat="44.44064" lon="5.44843">
        <ele>1082.4</ele>
        <time>2023-07-24T06:55:57Z</time>
      </trkpt>
      <trkpt lat="44.44064" lon="5.44839">
        <ele>1082.5</ele>
        <time>2023-07-24T06:55:58Z</time>
      </trkpt>
      <trkpt lat="44.44065" lon="5.44834">
        <ele>1082.7</ele>
        <time>2023-07-24T06:55:59Z</time>
      </trkpt>
      <trkpt lat="44.44066" lon="5.4483">
        <ele>1082.8</ele>
        <time>2023-07-24T06:56:00Z</time>
      </trkpt>
      <trkpt lat="44.44066" lon="5.44825">
        <ele>1082.9</ele>
        <time>2023-07-24T06:56:01Z</time>
      </trkpt>
      <trkpt lat="44.44067" lon="5.44821">
        <ele>1083.1</ele>
        <time>2023-07-24T06:56:02Z</time>
      </trkpt>
      <trkpt lat="44.44068" lon="5.44816">
        <ele>1083.2</ele>
        <time>2023-07-24T06:56:03Z</time>
      </trkpt>
      <trkpt lat="44.44068" lon="5.44812">
        <ele>1083.3</ele>
        <time>2023-07-24T06:56:04Z</time>
      </trkpt>
      <trkpt lat="44.44068" lon="5.44807">
        <ele>1083.4</ele>
        <time>2023-07-24T06:56:05Z</time>
      </trkpt>
      <trkpt lat="44.44068" lon="5.44802">
        <ele>1083.5</ele>
        <time>2023-07-24T06:56:06Z</time>
      </trkpt>
      <trkpt lat="44.44068" lon="5.448">
        <ele>1083.5</ele>
        <time>2023-07-24T06:56:07Z</time>
      </trkpt>
      <trkpt lat="44.44068" lon="5.44796">
        <ele>1083.5</ele>
        <time>2023-07-24T06:56:08Z</time>
      </trkpt>
      <trkpt lat="44.44068" lon="5.44792">
        <ele>1083.6</ele>
        <time>2023-07-24T06:56:09Z</time>
      </trkpt>
      <trkpt lat="44.44067" lon="5.44788">
        <ele>1083.6</ele>
        <time>2023-07-24T06:56:10Z</time>
      </trkpt>
      <trkpt lat="44.44067" lon="5.44787">
        <ele>1083.7</ele>
        <time>2023-07-24T06:56:11Z</time>
      </trkpt>
      <trkpt lat="44.44065" lon="5.44783">
        <ele>1083.7</ele>
        <time>2023-07-24T06:56:12Z</time>
      </trkpt>
      <trkpt lat="44.44065" lon="5.44782">
        <ele>1083.7</ele>
        <time>2023-07-24T06:56:13Z</time>
      </trkpt>
      <trkpt lat="44.44063" lon="5.44778">
        <ele>1083.7</ele>
        <time>2023-07-24T06:56:14Z</time>
      </trkpt>
      <trkpt lat="44.44062" lon="5.44777">
        <ele>1083.7</ele>
        <time>2023-07-24T06:56:15Z</time>
      </trkpt>
      <trkpt lat="44.4406" lon="5.44772">
        <ele>1083.7</ele>
        <time>2023-07-24T06:56:16Z</time>
      </trkpt>
      <trkpt lat="44.44059" lon="5.44771">
        <ele>1083.7</ele>
        <time>2023-07-24T06:56:17Z</time>
      </trkpt>
      <trkpt lat="44.44057" lon="5.44767">
        <ele>1083.7</ele>
        <time>2023-07-24T06:56:18Z</time>
      </trkpt>
      <trkpt lat="44.44054" lon="5.44763">
        <ele>1083.7</ele>
        <time>2023-07-24T06:56:19Z</time>
      </trkpt>
      <trkpt lat="44.44051" lon="5.44759">
        <ele>1083.6</ele>
        <time>2023-07-24T06:56:20Z</time>
      </trkpt>
      <trkpt lat="44.44047" lon="5.44754">
        <ele>1083.6</ele>
        <time>2023-07-24T06:56:21Z</time>
      </trkpt>
      <trkpt lat="44.44044" lon="5.44749">
        <ele>1083.4</ele>
        <time>2023-07-24T06:56:22Z</time>
      </trkpt>
      <trkpt lat="44.4404" lon="5.44744">
        <ele>1083.3</ele>
        <time>2023-07-24T06:56:23Z</time>
      </trkpt>
      <trkpt lat="44.44036" lon="5.44739">
        <ele>1083.1</ele>
        <time>2023-07-24T06:56:24Z</time>
      </trkpt>
      <trkpt lat="44.44031" lon="5.44734">
        <ele>1082.9</ele>
        <time>2023-07-24T06:56:25Z</time>
      </trkpt>
      <trkpt lat="44.44027" lon="5.44729">
        <ele>1082.7</ele>
        <time>2023-07-24T06:56:26Z</time>
      </trkpt>
      <trkpt lat="44.44022" lon="5.44723">
        <ele>1082.5</ele>
        <time>2023-07-24T06:56:27Z</time>
      </trkpt>
      <trkpt lat="44.44018" lon="5.44717">
        <ele>1082.3</ele>
        <time>2023-07-24T06:56:28Z</time>
      </trkpt>
      <trkpt lat="44.44014" lon="5.44711">
        <ele>1082.1</ele>
        <time>2023-07-24T06:56:29Z</time>
      </trkpt>
      <trkpt lat="44.4401" lon="5.44703">
        <ele>1081.8</ele>
        <time>2023-07-24T06:56:30Z</time>
      </trkpt>
      <trkpt lat="44.44007" lon="5.44695">
        <ele>1081.6</ele>
        <time>2023-07-24T06:56:31Z</time>
      </trkpt>
      <trkpt lat="44.44004" lon="5.44686">
        <ele>1081.3</ele>
        <time>2023-07-24T06:56:32Z</time>
      </trkpt>
      <trkpt lat="44.44001" lon="5.44677">
        <ele>1081.1</ele>
        <time>2023-07-24T06:56:33Z</time>
      </trkpt>
      <trkpt lat="44.43999" lon="5.44667">
        <ele>1080.9</ele>
        <time>2023-07-24T06:56:34Z</time>
      </trkpt>
      <trkpt lat="44.43997" lon="5.44657">
        <ele>1080.7</ele>
        <time>2023-07-24T06:56:35Z</time>
      </trkpt>
      <trkpt lat="44.43997" lon="5.44646">
        <ele>1080.5</ele>
        <time>2023-07-24T06:56:36Z</time>
      </trkpt>
      <trkpt lat="44.43996" lon="5.44626">
        <ele>1080.1</ele>
        <time>2023-07-24T06:56:38Z</time>
      </trkpt>
      <trkpt lat="44.43995" lon="5.44616">
        <ele>1079.9</ele>
        <time>2023-07-24T06:56:39Z</time>
      </trkpt>
      <trkpt lat="44.43994" lon="5.44607">
        <ele>1079.6</ele>
        <time>2023-07-24T06:56:40Z</time>
      </trkpt>
      <trkpt lat="44.43992" lon="5.44598">
        <ele>1079.3</ele>
        <time>2023-07-24T06:56:41Z</time>
      </trkpt>
      <trkpt lat="44.43991" lon="5.44587">
        <ele>1079</ele>
        <time>2023-07-24T06:56:42Z</time>
      </trkpt>
      <trkpt lat="44.43992" lon="5.44576">
        <ele>1078.8</ele>
        <time>2023-07-24T06:56:43Z</time>
      </trkpt>
      <trkpt lat="44.43994" lon="5.44566">
        <ele>1078.6</ele>
        <time>2023-07-24T06:56:44Z</time>
      </trkpt>
      <trkpt lat="44.43997" lon="5.44557">
        <ele>1078.4</ele>
        <time>2023-07-24T06:56:45Z</time>
      </trkpt>
      <trkpt lat="44.44001" lon="5.44548">
        <ele>1078.3</ele>
        <time>2023-07-24T06:56:46Z</time>
      </trkpt>
      <trkpt lat="44.44005" lon="5.4454">
        <ele>1078.2</ele>
        <time>2023-07-24T06:56:47Z</time>
      </trkpt>
      <trkpt lat="44.44009" lon="5.44532">
        <ele>1078.1</ele>
        <time>2023-07-24T06:56:48Z</time>
      </trkpt>
      <trkpt lat="44.44013" lon="5.44523">
        <ele>1078.1</ele>
        <time>2023-07-24T06:56:49Z</time>
      </trkpt>
      <trkpt lat="44.44018" lon="5.44516">
        <ele>1078.1</ele>
        <time>2023-07-24T06:56:50Z</time>
      </trkpt>
      <trkpt lat="44.44024" lon="5.4451">
        <ele>1078.1</ele>
        <time>2023-07-24T06:56:51Z</time>
      </trkpt>
      <trkpt lat="44.44029" lon="5.44506">
        <ele>1078.2</ele>
        <time>2023-07-24T06:56:52Z</time>
      </trkpt>
      <trkpt lat="44.44034" lon="5.44501">
        <ele>1078.3</ele>
        <time>2023-07-24T06:56:53Z</time>
      </trkpt>
      <trkpt lat="44.44038" lon="5.44496">
        <ele>1078.5</ele>
        <time>2023-07-24T06:56:54Z</time>
      </trkpt>
      <trkpt lat="44.44042" lon="5.44491">
        <ele>1078.6</ele>
        <time>2023-07-24T06:56:55Z</time>
      </trkpt>
      <trkpt lat="44.44046" lon="5.44485">
        <ele>1078.9</ele>
        <time>2023-07-24T06:56:56Z</time>
      </trkpt>
      <trkpt lat="44.44048" lon="5.44479">
        <ele>1079.1</ele>
        <time>2023-07-24T06:56:57Z</time>
      </trkpt>
      <trkpt lat="44.44051" lon="5.44471">
        <ele>1079.4</ele>
        <time>2023-07-24T06:56:58Z</time>
      </trkpt>
      <trkpt lat="44.44053" lon="5.44464">
        <ele>1079.6</ele>
        <time>2023-07-24T06:56:59Z</time>
      </trkpt>
      <trkpt lat="44.44054" lon="5.44456">
        <ele>1079.9</ele>
        <time>2023-07-24T06:57:00Z</time>
      </trkpt>
      <trkpt lat="44.44056" lon="5.44449">
        <ele>1080.1</ele>
        <time>2023-07-24T06:57:01Z</time>
      </trkpt>
      <trkpt lat="44.44056" lon="5.44442">
        <ele>1080.3</ele>
        <time>2023-07-24T06:57:02Z</time>
      </trkpt>
      <trkpt lat="44.44056" lon="5.44434">
        <ele>1080.6</ele>
        <time>2023-07-24T06:57:03Z</time>
      </trkpt>
      <trkpt lat="44.44055" lon="5.44427">
        <ele>1080.8</ele>
        <time>2023-07-24T06:57:04Z</time>
      </trkpt>
      <trkpt lat="44.44055" lon="5.44422">
        <ele>1081</ele>
        <time>2023-07-24T06:57:05Z</time>
      </trkpt>
      <trkpt lat="44.44056" lon="5.44416">
        <ele>1081.2</ele>
        <time>2023-07-24T06:57:06Z</time>
      </trkpt>
      <trkpt lat="44.44057" lon="5.4441">
        <ele>1081.4</ele>
        <time>2023-07-24T06:57:07Z</time>
      </trkpt>
      <trkpt lat="44.44058" lon="5.44404">
        <ele>1081.6</ele>
        <time>2023-07-24T06:57:08Z</time>
      </trkpt>
      <trkpt lat="44.4406" lon="5.44398">
        <ele>1081.8</ele>
        <time>2023-07-24T06:57:09Z</time>
      </trkpt>
      <trkpt lat="44.44062" lon="5.44393">
        <ele>1082</ele>
        <time>2023-07-24T06:57:10Z</time>
      </trkpt>
      <trkpt lat="44.44063" lon="5.44388">
        <ele>1082.1</ele>
        <time>2023-07-24T06:57:11Z</time>
      </trkpt>
      <trkpt lat="44.44064" lon="5.44383">
        <ele>1082.3</ele>
        <time>2023-07-24T06:57:12Z</time>
      </trkpt>
      <trkpt lat="44.44065" lon="5.44379">
        <ele>1082.5</ele>
        <time>2023-07-24T06:57:13Z</time>
      </trkpt>
      <trkpt lat="44.44067" lon="5.44374">
        <ele>1082.7</ele>
        <time>2023-07-24T06:57:14Z</time>
      </trkpt>
      <trkpt lat="44.44069" lon="5.44368">
        <ele>1083.1</ele>
        <time>2023-07-24T06:57:15Z</time>
      </trkpt>
      <trkpt lat="44.44069" lon="5.44363">
        <ele>1083.3</ele>
        <time>2023-07-24T06:57:16Z</time>
      </trkpt>
      <trkpt lat="44.44071" lon="5.44359">
        <ele>1083.5</ele>
        <time>2023-07-24T06:57:17Z</time>
      </trkpt>
      <trkpt lat="44.44072" lon="5.44355">
        <ele>1083.7</ele>
        <time>2023-07-24T06:57:18Z</time>
      </trkpt>
      <trkpt lat="44.44074" lon="5.4435">
        <ele>1083.7</ele>
        <time>2023-07-24T06:57:19Z</time>
      </trkpt>
      <trkpt lat="44.44074" lon="5.44348">
        <ele>1083.8</ele>
        <time>2023-07-24T06:57:20Z</time>
      </trkpt>
      <trkpt lat="44.44075" lon="5.44346">
        <ele>1083.8</ele>
        <time>2023-07-24T06:57:21Z</time>
      </trkpt>
      <trkpt lat="44.44076" lon="5.44344">
        <ele>1083.7</ele>
        <time>2023-07-24T06:57:22Z</time>
      </trkpt>
      <trkpt lat="44.44077" lon="5.44343">
        <ele>1083.7</ele>
        <time>2023-07-24T06:57:23Z</time>
      </trkpt>
      <trkpt lat="44.44077" lon="5.44343">
        <ele>1083.7</ele>
        <time>2023-07-24T06:57:24Z</time>
      </trkpt>
      <trkpt lat="44.44077" lon="5.44343">
        <ele>1083.7</ele>
        <time>2023-07-24T06:57:25Z</time>
      </trkpt>
      <trkpt lat="44.44077" lon="5.44342">
        <ele>1083.7</ele>
        <time>2023-07-24T06:57:26Z</time>
      </trkpt>
      <trkpt lat="44.44077" lon="5.44342">
        <ele>1083.7</ele>
        <time>2023-07-24T06:57:27Z</time>
      </trkpt>
      <trkpt lat="44.44077" lon="5.44342">
        <ele>1083.7</ele>
        <time>2023-07-24T06:57:28Z</time>
      </trkpt>
      <trkpt lat="44.44077" lon="5.44342">
        <ele>1083.7</ele>
        <time>2023-07-24T06:57:29Z</time>
      </trkpt>
      <trkpt lat="44.44077" lon="5.44341">
        <ele>1083.7</ele>
        <time>2023-07-24T06:57:30Z</time>
      </trkpt>
      <trkpt lat="44.44077" lon="5.44341">
        <ele>1083.7</ele>
        <time>2023-07-24T06:57:31Z</time>
      </trkpt>
      <trkpt lat="44.44078" lon="5.44341">
        <ele>1083.7</ele>
        <time>2023-07-24T06:57:32Z</time>
      </trkpt>
      <trkpt lat="44.44078" lon="5.44341">
        <ele>1083.7</ele>
        <time>2023-07-24T06:57:33Z</time>
      </trkpt>
      <trkpt lat="44.44078" lon="5.4434">
        <ele>1083.7</ele>
        <time>2023-07-24T06:57:34Z</time>
      </trkpt>
      <trkpt lat="44.44078" lon="5.4434">
        <ele>1083.7</ele>
        <time>2023-07-24T06:57:35Z</time>
      </trkpt>
      <trkpt lat="44.44078" lon="5.4434">
        <ele>1083.7</ele>
        <time>2023-07-24T06:57:36Z</time>
      </trkpt>
      <trkpt lat="44.44078" lon="5.44334">
        <ele>1083.6</ele>
        <time>2023-07-24T06:57:37Z</time>
      </trkpt>
      <trkpt lat="44.44078" lon="5.44332">
        <ele>1083.6</ele>
        <time>2023-07-24T06:57:38Z</time>
      </trkpt>
      <trkpt lat="44.44078" lon="5.44328">
        <ele>1083.5</ele>
        <time>2023-07-24T06:57:39Z</time>
      </trkpt>
      <trkpt lat="44.44078" lon="5.44323">
        <ele>1083.4</ele>
        <time>2023-07-24T06:57:40Z</time>
      </trkpt>
      <trkpt lat="44.44078" lon="5.44319">
        <ele>1083.4</ele>
        <time>2023-07-24T06:57:41Z</time>
      </trkpt>
      <trkpt lat="44.44077" lon="5.44314">
        <ele>1083.3</ele>
        <time>2023-07-24T06:57:42Z</time>
      </trkpt>
      <trkpt lat="44.44077" lon="5.44309">
        <ele>1083.3</ele>
        <time>2023-07-24T06:57:43Z</time>
      </trkpt>
      <trkpt lat="44.44076" lon="5.44304">
        <ele>1083.2</ele>
        <time>2023-07-24T06:57:44Z</time>
      </trkpt>
      <trkpt lat="44.44076" lon="5.44299">
        <ele>1083.2</ele>
        <time>2023-07-24T06:57:45Z</time>
      </trkpt>
      <trkpt lat="44.44076" lon="5.44293">
        <ele>1083.1</ele>
        <time>2023-07-24T06:57:46Z</time>
      </trkpt>
      <trkpt lat="44.44076" lon="5.44288">
        <ele>1083.1</ele>
        <time>2023-07-24T06:57:47Z</time>
      </trkpt>
      <trkpt lat="44.44076" lon="5.44283">
        <ele>1083</ele>
        <time>2023-07-24T06:57:48Z</time>
      </trkpt>
      <trkpt lat="44.44077" lon="5.44278">
        <ele>1083</ele>
        <time>2023-07-24T06:57:49Z</time>
      </trkpt>
      <trkpt lat="44.44079" lon="5.44273">
        <ele>1083</ele>
        <time>2023-07-24T06:57:50Z</time>
      </trkpt>
      <trkpt lat="44.44082" lon="5.44267">
        <ele>1082.9</ele>
        <time>2023-07-24T06:57:51Z</time>
      </trkpt>
      <trkpt lat="44.44084" lon="5.4426">
        <ele>1082.8</ele>
        <time>2023-07-24T06:57:52Z</time>
      </trkpt>
      <trkpt lat="44.44087" lon="5.44255">
        <ele>1082.8</ele>
        <time>2023-07-24T06:57:53Z</time>
      </trkpt>
      <trkpt lat="44.44089" lon="5.44249">
        <ele>1082.7</ele>
        <time>2023-07-24T06:57:54Z</time>
      </trkpt>
      <trkpt lat="44.44091" lon="5.44243">
        <ele>1082.7</ele>
        <time>2023-07-24T06:57:55Z</time>
      </trkpt>
      <trkpt lat="44.44094" lon="5.44237">
        <ele>1082.7</ele>
        <time>2023-07-24T06:57:56Z</time>
      </trkpt>
      <trkpt lat="44.44097" lon="5.44232">
        <ele>1082.7</ele>
        <time>2023-07-24T06:57:57Z</time>
      </trkpt>
      <trkpt lat="44.44101" lon="5.44228">
        <ele>1082.8</ele>
        <time>2023-07-24T06:57:58Z</time>
      </trkpt>
      <trkpt lat="44.44104" lon="5.44225">
        <ele>1082.8</ele>
        <time>2023-07-24T06:57:59Z</time>
      </trkpt>
      <trkpt lat="44.44107" lon="5.44223">
        <ele>1082.9</ele>
        <time>2023-07-24T06:58:00Z</time>
      </trkpt>
      <trkpt lat="44.44111" lon="5.4422">
        <ele>1083.1</ele>
        <time>2023-07-24T06:58:01Z</time>
      </trkpt>
      <trkpt lat="44.44115" lon="5.44216">
        <ele>1083.2</ele>
        <time>2023-07-24T06:58:02Z</time>
      </trkpt>
      <trkpt lat="44.44118" lon="5.44213">
        <ele>1083.3</ele>
        <time>2023-07-24T06:58:03Z</time>
      </trkpt>
      <trkpt lat="44.44122" lon="5.4421">
        <ele>1082.9</ele>
        <time>2023-07-24T06:58:04Z</time>
      </trkpt>
      <trkpt lat="44.44126" lon="5.44207">
        <ele>1082.6</ele>
        <time>2023-07-24T06:58:05Z</time>
      </trkpt>
      <trkpt lat="44.4413" lon="5.44204">
        <ele>1082.4</ele>
        <time>2023-07-24T06:58:06Z</time>
      </trkpt>
      <trkpt lat="44.44134" lon="5.44201">
        <ele>1082.2</ele>
        <time>2023-07-24T06:58:07Z</time>
      </trkpt>
      <trkpt lat="44.44138" lon="5.44197">
        <ele>1082</ele>
        <time>2023-07-24T06:58:08Z</time>
      </trkpt>
      <trkpt lat="44.44141" lon="5.44194">
        <ele>1081.9</ele>
        <time>2023-07-24T06:58:09Z</time>
      </trkpt>
      <trkpt lat="44.44145" lon="5.4419">
        <ele>1081.7</ele>
        <time>2023-07-24T06:58:10Z</time>
      </trkpt>
      <trkpt lat="44.44148" lon="5.44188">
        <ele>1081.6</ele>
        <time>2023-07-24T06:58:11Z</time>
      </trkpt>
      <trkpt lat="44.44151" lon="5.44185">
        <ele>1081.5</ele>
        <time>2023-07-24T06:58:12Z</time>
      </trkpt>
      <trkpt lat="44.44154" lon="5.44182">
        <ele>1081.3</ele>
        <time>2023-07-24T06:58:13Z</time>
      </trkpt>
      <trkpt lat="44.44158" lon="5.44179">
        <ele>1081.1</ele>
        <time>2023-07-24T06:58:14Z</time>
      </trkpt>
      <trkpt lat="44.44161" lon="5.44175">
        <ele>1080.8</ele>
        <time>2023-07-24T06:58:15Z</time>
      </trkpt>
      <trkpt lat="44.44164" lon="5.44171">
        <ele>1080.5</ele>
        <time>2023-07-24T06:58:16Z</time>
      </trkpt>
      <trkpt lat="44.44166" lon="5.44167">
        <ele>1080.2</ele>
        <time>2023-07-24T06:58:17Z</time>
      </trkpt>
      <trkpt lat="44.4417" lon="5.44162">
        <ele>1079.8</ele>
        <time>2023-07-24T06:58:18Z</time>
      </trkpt>
      <trkpt lat="44.44174" lon="5.44158">
        <ele>1079.3</ele>
        <time>2023-07-24T06:58:19Z</time>
      </trkpt>
      <trkpt lat="44.44178" lon="5.44154">
        <ele>1078.9</ele>
        <time>2023-07-24T06:58:20Z</time>
      </trkpt>
      <trkpt lat="44.44183" lon="5.44151">
        <ele>1078.5</ele>
        <time>2023-07-24T06:58:21Z</time>
      </trkpt>
      <trkpt lat="44.44188" lon="5.44148">
        <ele>1078.1</ele>
        <time>2023-07-24T06:58:22Z</time>
      </trkpt>
      <trkpt lat="44.44192" lon="5.44145">
        <ele>1077.8</ele>
        <time>2023-07-24T06:58:23Z</time>
      </trkpt>
      <trkpt lat="44.44197" lon="5.44144">
        <ele>1077.6</ele>
        <time>2023-07-24T06:58:24Z</time>
      </trkpt>
      <trkpt lat="44.44202" lon="5.44143">
        <ele>1077.3</ele>
        <time>2023-07-24T06:58:25Z</time>
      </trkpt>
      <trkpt lat="44.44206" lon="5.44142">
        <ele>1077</ele>
        <time>2023-07-24T06:58:26Z</time>
      </trkpt>
      <trkpt lat="44.44211" lon="5.4414">
        <ele>1076.8</ele>
        <time>2023-07-24T06:58:27Z</time>
      </trkpt>
      <trkpt lat="44.44215" lon="5.44138">
        <ele>1076.5</ele>
        <time>2023-07-24T06:58:28Z</time>
      </trkpt>
      <trkpt lat="44.4422" lon="5.44136">
        <ele>1076.2</ele>
        <time>2023-07-24T06:58:29Z</time>
      </trkpt>
      <trkpt lat="44.44225" lon="5.44135">
        <ele>1075.8</ele>
        <time>2023-07-24T06:58:30Z</time>
      </trkpt>
      <trkpt lat="44.4423" lon="5.44133">
        <ele>1075.5</ele>
        <time>2023-07-24T06:58:31Z</time>
      </trkpt>
      <trkpt lat="44.44234" lon="5.44131">
        <ele>1075.1</ele>
        <time>2023-07-24T06:58:32Z</time>
      </trkpt>
      <trkpt lat="44.44239" lon="5.44128">
        <ele>1074.8</ele>
        <time>2023-07-24T06:58:33Z</time>
      </trkpt>
      <trkpt lat="44.44243" lon="5.44125">
        <ele>1074.4</ele>
        <time>2023-07-24T06:58:34Z</time>
      </trkpt>
      <trkpt lat="44.44247" lon="5.44122">
        <ele>1074</ele>
        <time>2023-07-24T06:58:35Z</time>
      </trkpt>
      <trkpt lat="44.44252" lon="5.44118">
        <ele>1073.5</ele>
        <time>2023-07-24T06:58:36Z</time>
      </trkpt>
      <trkpt lat="44.44257" lon="5.44114">
        <ele>1073</ele>
        <time>2023-07-24T06:58:37Z</time>
      </trkpt>
      <trkpt lat="44.44261" lon="5.44108">
        <ele>1072.4</ele>
        <time>2023-07-24T06:58:38Z</time>
      </trkpt>
      <trkpt lat="44.44265" lon="5.44102">
        <ele>1071.7</ele>
        <time>2023-07-24T06:58:39Z</time>
      </trkpt>
      <trkpt lat="44.44269" lon="5.44094">
        <ele>1071.1</ele>
        <time>2023-07-24T06:58:40Z</time>
      </trkpt>
      <trkpt lat="44.44272" lon="5.44087">
        <ele>1070.4</ele>
        <time>2023-07-24T06:58:41Z</time>
      </trkpt>
      <trkpt lat="44.44275" lon="5.44079">
        <ele>1069.7</ele>
        <time>2023-07-24T06:58:42Z</time>
      </trkpt>
      <trkpt lat="44.44279" lon="5.44071">
        <ele>1069</ele>
        <time>2023-07-24T06:58:43Z</time>
      </trkpt>
      <trkpt lat="44.44282" lon="5.44063">
        <ele>1068.3</ele>
        <time>2023-07-24T06:58:44Z</time>
      </trkpt>
      <trkpt lat="44.44285" lon="5.44056">
        <ele>1067.7</ele>
        <time>2023-07-24T06:58:45Z</time>
      </trkpt>
      <trkpt lat="44.44288" lon="5.44048">
        <ele>1067</ele>
        <time>2023-07-24T06:58:46Z</time>
      </trkpt>
      <trkpt lat="44.4429" lon="5.4404">
        <ele>1066.3</ele>
        <time>2023-07-24T06:58:47Z</time>
      </trkpt>
      <trkpt lat="44.44293" lon="5.44032">
        <ele>1065.4</ele>
        <time>2023-07-24T06:58:48Z</time>
      </trkpt>
      <trkpt lat="44.44296" lon="5.44023">
        <ele>1064.5</ele>
        <time>2023-07-24T06:58:49Z</time>
      </trkpt>
      <trkpt lat="44.443" lon="5.44014">
        <ele>1063.6</ele>
        <time>2023-07-24T06:58:50Z</time>
      </trkpt>
      <trkpt lat="44.44303" lon="5.44006">
        <ele>1062.8</ele>
        <time>2023-07-24T06:58:51Z</time>
      </trkpt>
      <trkpt lat="44.44306" lon="5.43998">
        <ele>1062</ele>
        <time>2023-07-24T06:58:52Z</time>
      </trkpt>
      <trkpt lat="44.44309" lon="5.4399">
        <ele>1061.2</ele>
        <time>2023-07-24T06:58:53Z</time>
      </trkpt>
      <trkpt lat="44.44312" lon="5.43982">
        <ele>1060.5</ele>
        <time>2023-07-24T06:58:54Z</time>
      </trkpt>
      <trkpt lat="44.44315" lon="5.43975">
        <ele>1059.8</ele>
        <time>2023-07-24T06:58:55Z</time>
      </trkpt>
      <trkpt lat="44.44318" lon="5.43968">
        <ele>1059.1</ele>
        <time>2023-07-24T06:58:56Z</time>
      </trkpt>
      <trkpt lat="44.44321" lon="5.43959">
        <ele>1058.4</ele>
        <time>2023-07-24T06:58:57Z</time>
      </trkpt>
      <trkpt lat="44.44323" lon="5.43951">
        <ele>1057.7</ele>
        <time>2023-07-24T06:58:58Z</time>
      </trkpt>
      <trkpt lat="44.44325" lon="5.43943">
        <ele>1057</ele>
        <time>2023-07-24T06:58:59Z</time>
      </trkpt>
      <trkpt lat="44.44328" lon="5.43935">
        <ele>1056.3</ele>
        <time>2023-07-24T06:59:00Z</time>
      </trkpt>
      <trkpt lat="44.4433" lon="5.43927">
        <ele>1055.7</ele>
        <time>2023-07-24T06:59:01Z</time>
      </trkpt>
      <trkpt lat="44.44331" lon="5.4392">
        <ele>1055</ele>
        <time>2023-07-24T06:59:02Z</time>
      </trkpt>
      <trkpt lat="44.44332" lon="5.43912">
        <ele>1054.3</ele>
        <time>2023-07-24T06:59:03Z</time>
      </trkpt>
      <trkpt lat="44.44334" lon="5.43904">
        <ele>1053.6</ele>
        <time>2023-07-24T06:59:04Z</time>
      </trkpt>
      <trkpt lat="44.44335" lon="5.43896">
        <ele>1052.9</ele>
        <time>2023-07-24T06:59:05Z</time>
      </trkpt>
      <trkpt lat="44.44336" lon="5.43889">
        <ele>1052.2</ele>
        <time>2023-07-24T06:59:06Z</time>
      </trkpt>
      <trkpt lat="44.44337" lon="5.43882">
        <ele>1051.5</ele>
        <time>2023-07-24T06:59:07Z</time>
      </trkpt>
      <trkpt lat="44.44338" lon="5.43875">
        <ele>1050.8</ele>
        <time>2023-07-24T06:59:08Z</time>
      </trkpt>
      <trkpt lat="44.44339" lon="5.43869">
        <ele>1050.2</ele>
        <time>2023-07-24T06:59:09Z</time>
      </trkpt>
      <trkpt lat="44.4434" lon="5.43864">
        <ele>1049.7</ele>
        <time>2023-07-24T06:59:10Z</time>
      </trkpt>
      <trkpt lat="44.44341" lon="5.43859">
        <ele>1049.3</ele>
        <time>2023-07-24T06:59:11Z</time>
      </trkpt>
      <trkpt lat="44.44342" lon="5.43856">
        <ele>1049</ele>
        <time>2023-07-24T06:59:12Z</time>
      </trkpt>
      <trkpt lat="44.44343" lon="5.43851">
        <ele>1048.5</ele>
        <time>2023-07-24T06:59:13Z</time>
      </trkpt>
      <trkpt lat="44.44343" lon="5.43849">
        <ele>1048.3</ele>
        <time>2023-07-24T06:59:14Z</time>
      </trkpt>
      <trkpt lat="44.44344" lon="5.43845">
        <ele>1048</ele>
        <time>2023-07-24T06:59:15Z</time>
      </trkpt>
      <trkpt lat="44.44346" lon="5.43841">
        <ele>1047.5</ele>
        <time>2023-07-24T06:59:16Z</time>
      </trkpt>
      <trkpt lat="44.44349" lon="5.43838">
        <ele>1047.1</ele>
        <time>2023-07-24T06:59:17Z</time>
      </trkpt>
      <trkpt lat="44.44352" lon="5.43838">
        <ele>1046.8</ele>
        <time>2023-07-24T06:59:18Z</time>
      </trkpt>
      <trkpt lat="44.44355" lon="5.43837">
        <ele>1046.4</ele>
        <time>2023-07-24T06:59:19Z</time>
      </trkpt>
      <trkpt lat="44.44358" lon="5.43838">
        <ele>1046</ele>
        <time>2023-07-24T06:59:20Z</time>
      </trkpt>
      <trkpt lat="44.44361" lon="5.43838">
        <ele>1045.6</ele>
        <time>2023-07-24T06:59:21Z</time>
      </trkpt>
      <trkpt lat="44.44362" lon="5.43837">
        <ele>1045.5</ele>
        <time>2023-07-24T06:59:22Z</time>
      </trkpt>
      <trkpt lat="44.44362" lon="5.43836">
        <ele>1045.4</ele>
        <time>2023-07-24T06:59:23Z</time>
      </trkpt>
      <trkpt lat="44.44362" lon="5.43835">
        <ele>1045.3</ele>
        <time>2023-07-24T06:59:24Z</time>
      </trkpt>
      <trkpt lat="44.44361" lon="5.43834">
        <ele>1045.2</ele>
        <time>2023-07-24T06:59:25Z</time>
      </trkpt>
      <trkpt lat="44.44361" lon="5.43834">
        <ele>1045.1</ele>
        <time>2023-07-24T06:59:26Z</time>
      </trkpt>
      <trkpt lat="44.4436" lon="5.43833">
        <ele>1045.1</ele>
        <time>2023-07-24T06:59:27Z</time>
      </trkpt>
      <trkpt lat="44.4436" lon="5.43834">
        <ele>1045</ele>
        <time>2023-07-24T06:59:28Z</time>
      </trkpt>
      <trkpt lat="44.4436" lon="5.43834">
        <ele>1045</ele>
        <time>2023-07-24T06:59:29Z</time>
      </trkpt>
      <trkpt lat="44.44361" lon="5.43835">
        <ele>1045</ele>
        <time>2023-07-24T06:59:30Z</time>
      </trkpt>
      <trkpt lat="44.4436" lon="5.43835">
        <ele>1044.9</ele>
        <time>2023-07-24T06:59:31Z</time>
      </trkpt>
      <trkpt lat="44.4436" lon="5.43835">
        <ele>1044.9</ele>
        <time>2023-07-24T06:59:32Z</time>
      </trkpt>
      <trkpt lat="44.44361" lon="5.43836">
        <ele>1044.8</ele>
        <time>2023-07-24T06:59:33Z</time>
      </trkpt>
      <trkpt lat="44.44361" lon="5.43836">
        <ele>1044.8</ele>
        <time>2023-07-24T06:59:34Z</time>
      </trkpt>
      <trkpt lat="44.44361" lon="5.43835">
        <ele>1044.8</ele>
        <time>2023-07-24T06:59:35Z</time>
      </trkpt>
      <trkpt lat="44.44361" lon="5.43835">
        <ele>1044.7</ele>
        <time>2023-07-24T06:59:36Z</time>
      </trkpt>
      <trkpt lat="44.4436" lon="5.43834">
        <ele>1044.6</ele>
        <time>2023-07-24T06:59:37Z</time>
      </trkpt>
      <trkpt lat="44.4436" lon="5.43833">
        <ele>1044.6</ele>
        <time>2023-07-24T06:59:38Z</time>
      </trkpt>
      <trkpt lat="44.4436" lon="5.43833">
        <ele>1044.5</ele>
        <time>2023-07-24T06:59:39Z</time>
      </trkpt>
      <trkpt lat="44.4436" lon="5.43833">
        <ele>1044.5</ele>
        <time>2023-07-24T06:59:40Z</time>
      </trkpt>
      <trkpt lat="44.4436" lon="5.43833">
        <ele>1044.5</ele>
        <time>2023-07-24T06:59:41Z</time>
      </trkpt>
      <trkpt lat="44.4436" lon="5.43834">
        <ele>1044.5</ele>
        <time>2023-07-24T06:59:42Z</time>
      </trkpt>
      <trkpt lat="44.44361" lon="5.43835">
        <ele>1044.4</ele>
        <time>2023-07-24T06:59:43Z</time>
      </trkpt>
      <trkpt lat="44.44361" lon="5.43835">
        <ele>1044.3</ele>
        <time>2023-07-24T06:59:44Z</time>
      </trkpt>
      <trkpt lat="44.44362" lon="5.43835">
        <ele>1044.2</ele>
        <time>2023-07-24T06:59:45Z</time>
      </trkpt>
      <trkpt lat="44.44362" lon="5.43836">
        <ele>1044.2</ele>
        <time>2023-07-24T06:59:46Z</time>
      </trkpt>
      <trkpt lat="44.44362" lon="5.43836">
        <ele>1044.1</ele>
        <time>2023-07-24T06:59:47Z</time>
      </trkpt>
      <trkpt lat="44.44362" lon="5.43835">
        <ele>1044.1</ele>
        <time>2023-07-24T06:59:48Z</time>
      </trkpt>
      <trkpt lat="44.44362" lon="5.43834">
        <ele>1044</ele>
        <time>2023-07-24T06:59:49Z</time>
      </trkpt>
      <trkpt lat="44.44362" lon="5.43832">
        <ele>1043.9</ele>
        <time>2023-07-24T06:59:50Z</time>
      </trkpt>
      <trkpt lat="44.44362" lon="5.43831">
        <ele>1043.8</ele>
        <time>2023-07-24T06:59:51Z</time>
      </trkpt>
      <trkpt lat="44.44361" lon="5.4383">
        <ele>1043.7</ele>
        <time>2023-07-24T06:59:52Z</time>
      </trkpt>
      <trkpt lat="44.44361" lon="5.43829">
        <ele>1043.6</ele>
        <time>2023-07-24T06:59:53Z</time>
      </trkpt>
      <trkpt lat="44.44361" lon="5.43828">
        <ele>1043.5</ele>
        <time>2023-07-24T06:59:55Z</time>
      </trkpt>
      <trkpt lat="44.44361" lon="5.43826">
        <ele>1043.4</ele>
        <time>2023-07-24T06:59:56Z</time>
      </trkpt>
      <trkpt lat="44.44361" lon="5.43825">
        <ele>1043.3</ele>
        <time>2023-07-24T07:04:03Z</time>
      </trkpt>
      <trkpt lat="44.44361" lon="5.43824">
        <ele>1043.2</ele>
        <time>2023-07-24T07:04:04Z</time>
      </trkpt>
      <trkpt lat="44.4436" lon="5.43823">
        <ele>1043.1</ele>
        <time>2023-07-24T07:04:05Z</time>
      </trkpt>
      <trkpt lat="44.44362" lon="5.43819">
        <ele>1043</ele>
        <time>2023-07-24T07:04:06Z</time>
      </trkpt>
      <trkpt lat="44.44363" lon="5.43814">
        <ele>1042.8</ele>
        <time>2023-07-24T07:04:07Z</time>
      </trkpt>
      <trkpt lat="44.44364" lon="5.4381">
        <ele>1042.7</ele>
        <time>2023-07-24T07:04:08Z</time>
      </trkpt>
      <trkpt lat="44.44365" lon="5.43805">
        <ele>1042.5</ele>
        <time>2023-07-24T07:04:09Z</time>
      </trkpt>
      <trkpt lat="44.44366" lon="5.43798">
        <ele>1042.3</ele>
        <time>2023-07-24T07:04:10Z</time>
      </trkpt>
      <trkpt lat="44.44368" lon="5.43791">
        <ele>1042</ele>
        <time>2023-07-24T07:04:11Z</time>
      </trkpt>
      <trkpt lat="44.44369" lon="5.43784">
        <ele>1041.7</ele>
        <time>2023-07-24T07:04:12Z</time>
      </trkpt>
      <trkpt lat="44.44371" lon="5.43778">
        <ele>1041.3</ele>
        <time>2023-07-24T07:04:13Z</time>
      </trkpt>
      <trkpt lat="44.44373" lon="5.43772">
        <ele>1041</ele>
        <time>2023-07-24T07:04:14Z</time>
      </trkpt>
      <trkpt lat="44.44374" lon="5.43767">
        <ele>1040.7</ele>
        <time>2023-07-24T07:04:15Z</time>
      </trkpt>
      <trkpt lat="44.44375" lon="5.43762">
        <ele>1040.4</ele>
        <time>2023-07-24T07:04:16Z</time>
      </trkpt>
      <trkpt lat="44.44376" lon="5.43757">
        <ele>1040.1</ele>
        <time>2023-07-24T07:04:17Z</time>
      </trkpt>
      <trkpt lat="44.44378" lon="5.43751">
        <ele>1039.7</ele>
        <time>2023-07-24T07:04:18Z</time>
      </trkpt>
      <trkpt lat="44.4438" lon="5.43746">
        <ele>1039.4</ele>
        <time>2023-07-24T07:04:19Z</time>
      </trkpt>
      <trkpt lat="44.44382" lon="5.4374">
        <ele>1038.9</ele>
        <time>2023-07-24T07:04:20Z</time>
      </trkpt>
      <trkpt lat="44.44385" lon="5.43734">
        <ele>1038.5</ele>
        <time>2023-07-24T07:04:21Z</time>
      </trkpt>
      <trkpt lat="44.44388" lon="5.43729">
        <ele>1038.1</ele>
        <time>2023-07-24T07:04:22Z</time>
      </trkpt>
      <trkpt lat="44.44391" lon="5.43723">
        <ele>1037.7</ele>
        <time>2023-07-24T07:04:23Z</time>
      </trkpt>
      <trkpt lat="44.44394" lon="5.43718">
        <ele>1037.4</ele>
        <time>2023-07-24T07:04:24Z</time>
      </trkpt>
      <trkpt lat="44.44396" lon="5.43712">
        <ele>1037</ele>
        <time>2023-07-24T07:04:25Z</time>
      </trkpt>
      <trkpt lat="44.44399" lon="5.43707">
        <ele>1036.6</ele>
        <time>2023-07-24T07:04:26Z</time>
      </trkpt>
      <trkpt lat="44.44401" lon="5.43702">
        <ele>1036.3</ele>
        <time>2023-07-24T07:04:27Z</time>
      </trkpt>
      <trkpt lat="44.44403" lon="5.43697">
        <ele>1035.9</ele>
        <time>2023-07-24T07:04:28Z</time>
      </trkpt>
      <trkpt lat="44.44404" lon="5.43692">
        <ele>1035.6</ele>
        <time>2023-07-24T07:04:29Z</time>
      </trkpt>
      <trkpt lat="44.44407" lon="5.43687">
        <ele>1035.2</ele>
        <time>2023-07-24T07:04:30Z</time>
      </trkpt>
      <trkpt lat="44.4441" lon="5.43683">
        <ele>1034.8</ele>
        <time>2023-07-24T07:04:31Z</time>
      </trkpt>
      <trkpt lat="44.44414" lon="5.43679">
        <ele>1034.3</ele>
        <time>2023-07-24T07:04:32Z</time>
      </trkpt>
      <trkpt lat="44.44417" lon="5.43676">
        <ele>1033.9</ele>
        <time>2023-07-24T07:04:33Z</time>
      </trkpt>
      <trkpt lat="44.44421" lon="5.43673">
        <ele>1033.5</ele>
        <time>2023-07-24T07:04:34Z</time>
      </trkpt>
      <trkpt lat="44.44426" lon="5.43669">
        <ele>1033</ele>
        <time>2023-07-24T07:04:35Z</time>
      </trkpt>
      <trkpt lat="44.44431" lon="5.43665">
        <ele>1032.5</ele>
        <time>2023-07-24T07:04:36Z</time>
      </trkpt>
      <trkpt lat="44.44436" lon="5.43659">
        <ele>1032</ele>
        <time>2023-07-24T07:04:37Z</time>
      </trkpt>
      <trkpt lat="44.44441" lon="5.43653">
        <ele>1031.3</ele>
        <time>2023-07-24T07:04:38Z</time>
      </trkpt>
      <trkpt lat="44.44447" lon="5.43647">
        <ele>1030.5</ele>
        <time>2023-07-24T07:04:39Z</time>
      </trkpt>
      <trkpt lat="44.44453" lon="5.43642">
        <ele>1029.7</ele>
        <time>2023-07-24T07:04:40Z</time>
      </trkpt>
      <trkpt lat="44.44459" lon="5.43636">
        <ele>1028.8</ele>
        <time>2023-07-24T07:04:41Z</time>
      </trkpt>
      <trkpt lat="44.44465" lon="5.43631">
        <ele>1027.9</ele>
        <time>2023-07-24T07:04:42Z</time>
      </trkpt>
      <trkpt lat="44.4447" lon="5.43624">
        <ele>1027</ele>
        <time>2023-07-24T07:04:43Z</time>
      </trkpt>
      <trkpt lat="44.44474" lon="5.43616">
        <ele>1026.3</ele>
        <time>2023-07-24T07:04:44Z</time>
      </trkpt>
      <trkpt lat="44.44477" lon="5.43608">
        <ele>1025.7</ele>
        <time>2023-07-24T07:04:45Z</time>
      </trkpt>
      <trkpt lat="44.4448" lon="5.43598">
        <ele>1025</ele>
        <time>2023-07-24T07:04:46Z</time>
      </trkpt>
      <trkpt lat="44.44482" lon="5.43589">
        <ele>1024.3</ele>
        <time>2023-07-24T07:04:47Z</time>
      </trkpt>
      <trkpt lat="44.44485" lon="5.43581">
        <ele>1023.7</ele>
        <time>2023-07-24T07:04:48Z</time>
      </trkpt>
      <trkpt lat="44.44489" lon="5.43574">
        <ele>1023.1</ele>
        <time>2023-07-24T07:04:49Z</time>
      </trkpt>
      <trkpt lat="44.44493" lon="5.43568">
        <ele>1022.6</ele>
        <time>2023-07-24T07:04:50Z</time>
      </trkpt>
      <trkpt lat="44.44498" lon="5.43564">
        <ele>1022.1</ele>
        <time>2023-07-24T07:04:51Z</time>
      </trkpt>
      <trkpt lat="44.44503" lon="5.4356">
        <ele>1021.6</ele>
        <time>2023-07-24T07:04:52Z</time>
      </trkpt>
      <trkpt lat="44.44507" lon="5.43556">
        <ele>1021.2</ele>
        <time>2023-07-24T07:04:53Z</time>
      </trkpt>
      <trkpt lat="44.44511" lon="5.43551">
        <ele>1020.9</ele>
        <time>2023-07-24T07:04:54Z</time>
      </trkpt>
      <trkpt lat="44.44516" lon="5.43547">
        <ele>1020.5</ele>
        <time>2023-07-24T07:04:55Z</time>
      </trkpt>
      <trkpt lat="44.4452" lon="5.43544">
        <ele>1020.1</ele>
        <time>2023-07-24T07:04:56Z</time>
      </trkpt>
      <trkpt lat="44.44523" lon="5.43541">
        <ele>1019.9</ele>
        <time>2023-07-24T07:04:57Z</time>
      </trkpt>
      <trkpt lat="44.44524" lon="5.43537">
        <ele>1019.6</ele>
        <time>2023-07-24T07:04:58Z</time>
      </trkpt>
      <trkpt lat="44.44524" lon="5.43532">
        <ele>1019.4</ele>
        <time>2023-07-24T07:04:59Z</time>
      </trkpt>
      <trkpt lat="44.44522" lon="5.43527">
        <ele>1019.1</ele>
        <time>2023-07-24T07:05:00Z</time>
      </trkpt>
      <trkpt lat="44.44519" lon="5.43526">
        <ele>1018.8</ele>
        <time>2023-07-24T07:05:01Z</time>
      </trkpt>
      <trkpt lat="44.44516" lon="5.43526">
        <ele>1018.6</ele>
        <time>2023-07-24T07:05:02Z</time>
      </trkpt>
      <trkpt lat="44.44513" lon="5.43528">
        <ele>1018.3</ele>
        <time>2023-07-24T07:05:03Z</time>
      </trkpt>
      <trkpt lat="44.4451" lon="5.43532">
        <ele>1018.1</ele>
        <time>2023-07-24T07:05:04Z</time>
      </trkpt>
      <trkpt lat="44.44507" lon="5.43535">
        <ele>1017.9</ele>
        <time>2023-07-24T07:05:05Z</time>
      </trkpt>
      <trkpt lat="44.44504" lon="5.43539">
        <ele>1017.8</ele>
        <time>2023-07-24T07:05:06Z</time>
      </trkpt>
      <trkpt lat="44.445" lon="5.43543">
        <ele>1017.6</ele>
        <time>2023-07-24T07:05:07Z</time>
      </trkpt>
      <trkpt lat="44.44497" lon="5.43547">
        <ele>1017.5</ele>
        <time>2023-07-24T07:05:08Z</time>
      </trkpt>
      <trkpt lat="44.44493" lon="5.4355">
        <ele>1017.4</ele>
        <time>2023-07-24T07:05:09Z</time>
      </trkpt>
      <trkpt lat="44.4449" lon="5.43554">
        <ele>1017.3</ele>
        <time>2023-07-24T07:05:10Z</time>
      </trkpt>
      <trkpt lat="44.44486" lon="5.43558">
        <ele>1017.1</ele>
        <time>2023-07-24T07:05:11Z</time>
      </trkpt>
      <trkpt lat="44.44482" lon="5.43561">
        <ele>1017</ele>
        <time>2023-07-24T07:05:12Z</time>
      </trkpt>
      <trkpt lat="44.44478" lon="5.43566">
        <ele>1016.8</ele>
        <time>2023-07-24T07:05:13Z</time>
      </trkpt>
      <trkpt lat="44.44473" lon="5.43569">
        <ele>1016.7</ele>
        <time>2023-07-24T07:05:14Z</time>
      </trkpt>
      <trkpt lat="44.44468" lon="5.43573">
        <ele>1016.6</ele>
        <time>2023-07-24T07:05:15Z</time>
      </trkpt>
      <trkpt lat="44.44464" lon="5.43576">
        <ele>1016.4</ele>
        <time>2023-07-24T07:05:16Z</time>
      </trkpt>
      <trkpt lat="44.4446" lon="5.43578">
        <ele>1016.3</ele>
        <time>2023-07-24T07:05:17Z</time>
      </trkpt>
      <trkpt lat="44.44457" lon="5.43581">
        <ele>1016.3</ele>
        <time>2023-07-24T07:05:18Z</time>
      </trkpt>
      <trkpt lat="44.44453" lon="5.43583">
        <ele>1016.2</ele>
        <time>2023-07-24T07:05:19Z</time>
      </trkpt>
      <trkpt lat="44.44449" lon="5.43587">
        <ele>1016</ele>
        <time>2023-07-24T07:05:20Z</time>
      </trkpt>
      <trkpt lat="44.44441" lon="5.43595">
        <ele>1015.7</ele>
        <time>2023-07-24T07:05:22Z</time>
      </trkpt>
      <trkpt lat="44.44437" lon="5.43599">
        <ele>1015.5</ele>
        <time>2023-07-24T07:05:23Z</time>
      </trkpt>
      <trkpt lat="44.44433" lon="5.43602">
        <ele>1015.3</ele>
        <time>2023-07-24T07:05:24Z</time>
      </trkpt>
      <trkpt lat="44.44428" lon="5.43605">
        <ele>1015</ele>
        <time>2023-07-24T07:05:25Z</time>
      </trkpt>
      <trkpt lat="44.44423" lon="5.43607">
        <ele>1014.8</ele>
        <time>2023-07-24T07:05:26Z</time>
      </trkpt>
      <trkpt lat="44.44419" lon="5.4361">
        <ele>1014.5</ele>
        <time>2023-07-24T07:05:27Z</time>
      </trkpt>
      <trkpt lat="44.44414" lon="5.43612">
        <ele>1014.3</ele>
        <time>2023-07-24T07:05:28Z</time>
      </trkpt>
      <trkpt lat="44.44408" lon="5.43615">
        <ele>1014</ele>
        <time>2023-07-24T07:05:29Z</time>
      </trkpt>
      <trkpt lat="44.44403" lon="5.43619">
        <ele>1013.7</ele>
        <time>2023-07-24T07:05:30Z</time>
      </trkpt>
      <trkpt lat="44.44398" lon="5.43624">
        <ele>1013.3</ele>
        <time>2023-07-24T07:05:31Z</time>
      </trkpt>
      <trkpt lat="44.44393" lon="5.43628">
        <ele>1013</ele>
        <time>2023-07-24T07:05:32Z</time>
      </trkpt>
      <trkpt lat="44.44389" lon="5.43632">
        <ele>1012.5</ele>
        <time>2023-07-24T07:05:33Z</time>
      </trkpt>
      <trkpt lat="44.44384" lon="5.43636">
        <ele>1012</ele>
        <time>2023-07-24T07:05:34Z</time>
      </trkpt>
      <trkpt lat="44.44379" lon="5.43642">
        <ele>1011.5</ele>
        <time>2023-07-24T07:05:35Z</time>
      </trkpt>
      <trkpt lat="44.44374" lon="5.43648">
        <ele>1010.9</ele>
        <time>2023-07-24T07:05:36Z</time>
      </trkpt>
      <trkpt lat="44.44369" lon="5.43655">
        <ele>1010.5</ele>
        <time>2023-07-24T07:05:37Z</time>
      </trkpt>
      <trkpt lat="44.44364" lon="5.43661">
        <ele>1010.2</ele>
        <time>2023-07-24T07:05:38Z</time>
      </trkpt>
      <trkpt lat="44.4436" lon="5.43666">
        <ele>1009.9</ele>
        <time>2023-07-24T07:05:39Z</time>
      </trkpt>
      <trkpt lat="44.44355" lon="5.43671">
        <ele>1009.6</ele>
        <time>2023-07-24T07:05:40Z</time>
      </trkpt>
      <trkpt lat="44.44351" lon="5.43676">
        <ele>1009.2</ele>
        <time>2023-07-24T07:05:41Z</time>
      </trkpt>
      <trkpt lat="44.44346" lon="5.43681">
        <ele>1008.7</ele>
        <time>2023-07-24T07:05:42Z</time>
      </trkpt>
      <trkpt lat="44.44341" lon="5.43686">
        <ele>1008.2</ele>
        <time>2023-07-24T07:05:43Z</time>
      </trkpt>
      <trkpt lat="44.44336" lon="5.43691">
        <ele>1007.9</ele>
        <time>2023-07-24T07:05:44Z</time>
      </trkpt>
      <trkpt lat="44.44331" lon="5.43695">
        <ele>1007.6</ele>
        <time>2023-07-24T07:05:45Z</time>
      </trkpt>
      <trkpt lat="44.44327" lon="5.43698">
        <ele>1007.4</ele>
        <time>2023-07-24T07:05:46Z</time>
      </trkpt>
      <trkpt lat="44.44322" lon="5.437">
        <ele>1007.2</ele>
        <time>2023-07-24T07:05:47Z</time>
      </trkpt>
      <trkpt lat="44.44317" lon="5.43703">
        <ele>1007</ele>
        <time>2023-07-24T07:05:48Z</time>
      </trkpt>
      <trkpt lat="44.44313" lon="5.43705">
        <ele>1006.8</ele>
        <time>2023-07-24T07:05:49Z</time>
      </trkpt>
      <trkpt lat="44.4431" lon="5.43706">
        <ele>1006.6</ele>
        <time>2023-07-24T07:05:50Z</time>
      </trkpt>
      <trkpt lat="44.44308" lon="5.43706">
        <ele>1006.4</ele>
        <time>2023-07-24T07:05:51Z</time>
      </trkpt>
      <trkpt lat="44.44304" lon="5.43703">
        <ele>1006.2</ele>
        <time>2023-07-24T07:05:52Z</time>
      </trkpt>
      <trkpt lat="44.44303" lon="5.43701">
        <ele>1006.1</ele>
        <time>2023-07-24T07:05:53Z</time>
      </trkpt>
      <trkpt lat="44.44301" lon="5.43694">
        <ele>1005.7</ele>
        <time>2023-07-24T07:05:54Z</time>
      </trkpt>
      <trkpt lat="44.443" lon="5.43687">
        <ele>1005.3</ele>
        <time>2023-07-24T07:05:55Z</time>
      </trkpt>
      <trkpt lat="44.44301" lon="5.43681">
        <ele>1005</ele>
        <time>2023-07-24T07:05:56Z</time>
      </trkpt>
      <trkpt lat="44.44303" lon="5.43677">
        <ele>1004.8</ele>
        <time>2023-07-24T07:05:57Z</time>
      </trkpt>
      <trkpt lat="44.44306" lon="5.43675">
        <ele>1004.6</ele>
        <time>2023-07-24T07:05:58Z</time>
      </trkpt>
      <trkpt lat="44.44307" lon="5.43675">
        <ele>1004.5</ele>
        <time>2023-07-24T07:05:59Z</time>
      </trkpt>
      <trkpt lat="44.44308" lon="5.43676">
        <ele>1004.5</ele>
        <time>2023-07-24T07:06:00Z</time>
      </trkpt>
      <trkpt lat="44.44308" lon="5.43676">
        <ele>1004.4</ele>
        <time>2023-07-24T07:06:01Z</time>
      </trkpt>
      <trkpt lat="44.44307" lon="5.43676">
        <ele>1004.3</ele>
        <time>2023-07-24T07:06:02Z</time>
      </trkpt>
      <trkpt lat="44.44307" lon="5.43676">
        <ele>1004.2</ele>
        <time>2023-07-24T07:06:03Z</time>
      </trkpt>
      <trkpt lat="44.44306" lon="5.43676">
        <ele>1004.1</ele>
        <time>2023-07-24T07:06:04Z</time>
      </trkpt>
      <trkpt lat="44.44306" lon="5.43676">
        <ele>1004.1</ele>
        <time>2023-07-24T07:06:05Z</time>
      </trkpt>
      <trkpt lat="44.44306" lon="5.43676">
        <ele>1004.1</ele>
        <time>2023-07-24T07:06:06Z</time>
      </trkpt>
      <trkpt lat="44.44306" lon="5.43676">
        <ele>1004.1</ele>
        <time>2023-07-24T07:06:07Z</time>
      </trkpt>
      <trkpt lat="44.44306" lon="5.43676">
        <ele>1004.1</ele>
        <time>2023-07-24T07:06:08Z</time>
      </trkpt>
      <trkpt lat="44.44306" lon="5.43676">
        <ele>1004.1</ele>
        <time>2023-07-24T07:06:09Z</time>
      </trkpt>
      <trkpt lat="44.44306" lon="5.43676">
        <ele>1004.1</ele>
        <time>2023-07-24T07:06:10Z</time>
      </trkpt>
      <trkpt lat="44.44306" lon="5.43676">
        <ele>1004.1</ele>
        <time>2023-07-24T07:06:11Z</time>
      </trkpt>
      <trkpt lat="44.44309" lon="5.43671">
        <ele>1003.4</ele>
        <time>2023-07-24T07:06:49Z</time>
      </trkpt>
      <trkpt lat="44.44311" lon="5.43668">
        <ele>1003</ele>
        <time>2023-07-24T07:06:50Z</time>
      </trkpt>
      <trkpt lat="44.44313" lon="5.43664">
        <ele>1002.5</ele>
        <time>2023-07-24T07:06:51Z</time>
      </trkpt>
      <trkpt lat="44.44315" lon="5.43661">
        <ele>1002</ele>
        <time>2023-07-24T07:06:52Z</time>
      </trkpt>
      <trkpt lat="44.44317" lon="5.43657">
        <ele>1001.5</ele>
        <time>2023-07-24T07:06:53Z</time>
      </trkpt>
      <trkpt lat="44.4432" lon="5.43652">
        <ele>1000.9</ele>
        <time>2023-07-24T07:06:54Z</time>
      </trkpt>
      <trkpt lat="44.44322" lon="5.43648">
        <ele>1000.3</ele>
        <time>2023-07-24T07:06:55Z</time>
      </trkpt>
      <trkpt lat="44.44323" lon="5.43643">
        <ele>999.8</ele>
        <time>2023-07-24T07:06:56Z</time>
      </trkpt>
      <trkpt lat="44.44324" lon="5.43638">
        <ele>999.3</ele>
        <time>2023-07-24T07:06:57Z</time>
      </trkpt>
      <trkpt lat="44.44325" lon="5.43634">
        <ele>998.7</ele>
        <time>2023-07-24T07:06:58Z</time>
      </trkpt>
      <trkpt lat="44.44325" lon="5.43629">
        <ele>998.2</ele>
        <time>2023-07-24T07:06:59Z</time>
      </trkpt>
      <trkpt lat="44.44326" lon="5.43624">
        <ele>997.7</ele>
        <time>2023-07-24T07:07:00Z</time>
      </trkpt>
      <trkpt lat="44.44326" lon="5.43618">
        <ele>997.1</ele>
        <time>2023-07-24T07:07:01Z</time>
      </trkpt>
      <trkpt lat="44.44326" lon="5.43612">
        <ele>996.4</ele>
        <time>2023-07-24T07:07:02Z</time>
      </trkpt>
      <trkpt lat="44.44325" lon="5.43606">
        <ele>995.6</ele>
        <time>2023-07-24T07:07:03Z</time>
      </trkpt>
      <trkpt lat="44.44323" lon="5.43601">
        <ele>995</ele>
        <time>2023-07-24T07:07:04Z</time>
      </trkpt>
      <trkpt lat="44.4432" lon="5.43597">
        <ele>994.3</ele>
        <time>2023-07-24T07:07:05Z</time>
      </trkpt>
      <trkpt lat="44.44316" lon="5.43593">
        <ele>993.7</ele>
        <time>2023-07-24T07:07:06Z</time>
      </trkpt>
      <trkpt lat="44.44313" lon="5.43591">
        <ele>993.1</ele>
        <time>2023-07-24T07:07:07Z</time>
      </trkpt>
      <trkpt lat="44.44309" lon="5.4359">
        <ele>992.5</ele>
        <time>2023-07-24T07:07:08Z</time>
      </trkpt>
      <trkpt lat="44.44305" lon="5.4359">
        <ele>992</ele>
        <time>2023-07-24T07:07:09Z</time>
      </trkpt>
      <trkpt lat="44.44302" lon="5.4359">
        <ele>991.4</ele>
        <time>2023-07-24T07:07:10Z</time>
      </trkpt>
      <trkpt lat="44.44298" lon="5.43591">
        <ele>990.9</ele>
        <time>2023-07-24T07:07:11Z</time>
      </trkpt>
      <trkpt lat="44.44294" lon="5.4359">
        <ele>990.3</ele>
        <time>2023-07-24T07:07:12Z</time>
      </trkpt>
      <trkpt lat="44.44291" lon="5.43589">
        <ele>989.9</ele>
        <time>2023-07-24T07:07:13Z</time>
      </trkpt>
      <trkpt lat="44.44288" lon="5.43587">
        <ele>989.4</ele>
        <time>2023-07-24T07:07:14Z</time>
      </trkpt>
      <trkpt lat="44.44286" lon="5.43582">
        <ele>988.8</ele>
        <time>2023-07-24T07:07:15Z</time>
      </trkpt>
      <trkpt lat="44.44286" lon="5.43576">
        <ele>988.3</ele>
        <time>2023-07-24T07:07:16Z</time>
      </trkpt>
      <trkpt lat="44.44286" lon="5.4357">
        <ele>987.7</ele>
        <time>2023-07-24T07:07:17Z</time>
      </trkpt>
      <trkpt lat="44.44287" lon="5.43564">
        <ele>987.1</ele>
        <time>2023-07-24T07:07:18Z</time>
      </trkpt>
      <trkpt lat="44.44289" lon="5.43558">
        <ele>986.4</ele>
        <time>2023-07-24T07:07:19Z</time>
      </trkpt>
      <trkpt lat="44.4429" lon="5.43551">
        <ele>985.7</ele>
        <time>2023-07-24T07:07:20Z</time>
      </trkpt>
      <trkpt lat="44.44292" lon="5.43545">
        <ele>985</ele>
        <time>2023-07-24T07:07:21Z</time>
      </trkpt>
      <trkpt lat="44.44293" lon="5.43539">
        <ele>984.3</ele>
        <time>2023-07-24T07:07:22Z</time>
      </trkpt>
      <trkpt lat="44.44294" lon="5.43533">
        <ele>983.6</ele>
        <time>2023-07-24T07:07:23Z</time>
      </trkpt>
      <trkpt lat="44.44293" lon="5.43526">
        <ele>983</ele>
        <time>2023-07-24T07:07:24Z</time>
      </trkpt>
      <trkpt lat="44.44293" lon="5.4352">
        <ele>982.2</ele>
        <time>2023-07-24T07:07:25Z</time>
      </trkpt>
      <trkpt lat="44.44292" lon="5.43513">
        <ele>981.4</ele>
        <time>2023-07-24T07:07:26Z</time>
      </trkpt>
      <trkpt lat="44.44291" lon="5.43505">
        <ele>980.7</ele>
        <time>2023-07-24T07:07:27Z</time>
      </trkpt>
      <trkpt lat="44.44291" lon="5.43498">
        <ele>979.8</ele>
        <time>2023-07-24T07:07:28Z</time>
      </trkpt>
      <trkpt lat="44.44292" lon="5.4349">
        <ele>979</ele>
        <time>2023-07-24T07:07:29Z</time>
      </trkpt>
      <trkpt lat="44.44293" lon="5.43483">
        <ele>978.3</ele>
        <time>2023-07-24T07:07:30Z</time>
      </trkpt>
      <trkpt lat="44.44293" lon="5.43477">
        <ele>977.6</ele>
        <time>2023-07-24T07:07:31Z</time>
      </trkpt>
      <trkpt lat="44.44293" lon="5.4347">
        <ele>976.8</ele>
        <time>2023-07-24T07:07:32Z</time>
      </trkpt>
      <trkpt lat="44.44293" lon="5.43463">
        <ele>976.1</ele>
        <time>2023-07-24T07:07:33Z</time>
      </trkpt>
      <trkpt lat="44.44292" lon="5.43456">
        <ele>975.3</ele>
        <time>2023-07-24T07:07:34Z</time>
      </trkpt>
      <trkpt lat="44.44291" lon="5.43449">
        <ele>974.5</ele>
        <time>2023-07-24T07:07:35Z</time>
      </trkpt>
      <trkpt lat="44.4429" lon="5.43443">
        <ele>973.7</ele>
        <time>2023-07-24T07:07:36Z</time>
      </trkpt>
      <trkpt lat="44.4429" lon="5.43436">
        <ele>972.9</ele>
        <time>2023-07-24T07:07:37Z</time>
      </trkpt>
      <trkpt lat="44.44289" lon="5.4343">
        <ele>972.1</ele>
        <time>2023-07-24T07:07:38Z</time>
      </trkpt>
      <trkpt lat="44.44289" lon="5.43425">
        <ele>971.3</ele>
        <time>2023-07-24T07:07:39Z</time>
      </trkpt>
      <trkpt lat="44.44289" lon="5.43419">
        <ele>970.6</ele>
        <time>2023-07-24T07:07:40Z</time>
      </trkpt>
      <trkpt lat="44.44288" lon="5.43414">
        <ele>969.9</ele>
        <time>2023-07-24T07:07:41Z</time>
      </trkpt>
      <trkpt lat="44.44287" lon="5.43409">
        <ele>969.2</ele>
        <time>2023-07-24T07:07:42Z</time>
      </trkpt>
      <trkpt lat="44.44285" lon="5.43404">
        <ele>968.4</ele>
        <time>2023-07-24T07:07:43Z</time>
      </trkpt>
      <trkpt lat="44.44283" lon="5.43398">
        <ele>967.6</ele>
        <time>2023-07-24T07:07:44Z</time>
      </trkpt>
      <trkpt lat="44.4428" lon="5.43391">
        <ele>966.7</ele>
        <time>2023-07-24T07:07:45Z</time>
      </trkpt>
      <trkpt lat="44.44279" lon="5.43384">
        <ele>965.8</ele>
        <time>2023-07-24T07:07:46Z</time>
      </trkpt>
      <trkpt lat="44.44278" lon="5.43376">
        <ele>964.8</ele>
        <time>2023-07-24T07:07:47Z</time>
      </trkpt>
      <trkpt lat="44.44277" lon="5.43367">
        <ele>963.7</ele>
        <time>2023-07-24T07:07:48Z</time>
      </trkpt>
      <trkpt lat="44.44277" lon="5.43358">
        <ele>962.6</ele>
        <time>2023-07-24T07:07:49Z</time>
      </trkpt>
      <trkpt lat="44.44277" lon="5.43349">
        <ele>961.6</ele>
        <time>2023-07-24T07:07:50Z</time>
      </trkpt>
      <trkpt lat="44.44277" lon="5.43341">
        <ele>960.7</ele>
        <time>2023-07-24T07:07:51Z</time>
      </trkpt>
      <trkpt lat="44.44276" lon="5.43334">
        <ele>959.9</ele>
        <time>2023-07-24T07:07:52Z</time>
      </trkpt>
      <trkpt lat="44.44274" lon="5.43327">
        <ele>959.1</ele>
        <time>2023-07-24T07:07:53Z</time>
      </trkpt>
      <trkpt lat="44.44271" lon="5.43322">
        <ele>958.4</ele>
        <time>2023-07-24T07:07:54Z</time>
      </trkpt>
      <trkpt lat="44.44268" lon="5.43317">
        <ele>957.7</ele>
        <time>2023-07-24T07:07:55Z</time>
      </trkpt>
      <trkpt lat="44.44265" lon="5.43313">
        <ele>957</ele>
        <time>2023-07-24T07:07:56Z</time>
      </trkpt>
      <trkpt lat="44.44262" lon="5.43309">
        <ele>956.2</ele>
        <time>2023-07-24T07:07:57Z</time>
      </trkpt>
      <trkpt lat="44.44259" lon="5.43305">
        <ele>955.5</ele>
        <time>2023-07-24T07:07:58Z</time>
      </trkpt>
      <trkpt lat="44.44256" lon="5.43301">
        <ele>954.9</ele>
        <time>2023-07-24T07:07:59Z</time>
      </trkpt>
      <trkpt lat="44.44254" lon="5.43297">
        <ele>954.3</ele>
        <time>2023-07-24T07:08:00Z</time>
      </trkpt>
      <trkpt lat="44.44253" lon="5.43292">
        <ele>953.8</ele>
        <time>2023-07-24T07:08:01Z</time>
      </trkpt>
      <trkpt lat="44.44253" lon="5.43286">
        <ele>953</ele>
        <time>2023-07-24T07:08:02Z</time>
      </trkpt>
      <trkpt lat="44.44253" lon="5.43278">
        <ele>952.2</ele>
        <time>2023-07-24T07:08:03Z</time>
      </trkpt>
      <trkpt lat="44.44254" lon="5.4327">
        <ele>951.2</ele>
        <time>2023-07-24T07:08:04Z</time>
      </trkpt>
      <trkpt lat="44.44254" lon="5.43261">
        <ele>950.1</ele>
        <time>2023-07-24T07:08:05Z</time>
      </trkpt>
      <trkpt lat="44.44254" lon="5.43252">
        <ele>949.1</ele>
        <time>2023-07-24T07:08:06Z</time>
      </trkpt>
      <trkpt lat="44.44254" lon="5.43244">
        <ele>948</ele>
        <time>2023-07-24T07:08:07Z</time>
      </trkpt>
      <trkpt lat="44.44254" lon="5.43235">
        <ele>947</ele>
        <time>2023-07-24T07:08:08Z</time>
      </trkpt>
      <trkpt lat="44.44254" lon="5.43226">
        <ele>945.9</ele>
        <time>2023-07-24T07:08:09Z</time>
      </trkpt>
      <trkpt lat="44.44254" lon="5.43218">
        <ele>945</ele>
        <time>2023-07-24T07:08:10Z</time>
      </trkpt>
      <trkpt lat="44.44254" lon="5.4321">
        <ele>944</ele>
        <time>2023-07-24T07:08:11Z</time>
      </trkpt>
      <trkpt lat="44.44254" lon="5.43202">
        <ele>943.2</ele>
        <time>2023-07-24T07:08:12Z</time>
      </trkpt>
      <trkpt lat="44.44254" lon="5.43196">
        <ele>942.5</ele>
        <time>2023-07-24T07:08:13Z</time>
      </trkpt>
      <trkpt lat="44.44256" lon="5.43189">
        <ele>941.9</ele>
        <time>2023-07-24T07:08:14Z</time>
      </trkpt>
      <trkpt lat="44.44257" lon="5.43184">
        <ele>941.2</ele>
        <time>2023-07-24T07:08:15Z</time>
      </trkpt>
      <trkpt lat="44.44259" lon="5.43178">
        <ele>940.6</ele>
        <time>2023-07-24T07:08:16Z</time>
      </trkpt>
      <trkpt lat="44.44261" lon="5.43174">
        <ele>940.1</ele>
        <time>2023-07-24T07:08:17Z</time>
      </trkpt>
      <trkpt lat="44.44262" lon="5.43168">
        <ele>939.5</ele>
        <time>2023-07-24T07:08:18Z</time>
      </trkpt>
      <trkpt lat="44.44261" lon="5.43161">
        <ele>938.7</ele>
        <time>2023-07-24T07:08:19Z</time>
      </trkpt>
      <trkpt lat="44.44258" lon="5.43154">
        <ele>937.8</ele>
        <time>2023-07-24T07:08:20Z</time>
      </trkpt>
      <trkpt lat="44.44254" lon="5.43147">
        <ele>936.8</ele>
        <time>2023-07-24T07:08:21Z</time>
      </trkpt>
      <trkpt lat="44.44251" lon="5.4314">
        <ele>935.8</ele>
        <time>2023-07-24T07:08:22Z</time>
      </trkpt>
      <trkpt lat="44.44249" lon="5.43133">
        <ele>934.9</ele>
        <time>2023-07-24T07:08:23Z</time>
      </trkpt>
      <trkpt lat="44.44247" lon="5.43127">
        <ele>934.1</ele>
        <time>2023-07-24T07:08:24Z</time>
      </trkpt>
      <trkpt lat="44.44245" lon="5.4312">
        <ele>933.4</ele>
        <time>2023-07-24T07:08:25Z</time>
      </trkpt>
      <trkpt lat="44.44244" lon="5.43111">
        <ele>932.4</ele>
        <time>2023-07-24T07:08:26Z</time>
      </trkpt>
      <trkpt lat="44.44243" lon="5.43102">
        <ele>931.4</ele>
        <time>2023-07-24T07:08:27Z</time>
      </trkpt>
      <trkpt lat="44.44242" lon="5.4309">
        <ele>930</ele>
        <time>2023-07-24T07:08:28Z</time>
      </trkpt>
      <trkpt lat="44.4424" lon="5.4308">
        <ele>928.6</ele>
        <time>2023-07-24T07:08:29Z</time>
      </trkpt>
      <trkpt lat="44.44237" lon="5.4307">
        <ele>927.9</ele>
        <time>2023-07-24T07:08:30Z</time>
      </trkpt>
      <trkpt lat="44.44234" lon="5.43061">
        <ele>927.3</ele>
        <time>2023-07-24T07:08:31Z</time>
      </trkpt>
      <trkpt lat="44.4423" lon="5.43053">
        <ele>926.6</ele>
        <time>2023-07-24T07:08:32Z</time>
      </trkpt>
      <trkpt lat="44.44228" lon="5.43047">
        <ele>926</ele>
        <time>2023-07-24T07:08:33Z</time>
      </trkpt>
      <trkpt lat="44.44226" lon="5.43043">
        <ele>925.5</ele>
        <time>2023-07-24T07:08:34Z</time>
      </trkpt>
      <trkpt lat="44.44224" lon="5.43041">
        <ele>925.2</ele>
        <time>2023-07-24T07:08:35Z</time>
      </trkpt>
      <trkpt lat="44.44224" lon="5.43041">
        <ele>925.2</ele>
        <time>2023-07-24T07:08:36Z</time>
      </trkpt>
      <trkpt lat="44.44224" lon="5.4304">
        <ele>925.2</ele>
        <time>2023-07-24T07:08:37Z</time>
      </trkpt>
      <trkpt lat="44.44224" lon="5.4304">
        <ele>925.1</ele>
        <time>2023-07-24T07:08:38Z</time>
      </trkpt>
      <trkpt lat="44.44224" lon="5.43039">
        <ele>925.1</ele>
        <time>2023-07-24T07:08:39Z</time>
      </trkpt>
      <trkpt lat="44.44224" lon="5.43039">
        <ele>925</ele>
        <time>2023-07-24T07:08:40Z</time>
      </trkpt>
      <trkpt lat="44.44223" lon="5.43039">
        <ele>925</ele>
        <time>2023-07-24T07:08:41Z</time>
      </trkpt>
      <trkpt lat="44.44223" lon="5.43038">
        <ele>925</ele>
        <time>2023-07-24T07:08:42Z</time>
      </trkpt>
      <trkpt lat="44.44223" lon="5.43038">
        <ele>924.9</ele>
        <time>2023-07-24T07:08:43Z</time>
      </trkpt>
      <trkpt lat="44.44223" lon="5.43037">
        <ele>924.9</ele>
        <time>2023-07-24T07:08:44Z</time>
      </trkpt>
      <trkpt lat="44.44223" lon="5.43037">
        <ele>924.8</ele>
        <time>2023-07-24T07:08:45Z</time>
      </trkpt>
      <trkpt lat="44.44223" lon="5.43037">
        <ele>924.8</ele>
        <time>2023-07-24T07:08:46Z</time>
      </trkpt>
      <trkpt lat="44.44223" lon="5.43036">
        <ele>924.8</ele>
        <time>2023-07-24T07:08:47Z</time>
      </trkpt>
      <trkpt lat="44.44222" lon="5.43036">
        <ele>924.7</ele>
        <time>2023-07-24T07:09:25Z</time>
      </trkpt>
      <trkpt lat="44.44222" lon="5.43036">
        <ele>924.7</ele>
        <time>2023-07-24T07:09:26Z</time>
      </trkpt>
      <trkpt lat="44.44222" lon="5.43035">
        <ele>924.6</ele>
        <time>2023-07-24T07:09:27Z</time>
      </trkpt>
      <trkpt lat="44.4422" lon="5.4303">
        <ele>924.1</ele>
        <time>2023-07-24T07:09:28Z</time>
      </trkpt>
      <trkpt lat="44.44219" lon="5.43028">
        <ele>923.8</ele>
        <time>2023-07-24T07:09:29Z</time>
      </trkpt>
      <trkpt lat="44.44216" lon="5.43023">
        <ele>923.3</ele>
        <time>2023-07-24T07:09:30Z</time>
      </trkpt>
      <trkpt lat="44.44214" lon="5.43018">
        <ele>922.8</ele>
        <time>2023-07-24T07:09:31Z</time>
      </trkpt>
      <trkpt lat="44.4421" lon="5.43013">
        <ele>922.3</ele>
        <time>2023-07-24T07:09:32Z</time>
      </trkpt>
      <trkpt lat="44.44207" lon="5.43009">
        <ele>921.7</ele>
        <time>2023-07-24T07:09:33Z</time>
      </trkpt>
      <trkpt lat="44.44204" lon="5.43006">
        <ele>921.3</ele>
        <time>2023-07-24T07:09:34Z</time>
      </trkpt>
      <trkpt lat="44.44201" lon="5.43002">
        <ele>920.9</ele>
        <time>2023-07-24T07:09:35Z</time>
      </trkpt>
      <trkpt lat="44.442" lon="5.42998">
        <ele>920.5</ele>
        <time>2023-07-24T07:09:36Z</time>
      </trkpt>
      <trkpt lat="44.44199" lon="5.42994">
        <ele>920.1</ele>
        <time>2023-07-24T07:09:37Z</time>
      </trkpt>
      <trkpt lat="44.442" lon="5.42989">
        <ele>919.7</ele>
        <time>2023-07-24T07:09:38Z</time>
      </trkpt>
      <trkpt lat="44.44201" lon="5.42985">
        <ele>919.3</ele>
        <time>2023-07-24T07:09:39Z</time>
      </trkpt>
      <trkpt lat="44.44204" lon="5.42982">
        <ele>919</ele>
        <time>2023-07-24T07:09:40Z</time>
      </trkpt>
      <trkpt lat="44.44208" lon="5.42983">
        <ele>918.7</ele>
        <time>2023-07-24T07:09:41Z</time>
      </trkpt>
      <trkpt lat="44.44211" lon="5.42984">
        <ele>918.4</ele>
        <time>2023-07-24T07:09:42Z</time>
      </trkpt>
      <trkpt lat="44.44215" lon="5.42987">
        <ele>918.1</ele>
        <time>2023-07-24T07:09:43Z</time>
      </trkpt>
      <trkpt lat="44.4422" lon="5.4299">
        <ele>917.8</ele>
        <time>2023-07-24T07:09:44Z</time>
      </trkpt>
      <trkpt lat="44.44225" lon="5.42992">
        <ele>917.5</ele>
        <time>2023-07-24T07:09:45Z</time>
      </trkpt>
      <trkpt lat="44.44231" lon="5.42993">
        <ele>917.1</ele>
        <time>2023-07-24T07:09:46Z</time>
      </trkpt>
      <trkpt lat="44.44237" lon="5.42994">
        <ele>916.8</ele>
        <time>2023-07-24T07:09:47Z</time>
      </trkpt>
      <trkpt lat="44.44243" lon="5.42995">
        <ele>916.3</ele>
        <time>2023-07-24T07:09:48Z</time>
      </trkpt>
      <trkpt lat="44.44249" lon="5.42994">
        <ele>915.9</ele>
        <time>2023-07-24T07:09:49Z</time>
      </trkpt>
      <trkpt lat="44.44254" lon="5.42994">
        <ele>915.6</ele>
        <time>2023-07-24T07:09:50Z</time>
      </trkpt>
      <trkpt lat="44.44258" lon="5.42992">
        <ele>915.3</ele>
        <time>2023-07-24T07:09:51Z</time>
      </trkpt>
      <trkpt lat="44.44261" lon="5.4299">
        <ele>915.1</ele>
        <time>2023-07-24T07:09:52Z</time>
      </trkpt>
      <trkpt lat="44.44264" lon="5.42987">
        <ele>914.9</ele>
        <time>2023-07-24T07:09:53Z</time>
      </trkpt>
      <trkpt lat="44.44268" lon="5.42984">
        <ele>914.7</ele>
        <time>2023-07-24T07:09:54Z</time>
      </trkpt>
      <trkpt lat="44.44272" lon="5.4298">
        <ele>914.4</ele>
        <time>2023-07-24T07:09:55Z</time>
      </trkpt>
      <trkpt lat="44.44276" lon="5.42976">
        <ele>914.2</ele>
        <time>2023-07-24T07:09:56Z</time>
      </trkpt>
      <trkpt lat="44.44281" lon="5.42974">
        <ele>914</ele>
        <time>2023-07-24T07:09:57Z</time>
      </trkpt>
      <trkpt lat="44.44286" lon="5.42972">
        <ele>913.8</ele>
        <time>2023-07-24T07:09:58Z</time>
      </trkpt>
      <trkpt lat="44.44291" lon="5.42971">
        <ele>913.6</ele>
        <time>2023-07-24T07:09:59Z</time>
      </trkpt>
      <trkpt lat="44.44295" lon="5.42971">
        <ele>913.4</ele>
        <time>2023-07-24T07:10:00Z</time>
      </trkpt>
      <trkpt lat="44.44299" lon="5.42971">
        <ele>913.2</ele>
        <time>2023-07-24T07:10:01Z</time>
      </trkpt>
      <trkpt lat="44.44303" lon="5.4297">
        <ele>912.8</ele>
        <time>2023-07-24T07:10:02Z</time>
      </trkpt>
      <trkpt lat="44.44306" lon="5.42969">
        <ele>912.8</ele>
        <time>2023-07-24T07:10:03Z</time>
      </trkpt>
      <trkpt lat="44.44307" lon="5.42965">
        <ele>912.8</ele>
        <time>2023-07-24T07:10:04Z</time>
      </trkpt>
      <trkpt lat="44.44306" lon="5.42963">
        <ele>912.8</ele>
        <time>2023-07-24T07:10:05Z</time>
      </trkpt>
      <trkpt lat="44.44305" lon="5.42959">
        <ele>912.8</ele>
        <time>2023-07-24T07:10:06Z</time>
      </trkpt>
      <trkpt lat="44.44302" lon="5.42957">
        <ele>912.8</ele>
        <time>2023-07-24T07:10:07Z</time>
      </trkpt>
      <trkpt lat="44.44298" lon="5.42956">
        <ele>912.7</ele>
        <time>2023-07-24T07:10:08Z</time>
      </trkpt>
      <trkpt lat="44.44295" lon="5.42955">
        <ele>912.6</ele>
        <time>2023-07-24T07:10:09Z</time>
      </trkpt>
      <trkpt lat="44.44291" lon="5.42955">
        <ele>912.6</ele>
        <time>2023-07-24T07:10:10Z</time>
      </trkpt>
      <trkpt lat="44.44288" lon="5.42954">
        <ele>912.6</ele>
        <time>2023-07-24T07:10:11Z</time>
      </trkpt>
      <trkpt lat="44.44284" lon="5.42954">
        <ele>912.5</ele>
        <time>2023-07-24T07:10:12Z</time>
      </trkpt>
      <trkpt lat="44.4428" lon="5.42951">
        <ele>912.5</ele>
        <time>2023-07-24T07:10:13Z</time>
      </trkpt>
      <trkpt lat="44.44276" lon="5.42948">
        <ele>912.4</ele>
        <time>2023-07-24T07:10:14Z</time>
      </trkpt>
      <trkpt lat="44.44273" lon="5.42944">
        <ele>912.4</ele>
        <time>2023-07-24T07:10:15Z</time>
      </trkpt>
      <trkpt lat="44.4427" lon="5.42939">
        <ele>912.3</ele>
        <time>2023-07-24T07:10:16Z</time>
      </trkpt>
      <trkpt lat="44.44268" lon="5.42933">
        <ele>912.3</ele>
        <time>2023-07-24T07:10:17Z</time>
      </trkpt>
      <trkpt lat="44.44266" lon="5.42927">
        <ele>912.3</ele>
        <time>2023-07-24T07:10:18Z</time>
      </trkpt>
      <trkpt lat="44.44265" lon="5.4292">
        <ele>912.2</ele>
        <time>2023-07-24T07:10:19Z</time>
      </trkpt>
      <trkpt lat="44.44264" lon="5.42914">
        <ele>912.2</ele>
        <time>2023-07-24T07:10:20Z</time>
      </trkpt>
      <trkpt lat="44.44262" lon="5.42906">
        <ele>912.1</ele>
        <time>2023-07-24T07:10:21Z</time>
      </trkpt>
      <trkpt lat="44.44261" lon="5.42899">
        <ele>912</ele>
        <time>2023-07-24T07:10:22Z</time>
      </trkpt>
      <trkpt lat="44.44258" lon="5.42892">
        <ele>912</ele>
        <time>2023-07-24T07:10:23Z</time>
      </trkpt>
      <trkpt lat="44.44256" lon="5.42884">
        <ele>911.9</ele>
        <time>2023-07-24T07:10:24Z</time>
      </trkpt>
      <trkpt lat="44.44253" lon="5.42876">
        <ele>911.8</ele>
        <time>2023-07-24T07:10:25Z</time>
      </trkpt>
      <trkpt lat="44.44249" lon="5.42869">
        <ele>911.8</ele>
        <time>2023-07-24T07:10:26Z</time>
      </trkpt>
      <trkpt lat="44.44245" lon="5.42862">
        <ele>911.7</ele>
        <time>2023-07-24T07:10:27Z</time>
      </trkpt>
      <trkpt lat="44.44242" lon="5.42856">
        <ele>911.7</ele>
        <time>2023-07-24T07:10:28Z</time>
      </trkpt>
      <trkpt lat="44.44237" lon="5.4285">
        <ele>911.6</ele>
        <time>2023-07-24T07:10:29Z</time>
      </trkpt>
      <trkpt lat="44.44233" lon="5.42845">
        <ele>911.5</ele>
        <time>2023-07-24T07:10:30Z</time>
      </trkpt>
      <trkpt lat="44.44228" lon="5.4284">
        <ele>911.5</ele>
        <time>2023-07-24T07:10:31Z</time>
      </trkpt>
      <trkpt lat="44.44222" lon="5.42834">
        <ele>911.4</ele>
        <time>2023-07-24T07:10:32Z</time>
      </trkpt>
      <trkpt lat="44.44217" lon="5.42829">
        <ele>911.3</ele>
        <time>2023-07-24T07:10:33Z</time>
      </trkpt>
      <trkpt lat="44.44212" lon="5.42823">
        <ele>911.3</ele>
        <time>2023-07-24T07:10:34Z</time>
      </trkpt>
      <trkpt lat="44.44208" lon="5.42816">
        <ele>911.2</ele>
        <time>2023-07-24T07:10:35Z</time>
      </trkpt>
      <trkpt lat="44.44203" lon="5.42808">
        <ele>911.1</ele>
        <time>2023-07-24T07:10:36Z</time>
      </trkpt>
      <trkpt lat="44.44199" lon="5.428">
        <ele>911</ele>
        <time>2023-07-24T07:10:37Z</time>
      </trkpt>
      <trkpt lat="44.44195" lon="5.42791">
        <ele>911</ele>
        <time>2023-07-24T07:10:38Z</time>
      </trkpt>
      <trkpt lat="44.44191" lon="5.42783">
        <ele>910.9</ele>
        <time>2023-07-24T07:10:39Z</time>
      </trkpt>
      <trkpt lat="44.44188" lon="5.42774">
        <ele>910.8</ele>
        <time>2023-07-24T07:10:40Z</time>
      </trkpt>
      <trkpt lat="44.44185" lon="5.42766">
        <ele>910.7</ele>
        <time>2023-07-24T07:10:41Z</time>
      </trkpt>
      <trkpt lat="44.44183" lon="5.42758">
        <ele>910.7</ele>
        <time>2023-07-24T07:10:42Z</time>
      </trkpt>
      <trkpt lat="44.44181" lon="5.42752">
        <ele>910.6</ele>
        <time>2023-07-24T07:10:43Z</time>
      </trkpt>
      <trkpt lat="44.44179" lon="5.42746">
        <ele>910.6</ele>
        <time>2023-07-24T07:10:44Z</time>
      </trkpt>
      <trkpt lat="44.44177" lon="5.42741">
        <ele>910.5</ele>
        <time>2023-07-24T07:10:45Z</time>
      </trkpt>
      <trkpt lat="44.44175" lon="5.42737">
        <ele>910.5</ele>
        <time>2023-07-24T07:10:46Z</time>
      </trkpt>
      <trkpt lat="44.44174" lon="5.42733">
        <ele>910.5</ele>
        <time>2023-07-24T07:10:47Z</time>
      </trkpt>
      <trkpt lat="44.44173" lon="5.42729">
        <ele>910.4</ele>
        <time>2023-07-24T07:10:48Z</time>
      </trkpt>
      <trkpt lat="44.44171" lon="5.42725">
        <ele>910.4</ele>
        <time>2023-07-24T07:10:49Z</time>
      </trkpt>
      <trkpt lat="44.44171" lon="5.42723">
        <ele>910.4</ele>
        <time>2023-07-24T07:10:50Z</time>
      </trkpt>
      <trkpt lat="44.44169" lon="5.42719">
        <ele>910.4</ele>
        <time>2023-07-24T07:10:51Z</time>
      </trkpt>
      <trkpt lat="44.44169" lon="5.42718">
        <ele>910.3</ele>
        <time>2023-07-24T07:10:52Z</time>
      </trkpt>
      <trkpt lat="44.44167" lon="5.42713">
        <ele>910.3</ele>
        <time>2023-07-24T07:10:53Z</time>
      </trkpt>
      <trkpt lat="44.44166" lon="5.42712">
        <ele>910.3</ele>
        <time>2023-07-24T07:10:54Z</time>
      </trkpt>
      <trkpt lat="44.44165" lon="5.42708">
        <ele>910.3</ele>
        <time>2023-07-24T07:10:55Z</time>
      </trkpt>
      <trkpt lat="44.44164" lon="5.42703">
        <ele>910.2</ele>
        <time>2023-07-24T07:10:56Z</time>
      </trkpt>
      <trkpt lat="44.44164" lon="5.42699">
        <ele>910.2</ele>
        <time>2023-07-24T07:10:57Z</time>
      </trkpt>
      <trkpt lat="44.44163" lon="5.42695">
        <ele>910.2</ele>
        <time>2023-07-24T07:10:58Z</time>
      </trkpt>
      <trkpt lat="44.44163" lon="5.4269">
        <ele>910.1</ele>
        <time>2023-07-24T07:10:59Z</time>
      </trkpt>
      <trkpt lat="44.44163" lon="5.42686">
        <ele>910.1</ele>
        <time>2023-07-24T07:11:00Z</time>
      </trkpt>
      <trkpt lat="44.44162" lon="5.42682">
        <ele>910.1</ele>
        <time>2023-07-24T07:11:01Z</time>
      </trkpt>
      <trkpt lat="44.44162" lon="5.42677">
        <ele>910</ele>
        <time>2023-07-24T07:11:02Z</time>
      </trkpt>
      <trkpt lat="44.44161" lon="5.42673">
        <ele>909.9</ele>
        <time>2023-07-24T07:11:03Z</time>
      </trkpt>
      <trkpt lat="44.44161" lon="5.42669">
        <ele>909.7</ele>
        <time>2023-07-24T07:11:04Z</time>
      </trkpt>
      <trkpt lat="44.4416" lon="5.42665">
        <ele>909.6</ele>
        <time>2023-07-24T07:11:05Z</time>
      </trkpt>
      <trkpt lat="44.44159" lon="5.42661">
        <ele>909.5</ele>
        <time>2023-07-24T07:11:06Z</time>
      </trkpt>
      <trkpt lat="44.44158" lon="5.42657">
        <ele>909.3</ele>
        <time>2023-07-24T07:11:07Z</time>
      </trkpt>
      <trkpt lat="44.44158" lon="5.42652">
        <ele>909.2</ele>
        <time>2023-07-24T07:11:08Z</time>
      </trkpt>
      <trkpt lat="44.44159" lon="5.42648">
        <ele>909.1</ele>
        <time>2023-07-24T07:11:09Z</time>
      </trkpt>
      <trkpt lat="44.44159" lon="5.42643">
        <ele>908.9</ele>
        <time>2023-07-24T07:11:10Z</time>
      </trkpt>
      <trkpt lat="44.44159" lon="5.42639">
        <ele>908.8</ele>
        <time>2023-07-24T07:11:11Z</time>
      </trkpt>
      <trkpt lat="44.4416" lon="5.42635">
        <ele>908.7</ele>
        <time>2023-07-24T07:11:12Z</time>
      </trkpt>
      <trkpt lat="44.44161" lon="5.42631">
        <ele>908.5</ele>
        <time>2023-07-24T07:11:13Z</time>
      </trkpt>
      <trkpt lat="44.44161" lon="5.42627">
        <ele>908.4</ele>
        <time>2023-07-24T07:11:14Z</time>
      </trkpt>
      <trkpt lat="44.44161" lon="5.42622">
        <ele>908.3</ele>
        <time>2023-07-24T07:11:15Z</time>
      </trkpt>
      <trkpt lat="44.44161" lon="5.42617">
        <ele>908.1</ele>
        <time>2023-07-24T07:11:16Z</time>
      </trkpt>
      <trkpt lat="44.44161" lon="5.42612">
        <ele>907.9</ele>
        <time>2023-07-24T07:11:17Z</time>
      </trkpt>
      <trkpt lat="44.4416" lon="5.42607">
        <ele>907.8</ele>
        <time>2023-07-24T07:11:18Z</time>
      </trkpt>
      <trkpt lat="44.44159" lon="5.42602">
        <ele>907.6</ele>
        <time>2023-07-24T07:11:19Z</time>
      </trkpt>
      <trkpt lat="44.44158" lon="5.42597">
        <ele>907.5</ele>
        <time>2023-07-24T07:11:20Z</time>
      </trkpt>
      <trkpt lat="44.44157" lon="5.42593">
        <ele>907.3</ele>
        <time>2023-07-24T07:11:21Z</time>
      </trkpt>
      <trkpt lat="44.44156" lon="5.42588">
        <ele>907.2</ele>
        <time>2023-07-24T07:11:22Z</time>
      </trkpt>
      <trkpt lat="44.44154" lon="5.42584">
        <ele>907</ele>
        <time>2023-07-24T07:11:23Z</time>
      </trkpt>
      <trkpt lat="44.44153" lon="5.4258">
        <ele>906.9</ele>
        <time>2023-07-24T07:11:24Z</time>
      </trkpt>
      <trkpt lat="44.44152" lon="5.42576">
        <ele>906.7</ele>
        <time>2023-07-24T07:11:25Z</time>
      </trkpt>
      <trkpt lat="44.44151" lon="5.42571">
        <ele>906.6</ele>
        <time>2023-07-24T07:11:26Z</time>
      </trkpt>
      <trkpt lat="44.44149" lon="5.42567">
        <ele>906.4</ele>
        <time>2023-07-24T07:11:27Z</time>
      </trkpt>
      <trkpt lat="44.44148" lon="5.42562">
        <ele>906.3</ele>
        <time>2023-07-24T07:11:28Z</time>
      </trkpt>
      <trkpt lat="44.44146" lon="5.42558">
        <ele>906.1</ele>
        <time>2023-07-24T07:11:29Z</time>
      </trkpt>
      <trkpt lat="44.44145" lon="5.42553">
        <ele>906</ele>
        <time>2023-07-24T07:11:30Z</time>
      </trkpt>
      <trkpt lat="44.44143" lon="5.42549">
        <ele>905.8</ele>
        <time>2023-07-24T07:11:31Z</time>
      </trkpt>
      <trkpt lat="44.44142" lon="5.42545">
        <ele>905.7</ele>
        <time>2023-07-24T07:11:32Z</time>
      </trkpt>
      <trkpt lat="44.44141" lon="5.4254">
        <ele>905.5</ele>
        <time>2023-07-24T07:11:33Z</time>
      </trkpt>
      <trkpt lat="44.4414" lon="5.42536">
        <ele>905.4</ele>
        <time>2023-07-24T07:11:34Z</time>
      </trkpt>
      <trkpt lat="44.44139" lon="5.42531">
        <ele>905.2</ele>
        <time>2023-07-24T07:11:35Z</time>
      </trkpt>
      <trkpt lat="44.44138" lon="5.42527">
        <ele>905.1</ele>
        <time>2023-07-24T07:11:36Z</time>
      </trkpt>
      <trkpt lat="44.44137" lon="5.42522">
        <ele>904.9</ele>
        <time>2023-07-24T07:11:37Z</time>
      </trkpt>
      <trkpt lat="44.44136" lon="5.42517">
        <ele>904.8</ele>
        <time>2023-07-24T07:11:38Z</time>
      </trkpt>
      <trkpt lat="44.44135" lon="5.42512">
        <ele>904.6</ele>
        <time>2023-07-24T07:11:39Z</time>
      </trkpt>
      <trkpt lat="44.44133" lon="5.42507">
        <ele>904.4</ele>
        <time>2023-07-24T07:11:40Z</time>
      </trkpt>
      <trkpt lat="44.44131" lon="5.42502">
        <ele>904.2</ele>
        <time>2023-07-24T07:11:41Z</time>
      </trkpt>
      <trkpt lat="44.4413" lon="5.42498">
        <ele>904.1</ele>
        <time>2023-07-24T07:11:42Z</time>
      </trkpt>
      <trkpt lat="44.44128" lon="5.42493">
        <ele>903.9</ele>
        <time>2023-07-24T07:11:43Z</time>
      </trkpt>
      <trkpt lat="44.44127" lon="5.42488">
        <ele>903.7</ele>
        <time>2023-07-24T07:11:44Z</time>
      </trkpt>
      <trkpt lat="44.44125" lon="5.42483">
        <ele>903.6</ele>
        <time>2023-07-24T07:11:45Z</time>
      </trkpt>
      <trkpt lat="44.44123" lon="5.42479">
        <ele>903.4</ele>
        <time>2023-07-24T07:11:46Z</time>
      </trkpt>
      <trkpt lat="44.44121" lon="5.42475">
        <ele>903.3</ele>
        <time>2023-07-24T07:11:47Z</time>
      </trkpt>
      <trkpt lat="44.44119" lon="5.42471">
        <ele>903.1</ele>
        <time>2023-07-24T07:11:48Z</time>
      </trkpt>
      <trkpt lat="44.44116" lon="5.42465">
        <ele>902.9</ele>
        <time>2023-07-24T07:11:49Z</time>
      </trkpt>
      <trkpt lat="44.44115" lon="5.4246">
        <ele>902.7</ele>
        <time>2023-07-24T07:11:50Z</time>
      </trkpt>
      <trkpt lat="44.44113" lon="5.42455">
        <ele>902.5</ele>
        <time>2023-07-24T07:11:51Z</time>
      </trkpt>
      <trkpt lat="44.44111" lon="5.4245">
        <ele>902.4</ele>
        <time>2023-07-24T07:11:52Z</time>
      </trkpt>
      <trkpt lat="44.4411" lon="5.42445">
        <ele>902.2</ele>
        <time>2023-07-24T07:11:53Z</time>
      </trkpt>
      <trkpt lat="44.44109" lon="5.42439">
        <ele>902</ele>
        <time>2023-07-24T07:11:54Z</time>
      </trkpt>
      <trkpt lat="44.44108" lon="5.42434">
        <ele>901.8</ele>
        <time>2023-07-24T07:11:55Z</time>
      </trkpt>
      <trkpt lat="44.44107" lon="5.42428">
        <ele>901.7</ele>
        <time>2023-07-24T07:11:56Z</time>
      </trkpt>
      <trkpt lat="44.44106" lon="5.42423">
        <ele>901.5</ele>
        <time>2023-07-24T07:11:57Z</time>
      </trkpt>
      <trkpt lat="44.44104" lon="5.42419">
        <ele>901.3</ele>
        <time>2023-07-24T07:11:58Z</time>
      </trkpt>
      <trkpt lat="44.44102" lon="5.42414">
        <ele>901.2</ele>
        <time>2023-07-24T07:11:59Z</time>
      </trkpt>
      <trkpt lat="44.441" lon="5.42408">
        <ele>900.9</ele>
        <time>2023-07-24T07:12:00Z</time>
      </trkpt>
      <trkpt lat="44.44097" lon="5.42401">
        <ele>900.7</ele>
        <time>2023-07-24T07:12:01Z</time>
      </trkpt>
      <trkpt lat="44.44095" lon="5.42395">
        <ele>900.5</ele>
        <time>2023-07-24T07:12:02Z</time>
      </trkpt>
      <trkpt lat="44.44091" lon="5.42388">
        <ele>900.2</ele>
        <time>2023-07-24T07:12:03Z</time>
      </trkpt>
      <trkpt lat="44.44088" lon="5.42381">
        <ele>899.9</ele>
        <time>2023-07-24T07:12:04Z</time>
      </trkpt>
      <trkpt lat="44.44086" lon="5.42372">
        <ele>899.6</ele>
        <time>2023-07-24T07:12:05Z</time>
      </trkpt>
      <trkpt lat="44.44084" lon="5.42362">
        <ele>899.3</ele>
        <time>2023-07-24T07:12:06Z</time>
      </trkpt>
      <trkpt lat="44.44084" lon="5.42352">
        <ele>899</ele>
        <time>2023-07-24T07:12:07Z</time>
      </trkpt>
      <trkpt lat="44.44084" lon="5.42343">
        <ele>898.7</ele>
        <time>2023-07-24T07:12:08Z</time>
      </trkpt>
      <trkpt lat="44.44085" lon="5.42333">
        <ele>898.4</ele>
        <time>2023-07-24T07:12:09Z</time>
      </trkpt>
      <trkpt lat="44.44087" lon="5.42325">
        <ele>898.1</ele>
        <time>2023-07-24T07:12:10Z</time>
      </trkpt>
      <trkpt lat="44.44089" lon="5.42316">
        <ele>897.9</ele>
        <time>2023-07-24T07:12:11Z</time>
      </trkpt>
      <trkpt lat="44.44091" lon="5.42309">
        <ele>897.6</ele>
        <time>2023-07-24T07:12:12Z</time>
      </trkpt>
      <trkpt lat="44.44092" lon="5.42302">
        <ele>897.4</ele>
        <time>2023-07-24T07:12:13Z</time>
      </trkpt>
      <trkpt lat="44.44094" lon="5.42296">
        <ele>897.2</ele>
        <time>2023-07-24T07:12:14Z</time>
      </trkpt>
      <trkpt lat="44.44094" lon="5.4229">
        <ele>897</ele>
        <time>2023-07-24T07:12:15Z</time>
      </trkpt>
      <trkpt lat="44.44094" lon="5.42284">
        <ele>896.8</ele>
        <time>2023-07-24T07:12:16Z</time>
      </trkpt>
      <trkpt lat="44.44094" lon="5.42277">
        <ele>896.6</ele>
        <time>2023-07-24T07:12:17Z</time>
      </trkpt>
      <trkpt lat="44.44092" lon="5.4227">
        <ele>896.4</ele>
        <time>2023-07-24T07:12:18Z</time>
      </trkpt>
      <trkpt lat="44.44089" lon="5.42266">
        <ele>896.2</ele>
        <time>2023-07-24T07:12:19Z</time>
      </trkpt>
      <trkpt lat="44.44085" lon="5.42262">
        <ele>896</ele>
        <time>2023-07-24T07:12:20Z</time>
      </trkpt>
      <trkpt lat="44.4408" lon="5.42259">
        <ele>895.8</ele>
        <time>2023-07-24T07:12:21Z</time>
      </trkpt>
      <trkpt lat="44.44076" lon="5.42255">
        <ele>895.5</ele>
        <time>2023-07-24T07:12:22Z</time>
      </trkpt>
      <trkpt lat="44.44072" lon="5.42252">
        <ele>895.3</ele>
        <time>2023-07-24T07:12:23Z</time>
      </trkpt>
      <trkpt lat="44.44067" lon="5.42247">
        <ele>895.1</ele>
        <time>2023-07-24T07:12:24Z</time>
      </trkpt>
      <trkpt lat="44.44064" lon="5.42244">
        <ele>894.9</ele>
        <time>2023-07-24T07:12:25Z</time>
      </trkpt>
      <trkpt lat="44.44061" lon="5.4224">
        <ele>894.8</ele>
        <time>2023-07-24T07:12:26Z</time>
      </trkpt>
      <trkpt lat="44.44059" lon="5.42237">
        <ele>894.8</ele>
        <time>2023-07-24T07:12:27Z</time>
      </trkpt>
      <trkpt lat="44.44058" lon="5.42233">
        <ele>894.8</ele>
        <time>2023-07-24T07:12:28Z</time>
      </trkpt>
      <trkpt lat="44.44057" lon="5.42229">
        <ele>894.8</ele>
        <time>2023-07-24T07:12:29Z</time>
      </trkpt>
      <trkpt lat="44.44056" lon="5.42226">
        <ele>894.8</ele>
        <time>2023-07-24T07:12:30Z</time>
      </trkpt>
      <trkpt lat="44.44056" lon="5.42225">
        <ele>894.8</ele>
        <time>2023-07-24T07:12:31Z</time>
      </trkpt>
      <trkpt lat="44.44056" lon="5.42225">
        <ele>894.8</ele>
        <time>2023-07-24T07:12:32Z</time>
      </trkpt>
      <trkpt lat="44.44055" lon="5.42225">
        <ele>894.8</ele>
        <time>2023-07-24T07:12:33Z</time>
      </trkpt>
      <trkpt lat="44.44055" lon="5.42225">
        <ele>894.8</ele>
        <time>2023-07-24T07:12:34Z</time>
      </trkpt>
      <trkpt lat="44.44054" lon="5.42225">
        <ele>894.8</ele>
        <time>2023-07-24T07:12:35Z</time>
      </trkpt>
      <trkpt lat="44.44054" lon="5.42225">
        <ele>894.8</ele>
        <time>2023-07-24T07:12:36Z</time>
      </trkpt>
      <trkpt lat="44.44054" lon="5.42225">
        <ele>894.8</ele>
        <time>2023-07-24T07:12:37Z</time>
      </trkpt>
      <trkpt lat="44.44053" lon="5.42225">
        <ele>894.8</ele>
        <time>2023-07-24T07:12:38Z</time>
      </trkpt>
      <trkpt lat="44.44053" lon="5.42225">
        <ele>894.8</ele>
        <time>2023-07-24T07:12:39Z</time>
      </trkpt>
      <trkpt lat="44.44053" lon="5.42225">
        <ele>894.8</ele>
        <time>2023-07-24T07:12:40Z</time>
      </trkpt>
      <trkpt lat="44.44052" lon="5.42225">
        <ele>894.8</ele>
        <time>2023-07-24T07:12:41Z</time>
      </trkpt>
      <trkpt lat="44.44052" lon="5.42225">
        <ele>894.8</ele>
        <time>2023-07-24T07:12:42Z</time>
      </trkpt>
      <trkpt lat="44.44052" lon="5.42225">
        <ele>894.8</ele>
        <time>2023-07-24T07:13:12Z</time>
      </trkpt>
      <trkpt lat="44.44051" lon="5.42225">
        <ele>894.8</ele>
        <time>2023-07-24T07:13:13Z</time>
      </trkpt>
      <trkpt lat="44.44051" lon="5.42225">
        <ele>894.8</ele>
        <time>2023-07-24T07:13:14Z</time>
      </trkpt>
      <trkpt lat="44.4405" lon="5.42225">
        <ele>894.8</ele>
        <time>2023-07-24T07:13:15Z</time>
      </trkpt>
      <trkpt lat="44.44049" lon="5.42228">
        <ele>895.6</ele>
        <time>2023-07-24T07:13:16Z</time>
      </trkpt>
      <trkpt lat="44.44047" lon="5.42233">
        <ele>896.4</ele>
        <time>2023-07-24T07:13:17Z</time>
      </trkpt>
      <trkpt lat="44.44046" lon="5.42234">
        <ele>896.6</ele>
        <time>2023-07-24T07:13:18Z</time>
      </trkpt>
      <trkpt lat="44.44045" lon="5.42238">
        <ele>897.2</ele>
        <time>2023-07-24T07:13:19Z</time>
      </trkpt>
      <trkpt lat="44.44044" lon="5.42239">
        <ele>897.4</ele>
        <time>2023-07-24T07:13:20Z</time>
      </trkpt>
      <trkpt lat="44.44041" lon="5.42243">
        <ele>898.2</ele>
        <time>2023-07-24T07:13:21Z</time>
      </trkpt>
      <trkpt lat="44.4404" lon="5.42244">
        <ele>898.4</ele>
        <time>2023-07-24T07:13:22Z</time>
      </trkpt>
      <trkpt lat="44.44038" lon="5.42247">
        <ele>899.2</ele>
        <time>2023-07-24T07:13:23Z</time>
      </trkpt>
      <trkpt lat="44.44037" lon="5.42248">
        <ele>899.4</ele>
        <time>2023-07-24T07:13:24Z</time>
      </trkpt>
      <trkpt lat="44.44034" lon="5.42251">
        <ele>900.1</ele>
        <time>2023-07-24T07:13:25Z</time>
      </trkpt>
      <trkpt lat="44.44033" lon="5.42252">
        <ele>900.3</ele>
        <time>2023-07-24T07:13:26Z</time>
      </trkpt>
      <trkpt lat="44.44032" lon="5.42253">
        <ele>900.6</ele>
        <time>2023-07-24T07:13:27Z</time>
      </trkpt>
      <trkpt lat="44.4403" lon="5.42254">
        <ele>900.9</ele>
        <time>2023-07-24T07:13:28Z</time>
      </trkpt>
      <trkpt lat="44.44028" lon="5.42255">
        <ele>901.5</ele>
        <time>2023-07-24T07:13:29Z</time>
      </trkpt>
      <trkpt lat="44.44027" lon="5.42255">
        <ele>901.8</ele>
        <time>2023-07-24T07:13:30Z</time>
      </trkpt>
      <trkpt lat="44.44024" lon="5.42256">
        <ele>902.4</ele>
        <time>2023-07-24T07:13:31Z</time>
      </trkpt>
      <trkpt lat="44.44023" lon="5.42257">
        <ele>902.6</ele>
        <time>2023-07-24T07:13:32Z</time>
      </trkpt>
      <trkpt lat="44.4402" lon="5.42258">
        <ele>903.2</ele>
        <time>2023-07-24T07:13:33Z</time>
      </trkpt>
      <trkpt lat="44.44019" lon="5.42259">
        <ele>903.4</ele>
        <time>2023-07-24T07:13:34Z</time>
      </trkpt>
      <trkpt lat="44.44017" lon="5.4226">
        <ele>903.7</ele>
        <time>2023-07-24T07:13:35Z</time>
      </trkpt>
      <trkpt lat="44.44016" lon="5.42261">
        <ele>904.1</ele>
        <time>2023-07-24T07:13:36Z</time>
      </trkpt>
      <trkpt lat="44.44015" lon="5.42263">
        <ele>904.4</ele>
        <time>2023-07-24T07:13:37Z</time>
      </trkpt>
      <trkpt lat="44.44014" lon="5.42264">
        <ele>904.6</ele>
        <time>2023-07-24T07:13:38Z</time>
      </trkpt>
      <trkpt lat="44.44013" lon="5.42266">
        <ele>905</ele>
        <time>2023-07-24T07:13:39Z</time>
      </trkpt>
      <trkpt lat="44.44013" lon="5.42267">
        <ele>905.2</ele>
        <time>2023-07-24T07:13:40Z</time>
      </trkpt>
      <trkpt lat="44.44012" lon="5.42269">
        <ele>905.4</ele>
        <time>2023-07-24T07:13:41Z</time>
      </trkpt>
      <trkpt lat="44.44012" lon="5.42271">
        <ele>905.8</ele>
        <time>2023-07-24T07:13:42Z</time>
      </trkpt>
      <trkpt lat="44.44012" lon="5.42273">
        <ele>906.1</ele>
        <time>2023-07-24T07:13:43Z</time>
      </trkpt>
      <trkpt lat="44.44012" lon="5.42276">
        <ele>906.4</ele>
        <time>2023-07-24T07:13:44Z</time>
      </trkpt>
      <trkpt lat="44.44012" lon="5.42278">
        <ele>906.8</ele>
        <time>2023-07-24T07:13:45Z</time>
      </trkpt>
      <trkpt lat="44.44012" lon="5.42281">
        <ele>907.1</ele>
        <time>2023-07-24T07:13:46Z</time>
      </trkpt>
      <trkpt lat="44.44012" lon="5.42283">
        <ele>907.5</ele>
        <time>2023-07-24T07:13:47Z</time>
      </trkpt>
      <trkpt lat="44.44011" lon="5.42285">
        <ele>907.9</ele>
        <time>2023-07-24T07:13:48Z</time>
      </trkpt>
      <trkpt lat="44.44011" lon="5.42288">
        <ele>908.2</ele>
        <time>2023-07-24T07:13:49Z</time>
      </trkpt>
      <trkpt lat="44.4401" lon="5.4229">
        <ele>908.5</ele>
        <time>2023-07-24T07:13:50Z</time>
      </trkpt>
      <trkpt lat="44.4401" lon="5.42292">
        <ele>908.9</ele>
        <time>2023-07-24T07:13:51Z</time>
      </trkpt>
      <trkpt lat="44.44008" lon="5.42295">
        <ele>909.3</ele>
        <time>2023-07-24T07:13:52Z</time>
      </trkpt>
      <trkpt lat="44.44008" lon="5.42296">
        <ele>909.5</ele>
        <time>2023-07-24T07:13:53Z</time>
      </trkpt>
      <trkpt lat="44.44007" lon="5.42296">
        <ele>909.7</ele>
        <time>2023-07-24T07:13:54Z</time>
      </trkpt>
      <trkpt lat="44.44007" lon="5.42297">
        <ele>909.9</ele>
        <time>2023-07-24T07:13:55Z</time>
      </trkpt>
      <trkpt lat="44.44006" lon="5.42298">
        <ele>910</ele>
        <time>2023-07-24T07:13:56Z</time>
      </trkpt>
      <trkpt lat="44.44005" lon="5.42302">
        <ele>910.7</ele>
        <time>2023-07-24T07:13:57Z</time>
      </trkpt>
      <trkpt lat="44.44004" lon="5.42303">
        <ele>910.9</ele>
        <time>2023-07-24T07:13:58Z</time>
      </trkpt>
      <trkpt lat="44.44003" lon="5.42306">
        <ele>911.3</ele>
        <time>2023-07-24T07:13:59Z</time>
      </trkpt>
      <trkpt lat="44.44002" lon="5.42307">
        <ele>911.5</ele>
        <time>2023-07-24T07:14:00Z</time>
      </trkpt>
      <trkpt lat="44.44002" lon="5.42308">
        <ele>911.6</ele>
        <time>2023-07-24T07:14:01Z</time>
      </trkpt>
      <trkpt lat="44.44002" lon="5.42309">
        <ele>911.8</ele>
        <time>2023-07-24T07:14:02Z</time>
      </trkpt>
      <trkpt lat="44.44" lon="5.42313">
        <ele>912.5</ele>
        <time>2023-07-24T07:14:03Z</time>
      </trkpt>
      <trkpt lat="44.44" lon="5.42314">
        <ele>912.7</ele>
        <time>2023-07-24T07:14:04Z</time>
      </trkpt>
      <trkpt lat="44.44" lon="5.42316">
        <ele>912.9</ele>
        <time>2023-07-24T07:14:05Z</time>
      </trkpt>
      <trkpt lat="44.44" lon="5.42316">
        <ele>913</ele>
        <time>2023-07-24T07:14:06Z</time>
      </trkpt>
      <trkpt lat="44.44" lon="5.42316">
        <ele>913</ele>
        <time>2023-07-24T07:14:07Z</time>
      </trkpt>
      <trkpt lat="44.43998" lon="5.42319">
        <ele>913.4</ele>
        <time>2023-07-24T07:14:08Z</time>
      </trkpt>
      <trkpt lat="44.43996" lon="5.42322">
        <ele>914.1</ele>
        <time>2023-07-24T07:14:09Z</time>
      </trkpt>
      <trkpt lat="44.43996" lon="5.42323">
        <ele>914.3</ele>
        <time>2023-07-24T07:14:10Z</time>
      </trkpt>
      <trkpt lat="44.43994" lon="5.42326">
        <ele>914.8</ele>
        <time>2023-07-24T07:14:11Z</time>
      </trkpt>
      <trkpt lat="44.43993" lon="5.42327">
        <ele>915</ele>
        <time>2023-07-24T07:14:12Z</time>
      </trkpt>
      <trkpt lat="44.43991" lon="5.42329">
        <ele>915.6</ele>
        <time>2023-07-24T07:14:13Z</time>
      </trkpt>
      <trkpt lat="44.4399" lon="5.4233">
        <ele>915.8</ele>
        <time>2023-07-24T07:14:14Z</time>
      </trkpt>
      <trkpt lat="44.43988" lon="5.42333">
        <ele>916.4</ele>
        <time>2023-07-24T07:14:15Z</time>
      </trkpt>
      <trkpt lat="44.43987" lon="5.42334">
        <ele>916.6</ele>
        <time>2023-07-24T07:14:16Z</time>
      </trkpt>
      <trkpt lat="44.43986" lon="5.42336">
        <ele>917</ele>
        <time>2023-07-24T07:14:17Z</time>
      </trkpt>
      <trkpt lat="44.43985" lon="5.42338">
        <ele>917.3</ele>
        <time>2023-07-24T07:14:18Z</time>
      </trkpt>
      <trkpt lat="44.43984" lon="5.42339">
        <ele>917.7</ele>
        <time>2023-07-24T07:14:19Z</time>
      </trkpt>
      <trkpt lat="44.43982" lon="5.42341">
        <ele>918</ele>
        <time>2023-07-24T07:14:20Z</time>
      </trkpt>
      <trkpt lat="44.4398" lon="5.42344">
        <ele>918.7</ele>
        <time>2023-07-24T07:14:22Z</time>
      </trkpt>
      <trkpt lat="44.43977" lon="5.42347">
        <ele>919.4</ele>
        <time>2023-07-24T07:14:23Z</time>
      </trkpt>
      <trkpt lat="44.43977" lon="5.42348">
        <ele>919.6</ele>
        <time>2023-07-24T07:14:24Z</time>
      </trkpt>
      <trkpt lat="44.43974" lon="5.42351">
        <ele>920.2</ele>
        <time>2023-07-24T07:14:25Z</time>
      </trkpt>
      <trkpt lat="44.43974" lon="5.42352">
        <ele>920.4</ele>
        <time>2023-07-24T07:14:26Z</time>
      </trkpt>
      <trkpt lat="44.43972" lon="5.42354">
        <ele>920.9</ele>
        <time>2023-07-24T07:14:27Z</time>
      </trkpt>
      <trkpt lat="44.43971" lon="5.42355">
        <ele>921.1</ele>
        <time>2023-07-24T07:14:28Z</time>
      </trkpt>
      <trkpt lat="44.43969" lon="5.42356">
        <ele>921.5</ele>
        <time>2023-07-24T07:14:29Z</time>
      </trkpt>
      <trkpt lat="44.43968" lon="5.42358">
        <ele>921.8</ele>
        <time>2023-07-24T07:14:30Z</time>
      </trkpt>
      <trkpt lat="44.43967" lon="5.42359">
        <ele>922.1</ele>
        <time>2023-07-24T07:14:31Z</time>
      </trkpt>
      <trkpt lat="44.43966" lon="5.4236">
        <ele>922.4</ele>
        <time>2023-07-24T07:14:32Z</time>
      </trkpt>
      <trkpt lat="44.43965" lon="5.42362">
        <ele>922.7</ele>
        <time>2023-07-24T07:14:33Z</time>
      </trkpt>
      <trkpt lat="44.43964" lon="5.42363">
        <ele>923</ele>
        <time>2023-07-24T07:14:34Z</time>
      </trkpt>
      <trkpt lat="44.43963" lon="5.42365">
        <ele>923.3</ele>
        <time>2023-07-24T07:14:35Z</time>
      </trkpt>
      <trkpt lat="44.43962" lon="5.42366">
        <ele>923.6</ele>
        <time>2023-07-24T07:14:36Z</time>
      </trkpt>
      <trkpt lat="44.4396" lon="5.42369">
        <ele>924</ele>
        <time>2023-07-24T07:14:37Z</time>
      </trkpt>
      <trkpt lat="44.4396" lon="5.42369">
        <ele>924.2</ele>
        <time>2023-07-24T07:14:38Z</time>
      </trkpt>
      <trkpt lat="44.43959" lon="5.4237">
        <ele>924.4</ele>
        <time>2023-07-24T07:14:39Z</time>
      </trkpt>
      <trkpt lat="44.43958" lon="5.42371">
        <ele>924.6</ele>
        <time>2023-07-24T07:14:40Z</time>
      </trkpt>
      <trkpt lat="44.43958" lon="5.42371">
        <ele>924.6</ele>
        <time>2023-07-24T07:14:41Z</time>
      </trkpt>
      <trkpt lat="44.43958" lon="5.42371">
        <ele>924.6</ele>
        <time>2023-07-24T07:14:42Z</time>
      </trkpt>
      <trkpt lat="44.43957" lon="5.42374">
        <ele>925.1</ele>
        <time>2023-07-24T07:14:43Z</time>
      </trkpt>
      <trkpt lat="44.43955" lon="5.42377">
        <ele>925.6</ele>
        <time>2023-07-24T07:14:44Z</time>
      </trkpt>
      <trkpt lat="44.43955" lon="5.42378">
        <ele>925.8</ele>
        <time>2023-07-24T07:14:45Z</time>
      </trkpt>
      <trkpt lat="44.43952" lon="5.42379">
        <ele>926.3</ele>
        <time>2023-07-24T07:14:46Z</time>
      </trkpt>
      <trkpt lat="44.43952" lon="5.42379">
        <ele>926.5</ele>
        <time>2023-07-24T07:14:47Z</time>
      </trkpt>
      <trkpt lat="44.43951" lon="5.42379">
        <ele>926.7</ele>
        <time>2023-07-24T07:14:48Z</time>
      </trkpt>
      <trkpt lat="44.4395" lon="5.4238">
        <ele>926.8</ele>
        <time>2023-07-24T07:14:49Z</time>
      </trkpt>
      <trkpt lat="44.43947" lon="5.42382">
        <ele>927.5</ele>
        <time>2023-07-24T07:14:50Z</time>
      </trkpt>
      <trkpt lat="44.43947" lon="5.42383">
        <ele>927.7</ele>
        <time>2023-07-24T07:14:51Z</time>
      </trkpt>
      <trkpt lat="44.43945" lon="5.42385">
        <ele>928.2</ele>
        <time>2023-07-24T07:14:52Z</time>
      </trkpt>
      <trkpt lat="44.43944" lon="5.42386">
        <ele>928.3</ele>
        <time>2023-07-24T07:14:53Z</time>
      </trkpt>
      <trkpt lat="44.43944" lon="5.42386">
        <ele>928.4</ele>
        <time>2023-07-24T07:14:54Z</time>
      </trkpt>
      <trkpt lat="44.43943" lon="5.42387">
        <ele>928.6</ele>
        <time>2023-07-24T07:14:55Z</time>
      </trkpt>
      <trkpt lat="44.43942" lon="5.42391">
        <ele>929.1</ele>
        <time>2023-07-24T07:14:56Z</time>
      </trkpt>
      <trkpt lat="44.43942" lon="5.42392">
        <ele>929.3</ele>
        <time>2023-07-24T07:14:57Z</time>
      </trkpt>
      <trkpt lat="44.43941" lon="5.42394">
        <ele>929.8</ele>
        <time>2023-07-24T07:14:58Z</time>
      </trkpt>
      <trkpt lat="44.43941" lon="5.42396">
        <ele>930.4</ele>
        <time>2023-07-24T07:14:59Z</time>
      </trkpt>
      <trkpt lat="44.43941" lon="5.424">
        <ele>931.5</ele>
        <time>2023-07-24T07:15:00Z</time>
      </trkpt>
      <trkpt lat="44.4394" lon="5.42404">
        <ele>932.6</ele>
        <time>2023-07-24T07:15:01Z</time>
      </trkpt>
      <trkpt lat="44.4394" lon="5.42409">
        <ele>933.9</ele>
        <time>2023-07-24T07:15:02Z</time>
      </trkpt>
      <trkpt lat="44.4394" lon="5.42411">
        <ele>934.3</ele>
        <time>2023-07-24T07:15:03Z</time>
      </trkpt>
      <trkpt lat="44.4394" lon="5.42414">
        <ele>935.3</ele>
        <time>2023-07-24T07:15:04Z</time>
      </trkpt>
      <trkpt lat="44.4394" lon="5.42416">
        <ele>935.7</ele>
        <time>2023-07-24T07:15:05Z</time>
      </trkpt>
      <trkpt lat="44.43939" lon="5.42419">
        <ele>936.5</ele>
        <time>2023-07-24T07:15:06Z</time>
      </trkpt>
      <trkpt lat="44.43939" lon="5.4242">
        <ele>936.8</ele>
        <time>2023-07-24T07:15:07Z</time>
      </trkpt>
      <trkpt lat="44.43938" lon="5.42421">
        <ele>937.1</ele>
        <time>2023-07-24T07:15:08Z</time>
      </trkpt>
      <trkpt lat="44.43937" lon="5.42423">
        <ele>937.7</ele>
        <time>2023-07-24T07:15:09Z</time>
      </trkpt>
      <trkpt lat="44.43937" lon="5.42424">
        <ele>938</ele>
        <time>2023-07-24T07:15:10Z</time>
      </trkpt>
      <trkpt lat="44.43937" lon="5.42425">
        <ele>938.3</ele>
        <time>2023-07-24T07:15:11Z</time>
      </trkpt>
      <trkpt lat="44.43936" lon="5.42425">
        <ele>938.6</ele>
        <time>2023-07-24T07:15:12Z</time>
      </trkpt>
      <trkpt lat="44.43935" lon="5.4243">
        <ele>939.9</ele>
        <time>2023-07-24T07:15:13Z</time>
      </trkpt>
      <trkpt lat="44.43934" lon="5.42432">
        <ele>940.4</ele>
        <time>2023-07-24T07:15:14Z</time>
      </trkpt>
      <trkpt lat="44.43933" lon="5.42435">
        <ele>941.5</ele>
        <time>2023-07-24T07:15:15Z</time>
      </trkpt>
      <trkpt lat="44.43933" lon="5.42437">
        <ele>941.8</ele>
        <time>2023-07-24T07:15:16Z</time>
      </trkpt>
      <trkpt lat="44.43932" lon="5.42441">
        <ele>943</ele>
        <time>2023-07-24T07:15:17Z</time>
      </trkpt>
      <trkpt lat="44.43931" lon="5.42442">
        <ele>943.4</ele>
        <time>2023-07-24T07:15:18Z</time>
      </trkpt>
      <trkpt lat="44.4393" lon="5.42446">
        <ele>944.5</ele>
        <time>2023-07-24T07:15:19Z</time>
      </trkpt>
      <trkpt lat="44.4393" lon="5.42447">
        <ele>944.9</ele>
        <time>2023-07-24T07:15:20Z</time>
      </trkpt>
      <trkpt lat="44.43929" lon="5.42449">
        <ele>945.4</ele>
        <time>2023-07-24T07:15:21Z</time>
      </trkpt>
      <trkpt lat="44.43929" lon="5.42451">
        <ele>947.2</ele>
        <time>2023-07-24T07:15:22Z</time>
      </trkpt>
      <trkpt lat="44.43927" lon="5.42453">
        <ele>947.5</ele>
        <time>2023-07-24T07:15:23Z</time>
      </trkpt>
      <trkpt lat="44.43926" lon="5.42454">
        <ele>947.7</ele>
        <time>2023-07-24T07:15:24Z</time>
      </trkpt>
      <trkpt lat="44.43924" lon="5.42456">
        <ele>948</ele>
        <time>2023-07-24T07:15:25Z</time>
      </trkpt>
      <trkpt lat="44.43923" lon="5.42456">
        <ele>948.2</ele>
        <time>2023-07-24T07:15:26Z</time>
      </trkpt>
      <trkpt lat="44.43921" lon="5.42456">
        <ele>948.4</ele>
        <time>2023-07-24T07:15:27Z</time>
      </trkpt>
      <trkpt lat="44.43919" lon="5.42455">
        <ele>948.6</ele>
        <time>2023-07-24T07:15:28Z</time>
      </trkpt>
      <trkpt lat="44.43917" lon="5.42455">
        <ele>948.9</ele>
        <time>2023-07-24T07:15:29Z</time>
      </trkpt>
      <trkpt lat="44.43916" lon="5.42455">
        <ele>949</ele>
        <time>2023-07-24T07:15:30Z</time>
      </trkpt>
      <trkpt lat="44.43915" lon="5.42455">
        <ele>949.1</ele>
        <time>2023-07-24T07:15:31Z</time>
      </trkpt>
      <trkpt lat="44.43914" lon="5.42454">
        <ele>949.3</ele>
        <time>2023-07-24T07:15:32Z</time>
      </trkpt>
      <trkpt lat="44.43913" lon="5.42453">
        <ele>949.5</ele>
        <time>2023-07-24T07:15:33Z</time>
      </trkpt>
      <trkpt lat="44.43911" lon="5.42452">
        <ele>949.7</ele>
        <time>2023-07-24T07:15:34Z</time>
      </trkpt>
      <trkpt lat="44.4391" lon="5.42451">
        <ele>949.9</ele>
        <time>2023-07-24T07:15:35Z</time>
      </trkpt>
      <trkpt lat="44.43909" lon="5.42449">
        <ele>950.2</ele>
        <time>2023-07-24T07:15:36Z</time>
      </trkpt>
      <trkpt lat="44.43908" lon="5.42448">
        <ele>950.4</ele>
        <time>2023-07-24T07:15:37Z</time>
      </trkpt>
      <trkpt lat="44.43906" lon="5.42447">
        <ele>950.6</ele>
        <time>2023-07-24T07:15:38Z</time>
      </trkpt>
      <trkpt lat="44.43905" lon="5.42445">
        <ele>950.8</ele>
        <time>2023-07-24T07:15:39Z</time>
      </trkpt>
      <trkpt lat="44.43904" lon="5.42443">
        <ele>951</ele>
        <time>2023-07-24T07:15:40Z</time>
      </trkpt>
      <trkpt lat="44.43903" lon="5.42441">
        <ele>951.3</ele>
        <time>2023-07-24T07:15:41Z</time>
      </trkpt>
      <trkpt lat="44.43903" lon="5.42439">
        <ele>951.5</ele>
        <time>2023-07-24T07:15:42Z</time>
      </trkpt>
      <trkpt lat="44.43902" lon="5.42436">
        <ele>951.7</ele>
        <time>2023-07-24T07:15:43Z</time>
      </trkpt>
      <trkpt lat="44.43901" lon="5.42434">
        <ele>951.9</ele>
        <time>2023-07-24T07:15:44Z</time>
      </trkpt>
      <trkpt lat="44.43901" lon="5.42432">
        <ele>952.1</ele>
        <time>2023-07-24T07:15:45Z</time>
      </trkpt>
      <trkpt lat="44.43899" lon="5.4243">
        <ele>952.4</ele>
        <time>2023-07-24T07:15:46Z</time>
      </trkpt>
      <trkpt lat="44.43899" lon="5.42429">
        <ele>952.6</ele>
        <time>2023-07-24T07:15:47Z</time>
      </trkpt>
      <trkpt lat="44.43898" lon="5.42427">
        <ele>952.7</ele>
        <time>2023-07-24T07:15:48Z</time>
      </trkpt>
      <trkpt lat="44.43897" lon="5.42424">
        <ele>953.1</ele>
        <time>2023-07-24T07:15:49Z</time>
      </trkpt>
      <trkpt lat="44.43896" lon="5.42423">
        <ele>953.2</ele>
        <time>2023-07-24T07:15:50Z</time>
      </trkpt>
      <trkpt lat="44.43896" lon="5.42421">
        <ele>953.4</ele>
        <time>2023-07-24T07:15:51Z</time>
      </trkpt>
      <trkpt lat="44.43895" lon="5.4242">
        <ele>953.6</ele>
        <time>2023-07-24T07:15:52Z</time>
      </trkpt>
      <trkpt lat="44.43894" lon="5.42417">
        <ele>953.8</ele>
        <time>2023-07-24T07:15:53Z</time>
      </trkpt>
      <trkpt lat="44.43894" lon="5.42415">
        <ele>954</ele>
        <time>2023-07-24T07:15:54Z</time>
      </trkpt>
      <trkpt lat="44.43893" lon="5.4241">
        <ele>954.5</ele>
        <time>2023-07-24T07:15:55Z</time>
      </trkpt>
      <trkpt lat="44.43892" lon="5.42409">
        <ele>954.6</ele>
        <time>2023-07-24T07:15:56Z</time>
      </trkpt>
      <trkpt lat="44.43892" lon="5.42406">
        <ele>954.9</ele>
        <time>2023-07-24T07:15:57Z</time>
      </trkpt>
      <trkpt lat="44.43891" lon="5.42404">
        <ele>955.1</ele>
        <time>2023-07-24T07:15:58Z</time>
      </trkpt>
      <trkpt lat="44.4389" lon="5.42403">
        <ele>955.3</ele>
        <time>2023-07-24T07:15:59Z</time>
      </trkpt>
      <trkpt lat="44.43889" lon="5.424">
        <ele>955.5</ele>
        <time>2023-07-24T07:16:00Z</time>
      </trkpt>
      <trkpt lat="44.43889" lon="5.42396">
        <ele>955.9</ele>
        <time>2023-07-24T07:16:01Z</time>
      </trkpt>
      <trkpt lat="44.43888" lon="5.42395">
        <ele>956</ele>
        <time>2023-07-24T07:16:02Z</time>
      </trkpt>
      <trkpt lat="44.43887" lon="5.42392">
        <ele>956.4</ele>
        <time>2023-07-24T07:16:03Z</time>
      </trkpt>
      <trkpt lat="44.43886" lon="5.42391">
        <ele>956.5</ele>
        <time>2023-07-24T07:16:04Z</time>
      </trkpt>
      <trkpt lat="44.43886" lon="5.42388">
        <ele>956.8</ele>
        <time>2023-07-24T07:16:05Z</time>
      </trkpt>
      <trkpt lat="44.43885" lon="5.42386">
        <ele>957</ele>
        <time>2023-07-24T07:16:06Z</time>
      </trkpt>
      <trkpt lat="44.43883" lon="5.42383">
        <ele>957.4</ele>
        <time>2023-07-24T07:16:07Z</time>
      </trkpt>
      <trkpt lat="44.43883" lon="5.42382">
        <ele>957.5</ele>
        <time>2023-07-24T07:16:08Z</time>
      </trkpt>
      <trkpt lat="44.43882" lon="5.4238">
        <ele>957.7</ele>
        <time>2023-07-24T07:16:09Z</time>
      </trkpt>
      <trkpt lat="44.43881" lon="5.42378">
        <ele>958</ele>
        <time>2023-07-24T07:16:10Z</time>
      </trkpt>
      <trkpt lat="44.4388" lon="5.42375">
        <ele>958.2</ele>
        <time>2023-07-24T07:16:11Z</time>
      </trkpt>
      <trkpt lat="44.4388" lon="5.42373">
        <ele>958.4</ele>
        <time>2023-07-24T07:16:12Z</time>
      </trkpt>
      <trkpt lat="44.4388" lon="5.42371">
        <ele>958.6</ele>
        <time>2023-07-24T07:16:13Z</time>
      </trkpt>
      <trkpt lat="44.43879" lon="5.42368">
        <ele>958.9</ele>
        <time>2023-07-24T07:16:14Z</time>
      </trkpt>
      <trkpt lat="44.43879" lon="5.42364">
        <ele>959.3</ele>
        <time>2023-07-24T07:16:15Z</time>
      </trkpt>
      <trkpt lat="44.43879" lon="5.42363">
        <ele>959.4</ele>
        <time>2023-07-24T07:16:16Z</time>
      </trkpt>
      <trkpt lat="44.43878" lon="5.42359">
        <ele>959.7</ele>
        <time>2023-07-24T07:16:17Z</time>
      </trkpt>
      <trkpt lat="44.43878" lon="5.42358">
        <ele>959.9</ele>
        <time>2023-07-24T07:16:18Z</time>
      </trkpt>
      <trkpt lat="44.43877" lon="5.42354">
        <ele>960.2</ele>
        <time>2023-07-24T07:16:19Z</time>
      </trkpt>
      <trkpt lat="44.43877" lon="5.42353">
        <ele>960.4</ele>
        <time>2023-07-24T07:16:20Z</time>
      </trkpt>
      <trkpt lat="44.43877" lon="5.4235">
        <ele>960.6</ele>
        <time>2023-07-24T07:16:21Z</time>
      </trkpt>
      <trkpt lat="44.43877" lon="5.42348">
        <ele>960.8</ele>
        <time>2023-07-24T07:16:22Z</time>
      </trkpt>
      <trkpt lat="44.43876" lon="5.42346">
        <ele>961</ele>
        <time>2023-07-24T07:16:23Z</time>
      </trkpt>
      <trkpt lat="44.43875" lon="5.42344">
        <ele>961.2</ele>
        <time>2023-07-24T07:16:24Z</time>
      </trkpt>
      <trkpt lat="44.43875" lon="5.42341">
        <ele>961.5</ele>
        <time>2023-07-24T07:16:25Z</time>
      </trkpt>
      <trkpt lat="44.43875" lon="5.42339">
        <ele>961.7</ele>
        <time>2023-07-24T07:16:26Z</time>
      </trkpt>
      <trkpt lat="44.43874" lon="5.42337">
        <ele>961.9</ele>
        <time>2023-07-24T07:16:27Z</time>
      </trkpt>
      <trkpt lat="44.43874" lon="5.42335">
        <ele>962.1</ele>
        <time>2023-07-24T07:16:28Z</time>
      </trkpt>
      <trkpt lat="44.43873" lon="5.42333">
        <ele>962.3</ele>
        <time>2023-07-24T07:16:29Z</time>
      </trkpt>
      <trkpt lat="44.43872" lon="5.42331">
        <ele>962.5</ele>
        <time>2023-07-24T07:16:30Z</time>
      </trkpt>
      <trkpt lat="44.43872" lon="5.4233">
        <ele>962.7</ele>
        <time>2023-07-24T07:16:31Z</time>
      </trkpt>
      <trkpt lat="44.43871" lon="5.42328">
        <ele>962.9</ele>
        <time>2023-07-24T07:16:32Z</time>
      </trkpt>
      <trkpt lat="44.4387" lon="5.42326">
        <ele>963.1</ele>
        <time>2023-07-24T07:16:33Z</time>
      </trkpt>
      <trkpt lat="44.43869" lon="5.42326">
        <ele>963.2</ele>
        <time>2023-07-24T07:16:34Z</time>
      </trkpt>
      <trkpt lat="44.43869" lon="5.42325">
        <ele>963.3</ele>
        <time>2023-07-24T07:16:35Z</time>
      </trkpt>
      <trkpt lat="44.43868" lon="5.42325">
        <ele>963.4</ele>
        <time>2023-07-24T07:16:36Z</time>
      </trkpt>
      <trkpt lat="44.43867" lon="5.42325">
        <ele>963.6</ele>
        <time>2023-07-24T07:16:37Z</time>
      </trkpt>
      <trkpt lat="44.43865" lon="5.42324">
        <ele>963.7</ele>
        <time>2023-07-24T07:16:38Z</time>
      </trkpt>
      <trkpt lat="44.43864" lon="5.42323">
        <ele>964</ele>
        <time>2023-07-24T07:16:39Z</time>
      </trkpt>
      <trkpt lat="44.43863" lon="5.42322">
        <ele>964.1</ele>
        <time>2023-07-24T07:16:40Z</time>
      </trkpt>
      <trkpt lat="44.43861" lon="5.42319">
        <ele>964.5</ele>
        <time>2023-07-24T07:16:41Z</time>
      </trkpt>
      <trkpt lat="44.4386" lon="5.42318">
        <ele>964.7</ele>
        <time>2023-07-24T07:16:42Z</time>
      </trkpt>
      <trkpt lat="44.43858" lon="5.42316">
        <ele>965</ele>
        <time>2023-07-24T07:16:43Z</time>
      </trkpt>
      <trkpt lat="44.43857" lon="5.42315">
        <ele>965.2</ele>
        <time>2023-07-24T07:16:44Z</time>
      </trkpt>
      <trkpt lat="44.43855" lon="5.42314">
        <ele>965.4</ele>
        <time>2023-07-24T07:16:45Z</time>
      </trkpt>
      <trkpt lat="44.43854" lon="5.42313">
        <ele>965.6</ele>
        <time>2023-07-24T07:16:46Z</time>
      </trkpt>
      <trkpt lat="44.43852" lon="5.42311">
        <ele>965.9</ele>
        <time>2023-07-24T07:16:47Z</time>
      </trkpt>
      <trkpt lat="44.43851" lon="5.4231">
        <ele>966.1</ele>
        <time>2023-07-24T07:16:48Z</time>
      </trkpt>
      <trkpt lat="44.4385" lon="5.42308">
        <ele>966.3</ele>
        <time>2023-07-24T07:16:49Z</time>
      </trkpt>
      <trkpt lat="44.43849" lon="5.42307">
        <ele>966.5</ele>
        <time>2023-07-24T07:16:50Z</time>
      </trkpt>
      <trkpt lat="44.43848" lon="5.42306">
        <ele>966.7</ele>
        <time>2023-07-24T07:16:51Z</time>
      </trkpt>
      <trkpt lat="44.43846" lon="5.42305">
        <ele>966.9</ele>
        <time>2023-07-24T07:16:52Z</time>
      </trkpt>
      <trkpt lat="44.43845" lon="5.42302">
        <ele>967.2</ele>
        <time>2023-07-24T07:16:53Z</time>
      </trkpt>
      <trkpt lat="44.43844" lon="5.42301">
        <ele>967.3</ele>
        <time>2023-07-24T07:16:54Z</time>
      </trkpt>
      <trkpt lat="44.43843" lon="5.42299">
        <ele>967.6</ele>
        <time>2023-07-24T07:16:55Z</time>
      </trkpt>
      <trkpt lat="44.43842" lon="5.42297">
        <ele>967.8</ele>
        <time>2023-07-24T07:16:56Z</time>
      </trkpt>
      <trkpt lat="44.43841" lon="5.42295">
        <ele>968</ele>
        <time>2023-07-24T07:16:57Z</time>
      </trkpt>
      <trkpt lat="44.4384" lon="5.42294">
        <ele>968.2</ele>
        <time>2023-07-24T07:16:58Z</time>
      </trkpt>
      <trkpt lat="44.4384" lon="5.42292">
        <ele>968.4</ele>
        <time>2023-07-24T07:16:59Z</time>
      </trkpt>
      <trkpt lat="44.43839" lon="5.4229">
        <ele>968.6</ele>
        <time>2023-07-24T07:17:00Z</time>
      </trkpt>
      <trkpt lat="44.43838" lon="5.42288">
        <ele>968.8</ele>
        <time>2023-07-24T07:17:01Z</time>
      </trkpt>
      <trkpt lat="44.43837" lon="5.42287">
        <ele>969</ele>
        <time>2023-07-24T07:17:02Z</time>
      </trkpt>
      <trkpt lat="44.43835" lon="5.42285">
        <ele>969.3</ele>
        <time>2023-07-24T07:17:03Z</time>
      </trkpt>
      <trkpt lat="44.43834" lon="5.42284">
        <ele>969.5</ele>
        <time>2023-07-24T07:17:04Z</time>
      </trkpt>
      <trkpt lat="44.43833" lon="5.42282">
        <ele>969.7</ele>
        <time>2023-07-24T07:17:05Z</time>
      </trkpt>
      <trkpt lat="44.43832" lon="5.42281">
        <ele>969.9</ele>
        <time>2023-07-24T07:17:06Z</time>
      </trkpt>
      <trkpt lat="44.43831" lon="5.42279">
        <ele>970.1</ele>
        <time>2023-07-24T07:17:07Z</time>
      </trkpt>
      <trkpt lat="44.4383" lon="5.42278">
        <ele>970.2</ele>
        <time>2023-07-24T07:17:08Z</time>
      </trkpt>
      <trkpt lat="44.43829" lon="5.42277">
        <ele>970.4</ele>
        <time>2023-07-24T07:17:09Z</time>
      </trkpt>
      <trkpt lat="44.43828" lon="5.42275">
        <ele>970.6</ele>
        <time>2023-07-24T07:17:10Z</time>
      </trkpt>
      <trkpt lat="44.43827" lon="5.42274">
        <ele>970.8</ele>
        <time>2023-07-24T07:17:11Z</time>
      </trkpt>
      <trkpt lat="44.43826" lon="5.42271">
        <ele>971.1</ele>
        <time>2023-07-24T07:17:12Z</time>
      </trkpt>
      <trkpt lat="44.43825" lon="5.42267">
        <ele>971.5</ele>
        <time>2023-07-24T07:17:13Z</time>
      </trkpt>
      <trkpt lat="44.43825" lon="5.42266">
        <ele>971.6</ele>
        <time>2023-07-24T07:17:14Z</time>
      </trkpt>
      <trkpt lat="44.43825" lon="5.42264">
        <ele>971.8</ele>
        <time>2023-07-24T07:17:15Z</time>
      </trkpt>
      <trkpt lat="44.43824" lon="5.42262">
        <ele>972</ele>
        <time>2023-07-24T07:17:16Z</time>
      </trkpt>
      <trkpt lat="44.43824" lon="5.42259">
        <ele>972.2</ele>
        <time>2023-07-24T07:17:17Z</time>
      </trkpt>
      <trkpt lat="44.43823" lon="5.42257">
        <ele>972.5</ele>
        <time>2023-07-24T07:17:18Z</time>
      </trkpt>
      <trkpt lat="44.43823" lon="5.42255">
        <ele>972.7</ele>
        <time>2023-07-24T07:17:19Z</time>
      </trkpt>
      <trkpt lat="44.43822" lon="5.42252">
        <ele>972.9</ele>
        <time>2023-07-24T07:17:20Z</time>
      </trkpt>
      <trkpt lat="44.43822" lon="5.42248">
        <ele>973.4</ele>
        <time>2023-07-24T07:17:21Z</time>
      </trkpt>
      <trkpt lat="44.43822" lon="5.42247">
        <ele>973.5</ele>
        <time>2023-07-24T07:17:22Z</time>
      </trkpt>
      <trkpt lat="44.43821" lon="5.42243">
        <ele>973.9</ele>
        <time>2023-07-24T07:17:23Z</time>
      </trkpt>
      <trkpt lat="44.43821" lon="5.42241">
        <ele>974</ele>
        <time>2023-07-24T07:17:24Z</time>
      </trkpt>
      <trkpt lat="44.4382" lon="5.42238">
        <ele>974.4</ele>
        <time>2023-07-24T07:17:25Z</time>
      </trkpt>
      <trkpt lat="44.43819" lon="5.42237">
        <ele>974.5</ele>
        <time>2023-07-24T07:17:26Z</time>
      </trkpt>
      <trkpt lat="44.43818" lon="5.42233">
        <ele>974.8</ele>
        <time>2023-07-24T07:17:27Z</time>
      </trkpt>
      <trkpt lat="44.43818" lon="5.42232">
        <ele>975</ele>
        <time>2023-07-24T07:17:28Z</time>
      </trkpt>
      <trkpt lat="44.43818" lon="5.4223">
        <ele>975.2</ele>
        <time>2023-07-24T07:17:29Z</time>
      </trkpt>
      <trkpt lat="44.43817" lon="5.42227">
        <ele>975.4</ele>
        <time>2023-07-24T07:17:30Z</time>
      </trkpt>
      <trkpt lat="44.43817" lon="5.42225">
        <ele>975.7</ele>
        <time>2023-07-24T07:17:31Z</time>
      </trkpt>
      <trkpt lat="44.43816" lon="5.42223">
        <ele>975.9</ele>
        <time>2023-07-24T07:17:32Z</time>
      </trkpt>
      <trkpt lat="44.43815" lon="5.42219">
        <ele>976.3</ele>
        <time>2023-07-24T07:17:33Z</time>
      </trkpt>
      <trkpt lat="44.43815" lon="5.42217">
        <ele>976.4</ele>
        <time>2023-07-24T07:17:34Z</time>
      </trkpt>
      <trkpt lat="44.43814" lon="5.42215">
        <ele>976.6</ele>
        <time>2023-07-24T07:17:35Z</time>
      </trkpt>
      <trkpt lat="44.43814" lon="5.42213">
        <ele>976.8</ele>
        <time>2023-07-24T07:17:36Z</time>
      </trkpt>
      <trkpt lat="44.43814" lon="5.4221">
        <ele>977.1</ele>
        <time>2023-07-24T07:17:37Z</time>
      </trkpt>
      <trkpt lat="44.43813" lon="5.42208">
        <ele>977.3</ele>
        <time>2023-07-24T07:17:38Z</time>
      </trkpt>
      <trkpt lat="44.43813" lon="5.42207">
        <ele>977.4</ele>
        <time>2023-07-24T07:17:39Z</time>
      </trkpt>
      <trkpt lat="44.43813" lon="5.42204">
        <ele>977.7</ele>
        <time>2023-07-24T07:17:40Z</time>
      </trkpt>
      <trkpt lat="44.43813" lon="5.42203">
        <ele>977.8</ele>
        <time>2023-07-24T07:17:41Z</time>
      </trkpt>
      <trkpt lat="44.43813" lon="5.42202">
        <ele>977.9</ele>
        <time>2023-07-24T07:17:42Z</time>
      </trkpt>
      <trkpt lat="44.43814" lon="5.422">
        <ele>978.1</ele>
        <time>2023-07-24T07:17:43Z</time>
      </trkpt>
      <trkpt lat="44.43814" lon="5.42197">
        <ele>978.4</ele>
        <time>2023-07-24T07:17:44Z</time>
      </trkpt>
      <trkpt lat="44.43815" lon="5.42195">
        <ele>978.6</ele>
        <time>2023-07-24T07:17:45Z</time>
      </trkpt>
      <trkpt lat="44.43815" lon="5.42193">
        <ele>978.8</ele>
        <time>2023-07-24T07:17:46Z</time>
      </trkpt>
      <trkpt lat="44.43815" lon="5.42191">
        <ele>978.9</ele>
        <time>2023-07-24T07:17:47Z</time>
      </trkpt>
      <trkpt lat="44.43815" lon="5.42189">
        <ele>979.1</ele>
        <time>2023-07-24T07:17:48Z</time>
      </trkpt>
      <trkpt lat="44.43815" lon="5.42188">
        <ele>979.2</ele>
        <time>2023-07-24T07:17:49Z</time>
      </trkpt>
      <trkpt lat="44.43815" lon="5.42187">
        <ele>979.4</ele>
        <time>2023-07-24T07:17:50Z</time>
      </trkpt>
      <trkpt lat="44.43815" lon="5.42186">
        <ele>979.4</ele>
        <time>2023-07-24T07:17:51Z</time>
      </trkpt>
      <trkpt lat="44.43815" lon="5.42185">
        <ele>979.5</ele>
        <time>2023-07-24T07:17:52Z</time>
      </trkpt>
      <trkpt lat="44.43815" lon="5.42185">
        <ele>979.5</ele>
        <time>2023-07-24T07:17:53Z</time>
      </trkpt>
      <trkpt lat="44.43815" lon="5.42184">
        <ele>979.6</ele>
        <time>2023-07-24T07:17:54Z</time>
      </trkpt>
      <trkpt lat="44.43815" lon="5.42183">
        <ele>979.7</ele>
        <time>2023-07-24T07:17:55Z</time>
      </trkpt>
      <trkpt lat="44.43815" lon="5.42183">
        <ele>979.7</ele>
        <time>2023-07-24T07:17:56Z</time>
      </trkpt>
      <trkpt lat="44.43815" lon="5.42182">
        <ele>979.8</ele>
        <time>2023-07-24T07:17:57Z</time>
      </trkpt>
      <trkpt lat="44.43815" lon="5.42182">
        <ele>979.8</ele>
        <time>2023-07-24T07:17:58Z</time>
      </trkpt>
      <trkpt lat="44.43816" lon="5.42181">
        <ele>979.9</ele>
        <time>2023-07-24T07:17:59Z</time>
      </trkpt>
      <trkpt lat="44.43816" lon="5.4218">
        <ele>980</ele>
        <time>2023-07-24T07:18:00Z</time>
      </trkpt>
      <trkpt lat="44.43816" lon="5.4218">
        <ele>980</ele>
        <time>2023-07-24T07:23:38Z</time>
      </trkpt>
      <trkpt lat="44.43816" lon="5.42179">
        <ele>980</ele>
        <time>2023-07-24T07:23:39Z</time>
      </trkpt>
      <trkpt lat="44.43816" lon="5.42178">
        <ele>979.9</ele>
        <time>2023-07-24T07:23:40Z</time>
      </trkpt>
      <trkpt lat="44.43816" lon="5.42178">
        <ele>979.8</ele>
        <time>2023-07-24T07:23:41Z</time>
      </trkpt>
      <trkpt lat="44.43816" lon="5.42173">
        <ele>979.2</ele>
        <time>2023-07-24T07:23:42Z</time>
      </trkpt>
      <trkpt lat="44.43815" lon="5.42171">
        <ele>978.9</ele>
        <time>2023-07-24T07:23:43Z</time>
      </trkpt>
      <trkpt lat="44.43815" lon="5.42167">
        <ele>978.3</ele>
        <time>2023-07-24T07:23:44Z</time>
      </trkpt>
      <trkpt lat="44.43814" lon="5.42161">
        <ele>977.6</ele>
        <time>2023-07-24T07:23:45Z</time>
      </trkpt>
      <trkpt lat="44.43812" lon="5.42154">
        <ele>976.6</ele>
        <time>2023-07-24T07:23:46Z</time>
      </trkpt>
      <trkpt lat="44.4381" lon="5.42147">
        <ele>975.5</ele>
        <time>2023-07-24T07:23:47Z</time>
      </trkpt>
      <trkpt lat="44.43808" lon="5.42139">
        <ele>974.4</ele>
        <time>2023-07-24T07:23:48Z</time>
      </trkpt>
      <trkpt lat="44.43806" lon="5.42132">
        <ele>973.4</ele>
        <time>2023-07-24T07:23:49Z</time>
      </trkpt>
      <trkpt lat="44.43805" lon="5.42125">
        <ele>972.4</ele>
        <time>2023-07-24T07:23:50Z</time>
      </trkpt>
      <trkpt lat="44.43803" lon="5.42117">
        <ele>971.3</ele>
        <time>2023-07-24T07:23:51Z</time>
      </trkpt>
      <trkpt lat="44.438" lon="5.4211">
        <ele>970.2</ele>
        <time>2023-07-24T07:23:52Z</time>
      </trkpt>
      <trkpt lat="44.43797" lon="5.42103">
        <ele>969.1</ele>
        <time>2023-07-24T07:23:53Z</time>
      </trkpt>
      <trkpt lat="44.43795" lon="5.42096">
        <ele>968.1</ele>
        <time>2023-07-24T07:23:54Z</time>
      </trkpt>
      <trkpt lat="44.43793" lon="5.42089">
        <ele>967.2</ele>
        <time>2023-07-24T07:23:55Z</time>
      </trkpt>
      <trkpt lat="44.43791" lon="5.42084">
        <ele>966.3</ele>
        <time>2023-07-24T07:23:56Z</time>
      </trkpt>
      <trkpt lat="44.43791" lon="5.42078">
        <ele>965.5</ele>
        <time>2023-07-24T07:23:57Z</time>
      </trkpt>
      <trkpt lat="44.4379" lon="5.42072">
        <ele>964.8</ele>
        <time>2023-07-24T07:23:58Z</time>
      </trkpt>
      <trkpt lat="44.43789" lon="5.42067">
        <ele>964.1</ele>
        <time>2023-07-24T07:23:59Z</time>
      </trkpt>
      <trkpt lat="44.43789" lon="5.42063">
        <ele>963.5</ele>
        <time>2023-07-24T07:24:00Z</time>
      </trkpt>
      <trkpt lat="44.43788" lon="5.42058">
        <ele>962.9</ele>
        <time>2023-07-24T07:24:01Z</time>
      </trkpt>
      <trkpt lat="44.43788" lon="5.42053">
        <ele>962.2</ele>
        <time>2023-07-24T07:24:02Z</time>
      </trkpt>
      <trkpt lat="44.43787" lon="5.42048">
        <ele>961.6</ele>
        <time>2023-07-24T07:24:03Z</time>
      </trkpt>
      <trkpt lat="44.43787" lon="5.42044">
        <ele>961</ele>
        <time>2023-07-24T07:24:04Z</time>
      </trkpt>
      <trkpt lat="44.43786" lon="5.42039">
        <ele>960.4</ele>
        <time>2023-07-24T07:24:05Z</time>
      </trkpt>
      <trkpt lat="44.43786" lon="5.42035">
        <ele>959.8</ele>
        <time>2023-07-24T07:24:06Z</time>
      </trkpt>
      <trkpt lat="44.43785" lon="5.42031">
        <ele>959.2</ele>
        <time>2023-07-24T07:24:07Z</time>
      </trkpt>
      <trkpt lat="44.43784" lon="5.42029">
        <ele>958.9</ele>
        <time>2023-07-24T07:24:08Z</time>
      </trkpt>
      <trkpt lat="44.43784" lon="5.42024">
        <ele>958.3</ele>
        <time>2023-07-24T07:24:09Z</time>
      </trkpt>
      <trkpt lat="44.43784" lon="5.42023">
        <ele>958.1</ele>
        <time>2023-07-24T07:24:10Z</time>
      </trkpt>
      <trkpt lat="44.43785" lon="5.42018">
        <ele>957.4</ele>
        <time>2023-07-24T07:24:11Z</time>
      </trkpt>
      <trkpt lat="44.43786" lon="5.42017">
        <ele>957.2</ele>
        <time>2023-07-24T07:24:12Z</time>
      </trkpt>
      <trkpt lat="44.43787" lon="5.42012">
        <ele>956.5</ele>
        <time>2023-07-24T07:24:13Z</time>
      </trkpt>
      <trkpt lat="44.43788" lon="5.42011">
        <ele>956.3</ele>
        <time>2023-07-24T07:24:14Z</time>
      </trkpt>
      <trkpt lat="44.43789" lon="5.42007">
        <ele>955.8</ele>
        <time>2023-07-24T07:24:15Z</time>
      </trkpt>
      <trkpt lat="44.4379" lon="5.42006">
        <ele>955.6</ele>
        <time>2023-07-24T07:24:16Z</time>
      </trkpt>
      <trkpt lat="44.4379" lon="5.42002">
        <ele>955</ele>
        <time>2023-07-24T07:24:17Z</time>
      </trkpt>
      <trkpt lat="44.43791" lon="5.42">
        <ele>954.7</ele>
        <time>2023-07-24T07:24:18Z</time>
      </trkpt>
      <trkpt lat="44.43791" lon="5.41996">
        <ele>954.2</ele>
        <time>2023-07-24T07:24:19Z</time>
      </trkpt>
      <trkpt lat="44.43791" lon="5.41992">
        <ele>953.6</ele>
        <time>2023-07-24T07:24:20Z</time>
      </trkpt>
      <trkpt lat="44.43792" lon="5.41988">
        <ele>953.1</ele>
        <time>2023-07-24T07:24:21Z</time>
      </trkpt>
      <trkpt lat="44.43793" lon="5.41983">
        <ele>952.5</ele>
        <time>2023-07-24T07:24:22Z</time>
      </trkpt>
      <trkpt lat="44.43793" lon="5.41979">
        <ele>951.9</ele>
        <time>2023-07-24T07:24:23Z</time>
      </trkpt>
      <trkpt lat="44.43793" lon="5.41975">
        <ele>951.4</ele>
        <time>2023-07-24T07:24:24Z</time>
      </trkpt>
      <trkpt lat="44.43793" lon="5.41971">
        <ele>950.9</ele>
        <time>2023-07-24T07:24:25Z</time>
      </trkpt>
      <trkpt lat="44.43792" lon="5.41966">
        <ele>950.1</ele>
        <time>2023-07-24T07:24:26Z</time>
      </trkpt>
      <trkpt lat="44.43791" lon="5.41965">
        <ele>949.9</ele>
        <time>2023-07-24T07:24:27Z</time>
      </trkpt>
      <trkpt lat="44.43789" lon="5.41962">
        <ele>949.4</ele>
        <time>2023-07-24T07:24:28Z</time>
      </trkpt>
      <trkpt lat="44.43787" lon="5.41957">
        <ele>948.6</ele>
        <time>2023-07-24T07:24:29Z</time>
      </trkpt>
      <trkpt lat="44.43786" lon="5.41956">
        <ele>948.4</ele>
        <time>2023-07-24T07:24:30Z</time>
      </trkpt>
      <trkpt lat="44.43784" lon="5.41951">
        <ele>947.6</ele>
        <time>2023-07-24T07:24:31Z</time>
      </trkpt>
      <trkpt lat="44.43784" lon="5.41949">
        <ele>947.4</ele>
        <time>2023-07-24T07:24:32Z</time>
      </trkpt>
      <trkpt lat="44.43783" lon="5.41944">
        <ele>946.8</ele>
        <time>2023-07-24T07:24:33Z</time>
      </trkpt>
      <trkpt lat="44.43783" lon="5.4194">
        <ele>946.1</ele>
        <time>2023-07-24T07:24:34Z</time>
      </trkpt>
      <trkpt lat="44.43783" lon="5.41935">
        <ele>945.6</ele>
        <time>2023-07-24T07:24:35Z</time>
      </trkpt>
      <trkpt lat="44.43785" lon="5.41931">
        <ele>944.9</ele>
        <time>2023-07-24T07:24:36Z</time>
      </trkpt>
      <trkpt lat="44.43786" lon="5.41927">
        <ele>944.3</ele>
        <time>2023-07-24T07:24:37Z</time>
      </trkpt>
      <trkpt lat="44.43787" lon="5.41923">
        <ele>943.7</ele>
        <time>2023-07-24T07:24:38Z</time>
      </trkpt>
      <trkpt lat="44.43788" lon="5.41919">
        <ele>943.2</ele>
        <time>2023-07-24T07:24:39Z</time>
      </trkpt>
      <trkpt lat="44.43789" lon="5.41915">
        <ele>942.7</ele>
        <time>2023-07-24T07:24:40Z</time>
      </trkpt>
      <trkpt lat="44.43787" lon="5.41911">
        <ele>941.5</ele>
        <time>2023-07-24T07:24:41Z</time>
      </trkpt>
      <trkpt lat="44.43786" lon="5.4191">
        <ele>941.4</ele>
        <time>2023-07-24T07:24:42Z</time>
      </trkpt>
      <trkpt lat="44.43785" lon="5.41909">
        <ele>941.3</ele>
        <time>2023-07-24T07:24:43Z</time>
      </trkpt>
      <trkpt lat="44.43785" lon="5.41909">
        <ele>941.3</ele>
        <time>2023-07-24T07:24:44Z</time>
      </trkpt>
      <trkpt lat="44.43785" lon="5.41908">
        <ele>941.3</ele>
        <time>2023-07-24T07:24:45Z</time>
      </trkpt>
      <trkpt lat="44.43785" lon="5.41908">
        <ele>941.3</ele>
        <time>2023-07-24T07:24:46Z</time>
      </trkpt>
      <trkpt lat="44.43785" lon="5.41908">
        <ele>941.3</ele>
        <time>2023-07-24T07:24:47Z</time>
      </trkpt>
      <trkpt lat="44.43784" lon="5.41908">
        <ele>941.2</ele>
        <time>2023-07-24T07:24:48Z</time>
      </trkpt>
      <trkpt lat="44.43784" lon="5.41907">
        <ele>941.2</ele>
        <time>2023-07-24T07:24:49Z</time>
      </trkpt>
      <trkpt lat="44.43784" lon="5.41907">
        <ele>941.2</ele>
        <time>2023-07-24T07:24:50Z</time>
      </trkpt>
      <trkpt lat="44.43784" lon="5.41907">
        <ele>941.2</ele>
        <time>2023-07-24T07:24:51Z</time>
      </trkpt>
      <trkpt lat="44.43784" lon="5.41907">
        <ele>941.1</ele>
        <time>2023-07-24T07:24:52Z</time>
      </trkpt>
      <trkpt lat="44.43784" lon="5.41906">
        <ele>941.1</ele>
        <time>2023-07-24T07:24:53Z</time>
      </trkpt>
      <trkpt lat="44.43783" lon="5.41906">
        <ele>941.1</ele>
        <time>2023-07-24T07:24:54Z</time>
      </trkpt>
      <trkpt lat="44.43783" lon="5.41906">
        <ele>941.1</ele>
        <time>2023-07-24T07:24:55Z</time>
      </trkpt>
      <trkpt lat="44.43783" lon="5.41906">
        <ele>941</ele>
        <time>2023-07-24T07:24:56Z</time>
      </trkpt>
      <trkpt lat="44.43783" lon="5.41905">
        <ele>941</ele>
        <time>2023-07-24T07:24:57Z</time>
      </trkpt>
      <trkpt lat="44.43783" lon="5.41905">
        <ele>941</ele>
        <time>2023-07-24T07:24:58Z</time>
      </trkpt>
      <trkpt lat="44.43782" lon="5.41905">
        <ele>941</ele>
        <time>2023-07-24T07:24:59Z</time>
      </trkpt>
      <trkpt lat="44.43782" lon="5.41905">
        <ele>941</ele>
        <time>2023-07-24T07:25:00Z</time>
      </trkpt>
      <trkpt lat="44.43782" lon="5.41904">
        <ele>940.9</ele>
        <time>2023-07-24T07:25:01Z</time>
      </trkpt>
      <trkpt lat="44.43782" lon="5.41904">
        <ele>940.9</ele>
        <time>2023-07-24T07:25:08Z</time>
      </trkpt>
      <trkpt lat="44.43782" lon="5.41904">
        <ele>940.9</ele>
        <time>2023-07-24T07:25:09Z</time>
      </trkpt>
      <trkpt lat="44.43782" lon="5.41904">
        <ele>940.9</ele>
        <time>2023-07-24T07:25:10Z</time>
      </trkpt>
      <trkpt lat="44.43779" lon="5.419">
        <ele>940.5</ele>
        <time>2023-07-24T07:25:11Z</time>
      </trkpt>
      <trkpt lat="44.43778" lon="5.41898">
        <ele>940.4</ele>
        <time>2023-07-24T07:25:12Z</time>
      </trkpt>
      <trkpt lat="44.43776" lon="5.41895">
        <ele>940.1</ele>
        <time>2023-07-24T07:25:13Z</time>
      </trkpt>
      <trkpt lat="44.43774" lon="5.41893">
        <ele>939.9</ele>
        <time>2023-07-24T07:25:14Z</time>
      </trkpt>
      <trkpt lat="44.43771" lon="5.41892">
        <ele>939.6</ele>
        <time>2023-07-24T07:25:15Z</time>
      </trkpt>
      <trkpt lat="44.43768" lon="5.41892">
        <ele>939.3</ele>
        <time>2023-07-24T07:25:16Z</time>
      </trkpt>
      <trkpt lat="44.43764" lon="5.41892">
        <ele>939</ele>
        <time>2023-07-24T07:25:17Z</time>
      </trkpt>
      <trkpt lat="44.43759" lon="5.41892">
        <ele>938.5</ele>
        <time>2023-07-24T07:25:18Z</time>
      </trkpt>
      <trkpt lat="44.43755" lon="5.41892">
        <ele>938.1</ele>
        <time>2023-07-24T07:25:19Z</time>
      </trkpt>
      <trkpt lat="44.43751" lon="5.41892">
        <ele>937.8</ele>
        <time>2023-07-24T07:25:20Z</time>
      </trkpt>
      <trkpt lat="44.43748" lon="5.41891">
        <ele>937.5</ele>
        <time>2023-07-24T07:25:21Z</time>
      </trkpt>
      <trkpt lat="44.43745" lon="5.41889">
        <ele>937.3</ele>
        <time>2023-07-24T07:25:22Z</time>
      </trkpt>
      <trkpt lat="44.43743" lon="5.41886">
        <ele>937</ele>
        <time>2023-07-24T07:25:23Z</time>
      </trkpt>
      <trkpt lat="44.43741" lon="5.41883">
        <ele>936.7</ele>
        <time>2023-07-24T07:25:24Z</time>
      </trkpt>
      <trkpt lat="44.43739" lon="5.4188">
        <ele>936.4</ele>
        <time>2023-07-24T07:25:25Z</time>
      </trkpt>
      <trkpt lat="44.43737" lon="5.41876">
        <ele>936.1</ele>
        <time>2023-07-24T07:25:26Z</time>
      </trkpt>
      <trkpt lat="44.43736" lon="5.41873">
        <ele>935.9</ele>
        <time>2023-07-24T07:25:27Z</time>
      </trkpt>
      <trkpt lat="44.43735" lon="5.41868">
        <ele>935.5</ele>
        <time>2023-07-24T07:25:28Z</time>
      </trkpt>
      <trkpt lat="44.43735" lon="5.41866">
        <ele>935.4</ele>
        <time>2023-07-24T07:25:29Z</time>
      </trkpt>
      <trkpt lat="44.43734" lon="5.41862">
        <ele>935.2</ele>
        <time>2023-07-24T07:25:30Z</time>
      </trkpt>
      <trkpt lat="44.43731" lon="5.41858">
        <ele>934.8</ele>
        <time>2023-07-24T07:25:31Z</time>
      </trkpt>
      <trkpt lat="44.4373" lon="5.41858">
        <ele>934.7</ele>
        <time>2023-07-24T07:25:32Z</time>
      </trkpt>
      <trkpt lat="44.43726" lon="5.41857">
        <ele>934.4</ele>
        <time>2023-07-24T07:25:33Z</time>
      </trkpt>
      <trkpt lat="44.43723" lon="5.41858">
        <ele>934.1</ele>
        <time>2023-07-24T07:25:34Z</time>
      </trkpt>
      <trkpt lat="44.43719" lon="5.41858">
        <ele>933.7</ele>
        <time>2023-07-24T07:25:35Z</time>
      </trkpt>
      <trkpt lat="44.43716" lon="5.41858">
        <ele>933.5</ele>
        <time>2023-07-24T07:25:36Z</time>
      </trkpt>
      <trkpt lat="44.43712" lon="5.41857">
        <ele>933.1</ele>
        <time>2023-07-24T07:25:37Z</time>
      </trkpt>
      <trkpt lat="44.43711" lon="5.41856">
        <ele>933</ele>
        <time>2023-07-24T07:25:38Z</time>
      </trkpt>
      <trkpt lat="44.43707" lon="5.41855">
        <ele>932.7</ele>
        <time>2023-07-24T07:25:39Z</time>
      </trkpt>
      <trkpt lat="44.43704" lon="5.41853">
        <ele>932.3</ele>
        <time>2023-07-24T07:25:40Z</time>
      </trkpt>
      <trkpt lat="44.437" lon="5.41851">
        <ele>931.9</ele>
        <time>2023-07-24T07:25:41Z</time>
      </trkpt>
      <trkpt lat="44.43697" lon="5.4185">
        <ele>931.6</ele>
        <time>2023-07-24T07:25:42Z</time>
      </trkpt>
      <trkpt lat="44.43693" lon="5.41849">
        <ele>931.3</ele>
        <time>2023-07-24T07:25:43Z</time>
      </trkpt>
      <trkpt lat="44.4369" lon="5.41848">
        <ele>931</ele>
        <time>2023-07-24T07:25:44Z</time>
      </trkpt>
      <trkpt lat="44.43687" lon="5.41846">
        <ele>930.7</ele>
        <time>2023-07-24T07:25:45Z</time>
      </trkpt>
      <trkpt lat="44.43686" lon="5.41845">
        <ele>930.6</ele>
        <time>2023-07-24T07:25:46Z</time>
      </trkpt>
      <trkpt lat="44.43683" lon="5.41842">
        <ele>930.3</ele>
        <time>2023-07-24T07:25:47Z</time>
      </trkpt>
      <trkpt lat="44.43682" lon="5.41841">
        <ele>930.2</ele>
        <time>2023-07-24T07:25:48Z</time>
      </trkpt>
      <trkpt lat="44.4368" lon="5.41838">
        <ele>929.9</ele>
        <time>2023-07-24T07:25:49Z</time>
      </trkpt>
      <trkpt lat="44.43677" lon="5.41835">
        <ele>929.6</ele>
        <time>2023-07-24T07:25:50Z</time>
      </trkpt>
      <trkpt lat="44.43675" lon="5.41831">
        <ele>929.3</ele>
        <time>2023-07-24T07:25:51Z</time>
      </trkpt>
      <trkpt lat="44.43674" lon="5.41827">
        <ele>929</ele>
        <time>2023-07-24T07:25:52Z</time>
      </trkpt>
      <trkpt lat="44.43673" lon="5.41823">
        <ele>928.7</ele>
        <time>2023-07-24T07:25:53Z</time>
      </trkpt>
      <trkpt lat="44.43672" lon="5.41818">
        <ele>928.4</ele>
        <time>2023-07-24T07:25:54Z</time>
      </trkpt>
      <trkpt lat="44.43672" lon="5.41814">
        <ele>928.1</ele>
        <time>2023-07-24T07:25:55Z</time>
      </trkpt>
      <trkpt lat="44.43671" lon="5.41809">
        <ele>927.8</ele>
        <time>2023-07-24T07:25:56Z</time>
      </trkpt>
      <trkpt lat="44.4367" lon="5.41805">
        <ele>927.5</ele>
        <time>2023-07-24T07:25:57Z</time>
      </trkpt>
      <trkpt lat="44.43668" lon="5.41801">
        <ele>927.2</ele>
        <time>2023-07-24T07:25:58Z</time>
      </trkpt>
      <trkpt lat="44.43665" lon="5.41798">
        <ele>926.9</ele>
        <time>2023-07-24T07:25:59Z</time>
      </trkpt>
      <trkpt lat="44.43663" lon="5.41798">
        <ele>926.7</ele>
        <time>2023-07-24T07:26:00Z</time>
      </trkpt>
      <trkpt lat="44.43659" lon="5.41798">
        <ele>926.3</ele>
        <time>2023-07-24T07:26:01Z</time>
      </trkpt>
      <trkpt lat="44.43654" lon="5.41799">
        <ele>925.9</ele>
        <time>2023-07-24T07:26:02Z</time>
      </trkpt>
      <trkpt lat="44.4365" lon="5.418">
        <ele>925.5</ele>
        <time>2023-07-24T07:26:03Z</time>
      </trkpt>
      <trkpt lat="44.43646" lon="5.418">
        <ele>925.2</ele>
        <time>2023-07-24T07:26:04Z</time>
      </trkpt>
      <trkpt lat="44.43643" lon="5.418">
        <ele>924.9</ele>
        <time>2023-07-24T07:26:05Z</time>
      </trkpt>
      <trkpt lat="44.4364" lon="5.418">
        <ele>924.6</ele>
        <time>2023-07-24T07:26:06Z</time>
      </trkpt>
      <trkpt lat="44.43639" lon="5.41801">
        <ele>924.5</ele>
        <time>2023-07-24T07:26:07Z</time>
      </trkpt>
      <trkpt lat="44.43636" lon="5.41802">
        <ele>924.2</ele>
        <time>2023-07-24T07:26:08Z</time>
      </trkpt>
      <trkpt lat="44.43635" lon="5.41803">
        <ele>924.1</ele>
        <time>2023-07-24T07:26:09Z</time>
      </trkpt>
      <trkpt lat="44.43631" lon="5.41804">
        <ele>923.8</ele>
        <time>2023-07-24T07:26:10Z</time>
      </trkpt>
      <trkpt lat="44.4363" lon="5.41804">
        <ele>923.7</ele>
        <time>2023-07-24T07:26:11Z</time>
      </trkpt>
      <trkpt lat="44.43627" lon="5.41805">
        <ele>923.4</ele>
        <time>2023-07-24T07:26:12Z</time>
      </trkpt>
      <trkpt lat="44.43626" lon="5.41806">
        <ele>923.3</ele>
        <time>2023-07-24T07:26:13Z</time>
      </trkpt>
      <trkpt lat="44.43623" lon="5.41808">
        <ele>923</ele>
        <time>2023-07-24T07:26:14Z</time>
      </trkpt>
      <trkpt lat="44.43622" lon="5.41809">
        <ele>922.9</ele>
        <time>2023-07-24T07:26:15Z</time>
      </trkpt>
      <trkpt lat="44.4362" lon="5.4181">
        <ele>922.7</ele>
        <time>2023-07-24T07:26:16Z</time>
      </trkpt>
      <trkpt lat="44.43619" lon="5.41811">
        <ele>922.6</ele>
        <time>2023-07-24T07:26:17Z</time>
      </trkpt>
      <trkpt lat="44.43616" lon="5.41812">
        <ele>922.3</ele>
        <time>2023-07-24T07:26:18Z</time>
      </trkpt>
      <trkpt lat="44.43615" lon="5.41812">
        <ele>922.2</ele>
        <time>2023-07-24T07:26:19Z</time>
      </trkpt>
      <trkpt lat="44.43613" lon="5.41813">
        <ele>922</ele>
        <time>2023-07-24T07:26:20Z</time>
      </trkpt>
      <trkpt lat="44.4361" lon="5.41813">
        <ele>921.7</ele>
        <time>2023-07-24T07:26:22Z</time>
      </trkpt>
      <trkpt lat="44.43608" lon="5.41812">
        <ele>921.6</ele>
        <time>2023-07-24T07:26:23Z</time>
      </trkpt>
      <trkpt lat="44.43607" lon="5.41811">
        <ele>921.5</ele>
        <time>2023-07-24T07:26:24Z</time>
      </trkpt>
      <trkpt lat="44.43605" lon="5.4181">
        <ele>921.2</ele>
        <time>2023-07-24T07:26:25Z</time>
      </trkpt>
      <trkpt lat="44.43604" lon="5.41809">
        <ele>921.2</ele>
        <time>2023-07-24T07:26:26Z</time>
      </trkpt>
      <trkpt lat="44.43603" lon="5.41809">
        <ele>921.1</ele>
        <time>2023-07-24T07:26:27Z</time>
      </trkpt>
      <trkpt lat="44.436" lon="5.41809">
        <ele>920.8</ele>
        <time>2023-07-24T07:26:28Z</time>
      </trkpt>
      <trkpt lat="44.43599" lon="5.41809">
        <ele>920.7</ele>
        <time>2023-07-24T07:26:29Z</time>
      </trkpt>
      <trkpt lat="44.43596" lon="5.41809">
        <ele>920.5</ele>
        <time>2023-07-24T07:26:30Z</time>
      </trkpt>
      <trkpt lat="44.43595" lon="5.41809">
        <ele>920.4</ele>
        <time>2023-07-24T07:26:31Z</time>
      </trkpt>
      <trkpt lat="44.43593" lon="5.41811">
        <ele>920.1</ele>
        <time>2023-07-24T07:26:32Z</time>
      </trkpt>
      <trkpt lat="44.43591" lon="5.41811">
        <ele>920</ele>
        <time>2023-07-24T07:26:33Z</time>
      </trkpt>
      <trkpt lat="44.4359" lon="5.41812">
        <ele>919.9</ele>
        <time>2023-07-24T07:26:34Z</time>
      </trkpt>
      <trkpt lat="44.43588" lon="5.41812">
        <ele>919.7</ele>
        <time>2023-07-24T07:26:35Z</time>
      </trkpt>
      <trkpt lat="44.43585" lon="5.41812">
        <ele>919.5</ele>
        <time>2023-07-24T07:26:36Z</time>
      </trkpt>
      <trkpt lat="44.43585" lon="5.41812">
        <ele>919.4</ele>
        <time>2023-07-24T07:26:37Z</time>
      </trkpt>
      <trkpt lat="44.43583" lon="5.41812">
        <ele>919.2</ele>
        <time>2023-07-24T07:26:38Z</time>
      </trkpt>
      <trkpt lat="44.43582" lon="5.41812">
        <ele>919.1</ele>
        <time>2023-07-24T07:26:39Z</time>
      </trkpt>
      <trkpt lat="44.4358" lon="5.41812">
        <ele>919</ele>
        <time>2023-07-24T07:26:40Z</time>
      </trkpt>
      <trkpt lat="44.43579" lon="5.41813">
        <ele>918.9</ele>
        <time>2023-07-24T07:26:41Z</time>
      </trkpt>
      <trkpt lat="44.43578" lon="5.41813">
        <ele>918.7</ele>
        <time>2023-07-24T07:26:42Z</time>
      </trkpt>
      <trkpt lat="44.43576" lon="5.41814">
        <ele>918.6</ele>
        <time>2023-07-24T07:26:43Z</time>
      </trkpt>
      <trkpt lat="44.43575" lon="5.41815">
        <ele>918.5</ele>
        <time>2023-07-24T07:26:44Z</time>
      </trkpt>
      <trkpt lat="44.43573" lon="5.41815">
        <ele>918.3</ele>
        <time>2023-07-24T07:26:45Z</time>
      </trkpt>
      <trkpt lat="44.43571" lon="5.41816">
        <ele>918.1</ele>
        <time>2023-07-24T07:26:46Z</time>
      </trkpt>
      <trkpt lat="44.4357" lon="5.41817">
        <ele>918</ele>
        <time>2023-07-24T07:26:47Z</time>
      </trkpt>
      <trkpt lat="44.43568" lon="5.41817">
        <ele>917.8</ele>
        <time>2023-07-24T07:26:48Z</time>
      </trkpt>
      <trkpt lat="44.43567" lon="5.41818">
        <ele>917.7</ele>
        <time>2023-07-24T07:26:49Z</time>
      </trkpt>
      <trkpt lat="44.43565" lon="5.41819">
        <ele>917.6</ele>
        <time>2023-07-24T07:26:50Z</time>
      </trkpt>
      <trkpt lat="44.43564" lon="5.4182">
        <ele>917.4</ele>
        <time>2023-07-24T07:26:51Z</time>
      </trkpt>
      <trkpt lat="44.43561" lon="5.41821">
        <ele>917.2</ele>
        <time>2023-07-24T07:26:52Z</time>
      </trkpt>
      <trkpt lat="44.4356" lon="5.41822">
        <ele>917.1</ele>
        <time>2023-07-24T07:26:53Z</time>
      </trkpt>
      <trkpt lat="44.43557" lon="5.41823">
        <ele>916.8</ele>
        <time>2023-07-24T07:26:54Z</time>
      </trkpt>
      <trkpt lat="44.43556" lon="5.41824">
        <ele>916.7</ele>
        <time>2023-07-24T07:26:55Z</time>
      </trkpt>
      <trkpt lat="44.43555" lon="5.41826">
        <ele>916.5</ele>
        <time>2023-07-24T07:26:56Z</time>
      </trkpt>
      <trkpt lat="44.43553" lon="5.41827">
        <ele>916.4</ele>
        <time>2023-07-24T07:26:57Z</time>
      </trkpt>
      <trkpt lat="44.4355" lon="5.41829">
        <ele>916.1</ele>
        <time>2023-07-24T07:26:58Z</time>
      </trkpt>
      <trkpt lat="44.43549" lon="5.4183">
        <ele>916</ele>
        <time>2023-07-24T07:26:59Z</time>
      </trkpt>
      <trkpt lat="44.43547" lon="5.41832">
        <ele>915.7</ele>
        <time>2023-07-24T07:27:00Z</time>
      </trkpt>
      <trkpt lat="44.43546" lon="5.41833">
        <ele>915.6</ele>
        <time>2023-07-24T07:27:01Z</time>
      </trkpt>
      <trkpt lat="44.43543" lon="5.41835">
        <ele>915.3</ele>
        <time>2023-07-24T07:27:02Z</time>
      </trkpt>
      <trkpt lat="44.43542" lon="5.41836">
        <ele>915.2</ele>
        <time>2023-07-24T07:27:03Z</time>
      </trkpt>
      <trkpt lat="44.43539" lon="5.41839">
        <ele>914.9</ele>
        <time>2023-07-24T07:27:04Z</time>
      </trkpt>
      <trkpt lat="44.43539" lon="5.4184">
        <ele>914.8</ele>
        <time>2023-07-24T07:27:05Z</time>
      </trkpt>
      <trkpt lat="44.43536" lon="5.41842">
        <ele>914.5</ele>
        <time>2023-07-24T07:27:06Z</time>
      </trkpt>
      <trkpt lat="44.43535" lon="5.41842">
        <ele>914.4</ele>
        <time>2023-07-24T07:27:07Z</time>
      </trkpt>
      <trkpt lat="44.43532" lon="5.41843">
        <ele>914.2</ele>
        <time>2023-07-24T07:27:08Z</time>
      </trkpt>
      <trkpt lat="44.43531" lon="5.41843">
        <ele>914.1</ele>
        <time>2023-07-24T07:27:09Z</time>
      </trkpt>
      <trkpt lat="44.43527" lon="5.41842">
        <ele>913.7</ele>
        <time>2023-07-24T07:27:10Z</time>
      </trkpt>
      <trkpt lat="44.43526" lon="5.41842">
        <ele>913.6</ele>
        <time>2023-07-24T07:27:11Z</time>
      </trkpt>
      <trkpt lat="44.43522" lon="5.41843">
        <ele>913.3</ele>
        <time>2023-07-24T07:27:12Z</time>
      </trkpt>
      <trkpt lat="44.43521" lon="5.41844">
        <ele>913.1</ele>
        <time>2023-07-24T07:27:13Z</time>
      </trkpt>
      <trkpt lat="44.43517" lon="5.41847">
        <ele>912.8</ele>
        <time>2023-07-24T07:27:14Z</time>
      </trkpt>
      <trkpt lat="44.43513" lon="5.4185">
        <ele>912.5</ele>
        <time>2023-07-24T07:27:15Z</time>
      </trkpt>
      <trkpt lat="44.43509" lon="5.41852">
        <ele>912.2</ele>
        <time>2023-07-24T07:27:16Z</time>
      </trkpt>
      <trkpt lat="44.43504" lon="5.41855">
        <ele>911.8</ele>
        <time>2023-07-24T07:27:17Z</time>
      </trkpt>
      <trkpt lat="44.43501" lon="5.41858">
        <ele>911.5</ele>
        <time>2023-07-24T07:27:18Z</time>
      </trkpt>
      <trkpt lat="44.43497" lon="5.4186">
        <ele>911.2</ele>
        <time>2023-07-24T07:27:19Z</time>
      </trkpt>
      <trkpt lat="44.43494" lon="5.41862">
        <ele>911</ele>
        <time>2023-07-24T07:27:20Z</time>
      </trkpt>
      <trkpt lat="44.4349" lon="5.41862">
        <ele>910.7</ele>
        <time>2023-07-24T07:27:21Z</time>
      </trkpt>
      <trkpt lat="44.43489" lon="5.41863">
        <ele>910.6</ele>
        <time>2023-07-24T07:27:22Z</time>
      </trkpt>
      <trkpt lat="44.43485" lon="5.41864">
        <ele>910.4</ele>
        <time>2023-07-24T07:27:23Z</time>
      </trkpt>
      <trkpt lat="44.43481" lon="5.41865">
        <ele>910.1</ele>
        <time>2023-07-24T07:27:24Z</time>
      </trkpt>
      <trkpt lat="44.43477" lon="5.41864">
        <ele>909.8</ele>
        <time>2023-07-24T07:27:25Z</time>
      </trkpt>
      <trkpt lat="44.43472" lon="5.41861">
        <ele>909.4</ele>
        <time>2023-07-24T07:27:26Z</time>
      </trkpt>
      <trkpt lat="44.43468" lon="5.41859">
        <ele>909.1</ele>
        <time>2023-07-24T07:27:27Z</time>
      </trkpt>
      <trkpt lat="44.43466" lon="5.41859">
        <ele>908.9</ele>
        <time>2023-07-24T07:27:28Z</time>
      </trkpt>
      <trkpt lat="44.43462" lon="5.41862">
        <ele>908.6</ele>
        <time>2023-07-24T07:27:29Z</time>
      </trkpt>
      <trkpt lat="44.43461" lon="5.41864">
        <ele>908.5</ele>
        <time>2023-07-24T07:27:30Z</time>
      </trkpt>
      <trkpt lat="44.43458" lon="5.41867">
        <ele>908.3</ele>
        <time>2023-07-24T07:27:31Z</time>
      </trkpt>
      <trkpt lat="44.43457" lon="5.41867">
        <ele>908.2</ele>
        <time>2023-07-24T07:27:32Z</time>
      </trkpt>
      <trkpt lat="44.43456" lon="5.41868">
        <ele>908.1</ele>
        <time>2023-07-24T07:27:33Z</time>
      </trkpt>
      <trkpt lat="44.43455" lon="5.41869">
        <ele>908</ele>
        <time>2023-07-24T07:27:34Z</time>
      </trkpt>
      <trkpt lat="44.43454" lon="5.41869">
        <ele>908</ele>
        <time>2023-07-24T07:27:35Z</time>
      </trkpt>
      <trkpt lat="44.43453" lon="5.41869">
        <ele>907.9</ele>
        <time>2023-07-24T07:27:36Z</time>
      </trkpt>
      <trkpt lat="44.43452" lon="5.41868">
        <ele>907.8</ele>
        <time>2023-07-24T07:27:37Z</time>
      </trkpt>
      <trkpt lat="44.43451" lon="5.41867">
        <ele>907.7</ele>
        <time>2023-07-24T07:27:38Z</time>
      </trkpt>
      <trkpt lat="44.4345" lon="5.41863">
        <ele>907.5</ele>
        <time>2023-07-24T07:27:39Z</time>
      </trkpt>
      <trkpt lat="44.43449" lon="5.41862">
        <ele>907.4</ele>
        <time>2023-07-24T07:27:40Z</time>
      </trkpt>
      <trkpt lat="44.43449" lon="5.4186">
        <ele>907.3</ele>
        <time>2023-07-24T07:27:41Z</time>
      </trkpt>
      <trkpt lat="44.43449" lon="5.41858">
        <ele>907.2</ele>
        <time>2023-07-24T07:27:42Z</time>
      </trkpt>
      <trkpt lat="44.43449" lon="5.41856">
        <ele>907.1</ele>
        <time>2023-07-24T07:27:43Z</time>
      </trkpt>
      <trkpt lat="44.43448" lon="5.41853">
        <ele>907</ele>
        <time>2023-07-24T07:27:44Z</time>
      </trkpt>
      <trkpt lat="44.4345" lon="5.41848">
        <ele>906.7</ele>
        <time>2023-07-24T07:27:45Z</time>
      </trkpt>
      <trkpt lat="44.4345" lon="5.41846">
        <ele>906.6</ele>
        <time>2023-07-24T07:27:46Z</time>
      </trkpt>
      <trkpt lat="44.43452" lon="5.41842">
        <ele>906.3</ele>
        <time>2023-07-24T07:27:47Z</time>
      </trkpt>
      <trkpt lat="44.43452" lon="5.4184">
        <ele>906.2</ele>
        <time>2023-07-24T07:27:48Z</time>
      </trkpt>
      <trkpt lat="44.43453" lon="5.41836">
        <ele>906</ele>
        <time>2023-07-24T07:27:49Z</time>
      </trkpt>
      <trkpt lat="44.43454" lon="5.41832">
        <ele>905.8</ele>
        <time>2023-07-24T07:27:50Z</time>
      </trkpt>
      <trkpt lat="44.43454" lon="5.41828">
        <ele>905.6</ele>
        <time>2023-07-24T07:27:51Z</time>
      </trkpt>
      <trkpt lat="44.43455" lon="5.41823">
        <ele>905.4</ele>
        <time>2023-07-24T07:27:52Z</time>
      </trkpt>
      <trkpt lat="44.43456" lon="5.41819">
        <ele>905.1</ele>
        <time>2023-07-24T07:27:53Z</time>
      </trkpt>
      <trkpt lat="44.43457" lon="5.41816">
        <ele>904.9</ele>
        <time>2023-07-24T07:27:54Z</time>
      </trkpt>
      <trkpt lat="44.43459" lon="5.41811">
        <ele>904.7</ele>
        <time>2023-07-24T07:27:55Z</time>
      </trkpt>
      <trkpt lat="44.43461" lon="5.41806">
        <ele>904.4</ele>
        <time>2023-07-24T07:27:56Z</time>
      </trkpt>
      <trkpt lat="44.43462" lon="5.418">
        <ele>904.1</ele>
        <time>2023-07-24T07:27:57Z</time>
      </trkpt>
      <trkpt lat="44.43463" lon="5.41794">
        <ele>903.7</ele>
        <time>2023-07-24T07:27:58Z</time>
      </trkpt>
      <trkpt lat="44.43463" lon="5.41789">
        <ele>903.5</ele>
        <time>2023-07-24T07:27:59Z</time>
      </trkpt>
      <trkpt lat="44.43462" lon="5.41784">
        <ele>903.2</ele>
        <time>2023-07-24T07:28:00Z</time>
      </trkpt>
      <trkpt lat="44.43462" lon="5.41782">
        <ele>903.1</ele>
        <time>2023-07-24T07:28:01Z</time>
      </trkpt>
      <trkpt lat="44.43462" lon="5.41778">
        <ele>902.9</ele>
        <time>2023-07-24T07:28:02Z</time>
      </trkpt>
      <trkpt lat="44.43461" lon="5.41776">
        <ele>902.8</ele>
        <time>2023-07-24T07:28:03Z</time>
      </trkpt>
      <trkpt lat="44.43461" lon="5.41772">
        <ele>902.6</ele>
        <time>2023-07-24T07:28:04Z</time>
      </trkpt>
      <trkpt lat="44.43461" lon="5.41771">
        <ele>902.5</ele>
        <time>2023-07-24T07:28:05Z</time>
      </trkpt>
      <trkpt lat="44.4346" lon="5.41766">
        <ele>902.3</ele>
        <time>2023-07-24T07:28:06Z</time>
      </trkpt>
      <trkpt lat="44.4346" lon="5.41765">
        <ele>902.2</ele>
        <time>2023-07-24T07:28:07Z</time>
      </trkpt>
      <trkpt lat="44.43459" lon="5.4176">
        <ele>902</ele>
        <time>2023-07-24T07:28:08Z</time>
      </trkpt>
      <trkpt lat="44.43458" lon="5.41758">
        <ele>901.9</ele>
        <time>2023-07-24T07:28:09Z</time>
      </trkpt>
      <trkpt lat="44.43457" lon="5.41754">
        <ele>901.6</ele>
        <time>2023-07-24T07:28:10Z</time>
      </trkpt>
      <trkpt lat="44.43457" lon="5.41752">
        <ele>901.5</ele>
        <time>2023-07-24T07:28:11Z</time>
      </trkpt>
      <trkpt lat="44.43456" lon="5.41748">
        <ele>901.3</ele>
        <time>2023-07-24T07:28:12Z</time>
      </trkpt>
      <trkpt lat="44.43455" lon="5.41743">
        <ele>901.1</ele>
        <time>2023-07-24T07:28:13Z</time>
      </trkpt>
      <trkpt lat="44.43455" lon="5.41739">
        <ele>900.8</ele>
        <time>2023-07-24T07:28:14Z</time>
      </trkpt>
      <trkpt lat="44.43454" lon="5.41735">
        <ele>900.6</ele>
        <time>2023-07-24T07:28:15Z</time>
      </trkpt>
      <trkpt lat="44.43453" lon="5.41729">
        <ele>900.3</ele>
        <time>2023-07-24T07:28:16Z</time>
      </trkpt>
      <trkpt lat="44.43453" lon="5.41727">
        <ele>900.2</ele>
        <time>2023-07-24T07:28:17Z</time>
      </trkpt>
      <trkpt lat="44.43453" lon="5.41723">
        <ele>900</ele>
        <time>2023-07-24T07:28:18Z</time>
      </trkpt>
      <trkpt lat="44.43452" lon="5.41718">
        <ele>899.8</ele>
        <time>2023-07-24T07:28:19Z</time>
      </trkpt>
      <trkpt lat="44.43452" lon="5.41717">
        <ele>899.7</ele>
        <time>2023-07-24T07:28:20Z</time>
      </trkpt>
      <trkpt lat="44.43452" lon="5.41711">
        <ele>899.4</ele>
        <time>2023-07-24T07:28:21Z</time>
      </trkpt>
      <trkpt lat="44.43452" lon="5.41709">
        <ele>899.3</ele>
        <time>2023-07-24T07:28:22Z</time>
      </trkpt>
      <trkpt lat="44.43452" lon="5.41705">
        <ele>899.1</ele>
        <time>2023-07-24T07:28:23Z</time>
      </trkpt>
      <trkpt lat="44.43452" lon="5.41701">
        <ele>898.9</ele>
        <time>2023-07-24T07:28:24Z</time>
      </trkpt>
      <trkpt lat="44.43452" lon="5.41696">
        <ele>898.6</ele>
        <time>2023-07-24T07:28:25Z</time>
      </trkpt>
      <trkpt lat="44.43452" lon="5.41694">
        <ele>898.5</ele>
        <time>2023-07-24T07:28:26Z</time>
      </trkpt>
      <trkpt lat="44.43452" lon="5.4169">
        <ele>898.3</ele>
        <time>2023-07-24T07:28:27Z</time>
      </trkpt>
      <trkpt lat="44.43452" lon="5.41689">
        <ele>898.2</ele>
        <time>2023-07-24T07:28:28Z</time>
      </trkpt>
      <trkpt lat="44.43452" lon="5.41686">
        <ele>898.1</ele>
        <time>2023-07-24T07:28:29Z</time>
      </trkpt>
      <trkpt lat="44.43452" lon="5.41684">
        <ele>898</ele>
        <time>2023-07-24T07:28:30Z</time>
      </trkpt>
      <trkpt lat="44.43453" lon="5.4168">
        <ele>897.8</ele>
        <time>2023-07-24T07:28:31Z</time>
      </trkpt>
      <trkpt lat="44.43453" lon="5.41678">
        <ele>897.7</ele>
        <time>2023-07-24T07:28:32Z</time>
      </trkpt>
      <trkpt lat="44.43452" lon="5.41675">
        <ele>897.6</ele>
        <time>2023-07-24T07:28:33Z</time>
      </trkpt>
      <trkpt lat="44.43452" lon="5.41674">
        <ele>897.5</ele>
        <time>2023-07-24T07:28:34Z</time>
      </trkpt>
      <trkpt lat="44.43452" lon="5.41673">
        <ele>897.4</ele>
        <time>2023-07-24T07:28:35Z</time>
      </trkpt>
      <trkpt lat="44.43452" lon="5.41672">
        <ele>897.4</ele>
        <time>2023-07-24T07:28:36Z</time>
      </trkpt>
      <trkpt lat="44.43452" lon="5.41672">
        <ele>897.4</ele>
        <time>2023-07-24T07:28:37Z</time>
      </trkpt>
      <trkpt lat="44.43452" lon="5.41671">
        <ele>897.3</ele>
        <time>2023-07-24T07:28:38Z</time>
      </trkpt>
      <trkpt lat="44.43452" lon="5.41671">
        <ele>897.3</ele>
        <time>2023-07-24T07:28:39Z</time>
      </trkpt>
      <trkpt lat="44.43452" lon="5.4167">
        <ele>897.3</ele>
        <time>2023-07-24T07:28:40Z</time>
      </trkpt>
      <trkpt lat="44.43452" lon="5.41669">
        <ele>897.2</ele>
        <time>2023-07-24T07:28:41Z</time>
      </trkpt>
      <trkpt lat="44.43453" lon="5.41669">
        <ele>897.2</ele>
        <time>2023-07-24T07:28:42Z</time>
      </trkpt>
      <trkpt lat="44.43453" lon="5.41668">
        <ele>897.2</ele>
        <time>2023-07-24T07:28:43Z</time>
      </trkpt>
      <trkpt lat="44.43453" lon="5.41668">
        <ele>897.2</ele>
        <time>2023-07-24T07:28:44Z</time>
      </trkpt>
      <trkpt lat="44.43453" lon="5.41667">
        <ele>897.1</ele>
        <time>2023-07-24T07:28:46Z</time>
      </trkpt>
      <trkpt lat="44.43453" lon="5.41666">
        <ele>897.1</ele>
        <time>2023-07-24T07:28:47Z</time>
      </trkpt>
      <trkpt lat="44.43453" lon="5.41666">
        <ele>897.1</ele>
        <time>2023-07-24T07:30:33Z</time>
      </trkpt>
      <trkpt lat="44.43453" lon="5.41665">
        <ele>897</ele>
        <time>2023-07-24T07:30:34Z</time>
      </trkpt>
      <trkpt lat="44.43453" lon="5.41665">
        <ele>897</ele>
        <time>2023-07-24T07:30:35Z</time>
      </trkpt>
      <trkpt lat="44.43453" lon="5.41664">
        <ele>897</ele>
        <time>2023-07-24T07:30:36Z</time>
      </trkpt>
      <trkpt lat="44.43453" lon="5.41664">
        <ele>896.9</ele>
        <time>2023-07-24T07:30:37Z</time>
      </trkpt>
      <trkpt lat="44.43453" lon="5.41663">
        <ele>896.9</ele>
        <time>2023-07-24T07:30:38Z</time>
      </trkpt>
      <trkpt lat="44.43454" lon="5.41662">
        <ele>896.9</ele>
        <time>2023-07-24T07:30:39Z</time>
      </trkpt>
      <trkpt lat="44.43454" lon="5.41662">
        <ele>896.8</ele>
        <time>2023-07-24T07:30:40Z</time>
      </trkpt>
      <trkpt lat="44.43454" lon="5.41661">
        <ele>896.8</ele>
        <time>2023-07-24T07:30:41Z</time>
      </trkpt>
      <trkpt lat="44.43454" lon="5.41661">
        <ele>896.8</ele>
        <time>2023-07-24T07:30:42Z</time>
      </trkpt>
      <trkpt lat="44.43454" lon="5.4166">
        <ele>896.8</ele>
        <time>2023-07-24T07:30:43Z</time>
      </trkpt>
      <trkpt lat="44.43454" lon="5.41659">
        <ele>896.7</ele>
        <time>2023-07-24T07:30:44Z</time>
      </trkpt>
      <trkpt lat="44.43454" lon="5.41659">
        <ele>896.7</ele>
        <time>2023-07-24T07:30:45Z</time>
      </trkpt>
      <trkpt lat="44.43454" lon="5.41658">
        <ele>896.7</ele>
        <time>2023-07-24T07:30:58Z</time>
      </trkpt>
      <trkpt lat="44.43454" lon="5.41658">
        <ele>896.6</ele>
        <time>2023-07-24T07:30:59Z</time>
      </trkpt>
      <trkpt lat="44.43454" lon="5.41657">
        <ele>896.6</ele>
        <time>2023-07-24T07:31:00Z</time>
      </trkpt>
      <trkpt lat="44.43456" lon="5.41647">
        <ele>896</ele>
        <time>2023-07-24T07:31:01Z</time>
      </trkpt>
      <trkpt lat="44.43458" lon="5.41635">
        <ele>895.4</ele>
        <time>2023-07-24T07:31:02Z</time>
      </trkpt>
      <trkpt lat="44.4346" lon="5.41624">
        <ele>894.8</ele>
        <time>2023-07-24T07:31:03Z</time>
      </trkpt>
      <trkpt lat="44.43462" lon="5.41615">
        <ele>894.4</ele>
        <time>2023-07-24T07:31:04Z</time>
      </trkpt>
      <trkpt lat="44.43464" lon="5.41607">
        <ele>894</ele>
        <time>2023-07-24T07:31:05Z</time>
      </trkpt>
      <trkpt lat="44.43466" lon="5.41599">
        <ele>893.5</ele>
        <time>2023-07-24T07:31:06Z</time>
      </trkpt>
      <trkpt lat="44.43467" lon="5.41592">
        <ele>893.2</ele>
        <time>2023-07-24T07:31:07Z</time>
      </trkpt>
      <trkpt lat="44.43468" lon="5.41585">
        <ele>892.8</ele>
        <time>2023-07-24T07:31:08Z</time>
      </trkpt>
      <trkpt lat="44.43469" lon="5.41577">
        <ele>892.3</ele>
        <time>2023-07-24T07:31:09Z</time>
      </trkpt>
      <trkpt lat="44.43469" lon="5.41569">
        <ele>892</ele>
        <time>2023-07-24T07:31:10Z</time>
      </trkpt>
      <trkpt lat="44.43468" lon="5.41562">
        <ele>891.6</ele>
        <time>2023-07-24T07:31:11Z</time>
      </trkpt>
      <trkpt lat="44.43467" lon="5.41557">
        <ele>891.3</ele>
        <time>2023-07-24T07:31:12Z</time>
      </trkpt>
      <trkpt lat="44.43465" lon="5.41553">
        <ele>891.1</ele>
        <time>2023-07-24T07:31:13Z</time>
      </trkpt>
      <trkpt lat="44.43465" lon="5.41552">
        <ele>891</ele>
        <time>2023-07-24T07:31:14Z</time>
      </trkpt>
      <trkpt lat="44.43464" lon="5.41548">
        <ele>890.8</ele>
        <time>2023-07-24T07:31:15Z</time>
      </trkpt>
      <trkpt lat="44.43463" lon="5.41546">
        <ele>890.7</ele>
        <time>2023-07-24T07:31:16Z</time>
      </trkpt>
      <trkpt lat="44.4346" lon="5.41543">
        <ele>890.5</ele>
        <time>2023-07-24T07:31:17Z</time>
      </trkpt>
      <trkpt lat="44.43458" lon="5.4154">
        <ele>890.2</ele>
        <time>2023-07-24T07:31:18Z</time>
      </trkpt>
      <trkpt lat="44.43455" lon="5.41538">
        <ele>890</ele>
        <time>2023-07-24T07:31:19Z</time>
      </trkpt>
      <trkpt lat="44.43452" lon="5.41536">
        <ele>889.8</ele>
        <time>2023-07-24T07:31:20Z</time>
      </trkpt>
      <trkpt lat="44.43451" lon="5.41536">
        <ele>889.7</ele>
        <time>2023-07-24T07:31:21Z</time>
      </trkpt>
      <trkpt lat="44.43451" lon="5.41534">
        <ele>889.6</ele>
        <time>2023-07-24T07:31:22Z</time>
      </trkpt>
      <trkpt lat="44.43451" lon="5.41533">
        <ele>889.6</ele>
        <time>2023-07-24T07:31:23Z</time>
      </trkpt>
      <trkpt lat="44.43451" lon="5.41533">
        <ele>889.5</ele>
        <time>2023-07-24T07:31:24Z</time>
      </trkpt>
      <trkpt lat="44.43451" lon="5.41532">
        <ele>889.5</ele>
        <time>2023-07-24T07:31:25Z</time>
      </trkpt>
      <trkpt lat="44.43451" lon="5.41531">
        <ele>889.5</ele>
        <time>2023-07-24T07:31:26Z</time>
      </trkpt>
      <trkpt lat="44.43451" lon="5.4153">
        <ele>889.4</ele>
        <time>2023-07-24T07:31:27Z</time>
      </trkpt>
      <trkpt lat="44.43452" lon="5.4153">
        <ele>889.4</ele>
        <time>2023-07-24T07:31:28Z</time>
      </trkpt>
      <trkpt lat="44.43452" lon="5.41529">
        <ele>889.3</ele>
        <time>2023-07-24T07:31:29Z</time>
      </trkpt>
      <trkpt lat="44.43452" lon="5.41528">
        <ele>889.3</ele>
        <time>2023-07-24T07:31:30Z</time>
      </trkpt>
      <trkpt lat="44.43452" lon="5.41527">
        <ele>889.3</ele>
        <time>2023-07-24T07:31:31Z</time>
      </trkpt>
      <trkpt lat="44.43452" lon="5.41527">
        <ele>889.2</ele>
        <time>2023-07-24T07:31:32Z</time>
      </trkpt>
      <trkpt lat="44.43452" lon="5.41526">
        <ele>888.5</ele>
        <time>2023-07-24T07:31:33Z</time>
      </trkpt>
      <trkpt lat="44.43453" lon="5.41525">
        <ele>888.4</ele>
        <time>2023-07-24T07:31:46Z</time>
      </trkpt>
      <trkpt lat="44.43453" lon="5.41524">
        <ele>888.4</ele>
        <time>2023-07-24T07:31:47Z</time>
      </trkpt>
      <trkpt lat="44.43453" lon="5.41524">
        <ele>888.3</ele>
        <time>2023-07-24T07:31:48Z</time>
      </trkpt>
      <trkpt lat="44.43454" lon="5.41519">
        <ele>888</ele>
        <time>2023-07-24T07:31:49Z</time>
      </trkpt>
      <trkpt lat="44.43454" lon="5.41515">
        <ele>887.8</ele>
        <time>2023-07-24T07:31:50Z</time>
      </trkpt>
      <trkpt lat="44.43454" lon="5.4151">
        <ele>887.5</ele>
        <time>2023-07-24T07:31:51Z</time>
      </trkpt>
      <trkpt lat="44.43454" lon="5.41508">
        <ele>887.3</ele>
        <time>2023-07-24T07:31:52Z</time>
      </trkpt>
      <trkpt lat="44.43453" lon="5.41504">
        <ele>887.1</ele>
        <time>2023-07-24T07:31:53Z</time>
      </trkpt>
      <trkpt lat="44.43453" lon="5.41499">
        <ele>886.8</ele>
        <time>2023-07-24T07:31:54Z</time>
      </trkpt>
      <trkpt lat="44.43452" lon="5.41494">
        <ele>886.5</ele>
        <time>2023-07-24T07:31:55Z</time>
      </trkpt>
      <trkpt lat="44.43451" lon="5.41489">
        <ele>886.2</ele>
        <time>2023-07-24T07:31:56Z</time>
      </trkpt>
      <trkpt lat="44.43449" lon="5.41483">
        <ele>885.8</ele>
        <time>2023-07-24T07:31:57Z</time>
      </trkpt>
      <trkpt lat="44.43447" lon="5.41478">
        <ele>885.7</ele>
        <time>2023-07-24T07:31:58Z</time>
      </trkpt>
      <trkpt lat="44.43445" lon="5.41473">
        <ele>885.8</ele>
        <time>2023-07-24T07:31:59Z</time>
      </trkpt>
      <trkpt lat="44.43442" lon="5.41468">
        <ele>885.8</ele>
        <time>2023-07-24T07:32:00Z</time>
      </trkpt>
      <trkpt lat="44.4344" lon="5.41465">
        <ele>885.8</ele>
        <time>2023-07-24T07:32:01Z</time>
      </trkpt>
      <trkpt lat="44.43438" lon="5.41461">
        <ele>885.9</ele>
        <time>2023-07-24T07:32:02Z</time>
      </trkpt>
      <trkpt lat="44.43436" lon="5.41458">
        <ele>885.9</ele>
        <time>2023-07-24T07:32:03Z</time>
      </trkpt>
      <trkpt lat="44.43434" lon="5.41455">
        <ele>885.9</ele>
        <time>2023-07-24T07:32:04Z</time>
      </trkpt>
      <trkpt lat="44.43432" lon="5.41452">
        <ele>885.9</ele>
        <time>2023-07-24T07:32:05Z</time>
      </trkpt>
      <trkpt lat="44.4343" lon="5.41449">
        <ele>886</ele>
        <time>2023-07-24T07:32:06Z</time>
      </trkpt>
      <trkpt lat="44.43428" lon="5.41445">
        <ele>886</ele>
        <time>2023-07-24T07:32:07Z</time>
      </trkpt>
      <trkpt lat="44.43425" lon="5.41442">
        <ele>886</ele>
        <time>2023-07-24T07:32:08Z</time>
      </trkpt>
      <trkpt lat="44.43422" lon="5.41437">
        <ele>886</ele>
        <time>2023-07-24T07:32:09Z</time>
      </trkpt>
      <trkpt lat="44.43419" lon="5.41432">
        <ele>886.1</ele>
        <time>2023-07-24T07:32:10Z</time>
      </trkpt>
      <trkpt lat="44.43417" lon="5.41427">
        <ele>886.1</ele>
        <time>2023-07-24T07:32:11Z</time>
      </trkpt>
      <trkpt lat="44.43415" lon="5.41423">
        <ele>886.1</ele>
        <time>2023-07-24T07:32:12Z</time>
      </trkpt>
      <trkpt lat="44.43413" lon="5.41419">
        <ele>886.2</ele>
        <time>2023-07-24T07:32:13Z</time>
      </trkpt>
      <trkpt lat="44.43411" lon="5.41415">
        <ele>886.2</ele>
        <time>2023-07-24T07:32:14Z</time>
      </trkpt>
      <trkpt lat="44.43408" lon="5.41411">
        <ele>886.2</ele>
        <time>2023-07-24T07:32:15Z</time>
      </trkpt>
      <trkpt lat="44.43405" lon="5.41406">
        <ele>886.3</ele>
        <time>2023-07-24T07:32:16Z</time>
      </trkpt>
      <trkpt lat="44.43402" lon="5.41401">
        <ele>886.3</ele>
        <time>2023-07-24T07:32:17Z</time>
      </trkpt>
      <trkpt lat="44.43399" lon="5.41396">
        <ele>886.3</ele>
        <time>2023-07-24T07:32:18Z</time>
      </trkpt>
      <trkpt lat="44.43396" lon="5.41391">
        <ele>886.4</ele>
        <time>2023-07-24T07:32:19Z</time>
      </trkpt>
      <trkpt lat="44.43392" lon="5.41387">
        <ele>886.4</ele>
        <time>2023-07-24T07:32:20Z</time>
      </trkpt>
      <trkpt lat="44.43388" lon="5.41383">
        <ele>886.5</ele>
        <time>2023-07-24T07:32:21Z</time>
      </trkpt>
      <trkpt lat="44.43384" lon="5.4138">
        <ele>886.5</ele>
        <time>2023-07-24T07:32:22Z</time>
      </trkpt>
      <trkpt lat="44.4338" lon="5.41377">
        <ele>886.5</ele>
        <time>2023-07-24T07:32:23Z</time>
      </trkpt>
      <trkpt lat="44.43376" lon="5.41374">
        <ele>886.6</ele>
        <time>2023-07-24T07:32:24Z</time>
      </trkpt>
      <trkpt lat="44.43371" lon="5.41373">
        <ele>886.6</ele>
        <time>2023-07-24T07:32:25Z</time>
      </trkpt>
      <trkpt lat="44.43366" lon="5.41372">
        <ele>886.6</ele>
        <time>2023-07-24T07:32:26Z</time>
      </trkpt>
      <trkpt lat="44.4336" lon="5.41373">
        <ele>886.7</ele>
        <time>2023-07-24T07:32:27Z</time>
      </trkpt>
      <trkpt lat="44.43355" lon="5.41373">
        <ele>886.7</ele>
        <time>2023-07-24T07:32:28Z</time>
      </trkpt>
      <trkpt lat="44.43349" lon="5.41374">
        <ele>886.8</ele>
        <time>2023-07-24T07:32:29Z</time>
      </trkpt>
      <trkpt lat="44.43344" lon="5.41374">
        <ele>886.8</ele>
        <time>2023-07-24T07:32:30Z</time>
      </trkpt>
      <trkpt lat="44.43339" lon="5.41373">
        <ele>886.8</ele>
        <time>2023-07-24T07:32:31Z</time>
      </trkpt>
      <trkpt lat="44.43334" lon="5.41371">
        <ele>886.9</ele>
        <time>2023-07-24T07:32:32Z</time>
      </trkpt>
      <trkpt lat="44.43329" lon="5.4137">
        <ele>886.9</ele>
        <time>2023-07-24T07:32:33Z</time>
      </trkpt>
      <trkpt lat="44.43324" lon="5.41369">
        <ele>887</ele>
        <time>2023-07-24T07:32:34Z</time>
      </trkpt>
      <trkpt lat="44.4332" lon="5.41369">
        <ele>887</ele>
        <time>2023-07-24T07:32:35Z</time>
      </trkpt>
      <trkpt lat="44.43317" lon="5.41367">
        <ele>887</ele>
        <time>2023-07-24T07:32:36Z</time>
      </trkpt>
      <trkpt lat="44.43313" lon="5.41366">
        <ele>887.1</ele>
        <time>2023-07-24T07:32:37Z</time>
      </trkpt>
      <trkpt lat="44.4331" lon="5.41365">
        <ele>887.1</ele>
        <time>2023-07-24T07:32:38Z</time>
      </trkpt>
      <trkpt lat="44.43307" lon="5.41366">
        <ele>887.1</ele>
        <time>2023-07-24T07:32:39Z</time>
      </trkpt>
      <trkpt lat="44.43303" lon="5.41366">
        <ele>887.1</ele>
        <time>2023-07-24T07:32:40Z</time>
      </trkpt>
      <trkpt lat="44.433" lon="5.41365">
        <ele>887.2</ele>
        <time>2023-07-24T07:32:41Z</time>
      </trkpt>
      <trkpt lat="44.43295" lon="5.41364">
        <ele>887.2</ele>
        <time>2023-07-24T07:32:42Z</time>
      </trkpt>
      <trkpt lat="44.43291" lon="5.41362">
        <ele>887.2</ele>
        <time>2023-07-24T07:32:43Z</time>
      </trkpt>
      <trkpt lat="44.43287" lon="5.41361">
        <ele>887.3</ele>
        <time>2023-07-24T07:32:44Z</time>
      </trkpt>
      <trkpt lat="44.43284" lon="5.41361">
        <ele>887.3</ele>
        <time>2023-07-24T07:32:45Z</time>
      </trkpt>
      <trkpt lat="44.4328" lon="5.4136">
        <ele>887.3</ele>
        <time>2023-07-24T07:32:46Z</time>
      </trkpt>
      <trkpt lat="44.43276" lon="5.4136">
        <ele>887.3</ele>
        <time>2023-07-24T07:32:47Z</time>
      </trkpt>
      <trkpt lat="44.43272" lon="5.4136">
        <ele>887.4</ele>
        <time>2023-07-24T07:32:48Z</time>
      </trkpt>
      <trkpt lat="44.43268" lon="5.41359">
        <ele>887.4</ele>
        <time>2023-07-24T07:32:49Z</time>
      </trkpt>
      <trkpt lat="44.43265" lon="5.41358">
        <ele>887.4</ele>
        <time>2023-07-24T07:32:50Z</time>
      </trkpt>
      <trkpt lat="44.43262" lon="5.41356">
        <ele>887.5</ele>
        <time>2023-07-24T07:32:51Z</time>
      </trkpt>
      <trkpt lat="44.43258" lon="5.41355">
        <ele>887.5</ele>
        <time>2023-07-24T07:32:52Z</time>
      </trkpt>
      <trkpt lat="44.43254" lon="5.41353">
        <ele>887.5</ele>
        <time>2023-07-24T07:32:53Z</time>
      </trkpt>
      <trkpt lat="44.43251" lon="5.41351">
        <ele>887.5</ele>
        <time>2023-07-24T07:32:54Z</time>
      </trkpt>
      <trkpt lat="44.43248" lon="5.41349">
        <ele>887.6</ele>
        <time>2023-07-24T07:32:55Z</time>
      </trkpt>
      <trkpt lat="44.43245" lon="5.41348">
        <ele>887.6</ele>
        <time>2023-07-24T07:32:56Z</time>
      </trkpt>
      <trkpt lat="44.43241" lon="5.41345">
        <ele>887.6</ele>
        <time>2023-07-24T07:32:57Z</time>
      </trkpt>
      <trkpt lat="44.4324" lon="5.41344">
        <ele>887.6</ele>
        <time>2023-07-24T07:32:58Z</time>
      </trkpt>
      <trkpt lat="44.43237" lon="5.41343">
        <ele>887.7</ele>
        <time>2023-07-24T07:32:59Z</time>
      </trkpt>
      <trkpt lat="44.43234" lon="5.41342">
        <ele>887.9</ele>
        <time>2023-07-24T07:33:00Z</time>
      </trkpt>
      <trkpt lat="44.4323" lon="5.41341">
        <ele>888.3</ele>
        <time>2023-07-24T07:33:01Z</time>
      </trkpt>
      <trkpt lat="44.43226" lon="5.41339">
        <ele>888.6</ele>
        <time>2023-07-24T07:33:02Z</time>
      </trkpt>
      <trkpt lat="44.43223" lon="5.41337">
        <ele>889</ele>
        <time>2023-07-24T07:33:03Z</time>
      </trkpt>
      <trkpt lat="44.43219" lon="5.41335">
        <ele>889.4</ele>
        <time>2023-07-24T07:33:04Z</time>
      </trkpt>
      <trkpt lat="44.43216" lon="5.41334">
        <ele>889.7</ele>
        <time>2023-07-24T07:33:05Z</time>
      </trkpt>
      <trkpt lat="44.43213" lon="5.41333">
        <ele>890</ele>
        <time>2023-07-24T07:33:06Z</time>
      </trkpt>
      <trkpt lat="44.4321" lon="5.41331">
        <ele>890.3</ele>
        <time>2023-07-24T07:33:07Z</time>
      </trkpt>
      <trkpt lat="44.43207" lon="5.41329">
        <ele>890.6</ele>
        <time>2023-07-24T07:33:08Z</time>
      </trkpt>
      <trkpt lat="44.43206" lon="5.41329">
        <ele>890.7</ele>
        <time>2023-07-24T07:33:09Z</time>
      </trkpt>
      <trkpt lat="44.43202" lon="5.41328">
        <ele>891.1</ele>
        <time>2023-07-24T07:33:10Z</time>
      </trkpt>
      <trkpt lat="44.43201" lon="5.41328">
        <ele>891.2</ele>
        <time>2023-07-24T07:33:11Z</time>
      </trkpt>
      <trkpt lat="44.43198" lon="5.41328">
        <ele>891.5</ele>
        <time>2023-07-24T07:33:12Z</time>
      </trkpt>
      <trkpt lat="44.43194" lon="5.41328">
        <ele>891.9</ele>
        <time>2023-07-24T07:33:13Z</time>
      </trkpt>
      <trkpt lat="44.43193" lon="5.41328">
        <ele>892</ele>
        <time>2023-07-24T07:33:14Z</time>
      </trkpt>
      <trkpt lat="44.43191" lon="5.41329">
        <ele>892.2</ele>
        <time>2023-07-24T07:33:15Z</time>
      </trkpt>
      <trkpt lat="44.4319" lon="5.41328">
        <ele>892.3</ele>
        <time>2023-07-24T07:33:16Z</time>
      </trkpt>
      <trkpt lat="44.43189" lon="5.41328">
        <ele>892.4</ele>
        <time>2023-07-24T07:33:17Z</time>
      </trkpt>
      <trkpt lat="44.43188" lon="5.41328">
        <ele>892.5</ele>
        <time>2023-07-24T07:33:18Z</time>
      </trkpt>
      <trkpt lat="44.43187" lon="5.41327">
        <ele>892.6</ele>
        <time>2023-07-24T07:33:19Z</time>
      </trkpt>
      <trkpt lat="44.43185" lon="5.41327">
        <ele>892.7</ele>
        <time>2023-07-24T07:33:20Z</time>
      </trkpt>
      <trkpt lat="44.43184" lon="5.41327">
        <ele>892.9</ele>
        <time>2023-07-24T07:33:21Z</time>
      </trkpt>
      <trkpt lat="44.43182" lon="5.41327">
        <ele>893</ele>
        <time>2023-07-24T07:33:22Z</time>
      </trkpt>
      <trkpt lat="44.43181" lon="5.41326">
        <ele>893.2</ele>
        <time>2023-07-24T07:33:23Z</time>
      </trkpt>
      <trkpt lat="44.4318" lon="5.41324">
        <ele>893.3</ele>
        <time>2023-07-24T07:33:24Z</time>
      </trkpt>
      <trkpt lat="44.43179" lon="5.41323">
        <ele>893.5</ele>
        <time>2023-07-24T07:33:25Z</time>
      </trkpt>
      <trkpt lat="44.43177" lon="5.41319">
        <ele>893.8</ele>
        <time>2023-07-24T07:33:26Z</time>
      </trkpt>
      <trkpt lat="44.43176" lon="5.41317">
        <ele>893.9</ele>
        <time>2023-07-24T07:33:27Z</time>
      </trkpt>
      <trkpt lat="44.43174" lon="5.41314">
        <ele>894.2</ele>
        <time>2023-07-24T07:33:28Z</time>
      </trkpt>
      <trkpt lat="44.43172" lon="5.4131">
        <ele>894.6</ele>
        <time>2023-07-24T07:33:29Z</time>
      </trkpt>
      <trkpt lat="44.43171" lon="5.41308">
        <ele>894.7</ele>
        <time>2023-07-24T07:33:30Z</time>
      </trkpt>
      <trkpt lat="44.4317" lon="5.41304">
        <ele>895</ele>
        <time>2023-07-24T07:33:31Z</time>
      </trkpt>
      <trkpt lat="44.43167" lon="5.413">
        <ele>895.4</ele>
        <time>2023-07-24T07:33:32Z</time>
      </trkpt>
      <trkpt lat="44.43165" lon="5.41298">
        <ele>895.6</ele>
        <time>2023-07-24T07:33:33Z</time>
      </trkpt>
      <trkpt lat="44.43163" lon="5.41294">
        <ele>896</ele>
        <time>2023-07-24T07:33:34Z</time>
      </trkpt>
      <trkpt lat="44.43162" lon="5.41293">
        <ele>896.1</ele>
        <time>2023-07-24T07:33:35Z</time>
      </trkpt>
      <trkpt lat="44.43159" lon="5.4129">
        <ele>896.4</ele>
        <time>2023-07-24T07:33:36Z</time>
      </trkpt>
      <trkpt lat="44.43157" lon="5.41286">
        <ele>896.7</ele>
        <time>2023-07-24T07:33:37Z</time>
      </trkpt>
      <trkpt lat="44.43155" lon="5.41283">
        <ele>897</ele>
        <time>2023-07-24T07:33:38Z</time>
      </trkpt>
      <trkpt lat="44.43153" lon="5.4128">
        <ele>897.3</ele>
        <time>2023-07-24T07:33:39Z</time>
      </trkpt>
      <trkpt lat="44.43151" lon="5.41276">
        <ele>897.6</ele>
        <time>2023-07-24T07:33:40Z</time>
      </trkpt>
      <trkpt lat="44.4315" lon="5.41272">
        <ele>897.9</ele>
        <time>2023-07-24T07:33:41Z</time>
      </trkpt>
      <trkpt lat="44.43149" lon="5.41269">
        <ele>898.2</ele>
        <time>2023-07-24T07:33:42Z</time>
      </trkpt>
      <trkpt lat="44.43148" lon="5.41265">
        <ele>898.4</ele>
        <time>2023-07-24T07:33:43Z</time>
      </trkpt>
      <trkpt lat="44.43148" lon="5.41261">
        <ele>898.7</ele>
        <time>2023-07-24T07:33:44Z</time>
      </trkpt>
      <trkpt lat="44.43146" lon="5.41256">
        <ele>899.1</ele>
        <time>2023-07-24T07:33:45Z</time>
      </trkpt>
      <trkpt lat="44.43146" lon="5.41255">
        <ele>899.1</ele>
        <time>2023-07-24T07:33:46Z</time>
      </trkpt>
      <trkpt lat="44.43145" lon="5.41251">
        <ele>899.4</ele>
        <time>2023-07-24T07:33:47Z</time>
      </trkpt>
      <trkpt lat="44.43144" lon="5.4125">
        <ele>899.5</ele>
        <time>2023-07-24T07:33:48Z</time>
      </trkpt>
      <trkpt lat="44.43144" lon="5.41247">
        <ele>899.7</ele>
        <time>2023-07-24T07:33:49Z</time>
      </trkpt>
      <trkpt lat="44.43143" lon="5.41245">
        <ele>899.9</ele>
        <time>2023-07-24T07:33:50Z</time>
      </trkpt>
      <trkpt lat="44.43143" lon="5.41243">
        <ele>900</ele>
        <time>2023-07-24T07:33:51Z</time>
      </trkpt>
      <trkpt lat="44.43142" lon="5.41241">
        <ele>900.2</ele>
        <time>2023-07-24T07:33:52Z</time>
      </trkpt>
      <trkpt lat="44.43141" lon="5.41236">
        <ele>900.5</ele>
        <time>2023-07-24T07:33:53Z</time>
      </trkpt>
      <trkpt lat="44.43141" lon="5.41235">
        <ele>900.6</ele>
        <time>2023-07-24T07:33:54Z</time>
      </trkpt>
      <trkpt lat="44.43139" lon="5.41232">
        <ele>900.9</ele>
        <time>2023-07-24T07:33:55Z</time>
      </trkpt>
      <trkpt lat="44.43138" lon="5.41231">
        <ele>901</ele>
        <time>2023-07-24T07:33:56Z</time>
      </trkpt>
      <trkpt lat="44.43136" lon="5.41228">
        <ele>901.3</ele>
        <time>2023-07-24T07:33:57Z</time>
      </trkpt>
      <trkpt lat="44.43135" lon="5.41227">
        <ele>901.4</ele>
        <time>2023-07-24T07:33:58Z</time>
      </trkpt>
      <trkpt lat="44.43132" lon="5.41225">
        <ele>901.7</ele>
        <time>2023-07-24T07:33:59Z</time>
      </trkpt>
      <trkpt lat="44.43131" lon="5.41224">
        <ele>901.8</ele>
        <time>2023-07-24T07:34:00Z</time>
      </trkpt>
      <trkpt lat="44.43129" lon="5.41222">
        <ele>902.1</ele>
        <time>2023-07-24T07:34:01Z</time>
      </trkpt>
      <trkpt lat="44.43128" lon="5.41221">
        <ele>902.2</ele>
        <time>2023-07-24T07:34:02Z</time>
      </trkpt>
      <trkpt lat="44.43125" lon="5.41219">
        <ele>902.5</ele>
        <time>2023-07-24T07:34:03Z</time>
      </trkpt>
      <trkpt lat="44.43124" lon="5.41219">
        <ele>902.6</ele>
        <time>2023-07-24T07:34:04Z</time>
      </trkpt>
      <trkpt lat="44.4312" lon="5.41217">
        <ele>902.9</ele>
        <time>2023-07-24T07:34:05Z</time>
      </trkpt>
      <trkpt lat="44.43119" lon="5.41217">
        <ele>903.1</ele>
        <time>2023-07-24T07:34:06Z</time>
      </trkpt>
      <trkpt lat="44.43117" lon="5.41216">
        <ele>903.3</ele>
        <time>2023-07-24T07:34:07Z</time>
      </trkpt>
      <trkpt lat="44.43113" lon="5.41216">
        <ele>903.7</ele>
        <time>2023-07-24T07:34:08Z</time>
      </trkpt>
      <trkpt lat="44.43112" lon="5.41215">
        <ele>903.8</ele>
        <time>2023-07-24T07:34:09Z</time>
      </trkpt>
      <trkpt lat="44.43108" lon="5.41215">
        <ele>904.1</ele>
        <time>2023-07-24T07:34:10Z</time>
      </trkpt>
      <trkpt lat="44.43107" lon="5.41215">
        <ele>904.3</ele>
        <time>2023-07-24T07:34:11Z</time>
      </trkpt>
      <trkpt lat="44.43104" lon="5.41214">
        <ele>904.5</ele>
        <time>2023-07-24T07:34:12Z</time>
      </trkpt>
      <trkpt lat="44.43101" lon="5.41213">
        <ele>904.8</ele>
        <time>2023-07-24T07:34:13Z</time>
      </trkpt>
      <trkpt lat="44.43097" lon="5.41212">
        <ele>905.2</ele>
        <time>2023-07-24T07:34:14Z</time>
      </trkpt>
      <trkpt lat="44.43096" lon="5.41212">
        <ele>905.3</ele>
        <time>2023-07-24T07:34:15Z</time>
      </trkpt>
      <trkpt lat="44.43093" lon="5.41211">
        <ele>905.6</ele>
        <time>2023-07-24T07:34:16Z</time>
      </trkpt>
      <trkpt lat="44.43089" lon="5.41209">
        <ele>906</ele>
        <time>2023-07-24T07:34:17Z</time>
      </trkpt>
      <trkpt lat="44.43088" lon="5.41208">
        <ele>906.1</ele>
        <time>2023-07-24T07:34:18Z</time>
      </trkpt>
      <trkpt lat="44.43084" lon="5.41207">
        <ele>906.5</ele>
        <time>2023-07-24T07:34:19Z</time>
      </trkpt>
      <trkpt lat="44.43083" lon="5.41206">
        <ele>906.6</ele>
        <time>2023-07-24T07:34:20Z</time>
      </trkpt>
      <trkpt lat="44.43079" lon="5.41205">
        <ele>907</ele>
        <time>2023-07-24T07:34:21Z</time>
      </trkpt>
      <trkpt lat="44.43078" lon="5.41205">
        <ele>907.1</ele>
        <time>2023-07-24T07:34:22Z</time>
      </trkpt>
      <trkpt lat="44.43075" lon="5.41204">
        <ele>907.4</ele>
        <time>2023-07-24T07:34:23Z</time>
      </trkpt>
      <trkpt lat="44.43074" lon="5.41204">
        <ele>907.5</ele>
        <time>2023-07-24T07:34:24Z</time>
      </trkpt>
      <trkpt lat="44.43073" lon="5.41203">
        <ele>907.6</ele>
        <time>2023-07-24T07:34:25Z</time>
      </trkpt>
      <trkpt lat="44.43073" lon="5.41203">
        <ele>907.6</ele>
        <time>2023-07-24T07:34:26Z</time>
      </trkpt>
      <trkpt lat="44.43072" lon="5.41203">
        <ele>907.7</ele>
        <time>2023-07-24T07:34:27Z</time>
      </trkpt>
      <trkpt lat="44.43071" lon="5.41203">
        <ele>907.8</ele>
        <time>2023-07-24T07:34:28Z</time>
      </trkpt>
      <trkpt lat="44.43071" lon="5.41203">
        <ele>907.8</ele>
        <time>2023-07-24T07:34:29Z</time>
      </trkpt>
      <trkpt lat="44.4307" lon="5.41203">
        <ele>907.9</ele>
        <time>2023-07-24T07:34:30Z</time>
      </trkpt>
      <trkpt lat="44.4307" lon="5.41203">
        <ele>907.9</ele>
        <time>2023-07-24T07:34:31Z</time>
      </trkpt>
      <trkpt lat="44.43069" lon="5.41203">
        <ele>907.9</ele>
        <time>2023-07-24T07:34:32Z</time>
      </trkpt>
      <trkpt lat="44.43069" lon="5.41203">
        <ele>908</ele>
        <time>2023-07-24T07:34:33Z</time>
      </trkpt>
      <trkpt lat="44.43068" lon="5.41203">
        <ele>908</ele>
        <time>2023-07-24T07:34:34Z</time>
      </trkpt>
      <trkpt lat="44.43068" lon="5.41203">
        <ele>908.1</ele>
        <time>2023-07-24T07:34:35Z</time>
      </trkpt>
      <trkpt lat="44.43068" lon="5.41203">
        <ele>908.1</ele>
        <time>2023-07-24T07:34:36Z</time>
      </trkpt>
      <trkpt lat="44.43067" lon="5.41203">
        <ele>908.1</ele>
        <time>2023-07-24T07:34:37Z</time>
      </trkpt>
      <trkpt lat="44.43067" lon="5.41203">
        <ele>908.2</ele>
        <time>2023-07-24T07:34:38Z</time>
      </trkpt>
      <trkpt lat="44.43066" lon="5.41203">
        <ele>908.3</ele>
        <time>2023-07-24T07:34:39Z</time>
      </trkpt>
      <trkpt lat="44.43066" lon="5.41203">
        <ele>908.3</ele>
        <time>2023-07-24T07:34:40Z</time>
      </trkpt>
      <trkpt lat="44.43065" lon="5.41204">
        <ele>908.4</ele>
        <time>2023-07-24T07:34:41Z</time>
      </trkpt>
      <trkpt lat="44.43065" lon="5.41204">
        <ele>908.5</ele>
        <time>2023-07-24T07:34:42Z</time>
      </trkpt>
      <trkpt lat="44.43064" lon="5.41204">
        <ele>908.5</ele>
        <time>2023-07-24T07:34:43Z</time>
      </trkpt>
      <trkpt lat="44.43064" lon="5.41204">
        <ele>908.6</ele>
        <time>2023-07-24T07:34:44Z</time>
      </trkpt>
      <trkpt lat="44.43063" lon="5.41204">
        <ele>908.6</ele>
        <time>2023-07-24T07:34:45Z</time>
      </trkpt>
      <trkpt lat="44.43063" lon="5.41204">
        <ele>908.7</ele>
        <time>2023-07-24T07:35:08Z</time>
      </trkpt>
      <trkpt lat="44.43063" lon="5.41204">
        <ele>908.8</ele>
        <time>2023-07-24T07:35:09Z</time>
      </trkpt>
      <trkpt lat="44.43062" lon="5.41204">
        <ele>908.8</ele>
        <time>2023-07-24T07:35:10Z</time>
      </trkpt>
      <trkpt lat="44.43059" lon="5.41203">
        <ele>909.2</ele>
        <time>2023-07-24T07:35:11Z</time>
      </trkpt>
      <trkpt lat="44.43058" lon="5.41203">
        <ele>909.4</ele>
        <time>2023-07-24T07:35:12Z</time>
      </trkpt>
      <trkpt lat="44.43055" lon="5.41203">
        <ele>909.8</ele>
        <time>2023-07-24T07:35:13Z</time>
      </trkpt>
      <trkpt lat="44.43054" lon="5.41202">
        <ele>909.9</ele>
        <time>2023-07-24T07:35:14Z</time>
      </trkpt>
      <trkpt lat="44.43051" lon="5.41202">
        <ele>910.3</ele>
        <time>2023-07-24T07:35:15Z</time>
      </trkpt>
      <trkpt lat="44.4305" lon="5.41202">
        <ele>910.5</ele>
        <time>2023-07-24T07:35:16Z</time>
      </trkpt>
      <trkpt lat="44.43047" lon="5.41203">
        <ele>910.9</ele>
        <time>2023-07-24T07:35:17Z</time>
      </trkpt>
      <trkpt lat="44.43046" lon="5.41203">
        <ele>911</ele>
        <time>2023-07-24T07:35:18Z</time>
      </trkpt>
      <trkpt lat="44.43042" lon="5.41203">
        <ele>911.6</ele>
        <time>2023-07-24T07:35:19Z</time>
      </trkpt>
      <trkpt lat="44.43041" lon="5.41204">
        <ele>911.8</ele>
        <time>2023-07-24T07:35:20Z</time>
      </trkpt>
      <trkpt lat="44.43038" lon="5.41203">
        <ele>912.2</ele>
        <time>2023-07-24T07:35:21Z</time>
      </trkpt>
      <trkpt lat="44.43035" lon="5.41203">
        <ele>912.6</ele>
        <time>2023-07-24T07:35:22Z</time>
      </trkpt>
      <trkpt lat="44.43032" lon="5.41203">
        <ele>913</ele>
        <time>2023-07-24T07:35:23Z</time>
      </trkpt>
      <trkpt lat="44.43031" lon="5.41203">
        <ele>913.2</ele>
        <time>2023-07-24T07:35:24Z</time>
      </trkpt>
      <trkpt lat="44.43028" lon="5.41202">
        <ele>913.6</ele>
        <time>2023-07-24T07:35:25Z</time>
      </trkpt>
      <trkpt lat="44.43027" lon="5.41202">
        <ele>913.8</ele>
        <time>2023-07-24T07:35:26Z</time>
      </trkpt>
      <trkpt lat="44.43024" lon="5.412">
        <ele>914.2</ele>
        <time>2023-07-24T07:35:27Z</time>
      </trkpt>
      <trkpt lat="44.43023" lon="5.412">
        <ele>914.4</ele>
        <time>2023-07-24T07:35:28Z</time>
      </trkpt>
      <trkpt lat="44.4302" lon="5.41198">
        <ele>914.7</ele>
        <time>2023-07-24T07:35:29Z</time>
      </trkpt>
      <trkpt lat="44.43019" lon="5.41197">
        <ele>914.9</ele>
        <time>2023-07-24T07:35:30Z</time>
      </trkpt>
      <trkpt lat="44.43018" lon="5.41196">
        <ele>915.1</ele>
        <time>2023-07-24T07:35:31Z</time>
      </trkpt>
      <trkpt lat="44.43016" lon="5.41195">
        <ele>915.3</ele>
        <time>2023-07-24T07:35:32Z</time>
      </trkpt>
      <trkpt lat="44.43014" lon="5.41193">
        <ele>915.7</ele>
        <time>2023-07-24T07:35:33Z</time>
      </trkpt>
      <trkpt lat="44.43013" lon="5.41192">
        <ele>915.9</ele>
        <time>2023-07-24T07:35:34Z</time>
      </trkpt>
      <trkpt lat="44.4301" lon="5.41192">
        <ele>916.2</ele>
        <time>2023-07-24T07:35:35Z</time>
      </trkpt>
      <trkpt lat="44.43009" lon="5.41192">
        <ele>916.4</ele>
        <time>2023-07-24T07:35:36Z</time>
      </trkpt>
      <trkpt lat="44.43007" lon="5.41192">
        <ele>917.1</ele>
        <time>2023-07-24T07:35:37Z</time>
      </trkpt>
      <trkpt lat="44.43006" lon="5.41192">
        <ele>917.3</ele>
        <time>2023-07-24T07:35:38Z</time>
      </trkpt>
      <trkpt lat="44.43004" lon="5.41193">
        <ele>917.7</ele>
        <time>2023-07-24T07:35:39Z</time>
      </trkpt>
      <trkpt lat="44.43003" lon="5.41192">
        <ele>918</ele>
        <time>2023-07-24T07:35:40Z</time>
      </trkpt>
      <trkpt lat="44.43002" lon="5.41192">
        <ele>918.1</ele>
        <time>2023-07-24T07:35:41Z</time>
      </trkpt>
      <trkpt lat="44.43001" lon="5.41192">
        <ele>918.3</ele>
        <time>2023-07-24T07:35:42Z</time>
      </trkpt>
      <trkpt lat="44.43001" lon="5.41192">
        <ele>918.3</ele>
        <time>2023-07-24T07:35:43Z</time>
      </trkpt>
      <trkpt lat="44.43001" lon="5.41192">
        <ele>918.3</ele>
        <time>2023-07-24T07:35:44Z</time>
      </trkpt>
      <trkpt lat="44.42999" lon="5.41191">
        <ele>918.8</ele>
        <time>2023-07-24T07:35:45Z</time>
      </trkpt>
      <trkpt lat="44.42998" lon="5.41191">
        <ele>919.1</ele>
        <time>2023-07-24T07:35:46Z</time>
      </trkpt>
      <trkpt lat="44.42997" lon="5.41191">
        <ele>919.3</ele>
        <time>2023-07-24T07:35:47Z</time>
      </trkpt>
      <trkpt lat="44.42996" lon="5.4119">
        <ele>919.6</ele>
        <time>2023-07-24T07:35:48Z</time>
      </trkpt>
      <trkpt lat="44.42996" lon="5.4119">
        <ele>919.6</ele>
        <time>2023-07-24T07:35:49Z</time>
      </trkpt>
      <trkpt lat="44.42996" lon="5.4119">
        <ele>919.6</ele>
        <time>2023-07-24T07:35:50Z</time>
      </trkpt>
      <trkpt lat="44.42993" lon="5.4119">
        <ele>920.3</ele>
        <time>2023-07-24T07:35:51Z</time>
      </trkpt>
      <trkpt lat="44.42991" lon="5.4119">
        <ele>920.8</ele>
        <time>2023-07-24T07:35:52Z</time>
      </trkpt>
      <trkpt lat="44.42989" lon="5.41189">
        <ele>921</ele>
        <time>2023-07-24T07:35:53Z</time>
      </trkpt>
      <trkpt lat="44.42988" lon="5.41189">
        <ele>921.3</ele>
        <time>2023-07-24T07:35:54Z</time>
      </trkpt>
      <trkpt lat="44.42988" lon="5.41189">
        <ele>921.4</ele>
        <time>2023-07-24T07:35:55Z</time>
      </trkpt>
      <trkpt lat="44.42986" lon="5.41189">
        <ele>921.7</ele>
        <time>2023-07-24T07:35:56Z</time>
      </trkpt>
      <trkpt lat="44.42985" lon="5.41189">
        <ele>922.1</ele>
        <time>2023-07-24T07:35:57Z</time>
      </trkpt>
      <trkpt lat="44.42983" lon="5.41188">
        <ele>922.5</ele>
        <time>2023-07-24T07:35:58Z</time>
      </trkpt>
      <trkpt lat="44.42981" lon="5.41188">
        <ele>922.8</ele>
        <time>2023-07-24T07:35:59Z</time>
      </trkpt>
      <trkpt lat="44.4298" lon="5.41187">
        <ele>923.1</ele>
        <time>2023-07-24T07:36:00Z</time>
      </trkpt>
      <trkpt lat="44.42979" lon="5.41187">
        <ele>923.3</ele>
        <time>2023-07-24T07:36:01Z</time>
      </trkpt>
      <trkpt lat="44.42978" lon="5.41186">
        <ele>923.6</ele>
        <time>2023-07-24T07:36:02Z</time>
      </trkpt>
      <trkpt lat="44.42977" lon="5.41186">
        <ele>923.8</ele>
        <time>2023-07-24T07:36:03Z</time>
      </trkpt>
      <trkpt lat="44.42976" lon="5.41186">
        <ele>924.2</ele>
        <time>2023-07-24T07:36:04Z</time>
      </trkpt>
      <trkpt lat="44.42974" lon="5.41186">
        <ele>924.5</ele>
        <time>2023-07-24T07:36:05Z</time>
      </trkpt>
      <trkpt lat="44.42973" lon="5.41187">
        <ele>924.8</ele>
        <time>2023-07-24T07:36:06Z</time>
      </trkpt>
      <trkpt lat="44.42971" lon="5.41187">
        <ele>925.2</ele>
        <time>2023-07-24T07:36:07Z</time>
      </trkpt>
      <trkpt lat="44.4297" lon="5.41186">
        <ele>925.5</ele>
        <time>2023-07-24T07:36:08Z</time>
      </trkpt>
      <trkpt lat="44.42968" lon="5.41186">
        <ele>925.8</ele>
        <time>2023-07-24T07:36:09Z</time>
      </trkpt>
      <trkpt lat="44.42967" lon="5.41186">
        <ele>926.1</ele>
        <time>2023-07-24T07:36:10Z</time>
      </trkpt>
      <trkpt lat="44.42964" lon="5.41186">
        <ele>926.7</ele>
        <time>2023-07-24T07:36:11Z</time>
      </trkpt>
      <trkpt lat="44.42963" lon="5.41186">
        <ele>926.9</ele>
        <time>2023-07-24T07:36:12Z</time>
      </trkpt>
      <trkpt lat="44.42962" lon="5.41186">
        <ele>927.3</ele>
        <time>2023-07-24T07:36:13Z</time>
      </trkpt>
      <trkpt lat="44.4296" lon="5.41186">
        <ele>927.7</ele>
        <time>2023-07-24T07:36:14Z</time>
      </trkpt>
      <trkpt lat="44.42958" lon="5.41185">
        <ele>928</ele>
        <time>2023-07-24T07:36:15Z</time>
      </trkpt>
      <trkpt lat="44.42957" lon="5.41185">
        <ele>928.4</ele>
        <time>2023-07-24T07:36:16Z</time>
      </trkpt>
      <trkpt lat="44.42956" lon="5.41184">
        <ele>928.6</ele>
        <time>2023-07-24T07:36:17Z</time>
      </trkpt>
      <trkpt lat="44.42954" lon="5.41184">
        <ele>928.9</ele>
        <time>2023-07-24T07:36:18Z</time>
      </trkpt>
      <trkpt lat="44.42954" lon="5.41184">
        <ele>929</ele>
        <time>2023-07-24T07:36:19Z</time>
      </trkpt>
      <trkpt lat="44.42951" lon="5.41184">
        <ele>929.8</ele>
        <time>2023-07-24T07:36:20Z</time>
      </trkpt>
      <trkpt lat="44.4295" lon="5.41184">
        <ele>930</ele>
        <time>2023-07-24T07:36:21Z</time>
      </trkpt>
      <trkpt lat="44.42947" lon="5.41184">
        <ele>930.6</ele>
        <time>2023-07-24T07:36:22Z</time>
      </trkpt>
      <trkpt lat="44.42946" lon="5.41184">
        <ele>930.8</ele>
        <time>2023-07-24T07:36:23Z</time>
      </trkpt>
      <trkpt lat="44.42944" lon="5.41184">
        <ele>931.2</ele>
        <time>2023-07-24T07:36:24Z</time>
      </trkpt>
      <trkpt lat="44.42943" lon="5.41183">
        <ele>931.5</ele>
        <time>2023-07-24T07:36:25Z</time>
      </trkpt>
      <trkpt lat="44.42942" lon="5.41182">
        <ele>931.9</ele>
        <time>2023-07-24T07:36:26Z</time>
      </trkpt>
      <trkpt lat="44.4294" lon="5.41182">
        <ele>932.3</ele>
        <time>2023-07-24T07:36:27Z</time>
      </trkpt>
      <trkpt lat="44.42938" lon="5.41181">
        <ele>932.6</ele>
        <time>2023-07-24T07:36:28Z</time>
      </trkpt>
      <trkpt lat="44.42937" lon="5.4118">
        <ele>932.9</ele>
        <time>2023-07-24T07:36:29Z</time>
      </trkpt>
      <trkpt lat="44.42935" lon="5.4118">
        <ele>933.4</ele>
        <time>2023-07-24T07:36:30Z</time>
      </trkpt>
      <trkpt lat="44.42935" lon="5.41179">
        <ele>933.5</ele>
        <time>2023-07-24T07:36:31Z</time>
      </trkpt>
      <trkpt lat="44.42934" lon="5.41179">
        <ele>933.6</ele>
        <time>2023-07-24T07:36:32Z</time>
      </trkpt>
      <trkpt lat="44.42934" lon="5.41179">
        <ele>933.7</ele>
        <time>2023-07-24T07:36:33Z</time>
      </trkpt>
      <trkpt lat="44.42933" lon="5.41179">
        <ele>933.8</ele>
        <time>2023-07-24T07:36:34Z</time>
      </trkpt>
      <trkpt lat="44.42931" lon="5.41178">
        <ele>934.3</ele>
        <time>2023-07-24T07:36:35Z</time>
      </trkpt>
      <trkpt lat="44.42931" lon="5.41177">
        <ele>934.4</ele>
        <time>2023-07-24T07:36:36Z</time>
      </trkpt>
      <trkpt lat="44.4293" lon="5.41176">
        <ele>934.6</ele>
        <time>2023-07-24T07:36:37Z</time>
      </trkpt>
      <trkpt lat="44.42928" lon="5.41175">
        <ele>935.1</ele>
        <time>2023-07-24T07:36:38Z</time>
      </trkpt>
      <trkpt lat="44.42927" lon="5.41175">
        <ele>935.3</ele>
        <time>2023-07-24T07:36:39Z</time>
      </trkpt>
      <trkpt lat="44.42926" lon="5.41174">
        <ele>935.5</ele>
        <time>2023-07-24T07:36:40Z</time>
      </trkpt>
      <trkpt lat="44.42926" lon="5.41174">
        <ele>935.7</ele>
        <time>2023-07-24T07:36:41Z</time>
      </trkpt>
      <trkpt lat="44.42923" lon="5.41174">
        <ele>936.2</ele>
        <time>2023-07-24T07:36:42Z</time>
      </trkpt>
      <trkpt lat="44.42923" lon="5.41174">
        <ele>936.4</ele>
        <time>2023-07-24T07:36:43Z</time>
      </trkpt>
      <trkpt lat="44.42922" lon="5.41174">
        <ele>936.5</ele>
        <time>2023-07-24T07:36:44Z</time>
      </trkpt>
      <trkpt lat="44.42921" lon="5.41173">
        <ele>936.8</ele>
        <time>2023-07-24T07:36:45Z</time>
      </trkpt>
      <trkpt lat="44.42918" lon="5.41173">
        <ele>937.3</ele>
        <time>2023-07-24T07:36:46Z</time>
      </trkpt>
      <trkpt lat="44.42916" lon="5.41172">
        <ele>937.9</ele>
        <time>2023-07-24T07:36:47Z</time>
      </trkpt>
      <trkpt lat="44.42915" lon="5.41171">
        <ele>938.1</ele>
        <time>2023-07-24T07:36:48Z</time>
      </trkpt>
      <trkpt lat="44.42913" lon="5.4117">
        <ele>938.5</ele>
        <time>2023-07-24T07:36:49Z</time>
      </trkpt>
      <trkpt lat="44.42913" lon="5.4117">
        <ele>938.7</ele>
        <time>2023-07-24T07:36:50Z</time>
      </trkpt>
      <trkpt lat="44.42912" lon="5.4117">
        <ele>938.7</ele>
        <time>2023-07-24T07:36:51Z</time>
      </trkpt>
      <trkpt lat="44.42912" lon="5.4117">
        <ele>938.7</ele>
        <time>2023-07-24T07:36:52Z</time>
      </trkpt>
      <trkpt lat="44.4291" lon="5.41169">
        <ele>939.4</ele>
        <time>2023-07-24T07:36:53Z</time>
      </trkpt>
      <trkpt lat="44.42907" lon="5.41167">
        <ele>940</ele>
        <time>2023-07-24T07:36:54Z</time>
      </trkpt>
      <trkpt lat="44.42906" lon="5.41166">
        <ele>940.2</ele>
        <time>2023-07-24T07:36:55Z</time>
      </trkpt>
      <trkpt lat="44.42904" lon="5.41165">
        <ele>940.8</ele>
        <time>2023-07-24T07:36:56Z</time>
      </trkpt>
      <trkpt lat="44.42903" lon="5.41165">
        <ele>941</ele>
        <time>2023-07-24T07:36:57Z</time>
      </trkpt>
      <trkpt lat="44.42902" lon="5.41164">
        <ele>941.3</ele>
        <time>2023-07-24T07:36:58Z</time>
      </trkpt>
      <trkpt lat="44.429" lon="5.41164">
        <ele>941.6</ele>
        <time>2023-07-24T07:36:59Z</time>
      </trkpt>
      <trkpt lat="44.42897" lon="5.41163">
        <ele>942.3</ele>
        <time>2023-07-24T07:37:00Z</time>
      </trkpt>
      <trkpt lat="44.42895" lon="5.41161">
        <ele>943</ele>
        <time>2023-07-24T07:37:01Z</time>
      </trkpt>
      <trkpt lat="44.42894" lon="5.41161">
        <ele>943.2</ele>
        <time>2023-07-24T07:37:02Z</time>
      </trkpt>
      <trkpt lat="44.42892" lon="5.4116">
        <ele>943.5</ele>
        <time>2023-07-24T07:37:03Z</time>
      </trkpt>
      <trkpt lat="44.42891" lon="5.41159">
        <ele>943.9</ele>
        <time>2023-07-24T07:37:04Z</time>
      </trkpt>
      <trkpt lat="44.42888" lon="5.41157">
        <ele>944.6</ele>
        <time>2023-07-24T07:37:05Z</time>
      </trkpt>
      <trkpt lat="44.42887" lon="5.41156">
        <ele>944.8</ele>
        <time>2023-07-24T07:37:06Z</time>
      </trkpt>
      <trkpt lat="44.42886" lon="5.41155">
        <ele>945.1</ele>
        <time>2023-07-24T07:37:07Z</time>
      </trkpt>
      <trkpt lat="44.42885" lon="5.41154">
        <ele>945.5</ele>
        <time>2023-07-24T07:37:08Z</time>
      </trkpt>
      <trkpt lat="44.42882" lon="5.41151">
        <ele>946.2</ele>
        <time>2023-07-24T07:37:09Z</time>
      </trkpt>
      <trkpt lat="44.42881" lon="5.41151">
        <ele>946.4</ele>
        <time>2023-07-24T07:37:10Z</time>
      </trkpt>
      <trkpt lat="44.4288" lon="5.41149">
        <ele>946.8</ele>
        <time>2023-07-24T07:37:11Z</time>
      </trkpt>
      <trkpt lat="44.42878" lon="5.41148">
        <ele>947.2</ele>
        <time>2023-07-24T07:37:12Z</time>
      </trkpt>
      <trkpt lat="44.42876" lon="5.41146">
        <ele>947.8</ele>
        <time>2023-07-24T07:37:13Z</time>
      </trkpt>
      <trkpt lat="44.42875" lon="5.41145">
        <ele>948</ele>
        <time>2023-07-24T07:37:14Z</time>
      </trkpt>
      <trkpt lat="44.42874" lon="5.41143">
        <ele>948.3</ele>
        <time>2023-07-24T07:37:15Z</time>
      </trkpt>
      <trkpt lat="44.42873" lon="5.41142">
        <ele>948.6</ele>
        <time>2023-07-24T07:37:16Z</time>
      </trkpt>
      <trkpt lat="44.42873" lon="5.41141">
        <ele>948.9</ele>
        <time>2023-07-24T07:37:17Z</time>
      </trkpt>
      <trkpt lat="44.42872" lon="5.4114">
        <ele>949.1</ele>
        <time>2023-07-24T07:37:18Z</time>
      </trkpt>
      <trkpt lat="44.42871" lon="5.41139">
        <ele>949.4</ele>
        <time>2023-07-24T07:37:19Z</time>
      </trkpt>
      <trkpt lat="44.4287" lon="5.41137">
        <ele>949.7</ele>
        <time>2023-07-24T07:37:20Z</time>
      </trkpt>
      <trkpt lat="44.42869" lon="5.41136">
        <ele>950</ele>
        <time>2023-07-24T07:37:21Z</time>
      </trkpt>
      <trkpt lat="44.42868" lon="5.41135">
        <ele>950.3</ele>
        <time>2023-07-24T07:37:22Z</time>
      </trkpt>
      <trkpt lat="44.42867" lon="5.41133">
        <ele>950.7</ele>
        <time>2023-07-24T07:37:23Z</time>
      </trkpt>
      <trkpt lat="44.42865" lon="5.4113">
        <ele>951.3</ele>
        <time>2023-07-24T07:37:24Z</time>
      </trkpt>
      <trkpt lat="44.42864" lon="5.4113">
        <ele>951.5</ele>
        <time>2023-07-24T07:37:25Z</time>
      </trkpt>
      <trkpt lat="44.42863" lon="5.41128">
        <ele>951.8</ele>
        <time>2023-07-24T07:37:26Z</time>
      </trkpt>
      <trkpt lat="44.42862" lon="5.41127">
        <ele>952.2</ele>
        <time>2023-07-24T07:37:27Z</time>
      </trkpt>
      <trkpt lat="44.42861" lon="5.41126">
        <ele>952.5</ele>
        <time>2023-07-24T07:37:28Z</time>
      </trkpt>
      <trkpt lat="44.42859" lon="5.41125">
        <ele>952.8</ele>
        <time>2023-07-24T07:37:29Z</time>
      </trkpt>
      <trkpt lat="44.42858" lon="5.41124">
        <ele>953.2</ele>
        <time>2023-07-24T07:37:30Z</time>
      </trkpt>
      <trkpt lat="44.42857" lon="5.41124">
        <ele>953.5</ele>
        <time>2023-07-24T07:37:31Z</time>
      </trkpt>
      <trkpt lat="44.42855" lon="5.41122">
        <ele>953.8</ele>
        <time>2023-07-24T07:37:32Z</time>
      </trkpt>
      <trkpt lat="44.42854" lon="5.41121">
        <ele>954.2</ele>
        <time>2023-07-24T07:37:33Z</time>
      </trkpt>
      <trkpt lat="44.42852" lon="5.4112">
        <ele>954.5</ele>
        <time>2023-07-24T07:37:34Z</time>
      </trkpt>
      <trkpt lat="44.42852" lon="5.41119">
        <ele>954.8</ele>
        <time>2023-07-24T07:37:35Z</time>
      </trkpt>
      <trkpt lat="44.42851" lon="5.41118">
        <ele>955.1</ele>
        <time>2023-07-24T07:37:36Z</time>
      </trkpt>
      <trkpt lat="44.4285" lon="5.41116">
        <ele>955.3</ele>
        <time>2023-07-24T07:37:37Z</time>
      </trkpt>
      <trkpt lat="44.42849" lon="5.41115">
        <ele>955.6</ele>
        <time>2023-07-24T07:37:38Z</time>
      </trkpt>
      <trkpt lat="44.42848" lon="5.41114">
        <ele>956</ele>
        <time>2023-07-24T07:37:39Z</time>
      </trkpt>
      <trkpt lat="44.42847" lon="5.41113">
        <ele>956.3</ele>
        <time>2023-07-24T07:37:40Z</time>
      </trkpt>
      <trkpt lat="44.42845" lon="5.41112">
        <ele>956.8</ele>
        <time>2023-07-24T07:37:41Z</time>
      </trkpt>
      <trkpt lat="44.42844" lon="5.41111">
        <ele>957</ele>
        <time>2023-07-24T07:37:42Z</time>
      </trkpt>
      <trkpt lat="44.42843" lon="5.41111">
        <ele>957.1</ele>
        <time>2023-07-24T07:37:43Z</time>
      </trkpt>
      <trkpt lat="44.4284" lon="5.41109">
        <ele>957.8</ele>
        <time>2023-07-24T07:37:44Z</time>
      </trkpt>
      <trkpt lat="44.42839" lon="5.41109">
        <ele>958</ele>
        <time>2023-07-24T07:37:45Z</time>
      </trkpt>
      <trkpt lat="44.42838" lon="5.41108">
        <ele>958.4</ele>
        <time>2023-07-24T07:37:46Z</time>
      </trkpt>
      <trkpt lat="44.42836" lon="5.41108">
        <ele>958.8</ele>
        <time>2023-07-24T07:37:47Z</time>
      </trkpt>
      <trkpt lat="44.42834" lon="5.41108">
        <ele>959.2</ele>
        <time>2023-07-24T07:37:48Z</time>
      </trkpt>
      <trkpt lat="44.42833" lon="5.41107">
        <ele>959.6</ele>
        <time>2023-07-24T07:37:49Z</time>
      </trkpt>
      <trkpt lat="44.4283" lon="5.41106">
        <ele>960.2</ele>
        <time>2023-07-24T07:37:50Z</time>
      </trkpt>
      <trkpt lat="44.42829" lon="5.41105">
        <ele>960.4</ele>
        <time>2023-07-24T07:37:51Z</time>
      </trkpt>
      <trkpt lat="44.42829" lon="5.41105">
        <ele>960.4</ele>
        <time>2023-07-24T07:37:52Z</time>
      </trkpt>
      <trkpt lat="44.42829" lon="5.41105">
        <ele>960.5</ele>
        <time>2023-07-24T07:37:53Z</time>
      </trkpt>
      <trkpt lat="44.42828" lon="5.41105">
        <ele>960.7</ele>
        <time>2023-07-24T07:37:54Z</time>
      </trkpt>
      <trkpt lat="44.42828" lon="5.41105">
        <ele>960.7</ele>
        <time>2023-07-24T07:37:55Z</time>
      </trkpt>
      <trkpt lat="44.42828" lon="5.41105">
        <ele>960.7</ele>
        <time>2023-07-24T07:37:56Z</time>
      </trkpt>
      <trkpt lat="44.42826" lon="5.41105">
        <ele>961.2</ele>
        <time>2023-07-24T07:37:57Z</time>
      </trkpt>
      <trkpt lat="44.42824" lon="5.41104">
        <ele>961.5</ele>
        <time>2023-07-24T07:37:58Z</time>
      </trkpt>
      <trkpt lat="44.42823" lon="5.41104">
        <ele>961.7</ele>
        <time>2023-07-24T07:37:59Z</time>
      </trkpt>
      <trkpt lat="44.42822" lon="5.41104">
        <ele>962</ele>
        <time>2023-07-24T07:38:00Z</time>
      </trkpt>
      <trkpt lat="44.42822" lon="5.41104">
        <ele>962</ele>
        <time>2023-07-24T07:38:01Z</time>
      </trkpt>
      <trkpt lat="44.42819" lon="5.41104">
        <ele>962.7</ele>
        <time>2023-07-24T07:38:02Z</time>
      </trkpt>
      <trkpt lat="44.42815" lon="5.41105">
        <ele>963.5</ele>
        <time>2023-07-24T07:38:03Z</time>
      </trkpt>
      <trkpt lat="44.42814" lon="5.41105">
        <ele>963.8</ele>
        <time>2023-07-24T07:38:04Z</time>
      </trkpt>
      <trkpt lat="44.42812" lon="5.41105">
        <ele>964.2</ele>
        <time>2023-07-24T07:38:05Z</time>
      </trkpt>
      <trkpt lat="44.42811" lon="5.41105">
        <ele>964.5</ele>
        <time>2023-07-24T07:38:06Z</time>
      </trkpt>
      <trkpt lat="44.42809" lon="5.41104">
        <ele>965</ele>
        <time>2023-07-24T07:38:07Z</time>
      </trkpt>
      <trkpt lat="44.42808" lon="5.41103">
        <ele>965.2</ele>
        <time>2023-07-24T07:38:08Z</time>
      </trkpt>
      <trkpt lat="44.42808" lon="5.41103">
        <ele>965.3</ele>
        <time>2023-07-24T07:38:09Z</time>
      </trkpt>
      <trkpt lat="44.42807" lon="5.41102">
        <ele>965.5</ele>
        <time>2023-07-24T07:38:10Z</time>
      </trkpt>
      <trkpt lat="44.42806" lon="5.41101">
        <ele>965.8</ele>
        <time>2023-07-24T07:38:11Z</time>
      </trkpt>
      <trkpt lat="44.42805" lon="5.41101">
        <ele>966</ele>
        <time>2023-07-24T07:38:12Z</time>
      </trkpt>
      <trkpt lat="44.42804" lon="5.411">
        <ele>966.3</ele>
        <time>2023-07-24T07:38:13Z</time>
      </trkpt>
      <trkpt lat="44.42803" lon="5.41099">
        <ele>966.7</ele>
        <time>2023-07-24T07:38:14Z</time>
      </trkpt>
      <trkpt lat="44.42801" lon="5.41098">
        <ele>967</ele>
        <time>2023-07-24T07:38:15Z</time>
      </trkpt>
      <trkpt lat="44.428" lon="5.41097">
        <ele>967.3</ele>
        <time>2023-07-24T07:38:16Z</time>
      </trkpt>
      <trkpt lat="44.428" lon="5.41095">
        <ele>967.5</ele>
        <time>2023-07-24T07:38:17Z</time>
      </trkpt>
      <trkpt lat="44.42798" lon="5.41094">
        <ele>967.9</ele>
        <time>2023-07-24T07:38:18Z</time>
      </trkpt>
      <trkpt lat="44.42797" lon="5.41093">
        <ele>968.1</ele>
        <time>2023-07-24T07:38:19Z</time>
      </trkpt>
      <trkpt lat="44.42796" lon="5.41093">
        <ele>968.4</ele>
        <time>2023-07-24T07:38:20Z</time>
      </trkpt>
      <trkpt lat="44.42794" lon="5.4109">
        <ele>969</ele>
        <time>2023-07-24T07:38:21Z</time>
      </trkpt>
      <trkpt lat="44.42794" lon="5.41089">
        <ele>969.2</ele>
        <time>2023-07-24T07:38:22Z</time>
      </trkpt>
      <trkpt lat="44.42792" lon="5.41086">
        <ele>969.8</ele>
        <time>2023-07-24T07:38:23Z</time>
      </trkpt>
      <trkpt lat="44.42791" lon="5.41085">
        <ele>970.1</ele>
        <time>2023-07-24T07:38:24Z</time>
      </trkpt>
      <trkpt lat="44.42789" lon="5.41082">
        <ele>970.7</ele>
        <time>2023-07-24T07:38:25Z</time>
      </trkpt>
      <trkpt lat="44.42788" lon="5.41081">
        <ele>970.9</ele>
        <time>2023-07-24T07:38:26Z</time>
      </trkpt>
      <trkpt lat="44.42786" lon="5.41079">
        <ele>971</ele>
        <time>2023-07-24T07:38:27Z</time>
      </trkpt>
      <trkpt lat="44.42785" lon="5.41078">
        <ele>971.1</ele>
        <time>2023-07-24T07:38:28Z</time>
      </trkpt>
      <trkpt lat="44.42782" lon="5.41076">
        <ele>971.5</ele>
        <time>2023-07-24T07:38:29Z</time>
      </trkpt>
      <trkpt lat="44.42782" lon="5.41075">
        <ele>971.6</ele>
        <time>2023-07-24T07:38:30Z</time>
      </trkpt>
      <trkpt lat="44.4278" lon="5.41072">
        <ele>972</ele>
        <time>2023-07-24T07:38:31Z</time>
      </trkpt>
      <trkpt lat="44.42779" lon="5.41072">
        <ele>972.1</ele>
        <time>2023-07-24T07:38:32Z</time>
      </trkpt>
      <trkpt lat="44.42778" lon="5.4107">
        <ele>972.4</ele>
        <time>2023-07-24T07:38:33Z</time>
      </trkpt>
      <trkpt lat="44.42776" lon="5.41068">
        <ele>972.6</ele>
        <time>2023-07-24T07:38:34Z</time>
      </trkpt>
      <trkpt lat="44.42774" lon="5.41065">
        <ele>973</ele>
        <time>2023-07-24T07:38:35Z</time>
      </trkpt>
      <trkpt lat="44.42774" lon="5.41065">
        <ele>973.1</ele>
        <time>2023-07-24T07:38:36Z</time>
      </trkpt>
      <trkpt lat="44.42772" lon="5.41063">
        <ele>973.3</ele>
        <time>2023-07-24T07:38:37Z</time>
      </trkpt>
      <trkpt lat="44.42771" lon="5.41062">
        <ele>973.5</ele>
        <time>2023-07-24T07:38:38Z</time>
      </trkpt>
      <trkpt lat="44.42769" lon="5.4106">
        <ele>973.8</ele>
        <time>2023-07-24T07:38:39Z</time>
      </trkpt>
      <trkpt lat="44.42768" lon="5.4106">
        <ele>974</ele>
        <time>2023-07-24T07:38:40Z</time>
      </trkpt>
      <trkpt lat="44.42766" lon="5.41058">
        <ele>974.2</ele>
        <time>2023-07-24T07:38:41Z</time>
      </trkpt>
      <trkpt lat="44.42765" lon="5.41057">
        <ele>974.4</ele>
        <time>2023-07-24T07:38:42Z</time>
      </trkpt>
      <trkpt lat="44.42764" lon="5.41056">
        <ele>974.6</ele>
        <time>2023-07-24T07:38:43Z</time>
      </trkpt>
      <trkpt lat="44.42763" lon="5.41055">
        <ele>974.8</ele>
        <time>2023-07-24T07:38:44Z</time>
      </trkpt>
      <trkpt lat="44.42762" lon="5.41054">
        <ele>974.9</ele>
        <time>2023-07-24T07:38:45Z</time>
      </trkpt>
      <trkpt lat="44.42761" lon="5.41053">
        <ele>975.1</ele>
        <time>2023-07-24T07:38:46Z</time>
      </trkpt>
      <trkpt lat="44.4276" lon="5.41052">
        <ele>975.3</ele>
        <time>2023-07-24T07:38:47Z</time>
      </trkpt>
      <trkpt lat="44.42758" lon="5.41051">
        <ele>975.5</ele>
        <time>2023-07-24T07:38:48Z</time>
      </trkpt>
      <trkpt lat="44.42757" lon="5.4105">
        <ele>975.7</ele>
        <time>2023-07-24T07:38:49Z</time>
      </trkpt>
      <trkpt lat="44.42756" lon="5.41049">
        <ele>975.9</ele>
        <time>2023-07-24T07:38:50Z</time>
      </trkpt>
      <trkpt lat="44.42754" lon="5.41048">
        <ele>976.1</ele>
        <time>2023-07-24T07:38:51Z</time>
      </trkpt>
      <trkpt lat="44.42753" lon="5.41048">
        <ele>976.2</ele>
        <time>2023-07-24T07:38:52Z</time>
      </trkpt>
      <trkpt lat="44.42752" lon="5.41047">
        <ele>976.4</ele>
        <time>2023-07-24T07:38:53Z</time>
      </trkpt>
      <trkpt lat="44.4275" lon="5.41047">
        <ele>976.7</ele>
        <time>2023-07-24T07:38:54Z</time>
      </trkpt>
      <trkpt lat="44.42749" lon="5.41047">
        <ele>976.8</ele>
        <time>2023-07-24T07:38:55Z</time>
      </trkpt>
      <trkpt lat="44.42748" lon="5.41046">
        <ele>976.9</ele>
        <time>2023-07-24T07:38:56Z</time>
      </trkpt>
      <trkpt lat="44.42746" lon="5.41048">
        <ele>977.2</ele>
        <time>2023-07-24T07:38:57Z</time>
      </trkpt>
      <trkpt lat="44.42746" lon="5.41049">
        <ele>977.4</ele>
        <time>2023-07-24T07:38:58Z</time>
      </trkpt>
      <trkpt lat="44.42745" lon="5.41051">
        <ele>977.5</ele>
        <time>2023-07-24T07:38:59Z</time>
      </trkpt>
      <trkpt lat="44.42744" lon="5.41052">
        <ele>977.7</ele>
        <time>2023-07-24T07:39:00Z</time>
      </trkpt>
      <trkpt lat="44.42743" lon="5.41054">
        <ele>977.9</ele>
        <time>2023-07-24T07:39:01Z</time>
      </trkpt>
      <trkpt lat="44.42741" lon="5.41056">
        <ele>978.2</ele>
        <time>2023-07-24T07:39:02Z</time>
      </trkpt>
      <trkpt lat="44.4274" lon="5.41057">
        <ele>978.4</ele>
        <time>2023-07-24T07:39:03Z</time>
      </trkpt>
      <trkpt lat="44.42739" lon="5.41058">
        <ele>978.5</ele>
        <time>2023-07-24T07:39:04Z</time>
      </trkpt>
      <trkpt lat="44.42737" lon="5.41061">
        <ele>978.9</ele>
        <time>2023-07-24T07:39:05Z</time>
      </trkpt>
      <trkpt lat="44.42737" lon="5.41062">
        <ele>979</ele>
        <time>2023-07-24T07:39:06Z</time>
      </trkpt>
      <trkpt lat="44.42735" lon="5.41064">
        <ele>979.3</ele>
        <time>2023-07-24T07:39:07Z</time>
      </trkpt>
      <trkpt lat="44.42734" lon="5.41065">
        <ele>979.5</ele>
        <time>2023-07-24T07:39:08Z</time>
      </trkpt>
      <trkpt lat="44.42733" lon="5.41067">
        <ele>979.7</ele>
        <time>2023-07-24T07:39:09Z</time>
      </trkpt>
      <trkpt lat="44.42732" lon="5.41069">
        <ele>979.9</ele>
        <time>2023-07-24T07:39:10Z</time>
      </trkpt>
      <trkpt lat="44.42731" lon="5.4107">
        <ele>980.1</ele>
        <time>2023-07-24T07:39:11Z</time>
      </trkpt>
      <trkpt lat="44.4273" lon="5.41072">
        <ele>980.3</ele>
        <time>2023-07-24T07:39:12Z</time>
      </trkpt>
      <trkpt lat="44.42729" lon="5.41074">
        <ele>980.5</ele>
        <time>2023-07-24T07:39:13Z</time>
      </trkpt>
      <trkpt lat="44.42729" lon="5.41076">
        <ele>980.7</ele>
        <time>2023-07-24T07:39:14Z</time>
      </trkpt>
      <trkpt lat="44.42728" lon="5.41078">
        <ele>980.9</ele>
        <time>2023-07-24T07:39:15Z</time>
      </trkpt>
      <trkpt lat="44.42728" lon="5.4108">
        <ele>981.2</ele>
        <time>2023-07-24T07:39:16Z</time>
      </trkpt>
      <trkpt lat="44.42727" lon="5.41084">
        <ele>981.5</ele>
        <time>2023-07-24T07:39:17Z</time>
      </trkpt>
      <trkpt lat="44.42727" lon="5.41085">
        <ele>981.7</ele>
        <time>2023-07-24T07:39:18Z</time>
      </trkpt>
      <trkpt lat="44.42727" lon="5.41089">
        <ele>982.1</ele>
        <time>2023-07-24T07:39:19Z</time>
      </trkpt>
      <trkpt lat="44.42727" lon="5.41091">
        <ele>982.2</ele>
        <time>2023-07-24T07:39:20Z</time>
      </trkpt>
      <trkpt lat="44.42728" lon="5.41095">
        <ele>982.6</ele>
        <time>2023-07-24T07:39:21Z</time>
      </trkpt>
      <trkpt lat="44.42728" lon="5.41096">
        <ele>982.7</ele>
        <time>2023-07-24T07:39:22Z</time>
      </trkpt>
      <trkpt lat="44.42728" lon="5.41101">
        <ele>983.1</ele>
        <time>2023-07-24T07:39:23Z</time>
      </trkpt>
      <trkpt lat="44.42728" lon="5.41103">
        <ele>983.3</ele>
        <time>2023-07-24T07:39:24Z</time>
      </trkpt>
      <trkpt lat="44.42729" lon="5.41107">
        <ele>983.7</ele>
        <time>2023-07-24T07:39:25Z</time>
      </trkpt>
      <trkpt lat="44.4273" lon="5.41108">
        <ele>983.8</ele>
        <time>2023-07-24T07:39:26Z</time>
      </trkpt>
      <trkpt lat="44.4273" lon="5.4111">
        <ele>984.1</ele>
        <time>2023-07-24T07:39:27Z</time>
      </trkpt>
      <trkpt lat="44.42731" lon="5.41112">
        <ele>984.3</ele>
        <time>2023-07-24T07:39:28Z</time>
      </trkpt>
      <trkpt lat="44.42732" lon="5.41117">
        <ele>984.7</ele>
        <time>2023-07-24T07:39:29Z</time>
      </trkpt>
      <trkpt lat="44.42732" lon="5.41119">
        <ele>984.9</ele>
        <time>2023-07-24T07:39:30Z</time>
      </trkpt>
      <trkpt lat="44.42733" lon="5.41123">
        <ele>985.3</ele>
        <time>2023-07-24T07:39:31Z</time>
      </trkpt>
      <trkpt lat="44.42734" lon="5.41124">
        <ele>985.5</ele>
        <time>2023-07-24T07:39:32Z</time>
      </trkpt>
      <trkpt lat="44.42735" lon="5.41129">
        <ele>985.9</ele>
        <time>2023-07-24T07:39:33Z</time>
      </trkpt>
      <trkpt lat="44.42736" lon="5.4113">
        <ele>986.1</ele>
        <time>2023-07-24T07:39:34Z</time>
      </trkpt>
      <trkpt lat="44.42737" lon="5.41135">
        <ele>986.6</ele>
        <time>2023-07-24T07:39:35Z</time>
      </trkpt>
      <trkpt lat="44.42738" lon="5.41136">
        <ele>986.7</ele>
        <time>2023-07-24T07:39:36Z</time>
      </trkpt>
      <trkpt lat="44.42739" lon="5.41141">
        <ele>987.2</ele>
        <time>2023-07-24T07:39:37Z</time>
      </trkpt>
      <trkpt lat="44.42739" lon="5.41142">
        <ele>987.4</ele>
        <time>2023-07-24T07:39:38Z</time>
      </trkpt>
      <trkpt lat="44.4274" lon="5.41146">
        <ele>987.7</ele>
        <time>2023-07-24T07:39:39Z</time>
      </trkpt>
      <trkpt lat="44.42741" lon="5.41147">
        <ele>987.9</ele>
        <time>2023-07-24T07:39:40Z</time>
      </trkpt>
      <trkpt lat="44.42741" lon="5.41149">
        <ele>988</ele>
        <time>2023-07-24T07:39:41Z</time>
      </trkpt>
      <trkpt lat="44.42742" lon="5.41151">
        <ele>988.2</ele>
        <time>2023-07-24T07:39:42Z</time>
      </trkpt>
      <trkpt lat="44.42743" lon="5.41152">
        <ele>988.4</ele>
        <time>2023-07-24T07:39:43Z</time>
      </trkpt>
      <trkpt lat="44.42744" lon="5.41154">
        <ele>988.6</ele>
        <time>2023-07-24T07:39:44Z</time>
      </trkpt>
      <trkpt lat="44.42746" lon="5.41155">
        <ele>988.9</ele>
        <time>2023-07-24T07:39:45Z</time>
      </trkpt>
      <trkpt lat="44.42747" lon="5.41157">
        <ele>989.1</ele>
        <time>2023-07-24T07:39:46Z</time>
      </trkpt>
      <trkpt lat="44.42747" lon="5.41159">
        <ele>989.3</ele>
        <time>2023-07-24T07:39:47Z</time>
      </trkpt>
      <trkpt lat="44.42748" lon="5.41161">
        <ele>989.5</ele>
        <time>2023-07-24T07:39:48Z</time>
      </trkpt>
      <trkpt lat="44.42749" lon="5.41164">
        <ele>989.8</ele>
        <time>2023-07-24T07:39:49Z</time>
      </trkpt>
      <trkpt lat="44.42749" lon="5.41166">
        <ele>990</ele>
        <time>2023-07-24T07:39:50Z</time>
      </trkpt>
      <trkpt lat="44.4275" lon="5.41168">
        <ele>990.2</ele>
        <time>2023-07-24T07:39:51Z</time>
      </trkpt>
      <trkpt lat="44.42749" lon="5.41173">
        <ele>990.7</ele>
        <time>2023-07-24T07:39:53Z</time>
      </trkpt>
      <trkpt lat="44.42747" lon="5.41174">
        <ele>990.9</ele>
        <time>2023-07-24T07:39:54Z</time>
      </trkpt>
      <trkpt lat="44.42746" lon="5.41175">
        <ele>991.1</ele>
        <time>2023-07-24T07:39:55Z</time>
      </trkpt>
      <trkpt lat="44.42745" lon="5.41176">
        <ele>991.3</ele>
        <time>2023-07-24T07:39:56Z</time>
      </trkpt>
      <trkpt lat="44.42744" lon="5.41177">
        <ele>991.4</ele>
        <time>2023-07-24T07:39:57Z</time>
      </trkpt>
      <trkpt lat="44.42743" lon="5.41177">
        <ele>991.5</ele>
        <time>2023-07-24T07:39:58Z</time>
      </trkpt>
      <trkpt lat="44.42743" lon="5.41178">
        <ele>991.6</ele>
        <time>2023-07-24T07:39:59Z</time>
      </trkpt>
      <trkpt lat="44.42742" lon="5.41177">
        <ele>991.7</ele>
        <time>2023-07-24T07:40:00Z</time>
      </trkpt>
      <trkpt lat="44.42742" lon="5.41177">
        <ele>991.8</ele>
        <time>2023-07-24T07:40:01Z</time>
      </trkpt>
      <trkpt lat="44.42741" lon="5.41177">
        <ele>991.8</ele>
        <time>2023-07-24T07:40:02Z</time>
      </trkpt>
      <trkpt lat="44.4274" lon="5.41177">
        <ele>991.9</ele>
        <time>2023-07-24T07:40:03Z</time>
      </trkpt>
      <trkpt lat="44.4274" lon="5.41176">
        <ele>992</ele>
        <time>2023-07-24T07:40:04Z</time>
      </trkpt>
      <trkpt lat="44.42739" lon="5.41176">
        <ele>992.1</ele>
        <time>2023-07-24T07:40:05Z</time>
      </trkpt>
      <trkpt lat="44.42738" lon="5.41175">
        <ele>992.2</ele>
        <time>2023-07-24T07:40:06Z</time>
      </trkpt>
      <trkpt lat="44.42738" lon="5.41175">
        <ele>992.3</ele>
        <time>2023-07-24T07:40:07Z</time>
      </trkpt>
      <trkpt lat="44.42737" lon="5.41174">
        <ele>992.5</ele>
        <time>2023-07-24T07:40:08Z</time>
      </trkpt>
      <trkpt lat="44.42736" lon="5.41173">
        <ele>992.6</ele>
        <time>2023-07-24T07:40:09Z</time>
      </trkpt>
      <trkpt lat="44.42735" lon="5.41171">
        <ele>992.8</ele>
        <time>2023-07-24T07:40:10Z</time>
      </trkpt>
      <trkpt lat="44.42734" lon="5.41169">
        <ele>993.1</ele>
        <time>2023-07-24T07:40:11Z</time>
      </trkpt>
      <trkpt lat="44.42732" lon="5.41168">
        <ele>993.3</ele>
        <time>2023-07-24T07:40:12Z</time>
      </trkpt>
      <trkpt lat="44.42731" lon="5.41167">
        <ele>993.5</ele>
        <time>2023-07-24T07:40:13Z</time>
      </trkpt>
      <trkpt lat="44.4273" lon="5.41166">
        <ele>993.7</ele>
        <time>2023-07-24T07:40:14Z</time>
      </trkpt>
      <trkpt lat="44.42728" lon="5.41164">
        <ele>994</ele>
        <time>2023-07-24T07:40:15Z</time>
      </trkpt>
      <trkpt lat="44.42727" lon="5.41163">
        <ele>994.1</ele>
        <time>2023-07-24T07:40:16Z</time>
      </trkpt>
      <trkpt lat="44.42727" lon="5.41163">
        <ele>994.2</ele>
        <time>2023-07-24T07:40:17Z</time>
      </trkpt>
      <trkpt lat="44.42725" lon="5.41162">
        <ele>994.4</ele>
        <time>2023-07-24T07:40:18Z</time>
      </trkpt>
      <trkpt lat="44.42724" lon="5.4116">
        <ele>994.6</ele>
        <time>2023-07-24T07:40:19Z</time>
      </trkpt>
      <trkpt lat="44.42723" lon="5.41159">
        <ele>994.8</ele>
        <time>2023-07-24T07:40:20Z</time>
      </trkpt>
      <trkpt lat="44.42722" lon="5.41157">
        <ele>995</ele>
        <time>2023-07-24T07:40:21Z</time>
      </trkpt>
      <trkpt lat="44.42721" lon="5.41156">
        <ele>995.2</ele>
        <time>2023-07-24T07:40:22Z</time>
      </trkpt>
      <trkpt lat="44.4272" lon="5.41155">
        <ele>995.4</ele>
        <time>2023-07-24T07:40:23Z</time>
      </trkpt>
      <trkpt lat="44.42719" lon="5.41153">
        <ele>995.6</ele>
        <time>2023-07-24T07:40:24Z</time>
      </trkpt>
      <trkpt lat="44.42718" lon="5.41152">
        <ele>995.8</ele>
        <time>2023-07-24T07:40:25Z</time>
      </trkpt>
      <trkpt lat="44.42717" lon="5.4115">
        <ele>996</ele>
        <time>2023-07-24T07:40:26Z</time>
      </trkpt>
      <trkpt lat="44.42716" lon="5.41148">
        <ele>996.2</ele>
        <time>2023-07-24T07:40:27Z</time>
      </trkpt>
      <trkpt lat="44.42715" lon="5.41147">
        <ele>996.4</ele>
        <time>2023-07-24T07:40:28Z</time>
      </trkpt>
      <trkpt lat="44.42714" lon="5.41145">
        <ele>996.6</ele>
        <time>2023-07-24T07:40:29Z</time>
      </trkpt>
      <trkpt lat="44.42713" lon="5.41144">
        <ele>996.8</ele>
        <time>2023-07-24T07:40:30Z</time>
      </trkpt>
      <trkpt lat="44.42712" lon="5.41142">
        <ele>997.1</ele>
        <time>2023-07-24T07:40:31Z</time>
      </trkpt>
      <trkpt lat="44.42709" lon="5.41139">
        <ele>997.5</ele>
        <time>2023-07-24T07:40:32Z</time>
      </trkpt>
      <trkpt lat="44.42708" lon="5.41138">
        <ele>997.7</ele>
        <time>2023-07-24T07:40:33Z</time>
      </trkpt>
      <trkpt lat="44.42706" lon="5.41135">
        <ele>998.1</ele>
        <time>2023-07-24T07:40:34Z</time>
      </trkpt>
      <trkpt lat="44.42705" lon="5.41134">
        <ele>998.2</ele>
        <time>2023-07-24T07:40:35Z</time>
      </trkpt>
      <trkpt lat="44.42703" lon="5.4113">
        <ele>998.6</ele>
        <time>2023-07-24T07:40:36Z</time>
      </trkpt>
      <trkpt lat="44.42702" lon="5.41129">
        <ele>998.8</ele>
        <time>2023-07-24T07:40:37Z</time>
      </trkpt>
      <trkpt lat="44.427" lon="5.41126">
        <ele>999.2</ele>
        <time>2023-07-24T07:40:38Z</time>
      </trkpt>
      <trkpt lat="44.427" lon="5.41125">
        <ele>999.3</ele>
        <time>2023-07-24T07:40:39Z</time>
      </trkpt>
      <trkpt lat="44.42698" lon="5.41122">
        <ele>999.6</ele>
        <time>2023-07-24T07:40:40Z</time>
      </trkpt>
      <trkpt lat="44.42698" lon="5.41121">
        <ele>999.8</ele>
        <time>2023-07-24T07:40:41Z</time>
      </trkpt>
      <trkpt lat="44.42695" lon="5.41118">
        <ele>1000.2</ele>
        <time>2023-07-24T07:40:42Z</time>
      </trkpt>
      <trkpt lat="44.42694" lon="5.41117">
        <ele>1000.4</ele>
        <time>2023-07-24T07:40:43Z</time>
      </trkpt>
      <trkpt lat="44.42691" lon="5.41115">
        <ele>1000.8</ele>
        <time>2023-07-24T07:40:44Z</time>
      </trkpt>
      <trkpt lat="44.42691" lon="5.41114">
        <ele>1000.9</ele>
        <time>2023-07-24T07:40:45Z</time>
      </trkpt>
      <trkpt lat="44.42688" lon="5.41112">
        <ele>1001.2</ele>
        <time>2023-07-24T07:40:46Z</time>
      </trkpt>
      <trkpt lat="44.42688" lon="5.41111">
        <ele>1001.4</ele>
        <time>2023-07-24T07:40:47Z</time>
      </trkpt>
      <trkpt lat="44.42686" lon="5.41108">
        <ele>1001.8</ele>
        <time>2023-07-24T07:40:48Z</time>
      </trkpt>
      <trkpt lat="44.42685" lon="5.41107">
        <ele>1001.9</ele>
        <time>2023-07-24T07:40:49Z</time>
      </trkpt>
      <trkpt lat="44.42682" lon="5.41104">
        <ele>1002.3</ele>
        <time>2023-07-24T07:40:50Z</time>
      </trkpt>
      <trkpt lat="44.42681" lon="5.41104">
        <ele>1002.5</ele>
        <time>2023-07-24T07:40:51Z</time>
      </trkpt>
      <trkpt lat="44.4268" lon="5.41102">
        <ele>1002.7</ele>
        <time>2023-07-24T07:40:52Z</time>
      </trkpt>
      <trkpt lat="44.42679" lon="5.41101">
        <ele>1002.9</ele>
        <time>2023-07-24T07:40:53Z</time>
      </trkpt>
      <trkpt lat="44.42678" lon="5.41099">
        <ele>1003.1</ele>
        <time>2023-07-24T07:40:54Z</time>
      </trkpt>
      <trkpt lat="44.42676" lon="5.41098">
        <ele>1003.4</ele>
        <time>2023-07-24T07:40:55Z</time>
      </trkpt>
      <trkpt lat="44.42674" lon="5.41096">
        <ele>1003.8</ele>
        <time>2023-07-24T07:40:56Z</time>
      </trkpt>
      <trkpt lat="44.42673" lon="5.41095">
        <ele>1003.9</ele>
        <time>2023-07-24T07:40:57Z</time>
      </trkpt>
      <trkpt lat="44.4267" lon="5.41093">
        <ele>1004.3</ele>
        <time>2023-07-24T07:40:58Z</time>
      </trkpt>
      <trkpt lat="44.42669" lon="5.41093">
        <ele>1004.5</ele>
        <time>2023-07-24T07:40:59Z</time>
      </trkpt>
      <trkpt lat="44.42667" lon="5.41092">
        <ele>1004.7</ele>
        <time>2023-07-24T07:41:00Z</time>
      </trkpt>
      <trkpt lat="44.42666" lon="5.41091">
        <ele>1004.8</ele>
        <time>2023-07-24T07:41:01Z</time>
      </trkpt>
      <trkpt lat="44.42664" lon="5.4109">
        <ele>1005.1</ele>
        <time>2023-07-24T07:41:02Z</time>
      </trkpt>
      <trkpt lat="44.42663" lon="5.41089">
        <ele>1005.3</ele>
        <time>2023-07-24T07:41:03Z</time>
      </trkpt>
      <trkpt lat="44.42662" lon="5.41089">
        <ele>1005.4</ele>
        <time>2023-07-24T07:41:04Z</time>
      </trkpt>
      <trkpt lat="44.42661" lon="5.41088">
        <ele>1005.6</ele>
        <time>2023-07-24T07:41:05Z</time>
      </trkpt>
      <trkpt lat="44.42659" lon="5.41087">
        <ele>1005.9</ele>
        <time>2023-07-24T07:41:06Z</time>
      </trkpt>
      <trkpt lat="44.42657" lon="5.41085">
        <ele>1006.1</ele>
        <time>2023-07-24T07:41:07Z</time>
      </trkpt>
      <trkpt lat="44.42656" lon="5.41084">
        <ele>1006.3</ele>
        <time>2023-07-24T07:41:08Z</time>
      </trkpt>
      <trkpt lat="44.42655" lon="5.41082">
        <ele>1006.5</ele>
        <time>2023-07-24T07:41:09Z</time>
      </trkpt>
      <trkpt lat="44.42654" lon="5.41081">
        <ele>1006.7</ele>
        <time>2023-07-24T07:41:10Z</time>
      </trkpt>
      <trkpt lat="44.42653" lon="5.4108">
        <ele>1006.9</ele>
        <time>2023-07-24T07:41:11Z</time>
      </trkpt>
      <trkpt lat="44.42652" lon="5.41078">
        <ele>1007.1</ele>
        <time>2023-07-24T07:41:12Z</time>
      </trkpt>
      <trkpt lat="44.42651" lon="5.41077">
        <ele>1007.3</ele>
        <time>2023-07-24T07:41:13Z</time>
      </trkpt>
      <trkpt lat="44.4265" lon="5.41076">
        <ele>1007.5</ele>
        <time>2023-07-24T07:41:14Z</time>
      </trkpt>
      <trkpt lat="44.42649" lon="5.41074">
        <ele>1007.7</ele>
        <time>2023-07-24T07:41:15Z</time>
      </trkpt>
      <trkpt lat="44.42648" lon="5.41072">
        <ele>1007.9</ele>
        <time>2023-07-24T07:41:16Z</time>
      </trkpt>
      <trkpt lat="44.42647" lon="5.41071">
        <ele>1008.1</ele>
        <time>2023-07-24T07:41:17Z</time>
      </trkpt>
      <trkpt lat="44.42645" lon="5.41069">
        <ele>1008.4</ele>
        <time>2023-07-24T07:41:18Z</time>
      </trkpt>
      <trkpt lat="44.42643" lon="5.41066">
        <ele>1008.7</ele>
        <time>2023-07-24T07:41:19Z</time>
      </trkpt>
      <trkpt lat="44.42643" lon="5.41065">
        <ele>1008.9</ele>
        <time>2023-07-24T07:41:20Z</time>
      </trkpt>
      <trkpt lat="44.42641" lon="5.41063">
        <ele>1009.1</ele>
        <time>2023-07-24T07:41:21Z</time>
      </trkpt>
      <trkpt lat="44.4264" lon="5.41062">
        <ele>1009.3</ele>
        <time>2023-07-24T07:41:22Z</time>
      </trkpt>
      <trkpt lat="44.42638" lon="5.41061">
        <ele>1009.5</ele>
        <time>2023-07-24T07:41:23Z</time>
      </trkpt>
      <trkpt lat="44.42637" lon="5.4106">
        <ele>1009.7</ele>
        <time>2023-07-24T07:41:24Z</time>
      </trkpt>
      <trkpt lat="44.42637" lon="5.41058">
        <ele>1009.9</ele>
        <time>2023-07-24T07:41:25Z</time>
      </trkpt>
      <trkpt lat="44.42636" lon="5.41056">
        <ele>1010.1</ele>
        <time>2023-07-24T07:41:26Z</time>
      </trkpt>
      <trkpt lat="44.42635" lon="5.41053">
        <ele>1010.4</ele>
        <time>2023-07-24T07:41:27Z</time>
      </trkpt>
      <trkpt lat="44.42635" lon="5.41052">
        <ele>1010.5</ele>
        <time>2023-07-24T07:41:28Z</time>
      </trkpt>
      <trkpt lat="44.42635" lon="5.41051">
        <ele>1010.7</ele>
        <time>2023-07-24T07:41:29Z</time>
      </trkpt>
      <trkpt lat="44.42634" lon="5.41047">
        <ele>1011</ele>
        <time>2023-07-24T07:41:30Z</time>
      </trkpt>
      <trkpt lat="44.42633" lon="5.41046">
        <ele>1011.2</ele>
        <time>2023-07-24T07:41:31Z</time>
      </trkpt>
      <trkpt lat="44.42632" lon="5.41042">
        <ele>1011.6</ele>
        <time>2023-07-24T07:41:32Z</time>
      </trkpt>
      <trkpt lat="44.42631" lon="5.41041">
        <ele>1011.7</ele>
        <time>2023-07-24T07:41:33Z</time>
      </trkpt>
      <trkpt lat="44.42631" lon="5.41037">
        <ele>1012.1</ele>
        <time>2023-07-24T07:41:34Z</time>
      </trkpt>
      <trkpt lat="44.4263" lon="5.41036">
        <ele>1012.2</ele>
        <time>2023-07-24T07:41:35Z</time>
      </trkpt>
      <trkpt lat="44.4263" lon="5.41032">
        <ele>1012.6</ele>
        <time>2023-07-24T07:41:36Z</time>
      </trkpt>
      <trkpt lat="44.4263" lon="5.41031">
        <ele>1012.7</ele>
        <time>2023-07-24T07:41:37Z</time>
      </trkpt>
      <trkpt lat="44.42629" lon="5.41029">
        <ele>1012.9</ele>
        <time>2023-07-24T07:41:38Z</time>
      </trkpt>
      <trkpt lat="44.42629" lon="5.41027">
        <ele>1013.1</ele>
        <time>2023-07-24T07:41:39Z</time>
      </trkpt>
      <trkpt lat="44.42628" lon="5.41025">
        <ele>1013.3</ele>
        <time>2023-07-24T07:41:40Z</time>
      </trkpt>
      <trkpt lat="44.42627" lon="5.41023">
        <ele>1013.5</ele>
        <time>2023-07-24T07:41:41Z</time>
      </trkpt>
      <trkpt lat="44.42625" lon="5.4102">
        <ele>1013.9</ele>
        <time>2023-07-24T07:41:42Z</time>
      </trkpt>
      <trkpt lat="44.42625" lon="5.41019">
        <ele>1014</ele>
        <time>2023-07-24T07:41:43Z</time>
      </trkpt>
      <trkpt lat="44.42624" lon="5.41015">
        <ele>1014.4</ele>
        <time>2023-07-24T07:41:44Z</time>
      </trkpt>
      <trkpt lat="44.42624" lon="5.41014">
        <ele>1014.5</ele>
        <time>2023-07-24T07:41:45Z</time>
      </trkpt>
      <trkpt lat="44.42623" lon="5.41012">
        <ele>1014.7</ele>
        <time>2023-07-24T07:41:46Z</time>
      </trkpt>
      <trkpt lat="44.42622" lon="5.41011">
        <ele>1014.9</ele>
        <time>2023-07-24T07:41:47Z</time>
      </trkpt>
      <trkpt lat="44.42621" lon="5.41009">
        <ele>1015.1</ele>
        <time>2023-07-24T07:41:48Z</time>
      </trkpt>
      <trkpt lat="44.4262" lon="5.41008">
        <ele>1015.3</ele>
        <time>2023-07-24T07:41:49Z</time>
      </trkpt>
      <trkpt lat="44.42619" lon="5.41007">
        <ele>1015.5</ele>
        <time>2023-07-24T07:41:50Z</time>
      </trkpt>
      <trkpt lat="44.42617" lon="5.41005">
        <ele>1015.7</ele>
        <time>2023-07-24T07:41:51Z</time>
      </trkpt>
      <trkpt lat="44.42616" lon="5.41003">
        <ele>1015.9</ele>
        <time>2023-07-24T07:41:52Z</time>
      </trkpt>
      <trkpt lat="44.42614" lon="5.41002">
        <ele>1016.2</ele>
        <time>2023-07-24T07:41:53Z</time>
      </trkpt>
      <trkpt lat="44.42612" lon="5.40999">
        <ele>1016.8</ele>
        <time>2023-07-24T07:41:54Z</time>
      </trkpt>
      <trkpt lat="44.42611" lon="5.40998">
        <ele>1017</ele>
        <time>2023-07-24T07:41:55Z</time>
      </trkpt>
      <trkpt lat="44.4261" lon="5.40996">
        <ele>1017.4</ele>
        <time>2023-07-24T07:41:56Z</time>
      </trkpt>
      <trkpt lat="44.4261" lon="5.40995">
        <ele>1017.7</ele>
        <time>2023-07-24T07:41:57Z</time>
      </trkpt>
      <trkpt lat="44.42609" lon="5.40993">
        <ele>1018</ele>
        <time>2023-07-24T07:41:58Z</time>
      </trkpt>
      <trkpt lat="44.42607" lon="5.40991">
        <ele>1018.3</ele>
        <time>2023-07-24T07:41:59Z</time>
      </trkpt>
      <trkpt lat="44.42606" lon="5.40989">
        <ele>1018.7</ele>
        <time>2023-07-24T07:42:00Z</time>
      </trkpt>
      <trkpt lat="44.42605" lon="5.40988">
        <ele>1019.1</ele>
        <time>2023-07-24T07:42:01Z</time>
      </trkpt>
      <trkpt lat="44.42604" lon="5.40986">
        <ele>1019.4</ele>
        <time>2023-07-24T07:42:02Z</time>
      </trkpt>
      <trkpt lat="44.42602" lon="5.40985">
        <ele>1019.7</ele>
        <time>2023-07-24T07:42:03Z</time>
      </trkpt>
      <trkpt lat="44.426" lon="5.40982">
        <ele>1020.3</ele>
        <time>2023-07-24T07:42:04Z</time>
      </trkpt>
      <trkpt lat="44.42599" lon="5.40982">
        <ele>1020.5</ele>
        <time>2023-07-24T07:42:05Z</time>
      </trkpt>
      <trkpt lat="44.42596" lon="5.40979">
        <ele>1021.2</ele>
        <time>2023-07-24T07:42:06Z</time>
      </trkpt>
      <trkpt lat="44.42596" lon="5.40979">
        <ele>1021.4</ele>
        <time>2023-07-24T07:42:07Z</time>
      </trkpt>
      <trkpt lat="44.42594" lon="5.40978">
        <ele>1021.8</ele>
        <time>2023-07-24T07:42:08Z</time>
      </trkpt>
      <trkpt lat="44.42593" lon="5.40977">
        <ele>1022</ele>
        <time>2023-07-24T07:42:09Z</time>
      </trkpt>
      <trkpt lat="44.42591" lon="5.40977">
        <ele>1022.3</ele>
        <time>2023-07-24T07:42:10Z</time>
      </trkpt>
      <trkpt lat="44.4259" lon="5.40977">
        <ele>1022.7</ele>
        <time>2023-07-24T07:42:11Z</time>
      </trkpt>
      <trkpt lat="44.42588" lon="5.40977">
        <ele>1023</ele>
        <time>2023-07-24T07:42:12Z</time>
      </trkpt>
      <trkpt lat="44.42586" lon="5.40977">
        <ele>1023.3</ele>
        <time>2023-07-24T07:42:13Z</time>
      </trkpt>
      <trkpt lat="44.42583" lon="5.40976">
        <ele>1023.9</ele>
        <time>2023-07-24T07:42:14Z</time>
      </trkpt>
      <trkpt lat="44.42582" lon="5.40976">
        <ele>1024.2</ele>
        <time>2023-07-24T07:42:15Z</time>
      </trkpt>
      <trkpt lat="44.42581" lon="5.40975">
        <ele>1024.5</ele>
        <time>2023-07-24T07:42:16Z</time>
      </trkpt>
      <trkpt lat="44.42579" lon="5.40974">
        <ele>1024.8</ele>
        <time>2023-07-24T07:42:17Z</time>
      </trkpt>
      <trkpt lat="44.42578" lon="5.40973">
        <ele>1025.2</ele>
        <time>2023-07-24T07:42:18Z</time>
      </trkpt>
      <trkpt lat="44.42576" lon="5.40973">
        <ele>1025.6</ele>
        <time>2023-07-24T07:42:19Z</time>
      </trkpt>
      <trkpt lat="44.42574" lon="5.40972">
        <ele>1025.9</ele>
        <time>2023-07-24T07:42:20Z</time>
      </trkpt>
      <trkpt lat="44.42573" lon="5.40972">
        <ele>1026.2</ele>
        <time>2023-07-24T07:42:21Z</time>
      </trkpt>
      <trkpt lat="44.4257" lon="5.40972">
        <ele>1026.9</ele>
        <time>2023-07-24T07:42:22Z</time>
      </trkpt>
      <trkpt lat="44.42569" lon="5.40972">
        <ele>1027.1</ele>
        <time>2023-07-24T07:42:23Z</time>
      </trkpt>
      <trkpt lat="44.42567" lon="5.40973">
        <ele>1027.5</ele>
        <time>2023-07-24T07:42:24Z</time>
      </trkpt>
      <trkpt lat="44.42566" lon="5.40974">
        <ele>1027.7</ele>
        <time>2023-07-24T07:42:25Z</time>
      </trkpt>
      <trkpt lat="44.42565" lon="5.40977">
        <ele>1028.3</ele>
        <time>2023-07-24T07:42:26Z</time>
      </trkpt>
      <trkpt lat="44.42564" lon="5.40978">
        <ele>1028.5</ele>
        <time>2023-07-24T07:42:27Z</time>
      </trkpt>
      <trkpt lat="44.42565" lon="5.40982">
        <ele>1029.1</ele>
        <time>2023-07-24T07:42:28Z</time>
      </trkpt>
      <trkpt lat="44.42565" lon="5.40984">
        <ele>1029.3</ele>
        <time>2023-07-24T07:42:29Z</time>
      </trkpt>
      <trkpt lat="44.42566" lon="5.40989">
        <ele>1030.1</ele>
        <time>2023-07-24T07:42:30Z</time>
      </trkpt>
      <trkpt lat="44.42567" lon="5.40991">
        <ele>1030.4</ele>
        <time>2023-07-24T07:42:31Z</time>
      </trkpt>
      <trkpt lat="44.42568" lon="5.40995">
        <ele>1031</ele>
        <time>2023-07-24T07:42:32Z</time>
      </trkpt>
      <trkpt lat="44.42568" lon="5.40996">
        <ele>1031.1</ele>
        <time>2023-07-24T07:42:33Z</time>
      </trkpt>
      <trkpt lat="44.42569" lon="5.40998">
        <ele>1031.5</ele>
        <time>2023-07-24T07:42:34Z</time>
      </trkpt>
      <trkpt lat="44.4257" lon="5.41">
        <ele>1031.9</ele>
        <time>2023-07-24T07:42:35Z</time>
      </trkpt>
      <trkpt lat="44.42571" lon="5.41002">
        <ele>1032.2</ele>
        <time>2023-07-24T07:42:36Z</time>
      </trkpt>
      <trkpt lat="44.42572" lon="5.41004">
        <ele>1032.5</ele>
        <time>2023-07-24T07:42:37Z</time>
      </trkpt>
      <trkpt lat="44.42572" lon="5.41006">
        <ele>1032.8</ele>
        <time>2023-07-24T07:42:38Z</time>
      </trkpt>
      <trkpt lat="44.42572" lon="5.41008">
        <ele>1033.1</ele>
        <time>2023-07-24T07:42:39Z</time>
      </trkpt>
      <trkpt lat="44.42572" lon="5.41009">
        <ele>1033.4</ele>
        <time>2023-07-24T07:42:40Z</time>
      </trkpt>
      <trkpt lat="44.42572" lon="5.41011">
        <ele>1033.6</ele>
        <time>2023-07-24T07:42:41Z</time>
      </trkpt>
      <trkpt lat="44.42572" lon="5.41013">
        <ele>1033.9</ele>
        <time>2023-07-24T07:42:42Z</time>
      </trkpt>
      <trkpt lat="44.42571" lon="5.41014">
        <ele>1034.1</ele>
        <time>2023-07-24T07:42:43Z</time>
      </trkpt>
      <trkpt lat="44.4257" lon="5.41015">
        <ele>1034.3</ele>
        <time>2023-07-24T07:42:44Z</time>
      </trkpt>
      <trkpt lat="44.42569" lon="5.41015">
        <ele>1034.5</ele>
        <time>2023-07-24T07:42:45Z</time>
      </trkpt>
      <trkpt lat="44.42568" lon="5.41015">
        <ele>1034.7</ele>
        <time>2023-07-24T07:42:46Z</time>
      </trkpt>
      <trkpt lat="44.42567" lon="5.41015">
        <ele>1034.9</ele>
        <time>2023-07-24T07:42:47Z</time>
      </trkpt>
      <trkpt lat="44.42567" lon="5.41014">
        <ele>1035</ele>
        <time>2023-07-24T07:42:48Z</time>
      </trkpt>
      <trkpt lat="44.42566" lon="5.41014">
        <ele>1035.2</ele>
        <time>2023-07-24T07:42:49Z</time>
      </trkpt>
      <trkpt lat="44.42565" lon="5.41013">
        <ele>1035.3</ele>
        <time>2023-07-24T07:42:50Z</time>
      </trkpt>
      <trkpt lat="44.42565" lon="5.41012">
        <ele>1035.5</ele>
        <time>2023-07-24T07:42:51Z</time>
      </trkpt>
      <trkpt lat="44.42563" lon="5.4101">
        <ele>1036</ele>
        <time>2023-07-24T07:42:52Z</time>
      </trkpt>
      <trkpt lat="44.42562" lon="5.4101">
        <ele>1036.1</ele>
        <time>2023-07-24T07:42:53Z</time>
      </trkpt>
      <trkpt lat="44.42562" lon="5.41009">
        <ele>1036.3</ele>
        <time>2023-07-24T07:42:54Z</time>
      </trkpt>
      <trkpt lat="44.4256" lon="5.41008">
        <ele>1036.7</ele>
        <time>2023-07-24T07:42:55Z</time>
      </trkpt>
      <trkpt lat="44.42559" lon="5.41007">
        <ele>1036.9</ele>
        <time>2023-07-24T07:42:56Z</time>
      </trkpt>
      <trkpt lat="44.42558" lon="5.41006">
        <ele>1037.1</ele>
        <time>2023-07-24T07:42:57Z</time>
      </trkpt>
      <trkpt lat="44.42557" lon="5.41006">
        <ele>1037.4</ele>
        <time>2023-07-24T07:42:58Z</time>
      </trkpt>
      <trkpt lat="44.42556" lon="5.41005">
        <ele>1037.7</ele>
        <time>2023-07-24T07:42:59Z</time>
      </trkpt>
      <trkpt lat="44.42555" lon="5.41005">
        <ele>1037.9</ele>
        <time>2023-07-24T07:43:00Z</time>
      </trkpt>
      <trkpt lat="44.42554" lon="5.41004">
        <ele>1038.2</ele>
        <time>2023-07-24T07:43:01Z</time>
      </trkpt>
      <trkpt lat="44.42553" lon="5.41003">
        <ele>1038.4</ele>
        <time>2023-07-24T07:43:02Z</time>
      </trkpt>
      <trkpt lat="44.42551" lon="5.41001">
        <ele>1038.8</ele>
        <time>2023-07-24T07:43:03Z</time>
      </trkpt>
      <trkpt lat="44.4255" lon="5.41">
        <ele>1039</ele>
        <time>2023-07-24T07:43:04Z</time>
      </trkpt>
      <trkpt lat="44.4255" lon="5.41">
        <ele>1039.2</ele>
        <time>2023-07-24T07:43:05Z</time>
      </trkpt>
      <trkpt lat="44.42548" lon="5.40999">
        <ele>1039.5</ele>
        <time>2023-07-24T07:43:06Z</time>
      </trkpt>
      <trkpt lat="44.42547" lon="5.40998">
        <ele>1039.8</ele>
        <time>2023-07-24T07:43:07Z</time>
      </trkpt>
      <trkpt lat="44.42545" lon="5.40997">
        <ele>1040.3</ele>
        <time>2023-07-24T07:43:08Z</time>
      </trkpt>
      <trkpt lat="44.42544" lon="5.40996">
        <ele>1040.4</ele>
        <time>2023-07-24T07:43:09Z</time>
      </trkpt>
      <trkpt lat="44.42543" lon="5.40996">
        <ele>1040.6</ele>
        <time>2023-07-24T07:43:10Z</time>
      </trkpt>
      <trkpt lat="44.42542" lon="5.40994">
        <ele>1041</ele>
        <time>2023-07-24T07:43:11Z</time>
      </trkpt>
      <trkpt lat="44.42541" lon="5.40993">
        <ele>1041.2</ele>
        <time>2023-07-24T07:43:12Z</time>
      </trkpt>
      <trkpt lat="44.42541" lon="5.40992">
        <ele>1041.3</ele>
        <time>2023-07-24T07:43:13Z</time>
      </trkpt>
      <trkpt lat="44.4254" lon="5.40991">
        <ele>1041.6</ele>
        <time>2023-07-24T07:43:14Z</time>
      </trkpt>
      <trkpt lat="44.42539" lon="5.40989">
        <ele>1041.9</ele>
        <time>2023-07-24T07:43:15Z</time>
      </trkpt>
      <trkpt lat="44.42537" lon="5.40987">
        <ele>1042.4</ele>
        <time>2023-07-24T07:43:16Z</time>
      </trkpt>
      <trkpt lat="44.42536" lon="5.40987">
        <ele>1042.5</ele>
        <time>2023-07-24T07:43:17Z</time>
      </trkpt>
      <trkpt lat="44.42536" lon="5.40986">
        <ele>1042.7</ele>
        <time>2023-07-24T07:43:18Z</time>
      </trkpt>
      <trkpt lat="44.42534" lon="5.40985">
        <ele>1043</ele>
        <time>2023-07-24T07:43:19Z</time>
      </trkpt>
      <trkpt lat="44.42533" lon="5.40984">
        <ele>1043.3</ele>
        <time>2023-07-24T07:43:20Z</time>
      </trkpt>
      <trkpt lat="44.42531" lon="5.40983">
        <ele>1043.7</ele>
        <time>2023-07-24T07:43:21Z</time>
      </trkpt>
      <trkpt lat="44.42531" lon="5.40982">
        <ele>1043.9</ele>
        <time>2023-07-24T07:43:22Z</time>
      </trkpt>
      <trkpt lat="44.4253" lon="5.40981">
        <ele>1044.1</ele>
        <time>2023-07-24T07:43:23Z</time>
      </trkpt>
      <trkpt lat="44.42528" lon="5.40979">
        <ele>1044.5</ele>
        <time>2023-07-24T07:43:24Z</time>
      </trkpt>
      <trkpt lat="44.42527" lon="5.40978">
        <ele>1044.8</ele>
        <time>2023-07-24T07:43:25Z</time>
      </trkpt>
      <trkpt lat="44.42526" lon="5.40978">
        <ele>1045</ele>
        <time>2023-07-24T07:43:26Z</time>
      </trkpt>
      <trkpt lat="44.42525" lon="5.40976">
        <ele>1045.3</ele>
        <time>2023-07-24T07:43:27Z</time>
      </trkpt>
      <trkpt lat="44.42524" lon="5.40974">
        <ele>1045.7</ele>
        <time>2023-07-24T07:43:28Z</time>
      </trkpt>
      <trkpt lat="44.42523" lon="5.40972">
        <ele>1046</ele>
        <time>2023-07-24T07:43:29Z</time>
      </trkpt>
      <trkpt lat="44.42522" lon="5.40972">
        <ele>1046.3</ele>
        <time>2023-07-24T07:43:30Z</time>
      </trkpt>
      <trkpt lat="44.42521" lon="5.40972">
        <ele>1046.5</ele>
        <time>2023-07-24T07:43:31Z</time>
      </trkpt>
      <trkpt lat="44.4252" lon="5.40973">
        <ele>1046.8</ele>
        <time>2023-07-24T07:43:32Z</time>
      </trkpt>
      <trkpt lat="44.42519" lon="5.40975">
        <ele>1047</ele>
        <time>2023-07-24T07:43:33Z</time>
      </trkpt>
      <trkpt lat="44.42519" lon="5.40976">
        <ele>1047.2</ele>
        <time>2023-07-24T07:43:34Z</time>
      </trkpt>
      <trkpt lat="44.42519" lon="5.40978">
        <ele>1047.5</ele>
        <time>2023-07-24T07:43:35Z</time>
      </trkpt>
      <trkpt lat="44.4252" lon="5.40979">
        <ele>1047.7</ele>
        <time>2023-07-24T07:43:36Z</time>
      </trkpt>
      <trkpt lat="44.42521" lon="5.4098">
        <ele>1048</ele>
        <time>2023-07-24T07:43:37Z</time>
      </trkpt>
      <trkpt lat="44.42521" lon="5.40981">
        <ele>1048.1</ele>
        <time>2023-07-24T07:43:38Z</time>
      </trkpt>
      <trkpt lat="44.42522" lon="5.40982">
        <ele>1048.3</ele>
        <time>2023-07-24T07:43:39Z</time>
      </trkpt>
      <trkpt lat="44.42522" lon="5.40985">
        <ele>1048.8</ele>
        <time>2023-07-24T07:43:40Z</time>
      </trkpt>
      <trkpt lat="44.42523" lon="5.40986">
        <ele>1048.9</ele>
        <time>2023-07-24T07:43:41Z</time>
      </trkpt>
      <trkpt lat="44.42523" lon="5.40988">
        <ele>1049.1</ele>
        <time>2023-07-24T07:43:42Z</time>
      </trkpt>
      <trkpt lat="44.42522" lon="5.40991">
        <ele>1049.6</ele>
        <time>2023-07-24T07:43:43Z</time>
      </trkpt>
      <trkpt lat="44.42522" lon="5.40992">
        <ele>1049.7</ele>
        <time>2023-07-24T07:43:44Z</time>
      </trkpt>
      <trkpt lat="44.42522" lon="5.40993">
        <ele>1049.9</ele>
        <time>2023-07-24T07:43:45Z</time>
      </trkpt>
      <trkpt lat="44.42522" lon="5.40994">
        <ele>1050.1</ele>
        <time>2023-07-24T07:43:46Z</time>
      </trkpt>
      <trkpt lat="44.42522" lon="5.40995">
        <ele>1050.2</ele>
        <time>2023-07-24T07:43:47Z</time>
      </trkpt>
      <trkpt lat="44.42522" lon="5.40996">
        <ele>1050.3</ele>
        <time>2023-07-24T07:43:48Z</time>
      </trkpt>
      <trkpt lat="44.42522" lon="5.40997">
        <ele>1050.5</ele>
        <time>2023-07-24T07:43:49Z</time>
      </trkpt>
      <trkpt lat="44.42522" lon="5.40998">
        <ele>1050.7</ele>
        <time>2023-07-24T07:43:50Z</time>
      </trkpt>
      <trkpt lat="44.42522" lon="5.41">
        <ele>1050.9</ele>
        <time>2023-07-24T07:43:51Z</time>
      </trkpt>
      <trkpt lat="44.42521" lon="5.41001">
        <ele>1051.1</ele>
        <time>2023-07-24T07:43:52Z</time>
      </trkpt>
      <trkpt lat="44.42521" lon="5.41003">
        <ele>1051.4</ele>
        <time>2023-07-24T07:43:53Z</time>
      </trkpt>
      <trkpt lat="44.42522" lon="5.41004">
        <ele>1051.6</ele>
        <time>2023-07-24T07:43:54Z</time>
      </trkpt>
      <trkpt lat="44.42522" lon="5.41006">
        <ele>1051.8</ele>
        <time>2023-07-24T07:43:55Z</time>
      </trkpt>
      <trkpt lat="44.42522" lon="5.41008">
        <ele>1052.1</ele>
        <time>2023-07-24T07:43:56Z</time>
      </trkpt>
      <trkpt lat="44.42522" lon="5.4101">
        <ele>1052.5</ele>
        <time>2023-07-24T07:43:57Z</time>
      </trkpt>
      <trkpt lat="44.42522" lon="5.41012">
        <ele>1052.8</ele>
        <time>2023-07-24T07:43:58Z</time>
      </trkpt>
      <trkpt lat="44.42522" lon="5.41015">
        <ele>1053.2</ele>
        <time>2023-07-24T07:43:59Z</time>
      </trkpt>
      <trkpt lat="44.42522" lon="5.41016">
        <ele>1053.4</ele>
        <time>2023-07-24T07:44:00Z</time>
      </trkpt>
      <trkpt lat="44.42522" lon="5.41018">
        <ele>1053.6</ele>
        <time>2023-07-24T07:44:01Z</time>
      </trkpt>
      <trkpt lat="44.42523" lon="5.41019">
        <ele>1053.8</ele>
        <time>2023-07-24T07:44:02Z</time>
      </trkpt>
      <trkpt lat="44.42523" lon="5.41022">
        <ele>1054.3</ele>
        <time>2023-07-24T07:44:03Z</time>
      </trkpt>
      <trkpt lat="44.42523" lon="5.41023">
        <ele>1054.4</ele>
        <time>2023-07-24T07:44:04Z</time>
      </trkpt>
      <trkpt lat="44.42523" lon="5.41025">
        <ele>1054.6</ele>
        <time>2023-07-24T07:44:05Z</time>
      </trkpt>
      <trkpt lat="44.42523" lon="5.41026">
        <ele>1054.9</ele>
        <time>2023-07-24T07:44:06Z</time>
      </trkpt>
      <trkpt lat="44.42522" lon="5.41028">
        <ele>1055.2</ele>
        <time>2023-07-24T07:44:07Z</time>
      </trkpt>
      <trkpt lat="44.42522" lon="5.41031">
        <ele>1055.5</ele>
        <time>2023-07-24T07:44:08Z</time>
      </trkpt>
      <trkpt lat="44.42522" lon="5.41033">
        <ele>1055.8</ele>
        <time>2023-07-24T07:44:09Z</time>
      </trkpt>
      <trkpt lat="44.42521" lon="5.41037">
        <ele>1056.4</ele>
        <time>2023-07-24T07:44:10Z</time>
      </trkpt>
      <trkpt lat="44.42521" lon="5.41038">
        <ele>1056.6</ele>
        <time>2023-07-24T07:44:11Z</time>
      </trkpt>
      <trkpt lat="44.4252" lon="5.4104">
        <ele>1057</ele>
        <time>2023-07-24T07:44:12Z</time>
      </trkpt>
      <trkpt lat="44.4252" lon="5.41042">
        <ele>1057.3</ele>
        <time>2023-07-24T07:44:13Z</time>
      </trkpt>
      <trkpt lat="44.42519" lon="5.41045">
        <ele>1057.7</ele>
        <time>2023-07-24T07:44:14Z</time>
      </trkpt>
      <trkpt lat="44.42519" lon="5.41046">
        <ele>1057.8</ele>
        <time>2023-07-24T07:44:15Z</time>
      </trkpt>
      <trkpt lat="44.42519" lon="5.41047">
        <ele>1058</ele>
        <time>2023-07-24T07:44:16Z</time>
      </trkpt>
      <trkpt lat="44.42519" lon="5.4105">
        <ele>1058.5</ele>
        <time>2023-07-24T07:44:17Z</time>
      </trkpt>
      <trkpt lat="44.42519" lon="5.41051">
        <ele>1058.6</ele>
        <time>2023-07-24T07:44:18Z</time>
      </trkpt>
      <trkpt lat="44.42519" lon="5.41053">
        <ele>1058.8</ele>
        <time>2023-07-24T07:44:19Z</time>
      </trkpt>
      <trkpt lat="44.42519" lon="5.41056">
        <ele>1059.3</ele>
        <time>2023-07-24T07:44:20Z</time>
      </trkpt>
      <trkpt lat="44.42519" lon="5.41057">
        <ele>1059.5</ele>
        <time>2023-07-24T07:44:21Z</time>
      </trkpt>
      <trkpt lat="44.42518" lon="5.41058">
        <ele>1059.6</ele>
        <time>2023-07-24T07:44:22Z</time>
      </trkpt>
      <trkpt lat="44.42518" lon="5.4106">
        <ele>1060</ele>
        <time>2023-07-24T07:44:23Z</time>
      </trkpt>
      <trkpt lat="44.42517" lon="5.41063">
        <ele>1060.4</ele>
        <time>2023-07-24T07:44:24Z</time>
      </trkpt>
      <trkpt lat="44.42517" lon="5.41065">
        <ele>1060.7</ele>
        <time>2023-07-24T07:44:25Z</time>
      </trkpt>
      <trkpt lat="44.42517" lon="5.41067">
        <ele>1060.9</ele>
        <time>2023-07-24T07:44:26Z</time>
      </trkpt>
      <trkpt lat="44.42517" lon="5.41069">
        <ele>1061.2</ele>
        <time>2023-07-24T07:44:27Z</time>
      </trkpt>
      <trkpt lat="44.42518" lon="5.41071">
        <ele>1061.5</ele>
        <time>2023-07-24T07:44:28Z</time>
      </trkpt>
      <trkpt lat="44.42518" lon="5.41073">
        <ele>1061.8</ele>
        <time>2023-07-24T07:44:29Z</time>
      </trkpt>
      <trkpt lat="44.42518" lon="5.41074">
        <ele>1062.1</ele>
        <time>2023-07-24T07:44:30Z</time>
      </trkpt>
      <trkpt lat="44.42518" lon="5.41076">
        <ele>1062.3</ele>
        <time>2023-07-24T07:44:31Z</time>
      </trkpt>
      <trkpt lat="44.42518" lon="5.41078">
        <ele>1062.6</ele>
        <time>2023-07-24T07:44:32Z</time>
      </trkpt>
      <trkpt lat="44.42519" lon="5.41079">
        <ele>1062.8</ele>
        <time>2023-07-24T07:44:33Z</time>
      </trkpt>
      <trkpt lat="44.42519" lon="5.4108">
        <ele>1063</ele>
        <time>2023-07-24T07:44:34Z</time>
      </trkpt>
      <trkpt lat="44.4252" lon="5.41081">
        <ele>1063.2</ele>
        <time>2023-07-24T07:44:35Z</time>
      </trkpt>
      <trkpt lat="44.4252" lon="5.41084">
        <ele>1063.5</ele>
        <time>2023-07-24T07:44:36Z</time>
      </trkpt>
      <trkpt lat="44.42521" lon="5.41086">
        <ele>1063.9</ele>
        <time>2023-07-24T07:44:37Z</time>
      </trkpt>
      <trkpt lat="44.42522" lon="5.41088">
        <ele>1064.2</ele>
        <time>2023-07-24T07:44:38Z</time>
      </trkpt>
      <trkpt lat="44.42523" lon="5.4109">
        <ele>1064.6</ele>
        <time>2023-07-24T07:44:39Z</time>
      </trkpt>
      <trkpt lat="44.42526" lon="5.41092">
        <ele>1065.2</ele>
        <time>2023-07-24T07:44:40Z</time>
      </trkpt>
      <trkpt lat="44.42526" lon="5.41093">
        <ele>1065.4</ele>
        <time>2023-07-24T07:44:41Z</time>
      </trkpt>
      <trkpt lat="44.42529" lon="5.41096">
        <ele>1066</ele>
        <time>2023-07-24T07:44:42Z</time>
      </trkpt>
      <trkpt lat="44.42529" lon="5.41096">
        <ele>1066.2</ele>
        <time>2023-07-24T07:44:43Z</time>
      </trkpt>
      <trkpt lat="44.42531" lon="5.41098">
        <ele>1066.5</ele>
        <time>2023-07-24T07:44:44Z</time>
      </trkpt>
      <trkpt lat="44.42532" lon="5.41099">
        <ele>1066.8</ele>
        <time>2023-07-24T07:44:45Z</time>
      </trkpt>
      <trkpt lat="44.42533" lon="5.41101">
        <ele>1067.1</ele>
        <time>2023-07-24T07:44:46Z</time>
      </trkpt>
      <trkpt lat="44.42533" lon="5.41102">
        <ele>1067.4</ele>
        <time>2023-07-24T07:44:47Z</time>
      </trkpt>
      <trkpt lat="44.42534" lon="5.41105">
        <ele>1067.8</ele>
        <time>2023-07-24T07:44:48Z</time>
      </trkpt>
      <trkpt lat="44.42534" lon="5.41107">
        <ele>1068.1</ele>
        <time>2023-07-24T07:44:49Z</time>
      </trkpt>
      <trkpt lat="44.42534" lon="5.41109">
        <ele>1068.3</ele>
        <time>2023-07-24T07:44:50Z</time>
      </trkpt>
      <trkpt lat="44.42535" lon="5.4111">
        <ele>1068.6</ele>
        <time>2023-07-24T07:44:51Z</time>
      </trkpt>
      <trkpt lat="44.42535" lon="5.41112">
        <ele>1068.9</ele>
        <time>2023-07-24T07:44:52Z</time>
      </trkpt>
      <trkpt lat="44.42536" lon="5.41114">
        <ele>1069.3</ele>
        <time>2023-07-24T07:44:53Z</time>
      </trkpt>
      <trkpt lat="44.42537" lon="5.41116">
        <ele>1069.5</ele>
        <time>2023-07-24T07:44:54Z</time>
      </trkpt>
      <trkpt lat="44.42538" lon="5.41118">
        <ele>1069.9</ele>
        <time>2023-07-24T07:44:55Z</time>
      </trkpt>
      <trkpt lat="44.42539" lon="5.4112">
        <ele>1070.2</ele>
        <time>2023-07-24T07:44:56Z</time>
      </trkpt>
      <trkpt lat="44.42539" lon="5.41121">
        <ele>1070.5</ele>
        <time>2023-07-24T07:44:57Z</time>
      </trkpt>
      <trkpt lat="44.4254" lon="5.41123">
        <ele>1070.7</ele>
        <time>2023-07-24T07:44:58Z</time>
      </trkpt>
      <trkpt lat="44.42541" lon="5.41125">
        <ele>1071</ele>
        <time>2023-07-24T07:44:59Z</time>
      </trkpt>
      <trkpt lat="44.42542" lon="5.41127">
        <ele>1071.4</ele>
        <time>2023-07-24T07:45:00Z</time>
      </trkpt>
      <trkpt lat="44.42543" lon="5.41129">
        <ele>1071.8</ele>
        <time>2023-07-24T07:45:01Z</time>
      </trkpt>
      <trkpt lat="44.42544" lon="5.41132">
        <ele>1072.3</ele>
        <time>2023-07-24T07:45:02Z</time>
      </trkpt>
      <trkpt lat="44.42544" lon="5.41133">
        <ele>1072.5</ele>
        <time>2023-07-24T07:45:03Z</time>
      </trkpt>
      <trkpt lat="44.42545" lon="5.41136">
        <ele>1072.9</ele>
        <time>2023-07-24T07:45:04Z</time>
      </trkpt>
      <trkpt lat="44.42546" lon="5.41138">
        <ele>1073.2</ele>
        <time>2023-07-24T07:45:05Z</time>
      </trkpt>
      <trkpt lat="44.42547" lon="5.4114">
        <ele>1073.6</ele>
        <time>2023-07-24T07:45:06Z</time>
      </trkpt>
      <trkpt lat="44.42547" lon="5.41141">
        <ele>1073.8</ele>
        <time>2023-07-24T07:45:07Z</time>
      </trkpt>
      <trkpt lat="44.42547" lon="5.41142">
        <ele>1073.9</ele>
        <time>2023-07-24T07:45:08Z</time>
      </trkpt>
      <trkpt lat="44.42548" lon="5.41144">
        <ele>1074.2</ele>
        <time>2023-07-24T07:45:09Z</time>
      </trkpt>
      <trkpt lat="44.42549" lon="5.41146">
        <ele>1074.5</ele>
        <time>2023-07-24T07:45:10Z</time>
      </trkpt>
      <trkpt lat="44.42549" lon="5.41148">
        <ele>1075</ele>
        <time>2023-07-24T07:45:11Z</time>
      </trkpt>
      <trkpt lat="44.4255" lon="5.41149">
        <ele>1075.1</ele>
        <time>2023-07-24T07:45:12Z</time>
      </trkpt>
      <trkpt lat="44.4255" lon="5.4115">
        <ele>1075.3</ele>
        <time>2023-07-24T07:45:13Z</time>
      </trkpt>
      <trkpt lat="44.42551" lon="5.41152">
        <ele>1075.6</ele>
        <time>2023-07-24T07:45:14Z</time>
      </trkpt>
      <trkpt lat="44.42551" lon="5.41155">
        <ele>1076</ele>
        <time>2023-07-24T07:45:15Z</time>
      </trkpt>
      <trkpt lat="44.42552" lon="5.41157">
        <ele>1076.3</ele>
        <time>2023-07-24T07:45:16Z</time>
      </trkpt>
      <trkpt lat="44.42552" lon="5.41159">
        <ele>1076.7</ele>
        <time>2023-07-24T07:45:17Z</time>
      </trkpt>
      <trkpt lat="44.42553" lon="5.41162">
        <ele>1077</ele>
        <time>2023-07-24T07:45:18Z</time>
      </trkpt>
      <trkpt lat="44.42554" lon="5.41164">
        <ele>1077.4</ele>
        <time>2023-07-24T07:45:19Z</time>
      </trkpt>
      <trkpt lat="44.42554" lon="5.41166">
        <ele>1077.7</ele>
        <time>2023-07-24T07:45:20Z</time>
      </trkpt>
      <trkpt lat="44.42555" lon="5.41168">
        <ele>1078</ele>
        <time>2023-07-24T07:45:21Z</time>
      </trkpt>
      <trkpt lat="44.42555" lon="5.41171">
        <ele>1078.5</ele>
        <time>2023-07-24T07:45:22Z</time>
      </trkpt>
      <trkpt lat="44.42555" lon="5.41172">
        <ele>1078.7</ele>
        <time>2023-07-24T07:45:23Z</time>
      </trkpt>
      <trkpt lat="44.42556" lon="5.41173">
        <ele>1078.8</ele>
        <time>2023-07-24T07:45:24Z</time>
      </trkpt>
      <trkpt lat="44.42556" lon="5.41177">
        <ele>1079.4</ele>
        <time>2023-07-24T07:45:25Z</time>
      </trkpt>
      <trkpt lat="44.42556" lon="5.41178">
        <ele>1079.6</ele>
        <time>2023-07-24T07:45:26Z</time>
      </trkpt>
      <trkpt lat="44.42558" lon="5.41183">
        <ele>1080.3</ele>
        <time>2023-07-24T07:45:27Z</time>
      </trkpt>
      <trkpt lat="44.42559" lon="5.41184">
        <ele>1080.6</ele>
        <time>2023-07-24T07:45:28Z</time>
      </trkpt>
      <trkpt lat="44.4256" lon="5.41189">
        <ele>1081.3</ele>
        <time>2023-07-24T07:45:29Z</time>
      </trkpt>
      <trkpt lat="44.42561" lon="5.4119">
        <ele>1081.6</ele>
        <time>2023-07-24T07:45:30Z</time>
      </trkpt>
      <trkpt lat="44.42563" lon="5.41193">
        <ele>1082.2</ele>
        <time>2023-07-24T07:45:31Z</time>
      </trkpt>
      <trkpt lat="44.42564" lon="5.41194">
        <ele>1082.4</ele>
        <time>2023-07-24T07:45:32Z</time>
      </trkpt>
      <trkpt lat="44.42566" lon="5.41197">
        <ele>1083</ele>
        <time>2023-07-24T07:45:33Z</time>
      </trkpt>
      <trkpt lat="44.42566" lon="5.41198">
        <ele>1083.2</ele>
        <time>2023-07-24T07:45:34Z</time>
      </trkpt>
      <trkpt lat="44.42567" lon="5.41202">
        <ele>1083.8</ele>
        <time>2023-07-24T07:45:35Z</time>
      </trkpt>
      <trkpt lat="44.42568" lon="5.41204">
        <ele>1084</ele>
        <time>2023-07-24T07:45:36Z</time>
      </trkpt>
      <trkpt lat="44.42569" lon="5.41208">
        <ele>1084.7</ele>
        <time>2023-07-24T07:45:37Z</time>
      </trkpt>
      <trkpt lat="44.4257" lon="5.41209">
        <ele>1084.9</ele>
        <time>2023-07-24T07:45:38Z</time>
      </trkpt>
      <trkpt lat="44.4257" lon="5.41214">
        <ele>1085.6</ele>
        <time>2023-07-24T07:45:39Z</time>
      </trkpt>
      <trkpt lat="44.4257" lon="5.41215">
        <ele>1085.8</ele>
        <time>2023-07-24T07:45:40Z</time>
      </trkpt>
      <trkpt lat="44.4257" lon="5.41219">
        <ele>1086.4</ele>
        <time>2023-07-24T07:45:41Z</time>
      </trkpt>
      <trkpt lat="44.4257" lon="5.41221">
        <ele>1086.7</ele>
        <time>2023-07-24T07:45:42Z</time>
      </trkpt>
      <trkpt lat="44.42568" lon="5.41225">
        <ele>1087.4</ele>
        <time>2023-07-24T07:45:43Z</time>
      </trkpt>
      <trkpt lat="44.42568" lon="5.41227">
        <ele>1087.5</ele>
        <time>2023-07-24T07:45:44Z</time>
      </trkpt>
      <trkpt lat="44.42567" lon="5.41227">
        <ele>1087.7</ele>
        <time>2023-07-24T07:45:45Z</time>
      </trkpt>
      <trkpt lat="44.42566" lon="5.41227">
        <ele>1087.9</ele>
        <time>2023-07-24T07:45:46Z</time>
      </trkpt>
      <trkpt lat="44.42566" lon="5.41226">
        <ele>1088.1</ele>
        <time>2023-07-24T07:45:47Z</time>
      </trkpt>
      <trkpt lat="44.42565" lon="5.41225">
        <ele>1088.4</ele>
        <time>2023-07-24T07:45:48Z</time>
      </trkpt>
      <trkpt lat="44.42564" lon="5.41221">
        <ele>1089</ele>
        <time>2023-07-24T07:45:50Z</time>
      </trkpt>
      <trkpt lat="44.42563" lon="5.4122">
        <ele>1089.1</ele>
        <time>2023-07-24T07:45:51Z</time>
      </trkpt>
      <trkpt lat="44.42563" lon="5.41218">
        <ele>1089.5</ele>
        <time>2023-07-24T07:45:52Z</time>
      </trkpt>
      <trkpt lat="44.42562" lon="5.41216">
        <ele>1089.8</ele>
        <time>2023-07-24T07:45:53Z</time>
      </trkpt>
      <trkpt lat="44.42561" lon="5.41215">
        <ele>1090.1</ele>
        <time>2023-07-24T07:45:54Z</time>
      </trkpt>
      <trkpt lat="44.4256" lon="5.41213">
        <ele>1090.3</ele>
        <time>2023-07-24T07:45:55Z</time>
      </trkpt>
      <trkpt lat="44.42559" lon="5.41212">
        <ele>1090.6</ele>
        <time>2023-07-24T07:45:56Z</time>
      </trkpt>
      <trkpt lat="44.42559" lon="5.41211">
        <ele>1090.8</ele>
        <time>2023-07-24T07:45:57Z</time>
      </trkpt>
      <trkpt lat="44.42558" lon="5.4121">
        <ele>1091.1</ele>
        <time>2023-07-24T07:45:58Z</time>
      </trkpt>
      <trkpt lat="44.42556" lon="5.41208">
        <ele>1091.5</ele>
        <time>2023-07-24T07:45:59Z</time>
      </trkpt>
      <trkpt lat="44.42556" lon="5.41207">
        <ele>1091.7</ele>
        <time>2023-07-24T07:46:00Z</time>
      </trkpt>
      <trkpt lat="44.42555" lon="5.41206">
        <ele>1091.9</ele>
        <time>2023-07-24T07:46:01Z</time>
      </trkpt>
      <trkpt lat="44.42554" lon="5.41204">
        <ele>1092.2</ele>
        <time>2023-07-24T07:46:02Z</time>
      </trkpt>
      <trkpt lat="44.42553" lon="5.41203">
        <ele>1092.4</ele>
        <time>2023-07-24T07:46:03Z</time>
      </trkpt>
      <trkpt lat="44.42552" lon="5.41202">
        <ele>1092.7</ele>
        <time>2023-07-24T07:46:04Z</time>
      </trkpt>
      <trkpt lat="44.42551" lon="5.412">
        <ele>1093</ele>
        <time>2023-07-24T07:46:05Z</time>
      </trkpt>
      <trkpt lat="44.42549" lon="5.41197">
        <ele>1093.6</ele>
        <time>2023-07-24T07:46:06Z</time>
      </trkpt>
      <trkpt lat="44.42549" lon="5.41196">
        <ele>1093.8</ele>
        <time>2023-07-24T07:46:07Z</time>
      </trkpt>
      <trkpt lat="44.42548" lon="5.41195">
        <ele>1094.1</ele>
        <time>2023-07-24T07:46:08Z</time>
      </trkpt>
      <trkpt lat="44.42547" lon="5.41194">
        <ele>1094.4</ele>
        <time>2023-07-24T07:46:09Z</time>
      </trkpt>
      <trkpt lat="44.42545" lon="5.41193">
        <ele>1094.6</ele>
        <time>2023-07-24T07:46:10Z</time>
      </trkpt>
      <trkpt lat="44.42544" lon="5.41192">
        <ele>1095</ele>
        <time>2023-07-24T07:46:11Z</time>
      </trkpt>
      <trkpt lat="44.42541" lon="5.4119">
        <ele>1095.6</ele>
        <time>2023-07-24T07:46:12Z</time>
      </trkpt>
      <trkpt lat="44.4254" lon="5.4119">
        <ele>1095.7</ele>
        <time>2023-07-24T07:46:13Z</time>
      </trkpt>
      <trkpt lat="44.42538" lon="5.41188">
        <ele>1096.3</ele>
        <time>2023-07-24T07:46:14Z</time>
      </trkpt>
      <trkpt lat="44.42537" lon="5.41188">
        <ele>1096.5</ele>
        <time>2023-07-24T07:46:15Z</time>
      </trkpt>
      <trkpt lat="44.42535" lon="5.41186">
        <ele>1097.1</ele>
        <time>2023-07-24T07:46:16Z</time>
      </trkpt>
      <trkpt lat="44.42534" lon="5.41185">
        <ele>1097.3</ele>
        <time>2023-07-24T07:46:17Z</time>
      </trkpt>
      <trkpt lat="44.42532" lon="5.41185">
        <ele>1097.6</ele>
        <time>2023-07-24T07:46:18Z</time>
      </trkpt>
      <trkpt lat="44.42531" lon="5.41184">
        <ele>1097.9</ele>
        <time>2023-07-24T07:46:19Z</time>
      </trkpt>
      <trkpt lat="44.42529" lon="5.41184">
        <ele>1098.2</ele>
        <time>2023-07-24T07:46:20Z</time>
      </trkpt>
      <trkpt lat="44.42528" lon="5.41183">
        <ele>1098.4</ele>
        <time>2023-07-24T07:46:21Z</time>
      </trkpt>
      <trkpt lat="44.42528" lon="5.41183">
        <ele>1098.6</ele>
        <time>2023-07-24T07:46:22Z</time>
      </trkpt>
      <trkpt lat="44.42526" lon="5.41182">
        <ele>1098.9</ele>
        <time>2023-07-24T07:46:23Z</time>
      </trkpt>
      <trkpt lat="44.42524" lon="5.41181">
        <ele>1099.3</ele>
        <time>2023-07-24T07:46:24Z</time>
      </trkpt>
      <trkpt lat="44.42521" lon="5.4118">
        <ele>1099.9</ele>
        <time>2023-07-24T07:46:25Z</time>
      </trkpt>
      <trkpt lat="44.4252" lon="5.4118">
        <ele>1100.1</ele>
        <time>2023-07-24T07:46:26Z</time>
      </trkpt>
      <trkpt lat="44.42518" lon="5.41179">
        <ele>1100.5</ele>
        <time>2023-07-24T07:46:27Z</time>
      </trkpt>
      <trkpt lat="44.42517" lon="5.41178">
        <ele>1100.9</ele>
        <time>2023-07-24T07:46:28Z</time>
      </trkpt>
      <trkpt lat="44.42516" lon="5.41177">
        <ele>1101.2</ele>
        <time>2023-07-24T07:46:29Z</time>
      </trkpt>
      <trkpt lat="44.42514" lon="5.41177">
        <ele>1101.4</ele>
        <time>2023-07-24T07:46:30Z</time>
      </trkpt>
      <trkpt lat="44.42513" lon="5.41176">
        <ele>1101.7</ele>
        <time>2023-07-24T07:46:31Z</time>
      </trkpt>
      <trkpt lat="44.42512" lon="5.41175">
        <ele>1102.1</ele>
        <time>2023-07-24T07:46:32Z</time>
      </trkpt>
      <trkpt lat="44.42509" lon="5.41173">
        <ele>1102.7</ele>
        <time>2023-07-24T07:46:33Z</time>
      </trkpt>
      <trkpt lat="44.42507" lon="5.41173">
        <ele>1103</ele>
        <time>2023-07-24T07:46:34Z</time>
      </trkpt>
      <trkpt lat="44.42504" lon="5.41172">
        <ele>1103.7</ele>
        <time>2023-07-24T07:46:35Z</time>
      </trkpt>
      <trkpt lat="44.42503" lon="5.41171">
        <ele>1104</ele>
        <time>2023-07-24T07:46:36Z</time>
      </trkpt>
      <trkpt lat="44.425" lon="5.41169">
        <ele>1104.6</ele>
        <time>2023-07-24T07:46:37Z</time>
      </trkpt>
      <trkpt lat="44.425" lon="5.41168">
        <ele>1104.8</ele>
        <time>2023-07-24T07:46:38Z</time>
      </trkpt>
      <trkpt lat="44.42497" lon="5.41166">
        <ele>1105.3</ele>
        <time>2023-07-24T07:46:39Z</time>
      </trkpt>
      <trkpt lat="44.42496" lon="5.41165">
        <ele>1105.5</ele>
        <time>2023-07-24T07:46:40Z</time>
      </trkpt>
      <trkpt lat="44.42495" lon="5.41164">
        <ele>1105.9</ele>
        <time>2023-07-24T07:46:41Z</time>
      </trkpt>
      <trkpt lat="44.42494" lon="5.41164">
        <ele>1106.2</ele>
        <time>2023-07-24T07:46:42Z</time>
      </trkpt>
      <trkpt lat="44.42493" lon="5.41162">
        <ele>1106.4</ele>
        <time>2023-07-24T07:46:43Z</time>
      </trkpt>
      <trkpt lat="44.42491" lon="5.41161">
        <ele>1106.8</ele>
        <time>2023-07-24T07:46:44Z</time>
      </trkpt>
      <trkpt lat="44.42488" lon="5.41159">
        <ele>1107.4</ele>
        <time>2023-07-24T07:46:45Z</time>
      </trkpt>
      <trkpt lat="44.42487" lon="5.41158">
        <ele>1107.7</ele>
        <time>2023-07-24T07:46:46Z</time>
      </trkpt>
      <trkpt lat="44.42486" lon="5.41157">
        <ele>1108</ele>
        <time>2023-07-24T07:46:47Z</time>
      </trkpt>
      <trkpt lat="44.42484" lon="5.41156">
        <ele>1108.4</ele>
        <time>2023-07-24T07:46:48Z</time>
      </trkpt>
      <trkpt lat="44.42483" lon="5.41155">
        <ele>1108.7</ele>
        <time>2023-07-24T07:46:49Z</time>
      </trkpt>
      <trkpt lat="44.42482" lon="5.41153">
        <ele>1109</ele>
        <time>2023-07-24T07:46:50Z</time>
      </trkpt>
      <trkpt lat="44.4248" lon="5.41152">
        <ele>1109.4</ele>
        <time>2023-07-24T07:46:51Z</time>
      </trkpt>
      <trkpt lat="44.42479" lon="5.41151">
        <ele>1109.6</ele>
        <time>2023-07-24T07:46:52Z</time>
      </trkpt>
      <trkpt lat="44.42478" lon="5.4115">
        <ele>1109.9</ele>
        <time>2023-07-24T07:46:53Z</time>
      </trkpt>
      <trkpt lat="44.42477" lon="5.41149">
        <ele>1110.3</ele>
        <time>2023-07-24T07:46:54Z</time>
      </trkpt>
      <trkpt lat="44.42476" lon="5.41147">
        <ele>1110.6</ele>
        <time>2023-07-24T07:46:55Z</time>
      </trkpt>
      <trkpt lat="44.42474" lon="5.41146">
        <ele>1111</ele>
        <time>2023-07-24T07:46:56Z</time>
      </trkpt>
      <trkpt lat="44.42473" lon="5.41145">
        <ele>1111.3</ele>
        <time>2023-07-24T07:46:57Z</time>
      </trkpt>
      <trkpt lat="44.42471" lon="5.41144">
        <ele>1111.6</ele>
        <time>2023-07-24T07:46:58Z</time>
      </trkpt>
      <trkpt lat="44.42468" lon="5.41143">
        <ele>1112.3</ele>
        <time>2023-07-24T07:46:59Z</time>
      </trkpt>
      <trkpt lat="44.42467" lon="5.41142">
        <ele>1112.5</ele>
        <time>2023-07-24T07:47:00Z</time>
      </trkpt>
      <trkpt lat="44.42464" lon="5.41141">
        <ele>1113.1</ele>
        <time>2023-07-24T07:47:01Z</time>
      </trkpt>
      <trkpt lat="44.42462" lon="5.41138">
        <ele>1113.8</ele>
        <time>2023-07-24T07:47:02Z</time>
      </trkpt>
      <trkpt lat="44.42461" lon="5.41137">
        <ele>1114</ele>
        <time>2023-07-24T07:47:03Z</time>
      </trkpt>
      <trkpt lat="44.42458" lon="5.41134">
        <ele>1114.7</ele>
        <time>2023-07-24T07:47:04Z</time>
      </trkpt>
      <trkpt lat="44.42457" lon="5.41133">
        <ele>1114.9</ele>
        <time>2023-07-24T07:47:05Z</time>
      </trkpt>
      <trkpt lat="44.42455" lon="5.4113">
        <ele>1115.5</ele>
        <time>2023-07-24T07:47:06Z</time>
      </trkpt>
      <trkpt lat="44.42454" lon="5.4113">
        <ele>1115.7</ele>
        <time>2023-07-24T07:47:07Z</time>
      </trkpt>
      <trkpt lat="44.42453" lon="5.41129">
        <ele>1116.1</ele>
        <time>2023-07-24T07:47:08Z</time>
      </trkpt>
      <trkpt lat="44.42451" lon="5.41127">
        <ele>1116.4</ele>
        <time>2023-07-24T07:47:09Z</time>
      </trkpt>
      <trkpt lat="44.4245" lon="5.41126">
        <ele>1116.7</ele>
        <time>2023-07-24T07:47:10Z</time>
      </trkpt>
      <trkpt lat="44.42448" lon="5.41125">
        <ele>1117.1</ele>
        <time>2023-07-24T07:47:11Z</time>
      </trkpt>
      <trkpt lat="44.42447" lon="5.41124">
        <ele>1117.4</ele>
        <time>2023-07-24T07:47:12Z</time>
      </trkpt>
      <trkpt lat="44.42446" lon="5.41122">
        <ele>1117.7</ele>
        <time>2023-07-24T07:47:13Z</time>
      </trkpt>
      <trkpt lat="44.42445" lon="5.41119">
        <ele>1118.3</ele>
        <time>2023-07-24T07:47:14Z</time>
      </trkpt>
      <trkpt lat="44.42444" lon="5.41118">
        <ele>1118.5</ele>
        <time>2023-07-24T07:47:15Z</time>
      </trkpt>
      <trkpt lat="44.42443" lon="5.41116">
        <ele>1118.9</ele>
        <time>2023-07-24T07:47:16Z</time>
      </trkpt>
      <trkpt lat="44.42442" lon="5.41114">
        <ele>1119.2</ele>
        <time>2023-07-24T07:47:17Z</time>
      </trkpt>
      <trkpt lat="44.42441" lon="5.41113">
        <ele>1119.4</ele>
        <time>2023-07-24T07:47:18Z</time>
      </trkpt>
      <trkpt lat="44.42441" lon="5.41113">
        <ele>1119.4</ele>
        <time>2023-07-24T07:47:19Z</time>
      </trkpt>
      <trkpt lat="44.42441" lon="5.41113">
        <ele>1119.5</ele>
        <time>2023-07-24T07:47:20Z</time>
      </trkpt>
      <trkpt lat="44.42441" lon="5.41113">
        <ele>1119.5</ele>
        <time>2023-07-24T07:47:21Z</time>
      </trkpt>
      <trkpt lat="44.4244" lon="5.41113">
        <ele>1119.6</ele>
        <time>2023-07-24T07:47:22Z</time>
      </trkpt>
      <trkpt lat="44.4244" lon="5.41113">
        <ele>1119.6</ele>
        <time>2023-07-24T07:47:23Z</time>
      </trkpt>
      <trkpt lat="44.4244" lon="5.41113">
        <ele>1119.6</ele>
        <time>2023-07-24T07:47:24Z</time>
      </trkpt>
      <trkpt lat="44.4244" lon="5.41113">
        <ele>1119.7</ele>
        <time>2023-07-24T07:47:25Z</time>
      </trkpt>
      <trkpt lat="44.42439" lon="5.41113">
        <ele>1119.7</ele>
        <time>2023-07-24T07:47:26Z</time>
      </trkpt>
      <trkpt lat="44.42439" lon="5.41113">
        <ele>1119.8</ele>
        <time>2023-07-24T07:47:27Z</time>
      </trkpt>
      <trkpt lat="44.42439" lon="5.41112">
        <ele>1119.8</ele>
        <time>2023-07-24T07:47:28Z</time>
      </trkpt>
      <trkpt lat="44.42439" lon="5.41112">
        <ele>1119.9</ele>
        <time>2023-07-24T07:47:29Z</time>
      </trkpt>
      <trkpt lat="44.42439" lon="5.41112">
        <ele>1119.9</ele>
        <time>2023-07-24T07:47:32Z</time>
      </trkpt>
      <trkpt lat="44.42438" lon="5.41112">
        <ele>1120</ele>
        <time>2023-07-24T07:47:33Z</time>
      </trkpt>
      <trkpt lat="44.42438" lon="5.41112">
        <ele>1120</ele>
        <time>2023-07-24T07:47:34Z</time>
      </trkpt>
      <trkpt lat="44.42438" lon="5.41112">
        <ele>1120.1</ele>
        <time>2023-07-24T07:47:35Z</time>
      </trkpt>
      <trkpt lat="44.42438" lon="5.41112">
        <ele>1120.1</ele>
        <time>2023-07-24T07:47:36Z</time>
      </trkpt>
      <trkpt lat="44.42438" lon="5.41112">
        <ele>1120.2</ele>
        <time>2023-07-24T07:47:37Z</time>
      </trkpt>
      <trkpt lat="44.42437" lon="5.41112">
        <ele>1120.2</ele>
        <time>2023-07-24T07:47:38Z</time>
      </trkpt>
      <trkpt lat="44.42437" lon="5.41112">
        <ele>1120.2</ele>
        <time>2023-07-24T07:47:39Z</time>
      </trkpt>
      <trkpt lat="44.42437" lon="5.41112">
        <ele>1120.3</ele>
        <time>2023-07-24T07:47:40Z</time>
      </trkpt>
      <trkpt lat="44.42437" lon="5.41111">
        <ele>1120.3</ele>
        <time>2023-07-24T07:47:41Z</time>
      </trkpt>
      <trkpt lat="44.42436" lon="5.41111">
        <ele>1120.4</ele>
        <time>2023-07-24T07:47:42Z</time>
      </trkpt>
      <trkpt lat="44.42436" lon="5.41111">
        <ele>1120.4</ele>
        <time>2023-07-24T07:47:43Z</time>
      </trkpt>
      <trkpt lat="44.42436" lon="5.41111">
        <ele>1120.5</ele>
        <time>2023-07-24T07:47:44Z</time>
      </trkpt>
      <trkpt lat="44.42436" lon="5.41111">
        <ele>1120.5</ele>
        <time>2023-07-24T07:47:48Z</time>
      </trkpt>
      <trkpt lat="44.42436" lon="5.41111">
        <ele>1120.6</ele>
        <time>2023-07-24T07:47:49Z</time>
      </trkpt>
      <trkpt lat="44.42435" lon="5.41111">
        <ele>1120.6</ele>
        <time>2023-07-24T07:47:50Z</time>
      </trkpt>
      <trkpt lat="44.42435" lon="5.41111">
        <ele>1120.6</ele>
        <time>2023-07-24T07:47:51Z</time>
      </trkpt>
      <trkpt lat="44.42435" lon="5.41111">
        <ele>1120.7</ele>
        <time>2023-07-24T07:47:52Z</time>
      </trkpt>
      <trkpt lat="44.42435" lon="5.41111">
        <ele>1120.8</ele>
        <time>2023-07-24T07:47:53Z</time>
      </trkpt>
      <trkpt lat="44.42435" lon="5.41111">
        <ele>1120.8</ele>
        <time>2023-07-24T07:47:54Z</time>
      </trkpt>
      <trkpt lat="44.42434" lon="5.4111">
        <ele>1120.8</ele>
        <time>2023-07-24T07:47:55Z</time>
      </trkpt>
      <trkpt lat="44.42434" lon="5.4111">
        <ele>1120.9</ele>
        <time>2023-07-24T07:47:56Z</time>
      </trkpt>
      <trkpt lat="44.42434" lon="5.4111">
        <ele>1120.9</ele>
        <time>2023-07-24T07:47:57Z</time>
      </trkpt>
      <trkpt lat="44.42434" lon="5.4111">
        <ele>1121</ele>
        <time>2023-07-24T07:47:58Z</time>
      </trkpt>
      <trkpt lat="44.42433" lon="5.4111">
        <ele>1121</ele>
        <time>2023-07-24T07:47:59Z</time>
      </trkpt>
      <trkpt lat="44.42433" lon="5.4111">
        <ele>1121.2</ele>
        <time>2023-07-24T07:48:00Z</time>
      </trkpt>
      <trkpt lat="44.42432" lon="5.4111">
        <ele>1121.3</ele>
        <time>2023-07-24T07:48:01Z</time>
      </trkpt>
      <trkpt lat="44.42432" lon="5.4111">
        <ele>1121.3</ele>
        <time>2023-07-24T07:48:02Z</time>
      </trkpt>
      <trkpt lat="44.42432" lon="5.41109">
        <ele>1121.4</ele>
        <time>2023-07-24T07:48:03Z</time>
      </trkpt>
      <trkpt lat="44.42431" lon="5.41109">
        <ele>1121.5</ele>
        <time>2023-07-24T07:48:04Z</time>
      </trkpt>
      <trkpt lat="44.42431" lon="5.41109">
        <ele>1121.5</ele>
        <time>2023-07-24T07:48:05Z</time>
      </trkpt>
      <trkpt lat="44.42431" lon="5.41109">
        <ele>1121.6</ele>
        <time>2023-07-24T07:48:06Z</time>
      </trkpt>
      <trkpt lat="44.42431" lon="5.41109">
        <ele>1121.6</ele>
        <time>2023-07-24T07:48:07Z</time>
      </trkpt>
      <trkpt lat="44.4243" lon="5.41109">
        <ele>1121.7</ele>
        <time>2023-07-24T07:48:08Z</time>
      </trkpt>
      <trkpt lat="44.4243" lon="5.41109">
        <ele>1121.8</ele>
        <time>2023-07-24T07:48:09Z</time>
      </trkpt>
      <trkpt lat="44.4243" lon="5.41108">
        <ele>1121.8</ele>
        <time>2023-07-24T07:48:10Z</time>
      </trkpt>
      <trkpt lat="44.42429" lon="5.41108">
        <ele>1121.9</ele>
        <time>2023-07-24T07:48:11Z</time>
      </trkpt>
      <trkpt lat="44.42429" lon="5.41108">
        <ele>1122</ele>
        <time>2023-07-24T07:48:12Z</time>
      </trkpt>
      <trkpt lat="44.42429" lon="5.41108">
        <ele>1122</ele>
        <time>2023-07-24T07:50:47Z</time>
      </trkpt>
      <trkpt lat="44.42429" lon="5.41108">
        <ele>1122.1</ele>
        <time>2023-07-24T07:50:48Z</time>
      </trkpt>
      <trkpt lat="44.42428" lon="5.41108">
        <ele>1122.1</ele>
        <time>2023-07-24T07:50:49Z</time>
      </trkpt>
      <trkpt lat="44.42428" lon="5.41108">
        <ele>1122.2</ele>
        <time>2023-07-24T07:50:50Z</time>
      </trkpt>
      <trkpt lat="44.42427" lon="5.41104">
        <ele>1122.8</ele>
        <time>2023-07-24T07:50:51Z</time>
      </trkpt>
      <trkpt lat="44.42426" lon="5.41103">
        <ele>1123</ele>
        <time>2023-07-24T07:50:52Z</time>
      </trkpt>
      <trkpt lat="44.42425" lon="5.411">
        <ele>1123.6</ele>
        <time>2023-07-24T07:50:53Z</time>
      </trkpt>
      <trkpt lat="44.42424" lon="5.41098">
        <ele>1123.8</ele>
        <time>2023-07-24T07:50:54Z</time>
      </trkpt>
      <trkpt lat="44.42423" lon="5.41096">
        <ele>1124.2</ele>
        <time>2023-07-24T07:50:55Z</time>
      </trkpt>
      <trkpt lat="44.42423" lon="5.41094">
        <ele>1124.5</ele>
        <time>2023-07-24T07:50:56Z</time>
      </trkpt>
      <trkpt lat="44.42422" lon="5.4109">
        <ele>1125.1</ele>
        <time>2023-07-24T07:50:57Z</time>
      </trkpt>
      <trkpt lat="44.42421" lon="5.41088">
        <ele>1125.4</ele>
        <time>2023-07-24T07:50:58Z</time>
      </trkpt>
      <trkpt lat="44.4242" lon="5.41086">
        <ele>1125.8</ele>
        <time>2023-07-24T07:50:59Z</time>
      </trkpt>
      <trkpt lat="44.42419" lon="5.41084">
        <ele>1126</ele>
        <time>2023-07-24T07:51:00Z</time>
      </trkpt>
      <trkpt lat="44.42419" lon="5.41083">
        <ele>1126.3</ele>
        <time>2023-07-24T07:51:01Z</time>
      </trkpt>
      <trkpt lat="44.42418" lon="5.41081">
        <ele>1126.7</ele>
        <time>2023-07-24T07:51:02Z</time>
      </trkpt>
      <trkpt lat="44.42416" lon="5.41078">
        <ele>1127.2</ele>
        <time>2023-07-24T07:51:03Z</time>
      </trkpt>
      <trkpt lat="44.42415" lon="5.41077">
        <ele>1127.4</ele>
        <time>2023-07-24T07:51:04Z</time>
      </trkpt>
      <trkpt lat="44.42414" lon="5.41076">
        <ele>1127.8</ele>
        <time>2023-07-24T07:51:05Z</time>
      </trkpt>
      <trkpt lat="44.42413" lon="5.41074">
        <ele>1128.1</ele>
        <time>2023-07-24T07:51:06Z</time>
      </trkpt>
      <trkpt lat="44.42413" lon="5.41072">
        <ele>1128.4</ele>
        <time>2023-07-24T07:51:07Z</time>
      </trkpt>
      <trkpt lat="44.42412" lon="5.4107">
        <ele>1128.7</ele>
        <time>2023-07-24T07:51:08Z</time>
      </trkpt>
      <trkpt lat="44.42411" lon="5.41066">
        <ele>1129.3</ele>
        <time>2023-07-24T07:51:09Z</time>
      </trkpt>
      <trkpt lat="44.42411" lon="5.41065">
        <ele>1129.4</ele>
        <time>2023-07-24T07:51:10Z</time>
      </trkpt>
      <trkpt lat="44.4241" lon="5.41063">
        <ele>1129.8</ele>
        <time>2023-07-24T07:51:11Z</time>
      </trkpt>
      <trkpt lat="44.42409" lon="5.41061">
        <ele>1130.2</ele>
        <time>2023-07-24T07:51:12Z</time>
      </trkpt>
      <trkpt lat="44.42408" lon="5.41059">
        <ele>1130.5</ele>
        <time>2023-07-24T07:51:13Z</time>
      </trkpt>
      <trkpt lat="44.42407" lon="5.41057">
        <ele>1130.8</ele>
        <time>2023-07-24T07:51:14Z</time>
      </trkpt>
      <trkpt lat="44.42406" lon="5.41055">
        <ele>1131.2</ele>
        <time>2023-07-24T07:51:15Z</time>
      </trkpt>
      <trkpt lat="44.42406" lon="5.41053">
        <ele>1131.5</ele>
        <time>2023-07-24T07:51:16Z</time>
      </trkpt>
      <trkpt lat="44.42405" lon="5.41051">
        <ele>1131.8</ele>
        <time>2023-07-24T07:51:17Z</time>
      </trkpt>
      <trkpt lat="44.42405" lon="5.41048">
        <ele>1132.2</ele>
        <time>2023-07-24T07:51:18Z</time>
      </trkpt>
      <trkpt lat="44.42405" lon="5.41045">
        <ele>1132.8</ele>
        <time>2023-07-24T07:51:19Z</time>
      </trkpt>
      <trkpt lat="44.42404" lon="5.41044">
        <ele>1133</ele>
        <time>2023-07-24T07:51:20Z</time>
      </trkpt>
      <trkpt lat="44.42402" lon="5.41041">
        <ele>1133.5</ele>
        <time>2023-07-24T07:51:21Z</time>
      </trkpt>
      <trkpt lat="44.42401" lon="5.4104">
        <ele>1133.8</ele>
        <time>2023-07-24T07:51:22Z</time>
      </trkpt>
      <trkpt lat="44.42399" lon="5.41036">
        <ele>1134.4</ele>
        <time>2023-07-24T07:51:23Z</time>
      </trkpt>
      <trkpt lat="44.42399" lon="5.41035">
        <ele>1134.6</ele>
        <time>2023-07-24T07:51:24Z</time>
      </trkpt>
      <trkpt lat="44.42398" lon="5.41031">
        <ele>1135.2</ele>
        <time>2023-07-24T07:51:25Z</time>
      </trkpt>
      <trkpt lat="44.42398" lon="5.4103">
        <ele>1135.3</ele>
        <time>2023-07-24T07:51:26Z</time>
      </trkpt>
      <trkpt lat="44.42397" lon="5.41026">
        <ele>1135.9</ele>
        <time>2023-07-24T07:51:27Z</time>
      </trkpt>
      <trkpt lat="44.42396" lon="5.41025">
        <ele>1136.2</ele>
        <time>2023-07-24T07:51:28Z</time>
      </trkpt>
      <trkpt lat="44.42396" lon="5.41023">
        <ele>1136.5</ele>
        <time>2023-07-24T07:51:29Z</time>
      </trkpt>
      <trkpt lat="44.42396" lon="5.41021">
        <ele>1136.8</ele>
        <time>2023-07-24T07:51:30Z</time>
      </trkpt>
      <trkpt lat="44.42395" lon="5.41019">
        <ele>1137.1</ele>
        <time>2023-07-24T07:51:31Z</time>
      </trkpt>
      <trkpt lat="44.42395" lon="5.41017">
        <ele>1137.4</ele>
        <time>2023-07-24T07:51:32Z</time>
      </trkpt>
      <trkpt lat="44.42394" lon="5.41015">
        <ele>1137.7</ele>
        <time>2023-07-24T07:51:33Z</time>
      </trkpt>
      <trkpt lat="44.42393" lon="5.41013">
        <ele>1138.1</ele>
        <time>2023-07-24T07:51:34Z</time>
      </trkpt>
      <trkpt lat="44.42392" lon="5.4101">
        <ele>1138.6</ele>
        <time>2023-07-24T07:51:35Z</time>
      </trkpt>
      <trkpt lat="44.42391" lon="5.41009">
        <ele>1138.8</ele>
        <time>2023-07-24T07:51:36Z</time>
      </trkpt>
      <trkpt lat="44.4239" lon="5.41007">
        <ele>1139.2</ele>
        <time>2023-07-24T07:51:37Z</time>
      </trkpt>
      <trkpt lat="44.42389" lon="5.41005">
        <ele>1139.5</ele>
        <time>2023-07-24T07:51:38Z</time>
      </trkpt>
      <trkpt lat="44.42388" lon="5.41003">
        <ele>1139.8</ele>
        <time>2023-07-24T07:51:39Z</time>
      </trkpt>
      <trkpt lat="44.42387" lon="5.41001">
        <ele>1140.2</ele>
        <time>2023-07-24T07:51:40Z</time>
      </trkpt>
      <trkpt lat="44.42386" lon="5.40999">
        <ele>1140.6</ele>
        <time>2023-07-24T07:51:41Z</time>
      </trkpt>
      <trkpt lat="44.42385" lon="5.40998">
        <ele>1140.9</ele>
        <time>2023-07-24T07:51:42Z</time>
      </trkpt>
      <trkpt lat="44.42384" lon="5.40995">
        <ele>1141.3</ele>
        <time>2023-07-24T07:51:43Z</time>
      </trkpt>
      <trkpt lat="44.42383" lon="5.40995">
        <ele>1141.5</ele>
        <time>2023-07-24T07:51:44Z</time>
      </trkpt>
      <trkpt lat="44.42383" lon="5.40994">
        <ele>1141.7</ele>
        <time>2023-07-24T07:51:45Z</time>
      </trkpt>
      <trkpt lat="44.42382" lon="5.40992">
        <ele>1141.9</ele>
        <time>2023-07-24T07:51:46Z</time>
      </trkpt>
      <trkpt lat="44.42382" lon="5.40991">
        <ele>1142.2</ele>
        <time>2023-07-24T07:51:47Z</time>
      </trkpt>
      <trkpt lat="44.42381" lon="5.40989">
        <ele>1142.5</ele>
        <time>2023-07-24T07:51:48Z</time>
      </trkpt>
      <trkpt lat="44.42381" lon="5.40987">
        <ele>1142.7</ele>
        <time>2023-07-24T07:51:49Z</time>
      </trkpt>
      <trkpt lat="44.42381" lon="5.40986">
        <ele>1142.9</ele>
        <time>2023-07-24T07:51:50Z</time>
      </trkpt>
      <trkpt lat="44.4238" lon="5.40986">
        <ele>1143.1</ele>
        <time>2023-07-24T07:51:51Z</time>
      </trkpt>
      <trkpt lat="44.42378" lon="5.40984">
        <ele>1143.6</ele>
        <time>2023-07-24T07:51:52Z</time>
      </trkpt>
      <trkpt lat="44.42377" lon="5.40983">
        <ele>1143.8</ele>
        <time>2023-07-24T07:51:53Z</time>
      </trkpt>
      <trkpt lat="44.42377" lon="5.40982">
        <ele>1144</ele>
        <time>2023-07-24T07:51:54Z</time>
      </trkpt>
      <trkpt lat="44.42376" lon="5.4098">
        <ele>1144.3</ele>
        <time>2023-07-24T07:51:55Z</time>
      </trkpt>
      <trkpt lat="44.42375" lon="5.40978">
        <ele>1144.6</ele>
        <time>2023-07-24T07:51:56Z</time>
      </trkpt>
      <trkpt lat="44.42374" lon="5.40977">
        <ele>1144.9</ele>
        <time>2023-07-24T07:51:57Z</time>
      </trkpt>
      <trkpt lat="44.42374" lon="5.40976">
        <ele>1145.1</ele>
        <time>2023-07-24T07:51:58Z</time>
      </trkpt>
      <trkpt lat="44.42373" lon="5.40975">
        <ele>1145.3</ele>
        <time>2023-07-24T07:51:59Z</time>
      </trkpt>
      <trkpt lat="44.42372" lon="5.40973">
        <ele>1145.7</ele>
        <time>2023-07-24T07:52:00Z</time>
      </trkpt>
      <trkpt lat="44.42371" lon="5.40972">
        <ele>1145.8</ele>
        <time>2023-07-24T07:52:01Z</time>
      </trkpt>
      <trkpt lat="44.42371" lon="5.40972">
        <ele>1146</ele>
        <time>2023-07-24T07:52:02Z</time>
      </trkpt>
      <trkpt lat="44.4237" lon="5.40971">
        <ele>1146.2</ele>
        <time>2023-07-24T07:52:03Z</time>
      </trkpt>
      <trkpt lat="44.42369" lon="5.40969">
        <ele>1146.5</ele>
        <time>2023-07-24T07:52:04Z</time>
      </trkpt>
      <trkpt lat="44.42368" lon="5.40967">
        <ele>1146.8</ele>
        <time>2023-07-24T07:52:05Z</time>
      </trkpt>
      <trkpt lat="44.42368" lon="5.40966">
        <ele>1147.1</ele>
        <time>2023-07-24T07:52:06Z</time>
      </trkpt>
      <trkpt lat="44.42367" lon="5.40964">
        <ele>1147.4</ele>
        <time>2023-07-24T07:52:07Z</time>
      </trkpt>
      <trkpt lat="44.42366" lon="5.40963">
        <ele>1147.6</ele>
        <time>2023-07-24T07:52:08Z</time>
      </trkpt>
      <trkpt lat="44.42365" lon="5.40962">
        <ele>1147.8</ele>
        <time>2023-07-24T07:52:09Z</time>
      </trkpt>
      <trkpt lat="44.42364" lon="5.4096">
        <ele>1148.2</ele>
        <time>2023-07-24T07:52:10Z</time>
      </trkpt>
      <trkpt lat="44.42363" lon="5.40959">
        <ele>1148.5</ele>
        <time>2023-07-24T07:52:11Z</time>
      </trkpt>
      <trkpt lat="44.42361" lon="5.40958">
        <ele>1148.8</ele>
        <time>2023-07-24T07:52:12Z</time>
      </trkpt>
      <trkpt lat="44.4236" lon="5.40957">
        <ele>1149.1</ele>
        <time>2023-07-24T07:52:13Z</time>
      </trkpt>
      <trkpt lat="44.42359" lon="5.40956">
        <ele>1149.5</ele>
        <time>2023-07-24T07:52:14Z</time>
      </trkpt>
      <trkpt lat="44.42358" lon="5.40954">
        <ele>1149.7</ele>
        <time>2023-07-24T07:52:15Z</time>
      </trkpt>
      <trkpt lat="44.42357" lon="5.40952">
        <ele>1150.1</ele>
        <time>2023-07-24T07:52:16Z</time>
      </trkpt>
      <trkpt lat="44.42355" lon="5.4095">
        <ele>1150.6</ele>
        <time>2023-07-24T07:52:17Z</time>
      </trkpt>
      <trkpt lat="44.42354" lon="5.40949">
        <ele>1150.8</ele>
        <time>2023-07-24T07:52:18Z</time>
      </trkpt>
      <trkpt lat="44.42353" lon="5.40948">
        <ele>1151.1</ele>
        <time>2023-07-24T07:52:19Z</time>
      </trkpt>
      <trkpt lat="44.42352" lon="5.40947">
        <ele>1151.5</ele>
        <time>2023-07-24T07:52:20Z</time>
      </trkpt>
      <trkpt lat="44.42351" lon="5.40946">
        <ele>1151.8</ele>
        <time>2023-07-24T07:52:21Z</time>
      </trkpt>
      <trkpt lat="44.4235" lon="5.40944">
        <ele>1152.1</ele>
        <time>2023-07-24T07:52:22Z</time>
      </trkpt>
      <trkpt lat="44.42348" lon="5.40942">
        <ele>1152.5</ele>
        <time>2023-07-24T07:52:23Z</time>
      </trkpt>
      <trkpt lat="44.42347" lon="5.40942">
        <ele>1152.7</ele>
        <time>2023-07-24T07:52:24Z</time>
      </trkpt>
      <trkpt lat="44.42346" lon="5.40941">
        <ele>1152.9</ele>
        <time>2023-07-24T07:52:25Z</time>
      </trkpt>
      <trkpt lat="44.42346" lon="5.4094">
        <ele>1153.1</ele>
        <time>2023-07-24T07:52:26Z</time>
      </trkpt>
      <trkpt lat="44.42346" lon="5.40938">
        <ele>1153.3</ele>
        <time>2023-07-24T07:52:27Z</time>
      </trkpt>
      <trkpt lat="44.42345" lon="5.40937">
        <ele>1153.7</ele>
        <time>2023-07-24T07:52:28Z</time>
      </trkpt>
      <trkpt lat="44.42342" lon="5.40935">
        <ele>1154.3</ele>
        <time>2023-07-24T07:52:29Z</time>
      </trkpt>
      <trkpt lat="44.42341" lon="5.40934">
        <ele>1154.5</ele>
        <time>2023-07-24T07:52:30Z</time>
      </trkpt>
      <trkpt lat="44.4234" lon="5.40933">
        <ele>1154.9</ele>
        <time>2023-07-24T07:52:31Z</time>
      </trkpt>
      <trkpt lat="44.42339" lon="5.40931">
        <ele>1155.1</ele>
        <time>2023-07-24T07:52:32Z</time>
      </trkpt>
      <trkpt lat="44.42338" lon="5.4093">
        <ele>1155.4</ele>
        <time>2023-07-24T07:52:33Z</time>
      </trkpt>
      <trkpt lat="44.42337" lon="5.40928">
        <ele>1155.7</ele>
        <time>2023-07-24T07:52:34Z</time>
      </trkpt>
      <trkpt lat="44.42337" lon="5.40926">
        <ele>1156</ele>
        <time>2023-07-24T07:52:35Z</time>
      </trkpt>
      <trkpt lat="44.42336" lon="5.40924">
        <ele>1156.3</ele>
        <time>2023-07-24T07:52:36Z</time>
      </trkpt>
      <trkpt lat="44.42335" lon="5.40923">
        <ele>1156.7</ele>
        <time>2023-07-24T07:52:37Z</time>
      </trkpt>
      <trkpt lat="44.42334" lon="5.40921">
        <ele>1157</ele>
        <time>2023-07-24T07:52:38Z</time>
      </trkpt>
      <trkpt lat="44.42333" lon="5.4092">
        <ele>1157.3</ele>
        <time>2023-07-24T07:52:39Z</time>
      </trkpt>
      <trkpt lat="44.42332" lon="5.40918">
        <ele>1157.6</ele>
        <time>2023-07-24T07:52:40Z</time>
      </trkpt>
      <trkpt lat="44.42331" lon="5.40916">
        <ele>1157.9</ele>
        <time>2023-07-24T07:52:41Z</time>
      </trkpt>
      <trkpt lat="44.4233" lon="5.40915">
        <ele>1158.2</ele>
        <time>2023-07-24T07:52:42Z</time>
      </trkpt>
      <trkpt lat="44.42329" lon="5.40913">
        <ele>1158.5</ele>
        <time>2023-07-24T07:52:43Z</time>
      </trkpt>
      <trkpt lat="44.42329" lon="5.40911">
        <ele>1158.8</ele>
        <time>2023-07-24T07:52:44Z</time>
      </trkpt>
      <trkpt lat="44.42328" lon="5.4091">
        <ele>1159.1</ele>
        <time>2023-07-24T07:52:45Z</time>
      </trkpt>
      <trkpt lat="44.42326" lon="5.40908">
        <ele>1159.5</ele>
        <time>2023-07-24T07:52:46Z</time>
      </trkpt>
      <trkpt lat="44.42325" lon="5.40907">
        <ele>1159.8</ele>
        <time>2023-07-24T07:52:47Z</time>
      </trkpt>
      <trkpt lat="44.42324" lon="5.40905">
        <ele>1160.2</ele>
        <time>2023-07-24T07:52:48Z</time>
      </trkpt>
      <trkpt lat="44.42322" lon="5.40903">
        <ele>1160.7</ele>
        <time>2023-07-24T07:52:49Z</time>
      </trkpt>
      <trkpt lat="44.42321" lon="5.40902">
        <ele>1160.9</ele>
        <time>2023-07-24T07:52:50Z</time>
      </trkpt>
      <trkpt lat="44.42318" lon="5.409">
        <ele>1161.5</ele>
        <time>2023-07-24T07:52:51Z</time>
      </trkpt>
      <trkpt lat="44.42318" lon="5.40899">
        <ele>1161.8</ele>
        <time>2023-07-24T07:52:52Z</time>
      </trkpt>
      <trkpt lat="44.42316" lon="5.40897">
        <ele>1162.1</ele>
        <time>2023-07-24T07:52:53Z</time>
      </trkpt>
      <trkpt lat="44.42315" lon="5.40895">
        <ele>1162.5</ele>
        <time>2023-07-24T07:52:54Z</time>
      </trkpt>
      <trkpt lat="44.42314" lon="5.40894">
        <ele>1162.8</ele>
        <time>2023-07-24T07:52:55Z</time>
      </trkpt>
      <trkpt lat="44.42313" lon="5.40892">
        <ele>1163</ele>
        <time>2023-07-24T07:52:56Z</time>
      </trkpt>
      <trkpt lat="44.42312" lon="5.40891">
        <ele>1163.3</ele>
        <time>2023-07-24T07:52:57Z</time>
      </trkpt>
      <trkpt lat="44.42311" lon="5.4089">
        <ele>1163.6</ele>
        <time>2023-07-24T07:52:58Z</time>
      </trkpt>
      <trkpt lat="44.4231" lon="5.40888">
        <ele>1164</ele>
        <time>2023-07-24T07:52:59Z</time>
      </trkpt>
      <trkpt lat="44.42309" lon="5.40887">
        <ele>1164.2</ele>
        <time>2023-07-24T07:53:00Z</time>
      </trkpt>
      <trkpt lat="44.42309" lon="5.40886">
        <ele>1164.4</ele>
        <time>2023-07-24T07:53:01Z</time>
      </trkpt>
      <trkpt lat="44.42308" lon="5.40885">
        <ele>1164.7</ele>
        <time>2023-07-24T07:53:02Z</time>
      </trkpt>
      <trkpt lat="44.42307" lon="5.40883">
        <ele>1165</ele>
        <time>2023-07-24T07:53:03Z</time>
      </trkpt>
      <trkpt lat="44.42306" lon="5.40881">
        <ele>1165.3</ele>
        <time>2023-07-24T07:53:04Z</time>
      </trkpt>
      <trkpt lat="44.42304" lon="5.40879">
        <ele>1165.7</ele>
        <time>2023-07-24T07:53:05Z</time>
      </trkpt>
      <trkpt lat="44.42303" lon="5.40878">
        <ele>1166.1</ele>
        <time>2023-07-24T07:53:06Z</time>
      </trkpt>
      <trkpt lat="44.42302" lon="5.40876">
        <ele>1166.4</ele>
        <time>2023-07-24T07:53:07Z</time>
      </trkpt>
      <trkpt lat="44.42301" lon="5.40875">
        <ele>1166.7</ele>
        <time>2023-07-24T07:53:08Z</time>
      </trkpt>
      <trkpt lat="44.42299" lon="5.40873">
        <ele>1167.1</ele>
        <time>2023-07-24T07:53:09Z</time>
      </trkpt>
      <trkpt lat="44.42298" lon="5.40872">
        <ele>1167.4</ele>
        <time>2023-07-24T07:53:10Z</time>
      </trkpt>
      <trkpt lat="44.42297" lon="5.40871">
        <ele>1167.7</ele>
        <time>2023-07-24T07:53:11Z</time>
      </trkpt>
      <trkpt lat="44.42295" lon="5.40869">
        <ele>1168.1</ele>
        <time>2023-07-24T07:53:12Z</time>
      </trkpt>
      <trkpt lat="44.42294" lon="5.40868">
        <ele>1168.4</ele>
        <time>2023-07-24T07:53:13Z</time>
      </trkpt>
      <trkpt lat="44.42293" lon="5.40866">
        <ele>1168.8</ele>
        <time>2023-07-24T07:53:14Z</time>
      </trkpt>
      <trkpt lat="44.42292" lon="5.40864">
        <ele>1169.1</ele>
        <time>2023-07-24T07:53:15Z</time>
      </trkpt>
      <trkpt lat="44.42291" lon="5.40862">
        <ele>1169.4</ele>
        <time>2023-07-24T07:53:16Z</time>
      </trkpt>
      <trkpt lat="44.4229" lon="5.4086">
        <ele>1169.8</ele>
        <time>2023-07-24T07:53:17Z</time>
      </trkpt>
      <trkpt lat="44.42289" lon="5.40857">
        <ele>1170.3</ele>
        <time>2023-07-24T07:53:18Z</time>
      </trkpt>
      <trkpt lat="44.42289" lon="5.40855">
        <ele>1170.5</ele>
        <time>2023-07-24T07:53:19Z</time>
      </trkpt>
      <trkpt lat="44.42288" lon="5.40852">
        <ele>1171.1</ele>
        <time>2023-07-24T07:53:20Z</time>
      </trkpt>
      <trkpt lat="44.42287" lon="5.40851">
        <ele>1171.3</ele>
        <time>2023-07-24T07:53:21Z</time>
      </trkpt>
      <trkpt lat="44.42286" lon="5.40849">
        <ele>1171.6</ele>
        <time>2023-07-24T07:53:22Z</time>
      </trkpt>
      <trkpt lat="44.42285" lon="5.40847">
        <ele>1172</ele>
        <time>2023-07-24T07:53:23Z</time>
      </trkpt>
      <trkpt lat="44.42283" lon="5.40844">
        <ele>1172.6</ele>
        <time>2023-07-24T07:53:24Z</time>
      </trkpt>
      <trkpt lat="44.42282" lon="5.40843">
        <ele>1172.8</ele>
        <time>2023-07-24T07:53:25Z</time>
      </trkpt>
      <trkpt lat="44.42281" lon="5.40841">
        <ele>1173.2</ele>
        <time>2023-07-24T07:53:26Z</time>
      </trkpt>
      <trkpt lat="44.4228" lon="5.40839">
        <ele>1173.4</ele>
        <time>2023-07-24T07:53:27Z</time>
      </trkpt>
      <trkpt lat="44.4228" lon="5.40837">
        <ele>1173.8</ele>
        <time>2023-07-24T07:53:28Z</time>
      </trkpt>
      <trkpt lat="44.42279" lon="5.40835">
        <ele>1174.1</ele>
        <time>2023-07-24T07:53:29Z</time>
      </trkpt>
      <trkpt lat="44.42278" lon="5.40834">
        <ele>1174.4</ele>
        <time>2023-07-24T07:53:30Z</time>
      </trkpt>
      <trkpt lat="44.42277" lon="5.40832">
        <ele>1174.7</ele>
        <time>2023-07-24T07:53:31Z</time>
      </trkpt>
      <trkpt lat="44.42275" lon="5.40828">
        <ele>1175.3</ele>
        <time>2023-07-24T07:53:32Z</time>
      </trkpt>
      <trkpt lat="44.42275" lon="5.40827">
        <ele>1175.5</ele>
        <time>2023-07-24T07:53:33Z</time>
      </trkpt>
      <trkpt lat="44.42274" lon="5.40826">
        <ele>1175.8</ele>
        <time>2023-07-24T07:53:34Z</time>
      </trkpt>
      <trkpt lat="44.42273" lon="5.40824">
        <ele>1176.1</ele>
        <time>2023-07-24T07:53:35Z</time>
      </trkpt>
      <trkpt lat="44.42271" lon="5.40823">
        <ele>1176.5</ele>
        <time>2023-07-24T07:53:36Z</time>
      </trkpt>
      <trkpt lat="44.4227" lon="5.40821">
        <ele>1176.8</ele>
        <time>2023-07-24T07:53:37Z</time>
      </trkpt>
      <trkpt lat="44.42268" lon="5.40818">
        <ele>1177.4</ele>
        <time>2023-07-24T07:53:38Z</time>
      </trkpt>
      <trkpt lat="44.42268" lon="5.40817">
        <ele>1177.6</ele>
        <time>2023-07-24T07:53:39Z</time>
      </trkpt>
      <trkpt lat="44.42266" lon="5.40816">
        <ele>1177.9</ele>
        <time>2023-07-24T07:53:40Z</time>
      </trkpt>
      <trkpt lat="44.42265" lon="5.40814">
        <ele>1178.2</ele>
        <time>2023-07-24T07:53:41Z</time>
      </trkpt>
      <trkpt lat="44.42263" lon="5.40811">
        <ele>1178.8</ele>
        <time>2023-07-24T07:53:42Z</time>
      </trkpt>
      <trkpt lat="44.42263" lon="5.4081">
        <ele>1179</ele>
        <time>2023-07-24T07:53:43Z</time>
      </trkpt>
      <trkpt lat="44.42262" lon="5.40808">
        <ele>1179.3</ele>
        <time>2023-07-24T07:53:44Z</time>
      </trkpt>
      <trkpt lat="44.42261" lon="5.40807">
        <ele>1179.6</ele>
        <time>2023-07-24T07:53:45Z</time>
      </trkpt>
      <trkpt lat="44.4226" lon="5.40805">
        <ele>1179.9</ele>
        <time>2023-07-24T07:53:46Z</time>
      </trkpt>
      <trkpt lat="44.4226" lon="5.40802">
        <ele>1180.2</ele>
        <time>2023-07-24T07:53:47Z</time>
      </trkpt>
      <trkpt lat="44.42259" lon="5.40801">
        <ele>1180.5</ele>
        <time>2023-07-24T07:53:48Z</time>
      </trkpt>
      <trkpt lat="44.42258" lon="5.40799">
        <ele>1180.8</ele>
        <time>2023-07-24T07:53:49Z</time>
      </trkpt>
      <trkpt lat="44.42257" lon="5.40797">
        <ele>1181.2</ele>
        <time>2023-07-24T07:53:50Z</time>
      </trkpt>
      <trkpt lat="44.42256" lon="5.40795">
        <ele>1181.5</ele>
        <time>2023-07-24T07:53:51Z</time>
      </trkpt>
      <trkpt lat="44.42254" lon="5.40792">
        <ele>1182.1</ele>
        <time>2023-07-24T07:53:52Z</time>
      </trkpt>
      <trkpt lat="44.42254" lon="5.40791">
        <ele>1182.3</ele>
        <time>2023-07-24T07:53:53Z</time>
      </trkpt>
      <trkpt lat="44.42253" lon="5.4079">
        <ele>1182.6</ele>
        <time>2023-07-24T07:53:54Z</time>
      </trkpt>
      <trkpt lat="44.42252" lon="5.40787">
        <ele>1183</ele>
        <time>2023-07-24T07:53:55Z</time>
      </trkpt>
      <trkpt lat="44.4225" lon="5.40784">
        <ele>1183.5</ele>
        <time>2023-07-24T07:53:56Z</time>
      </trkpt>
      <trkpt lat="44.4225" lon="5.40783">
        <ele>1183.7</ele>
        <time>2023-07-24T07:53:57Z</time>
      </trkpt>
      <trkpt lat="44.42248" lon="5.40779">
        <ele>1184.4</ele>
        <time>2023-07-24T07:53:58Z</time>
      </trkpt>
      <trkpt lat="44.42247" lon="5.40778">
        <ele>1184.6</ele>
        <time>2023-07-24T07:53:59Z</time>
      </trkpt>
      <trkpt lat="44.42245" lon="5.40775">
        <ele>1185.2</ele>
        <time>2023-07-24T07:54:00Z</time>
      </trkpt>
      <trkpt lat="44.42244" lon="5.40774">
        <ele>1185.5</ele>
        <time>2023-07-24T07:54:01Z</time>
      </trkpt>
      <trkpt lat="44.42242" lon="5.40771">
        <ele>1186</ele>
        <time>2023-07-24T07:54:02Z</time>
      </trkpt>
      <trkpt lat="44.42241" lon="5.4077">
        <ele>1186.2</ele>
        <time>2023-07-24T07:54:03Z</time>
      </trkpt>
      <trkpt lat="44.42239" lon="5.40767">
        <ele>1186.8</ele>
        <time>2023-07-24T07:54:04Z</time>
      </trkpt>
      <trkpt lat="44.42239" lon="5.40766">
        <ele>1187</ele>
        <time>2023-07-24T07:54:05Z</time>
      </trkpt>
      <trkpt lat="44.42237" lon="5.40763">
        <ele>1187.6</ele>
        <time>2023-07-24T07:54:06Z</time>
      </trkpt>
      <trkpt lat="44.42236" lon="5.40762">
        <ele>1187.8</ele>
        <time>2023-07-24T07:54:07Z</time>
      </trkpt>
      <trkpt lat="44.42234" lon="5.40759">
        <ele>1188.4</ele>
        <time>2023-07-24T07:54:08Z</time>
      </trkpt>
      <trkpt lat="44.42234" lon="5.40758">
        <ele>1188.6</ele>
        <time>2023-07-24T07:54:09Z</time>
      </trkpt>
      <trkpt lat="44.42233" lon="5.40755">
        <ele>1189</ele>
        <time>2023-07-24T07:54:10Z</time>
      </trkpt>
      <trkpt lat="44.42232" lon="5.40753">
        <ele>1189.3</ele>
        <time>2023-07-24T07:54:11Z</time>
      </trkpt>
      <trkpt lat="44.42232" lon="5.40751">
        <ele>1189.7</ele>
        <time>2023-07-24T07:54:12Z</time>
      </trkpt>
      <trkpt lat="44.42231" lon="5.40749">
        <ele>1190</ele>
        <time>2023-07-24T07:54:13Z</time>
      </trkpt>
      <trkpt lat="44.4223" lon="5.40747">
        <ele>1190.4</ele>
        <time>2023-07-24T07:54:14Z</time>
      </trkpt>
      <trkpt lat="44.42229" lon="5.40746">
        <ele>1190.6</ele>
        <time>2023-07-24T07:54:15Z</time>
      </trkpt>
      <trkpt lat="44.42229" lon="5.40745">
        <ele>1190.8</ele>
        <time>2023-07-24T07:54:16Z</time>
      </trkpt>
      <trkpt lat="44.42228" lon="5.40743">
        <ele>1191.1</ele>
        <time>2023-07-24T07:54:17Z</time>
      </trkpt>
      <trkpt lat="44.42227" lon="5.40741">
        <ele>1191.5</ele>
        <time>2023-07-24T07:54:18Z</time>
      </trkpt>
      <trkpt lat="44.42224" lon="5.40738">
        <ele>1192.1</ele>
        <time>2023-07-24T07:54:19Z</time>
      </trkpt>
      <trkpt lat="44.42224" lon="5.40737">
        <ele>1192.3</ele>
        <time>2023-07-24T07:54:20Z</time>
      </trkpt>
      <trkpt lat="44.42223" lon="5.40735">
        <ele>1192.7</ele>
        <time>2023-07-24T07:54:21Z</time>
      </trkpt>
      <trkpt lat="44.42222" lon="5.40733">
        <ele>1193</ele>
        <time>2023-07-24T07:54:22Z</time>
      </trkpt>
      <trkpt lat="44.42222" lon="5.40731">
        <ele>1193.3</ele>
        <time>2023-07-24T07:54:23Z</time>
      </trkpt>
      <trkpt lat="44.42221" lon="5.40729">
        <ele>1193.3</ele>
        <time>2023-07-24T07:54:24Z</time>
      </trkpt>
      <trkpt lat="44.42219" lon="5.40726">
        <ele>1193.6</ele>
        <time>2023-07-24T07:54:25Z</time>
      </trkpt>
      <trkpt lat="44.42218" lon="5.40725">
        <ele>1193.6</ele>
        <time>2023-07-24T07:54:26Z</time>
      </trkpt>
      <trkpt lat="44.42217" lon="5.40723">
        <ele>1193.8</ele>
        <time>2023-07-24T07:54:27Z</time>
      </trkpt>
      <trkpt lat="44.42216" lon="5.40721">
        <ele>1193.9</ele>
        <time>2023-07-24T07:54:28Z</time>
      </trkpt>
      <trkpt lat="44.42215" lon="5.40719">
        <ele>1194</ele>
        <time>2023-07-24T07:54:29Z</time>
      </trkpt>
      <trkpt lat="44.42214" lon="5.40718">
        <ele>1194.1</ele>
        <time>2023-07-24T07:54:30Z</time>
      </trkpt>
      <trkpt lat="44.42213" lon="5.40715">
        <ele>1194.3</ele>
        <time>2023-07-24T07:54:31Z</time>
      </trkpt>
      <trkpt lat="44.42212" lon="5.40713">
        <ele>1194.4</ele>
        <time>2023-07-24T07:54:32Z</time>
      </trkpt>
      <trkpt lat="44.42212" lon="5.40712">
        <ele>1194.5</ele>
        <time>2023-07-24T07:54:33Z</time>
      </trkpt>
      <trkpt lat="44.42211" lon="5.40709">
        <ele>1194.6</ele>
        <time>2023-07-24T07:54:34Z</time>
      </trkpt>
      <trkpt lat="44.42209" lon="5.40707">
        <ele>1194.8</ele>
        <time>2023-07-24T07:54:35Z</time>
      </trkpt>
      <trkpt lat="44.42209" lon="5.40706">
        <ele>1194.9</ele>
        <time>2023-07-24T07:54:36Z</time>
      </trkpt>
      <trkpt lat="44.42208" lon="5.40704">
        <ele>1195</ele>
        <time>2023-07-24T07:54:37Z</time>
      </trkpt>
      <trkpt lat="44.42207" lon="5.40701">
        <ele>1195.1</ele>
        <time>2023-07-24T07:54:38Z</time>
      </trkpt>
      <trkpt lat="44.42204" lon="5.40698">
        <ele>1195.4</ele>
        <time>2023-07-24T07:54:39Z</time>
      </trkpt>
      <trkpt lat="44.42203" lon="5.40697">
        <ele>1195.4</ele>
        <time>2023-07-24T07:54:40Z</time>
      </trkpt>
      <trkpt lat="44.42202" lon="5.40695">
        <ele>1195.6</ele>
        <time>2023-07-24T07:54:41Z</time>
      </trkpt>
      <trkpt lat="44.42201" lon="5.40693">
        <ele>1195.7</ele>
        <time>2023-07-24T07:54:42Z</time>
      </trkpt>
      <trkpt lat="44.422" lon="5.40691">
        <ele>1195.8</ele>
        <time>2023-07-24T07:54:43Z</time>
      </trkpt>
      <trkpt lat="44.42199" lon="5.4069">
        <ele>1195.9</ele>
        <time>2023-07-24T07:54:44Z</time>
      </trkpt>
      <trkpt lat="44.42198" lon="5.40688">
        <ele>1196</ele>
        <time>2023-07-24T07:54:45Z</time>
      </trkpt>
      <trkpt lat="44.42198" lon="5.40686">
        <ele>1196.1</ele>
        <time>2023-07-24T07:54:46Z</time>
      </trkpt>
      <trkpt lat="44.42197" lon="5.40684">
        <ele>1196.3</ele>
        <time>2023-07-24T07:54:47Z</time>
      </trkpt>
      <trkpt lat="44.42196" lon="5.40682">
        <ele>1196.4</ele>
        <time>2023-07-24T07:54:48Z</time>
      </trkpt>
      <trkpt lat="44.42194" lon="5.40679">
        <ele>1196.6</ele>
        <time>2023-07-24T07:54:49Z</time>
      </trkpt>
      <trkpt lat="44.42193" lon="5.40678">
        <ele>1196.7</ele>
        <time>2023-07-24T07:54:50Z</time>
      </trkpt>
      <trkpt lat="44.42191" lon="5.40675">
        <ele>1196.9</ele>
        <time>2023-07-24T07:54:51Z</time>
      </trkpt>
      <trkpt lat="44.42191" lon="5.40675">
        <ele>1196.9</ele>
        <time>2023-07-24T07:54:52Z</time>
      </trkpt>
      <trkpt lat="44.42189" lon="5.40672">
        <ele>1197.1</ele>
        <time>2023-07-24T07:54:53Z</time>
      </trkpt>
      <trkpt lat="44.42188" lon="5.40671">
        <ele>1197.2</ele>
        <time>2023-07-24T07:54:54Z</time>
      </trkpt>
      <trkpt lat="44.42186" lon="5.40668">
        <ele>1197.4</ele>
        <time>2023-07-24T07:54:55Z</time>
      </trkpt>
      <trkpt lat="44.42185" lon="5.40667">
        <ele>1197.5</ele>
        <time>2023-07-24T07:54:56Z</time>
      </trkpt>
      <trkpt lat="44.42185" lon="5.40665">
        <ele>1197.6</ele>
        <time>2023-07-24T07:54:57Z</time>
      </trkpt>
      <trkpt lat="44.42184" lon="5.40663">
        <ele>1197.7</ele>
        <time>2023-07-24T07:54:58Z</time>
      </trkpt>
      <trkpt lat="44.42183" lon="5.40662">
        <ele>1197.8</ele>
        <time>2023-07-24T07:54:59Z</time>
      </trkpt>
      <trkpt lat="44.42182" lon="5.4066">
        <ele>1198</ele>
        <time>2023-07-24T07:55:00Z</time>
      </trkpt>
      <trkpt lat="44.42179" lon="5.40657">
        <ele>1198.2</ele>
        <time>2023-07-24T07:55:01Z</time>
      </trkpt>
      <trkpt lat="44.42179" lon="5.40656">
        <ele>1198.2</ele>
        <time>2023-07-24T07:55:02Z</time>
      </trkpt>
      <trkpt lat="44.42177" lon="5.40652">
        <ele>1198.5</ele>
        <time>2023-07-24T07:55:03Z</time>
      </trkpt>
      <trkpt lat="44.42177" lon="5.40651">
        <ele>1198.6</ele>
        <time>2023-07-24T07:55:04Z</time>
      </trkpt>
      <trkpt lat="44.42176" lon="5.40647">
        <ele>1198.8</ele>
        <time>2023-07-24T07:55:05Z</time>
      </trkpt>
      <trkpt lat="44.42175" lon="5.40645">
        <ele>1198.8</ele>
        <time>2023-07-24T07:55:06Z</time>
      </trkpt>
      <trkpt lat="44.42175" lon="5.40644">
        <ele>1199</ele>
        <time>2023-07-24T07:55:07Z</time>
      </trkpt>
      <trkpt lat="44.42173" lon="5.40642">
        <ele>1199.1</ele>
        <time>2023-07-24T07:55:08Z</time>
      </trkpt>
      <trkpt lat="44.42172" lon="5.4064">
        <ele>1199.2</ele>
        <time>2023-07-24T07:55:09Z</time>
      </trkpt>
      <trkpt lat="44.42172" lon="5.40639">
        <ele>1199.3</ele>
        <time>2023-07-24T07:55:10Z</time>
      </trkpt>
      <trkpt lat="44.42171" lon="5.40638">
        <ele>1199.3</ele>
        <time>2023-07-24T07:55:11Z</time>
      </trkpt>
      <trkpt lat="44.4217" lon="5.40636">
        <ele>1199.4</ele>
        <time>2023-07-24T07:55:12Z</time>
      </trkpt>
      <trkpt lat="44.4217" lon="5.40634">
        <ele>1199.5</ele>
        <time>2023-07-24T07:55:13Z</time>
      </trkpt>
      <trkpt lat="44.4217" lon="5.40632">
        <ele>1199.7</ele>
        <time>2023-07-24T07:55:14Z</time>
      </trkpt>
      <trkpt lat="44.42169" lon="5.40629">
        <ele>1199.8</ele>
        <time>2023-07-24T07:55:15Z</time>
      </trkpt>
      <trkpt lat="44.42169" lon="5.40627">
        <ele>1199.9</ele>
        <time>2023-07-24T07:55:16Z</time>
      </trkpt>
      <trkpt lat="44.42168" lon="5.40625">
        <ele>1200.1</ele>
        <time>2023-07-24T07:55:17Z</time>
      </trkpt>
      <trkpt lat="44.42166" lon="5.40621">
        <ele>1200.3</ele>
        <time>2023-07-24T07:55:18Z</time>
      </trkpt>
      <trkpt lat="44.42166" lon="5.4062">
        <ele>1200.3</ele>
        <time>2023-07-24T07:55:19Z</time>
      </trkpt>
      <trkpt lat="44.42166" lon="5.40618">
        <ele>1200.5</ele>
        <time>2023-07-24T07:55:20Z</time>
      </trkpt>
      <trkpt lat="44.42165" lon="5.40615">
        <ele>1200.6</ele>
        <time>2023-07-24T07:55:21Z</time>
      </trkpt>
      <trkpt lat="44.42164" lon="5.40611">
        <ele>1200.8</ele>
        <time>2023-07-24T07:55:22Z</time>
      </trkpt>
      <trkpt lat="44.42164" lon="5.4061">
        <ele>1200.9</ele>
        <time>2023-07-24T07:55:23Z</time>
      </trkpt>
      <trkpt lat="44.42162" lon="5.40606">
        <ele>1201.1</ele>
        <time>2023-07-24T07:55:24Z</time>
      </trkpt>
      <trkpt lat="44.42162" lon="5.40605">
        <ele>1201.2</ele>
        <time>2023-07-24T07:55:25Z</time>
      </trkpt>
      <trkpt lat="44.42161" lon="5.40601">
        <ele>1201.4</ele>
        <time>2023-07-24T07:55:26Z</time>
      </trkpt>
      <trkpt lat="44.4216" lon="5.406">
        <ele>1201.4</ele>
        <time>2023-07-24T07:55:27Z</time>
      </trkpt>
      <trkpt lat="44.42158" lon="5.40596">
        <ele>1201.7</ele>
        <time>2023-07-24T07:55:28Z</time>
      </trkpt>
      <trkpt lat="44.42157" lon="5.40595">
        <ele>1201.8</ele>
        <time>2023-07-24T07:55:29Z</time>
      </trkpt>
      <trkpt lat="44.42155" lon="5.40592">
        <ele>1202</ele>
        <time>2023-07-24T07:55:30Z</time>
      </trkpt>
      <trkpt lat="44.42155" lon="5.4059">
        <ele>1202.1</ele>
        <time>2023-07-24T07:55:31Z</time>
      </trkpt>
      <trkpt lat="44.42153" lon="5.40587">
        <ele>1202.3</ele>
        <time>2023-07-24T07:55:32Z</time>
      </trkpt>
      <trkpt lat="44.42153" lon="5.40586">
        <ele>1202.4</ele>
        <time>2023-07-24T07:55:33Z</time>
      </trkpt>
      <trkpt lat="44.42152" lon="5.40584">
        <ele>1202.5</ele>
        <time>2023-07-24T07:55:34Z</time>
      </trkpt>
      <trkpt lat="44.42152" lon="5.40581">
        <ele>1202.6</ele>
        <time>2023-07-24T07:55:35Z</time>
      </trkpt>
      <trkpt lat="44.42152" lon="5.40579">
        <ele>1202.7</ele>
        <time>2023-07-24T07:55:36Z</time>
      </trkpt>
      <trkpt lat="44.42151" lon="5.40577">
        <ele>1202.8</ele>
        <time>2023-07-24T07:55:37Z</time>
      </trkpt>
      <trkpt lat="44.42151" lon="5.40574">
        <ele>1203</ele>
        <time>2023-07-24T07:55:38Z</time>
      </trkpt>
      <trkpt lat="44.42151" lon="5.40573">
        <ele>1203.1</ele>
        <time>2023-07-24T07:55:39Z</time>
      </trkpt>
      <trkpt lat="44.4215" lon="5.40571">
        <ele>1203.2</ele>
        <time>2023-07-24T07:55:40Z</time>
      </trkpt>
      <trkpt lat="44.4215" lon="5.40569">
        <ele>1203.3</ele>
        <time>2023-07-24T07:55:41Z</time>
      </trkpt>
      <trkpt lat="44.4215" lon="5.40567">
        <ele>1203.4</ele>
        <time>2023-07-24T07:55:42Z</time>
      </trkpt>
      <trkpt lat="44.42149" lon="5.40564">
        <ele>1203.5</ele>
        <time>2023-07-24T07:55:43Z</time>
      </trkpt>
      <trkpt lat="44.42149" lon="5.4056">
        <ele>1203.7</ele>
        <time>2023-07-24T07:55:44Z</time>
      </trkpt>
      <trkpt lat="44.42149" lon="5.40559">
        <ele>1203.8</ele>
        <time>2023-07-24T07:55:45Z</time>
      </trkpt>
      <trkpt lat="44.42148" lon="5.40556">
        <ele>1203.9</ele>
        <time>2023-07-24T07:55:46Z</time>
      </trkpt>
      <trkpt lat="44.42148" lon="5.40554">
        <ele>1204.1</ele>
        <time>2023-07-24T07:55:47Z</time>
      </trkpt>
      <trkpt lat="44.42146" lon="5.4055">
        <ele>1204.3</ele>
        <time>2023-07-24T07:55:48Z</time>
      </trkpt>
      <trkpt lat="44.42145" lon="5.40549">
        <ele>1204.4</ele>
        <time>2023-07-24T07:55:49Z</time>
      </trkpt>
      <trkpt lat="44.42143" lon="5.40546">
        <ele>1204.6</ele>
        <time>2023-07-24T07:55:50Z</time>
      </trkpt>
      <trkpt lat="44.42142" lon="5.40545">
        <ele>1204.7</ele>
        <time>2023-07-24T07:55:51Z</time>
      </trkpt>
      <trkpt lat="44.4214" lon="5.40542">
        <ele>1204.9</ele>
        <time>2023-07-24T07:55:52Z</time>
      </trkpt>
      <trkpt lat="44.4214" lon="5.40541">
        <ele>1204.9</ele>
        <time>2023-07-24T07:55:53Z</time>
      </trkpt>
      <trkpt lat="44.42138" lon="5.4054">
        <ele>1205.1</ele>
        <time>2023-07-24T07:55:54Z</time>
      </trkpt>
      <trkpt lat="44.42137" lon="5.40538">
        <ele>1205.2</ele>
        <time>2023-07-24T07:55:55Z</time>
      </trkpt>
      <trkpt lat="44.42135" lon="5.40537">
        <ele>1205.3</ele>
        <time>2023-07-24T07:55:56Z</time>
      </trkpt>
      <trkpt lat="44.42134" lon="5.40536">
        <ele>1205.4</ele>
        <time>2023-07-24T07:55:57Z</time>
      </trkpt>
      <trkpt lat="44.42131" lon="5.40535">
        <ele>1205.6</ele>
        <time>2023-07-24T07:55:58Z</time>
      </trkpt>
      <trkpt lat="44.4213" lon="5.40534">
        <ele>1205.7</ele>
        <time>2023-07-24T07:55:59Z</time>
      </trkpt>
      <trkpt lat="44.42127" lon="5.40533">
        <ele>1205.9</ele>
        <time>2023-07-24T07:56:00Z</time>
      </trkpt>
      <trkpt lat="44.42127" lon="5.40532">
        <ele>1206</ele>
        <time>2023-07-24T07:56:01Z</time>
      </trkpt>
      <trkpt lat="44.42125" lon="5.40531">
        <ele>1206.1</ele>
        <time>2023-07-24T07:56:02Z</time>
      </trkpt>
      <trkpt lat="44.42123" lon="5.4053">
        <ele>1206.3</ele>
        <time>2023-07-24T07:56:03Z</time>
      </trkpt>
      <trkpt lat="44.42123" lon="5.40529">
        <ele>1206.3</ele>
        <time>2023-07-24T07:56:04Z</time>
      </trkpt>
      <trkpt lat="44.42122" lon="5.40528">
        <ele>1206.4</ele>
        <time>2023-07-24T07:56:05Z</time>
      </trkpt>
      <trkpt lat="44.42121" lon="5.40527">
        <ele>1206.5</ele>
        <time>2023-07-24T07:56:06Z</time>
      </trkpt>
      <trkpt lat="44.42119" lon="5.40526">
        <ele>1206.6</ele>
        <time>2023-07-24T07:56:07Z</time>
      </trkpt>
      <trkpt lat="44.42118" lon="5.40525">
        <ele>1206.7</ele>
        <time>2023-07-24T07:56:08Z</time>
      </trkpt>
      <trkpt lat="44.42117" lon="5.40524">
        <ele>1206.8</ele>
        <time>2023-07-24T07:56:09Z</time>
      </trkpt>
      <trkpt lat="44.42116" lon="5.40523">
        <ele>1206.9</ele>
        <time>2023-07-24T07:56:10Z</time>
      </trkpt>
      <trkpt lat="44.42113" lon="5.40521">
        <ele>1207.1</ele>
        <time>2023-07-24T07:56:11Z</time>
      </trkpt>
      <trkpt lat="44.42112" lon="5.4052">
        <ele>1207.2</ele>
        <time>2023-07-24T07:56:12Z</time>
      </trkpt>
      <trkpt lat="44.4211" lon="5.40517">
        <ele>1207.4</ele>
        <time>2023-07-24T07:56:13Z</time>
      </trkpt>
      <trkpt lat="44.42109" lon="5.40516">
        <ele>1207.5</ele>
        <time>2023-07-24T07:56:14Z</time>
      </trkpt>
      <trkpt lat="44.42108" lon="5.40514">
        <ele>1207.6</ele>
        <time>2023-07-24T07:56:15Z</time>
      </trkpt>
      <trkpt lat="44.42107" lon="5.40512">
        <ele>1207.7</ele>
        <time>2023-07-24T07:56:16Z</time>
      </trkpt>
      <trkpt lat="44.42106" lon="5.4051">
        <ele>1207.9</ele>
        <time>2023-07-24T07:56:17Z</time>
      </trkpt>
      <trkpt lat="44.42105" lon="5.40509">
        <ele>1208</ele>
        <time>2023-07-24T07:56:18Z</time>
      </trkpt>
      <trkpt lat="44.42103" lon="5.40506">
        <ele>1208.2</ele>
        <time>2023-07-24T07:56:19Z</time>
      </trkpt>
      <trkpt lat="44.42102" lon="5.40506">
        <ele>1208.3</ele>
        <time>2023-07-24T07:56:20Z</time>
      </trkpt>
      <trkpt lat="44.42101" lon="5.40504">
        <ele>1208.4</ele>
        <time>2023-07-24T07:56:21Z</time>
      </trkpt>
      <trkpt lat="44.421" lon="5.40502">
        <ele>1208.5</ele>
        <time>2023-07-24T07:56:22Z</time>
      </trkpt>
      <trkpt lat="44.42097" lon="5.40499">
        <ele>1208.7</ele>
        <time>2023-07-24T07:56:23Z</time>
      </trkpt>
      <trkpt lat="44.42096" lon="5.40498">
        <ele>1208.8</ele>
        <time>2023-07-24T07:56:24Z</time>
      </trkpt>
      <trkpt lat="44.42094" lon="5.40496">
        <ele>1209</ele>
        <time>2023-07-24T07:56:25Z</time>
      </trkpt>
      <trkpt lat="44.42091" lon="5.40493">
        <ele>1209.3</ele>
        <time>2023-07-24T07:56:26Z</time>
      </trkpt>
      <trkpt lat="44.4209" lon="5.40492">
        <ele>1209.4</ele>
        <time>2023-07-24T07:56:27Z</time>
      </trkpt>
      <trkpt lat="44.42089" lon="5.4049">
        <ele>1209.5</ele>
        <time>2023-07-24T07:56:28Z</time>
      </trkpt>
      <trkpt lat="44.42087" lon="5.40489">
        <ele>1209.6</ele>
        <time>2023-07-24T07:56:29Z</time>
      </trkpt>
      <trkpt lat="44.42085" lon="5.40486">
        <ele>1209.8</ele>
        <time>2023-07-24T07:56:30Z</time>
      </trkpt>
      <trkpt lat="44.42085" lon="5.40485">
        <ele>1209.9</ele>
        <time>2023-07-24T07:56:31Z</time>
      </trkpt>
      <trkpt lat="44.42084" lon="5.40484">
        <ele>1210</ele>
        <time>2023-07-24T07:56:32Z</time>
      </trkpt>
      <trkpt lat="44.42082" lon="5.40482">
        <ele>1210.1</ele>
        <time>2023-07-24T07:56:33Z</time>
      </trkpt>
      <trkpt lat="44.4208" lon="5.40479">
        <ele>1210.4</ele>
        <time>2023-07-24T07:56:34Z</time>
      </trkpt>
      <trkpt lat="44.4208" lon="5.40477">
        <ele>1210.4</ele>
        <time>2023-07-24T07:56:35Z</time>
      </trkpt>
      <trkpt lat="44.42078" lon="5.40473">
        <ele>1210.7</ele>
        <time>2023-07-24T07:56:36Z</time>
      </trkpt>
      <trkpt lat="44.42077" lon="5.40472">
        <ele>1210.8</ele>
        <time>2023-07-24T07:56:37Z</time>
      </trkpt>
      <trkpt lat="44.42075" lon="5.40467">
        <ele>1211.1</ele>
        <time>2023-07-24T07:56:38Z</time>
      </trkpt>
      <trkpt lat="44.42075" lon="5.40465">
        <ele>1211.2</ele>
        <time>2023-07-24T07:56:39Z</time>
      </trkpt>
      <trkpt lat="44.42072" lon="5.40461">
        <ele>1211.4</ele>
        <time>2023-07-24T07:56:40Z</time>
      </trkpt>
      <trkpt lat="44.42072" lon="5.4046">
        <ele>1211.5</ele>
        <time>2023-07-24T07:56:41Z</time>
      </trkpt>
      <trkpt lat="44.42069" lon="5.40455">
        <ele>1211.8</ele>
        <time>2023-07-24T07:56:42Z</time>
      </trkpt>
      <trkpt lat="44.42069" lon="5.40454">
        <ele>1211.9</ele>
        <time>2023-07-24T07:56:43Z</time>
      </trkpt>
      <trkpt lat="44.42067" lon="5.40451">
        <ele>1212.1</ele>
        <time>2023-07-24T07:56:44Z</time>
      </trkpt>
      <trkpt lat="44.42065" lon="5.40447">
        <ele>1212.3</ele>
        <time>2023-07-24T07:56:45Z</time>
      </trkpt>
      <trkpt lat="44.42063" lon="5.40444">
        <ele>1212.6</ele>
        <time>2023-07-24T07:56:46Z</time>
      </trkpt>
      <trkpt lat="44.42061" lon="5.4044">
        <ele>1212.8</ele>
        <time>2023-07-24T07:56:47Z</time>
      </trkpt>
      <trkpt lat="44.42059" lon="5.40437">
        <ele>1213</ele>
        <time>2023-07-24T07:56:48Z</time>
      </trkpt>
      <trkpt lat="44.42057" lon="5.40433">
        <ele>1213.3</ele>
        <time>2023-07-24T07:56:49Z</time>
      </trkpt>
      <trkpt lat="44.42057" lon="5.40432">
        <ele>1213.3</ele>
        <time>2023-07-24T07:56:50Z</time>
      </trkpt>
      <trkpt lat="44.42054" lon="5.40428">
        <ele>1213.6</ele>
        <time>2023-07-24T07:56:51Z</time>
      </trkpt>
      <trkpt lat="44.42053" lon="5.40427">
        <ele>1213.7</ele>
        <time>2023-07-24T07:56:52Z</time>
      </trkpt>
      <trkpt lat="44.42051" lon="5.40423">
        <ele>1213.9</ele>
        <time>2023-07-24T07:56:53Z</time>
      </trkpt>
      <trkpt lat="44.42051" lon="5.40421">
        <ele>1214</ele>
        <time>2023-07-24T07:56:54Z</time>
      </trkpt>
      <trkpt lat="44.42049" lon="5.40417">
        <ele>1214.2</ele>
        <time>2023-07-24T07:56:55Z</time>
      </trkpt>
      <trkpt lat="44.42047" lon="5.40414">
        <ele>1214.5</ele>
        <time>2023-07-24T07:56:56Z</time>
      </trkpt>
      <trkpt lat="44.42045" lon="5.40411">
        <ele>1214.7</ele>
        <time>2023-07-24T07:56:57Z</time>
      </trkpt>
      <trkpt lat="44.42044" lon="5.40408">
        <ele>1214.9</ele>
        <time>2023-07-24T07:56:58Z</time>
      </trkpt>
      <trkpt lat="44.42041" lon="5.40404">
        <ele>1215.1</ele>
        <time>2023-07-24T07:56:59Z</time>
      </trkpt>
      <trkpt lat="44.4204" lon="5.40403">
        <ele>1215.2</ele>
        <time>2023-07-24T07:57:00Z</time>
      </trkpt>
      <trkpt lat="44.42037" lon="5.404">
        <ele>1215.5</ele>
        <time>2023-07-24T07:57:01Z</time>
      </trkpt>
      <trkpt lat="44.42036" lon="5.40398">
        <ele>1215.6</ele>
        <time>2023-07-24T07:57:02Z</time>
      </trkpt>
      <trkpt lat="44.42034" lon="5.40395">
        <ele>1215.9</ele>
        <time>2023-07-24T07:57:03Z</time>
      </trkpt>
      <trkpt lat="44.42033" lon="5.40393">
        <ele>1216</ele>
        <time>2023-07-24T07:57:04Z</time>
      </trkpt>
      <trkpt lat="44.4203" lon="5.4039">
        <ele>1216.2</ele>
        <time>2023-07-24T07:57:05Z</time>
      </trkpt>
      <trkpt lat="44.42029" lon="5.40389">
        <ele>1216.3</ele>
        <time>2023-07-24T07:57:06Z</time>
      </trkpt>
      <trkpt lat="44.42027" lon="5.40386">
        <ele>1216.6</ele>
        <time>2023-07-24T07:57:07Z</time>
      </trkpt>
      <trkpt lat="44.42026" lon="5.40384">
        <ele>1216.6</ele>
        <time>2023-07-24T07:57:08Z</time>
      </trkpt>
      <trkpt lat="44.42024" lon="5.40381">
        <ele>1216.9</ele>
        <time>2023-07-24T07:57:09Z</time>
      </trkpt>
      <trkpt lat="44.42023" lon="5.40379">
        <ele>1217</ele>
        <time>2023-07-24T07:57:10Z</time>
      </trkpt>
      <trkpt lat="44.42022" lon="5.40376">
        <ele>1217.2</ele>
        <time>2023-07-24T07:57:11Z</time>
      </trkpt>
      <trkpt lat="44.42019" lon="5.40372">
        <ele>1217.4</ele>
        <time>2023-07-24T07:57:12Z</time>
      </trkpt>
      <trkpt lat="44.42017" lon="5.40369">
        <ele>1217.7</ele>
        <time>2023-07-24T07:57:13Z</time>
      </trkpt>
      <trkpt lat="44.42016" lon="5.40365">
        <ele>1217.9</ele>
        <time>2023-07-24T07:57:14Z</time>
      </trkpt>
      <trkpt lat="44.42014" lon="5.40361">
        <ele>1218.1</ele>
        <time>2023-07-24T07:57:15Z</time>
      </trkpt>
      <trkpt lat="44.42012" lon="5.40358">
        <ele>1218.3</ele>
        <time>2023-07-24T07:57:16Z</time>
      </trkpt>
      <trkpt lat="44.4201" lon="5.40354">
        <ele>1218.6</ele>
        <time>2023-07-24T07:57:17Z</time>
      </trkpt>
      <trkpt lat="44.42009" lon="5.4035">
        <ele>1218.8</ele>
        <time>2023-07-24T07:57:18Z</time>
      </trkpt>
      <trkpt lat="44.42008" lon="5.40346">
        <ele>1219</ele>
        <time>2023-07-24T07:57:19Z</time>
      </trkpt>
      <trkpt lat="44.42006" lon="5.40343">
        <ele>1219.2</ele>
        <time>2023-07-24T07:57:20Z</time>
      </trkpt>
      <trkpt lat="44.42004" lon="5.40339">
        <ele>1219.5</ele>
        <time>2023-07-24T07:57:21Z</time>
      </trkpt>
      <trkpt lat="44.42004" lon="5.40337">
        <ele>1219.6</ele>
        <time>2023-07-24T07:57:22Z</time>
      </trkpt>
      <trkpt lat="44.42002" lon="5.40332">
        <ele>1219.9</ele>
        <time>2023-07-24T07:57:23Z</time>
      </trkpt>
      <trkpt lat="44.42001" lon="5.40331">
        <ele>1220</ele>
        <time>2023-07-24T07:57:24Z</time>
      </trkpt>
      <trkpt lat="44.42" lon="5.40327">
        <ele>1220.2</ele>
        <time>2023-07-24T07:57:25Z</time>
      </trkpt>
      <trkpt lat="44.41999" lon="5.40323">
        <ele>1220.4</ele>
        <time>2023-07-24T07:57:26Z</time>
      </trkpt>
      <trkpt lat="44.41997" lon="5.40318">
        <ele>1220.7</ele>
        <time>2023-07-24T07:57:27Z</time>
      </trkpt>
      <trkpt lat="44.41995" lon="5.40314">
        <ele>1220.9</ele>
        <time>2023-07-24T07:57:28Z</time>
      </trkpt>
      <trkpt lat="44.41993" lon="5.4031">
        <ele>1221.2</ele>
        <time>2023-07-24T07:57:29Z</time>
      </trkpt>
      <trkpt lat="44.41993" lon="5.40305">
        <ele>1221.4</ele>
        <time>2023-07-24T07:57:30Z</time>
      </trkpt>
      <trkpt lat="44.41993" lon="5.40301">
        <ele>1221.6</ele>
        <time>2023-07-24T07:57:31Z</time>
      </trkpt>
      <trkpt lat="44.41993" lon="5.40296">
        <ele>1221.9</ele>
        <time>2023-07-24T07:57:32Z</time>
      </trkpt>
      <trkpt lat="44.41992" lon="5.40295">
        <ele>1222</ele>
        <time>2023-07-24T07:57:33Z</time>
      </trkpt>
      <trkpt lat="44.41991" lon="5.40291">
        <ele>1222.2</ele>
        <time>2023-07-24T07:57:34Z</time>
      </trkpt>
      <trkpt lat="44.4199" lon="5.40286">
        <ele>1222.4</ele>
        <time>2023-07-24T07:57:35Z</time>
      </trkpt>
      <trkpt lat="44.41989" lon="5.40284">
        <ele>1222.5</ele>
        <time>2023-07-24T07:57:36Z</time>
      </trkpt>
      <trkpt lat="44.41988" lon="5.40279">
        <ele>1222.8</ele>
        <time>2023-07-24T07:57:37Z</time>
      </trkpt>
      <trkpt lat="44.41987" lon="5.40278">
        <ele>1222.9</ele>
        <time>2023-07-24T07:57:38Z</time>
      </trkpt>
      <trkpt lat="44.41986" lon="5.40274">
        <ele>1223.1</ele>
        <time>2023-07-24T07:57:39Z</time>
      </trkpt>
      <trkpt lat="44.41985" lon="5.40273">
        <ele>1223.2</ele>
        <time>2023-07-24T07:57:40Z</time>
      </trkpt>
      <trkpt lat="44.41984" lon="5.40267">
        <ele>1223.5</ele>
        <time>2023-07-24T07:57:41Z</time>
      </trkpt>
      <trkpt lat="44.41984" lon="5.40266">
        <ele>1223.6</ele>
        <time>2023-07-24T07:57:42Z</time>
      </trkpt>
      <trkpt lat="44.41982" lon="5.40261">
        <ele>1223.8</ele>
        <time>2023-07-24T07:57:43Z</time>
      </trkpt>
      <trkpt lat="44.41981" lon="5.4026">
        <ele>1223.9</ele>
        <time>2023-07-24T07:57:44Z</time>
      </trkpt>
      <trkpt lat="44.41979" lon="5.40256">
        <ele>1224.2</ele>
        <time>2023-07-24T07:57:45Z</time>
      </trkpt>
      <trkpt lat="44.41979" lon="5.40255">
        <ele>1224.2</ele>
        <time>2023-07-24T07:57:46Z</time>
      </trkpt>
      <trkpt lat="44.41978" lon="5.4025">
        <ele>1224.5</ele>
        <time>2023-07-24T07:57:47Z</time>
      </trkpt>
      <trkpt lat="44.41977" lon="5.40249">
        <ele>1224.6</ele>
        <time>2023-07-24T07:57:48Z</time>
      </trkpt>
      <trkpt lat="44.41976" lon="5.40245">
        <ele>1224.8</ele>
        <time>2023-07-24T07:57:49Z</time>
      </trkpt>
      <trkpt lat="44.41975" lon="5.40243">
        <ele>1224.9</ele>
        <time>2023-07-24T07:57:50Z</time>
      </trkpt>
      <trkpt lat="44.41973" lon="5.40241">
        <ele>1225.1</ele>
        <time>2023-07-24T07:57:51Z</time>
      </trkpt>
      <trkpt lat="44.4197" lon="5.40237">
        <ele>1225.3</ele>
        <time>2023-07-24T07:57:52Z</time>
      </trkpt>
      <trkpt lat="44.4197" lon="5.40236">
        <ele>1225.4</ele>
        <time>2023-07-24T07:57:53Z</time>
      </trkpt>
      <trkpt lat="44.41968" lon="5.40232">
        <ele>1225.7</ele>
        <time>2023-07-24T07:57:54Z</time>
      </trkpt>
      <trkpt lat="44.41967" lon="5.4023">
        <ele>1225.8</ele>
        <time>2023-07-24T07:57:55Z</time>
      </trkpt>
      <trkpt lat="44.41965" lon="5.40226">
        <ele>1226.1</ele>
        <time>2023-07-24T07:57:56Z</time>
      </trkpt>
      <trkpt lat="44.41964" lon="5.40225">
        <ele>1226.1</ele>
        <time>2023-07-24T07:57:57Z</time>
      </trkpt>
      <trkpt lat="44.41962" lon="5.40222">
        <ele>1226.3</ele>
        <time>2023-07-24T07:57:58Z</time>
      </trkpt>
      <trkpt lat="44.41962" lon="5.4022">
        <ele>1226.4</ele>
        <time>2023-07-24T07:57:59Z</time>
      </trkpt>
      <trkpt lat="44.4196" lon="5.40217">
        <ele>1226.6</ele>
        <time>2023-07-24T07:58:00Z</time>
      </trkpt>
      <trkpt lat="44.4196" lon="5.40216">
        <ele>1226.7</ele>
        <time>2023-07-24T07:58:01Z</time>
      </trkpt>
      <trkpt lat="44.41957" lon="5.40212">
        <ele>1226.9</ele>
        <time>2023-07-24T07:58:02Z</time>
      </trkpt>
      <trkpt lat="44.41956" lon="5.40211">
        <ele>1227</ele>
        <time>2023-07-24T07:58:03Z</time>
      </trkpt>
      <trkpt lat="44.41955" lon="5.40208">
        <ele>1227.3</ele>
        <time>2023-07-24T07:58:04Z</time>
      </trkpt>
      <trkpt lat="44.41954" lon="5.40206">
        <ele>1227.3</ele>
        <time>2023-07-24T07:58:05Z</time>
      </trkpt>
      <trkpt lat="44.41953" lon="5.40205">
        <ele>1227.4</ele>
        <time>2023-07-24T07:58:06Z</time>
      </trkpt>
      <trkpt lat="44.41952" lon="5.40203">
        <ele>1227.5</ele>
        <time>2023-07-24T07:58:07Z</time>
      </trkpt>
      <trkpt lat="44.41951" lon="5.40202">
        <ele>1227.7</ele>
        <time>2023-07-24T07:58:08Z</time>
      </trkpt>
      <trkpt lat="44.4195" lon="5.402">
        <ele>1227.8</ele>
        <time>2023-07-24T07:58:09Z</time>
      </trkpt>
      <trkpt lat="44.41949" lon="5.40198">
        <ele>1227.9</ele>
        <time>2023-07-24T07:58:10Z</time>
      </trkpt>
      <trkpt lat="44.41948" lon="5.40197">
        <ele>1228</ele>
        <time>2023-07-24T07:58:11Z</time>
      </trkpt>
      <trkpt lat="44.41947" lon="5.40196">
        <ele>1228.1</ele>
        <time>2023-07-24T07:58:12Z</time>
      </trkpt>
      <trkpt lat="44.41946" lon="5.40196">
        <ele>1228.2</ele>
        <time>2023-07-24T07:58:13Z</time>
      </trkpt>
      <trkpt lat="44.41945" lon="5.40196">
        <ele>1228.2</ele>
        <time>2023-07-24T07:58:14Z</time>
      </trkpt>
      <trkpt lat="44.41944" lon="5.40196">
        <ele>1228.3</ele>
        <time>2023-07-24T07:58:15Z</time>
      </trkpt>
      <trkpt lat="44.41944" lon="5.40196">
        <ele>1228.3</ele>
        <time>2023-07-24T07:58:16Z</time>
      </trkpt>
      <trkpt lat="44.41944" lon="5.40195">
        <ele>1228.3</ele>
        <time>2023-07-24T07:58:17Z</time>
      </trkpt>
      <trkpt lat="44.41944" lon="5.40195">
        <ele>1228.3</ele>
        <time>2023-07-24T07:58:18Z</time>
      </trkpt>
      <trkpt lat="44.41944" lon="5.40195">
        <ele>1228.3</ele>
        <time>2023-07-24T07:58:19Z</time>
      </trkpt>
      <trkpt lat="44.41943" lon="5.40194">
        <ele>1228.4</ele>
        <time>2023-07-24T07:58:20Z</time>
      </trkpt>
      <trkpt lat="44.41943" lon="5.40194">
        <ele>1228.4</ele>
        <time>2023-07-24T07:58:21Z</time>
      </trkpt>
      <trkpt lat="44.41942" lon="5.40194">
        <ele>1228.4</ele>
        <time>2023-07-24T07:58:22Z</time>
      </trkpt>
      <trkpt lat="44.41942" lon="5.40194">
        <ele>1228.5</ele>
        <time>2023-07-24T07:58:23Z</time>
      </trkpt>
      <trkpt lat="44.41941" lon="5.40194">
        <ele>1228.5</ele>
        <time>2023-07-24T07:58:24Z</time>
      </trkpt>
      <trkpt lat="44.4194" lon="5.40194">
        <ele>1228.6</ele>
        <time>2023-07-24T07:58:25Z</time>
      </trkpt>
      <trkpt lat="44.41939" lon="5.40194">
        <ele>1228.7</ele>
        <time>2023-07-24T07:58:26Z</time>
      </trkpt>
      <trkpt lat="44.41939" lon="5.40193">
        <ele>1228.7</ele>
        <time>2023-07-24T07:58:27Z</time>
      </trkpt>
      <trkpt lat="44.41938" lon="5.40193">
        <ele>1228.8</ele>
        <time>2023-07-24T07:58:28Z</time>
      </trkpt>
      <trkpt lat="44.41939" lon="5.40192">
        <ele>1228.8</ele>
        <time>2023-07-24T07:58:29Z</time>
      </trkpt>
      <trkpt lat="44.41939" lon="5.40192">
        <ele>1228.8</ele>
        <time>2023-07-24T07:58:30Z</time>
      </trkpt>
      <trkpt lat="44.41939" lon="5.40191">
        <ele>1228.8</ele>
        <time>2023-07-24T07:58:31Z</time>
      </trkpt>
      <trkpt lat="44.41939" lon="5.4019">
        <ele>1228.9</ele>
        <time>2023-07-24T07:58:32Z</time>
      </trkpt>
      <trkpt lat="44.41938" lon="5.40189">
        <ele>1229</ele>
        <time>2023-07-24T07:58:33Z</time>
      </trkpt>
      <trkpt lat="44.41937" lon="5.40188">
        <ele>1229.1</ele>
        <time>2023-07-24T07:58:34Z</time>
      </trkpt>
      <trkpt lat="44.41936" lon="5.40188">
        <ele>1229.1</ele>
        <time>2023-07-24T07:58:35Z</time>
      </trkpt>
      <trkpt lat="44.41936" lon="5.40188">
        <ele>1229.2</ele>
        <time>2023-07-24T07:58:36Z</time>
      </trkpt>
      <trkpt lat="44.41935" lon="5.40187">
        <ele>1229.2</ele>
        <time>2023-07-24T07:58:37Z</time>
      </trkpt>
      <trkpt lat="44.41934" lon="5.40186">
        <ele>1229.3</ele>
        <time>2023-07-24T07:58:38Z</time>
      </trkpt>
      <trkpt lat="44.41933" lon="5.40185">
        <ele>1229.4</ele>
        <time>2023-07-24T07:58:39Z</time>
      </trkpt>
      <trkpt lat="44.41933" lon="5.40184">
        <ele>1229.4</ele>
        <time>2023-07-24T07:58:40Z</time>
      </trkpt>
      <trkpt lat="44.41933" lon="5.40184">
        <ele>1229.5</ele>
        <time>2023-07-24T07:58:41Z</time>
      </trkpt>
      <trkpt lat="44.41932" lon="5.40184">
        <ele>1229.5</ele>
        <time>2023-07-24T07:58:42Z</time>
      </trkpt>
      <trkpt lat="44.41932" lon="5.40183">
        <ele>1229.5</ele>
        <time>2023-07-24T07:58:43Z</time>
      </trkpt>
      <trkpt lat="44.41932" lon="5.40183">
        <ele>1229.5</ele>
        <time>2023-07-24T07:58:44Z</time>
      </trkpt>
      <trkpt lat="44.41932" lon="5.40182">
        <ele>1229.6</ele>
        <time>2023-07-24T07:58:45Z</time>
      </trkpt>
      <trkpt lat="44.41932" lon="5.40182">
        <ele>1229.6</ele>
        <time>2023-07-24T07:58:46Z</time>
      </trkpt>
      <trkpt lat="44.41931" lon="5.40182">
        <ele>1229.7</ele>
        <time>2023-07-24T07:58:47Z</time>
      </trkpt>
      <trkpt lat="44.4193" lon="5.40181">
        <ele>1229.7</ele>
        <time>2023-07-24T07:58:48Z</time>
      </trkpt>
      <trkpt lat="44.4193" lon="5.40181">
        <ele>1229.8</ele>
        <time>2023-07-24T07:58:49Z</time>
      </trkpt>
      <trkpt lat="44.41929" lon="5.40181">
        <ele>1229.8</ele>
        <time>2023-07-24T07:58:50Z</time>
      </trkpt>
      <trkpt lat="44.41928" lon="5.40181">
        <ele>1229.9</ele>
        <time>2023-07-24T07:58:51Z</time>
      </trkpt>
      <trkpt lat="44.41928" lon="5.40181">
        <ele>1229.9</ele>
        <time>2023-07-24T07:58:52Z</time>
      </trkpt>
      <trkpt lat="44.41928" lon="5.40181">
        <ele>1229.9</ele>
        <time>2023-07-24T07:58:53Z</time>
      </trkpt>
      <trkpt lat="44.41926" lon="5.40179">
        <ele>1230</ele>
        <time>2023-07-24T07:59:01Z</time>
      </trkpt>
      <trkpt lat="44.41925" lon="5.40179">
        <ele>1230.1</ele>
        <time>2023-07-24T07:59:02Z</time>
      </trkpt>
      <trkpt lat="44.41925" lon="5.40178">
        <ele>1230.1</ele>
        <time>2023-07-24T07:59:03Z</time>
      </trkpt>
      <trkpt lat="44.41925" lon="5.40178">
        <ele>1230.2</ele>
        <time>2023-07-24T07:59:04Z</time>
      </trkpt>
      <trkpt lat="44.41925" lon="5.40178">
        <ele>1230.2</ele>
        <time>2023-07-24T07:59:05Z</time>
      </trkpt>
      <trkpt lat="44.41925" lon="5.40177">
        <ele>1230.2</ele>
        <time>2023-07-24T07:59:06Z</time>
      </trkpt>
      <trkpt lat="44.41925" lon="5.40177">
        <ele>1230.2</ele>
        <time>2023-07-24T07:59:07Z</time>
      </trkpt>
      <trkpt lat="44.41925" lon="5.40177">
        <ele>1230.2</ele>
        <time>2023-07-24T07:59:08Z</time>
      </trkpt>
      <trkpt lat="44.41925" lon="5.40177">
        <ele>1230.2</ele>
        <time>2023-07-24T07:59:09Z</time>
      </trkpt>
      <trkpt lat="44.41925" lon="5.40177">
        <ele>1230.2</ele>
        <time>2023-07-24T07:59:10Z</time>
      </trkpt>
      <trkpt lat="44.41925" lon="5.40177">
        <ele>1230.2</ele>
        <time>2023-07-24T07:59:11Z</time>
      </trkpt>
      <trkpt lat="44.41925" lon="5.40177">
        <ele>1230.2</ele>
        <time>2023-07-24T07:59:12Z</time>
      </trkpt>
      <trkpt lat="44.41925" lon="5.40177">
        <ele>1230.2</ele>
        <time>2023-07-24T07:59:13Z</time>
      </trkpt>
      <trkpt lat="44.41925" lon="5.40177">
        <ele>1230.2</ele>
        <time>2023-07-24T07:59:14Z</time>
      </trkpt>
      <trkpt lat="44.41925" lon="5.40177">
        <ele>1230.2</ele>
        <time>2023-07-24T07:59:15Z</time>
      </trkpt>
      <trkpt lat="44.41924" lon="5.40176">
        <ele>1230.3</ele>
        <time>2023-07-24T07:59:42Z</time>
      </trkpt>
      <trkpt lat="44.41924" lon="5.40175">
        <ele>1230.4</ele>
        <time>2023-07-24T07:59:43Z</time>
      </trkpt>
      <trkpt lat="44.41923" lon="5.40173">
        <ele>1230.5</ele>
        <time>2023-07-24T07:59:44Z</time>
      </trkpt>
      <trkpt lat="44.41923" lon="5.40172">
        <ele>1230.6</ele>
        <time>2023-07-24T07:59:45Z</time>
      </trkpt>
      <trkpt lat="44.41922" lon="5.40171">
        <ele>1230.6</ele>
        <time>2023-07-24T07:59:46Z</time>
      </trkpt>
      <trkpt lat="44.41922" lon="5.40171">
        <ele>1230.6</ele>
        <time>2023-07-24T07:59:47Z</time>
      </trkpt>
      <trkpt lat="44.41922" lon="5.40171">
        <ele>1230.6</ele>
        <time>2023-07-24T07:59:48Z</time>
      </trkpt>
      <trkpt lat="44.41921" lon="5.40171">
        <ele>1230.7</ele>
        <time>2023-07-24T07:59:49Z</time>
      </trkpt>
      <trkpt lat="44.41921" lon="5.40172">
        <ele>1230.7</ele>
        <time>2023-07-24T07:59:50Z</time>
      </trkpt>
      <trkpt lat="44.41921" lon="5.40171">
        <ele>1230.8</ele>
        <time>2023-07-24T07:59:51Z</time>
      </trkpt>
      <trkpt lat="44.4192" lon="5.40171">
        <ele>1230.8</ele>
        <time>2023-07-24T07:59:52Z</time>
      </trkpt>
      <trkpt lat="44.4192" lon="5.40171">
        <ele>1230.8</ele>
        <time>2023-07-24T07:59:53Z</time>
      </trkpt>
      <trkpt lat="44.4192" lon="5.40171">
        <ele>1230.8</ele>
        <time>2023-07-24T07:59:54Z</time>
      </trkpt>
      <trkpt lat="44.4192" lon="5.40171">
        <ele>1230.8</ele>
        <time>2023-07-24T07:59:55Z</time>
      </trkpt>
      <trkpt lat="44.4192" lon="5.40171">
        <ele>1230.8</ele>
        <time>2023-07-24T07:59:56Z</time>
      </trkpt>
      <trkpt lat="44.4192" lon="5.40171">
        <ele>1230.8</ele>
        <time>2023-07-24T07:59:57Z</time>
      </trkpt>
      <trkpt lat="44.4192" lon="5.40171">
        <ele>1230.8</ele>
        <time>2023-07-24T07:59:58Z</time>
      </trkpt>
      <trkpt lat="44.4192" lon="5.40171">
        <ele>1230.8</ele>
        <time>2023-07-24T07:59:59Z</time>
      </trkpt>
      <trkpt lat="44.41919" lon="5.40167">
        <ele>1231.1</ele>
        <time>2023-07-24T08:00:10Z</time>
      </trkpt>
      <trkpt lat="44.4192" lon="5.40165">
        <ele>1231.1</ele>
        <time>2023-07-24T08:00:11Z</time>
      </trkpt>
      <trkpt lat="44.4192" lon="5.40163">
        <ele>1231.3</ele>
        <time>2023-07-24T08:00:12Z</time>
      </trkpt>
      <trkpt lat="44.4192" lon="5.40161">
        <ele>1231.4</ele>
        <time>2023-07-24T08:00:13Z</time>
      </trkpt>
      <trkpt lat="44.4192" lon="5.40159">
        <ele>1231.5</ele>
        <time>2023-07-24T08:00:14Z</time>
      </trkpt>
      <trkpt lat="44.41919" lon="5.40158">
        <ele>1231.5</ele>
        <time>2023-07-24T08:00:15Z</time>
      </trkpt>
      <trkpt lat="44.41919" lon="5.40158">
        <ele>1231.6</ele>
        <time>2023-07-24T08:00:16Z</time>
      </trkpt>
      <trkpt lat="44.41918" lon="5.40158">
        <ele>1231.6</ele>
        <time>2023-07-24T08:00:17Z</time>
      </trkpt>
      <trkpt lat="44.41918" lon="5.40158">
        <ele>1231.6</ele>
        <time>2023-07-24T08:00:18Z</time>
      </trkpt>
      <trkpt lat="44.41918" lon="5.40157">
        <ele>1231.7</ele>
        <time>2023-07-24T08:00:19Z</time>
      </trkpt>
      <trkpt lat="44.41917" lon="5.40157">
        <ele>1231.7</ele>
        <time>2023-07-24T08:00:20Z</time>
      </trkpt>
      <trkpt lat="44.41917" lon="5.40157">
        <ele>1231.7</ele>
        <time>2023-07-24T08:00:21Z</time>
      </trkpt>
      <trkpt lat="44.41916" lon="5.40157">
        <ele>1231.8</ele>
        <time>2023-07-24T08:00:22Z</time>
      </trkpt>
      <trkpt lat="44.41916" lon="5.40156">
        <ele>1231.8</ele>
        <time>2023-07-24T08:00:23Z</time>
      </trkpt>
      <trkpt lat="44.41916" lon="5.40156">
        <ele>1231.8</ele>
        <time>2023-07-24T08:00:24Z</time>
      </trkpt>
      <trkpt lat="44.41916" lon="5.40156">
        <ele>1231.8</ele>
        <time>2023-07-24T08:00:25Z</time>
      </trkpt>
      <trkpt lat="44.41916" lon="5.40156">
        <ele>1231.8</ele>
        <time>2023-07-24T08:00:26Z</time>
      </trkpt>
      <trkpt lat="44.41912" lon="5.40152">
        <ele>1232.2</ele>
        <time>2023-07-24T08:01:04Z</time>
      </trkpt>
      <trkpt lat="44.41911" lon="5.40151">
        <ele>1232.3</ele>
        <time>2023-07-24T08:01:05Z</time>
      </trkpt>
      <trkpt lat="44.41911" lon="5.40151">
        <ele>1232.3</ele>
        <time>2023-07-24T08:01:06Z</time>
      </trkpt>
      <trkpt lat="44.4191" lon="5.40151">
        <ele>1232.3</ele>
        <time>2023-07-24T08:01:07Z</time>
      </trkpt>
      <trkpt lat="44.4191" lon="5.40151">
        <ele>1232.3</ele>
        <time>2023-07-24T08:01:08Z</time>
      </trkpt>
      <trkpt lat="44.4191" lon="5.40151">
        <ele>1232.3</ele>
        <time>2023-07-24T08:01:09Z</time>
      </trkpt>
      <trkpt lat="44.41909" lon="5.4015">
        <ele>1232.4</ele>
        <time>2023-07-24T08:01:10Z</time>
      </trkpt>
      <trkpt lat="44.41909" lon="5.40149">
        <ele>1232.5</ele>
        <time>2023-07-24T08:01:11Z</time>
      </trkpt>
      <trkpt lat="44.41908" lon="5.40149">
        <ele>1232.5</ele>
        <time>2023-07-24T08:01:12Z</time>
      </trkpt>
      <trkpt lat="44.41908" lon="5.40148">
        <ele>1232.5</ele>
        <time>2023-07-24T08:01:13Z</time>
      </trkpt>
      <trkpt lat="44.41908" lon="5.40148">
        <ele>1232.6</ele>
        <time>2023-07-24T08:01:14Z</time>
      </trkpt>
      <trkpt lat="44.41908" lon="5.40148">
        <ele>1232.6</ele>
        <time>2023-07-24T08:01:15Z</time>
      </trkpt>
      <trkpt lat="44.41907" lon="5.40147">
        <ele>1232.6</ele>
        <time>2023-07-24T08:01:16Z</time>
      </trkpt>
      <trkpt lat="44.41906" lon="5.40147">
        <ele>1232.7</ele>
        <time>2023-07-24T08:01:17Z</time>
      </trkpt>
      <trkpt lat="44.41905" lon="5.40147">
        <ele>1232.7</ele>
        <time>2023-07-24T08:01:18Z</time>
      </trkpt>
      <trkpt lat="44.41905" lon="5.40146">
        <ele>1232.8</ele>
        <time>2023-07-24T08:01:19Z</time>
      </trkpt>
      <trkpt lat="44.41905" lon="5.40146">
        <ele>1232.8</ele>
        <time>2023-07-24T08:01:20Z</time>
      </trkpt>
      <trkpt lat="44.41905" lon="5.40146">
        <ele>1232.8</ele>
        <time>2023-07-24T08:01:21Z</time>
      </trkpt>
      <trkpt lat="44.41905" lon="5.40146">
        <ele>1232.8</ele>
        <time>2023-07-24T08:01:22Z</time>
      </trkpt>
      <trkpt lat="44.41905" lon="5.40146">
        <ele>1232.8</ele>
        <time>2023-07-24T08:01:23Z</time>
      </trkpt>
      <trkpt lat="44.41905" lon="5.40146">
        <ele>1232.8</ele>
        <time>2023-07-24T08:01:24Z</time>
      </trkpt>
      <trkpt lat="44.41905" lon="5.40146">
        <ele>1232.8</ele>
        <time>2023-07-24T08:01:25Z</time>
      </trkpt>
      <trkpt lat="44.41905" lon="5.40146">
        <ele>1232.8</ele>
        <time>2023-07-24T08:01:26Z</time>
      </trkpt>
      <trkpt lat="44.41905" lon="5.40146">
        <ele>1232.8</ele>
        <time>2023-07-24T08:01:27Z</time>
      </trkpt>
      <trkpt lat="44.41905" lon="5.40146">
        <ele>1232.8</ele>
        <time>2023-07-24T08:01:28Z</time>
      </trkpt>
      <trkpt lat="44.41905" lon="5.40146">
        <ele>1232.8</ele>
        <time>2023-07-24T08:01:29Z</time>
      </trkpt>
      <trkpt lat="44.41904" lon="5.40145">
        <ele>1232.9</ele>
        <time>2023-07-24T08:01:34Z</time>
      </trkpt>
      <trkpt lat="44.41903" lon="5.40145">
        <ele>1233</ele>
        <time>2023-07-24T08:01:35Z</time>
      </trkpt>
      <trkpt lat="44.41903" lon="5.40145">
        <ele>1233</ele>
        <time>2023-07-24T08:01:36Z</time>
      </trkpt>
      <trkpt lat="44.41902" lon="5.40145">
        <ele>1233</ele>
        <time>2023-07-24T08:01:37Z</time>
      </trkpt>
      <trkpt lat="44.41902" lon="5.40144">
        <ele>1233</ele>
        <time>2023-07-24T08:01:38Z</time>
      </trkpt>
      <trkpt lat="44.41901" lon="5.40143">
        <ele>1233.1</ele>
        <time>2023-07-24T08:01:39Z</time>
      </trkpt>
      <trkpt lat="44.419" lon="5.40143">
        <ele>1233.2</ele>
        <time>2023-07-24T08:01:40Z</time>
      </trkpt>
      <trkpt lat="44.41899" lon="5.40142">
        <ele>1233.3</ele>
        <time>2023-07-24T08:01:41Z</time>
      </trkpt>
      <trkpt lat="44.41899" lon="5.40142">
        <ele>1233.3</ele>
        <time>2023-07-24T08:01:42Z</time>
      </trkpt>
      <trkpt lat="44.41898" lon="5.40141">
        <ele>1233.4</ele>
        <time>2023-07-24T08:01:43Z</time>
      </trkpt>
      <trkpt lat="44.41897" lon="5.40141">
        <ele>1233.4</ele>
        <time>2023-07-24T08:01:44Z</time>
      </trkpt>
      <trkpt lat="44.41897" lon="5.40141">
        <ele>1233.5</ele>
        <time>2023-07-24T08:01:45Z</time>
      </trkpt>
      <trkpt lat="44.41896" lon="5.40141">
        <ele>1233.5</ele>
        <time>2023-07-24T08:01:46Z</time>
      </trkpt>
      <trkpt lat="44.41896" lon="5.40141">
        <ele>1233.6</ele>
        <time>2023-07-24T08:01:47Z</time>
      </trkpt>
      <trkpt lat="44.41895" lon="5.4014">
        <ele>1233.6</ele>
        <time>2023-07-24T08:01:48Z</time>
      </trkpt>
      <trkpt lat="44.41895" lon="5.4014">
        <ele>1233.6</ele>
        <time>2023-07-24T08:01:49Z</time>
      </trkpt>
      <trkpt lat="44.41895" lon="5.40139">
        <ele>1233.6</ele>
        <time>2023-07-24T08:01:50Z</time>
      </trkpt>
      <trkpt lat="44.41894" lon="5.40139">
        <ele>1233.7</ele>
        <time>2023-07-24T08:01:51Z</time>
      </trkpt>
      <trkpt lat="44.41894" lon="5.40138">
        <ele>1233.7</ele>
        <time>2023-07-24T08:01:52Z</time>
      </trkpt>
      <trkpt lat="44.41894" lon="5.40138">
        <ele>1233.7</ele>
        <time>2023-07-24T08:01:53Z</time>
      </trkpt>
      <trkpt lat="44.41894" lon="5.40138">
        <ele>1233.8</ele>
        <time>2023-07-24T08:01:54Z</time>
      </trkpt>
      <trkpt lat="44.41894" lon="5.40138">
        <ele>1233.8</ele>
        <time>2023-07-24T08:01:55Z</time>
      </trkpt>
      <trkpt lat="44.41893" lon="5.40137">
        <ele>1233.8</ele>
        <time>2023-07-24T08:01:56Z</time>
      </trkpt>
      <trkpt lat="44.41893" lon="5.40137">
        <ele>1233.8</ele>
        <time>2023-07-24T08:01:57Z</time>
      </trkpt>
      <trkpt lat="44.41893" lon="5.40136">
        <ele>1233.9</ele>
        <time>2023-07-24T08:01:58Z</time>
      </trkpt>
      <trkpt lat="44.41893" lon="5.40135">
        <ele>1233.9</ele>
        <time>2023-07-24T08:01:59Z</time>
      </trkpt>
      <trkpt lat="44.41892" lon="5.40135">
        <ele>1234</ele>
        <time>2023-07-24T08:02:00Z</time>
      </trkpt>
      <trkpt lat="44.41892" lon="5.40134">
        <ele>1234</ele>
        <time>2023-07-24T08:02:01Z</time>
      </trkpt>
      <trkpt lat="44.41892" lon="5.40133">
        <ele>1234.1</ele>
        <time>2023-07-24T08:02:02Z</time>
      </trkpt>
      <trkpt lat="44.41892" lon="5.40132">
        <ele>1234.1</ele>
        <time>2023-07-24T08:02:03Z</time>
      </trkpt>
      <trkpt lat="44.41892" lon="5.40132">
        <ele>1234.1</ele>
        <time>2023-07-24T08:02:04Z</time>
      </trkpt>
      <trkpt lat="44.4189" lon="5.40131">
        <ele>1234.3</ele>
        <time>2023-07-24T08:02:14Z</time>
      </trkpt>
      <trkpt lat="44.41889" lon="5.40131">
        <ele>1234.3</ele>
        <time>2023-07-24T08:02:15Z</time>
      </trkpt>
      <trkpt lat="44.41889" lon="5.4013">
        <ele>1234.3</ele>
        <time>2023-07-24T08:02:16Z</time>
      </trkpt>
      <trkpt lat="44.41889" lon="5.40129">
        <ele>1234.4</ele>
        <time>2023-07-24T08:02:17Z</time>
      </trkpt>
      <trkpt lat="44.41889" lon="5.40129">
        <ele>1234.4</ele>
        <time>2023-07-24T08:02:18Z</time>
      </trkpt>
      <trkpt lat="44.41888" lon="5.40128">
        <ele>1234.4</ele>
        <time>2023-07-24T08:02:19Z</time>
      </trkpt>
      <trkpt lat="44.41888" lon="5.40128">
        <ele>1234.5</ele>
        <time>2023-07-24T08:02:20Z</time>
      </trkpt>
      <trkpt lat="44.41888" lon="5.40127">
        <ele>1234.5</ele>
        <time>2023-07-24T08:02:21Z</time>
      </trkpt>
      <trkpt lat="44.41887" lon="5.40126">
        <ele>1234.6</ele>
        <time>2023-07-24T08:02:22Z</time>
      </trkpt>
      <trkpt lat="44.41887" lon="5.40125">
        <ele>1234.6</ele>
        <time>2023-07-24T08:02:23Z</time>
      </trkpt>
      <trkpt lat="44.41886" lon="5.40124">
        <ele>1234.7</ele>
        <time>2023-07-24T08:02:24Z</time>
      </trkpt>
      <trkpt lat="44.41886" lon="5.40124">
        <ele>1234.7</ele>
        <time>2023-07-24T08:02:25Z</time>
      </trkpt>
      <trkpt lat="44.41886" lon="5.40123">
        <ele>1234.7</ele>
        <time>2023-07-24T08:02:26Z</time>
      </trkpt>
      <trkpt lat="44.41886" lon="5.40123">
        <ele>1234.8</ele>
        <time>2023-07-24T08:02:27Z</time>
      </trkpt>
      <trkpt lat="44.41886" lon="5.40122">
        <ele>1234.8</ele>
        <time>2023-07-24T08:02:28Z</time>
      </trkpt>
      <trkpt lat="44.41886" lon="5.40121">
        <ele>1234.9</ele>
        <time>2023-07-24T08:02:29Z</time>
      </trkpt>
      <trkpt lat="44.41885" lon="5.4012">
        <ele>1234.9</ele>
        <time>2023-07-24T08:02:30Z</time>
      </trkpt>
      <trkpt lat="44.41885" lon="5.4012">
        <ele>1234.9</ele>
        <time>2023-07-24T08:02:31Z</time>
      </trkpt>
      <trkpt lat="44.41885" lon="5.4012">
        <ele>1235</ele>
        <time>2023-07-24T08:02:32Z</time>
      </trkpt>
      <trkpt lat="44.41885" lon="5.4012">
        <ele>1235</ele>
        <time>2023-07-24T08:02:33Z</time>
      </trkpt>
      <trkpt lat="44.41885" lon="5.4012">
        <ele>1235</ele>
        <time>2023-07-24T08:02:34Z</time>
      </trkpt>
      <trkpt lat="44.41884" lon="5.4012">
        <ele>1235</ele>
        <time>2023-07-24T08:02:35Z</time>
      </trkpt>
      <trkpt lat="44.41884" lon="5.40119">
        <ele>1235.1</ele>
        <time>2023-07-24T08:02:36Z</time>
      </trkpt>
      <trkpt lat="44.41883" lon="5.40118">
        <ele>1235.1</ele>
        <time>2023-07-24T08:02:37Z</time>
      </trkpt>
      <trkpt lat="44.41883" lon="5.40118">
        <ele>1235.1</ele>
        <time>2023-07-24T08:02:38Z</time>
      </trkpt>
      <trkpt lat="44.41882" lon="5.40117">
        <ele>1235.2</ele>
        <time>2023-07-24T08:02:39Z</time>
      </trkpt>
      <trkpt lat="44.41882" lon="5.40117">
        <ele>1235.2</ele>
        <time>2023-07-24T08:02:40Z</time>
      </trkpt>
      <trkpt lat="44.41882" lon="5.40117">
        <ele>1235.2</ele>
        <time>2023-07-24T08:02:41Z</time>
      </trkpt>
      <trkpt lat="44.41881" lon="5.40117">
        <ele>1235.3</ele>
        <time>2023-07-24T08:02:42Z</time>
      </trkpt>
      <trkpt lat="44.41881" lon="5.40117">
        <ele>1235.3</ele>
        <time>2023-07-24T08:02:43Z</time>
      </trkpt>
      <trkpt lat="44.41881" lon="5.40116">
        <ele>1235.3</ele>
        <time>2023-07-24T08:02:44Z</time>
      </trkpt>
      <trkpt lat="44.41881" lon="5.40115">
        <ele>1235.4</ele>
        <time>2023-07-24T08:02:45Z</time>
      </trkpt>
      <trkpt lat="44.41881" lon="5.40113">
        <ele>1235.5</ele>
        <time>2023-07-24T08:02:46Z</time>
      </trkpt>
      <trkpt lat="44.41881" lon="5.40112">
        <ele>1235.6</ele>
        <time>2023-07-24T08:02:47Z</time>
      </trkpt>
      <trkpt lat="44.4188" lon="5.4011">
        <ele>1235.6</ele>
        <time>2023-07-24T08:02:48Z</time>
      </trkpt>
      <trkpt lat="44.4188" lon="5.4011">
        <ele>1235.6</ele>
        <time>2023-07-24T08:02:49Z</time>
      </trkpt>
      <trkpt lat="44.4188" lon="5.4011">
        <ele>1235.7</ele>
        <time>2023-07-24T08:02:50Z</time>
      </trkpt>
      <trkpt lat="44.41879" lon="5.40109">
        <ele>1235.7</ele>
        <time>2023-07-24T08:02:51Z</time>
      </trkpt>
      <trkpt lat="44.41878" lon="5.40108">
        <ele>1235.8</ele>
        <time>2023-07-24T08:02:52Z</time>
      </trkpt>
      <trkpt lat="44.41877" lon="5.40107">
        <ele>1235.9</ele>
        <time>2023-07-24T08:02:53Z</time>
      </trkpt>
      <trkpt lat="44.41876" lon="5.40106">
        <ele>1236</ele>
        <time>2023-07-24T08:02:54Z</time>
      </trkpt>
      <trkpt lat="44.41875" lon="5.40104">
        <ele>1236.1</ele>
        <time>2023-07-24T08:02:55Z</time>
      </trkpt>
      <trkpt lat="44.41875" lon="5.40103">
        <ele>1236.2</ele>
        <time>2023-07-24T08:02:56Z</time>
      </trkpt>
      <trkpt lat="44.41875" lon="5.40102">
        <ele>1236.3</ele>
        <time>2023-07-24T08:02:57Z</time>
      </trkpt>
      <trkpt lat="44.41874" lon="5.40101">
        <ele>1236.3</ele>
        <time>2023-07-24T08:02:58Z</time>
      </trkpt>
      <trkpt lat="44.41873" lon="5.401">
        <ele>1236.4</ele>
        <time>2023-07-24T08:02:59Z</time>
      </trkpt>
      <trkpt lat="44.41873" lon="5.401">
        <ele>1236.4</ele>
        <time>2023-07-24T08:03:00Z</time>
      </trkpt>
      <trkpt lat="44.41873" lon="5.40099">
        <ele>1236.5</ele>
        <time>2023-07-24T08:03:01Z</time>
      </trkpt>
      <trkpt lat="44.41873" lon="5.40098">
        <ele>1236.5</ele>
        <time>2023-07-24T08:03:02Z</time>
      </trkpt>
      <trkpt lat="44.41872" lon="5.40098">
        <ele>1236.5</ele>
        <time>2023-07-24T08:03:03Z</time>
      </trkpt>
      <trkpt lat="44.41872" lon="5.40097">
        <ele>1236.6</ele>
        <time>2023-07-24T08:03:04Z</time>
      </trkpt>
      <trkpt lat="44.41872" lon="5.40097">
        <ele>1236.6</ele>
        <time>2023-07-24T08:03:05Z</time>
      </trkpt>
      <trkpt lat="44.41872" lon="5.40097">
        <ele>1236.6</ele>
        <time>2023-07-24T08:03:06Z</time>
      </trkpt>
      <trkpt lat="44.41872" lon="5.40097">
        <ele>1236.6</ele>
        <time>2023-07-24T08:03:07Z</time>
      </trkpt>
      <trkpt lat="44.41872" lon="5.40096">
        <ele>1236.6</ele>
        <time>2023-07-24T08:03:08Z</time>
      </trkpt>
      <trkpt lat="44.41873" lon="5.40095">
        <ele>1236.7</ele>
        <time>2023-07-24T08:03:09Z</time>
      </trkpt>
      <trkpt lat="44.41873" lon="5.40094">
        <ele>1236.7</ele>
        <time>2023-07-24T08:03:10Z</time>
      </trkpt>
      <trkpt lat="44.41873" lon="5.40094">
        <ele>1236.8</ele>
        <time>2023-07-24T08:03:11Z</time>
      </trkpt>
      <trkpt lat="44.41872" lon="5.40093">
        <ele>1236.8</ele>
        <time>2023-07-24T08:03:12Z</time>
      </trkpt>
      <trkpt lat="44.41871" lon="5.40093">
        <ele>1236.9</ele>
        <time>2023-07-24T08:03:13Z</time>
      </trkpt>
      <trkpt lat="44.41871" lon="5.40094">
        <ele>1236.9</ele>
        <time>2023-07-24T08:03:14Z</time>
      </trkpt>
      <trkpt lat="44.4187" lon="5.40094">
        <ele>1236.9</ele>
        <time>2023-07-24T08:03:15Z</time>
      </trkpt>
      <trkpt lat="44.4187" lon="5.40094">
        <ele>1236.9</ele>
        <time>2023-07-24T08:03:16Z</time>
      </trkpt>
      <trkpt lat="44.41871" lon="5.40094">
        <ele>1237</ele>
        <time>2023-07-24T08:03:17Z</time>
      </trkpt>
      <trkpt lat="44.41871" lon="5.40094">
        <ele>1237</ele>
        <time>2023-07-24T08:03:18Z</time>
      </trkpt>
      <trkpt lat="44.41871" lon="5.40093">
        <ele>1237</ele>
        <time>2023-07-24T08:03:19Z</time>
      </trkpt>
      <trkpt lat="44.41872" lon="5.40091">
        <ele>1237.1</ele>
        <time>2023-07-24T08:03:20Z</time>
      </trkpt>
      <trkpt lat="44.41872" lon="5.40089">
        <ele>1237.2</ele>
        <time>2023-07-24T08:03:21Z</time>
      </trkpt>
      <trkpt lat="44.41872" lon="5.40088">
        <ele>1237.3</ele>
        <time>2023-07-24T08:03:22Z</time>
      </trkpt>
      <trkpt lat="44.41871" lon="5.40088">
        <ele>1237.3</ele>
        <time>2023-07-24T08:03:23Z</time>
      </trkpt>
      <trkpt lat="44.41871" lon="5.40088">
        <ele>1237.3</ele>
        <time>2023-07-24T08:03:24Z</time>
      </trkpt>
      <trkpt lat="44.41871" lon="5.40088">
        <ele>1237.4</ele>
        <time>2023-07-24T08:03:25Z</time>
      </trkpt>
      <trkpt lat="44.4187" lon="5.40088">
        <ele>1237.4</ele>
        <time>2023-07-24T08:03:26Z</time>
      </trkpt>
      <trkpt lat="44.4187" lon="5.40087">
        <ele>1237.4</ele>
        <time>2023-07-24T08:03:27Z</time>
      </trkpt>
      <trkpt lat="44.4187" lon="5.40087">
        <ele>1237.4</ele>
        <time>2023-07-24T08:03:28Z</time>
      </trkpt>
      <trkpt lat="44.4187" lon="5.40086">
        <ele>1237.5</ele>
        <time>2023-07-24T08:03:29Z</time>
      </trkpt>
      <trkpt lat="44.41869" lon="5.40085">
        <ele>1237.5</ele>
        <time>2023-07-24T08:03:30Z</time>
      </trkpt>
      <trkpt lat="44.41869" lon="5.40085">
        <ele>1237.6</ele>
        <time>2023-07-24T08:03:31Z</time>
      </trkpt>
      <trkpt lat="44.41868" lon="5.40084">
        <ele>1237.7</ele>
        <time>2023-07-24T08:03:32Z</time>
      </trkpt>
      <trkpt lat="44.41867" lon="5.40083">
        <ele>1237.7</ele>
        <time>2023-07-24T08:03:33Z</time>
      </trkpt>
      <trkpt lat="44.41867" lon="5.40082">
        <ele>1237.8</ele>
        <time>2023-07-24T08:03:34Z</time>
      </trkpt>
      <trkpt lat="44.41867" lon="5.40081">
        <ele>1237.8</ele>
        <time>2023-07-24T08:03:35Z</time>
      </trkpt>
      <trkpt lat="44.41867" lon="5.40081">
        <ele>1237.8</ele>
        <time>2023-07-24T08:03:36Z</time>
      </trkpt>
      <trkpt lat="44.41867" lon="5.40081">
        <ele>1237.8</ele>
        <time>2023-07-24T08:03:37Z</time>
      </trkpt>
      <trkpt lat="44.41867" lon="5.4008">
        <ele>1237.9</ele>
        <time>2023-07-24T08:03:38Z</time>
      </trkpt>
      <trkpt lat="44.41866" lon="5.4008">
        <ele>1237.9</ele>
        <time>2023-07-24T08:03:39Z</time>
      </trkpt>
      <trkpt lat="44.41866" lon="5.40079">
        <ele>1238</ele>
        <time>2023-07-24T08:03:40Z</time>
      </trkpt>
      <trkpt lat="44.41866" lon="5.40078">
        <ele>1238</ele>
        <time>2023-07-24T08:03:41Z</time>
      </trkpt>
      <trkpt lat="44.41866" lon="5.40078">
        <ele>1238</ele>
        <time>2023-07-24T08:03:42Z</time>
      </trkpt>
      <trkpt lat="44.41866" lon="5.40078">
        <ele>1238</ele>
        <time>2023-07-24T08:03:43Z</time>
      </trkpt>
      <trkpt lat="44.41866" lon="5.40078">
        <ele>1238</ele>
        <time>2023-07-24T08:03:44Z</time>
      </trkpt>
      <trkpt lat="44.41865" lon="5.40076">
        <ele>1238.2</ele>
        <time>2023-07-24T08:03:46Z</time>
      </trkpt>
      <trkpt lat="44.41864" lon="5.40075">
        <ele>1238.2</ele>
        <time>2023-07-24T08:03:47Z</time>
      </trkpt>
      <trkpt lat="44.41864" lon="5.40074">
        <ele>1238.3</ele>
        <time>2023-07-24T08:03:48Z</time>
      </trkpt>
      <trkpt lat="44.41863" lon="5.40073">
        <ele>1238.3</ele>
        <time>2023-07-24T08:03:49Z</time>
      </trkpt>
      <trkpt lat="44.41863" lon="5.40073">
        <ele>1238.3</ele>
        <time>2023-07-24T08:03:50Z</time>
      </trkpt>
      <trkpt lat="44.41862" lon="5.40073">
        <ele>1238.4</ele>
        <time>2023-07-24T08:03:51Z</time>
      </trkpt>
      <trkpt lat="44.41861" lon="5.40073">
        <ele>1238.5</ele>
        <time>2023-07-24T08:03:52Z</time>
      </trkpt>
      <trkpt lat="44.4186" lon="5.40072">
        <ele>1238.6</ele>
        <time>2023-07-24T08:03:53Z</time>
      </trkpt>
      <trkpt lat="44.41859" lon="5.40072">
        <ele>1238.7</ele>
        <time>2023-07-24T08:03:54Z</time>
      </trkpt>
      <trkpt lat="44.41858" lon="5.40071">
        <ele>1238.7</ele>
        <time>2023-07-24T08:03:55Z</time>
      </trkpt>
      <trkpt lat="44.41858" lon="5.40071">
        <ele>1238.8</ele>
        <time>2023-07-24T08:03:56Z</time>
      </trkpt>
      <trkpt lat="44.41857" lon="5.40071">
        <ele>1238.8</ele>
        <time>2023-07-24T08:03:57Z</time>
      </trkpt>
      <trkpt lat="44.41856" lon="5.4007">
        <ele>1238.9</ele>
        <time>2023-07-24T08:03:58Z</time>
      </trkpt>
      <trkpt lat="44.41856" lon="5.4007">
        <ele>1238.9</ele>
        <time>2023-07-24T08:03:59Z</time>
      </trkpt>
      <trkpt lat="44.41856" lon="5.4007">
        <ele>1238.9</ele>
        <time>2023-07-24T08:04:00Z</time>
      </trkpt>
      <trkpt lat="44.41856" lon="5.4007">
        <ele>1238.9</ele>
        <time>2023-07-24T08:04:01Z</time>
      </trkpt>
      <trkpt lat="44.41856" lon="5.4007">
        <ele>1238.9</ele>
        <time>2023-07-24T08:04:02Z</time>
      </trkpt>
      <trkpt lat="44.41856" lon="5.40069">
        <ele>1238.9</ele>
        <time>2023-07-24T08:04:03Z</time>
      </trkpt>
      <trkpt lat="44.41856" lon="5.40069">
        <ele>1238.9</ele>
        <time>2023-07-24T08:04:04Z</time>
      </trkpt>
      <trkpt lat="44.41856" lon="5.40069">
        <ele>1238.9</ele>
        <time>2023-07-24T08:04:05Z</time>
      </trkpt>
      <trkpt lat="44.41856" lon="5.40069">
        <ele>1238.9</ele>
        <time>2023-07-24T08:04:06Z</time>
      </trkpt>
      <trkpt lat="44.41855" lon="5.40069">
        <ele>1239</ele>
        <time>2023-07-24T08:04:07Z</time>
      </trkpt>
      <trkpt lat="44.41854" lon="5.40068">
        <ele>1239.1</ele>
        <time>2023-07-24T08:04:08Z</time>
      </trkpt>
      <trkpt lat="44.41853" lon="5.40068">
        <ele>1239.2</ele>
        <time>2023-07-24T08:04:09Z</time>
      </trkpt>
      <trkpt lat="44.41852" lon="5.40068">
        <ele>1239.2</ele>
        <time>2023-07-24T08:04:10Z</time>
      </trkpt>
      <trkpt lat="44.41852" lon="5.40068">
        <ele>1239.2</ele>
        <time>2023-07-24T08:04:11Z</time>
      </trkpt>
      <trkpt lat="44.41852" lon="5.40068">
        <ele>1239.3</ele>
        <time>2023-07-24T08:04:12Z</time>
      </trkpt>
      <trkpt lat="44.41851" lon="5.40068">
        <ele>1239.3</ele>
        <time>2023-07-24T08:04:13Z</time>
      </trkpt>
      <trkpt lat="44.41851" lon="5.40068">
        <ele>1239.3</ele>
        <time>2023-07-24T08:04:14Z</time>
      </trkpt>
      <trkpt lat="44.41851" lon="5.40068">
        <ele>1239.3</ele>
        <time>2023-07-24T08:04:15Z</time>
      </trkpt>
      <trkpt lat="44.41851" lon="5.40068">
        <ele>1239.3</ele>
        <time>2023-07-24T08:04:16Z</time>
      </trkpt>
      <trkpt lat="44.41852" lon="5.40068">
        <ele>1239.3</ele>
        <time>2023-07-24T08:04:17Z</time>
      </trkpt>
      <trkpt lat="44.41852" lon="5.40068">
        <ele>1239.3</ele>
        <time>2023-07-24T08:04:18Z</time>
      </trkpt>
      <trkpt lat="44.41852" lon="5.40068">
        <ele>1239.3</ele>
        <time>2023-07-24T08:04:19Z</time>
      </trkpt>
      <trkpt lat="44.41852" lon="5.40068">
        <ele>1239.3</ele>
        <time>2023-07-24T08:04:20Z</time>
      </trkpt>
      <trkpt lat="44.41852" lon="5.40067">
        <ele>1239.3</ele>
        <time>2023-07-24T08:04:21Z</time>
      </trkpt>
      <trkpt lat="44.41852" lon="5.40066">
        <ele>1239.4</ele>
        <time>2023-07-24T08:04:22Z</time>
      </trkpt>
      <trkpt lat="44.41851" lon="5.40065">
        <ele>1239.4</ele>
        <time>2023-07-24T08:04:23Z</time>
      </trkpt>
      <trkpt lat="44.41851" lon="5.40061">
        <ele>1239.6</ele>
        <time>2023-07-24T08:04:27Z</time>
      </trkpt>
      <trkpt lat="44.41851" lon="5.40059">
        <ele>1239.7</ele>
        <time>2023-07-24T08:04:28Z</time>
      </trkpt>
      <trkpt lat="44.41851" lon="5.40058">
        <ele>1239.8</ele>
        <time>2023-07-24T08:04:29Z</time>
      </trkpt>
      <trkpt lat="44.41851" lon="5.40057">
        <ele>1239.8</ele>
        <time>2023-07-24T08:04:30Z</time>
      </trkpt>
      <trkpt lat="44.4185" lon="5.40056">
        <ele>1239.9</ele>
        <time>2023-07-24T08:04:31Z</time>
      </trkpt>
      <trkpt lat="44.41849" lon="5.40055">
        <ele>1240</ele>
        <time>2023-07-24T08:04:32Z</time>
      </trkpt>
      <trkpt lat="44.41849" lon="5.40054">
        <ele>1240</ele>
        <time>2023-07-24T08:04:33Z</time>
      </trkpt>
      <trkpt lat="44.41849" lon="5.40053">
        <ele>1240.1</ele>
        <time>2023-07-24T08:04:34Z</time>
      </trkpt>
      <trkpt lat="44.41848" lon="5.40052">
        <ele>1240.2</ele>
        <time>2023-07-24T08:04:35Z</time>
      </trkpt>
      <trkpt lat="44.41848" lon="5.40051">
        <ele>1240.2</ele>
        <time>2023-07-24T08:04:36Z</time>
      </trkpt>
      <trkpt lat="44.41847" lon="5.40051">
        <ele>1240.2</ele>
        <time>2023-07-24T08:04:37Z</time>
      </trkpt>
      <trkpt lat="44.41847" lon="5.40051">
        <ele>1240.3</ele>
        <time>2023-07-24T08:04:38Z</time>
      </trkpt>
      <trkpt lat="44.41847" lon="5.40049">
        <ele>1240.3</ele>
        <time>2023-07-24T08:04:39Z</time>
      </trkpt>
      <trkpt lat="44.41847" lon="5.40047">
        <ele>1240.5</ele>
        <time>2023-07-24T08:04:40Z</time>
      </trkpt>
      <trkpt lat="44.41847" lon="5.40045">
        <ele>1240.5</ele>
        <time>2023-07-24T08:04:41Z</time>
      </trkpt>
      <trkpt lat="44.41847" lon="5.40044">
        <ele>1240.6</ele>
        <time>2023-07-24T08:04:42Z</time>
      </trkpt>
      <trkpt lat="44.41847" lon="5.40043">
        <ele>1240.6</ele>
        <time>2023-07-24T08:04:43Z</time>
      </trkpt>
      <trkpt lat="44.41847" lon="5.40042">
        <ele>1240.7</ele>
        <time>2023-07-24T08:04:44Z</time>
      </trkpt>
      <trkpt lat="44.41847" lon="5.40042">
        <ele>1240.7</ele>
        <time>2023-07-24T08:04:45Z</time>
      </trkpt>
      <trkpt lat="44.41846" lon="5.40041">
        <ele>1240.8</ele>
        <time>2023-07-24T08:04:46Z</time>
      </trkpt>
      <trkpt lat="44.41845" lon="5.4004">
        <ele>1240.8</ele>
        <time>2023-07-24T08:04:47Z</time>
      </trkpt>
      <trkpt lat="44.41845" lon="5.40038">
        <ele>1240.9</ele>
        <time>2023-07-24T08:04:48Z</time>
      </trkpt>
      <trkpt lat="44.41845" lon="5.40038">
        <ele>1241</ele>
        <time>2023-07-24T08:04:49Z</time>
      </trkpt>
      <trkpt lat="44.41845" lon="5.40038">
        <ele>1241</ele>
        <time>2023-07-24T08:04:50Z</time>
      </trkpt>
      <trkpt lat="44.41845" lon="5.40037">
        <ele>1241</ele>
        <time>2023-07-24T08:04:51Z</time>
      </trkpt>
      <trkpt lat="44.41845" lon="5.40036">
        <ele>1241.1</ele>
        <time>2023-07-24T08:04:52Z</time>
      </trkpt>
      <trkpt lat="44.41845" lon="5.40035">
        <ele>1241.1</ele>
        <time>2023-07-24T08:04:53Z</time>
      </trkpt>
      <trkpt lat="44.41845" lon="5.40035">
        <ele>1241.1</ele>
        <time>2023-07-24T08:04:54Z</time>
      </trkpt>
      <trkpt lat="44.41845" lon="5.40035">
        <ele>1241.1</ele>
        <time>2023-07-24T08:04:55Z</time>
      </trkpt>
      <trkpt lat="44.41845" lon="5.40035">
        <ele>1241.1</ele>
        <time>2023-07-24T08:04:56Z</time>
      </trkpt>
      <trkpt lat="44.41845" lon="5.40035">
        <ele>1241.1</ele>
        <time>2023-07-24T08:04:57Z</time>
      </trkpt>
      <trkpt lat="44.41845" lon="5.40035">
        <ele>1241.1</ele>
        <time>2023-07-24T08:04:58Z</time>
      </trkpt>
      <trkpt lat="44.41845" lon="5.40035">
        <ele>1241.1</ele>
        <time>2023-07-24T08:04:59Z</time>
      </trkpt>
      <trkpt lat="44.41845" lon="5.40035">
        <ele>1241.1</ele>
        <time>2023-07-24T08:05:00Z</time>
      </trkpt>
      <trkpt lat="44.41843" lon="5.40034">
        <ele>1241.3</ele>
        <time>2023-07-24T08:05:01Z</time>
      </trkpt>
      <trkpt lat="44.41841" lon="5.40033">
        <ele>1241.4</ele>
        <time>2023-07-24T08:05:02Z</time>
      </trkpt>
      <trkpt lat="44.41841" lon="5.40033">
        <ele>1241.4</ele>
        <time>2023-07-24T08:05:03Z</time>
      </trkpt>
      <trkpt lat="44.41841" lon="5.40033">
        <ele>1241.5</ele>
        <time>2023-07-24T08:05:04Z</time>
      </trkpt>
      <trkpt lat="44.4184" lon="5.40032">
        <ele>1241.5</ele>
        <time>2023-07-24T08:05:05Z</time>
      </trkpt>
      <trkpt lat="44.4184" lon="5.40032">
        <ele>1241.5</ele>
        <time>2023-07-24T08:05:06Z</time>
      </trkpt>
      <trkpt lat="44.41839" lon="5.40032">
        <ele>1241.6</ele>
        <time>2023-07-24T08:05:07Z</time>
      </trkpt>
      <trkpt lat="44.41839" lon="5.4003">
        <ele>1241.6</ele>
        <time>2023-07-24T08:05:08Z</time>
      </trkpt>
      <trkpt lat="44.41839" lon="5.40029">
        <ele>1241.7</ele>
        <time>2023-07-24T08:05:09Z</time>
      </trkpt>
      <trkpt lat="44.41838" lon="5.40028">
        <ele>1241.8</ele>
        <time>2023-07-24T08:05:11Z</time>
      </trkpt>
      <trkpt lat="44.41838" lon="5.40026">
        <ele>1241.9</ele>
        <time>2023-07-24T08:05:12Z</time>
      </trkpt>
      <trkpt lat="44.41837" lon="5.40025">
        <ele>1241.9</ele>
        <time>2023-07-24T08:05:13Z</time>
      </trkpt>
      <trkpt lat="44.41837" lon="5.40024">
        <ele>1242</ele>
        <time>2023-07-24T08:05:14Z</time>
      </trkpt>
      <trkpt lat="44.41837" lon="5.40023">
        <ele>1242.1</ele>
        <time>2023-07-24T08:05:15Z</time>
      </trkpt>
      <trkpt lat="44.41836" lon="5.40022">
        <ele>1242.1</ele>
        <time>2023-07-24T08:05:16Z</time>
      </trkpt>
      <trkpt lat="44.41836" lon="5.40021">
        <ele>1242.2</ele>
        <time>2023-07-24T08:05:17Z</time>
      </trkpt>
      <trkpt lat="44.41835" lon="5.40021">
        <ele>1242.2</ele>
        <time>2023-07-24T08:05:18Z</time>
      </trkpt>
      <trkpt lat="44.41834" lon="5.4002">
        <ele>1242.3</ele>
        <time>2023-07-24T08:05:19Z</time>
      </trkpt>
      <trkpt lat="44.41833" lon="5.40019">
        <ele>1242.4</ele>
        <time>2023-07-24T08:05:20Z</time>
      </trkpt>
      <trkpt lat="44.41833" lon="5.40019">
        <ele>1242.4</ele>
        <time>2023-07-24T08:05:21Z</time>
      </trkpt>
      <trkpt lat="44.41833" lon="5.40018">
        <ele>1242.5</ele>
        <time>2023-07-24T08:05:22Z</time>
      </trkpt>
      <trkpt lat="44.41833" lon="5.40017">
        <ele>1242.5</ele>
        <time>2023-07-24T08:05:23Z</time>
      </trkpt>
      <trkpt lat="44.41833" lon="5.40016">
        <ele>1242.5</ele>
        <time>2023-07-24T08:05:24Z</time>
      </trkpt>
      <trkpt lat="44.41832" lon="5.40015">
        <ele>1242.6</ele>
        <time>2023-07-24T08:05:25Z</time>
      </trkpt>
      <trkpt lat="44.41832" lon="5.40015">
        <ele>1242.6</ele>
        <time>2023-07-24T08:05:26Z</time>
      </trkpt>
      <trkpt lat="44.41831" lon="5.40015">
        <ele>1242.7</ele>
        <time>2023-07-24T08:05:27Z</time>
      </trkpt>
      <trkpt lat="44.41831" lon="5.40014">
        <ele>1242.7</ele>
        <time>2023-07-24T08:05:28Z</time>
      </trkpt>
      <trkpt lat="44.4183" lon="5.40014">
        <ele>1242.8</ele>
        <time>2023-07-24T08:05:29Z</time>
      </trkpt>
      <trkpt lat="44.4183" lon="5.40014">
        <ele>1242.8</ele>
        <time>2023-07-24T08:05:30Z</time>
      </trkpt>
      <trkpt lat="44.4183" lon="5.40014">
        <ele>1242.8</ele>
        <time>2023-07-24T08:05:31Z</time>
      </trkpt>
      <trkpt lat="44.4183" lon="5.40013">
        <ele>1242.8</ele>
        <time>2023-07-24T08:05:32Z</time>
      </trkpt>
      <trkpt lat="44.4183" lon="5.40013">
        <ele>1242.8</ele>
        <time>2023-07-24T08:05:33Z</time>
      </trkpt>
      <trkpt lat="44.41829" lon="5.40013">
        <ele>1242.9</ele>
        <time>2023-07-24T08:05:34Z</time>
      </trkpt>
      <trkpt lat="44.41828" lon="5.40011">
        <ele>1243</ele>
        <time>2023-07-24T08:05:36Z</time>
      </trkpt>
      <trkpt lat="44.41828" lon="5.4001">
        <ele>1243</ele>
        <time>2023-07-24T08:05:37Z</time>
      </trkpt>
      <trkpt lat="44.41828" lon="5.40011">
        <ele>1243.1</ele>
        <time>2023-07-24T08:05:38Z</time>
      </trkpt>
      <trkpt lat="44.41828" lon="5.40011">
        <ele>1243.1</ele>
        <time>2023-07-24T08:05:39Z</time>
      </trkpt>
      <trkpt lat="44.41828" lon="5.4001">
        <ele>1243.1</ele>
        <time>2023-07-24T08:05:40Z</time>
      </trkpt>
      <trkpt lat="44.41828" lon="5.4001">
        <ele>1243.1</ele>
        <time>2023-07-24T08:05:41Z</time>
      </trkpt>
      <trkpt lat="44.41828" lon="5.4001">
        <ele>1243.1</ele>
        <time>2023-07-24T08:05:42Z</time>
      </trkpt>
      <trkpt lat="44.41828" lon="5.40008">
        <ele>1243.2</ele>
        <time>2023-07-24T08:05:43Z</time>
      </trkpt>
      <trkpt lat="44.41828" lon="5.40008">
        <ele>1243.2</ele>
        <time>2023-07-24T08:05:44Z</time>
      </trkpt>
      <trkpt lat="44.41828" lon="5.40007">
        <ele>1243.3</ele>
        <time>2023-07-24T08:05:45Z</time>
      </trkpt>
      <trkpt lat="44.41828" lon="5.40006">
        <ele>1243.3</ele>
        <time>2023-07-24T08:05:46Z</time>
      </trkpt>
      <trkpt lat="44.41829" lon="5.40006">
        <ele>1243.3</ele>
        <time>2023-07-24T08:05:47Z</time>
      </trkpt>
      <trkpt lat="44.41829" lon="5.40006">
        <ele>1243.3</ele>
        <time>2023-07-24T08:05:48Z</time>
      </trkpt>
      <trkpt lat="44.41829" lon="5.40006">
        <ele>1243.3</ele>
        <time>2023-07-24T08:05:49Z</time>
      </trkpt>
      <trkpt lat="44.41829" lon="5.40006">
        <ele>1243.3</ele>
        <time>2023-07-24T08:05:50Z</time>
      </trkpt>
      <trkpt lat="44.41829" lon="5.40006">
        <ele>1243.3</ele>
        <time>2023-07-24T08:05:51Z</time>
      </trkpt>
      <trkpt lat="44.41829" lon="5.40006">
        <ele>1243.3</ele>
        <time>2023-07-24T08:05:52Z</time>
      </trkpt>
      <trkpt lat="44.41829" lon="5.40006">
        <ele>1243.3</ele>
        <time>2023-07-24T08:05:53Z</time>
      </trkpt>
      <trkpt lat="44.41829" lon="5.40006">
        <ele>1243.3</ele>
        <time>2023-07-24T08:05:54Z</time>
      </trkpt>
      <trkpt lat="44.41829" lon="5.40006">
        <ele>1243.3</ele>
        <time>2023-07-24T08:05:55Z</time>
      </trkpt>
      <trkpt lat="44.41822" lon="5.39995">
        <ele>1244.1</ele>
        <time>2023-07-24T08:06:40Z</time>
      </trkpt>
      <trkpt lat="44.41821" lon="5.39995">
        <ele>1244.1</ele>
        <time>2023-07-24T08:06:41Z</time>
      </trkpt>
      <trkpt lat="44.4182" lon="5.39995">
        <ele>1244.2</ele>
        <time>2023-07-24T08:06:42Z</time>
      </trkpt>
      <trkpt lat="44.4182" lon="5.39995">
        <ele>1244.2</ele>
        <time>2023-07-24T08:06:43Z</time>
      </trkpt>
      <trkpt lat="44.4182" lon="5.39995">
        <ele>1244.2</ele>
        <time>2023-07-24T08:06:44Z</time>
      </trkpt>
      <trkpt lat="44.4182" lon="5.39994">
        <ele>1244.3</ele>
        <time>2023-07-24T08:06:45Z</time>
      </trkpt>
      <trkpt lat="44.4182" lon="5.39994">
        <ele>1244.3</ele>
        <time>2023-07-24T08:06:46Z</time>
      </trkpt>
      <trkpt lat="44.4182" lon="5.39994">
        <ele>1244.3</ele>
        <time>2023-07-24T08:06:47Z</time>
      </trkpt>
      <trkpt lat="44.4182" lon="5.39994">
        <ele>1244.3</ele>
        <time>2023-07-24T08:06:48Z</time>
      </trkpt>
      <trkpt lat="44.4182" lon="5.39994">
        <ele>1244.3</ele>
        <time>2023-07-24T08:06:49Z</time>
      </trkpt>
      <trkpt lat="44.4182" lon="5.39993">
        <ele>1244.3</ele>
        <time>2023-07-24T08:06:50Z</time>
      </trkpt>
      <trkpt lat="44.4182" lon="5.39993">
        <ele>1244.3</ele>
        <time>2023-07-24T08:06:51Z</time>
      </trkpt>
      <trkpt lat="44.4182" lon="5.39993">
        <ele>1244.3</ele>
        <time>2023-07-24T08:06:52Z</time>
      </trkpt>
      <trkpt lat="44.4182" lon="5.39993">
        <ele>1244.3</ele>
        <time>2023-07-24T08:06:53Z</time>
      </trkpt>
      <trkpt lat="44.4182" lon="5.39993">
        <ele>1244.3</ele>
        <time>2023-07-24T08:06:54Z</time>
      </trkpt>
      <trkpt lat="44.4182" lon="5.39993">
        <ele>1244.3</ele>
        <time>2023-07-24T08:06:55Z</time>
      </trkpt>
      <trkpt lat="44.41819" lon="5.39992">
        <ele>1244.4</ele>
        <time>2023-07-24T08:07:22Z</time>
      </trkpt>
      <trkpt lat="44.41818" lon="5.39991">
        <ele>1244.5</ele>
        <time>2023-07-24T08:07:23Z</time>
      </trkpt>
      <trkpt lat="44.41818" lon="5.39991">
        <ele>1244.5</ele>
        <time>2023-07-24T08:07:24Z</time>
      </trkpt>
      <trkpt lat="44.41818" lon="5.39991">
        <ele>1244.5</ele>
        <time>2023-07-24T08:07:25Z</time>
      </trkpt>
      <trkpt lat="44.41818" lon="5.39992">
        <ele>1244.6</ele>
        <time>2023-07-24T08:07:26Z</time>
      </trkpt>
      <trkpt lat="44.41818" lon="5.39992">
        <ele>1244.6</ele>
        <time>2023-07-24T08:07:27Z</time>
      </trkpt>
      <trkpt lat="44.41818" lon="5.39992">
        <ele>1244.6</ele>
        <time>2023-07-24T08:07:28Z</time>
      </trkpt>
      <trkpt lat="44.41818" lon="5.39992">
        <ele>1244.6</ele>
        <time>2023-07-24T08:07:29Z</time>
      </trkpt>
      <trkpt lat="44.41819" lon="5.39991">
        <ele>1244.7</ele>
        <time>2023-07-24T08:07:30Z</time>
      </trkpt>
      <trkpt lat="44.41819" lon="5.3999">
        <ele>1244.7</ele>
        <time>2023-07-24T08:07:31Z</time>
      </trkpt>
      <trkpt lat="44.41819" lon="5.39989">
        <ele>1244.7</ele>
        <time>2023-07-24T08:07:32Z</time>
      </trkpt>
      <trkpt lat="44.41819" lon="5.39989">
        <ele>1244.7</ele>
        <time>2023-07-24T08:07:33Z</time>
      </trkpt>
      <trkpt lat="44.41819" lon="5.39989">
        <ele>1244.7</ele>
        <time>2023-07-24T08:07:34Z</time>
      </trkpt>
      <trkpt lat="44.41819" lon="5.39989">
        <ele>1244.7</ele>
        <time>2023-07-24T08:07:35Z</time>
      </trkpt>
      <trkpt lat="44.41819" lon="5.39989">
        <ele>1244.7</ele>
        <time>2023-07-24T08:07:36Z</time>
      </trkpt>
      <trkpt lat="44.41819" lon="5.39989">
        <ele>1244.7</ele>
        <time>2023-07-24T08:07:37Z</time>
      </trkpt>
      <trkpt lat="44.41819" lon="5.39989">
        <ele>1244.7</ele>
        <time>2023-07-24T08:07:38Z</time>
      </trkpt>
      <trkpt lat="44.41819" lon="5.39989">
        <ele>1244.7</ele>
        <time>2023-07-24T08:07:39Z</time>
      </trkpt>
      <trkpt lat="44.41819" lon="5.39989">
        <ele>1244.7</ele>
        <time>2023-07-24T08:07:40Z</time>
      </trkpt>
      <trkpt lat="44.41819" lon="5.39989">
        <ele>1244.8</ele>
        <time>2023-07-24T08:07:41Z</time>
      </trkpt>
      <trkpt lat="44.41819" lon="5.39988">
        <ele>1244.8</ele>
        <time>2023-07-24T08:07:42Z</time>
      </trkpt>
      <trkpt lat="44.41818" lon="5.39988">
        <ele>1244.9</ele>
        <time>2023-07-24T08:07:43Z</time>
      </trkpt>
      <trkpt lat="44.41817" lon="5.39989">
        <ele>1245</ele>
        <time>2023-07-24T08:07:44Z</time>
      </trkpt>
      <trkpt lat="44.41817" lon="5.39989">
        <ele>1245</ele>
        <time>2023-07-24T08:07:45Z</time>
      </trkpt>
      <trkpt lat="44.41817" lon="5.39989">
        <ele>1245</ele>
        <time>2023-07-24T08:07:46Z</time>
      </trkpt>
      <trkpt lat="44.41817" lon="5.39989">
        <ele>1245</ele>
        <time>2023-07-24T08:07:47Z</time>
      </trkpt>
      <trkpt lat="44.41817" lon="5.39989">
        <ele>1245</ele>
        <time>2023-07-24T08:07:48Z</time>
      </trkpt>
      <trkpt lat="44.41817" lon="5.39989">
        <ele>1245</ele>
        <time>2023-07-24T08:07:49Z</time>
      </trkpt>
      <trkpt lat="44.41815" lon="5.39988">
        <ele>1245.1</ele>
        <time>2023-07-24T08:07:50Z</time>
      </trkpt>
      <trkpt lat="44.41815" lon="5.39988">
        <ele>1245.1</ele>
        <time>2023-07-24T08:07:51Z</time>
      </trkpt>
      <trkpt lat="44.41815" lon="5.39988">
        <ele>1245.1</ele>
        <time>2023-07-24T08:07:52Z</time>
      </trkpt>
      <trkpt lat="44.41815" lon="5.39989">
        <ele>1245.1</ele>
        <time>2023-07-24T08:07:53Z</time>
      </trkpt>
      <trkpt lat="44.41816" lon="5.39989">
        <ele>1245.2</ele>
        <time>2023-07-24T08:07:54Z</time>
      </trkpt>
      <trkpt lat="44.41816" lon="5.3999">
        <ele>1245.2</ele>
        <time>2023-07-24T08:07:55Z</time>
      </trkpt>
      <trkpt lat="44.41817" lon="5.3999">
        <ele>1245.2</ele>
        <time>2023-07-24T08:07:56Z</time>
      </trkpt>
      <trkpt lat="44.41817" lon="5.3999">
        <ele>1245.2</ele>
        <time>2023-07-24T08:07:57Z</time>
      </trkpt>
      <trkpt lat="44.41817" lon="5.3999">
        <ele>1245.3</ele>
        <time>2023-07-24T08:07:58Z</time>
      </trkpt>
      <trkpt lat="44.41817" lon="5.3999">
        <ele>1245.3</ele>
        <time>2023-07-24T08:07:59Z</time>
      </trkpt>
      <trkpt lat="44.41817" lon="5.3999">
        <ele>1245.3</ele>
        <time>2023-07-24T08:08:00Z</time>
      </trkpt>
      <trkpt lat="44.41817" lon="5.3999">
        <ele>1245.3</ele>
        <time>2023-07-24T08:08:01Z</time>
      </trkpt>
      <trkpt lat="44.41817" lon="5.3999">
        <ele>1245.3</ele>
        <time>2023-07-24T08:08:02Z</time>
      </trkpt>
      <trkpt lat="44.41817" lon="5.3999">
        <ele>1245.3</ele>
        <time>2023-07-24T08:08:03Z</time>
      </trkpt>
      <trkpt lat="44.41815" lon="5.3998">
        <ele>1245.8</ele>
        <time>2023-07-24T08:09:27Z</time>
      </trkpt>
      <trkpt lat="44.41814" lon="5.39979">
        <ele>1245.9</ele>
        <time>2023-07-24T08:09:28Z</time>
      </trkpt>
      <trkpt lat="44.41813" lon="5.39979">
        <ele>1245.9</ele>
        <time>2023-07-24T08:09:29Z</time>
      </trkpt>
      <trkpt lat="44.41813" lon="5.39978">
        <ele>1246</ele>
        <time>2023-07-24T08:09:30Z</time>
      </trkpt>
      <trkpt lat="44.41813" lon="5.39977">
        <ele>1246</ele>
        <time>2023-07-24T08:09:31Z</time>
      </trkpt>
      <trkpt lat="44.41813" lon="5.39977">
        <ele>1246</ele>
        <time>2023-07-24T08:09:32Z</time>
      </trkpt>
      <trkpt lat="44.41813" lon="5.39976">
        <ele>1246.1</ele>
        <time>2023-07-24T08:09:33Z</time>
      </trkpt>
      <trkpt lat="44.41813" lon="5.39976">
        <ele>1246.1</ele>
        <time>2023-07-24T08:09:34Z</time>
      </trkpt>
      <trkpt lat="44.41813" lon="5.39976">
        <ele>1246.1</ele>
        <time>2023-07-24T08:09:35Z</time>
      </trkpt>
      <trkpt lat="44.41813" lon="5.39976">
        <ele>1246.1</ele>
        <time>2023-07-24T08:09:36Z</time>
      </trkpt>
      <trkpt lat="44.41812" lon="5.39976">
        <ele>1246.2</ele>
        <time>2023-07-24T08:09:37Z</time>
      </trkpt>
      <trkpt lat="44.41811" lon="5.39975">
        <ele>1246.3</ele>
        <time>2023-07-24T08:09:38Z</time>
      </trkpt>
      <trkpt lat="44.41811" lon="5.39974">
        <ele>1246.3</ele>
        <time>2023-07-24T08:09:39Z</time>
      </trkpt>
      <trkpt lat="44.41811" lon="5.39973">
        <ele>1246.4</ele>
        <time>2023-07-24T08:09:40Z</time>
      </trkpt>
      <trkpt lat="44.41811" lon="5.39972">
        <ele>1246.4</ele>
        <time>2023-07-24T08:09:41Z</time>
      </trkpt>
      <trkpt lat="44.41811" lon="5.39972">
        <ele>1246.4</ele>
        <time>2023-07-24T08:09:42Z</time>
      </trkpt>
      <trkpt lat="44.41811" lon="5.39971">
        <ele>1246.5</ele>
        <time>2023-07-24T08:09:43Z</time>
      </trkpt>
      <trkpt lat="44.41811" lon="5.39971">
        <ele>1246.5</ele>
        <time>2023-07-24T08:09:44Z</time>
      </trkpt>
      <trkpt lat="44.41811" lon="5.39971">
        <ele>1246.5</ele>
        <time>2023-07-24T08:09:45Z</time>
      </trkpt>
      <trkpt lat="44.41811" lon="5.39971">
        <ele>1246.5</ele>
        <time>2023-07-24T08:09:46Z</time>
      </trkpt>
      <trkpt lat="44.41811" lon="5.39971">
        <ele>1246.5</ele>
        <time>2023-07-24T08:09:47Z</time>
      </trkpt>
      <trkpt lat="44.41811" lon="5.39971">
        <ele>1246.5</ele>
        <time>2023-07-24T08:09:48Z</time>
      </trkpt>
      <trkpt lat="44.4181" lon="5.39971">
        <ele>1246.5</ele>
        <time>2023-07-24T08:09:49Z</time>
      </trkpt>
      <trkpt lat="44.41809" lon="5.3997">
        <ele>1246.6</ele>
        <time>2023-07-24T08:09:50Z</time>
      </trkpt>
      <trkpt lat="44.41809" lon="5.3997">
        <ele>1246.6</ele>
        <time>2023-07-24T08:09:51Z</time>
      </trkpt>
      <trkpt lat="44.41808" lon="5.3997">
        <ele>1246.7</ele>
        <time>2023-07-24T08:09:52Z</time>
      </trkpt>
      <trkpt lat="44.41808" lon="5.39969">
        <ele>1246.7</ele>
        <time>2023-07-24T08:09:53Z</time>
      </trkpt>
      <trkpt lat="44.41807" lon="5.39969">
        <ele>1246.8</ele>
        <time>2023-07-24T08:09:54Z</time>
      </trkpt>
      <trkpt lat="44.41807" lon="5.39969">
        <ele>1246.8</ele>
        <time>2023-07-24T08:09:55Z</time>
      </trkpt>
      <trkpt lat="44.41806" lon="5.39968">
        <ele>1246.8</ele>
        <time>2023-07-24T08:09:56Z</time>
      </trkpt>
      <trkpt lat="44.41806" lon="5.39967">
        <ele>1246.9</ele>
        <time>2023-07-24T08:09:57Z</time>
      </trkpt>
      <trkpt lat="44.41805" lon="5.39967">
        <ele>1246.9</ele>
        <time>2023-07-24T08:09:58Z</time>
      </trkpt>
      <trkpt lat="44.41805" lon="5.39967">
        <ele>1247</ele>
        <time>2023-07-24T08:09:59Z</time>
      </trkpt>
      <trkpt lat="44.41805" lon="5.39966">
        <ele>1247</ele>
        <time>2023-07-24T08:10:00Z</time>
      </trkpt>
      <trkpt lat="44.41804" lon="5.39966">
        <ele>1247</ele>
        <time>2023-07-24T08:10:01Z</time>
      </trkpt>
      <trkpt lat="44.41804" lon="5.39965">
        <ele>1247.1</ele>
        <time>2023-07-24T08:10:02Z</time>
      </trkpt>
      <trkpt lat="44.41804" lon="5.39965">
        <ele>1247.1</ele>
        <time>2023-07-24T08:10:03Z</time>
      </trkpt>
      <trkpt lat="44.41803" lon="5.39964">
        <ele>1247.2</ele>
        <time>2023-07-24T08:10:04Z</time>
      </trkpt>
      <trkpt lat="44.41803" lon="5.39964">
        <ele>1247.2</ele>
        <time>2023-07-24T08:10:05Z</time>
      </trkpt>
      <trkpt lat="44.41803" lon="5.39964">
        <ele>1247.2</ele>
        <time>2023-07-24T08:10:06Z</time>
      </trkpt>
      <trkpt lat="44.41803" lon="5.39964">
        <ele>1247.2</ele>
        <time>2023-07-24T08:10:07Z</time>
      </trkpt>
      <trkpt lat="44.41802" lon="5.39963">
        <ele>1247.3</ele>
        <time>2023-07-24T08:10:08Z</time>
      </trkpt>
      <trkpt lat="44.41801" lon="5.39962">
        <ele>1247.4</ele>
        <time>2023-07-24T08:10:09Z</time>
      </trkpt>
      <trkpt lat="44.418" lon="5.39961">
        <ele>1247.4</ele>
        <time>2023-07-24T08:10:10Z</time>
      </trkpt>
      <trkpt lat="44.418" lon="5.3996">
        <ele>1247.5</ele>
        <time>2023-07-24T08:10:11Z</time>
      </trkpt>
      <trkpt lat="44.418" lon="5.3996">
        <ele>1247.5</ele>
        <time>2023-07-24T08:10:12Z</time>
      </trkpt>
      <trkpt lat="44.418" lon="5.39959">
        <ele>1247.6</ele>
        <time>2023-07-24T08:10:13Z</time>
      </trkpt>
      <trkpt lat="44.41799" lon="5.39958">
        <ele>1247.6</ele>
        <time>2023-07-24T08:10:14Z</time>
      </trkpt>
      <trkpt lat="44.41799" lon="5.39957">
        <ele>1247.6</ele>
        <time>2023-07-24T08:10:15Z</time>
      </trkpt>
      <trkpt lat="44.418" lon="5.39956">
        <ele>1247.7</ele>
        <time>2023-07-24T08:10:16Z</time>
      </trkpt>
      <trkpt lat="44.418" lon="5.39955">
        <ele>1247.7</ele>
        <time>2023-07-24T08:10:17Z</time>
      </trkpt>
      <trkpt lat="44.418" lon="5.39955">
        <ele>1247.8</ele>
        <time>2023-07-24T08:10:18Z</time>
      </trkpt>
      <trkpt lat="44.418" lon="5.39954">
        <ele>1247.8</ele>
        <time>2023-07-24T08:10:19Z</time>
      </trkpt>
      <trkpt lat="44.418" lon="5.39953">
        <ele>1247.9</ele>
        <time>2023-07-24T08:10:20Z</time>
      </trkpt>
      <trkpt lat="44.418" lon="5.39952">
        <ele>1247.9</ele>
        <time>2023-07-24T08:10:21Z</time>
      </trkpt>
      <trkpt lat="44.418" lon="5.39952">
        <ele>1247.9</ele>
        <time>2023-07-24T08:10:22Z</time>
      </trkpt>
      <trkpt lat="44.418" lon="5.39952">
        <ele>1248</ele>
        <time>2023-07-24T08:10:23Z</time>
      </trkpt>
      <trkpt lat="44.41799" lon="5.39952">
        <ele>1248</ele>
        <time>2023-07-24T08:10:24Z</time>
      </trkpt>
      <trkpt lat="44.41799" lon="5.39952">
        <ele>1248</ele>
        <time>2023-07-24T08:10:25Z</time>
      </trkpt>
      <trkpt lat="44.41799" lon="5.39952">
        <ele>1248</ele>
        <time>2023-07-24T08:10:26Z</time>
      </trkpt>
      <trkpt lat="44.41799" lon="5.39952">
        <ele>1248</ele>
        <time>2023-07-24T08:10:27Z</time>
      </trkpt>
      <trkpt lat="44.41799" lon="5.39952">
        <ele>1248</ele>
        <time>2023-07-24T08:10:28Z</time>
      </trkpt>
      <trkpt lat="44.41798" lon="5.39952">
        <ele>1248</ele>
        <time>2023-07-24T08:10:29Z</time>
      </trkpt>
      <trkpt lat="44.41798" lon="5.39953">
        <ele>1248.1</ele>
        <time>2023-07-24T08:10:30Z</time>
      </trkpt>
      <trkpt lat="44.41797" lon="5.39953">
        <ele>1248.2</ele>
        <time>2023-07-24T08:10:31Z</time>
      </trkpt>
      <trkpt lat="44.41797" lon="5.39953">
        <ele>1248.2</ele>
        <time>2023-07-24T08:10:32Z</time>
      </trkpt>
      <trkpt lat="44.41797" lon="5.39953">
        <ele>1248.2</ele>
        <time>2023-07-24T08:10:33Z</time>
      </trkpt>
      <trkpt lat="44.41797" lon="5.39953">
        <ele>1248.2</ele>
        <time>2023-07-24T08:10:34Z</time>
      </trkpt>
      <trkpt lat="44.41797" lon="5.39953">
        <ele>1248.2</ele>
        <time>2023-07-24T08:10:35Z</time>
      </trkpt>
      <trkpt lat="44.41797" lon="5.39953">
        <ele>1248.2</ele>
        <time>2023-07-24T08:10:36Z</time>
      </trkpt>
      <trkpt lat="44.41797" lon="5.39953">
        <ele>1248.2</ele>
        <time>2023-07-24T08:10:37Z</time>
      </trkpt>
      <trkpt lat="44.41797" lon="5.39953">
        <ele>1248.2</ele>
        <time>2023-07-24T08:10:38Z</time>
      </trkpt>
      <trkpt lat="44.41797" lon="5.39953">
        <ele>1248.2</ele>
        <time>2023-07-24T08:10:39Z</time>
      </trkpt>
      <trkpt lat="44.41797" lon="5.39953">
        <ele>1248.2</ele>
        <time>2023-07-24T08:10:40Z</time>
      </trkpt>
      <trkpt lat="44.41797" lon="5.39953">
        <ele>1248.2</ele>
        <time>2023-07-24T08:10:41Z</time>
      </trkpt>
      <trkpt lat="44.41797" lon="5.39953">
        <ele>1248.2</ele>
        <time>2023-07-24T08:10:42Z</time>
      </trkpt>
      <trkpt lat="44.41796" lon="5.39953">
        <ele>1248.3</ele>
        <time>2023-07-24T08:11:00Z</time>
      </trkpt>
      <trkpt lat="44.41795" lon="5.39953">
        <ele>1248.3</ele>
        <time>2023-07-24T08:11:01Z</time>
      </trkpt>
      <trkpt lat="44.41794" lon="5.39953">
        <ele>1248.4</ele>
        <time>2023-07-24T08:11:02Z</time>
      </trkpt>
      <trkpt lat="44.41794" lon="5.39953">
        <ele>1248.4</ele>
        <time>2023-07-24T08:11:03Z</time>
      </trkpt>
      <trkpt lat="44.41794" lon="5.39953">
        <ele>1248.4</ele>
        <time>2023-07-24T08:11:04Z</time>
      </trkpt>
      <trkpt lat="44.41794" lon="5.39953">
        <ele>1248.4</ele>
        <time>2023-07-24T08:11:05Z</time>
      </trkpt>
      <trkpt lat="44.41794" lon="5.39953">
        <ele>1248.4</ele>
        <time>2023-07-24T08:11:06Z</time>
      </trkpt>
      <trkpt lat="44.41795" lon="5.39953">
        <ele>1248.4</ele>
        <time>2023-07-24T08:11:07Z</time>
      </trkpt>
      <trkpt lat="44.41795" lon="5.39953">
        <ele>1248.5</ele>
        <time>2023-07-24T08:11:08Z</time>
      </trkpt>
      <trkpt lat="44.41794" lon="5.39952">
        <ele>1248.5</ele>
        <time>2023-07-24T08:11:09Z</time>
      </trkpt>
      <trkpt lat="44.41794" lon="5.39952">
        <ele>1248.6</ele>
        <time>2023-07-24T08:11:10Z</time>
      </trkpt>
      <trkpt lat="44.41793" lon="5.39951">
        <ele>1248.6</ele>
        <time>2023-07-24T08:11:11Z</time>
      </trkpt>
      <trkpt lat="44.41793" lon="5.39951">
        <ele>1248.6</ele>
        <time>2023-07-24T08:11:12Z</time>
      </trkpt>
      <trkpt lat="44.41793" lon="5.39951">
        <ele>1248.6</ele>
        <time>2023-07-24T08:11:13Z</time>
      </trkpt>
      <trkpt lat="44.41792" lon="5.39951">
        <ele>1248.7</ele>
        <time>2023-07-24T08:11:14Z</time>
      </trkpt>
      <trkpt lat="44.41792" lon="5.3995">
        <ele>1248.7</ele>
        <time>2023-07-24T08:11:15Z</time>
      </trkpt>
      <trkpt lat="44.41792" lon="5.39949">
        <ele>1248.8</ele>
        <time>2023-07-24T08:11:16Z</time>
      </trkpt>
      <trkpt lat="44.41792" lon="5.39948">
        <ele>1248.8</ele>
        <time>2023-07-24T08:11:17Z</time>
      </trkpt>
      <trkpt lat="44.41791" lon="5.39948">
        <ele>1248.9</ele>
        <time>2023-07-24T08:11:18Z</time>
      </trkpt>
      <trkpt lat="44.41791" lon="5.39947">
        <ele>1248.9</ele>
        <time>2023-07-24T08:11:19Z</time>
      </trkpt>
      <trkpt lat="44.41791" lon="5.39945">
        <ele>1249</ele>
        <time>2023-07-24T08:11:20Z</time>
      </trkpt>
      <trkpt lat="44.41792" lon="5.39944">
        <ele>1249</ele>
        <time>2023-07-24T08:11:21Z</time>
      </trkpt>
      <trkpt lat="44.41792" lon="5.39944">
        <ele>1249.1</ele>
        <time>2023-07-24T08:11:22Z</time>
      </trkpt>
      <trkpt lat="44.41792" lon="5.39943">
        <ele>1249.1</ele>
        <time>2023-07-24T08:11:23Z</time>
      </trkpt>
      <trkpt lat="44.41792" lon="5.39943">
        <ele>1249.1</ele>
        <time>2023-07-24T08:11:24Z</time>
      </trkpt>
      <trkpt lat="44.41792" lon="5.39943">
        <ele>1249.1</ele>
        <time>2023-07-24T08:11:25Z</time>
      </trkpt>
      <trkpt lat="44.41792" lon="5.39942">
        <ele>1249.2</ele>
        <time>2023-07-24T08:11:26Z</time>
      </trkpt>
      <trkpt lat="44.41792" lon="5.39941">
        <ele>1249.2</ele>
        <time>2023-07-24T08:11:27Z</time>
      </trkpt>
      <trkpt lat="44.41792" lon="5.3994">
        <ele>1249.2</ele>
        <time>2023-07-24T08:11:28Z</time>
      </trkpt>
      <trkpt lat="44.41791" lon="5.3994">
        <ele>1249.3</ele>
        <time>2023-07-24T08:11:29Z</time>
      </trkpt>
      <trkpt lat="44.41791" lon="5.39939">
        <ele>1249.3</ele>
        <time>2023-07-24T08:11:30Z</time>
      </trkpt>
      <trkpt lat="44.41791" lon="5.39938">
        <ele>1249.4</ele>
        <time>2023-07-24T08:11:31Z</time>
      </trkpt>
      <trkpt lat="44.41791" lon="5.39936">
        <ele>1249.5</ele>
        <time>2023-07-24T08:11:32Z</time>
      </trkpt>
      <trkpt lat="44.41791" lon="5.39934">
        <ele>1249.6</ele>
        <time>2023-07-24T08:11:33Z</time>
      </trkpt>
      <trkpt lat="44.41791" lon="5.39931">
        <ele>1249.7</ele>
        <time>2023-07-24T08:11:34Z</time>
      </trkpt>
      <trkpt lat="44.41791" lon="5.3993">
        <ele>1249.8</ele>
        <time>2023-07-24T08:11:35Z</time>
      </trkpt>
      <trkpt lat="44.41791" lon="5.39929">
        <ele>1249.8</ele>
        <time>2023-07-24T08:11:36Z</time>
      </trkpt>
      <trkpt lat="44.41791" lon="5.39927">
        <ele>1250</ele>
        <time>2023-07-24T08:11:37Z</time>
      </trkpt>
      <trkpt lat="44.4179" lon="5.39925">
        <ele>1250</ele>
        <time>2023-07-24T08:11:38Z</time>
      </trkpt>
      <trkpt lat="44.4179" lon="5.39924">
        <ele>1250.1</ele>
        <time>2023-07-24T08:11:39Z</time>
      </trkpt>
      <trkpt lat="44.41789" lon="5.39922">
        <ele>1250.2</ele>
        <time>2023-07-24T08:11:40Z</time>
      </trkpt>
      <trkpt lat="44.41789" lon="5.39921">
        <ele>1250.3</ele>
        <time>2023-07-24T08:11:41Z</time>
      </trkpt>
      <trkpt lat="44.41788" lon="5.3992">
        <ele>1250.3</ele>
        <time>2023-07-24T08:11:42Z</time>
      </trkpt>
      <trkpt lat="44.41788" lon="5.39919">
        <ele>1250.4</ele>
        <time>2023-07-24T08:11:43Z</time>
      </trkpt>
      <trkpt lat="44.41789" lon="5.39919">
        <ele>1250.4</ele>
        <time>2023-07-24T08:11:44Z</time>
      </trkpt>
      <trkpt lat="44.41789" lon="5.39919">
        <ele>1250.4</ele>
        <time>2023-07-24T08:11:45Z</time>
      </trkpt>
      <trkpt lat="44.41789" lon="5.39919">
        <ele>1250.4</ele>
        <time>2023-07-24T08:11:46Z</time>
      </trkpt>
      <trkpt lat="44.41788" lon="5.39917">
        <ele>1250.5</ele>
        <time>2023-07-24T08:11:47Z</time>
      </trkpt>
      <trkpt lat="44.41788" lon="5.39916">
        <ele>1250.6</ele>
        <time>2023-07-24T08:11:48Z</time>
      </trkpt>
      <trkpt lat="44.41788" lon="5.39915">
        <ele>1250.6</ele>
        <time>2023-07-24T08:11:49Z</time>
      </trkpt>
      <trkpt lat="44.41788" lon="5.39914">
        <ele>1250.7</ele>
        <time>2023-07-24T08:11:50Z</time>
      </trkpt>
      <trkpt lat="44.41788" lon="5.39914">
        <ele>1250.7</ele>
        <time>2023-07-24T08:11:51Z</time>
      </trkpt>
      <trkpt lat="44.41788" lon="5.39913">
        <ele>1250.8</ele>
        <time>2023-07-24T08:11:52Z</time>
      </trkpt>
      <trkpt lat="44.41787" lon="5.39912">
        <ele>1250.8</ele>
        <time>2023-07-24T08:11:53Z</time>
      </trkpt>
      <trkpt lat="44.41783" lon="5.39903">
        <ele>1251.4</ele>
        <time>2023-07-24T08:12:11Z</time>
      </trkpt>
      <trkpt lat="44.41782" lon="5.39902">
        <ele>1251.5</ele>
        <time>2023-07-24T08:12:12Z</time>
      </trkpt>
      <trkpt lat="44.41782" lon="5.399">
        <ele>1251.6</ele>
        <time>2023-07-24T08:12:13Z</time>
      </trkpt>
      <trkpt lat="44.41779" lon="5.39897">
        <ele>1251.8</ele>
        <time>2023-07-24T08:12:14Z</time>
      </trkpt>
      <trkpt lat="44.41779" lon="5.39896">
        <ele>1251.9</ele>
        <time>2023-07-24T08:12:15Z</time>
      </trkpt>
      <trkpt lat="44.41777" lon="5.39893">
        <ele>1252.1</ele>
        <time>2023-07-24T08:12:16Z</time>
      </trkpt>
      <trkpt lat="44.41776" lon="5.39892">
        <ele>1252.1</ele>
        <time>2023-07-24T08:12:17Z</time>
      </trkpt>
      <trkpt lat="44.41776" lon="5.3989">
        <ele>1252.2</ele>
        <time>2023-07-24T08:12:18Z</time>
      </trkpt>
      <trkpt lat="44.41775" lon="5.39888">
        <ele>1252.3</ele>
        <time>2023-07-24T08:12:19Z</time>
      </trkpt>
      <trkpt lat="44.41775" lon="5.39886">
        <ele>1252.4</ele>
        <time>2023-07-24T08:12:20Z</time>
      </trkpt>
      <trkpt lat="44.41775" lon="5.39884">
        <ele>1252.5</ele>
        <time>2023-07-24T08:12:21Z</time>
      </trkpt>
      <trkpt lat="44.41775" lon="5.39885">
        <ele>1252.6</ele>
        <time>2023-07-24T08:12:22Z</time>
      </trkpt>
      <trkpt lat="44.41774" lon="5.39884">
        <ele>1252.6</ele>
        <time>2023-07-24T08:12:23Z</time>
      </trkpt>
      <trkpt lat="44.41773" lon="5.39884">
        <ele>1252.7</ele>
        <time>2023-07-24T08:12:24Z</time>
      </trkpt>
      <trkpt lat="44.41773" lon="5.39884">
        <ele>1252.7</ele>
        <time>2023-07-24T08:12:25Z</time>
      </trkpt>
      <trkpt lat="44.41773" lon="5.39884">
        <ele>1252.7</ele>
        <time>2023-07-24T08:12:26Z</time>
      </trkpt>
      <trkpt lat="44.41772" lon="5.39883">
        <ele>1252.8</ele>
        <time>2023-07-24T08:12:27Z</time>
      </trkpt>
      <trkpt lat="44.41771" lon="5.39882">
        <ele>1252.8</ele>
        <time>2023-07-24T08:12:28Z</time>
      </trkpt>
      <trkpt lat="44.41771" lon="5.39881">
        <ele>1252.9</ele>
        <time>2023-07-24T08:12:29Z</time>
      </trkpt>
      <trkpt lat="44.4177" lon="5.3988">
        <ele>1253</ele>
        <time>2023-07-24T08:12:30Z</time>
      </trkpt>
      <trkpt lat="44.4177" lon="5.39879">
        <ele>1253</ele>
        <time>2023-07-24T08:12:31Z</time>
      </trkpt>
      <trkpt lat="44.4177" lon="5.39879">
        <ele>1253</ele>
        <time>2023-07-24T08:12:32Z</time>
      </trkpt>
      <trkpt lat="44.4177" lon="5.39878">
        <ele>1253.1</ele>
        <time>2023-07-24T08:12:33Z</time>
      </trkpt>
      <trkpt lat="44.4177" lon="5.39877">
        <ele>1253.1</ele>
        <time>2023-07-24T08:12:34Z</time>
      </trkpt>
      <trkpt lat="44.4177" lon="5.39877">
        <ele>1253.1</ele>
        <time>2023-07-24T08:12:35Z</time>
      </trkpt>
      <trkpt lat="44.4177" lon="5.39877">
        <ele>1253.2</ele>
        <time>2023-07-24T08:12:36Z</time>
      </trkpt>
      <trkpt lat="44.4177" lon="5.39877">
        <ele>1253.2</ele>
        <time>2023-07-24T08:12:37Z</time>
      </trkpt>
      <trkpt lat="44.4177" lon="5.39876">
        <ele>1253.2</ele>
        <time>2023-07-24T08:12:38Z</time>
      </trkpt>
      <trkpt lat="44.4177" lon="5.39876">
        <ele>1253.2</ele>
        <time>2023-07-24T08:12:39Z</time>
      </trkpt>
      <trkpt lat="44.4177" lon="5.39876">
        <ele>1253.2</ele>
        <time>2023-07-24T08:12:40Z</time>
      </trkpt>
      <trkpt lat="44.4177" lon="5.39876">
        <ele>1253.2</ele>
        <time>2023-07-24T08:12:41Z</time>
      </trkpt>
      <trkpt lat="44.41767" lon="5.39868">
        <ele>1253.7</ele>
        <time>2023-07-24T08:12:51Z</time>
      </trkpt>
      <trkpt lat="44.41767" lon="5.39867">
        <ele>1253.7</ele>
        <time>2023-07-24T08:12:52Z</time>
      </trkpt>
      <trkpt lat="44.41767" lon="5.39866">
        <ele>1253.8</ele>
        <time>2023-07-24T08:12:53Z</time>
      </trkpt>
      <trkpt lat="44.41766" lon="5.39865">
        <ele>1253.8</ele>
        <time>2023-07-24T08:12:54Z</time>
      </trkpt>
      <trkpt lat="44.41766" lon="5.39865">
        <ele>1253.9</ele>
        <time>2023-07-24T08:12:55Z</time>
      </trkpt>
      <trkpt lat="44.41766" lon="5.39865">
        <ele>1253.9</ele>
        <time>2023-07-24T08:12:56Z</time>
      </trkpt>
      <trkpt lat="44.41766" lon="5.39864">
        <ele>1253.9</ele>
        <time>2023-07-24T08:12:57Z</time>
      </trkpt>
      <trkpt lat="44.41766" lon="5.39864">
        <ele>1253.9</ele>
        <time>2023-07-24T08:12:58Z</time>
      </trkpt>
      <trkpt lat="44.41766" lon="5.39864">
        <ele>1253.9</ele>
        <time>2023-07-24T08:12:59Z</time>
      </trkpt>
      <trkpt lat="44.41765" lon="5.39864">
        <ele>1253.9</ele>
        <time>2023-07-24T08:13:00Z</time>
      </trkpt>
      <trkpt lat="44.41765" lon="5.39864">
        <ele>1253.9</ele>
        <time>2023-07-24T08:13:01Z</time>
      </trkpt>
      <trkpt lat="44.41765" lon="5.39864">
        <ele>1253.9</ele>
        <time>2023-07-24T08:13:02Z</time>
      </trkpt>
      <trkpt lat="44.41765" lon="5.39864">
        <ele>1253.9</ele>
        <time>2023-07-24T08:13:03Z</time>
      </trkpt>
      <trkpt lat="44.41765" lon="5.39864">
        <ele>1253.9</ele>
        <time>2023-07-24T08:13:04Z</time>
      </trkpt>
      <trkpt lat="44.41765" lon="5.39864">
        <ele>1253.9</ele>
        <time>2023-07-24T08:13:05Z</time>
      </trkpt>
      <trkpt lat="44.41765" lon="5.39864">
        <ele>1253.9</ele>
        <time>2023-07-24T08:13:06Z</time>
      </trkpt>
      <trkpt lat="44.41763" lon="5.39862">
        <ele>1254.1</ele>
        <time>2023-07-24T08:13:11Z</time>
      </trkpt>
      <trkpt lat="44.41763" lon="5.39862">
        <ele>1254.1</ele>
        <time>2023-07-24T08:13:12Z</time>
      </trkpt>
      <trkpt lat="44.41763" lon="5.39862">
        <ele>1254.1</ele>
        <time>2023-07-24T08:13:13Z</time>
      </trkpt>
      <trkpt lat="44.41763" lon="5.39861">
        <ele>1254.1</ele>
        <time>2023-07-24T08:13:14Z</time>
      </trkpt>
      <trkpt lat="44.41763" lon="5.39861">
        <ele>1254.2</ele>
        <time>2023-07-24T08:13:15Z</time>
      </trkpt>
      <trkpt lat="44.41762" lon="5.3986">
        <ele>1254.2</ele>
        <time>2023-07-24T08:13:16Z</time>
      </trkpt>
      <trkpt lat="44.41762" lon="5.39859">
        <ele>1254.3</ele>
        <time>2023-07-24T08:13:17Z</time>
      </trkpt>
      <trkpt lat="44.41762" lon="5.39858">
        <ele>1254.3</ele>
        <time>2023-07-24T08:13:18Z</time>
      </trkpt>
      <trkpt lat="44.41762" lon="5.39858">
        <ele>1254.4</ele>
        <time>2023-07-24T08:13:19Z</time>
      </trkpt>
      <trkpt lat="44.41762" lon="5.39858">
        <ele>1254.4</ele>
        <time>2023-07-24T08:13:20Z</time>
      </trkpt>
      <trkpt lat="44.41761" lon="5.39856">
        <ele>1254.4</ele>
        <time>2023-07-24T08:13:21Z</time>
      </trkpt>
      <trkpt lat="44.4176" lon="5.39855">
        <ele>1254.5</ele>
        <time>2023-07-24T08:13:22Z</time>
      </trkpt>
      <trkpt lat="44.4176" lon="5.39854">
        <ele>1254.6</ele>
        <time>2023-07-24T08:13:23Z</time>
      </trkpt>
      <trkpt lat="44.41759" lon="5.39853">
        <ele>1254.7</ele>
        <time>2023-07-24T08:13:24Z</time>
      </trkpt>
      <trkpt lat="44.41758" lon="5.39852">
        <ele>1254.7</ele>
        <time>2023-07-24T08:13:25Z</time>
      </trkpt>
      <trkpt lat="44.41758" lon="5.39852">
        <ele>1254.7</ele>
        <time>2023-07-24T08:13:26Z</time>
      </trkpt>
      <trkpt lat="44.41758" lon="5.39852">
        <ele>1254.8</ele>
        <time>2023-07-24T08:13:27Z</time>
      </trkpt>
      <trkpt lat="44.41757" lon="5.39851">
        <ele>1254.8</ele>
        <time>2023-07-24T08:13:28Z</time>
      </trkpt>
      <trkpt lat="44.41756" lon="5.3985">
        <ele>1254.9</ele>
        <time>2023-07-24T08:13:29Z</time>
      </trkpt>
      <trkpt lat="44.41756" lon="5.3985">
        <ele>1254.9</ele>
        <time>2023-07-24T08:13:30Z</time>
      </trkpt>
      <trkpt lat="44.41756" lon="5.39849">
        <ele>1255</ele>
        <time>2023-07-24T08:13:31Z</time>
      </trkpt>
      <trkpt lat="44.41756" lon="5.39849">
        <ele>1255</ele>
        <time>2023-07-24T08:13:32Z</time>
      </trkpt>
      <trkpt lat="44.41755" lon="5.39849">
        <ele>1255</ele>
        <time>2023-07-24T08:13:33Z</time>
      </trkpt>
      <trkpt lat="44.41754" lon="5.39848">
        <ele>1255.1</ele>
        <time>2023-07-24T08:13:34Z</time>
      </trkpt>
      <trkpt lat="44.41754" lon="5.39847">
        <ele>1255.2</ele>
        <time>2023-07-24T08:13:35Z</time>
      </trkpt>
      <trkpt lat="44.41753" lon="5.39846">
        <ele>1255.2</ele>
        <time>2023-07-24T08:13:36Z</time>
      </trkpt>
      <trkpt lat="44.41753" lon="5.39846">
        <ele>1255.3</ele>
        <time>2023-07-24T08:13:37Z</time>
      </trkpt>
      <trkpt lat="44.41753" lon="5.39845">
        <ele>1255.3</ele>
        <time>2023-07-24T08:13:38Z</time>
      </trkpt>
      <trkpt lat="44.41753" lon="5.39845">
        <ele>1255.3</ele>
        <time>2023-07-24T08:13:39Z</time>
      </trkpt>
      <trkpt lat="44.41753" lon="5.39845">
        <ele>1255.3</ele>
        <time>2023-07-24T08:13:40Z</time>
      </trkpt>
      <trkpt lat="44.41753" lon="5.39845">
        <ele>1255.3</ele>
        <time>2023-07-24T08:13:41Z</time>
      </trkpt>
      <trkpt lat="44.41753" lon="5.39845">
        <ele>1255.3</ele>
        <time>2023-07-24T08:13:42Z</time>
      </trkpt>
      <trkpt lat="44.41753" lon="5.39845">
        <ele>1255.3</ele>
        <time>2023-07-24T08:13:43Z</time>
      </trkpt>
      <trkpt lat="44.41753" lon="5.39845">
        <ele>1255.3</ele>
        <time>2023-07-24T08:13:44Z</time>
      </trkpt>
      <trkpt lat="44.41753" lon="5.39845">
        <ele>1255.3</ele>
        <time>2023-07-24T08:13:45Z</time>
      </trkpt>
      <trkpt lat="44.41753" lon="5.39845">
        <ele>1255.3</ele>
        <time>2023-07-24T08:13:46Z</time>
      </trkpt>
      <trkpt lat="44.41753" lon="5.39845">
        <ele>1255.3</ele>
        <time>2023-07-24T08:13:47Z</time>
      </trkpt>
      <trkpt lat="44.41753" lon="5.39845">
        <ele>1255.3</ele>
        <time>2023-07-24T08:13:48Z</time>
      </trkpt>
      <trkpt lat="44.4175" lon="5.3984">
        <ele>1255.7</ele>
        <time>2023-07-24T08:14:07Z</time>
      </trkpt>
      <trkpt lat="44.41749" lon="5.39839">
        <ele>1255.7</ele>
        <time>2023-07-24T08:14:08Z</time>
      </trkpt>
      <trkpt lat="44.41749" lon="5.39838">
        <ele>1255.8</ele>
        <time>2023-07-24T08:14:09Z</time>
      </trkpt>
      <trkpt lat="44.41749" lon="5.39838">
        <ele>1255.8</ele>
        <time>2023-07-24T08:14:10Z</time>
      </trkpt>
      <trkpt lat="44.41749" lon="5.39838">
        <ele>1255.8</ele>
        <time>2023-07-24T08:14:11Z</time>
      </trkpt>
      <trkpt lat="44.41749" lon="5.39837">
        <ele>1255.8</ele>
        <time>2023-07-24T08:14:12Z</time>
      </trkpt>
      <trkpt lat="44.41749" lon="5.39836">
        <ele>1255.9</ele>
        <time>2023-07-24T08:14:13Z</time>
      </trkpt>
      <trkpt lat="44.41748" lon="5.39835">
        <ele>1256</ele>
        <time>2023-07-24T08:14:14Z</time>
      </trkpt>
      <trkpt lat="44.41748" lon="5.39834">
        <ele>1256</ele>
        <time>2023-07-24T08:14:15Z</time>
      </trkpt>
      <trkpt lat="44.41748" lon="5.39834">
        <ele>1256</ele>
        <time>2023-07-24T08:14:16Z</time>
      </trkpt>
      <trkpt lat="44.41748" lon="5.39834">
        <ele>1256</ele>
        <time>2023-07-24T08:14:17Z</time>
      </trkpt>
      <trkpt lat="44.41748" lon="5.39834">
        <ele>1256</ele>
        <time>2023-07-24T08:14:18Z</time>
      </trkpt>
      <trkpt lat="44.41748" lon="5.39834">
        <ele>1256</ele>
        <time>2023-07-24T08:14:19Z</time>
      </trkpt>
      <trkpt lat="44.41748" lon="5.39834">
        <ele>1256</ele>
        <time>2023-07-24T08:14:20Z</time>
      </trkpt>
      <trkpt lat="44.41748" lon="5.39834">
        <ele>1256</ele>
        <time>2023-07-24T08:14:21Z</time>
      </trkpt>
      <trkpt lat="44.41748" lon="5.39834">
        <ele>1256</ele>
        <time>2023-07-24T08:14:22Z</time>
      </trkpt>
      <trkpt lat="44.41748" lon="5.39834">
        <ele>1256</ele>
        <time>2023-07-24T08:14:23Z</time>
      </trkpt>
      <trkpt lat="44.41747" lon="5.39834">
        <ele>1256.1</ele>
        <time>2023-07-24T08:14:24Z</time>
      </trkpt>
      <trkpt lat="44.41746" lon="5.39834">
        <ele>1256.2</ele>
        <time>2023-07-24T08:14:25Z</time>
      </trkpt>
      <trkpt lat="44.41746" lon="5.39834">
        <ele>1256.2</ele>
        <time>2023-07-24T08:14:26Z</time>
      </trkpt>
      <trkpt lat="44.41747" lon="5.39834">
        <ele>1256.2</ele>
        <time>2023-07-24T08:14:27Z</time>
      </trkpt>
      <trkpt lat="44.41747" lon="5.39834">
        <ele>1256.2</ele>
        <time>2023-07-24T08:14:28Z</time>
      </trkpt>
      <trkpt lat="44.41747" lon="5.39834">
        <ele>1256.2</ele>
        <time>2023-07-24T08:14:29Z</time>
      </trkpt>
      <trkpt lat="44.41747" lon="5.39834">
        <ele>1256.2</ele>
        <time>2023-07-24T08:14:30Z</time>
      </trkpt>
      <trkpt lat="44.41747" lon="5.39834">
        <ele>1256.2</ele>
        <time>2023-07-24T08:14:31Z</time>
      </trkpt>
      <trkpt lat="44.41747" lon="5.39834">
        <ele>1256.2</ele>
        <time>2023-07-24T08:14:32Z</time>
      </trkpt>
      <trkpt lat="44.41747" lon="5.39834">
        <ele>1256.2</ele>
        <time>2023-07-24T08:14:33Z</time>
      </trkpt>
      <trkpt lat="44.41747" lon="5.39834">
        <ele>1256.2</ele>
        <time>2023-07-24T08:14:34Z</time>
      </trkpt>
      <trkpt lat="44.41747" lon="5.39833">
        <ele>1256.2</ele>
        <time>2023-07-24T08:14:35Z</time>
      </trkpt>
      <trkpt lat="44.41746" lon="5.39833">
        <ele>1256.3</ele>
        <time>2023-07-24T08:14:36Z</time>
      </trkpt>
      <trkpt lat="44.41746" lon="5.39833">
        <ele>1256.3</ele>
        <time>2023-07-24T08:14:37Z</time>
      </trkpt>
      <trkpt lat="44.41746" lon="5.39833">
        <ele>1256.3</ele>
        <time>2023-07-24T08:14:38Z</time>
      </trkpt>
      <trkpt lat="44.41746" lon="5.39833">
        <ele>1256.3</ele>
        <time>2023-07-24T08:14:39Z</time>
      </trkpt>
      <trkpt lat="44.41746" lon="5.39833">
        <ele>1256.3</ele>
        <time>2023-07-24T08:14:40Z</time>
      </trkpt>
      <trkpt lat="44.41745" lon="5.39833">
        <ele>1256.4</ele>
        <time>2023-07-24T08:14:41Z</time>
      </trkpt>
      <trkpt lat="44.41744" lon="5.39833">
        <ele>1256.4</ele>
        <time>2023-07-24T08:14:42Z</time>
      </trkpt>
      <trkpt lat="44.41744" lon="5.39833">
        <ele>1256.5</ele>
        <time>2023-07-24T08:14:43Z</time>
      </trkpt>
      <trkpt lat="44.41744" lon="5.39832">
        <ele>1256.5</ele>
        <time>2023-07-24T08:14:44Z</time>
      </trkpt>
      <trkpt lat="44.41744" lon="5.39832">
        <ele>1256.5</ele>
        <time>2023-07-24T08:14:45Z</time>
      </trkpt>
      <trkpt lat="44.41744" lon="5.39832">
        <ele>1256.5</ele>
        <time>2023-07-24T08:14:46Z</time>
      </trkpt>
      <trkpt lat="44.41743" lon="5.39832">
        <ele>1256.6</ele>
        <time>2023-07-24T08:14:47Z</time>
      </trkpt>
      <trkpt lat="44.41743" lon="5.39832">
        <ele>1256.6</ele>
        <time>2023-07-24T08:14:48Z</time>
      </trkpt>
      <trkpt lat="44.41742" lon="5.39832">
        <ele>1256.6</ele>
        <time>2023-07-24T08:14:49Z</time>
      </trkpt>
      <trkpt lat="44.41742" lon="5.39832">
        <ele>1256.6</ele>
        <time>2023-07-24T08:14:50Z</time>
      </trkpt>
      <trkpt lat="44.41742" lon="5.39832">
        <ele>1256.6</ele>
        <time>2023-07-24T08:14:51Z</time>
      </trkpt>
      <trkpt lat="44.41742" lon="5.39832">
        <ele>1256.7</ele>
        <time>2023-07-24T08:14:52Z</time>
      </trkpt>
      <trkpt lat="44.41742" lon="5.39831">
        <ele>1256.7</ele>
        <time>2023-07-24T08:14:53Z</time>
      </trkpt>
      <trkpt lat="44.41741" lon="5.39831">
        <ele>1256.8</ele>
        <time>2023-07-24T08:14:54Z</time>
      </trkpt>
      <trkpt lat="44.4174" lon="5.39831">
        <ele>1256.8</ele>
        <time>2023-07-24T08:14:55Z</time>
      </trkpt>
      <trkpt lat="44.4174" lon="5.3983">
        <ele>1256.9</ele>
        <time>2023-07-24T08:14:56Z</time>
      </trkpt>
      <trkpt lat="44.4174" lon="5.3983">
        <ele>1256.9</ele>
        <time>2023-07-24T08:14:57Z</time>
      </trkpt>
      <trkpt lat="44.4174" lon="5.3983">
        <ele>1256.9</ele>
        <time>2023-07-24T08:14:58Z</time>
      </trkpt>
      <trkpt lat="44.41739" lon="5.3983">
        <ele>1256.9</ele>
        <time>2023-07-24T08:14:59Z</time>
      </trkpt>
      <trkpt lat="44.41739" lon="5.39829">
        <ele>1256.9</ele>
        <time>2023-07-24T08:15:00Z</time>
      </trkpt>
      <trkpt lat="44.41739" lon="5.39829">
        <ele>1257</ele>
        <time>2023-07-24T08:15:01Z</time>
      </trkpt>
      <trkpt lat="44.4174" lon="5.39828">
        <ele>1257</ele>
        <time>2023-07-24T08:15:02Z</time>
      </trkpt>
      <trkpt lat="44.4174" lon="5.39828">
        <ele>1257</ele>
        <time>2023-07-24T08:15:03Z</time>
      </trkpt>
      <trkpt lat="44.41739" lon="5.39828">
        <ele>1257.1</ele>
        <time>2023-07-24T08:15:04Z</time>
      </trkpt>
      <trkpt lat="44.41739" lon="5.39827">
        <ele>1257.1</ele>
        <time>2023-07-24T08:15:05Z</time>
      </trkpt>
      <trkpt lat="44.41739" lon="5.39826">
        <ele>1257.1</ele>
        <time>2023-07-24T08:15:06Z</time>
      </trkpt>
      <trkpt lat="44.41738" lon="5.39826">
        <ele>1257.2</ele>
        <time>2023-07-24T08:15:07Z</time>
      </trkpt>
      <trkpt lat="44.41738" lon="5.39826">
        <ele>1257.2</ele>
        <time>2023-07-24T08:15:08Z</time>
      </trkpt>
      <trkpt lat="44.41727" lon="5.39811">
        <ele>1258.3</ele>
        <time>2023-07-24T08:16:17Z</time>
      </trkpt>
      <trkpt lat="44.41726" lon="5.3981">
        <ele>1258.4</ele>
        <time>2023-07-24T08:16:18Z</time>
      </trkpt>
      <trkpt lat="44.41726" lon="5.3981">
        <ele>1258.4</ele>
        <time>2023-07-24T08:16:19Z</time>
      </trkpt>
      <trkpt lat="44.41725" lon="5.39809">
        <ele>1258.5</ele>
        <time>2023-07-24T08:16:20Z</time>
      </trkpt>
      <trkpt lat="44.41725" lon="5.39809">
        <ele>1258.5</ele>
        <time>2023-07-24T08:16:21Z</time>
      </trkpt>
      <trkpt lat="44.41724" lon="5.39809">
        <ele>1258.5</ele>
        <time>2023-07-24T08:16:22Z</time>
      </trkpt>
      <trkpt lat="44.41725" lon="5.39809">
        <ele>1258.5</ele>
        <time>2023-07-24T08:16:23Z</time>
      </trkpt>
      <trkpt lat="44.41725" lon="5.39809">
        <ele>1258.5</ele>
        <time>2023-07-24T08:16:24Z</time>
      </trkpt>
      <trkpt lat="44.41725" lon="5.39809">
        <ele>1258.5</ele>
        <time>2023-07-24T08:16:25Z</time>
      </trkpt>
      <trkpt lat="44.41724" lon="5.39808">
        <ele>1258.6</ele>
        <time>2023-07-24T08:16:26Z</time>
      </trkpt>
      <trkpt lat="44.41724" lon="5.39808">
        <ele>1258.6</ele>
        <time>2023-07-24T08:16:27Z</time>
      </trkpt>
      <trkpt lat="44.41724" lon="5.39807">
        <ele>1258.7</ele>
        <time>2023-07-24T08:16:28Z</time>
      </trkpt>
      <trkpt lat="44.41723" lon="5.39807">
        <ele>1258.7</ele>
        <time>2023-07-24T08:16:29Z</time>
      </trkpt>
      <trkpt lat="44.41723" lon="5.39806">
        <ele>1258.8</ele>
        <time>2023-07-24T08:16:30Z</time>
      </trkpt>
      <trkpt lat="44.41722" lon="5.39806">
        <ele>1258.8</ele>
        <time>2023-07-24T08:16:31Z</time>
      </trkpt>
      <trkpt lat="44.41722" lon="5.39805">
        <ele>1258.9</ele>
        <time>2023-07-24T08:16:32Z</time>
      </trkpt>
      <trkpt lat="44.41722" lon="5.39805">
        <ele>1258.9</ele>
        <time>2023-07-24T08:16:33Z</time>
      </trkpt>
      <trkpt lat="44.41722" lon="5.39805">
        <ele>1258.9</ele>
        <time>2023-07-24T08:16:34Z</time>
      </trkpt>
      <trkpt lat="44.41722" lon="5.39805">
        <ele>1258.9</ele>
        <time>2023-07-24T08:16:35Z</time>
      </trkpt>
      <trkpt lat="44.41721" lon="5.39804">
        <ele>1258.9</ele>
        <time>2023-07-24T08:16:36Z</time>
      </trkpt>
      <trkpt lat="44.41721" lon="5.39804">
        <ele>1258.9</ele>
        <time>2023-07-24T08:16:37Z</time>
      </trkpt>
      <trkpt lat="44.4172" lon="5.39804">
        <ele>1259</ele>
        <time>2023-07-24T08:16:38Z</time>
      </trkpt>
      <trkpt lat="44.4172" lon="5.39803">
        <ele>1259</ele>
        <time>2023-07-24T08:16:39Z</time>
      </trkpt>
      <trkpt lat="44.4172" lon="5.39803">
        <ele>1259</ele>
        <time>2023-07-24T08:16:40Z</time>
      </trkpt>
      <trkpt lat="44.41719" lon="5.39803">
        <ele>1259</ele>
        <time>2023-07-24T08:16:41Z</time>
      </trkpt>
      <trkpt lat="44.41719" lon="5.39803">
        <ele>1259.1</ele>
        <time>2023-07-24T08:16:42Z</time>
      </trkpt>
      <trkpt lat="44.41719" lon="5.39802">
        <ele>1259.1</ele>
        <time>2023-07-24T08:16:43Z</time>
      </trkpt>
      <trkpt lat="44.41719" lon="5.39802">
        <ele>1259.1</ele>
        <time>2023-07-24T08:16:44Z</time>
      </trkpt>
      <trkpt lat="44.41718" lon="5.39802">
        <ele>1259.2</ele>
        <time>2023-07-24T08:16:45Z</time>
      </trkpt>
      <trkpt lat="44.41718" lon="5.39802">
        <ele>1259.2</ele>
        <time>2023-07-24T08:16:46Z</time>
      </trkpt>
      <trkpt lat="44.41718" lon="5.39802">
        <ele>1259.2</ele>
        <time>2023-07-24T08:16:47Z</time>
      </trkpt>
      <trkpt lat="44.41718" lon="5.39802">
        <ele>1259.2</ele>
        <time>2023-07-24T08:16:48Z</time>
      </trkpt>
      <trkpt lat="44.41718" lon="5.39802">
        <ele>1259.2</ele>
        <time>2023-07-24T08:16:49Z</time>
      </trkpt>
      <trkpt lat="44.41718" lon="5.39802">
        <ele>1259.2</ele>
        <time>2023-07-24T08:16:50Z</time>
      </trkpt>
      <trkpt lat="44.41718" lon="5.39802">
        <ele>1259.2</ele>
        <time>2023-07-24T08:16:51Z</time>
      </trkpt>
      <trkpt lat="44.41718" lon="5.39802">
        <ele>1259.2</ele>
        <time>2023-07-24T08:16:52Z</time>
      </trkpt>
      <trkpt lat="44.41718" lon="5.39802">
        <ele>1259.2</ele>
        <time>2023-07-24T08:16:53Z</time>
      </trkpt>
      <trkpt lat="44.41718" lon="5.39802">
        <ele>1259.2</ele>
        <time>2023-07-24T08:16:54Z</time>
      </trkpt>
      <trkpt lat="44.41718" lon="5.39802">
        <ele>1259.2</ele>
        <time>2023-07-24T08:16:55Z</time>
      </trkpt>
      <trkpt lat="44.41718" lon="5.39802">
        <ele>1259.2</ele>
        <time>2023-07-24T08:16:56Z</time>
      </trkpt>
      <trkpt lat="44.41708" lon="5.39794">
        <ele>1260</ele>
        <time>2023-07-24T08:18:54Z</time>
      </trkpt>
      <trkpt lat="44.41708" lon="5.39793">
        <ele>1260.1</ele>
        <time>2023-07-24T08:18:55Z</time>
      </trkpt>
      <trkpt lat="44.41707" lon="5.39793">
        <ele>1260.1</ele>
        <time>2023-07-24T08:18:56Z</time>
      </trkpt>
      <trkpt lat="44.41707" lon="5.39793">
        <ele>1260.1</ele>
        <time>2023-07-24T08:18:57Z</time>
      </trkpt>
      <trkpt lat="44.41707" lon="5.39792">
        <ele>1260.1</ele>
        <time>2023-07-24T08:18:58Z</time>
      </trkpt>
      <trkpt lat="44.41707" lon="5.39792">
        <ele>1260.2</ele>
        <time>2023-07-24T08:18:59Z</time>
      </trkpt>
      <trkpt lat="44.41707" lon="5.39792">
        <ele>1260.2</ele>
        <time>2023-07-24T08:19:00Z</time>
      </trkpt>
      <trkpt lat="44.41707" lon="5.39792">
        <ele>1260.2</ele>
        <time>2023-07-24T08:19:01Z</time>
      </trkpt>
      <trkpt lat="44.41707" lon="5.39792">
        <ele>1260.2</ele>
        <time>2023-07-24T08:19:02Z</time>
      </trkpt>
      <trkpt lat="44.41707" lon="5.39792">
        <ele>1260.2</ele>
        <time>2023-07-24T08:19:03Z</time>
      </trkpt>
      <trkpt lat="44.41707" lon="5.39792">
        <ele>1260.2</ele>
        <time>2023-07-24T08:19:04Z</time>
      </trkpt>
      <trkpt lat="44.41707" lon="5.39792">
        <ele>1260.2</ele>
        <time>2023-07-24T08:19:05Z</time>
      </trkpt>
      <trkpt lat="44.41707" lon="5.39792">
        <ele>1260.2</ele>
        <time>2023-07-24T08:19:06Z</time>
      </trkpt>
      <trkpt lat="44.41707" lon="5.39792">
        <ele>1260.2</ele>
        <time>2023-07-24T08:19:07Z</time>
      </trkpt>
      <trkpt lat="44.41707" lon="5.39792">
        <ele>1260.2</ele>
        <time>2023-07-24T08:19:08Z</time>
      </trkpt>
      <trkpt lat="44.41694" lon="5.3979">
        <ele>1261.1</ele>
        <time>2023-07-24T08:23:35Z</time>
      </trkpt>
      <trkpt lat="44.41693" lon="5.3979">
        <ele>1261.2</ele>
        <time>2023-07-24T08:23:36Z</time>
      </trkpt>
      <trkpt lat="44.41692" lon="5.3979">
        <ele>1261.2</ele>
        <time>2023-07-24T08:23:37Z</time>
      </trkpt>
      <trkpt lat="44.41691" lon="5.3979">
        <ele>1261.3</ele>
        <time>2023-07-24T08:23:38Z</time>
      </trkpt>
      <trkpt lat="44.41691" lon="5.3979">
        <ele>1261.3</ele>
        <time>2023-07-24T08:23:39Z</time>
      </trkpt>
      <trkpt lat="44.41691" lon="5.3979">
        <ele>1261.3</ele>
        <time>2023-07-24T08:23:40Z</time>
      </trkpt>
      <trkpt lat="44.4169" lon="5.39791">
        <ele>1261.7</ele>
        <time>2023-07-24T08:23:41Z</time>
      </trkpt>
      <trkpt lat="44.41689" lon="5.39791">
        <ele>1262.1</ele>
        <time>2023-07-24T08:23:42Z</time>
      </trkpt>
      <trkpt lat="44.41689" lon="5.39792">
        <ele>1262.4</ele>
        <time>2023-07-24T08:23:43Z</time>
      </trkpt>
      <trkpt lat="44.41688" lon="5.39793">
        <ele>1262.8</ele>
        <time>2023-07-24T08:23:44Z</time>
      </trkpt>
      <trkpt lat="44.41688" lon="5.39794">
        <ele>1263.1</ele>
        <time>2023-07-24T08:23:45Z</time>
      </trkpt>
      <trkpt lat="44.41687" lon="5.39795">
        <ele>1263.4</ele>
        <time>2023-07-24T08:23:46Z</time>
      </trkpt>
      <trkpt lat="44.41687" lon="5.39795">
        <ele>1263.7</ele>
        <time>2023-07-24T08:23:47Z</time>
      </trkpt>
      <trkpt lat="44.41687" lon="5.39796">
        <ele>1263.8</ele>
        <time>2023-07-24T08:23:48Z</time>
      </trkpt>
      <trkpt lat="44.41687" lon="5.39796">
        <ele>1263.9</ele>
        <time>2023-07-24T08:23:49Z</time>
      </trkpt>
      <trkpt lat="44.41686" lon="5.39796">
        <ele>1264</ele>
        <time>2023-07-24T08:23:50Z</time>
      </trkpt>
      <trkpt lat="44.41687" lon="5.39797">
        <ele>1264.1</ele>
        <time>2023-07-24T08:23:51Z</time>
      </trkpt>
      <trkpt lat="44.41687" lon="5.39797">
        <ele>1264.3</ele>
        <time>2023-07-24T08:23:52Z</time>
      </trkpt>
      <trkpt lat="44.41687" lon="5.39798">
        <ele>1264.6</ele>
        <time>2023-07-24T08:23:53Z</time>
      </trkpt>
      <trkpt lat="44.41688" lon="5.39798">
        <ele>1264.8</ele>
        <time>2023-07-24T08:23:54Z</time>
      </trkpt>
      <trkpt lat="44.41688" lon="5.39798">
        <ele>1264.9</ele>
        <time>2023-07-24T08:23:55Z</time>
      </trkpt>
      <trkpt lat="44.41689" lon="5.39798">
        <ele>1265</ele>
        <time>2023-07-24T08:23:56Z</time>
      </trkpt>
      <trkpt lat="44.41689" lon="5.39798">
        <ele>1265</ele>
        <time>2023-07-24T08:23:57Z</time>
      </trkpt>
      <trkpt lat="44.41689" lon="5.39798">
        <ele>1265</ele>
        <time>2023-07-24T08:23:58Z</time>
      </trkpt>
      <trkpt lat="44.41689" lon="5.39798">
        <ele>1265</ele>
        <time>2023-07-24T08:23:59Z</time>
      </trkpt>
      <trkpt lat="44.41689" lon="5.39798">
        <ele>1265.1</ele>
        <time>2023-07-24T08:24:00Z</time>
      </trkpt>
      <trkpt lat="44.41689" lon="5.39798">
        <ele>1265.1</ele>
        <time>2023-07-24T08:24:01Z</time>
      </trkpt>
      <trkpt lat="44.41688" lon="5.39798">
        <ele>1265.3</ele>
        <time>2023-07-24T08:24:02Z</time>
      </trkpt>
      <trkpt lat="44.41688" lon="5.39799">
        <ele>1265.5</ele>
        <time>2023-07-24T08:24:03Z</time>
      </trkpt>
      <trkpt lat="44.41687" lon="5.39799">
        <ele>1267.2</ele>
        <time>2023-07-24T08:24:04Z</time>
      </trkpt>
      <trkpt lat="44.41685" lon="5.39795">
        <ele>1267.1</ele>
        <time>2023-07-24T08:24:15Z</time>
      </trkpt>
      <trkpt lat="44.41684" lon="5.39795">
        <ele>1267.1</ele>
        <time>2023-07-24T08:24:16Z</time>
      </trkpt>
      <trkpt lat="44.41684" lon="5.39793">
        <ele>1267.1</ele>
        <time>2023-07-24T08:24:17Z</time>
      </trkpt>
      <trkpt lat="44.41683" lon="5.39792">
        <ele>1267.1</ele>
        <time>2023-07-24T08:24:18Z</time>
      </trkpt>
      <trkpt lat="44.41683" lon="5.39791">
        <ele>1267.1</ele>
        <time>2023-07-24T08:24:19Z</time>
      </trkpt>
      <trkpt lat="44.41683" lon="5.3979">
        <ele>1267.1</ele>
        <time>2023-07-24T08:24:20Z</time>
      </trkpt>
      <trkpt lat="44.41683" lon="5.3979">
        <ele>1267.1</ele>
        <time>2023-07-24T08:24:21Z</time>
      </trkpt>
      <trkpt lat="44.41683" lon="5.3979">
        <ele>1267</ele>
        <time>2023-07-24T08:24:22Z</time>
      </trkpt>
      <trkpt lat="44.41683" lon="5.3979">
        <ele>1267</ele>
        <time>2023-07-24T08:24:23Z</time>
      </trkpt>
      <trkpt lat="44.41683" lon="5.3979">
        <ele>1267</ele>
        <time>2023-07-24T08:24:24Z</time>
      </trkpt>
      <trkpt lat="44.41683" lon="5.3979">
        <ele>1267</ele>
        <time>2023-07-24T08:24:25Z</time>
      </trkpt>
      <trkpt lat="44.41683" lon="5.3979">
        <ele>1267</ele>
        <time>2023-07-24T08:24:26Z</time>
      </trkpt>
      <trkpt lat="44.41683" lon="5.3979">
        <ele>1267</ele>
        <time>2023-07-24T08:24:27Z</time>
      </trkpt>
      <trkpt lat="44.41683" lon="5.3979">
        <ele>1267</ele>
        <time>2023-07-24T08:24:28Z</time>
      </trkpt>
      <trkpt lat="44.41683" lon="5.3979">
        <ele>1267</ele>
        <time>2023-07-24T08:24:29Z</time>
      </trkpt>
      <trkpt lat="44.41683" lon="5.3979">
        <ele>1267</ele>
        <time>2023-07-24T08:24:30Z</time>
      </trkpt>
      <trkpt lat="44.41683" lon="5.3979">
        <ele>1267</ele>
        <time>2023-07-24T08:24:31Z</time>
      </trkpt>
      <trkpt lat="44.41683" lon="5.3979">
        <ele>1267</ele>
        <time>2023-07-24T08:24:32Z</time>
      </trkpt>
      <trkpt lat="44.41683" lon="5.39796">
        <ele>1267</ele>
        <time>2023-07-24T08:24:53Z</time>
      </trkpt>
      <trkpt lat="44.41683" lon="5.39796">
        <ele>1267</ele>
        <time>2023-07-24T08:24:54Z</time>
      </trkpt>
      <trkpt lat="44.41683" lon="5.39797">
        <ele>1267</ele>
        <time>2023-07-24T08:24:55Z</time>
      </trkpt>
      <trkpt lat="44.41683" lon="5.39797">
        <ele>1267</ele>
        <time>2023-07-24T08:24:56Z</time>
      </trkpt>
      <trkpt lat="44.41683" lon="5.39797">
        <ele>1267</ele>
        <time>2023-07-24T08:24:57Z</time>
      </trkpt>
      <trkpt lat="44.41683" lon="5.39797">
        <ele>1267</ele>
        <time>2023-07-24T08:24:58Z</time>
      </trkpt>
      <trkpt lat="44.41683" lon="5.39797">
        <ele>1267</ele>
        <time>2023-07-24T08:24:59Z</time>
      </trkpt>
      <trkpt lat="44.41683" lon="5.39797">
        <ele>1267</ele>
        <time>2023-07-24T08:25:00Z</time>
      </trkpt>
      <trkpt lat="44.41683" lon="5.39797">
        <ele>1267</ele>
        <time>2023-07-24T08:25:01Z</time>
      </trkpt>
      <trkpt lat="44.41683" lon="5.39797">
        <ele>1267</ele>
        <time>2023-07-24T08:25:02Z</time>
      </trkpt>
      <trkpt lat="44.41683" lon="5.39797">
        <ele>1267</ele>
        <time>2023-07-24T08:25:03Z</time>
      </trkpt>
      <trkpt lat="44.41683" lon="5.39797">
        <ele>1267</ele>
        <time>2023-07-24T08:25:04Z</time>
      </trkpt>
      <trkpt lat="44.41683" lon="5.39797">
        <ele>1267</ele>
        <time>2023-07-24T08:25:05Z</time>
      </trkpt>
      <trkpt lat="44.41683" lon="5.39797">
        <ele>1267</ele>
        <time>2023-07-24T08:25:06Z</time>
      </trkpt>
      <trkpt lat="44.41686" lon="5.39799">
        <ele>1267</ele>
        <time>2023-07-24T08:25:21Z</time>
      </trkpt>
      <trkpt lat="44.41686" lon="5.398">
        <ele>1267</ele>
        <time>2023-07-24T08:25:22Z</time>
      </trkpt>
      <trkpt lat="44.41687" lon="5.39801">
        <ele>1267</ele>
        <time>2023-07-24T08:25:23Z</time>
      </trkpt>
      <trkpt lat="44.41688" lon="5.39802">
        <ele>1267</ele>
        <time>2023-07-24T08:25:24Z</time>
      </trkpt>
      <trkpt lat="44.41688" lon="5.39802">
        <ele>1267</ele>
        <time>2023-07-24T08:25:25Z</time>
      </trkpt>
      <trkpt lat="44.41689" lon="5.39802">
        <ele>1267</ele>
        <time>2023-07-24T08:25:26Z</time>
      </trkpt>
      <trkpt lat="44.41689" lon="5.39803">
        <ele>1267</ele>
        <time>2023-07-24T08:25:27Z</time>
      </trkpt>
      <trkpt lat="44.41689" lon="5.39803">
        <ele>1267</ele>
        <time>2023-07-24T08:25:28Z</time>
      </trkpt>
      <trkpt lat="44.4169" lon="5.39804">
        <ele>1267</ele>
        <time>2023-07-24T08:25:29Z</time>
      </trkpt>
      <trkpt lat="44.4169" lon="5.39805">
        <ele>1267</ele>
        <time>2023-07-24T08:25:30Z</time>
      </trkpt>
      <trkpt lat="44.4169" lon="5.39805">
        <ele>1267</ele>
        <time>2023-07-24T08:25:31Z</time>
      </trkpt>
      <trkpt lat="44.4169" lon="5.39806">
        <ele>1267</ele>
        <time>2023-07-24T08:25:32Z</time>
      </trkpt>
      <trkpt lat="44.41689" lon="5.39806">
        <ele>1267</ele>
        <time>2023-07-24T08:25:33Z</time>
      </trkpt>
      <trkpt lat="44.41689" lon="5.39805">
        <ele>1267</ele>
        <time>2023-07-24T08:25:34Z</time>
      </trkpt>
      <trkpt lat="44.41689" lon="5.39805">
        <ele>1267</ele>
        <time>2023-07-24T08:25:35Z</time>
      </trkpt>
      <trkpt lat="44.41689" lon="5.39805">
        <ele>1267</ele>
        <time>2023-07-24T08:25:36Z</time>
      </trkpt>
      <trkpt lat="44.41689" lon="5.39805">
        <ele>1267</ele>
        <time>2023-07-24T08:25:37Z</time>
      </trkpt>
      <trkpt lat="44.41689" lon="5.39805">
        <ele>1267</ele>
        <time>2023-07-24T08:25:38Z</time>
      </trkpt>
      <trkpt lat="44.41689" lon="5.39805">
        <ele>1267</ele>
        <time>2023-07-24T08:25:39Z</time>
      </trkpt>
      <trkpt lat="44.41689" lon="5.39805">
        <ele>1267</ele>
        <time>2023-07-24T08:25:40Z</time>
      </trkpt>
      <trkpt lat="44.41689" lon="5.39805">
        <ele>1267</ele>
        <time>2023-07-24T08:25:41Z</time>
      </trkpt>
      <trkpt lat="44.41687" lon="5.39805">
        <ele>1267.1</ele>
        <time>2023-07-24T08:26:16Z</time>
      </trkpt>
      <trkpt lat="44.41686" lon="5.39805">
        <ele>1267.1</ele>
        <time>2023-07-24T08:26:17Z</time>
      </trkpt>
      <trkpt lat="44.41686" lon="5.39805">
        <ele>1267.1</ele>
        <time>2023-07-24T08:26:18Z</time>
      </trkpt>
      <trkpt lat="44.41685" lon="5.39805">
        <ele>1267.1</ele>
        <time>2023-07-24T08:26:19Z</time>
      </trkpt>
      <trkpt lat="44.41684" lon="5.39805">
        <ele>1267.1</ele>
        <time>2023-07-24T08:26:20Z</time>
      </trkpt>
      <trkpt lat="44.41684" lon="5.39804">
        <ele>1267.1</ele>
        <time>2023-07-24T08:26:22Z</time>
      </trkpt>
      <trkpt lat="44.41684" lon="5.39804">
        <ele>1267.1</ele>
        <time>2023-07-24T08:26:23Z</time>
      </trkpt>
      <trkpt lat="44.41684" lon="5.39804">
        <ele>1267.1</ele>
        <time>2023-07-24T08:26:24Z</time>
      </trkpt>
      <trkpt lat="44.41684" lon="5.39804">
        <ele>1267.1</ele>
        <time>2023-07-24T08:26:25Z</time>
      </trkpt>
      <trkpt lat="44.41684" lon="5.39804">
        <ele>1267.1</ele>
        <time>2023-07-24T08:26:26Z</time>
      </trkpt>
      <trkpt lat="44.41684" lon="5.39804">
        <ele>1267.1</ele>
        <time>2023-07-24T08:26:27Z</time>
      </trkpt>
      <trkpt lat="44.41684" lon="5.39804">
        <ele>1267.1</ele>
        <time>2023-07-24T08:26:28Z</time>
      </trkpt>
      <trkpt lat="44.41683" lon="5.39804">
        <ele>1267.2</ele>
        <time>2023-07-24T08:26:29Z</time>
      </trkpt>
      <trkpt lat="44.41684" lon="5.39803">
        <ele>1267.2</ele>
        <time>2023-07-24T08:26:30Z</time>
      </trkpt>
      <trkpt lat="44.41684" lon="5.39803">
        <ele>1267.2</ele>
        <time>2023-07-24T08:26:31Z</time>
      </trkpt>
      <trkpt lat="44.41685" lon="5.39803">
        <ele>1267.2</ele>
        <time>2023-07-24T08:26:32Z</time>
      </trkpt>
      <trkpt lat="44.41685" lon="5.39802">
        <ele>1267.2</ele>
        <time>2023-07-24T08:26:33Z</time>
      </trkpt>
      <trkpt lat="44.41685" lon="5.39802">
        <ele>1267.2</ele>
        <time>2023-07-24T08:26:34Z</time>
      </trkpt>
      <trkpt lat="44.41685" lon="5.39802">
        <ele>1267.2</ele>
        <time>2023-07-24T08:26:35Z</time>
      </trkpt>
      <trkpt lat="44.41685" lon="5.39802">
        <ele>1267.2</ele>
        <time>2023-07-24T08:26:36Z</time>
      </trkpt>
      <trkpt lat="44.41685" lon="5.39802">
        <ele>1267.2</ele>
        <time>2023-07-24T08:26:38Z</time>
      </trkpt>
      <trkpt lat="44.41685" lon="5.39802">
        <ele>1267.2</ele>
        <time>2023-07-24T08:26:39Z</time>
      </trkpt>
      <trkpt lat="44.41685" lon="5.39802">
        <ele>1267.2</ele>
        <time>2023-07-24T08:26:40Z</time>
      </trkpt>
      <trkpt lat="44.41685" lon="5.39802">
        <ele>1267.2</ele>
        <time>2023-07-24T08:26:41Z</time>
      </trkpt>
      <trkpt lat="44.41685" lon="5.39802">
        <ele>1267.2</ele>
        <time>2023-07-24T08:26:42Z</time>
      </trkpt>
      <trkpt lat="44.41685" lon="5.39802">
        <ele>1267.2</ele>
        <time>2023-07-24T08:26:43Z</time>
      </trkpt>
      <trkpt lat="44.41685" lon="5.39802">
        <ele>1267.2</ele>
        <time>2023-07-24T08:26:44Z</time>
      </trkpt>
      <trkpt lat="44.41685" lon="5.39801">
        <ele>1267.3</ele>
        <time>2023-07-24T08:27:13Z</time>
      </trkpt>
      <trkpt lat="44.41685" lon="5.39801">
        <ele>1267.3</ele>
        <time>2023-07-24T08:27:14Z</time>
      </trkpt>
      <trkpt lat="44.41685" lon="5.39801">
        <ele>1267.3</ele>
        <time>2023-07-24T08:27:15Z</time>
      </trkpt>
      <trkpt lat="44.41685" lon="5.39801">
        <ele>1267.3</ele>
        <time>2023-07-24T08:27:16Z</time>
      </trkpt>
      <trkpt lat="44.41685" lon="5.39801">
        <ele>1267.3</ele>
        <time>2023-07-24T08:27:17Z</time>
      </trkpt>
      <trkpt lat="44.41685" lon="5.39801">
        <ele>1267.3</ele>
        <time>2023-07-24T08:27:18Z</time>
      </trkpt>
      <trkpt lat="44.41687" lon="5.398">
        <ele>1267.3</ele>
        <time>2023-07-24T08:27:19Z</time>
      </trkpt>
      <trkpt lat="44.41687" lon="5.398">
        <ele>1267.3</ele>
        <time>2023-07-24T08:27:20Z</time>
      </trkpt>
      <trkpt lat="44.41688" lon="5.398">
        <ele>1267.3</ele>
        <time>2023-07-24T08:27:21Z</time>
      </trkpt>
      <trkpt lat="44.41688" lon="5.398">
        <ele>1267.3</ele>
        <time>2023-07-24T08:27:22Z</time>
      </trkpt>
      <trkpt lat="44.41688" lon="5.398">
        <ele>1267.3</ele>
        <time>2023-07-24T08:27:23Z</time>
      </trkpt>
      <trkpt lat="44.41688" lon="5.398">
        <ele>1267.3</ele>
        <time>2023-07-24T08:27:24Z</time>
      </trkpt>
      <trkpt lat="44.41687" lon="5.398">
        <ele>1267.3</ele>
        <time>2023-07-24T08:27:25Z</time>
      </trkpt>
      <trkpt lat="44.41687" lon="5.398">
        <ele>1267.3</ele>
        <time>2023-07-24T08:27:26Z</time>
      </trkpt>
      <trkpt lat="44.41687" lon="5.398">
        <ele>1267.4</ele>
        <time>2023-07-24T08:27:27Z</time>
      </trkpt>
      <trkpt lat="44.41687" lon="5.39799">
        <ele>1267.4</ele>
        <time>2023-07-24T08:27:28Z</time>
      </trkpt>
      <trkpt lat="44.41687" lon="5.39799">
        <ele>1267.4</ele>
        <time>2023-07-24T08:27:29Z</time>
      </trkpt>
      <trkpt lat="44.41687" lon="5.39799">
        <ele>1267.4</ele>
        <time>2023-07-24T08:27:30Z</time>
      </trkpt>
      <trkpt lat="44.41687" lon="5.39799">
        <ele>1267.4</ele>
        <time>2023-07-24T08:27:32Z</time>
      </trkpt>
      <trkpt lat="44.41685" lon="5.39807">
        <ele>1267.6</ele>
        <time>2023-07-24T08:29:29Z</time>
      </trkpt>
      <trkpt lat="44.41685" lon="5.39807">
        <ele>1267.6</ele>
        <time>2023-07-24T08:29:30Z</time>
      </trkpt>
      <trkpt lat="44.41685" lon="5.39807">
        <ele>1267.6</ele>
        <time>2023-07-24T08:29:31Z</time>
      </trkpt>
      <trkpt lat="44.41684" lon="5.39807">
        <ele>1267.6</ele>
        <time>2023-07-24T08:29:32Z</time>
      </trkpt>
      <trkpt lat="44.41684" lon="5.39807">
        <ele>1267.6</ele>
        <time>2023-07-24T08:29:33Z</time>
      </trkpt>
      <trkpt lat="44.41684" lon="5.39807">
        <ele>1267.6</ele>
        <time>2023-07-24T08:29:34Z</time>
      </trkpt>
      <trkpt lat="44.41684" lon="5.39807">
        <ele>1267.6</ele>
        <time>2023-07-24T08:29:35Z</time>
      </trkpt>
      <trkpt lat="44.41684" lon="5.39807">
        <ele>1267.6</ele>
        <time>2023-07-24T08:29:36Z</time>
      </trkpt>
      <trkpt lat="44.41685" lon="5.39807">
        <ele>1267.6</ele>
        <time>2023-07-24T08:29:37Z</time>
      </trkpt>
      <trkpt lat="44.41685" lon="5.39807">
        <ele>1267.6</ele>
        <time>2023-07-24T08:29:38Z</time>
      </trkpt>
      <trkpt lat="44.41684" lon="5.39808">
        <ele>1267.7</ele>
        <time>2023-07-24T08:29:39Z</time>
      </trkpt>
      <trkpt lat="44.41684" lon="5.39809">
        <ele>1267.7</ele>
        <time>2023-07-24T08:29:40Z</time>
      </trkpt>
      <trkpt lat="44.41686" lon="5.39801">
        <ele>1267.9</ele>
        <time>2023-07-24T08:30:43Z</time>
      </trkpt>
      <trkpt lat="44.41687" lon="5.39801">
        <ele>1268</ele>
        <time>2023-07-24T08:30:44Z</time>
      </trkpt>
      <trkpt lat="44.41687" lon="5.398">
        <ele>1268</ele>
        <time>2023-07-24T08:30:45Z</time>
      </trkpt>
      <trkpt lat="44.41688" lon="5.39799">
        <ele>1268</ele>
        <time>2023-07-24T08:30:46Z</time>
      </trkpt>
      <trkpt lat="44.41688" lon="5.39798">
        <ele>1268.1</ele>
        <time>2023-07-24T08:30:47Z</time>
      </trkpt>
      <trkpt lat="44.41689" lon="5.39797">
        <ele>1268.1</ele>
        <time>2023-07-24T08:30:48Z</time>
      </trkpt>
      <trkpt lat="44.4169" lon="5.39795">
        <ele>1268.1</ele>
        <time>2023-07-24T08:30:49Z</time>
      </trkpt>
      <trkpt lat="44.4169" lon="5.39794">
        <ele>1268.2</ele>
        <time>2023-07-24T08:30:50Z</time>
      </trkpt>
      <trkpt lat="44.41691" lon="5.39794">
        <ele>1268.2</ele>
        <time>2023-07-24T08:30:51Z</time>
      </trkpt>
      <trkpt lat="44.41691" lon="5.39793">
        <ele>1268.2</ele>
        <time>2023-07-24T08:30:52Z</time>
      </trkpt>
      <trkpt lat="44.41692" lon="5.39792">
        <ele>1268.2</ele>
        <time>2023-07-24T08:30:53Z</time>
      </trkpt>
      <trkpt lat="44.41692" lon="5.39792">
        <ele>1268.2</ele>
        <time>2023-07-24T08:30:54Z</time>
      </trkpt>
      <trkpt lat="44.41692" lon="5.39792">
        <ele>1268.2</ele>
        <time>2023-07-24T08:30:55Z</time>
      </trkpt>
      <trkpt lat="44.41692" lon="5.39792">
        <ele>1268.2</ele>
        <time>2023-07-24T08:30:56Z</time>
      </trkpt>
      <trkpt lat="44.41693" lon="5.39792">
        <ele>1268.2</ele>
        <time>2023-07-24T08:30:57Z</time>
      </trkpt>
      <trkpt lat="44.41693" lon="5.39791">
        <ele>1268.3</ele>
        <time>2023-07-24T08:30:58Z</time>
      </trkpt>
      <trkpt lat="44.41693" lon="5.39791">
        <ele>1268.3</ele>
        <time>2023-07-24T08:30:59Z</time>
      </trkpt>
      <trkpt lat="44.41693" lon="5.39791">
        <ele>1268.3</ele>
        <time>2023-07-24T08:31:00Z</time>
      </trkpt>
      <trkpt lat="44.41693" lon="5.39791">
        <ele>1268.3</ele>
        <time>2023-07-24T08:31:01Z</time>
      </trkpt>
      <trkpt lat="44.41693" lon="5.3979">
        <ele>1268.3</ele>
        <time>2023-07-24T08:31:02Z</time>
      </trkpt>
      <trkpt lat="44.41693" lon="5.3979">
        <ele>1268.3</ele>
        <time>2023-07-24T08:31:03Z</time>
      </trkpt>
      <trkpt lat="44.41693" lon="5.3979">
        <ele>1268.3</ele>
        <time>2023-07-24T08:31:04Z</time>
      </trkpt>
      <trkpt lat="44.41693" lon="5.3979">
        <ele>1268.3</ele>
        <time>2023-07-24T08:31:05Z</time>
      </trkpt>
      <trkpt lat="44.41693" lon="5.3979">
        <ele>1268.3</ele>
        <time>2023-07-24T08:31:06Z</time>
      </trkpt>
      <trkpt lat="44.41693" lon="5.3979">
        <ele>1268.3</ele>
        <time>2023-07-24T08:31:07Z</time>
      </trkpt>
      <trkpt lat="44.41693" lon="5.3979">
        <ele>1268.3</ele>
        <time>2023-07-24T08:31:08Z</time>
      </trkpt>
      <trkpt lat="44.41691" lon="5.39795">
        <ele>1268.3</ele>
        <time>2023-07-24T08:31:49Z</time>
      </trkpt>
      <trkpt lat="44.41691" lon="5.39795">
        <ele>1268.3</ele>
        <time>2023-07-24T08:31:50Z</time>
      </trkpt>
      <trkpt lat="44.41691" lon="5.39795">
        <ele>1268.3</ele>
        <time>2023-07-24T08:31:51Z</time>
      </trkpt>
      <trkpt lat="44.4169" lon="5.39795">
        <ele>1268.3</ele>
        <time>2023-07-24T08:31:52Z</time>
      </trkpt>
      <trkpt lat="44.4169" lon="5.39796">
        <ele>1268.3</ele>
        <time>2023-07-24T08:31:53Z</time>
      </trkpt>
      <trkpt lat="44.4169" lon="5.39797">
        <ele>1268.3</ele>
        <time>2023-07-24T08:31:54Z</time>
      </trkpt>
      <trkpt lat="44.41689" lon="5.39797">
        <ele>1268.3</ele>
        <time>2023-07-24T08:31:55Z</time>
      </trkpt>
      <trkpt lat="44.41689" lon="5.39797">
        <ele>1268.3</ele>
        <time>2023-07-24T08:31:56Z</time>
      </trkpt>
      <trkpt lat="44.41689" lon="5.39798">
        <ele>1268.3</ele>
        <time>2023-07-24T08:31:57Z</time>
      </trkpt>
      <trkpt lat="44.41689" lon="5.39798">
        <ele>1268.3</ele>
        <time>2023-07-24T08:31:58Z</time>
      </trkpt>
      <trkpt lat="44.41689" lon="5.39799">
        <ele>1268.3</ele>
        <time>2023-07-24T08:31:59Z</time>
      </trkpt>
      <trkpt lat="44.41689" lon="5.39799">
        <ele>1268.3</ele>
        <time>2023-07-24T08:32:00Z</time>
      </trkpt>
      <trkpt lat="44.41689" lon="5.398">
        <ele>1268.3</ele>
        <time>2023-07-24T08:32:01Z</time>
      </trkpt>
      <trkpt lat="44.41688" lon="5.398">
        <ele>1268.3</ele>
        <time>2023-07-24T08:32:02Z</time>
      </trkpt>
      <trkpt lat="44.41688" lon="5.398">
        <ele>1268.3</ele>
        <time>2023-07-24T08:32:03Z</time>
      </trkpt>
      <trkpt lat="44.41688" lon="5.398">
        <ele>1268.2</ele>
        <time>2023-07-24T08:32:04Z</time>
      </trkpt>
      <trkpt lat="44.41687" lon="5.39799">
        <ele>1268.2</ele>
        <time>2023-07-24T08:32:05Z</time>
      </trkpt>
      <trkpt lat="44.41688" lon="5.39798">
        <ele>1268.2</ele>
        <time>2023-07-24T08:32:06Z</time>
      </trkpt>
      <trkpt lat="44.41688" lon="5.39797">
        <ele>1268.2</ele>
        <time>2023-07-24T08:32:07Z</time>
      </trkpt>
      <trkpt lat="44.41688" lon="5.39797">
        <ele>1268.2</ele>
        <time>2023-07-24T08:32:08Z</time>
      </trkpt>
      <trkpt lat="44.41688" lon="5.39796">
        <ele>1268.2</ele>
        <time>2023-07-24T08:32:09Z</time>
      </trkpt>
      <trkpt lat="44.41688" lon="5.39795">
        <ele>1268.1</ele>
        <time>2023-07-24T08:32:10Z</time>
      </trkpt>
      <trkpt lat="44.41688" lon="5.39794">
        <ele>1268.1</ele>
        <time>2023-07-24T08:32:11Z</time>
      </trkpt>
      <trkpt lat="44.41688" lon="5.39795">
        <ele>1268.1</ele>
        <time>2023-07-24T08:32:12Z</time>
      </trkpt>
      <trkpt lat="44.41688" lon="5.39796">
        <ele>1268.1</ele>
        <time>2023-07-24T08:32:13Z</time>
      </trkpt>
      <trkpt lat="44.41688" lon="5.39797">
        <ele>1268</ele>
        <time>2023-07-24T08:32:14Z</time>
      </trkpt>
      <trkpt lat="44.41687" lon="5.39798">
        <ele>1268</ele>
        <time>2023-07-24T08:32:15Z</time>
      </trkpt>
      <trkpt lat="44.41687" lon="5.39798">
        <ele>1268</ele>
        <time>2023-07-24T08:32:16Z</time>
      </trkpt>
      <trkpt lat="44.41687" lon="5.39797">
        <ele>1268</ele>
        <time>2023-07-24T08:32:17Z</time>
      </trkpt>
      <trkpt lat="44.41687" lon="5.39797">
        <ele>1268</ele>
        <time>2023-07-24T08:32:18Z</time>
      </trkpt>
      <trkpt lat="44.41687" lon="5.39797">
        <ele>1268</ele>
        <time>2023-07-24T08:32:19Z</time>
      </trkpt>
      <trkpt lat="44.41687" lon="5.39797">
        <ele>1268</ele>
        <time>2023-07-24T08:32:20Z</time>
      </trkpt>
      <trkpt lat="44.41687" lon="5.39797">
        <ele>1268</ele>
        <time>2023-07-24T08:32:21Z</time>
      </trkpt>
      <trkpt lat="44.41687" lon="5.39797">
        <ele>1268</ele>
        <time>2023-07-24T08:32:22Z</time>
      </trkpt>
      <trkpt lat="44.41687" lon="5.39797">
        <ele>1268</ele>
        <time>2023-07-24T08:32:23Z</time>
      </trkpt>
      <trkpt lat="44.41687" lon="5.39797">
        <ele>1267.9</ele>
        <time>2023-07-24T08:32:24Z</time>
      </trkpt>
      <trkpt lat="44.41687" lon="5.39796">
        <ele>1267.9</ele>
        <time>2023-07-24T08:32:25Z</time>
      </trkpt>
      <trkpt lat="44.41687" lon="5.39795">
        <ele>1267.9</ele>
        <time>2023-07-24T08:32:26Z</time>
      </trkpt>
      <trkpt lat="44.41686" lon="5.39795">
        <ele>1267.9</ele>
        <time>2023-07-24T08:36:12Z</time>
      </trkpt>
      <trkpt lat="44.41687" lon="5.39796">
        <ele>1267.8</ele>
        <time>2023-07-24T08:36:13Z</time>
      </trkpt>
      <trkpt lat="44.41688" lon="5.39796">
        <ele>1267.8</ele>
        <time>2023-07-24T08:36:14Z</time>
      </trkpt>
      <trkpt lat="44.41688" lon="5.39796">
        <ele>1267.8</ele>
        <time>2023-07-24T08:36:15Z</time>
      </trkpt>
      <trkpt lat="44.41688" lon="5.39797">
        <ele>1267.8</ele>
        <time>2023-07-24T08:36:16Z</time>
      </trkpt>
      <trkpt lat="44.41688" lon="5.39797">
        <ele>1267.8</ele>
        <time>2023-07-24T08:36:17Z</time>
      </trkpt>
      <trkpt lat="44.41688" lon="5.39797">
        <ele>1267.8</ele>
        <time>2023-07-24T08:36:18Z</time>
      </trkpt>
      <trkpt lat="44.41688" lon="5.39797">
        <ele>1267.8</ele>
        <time>2023-07-24T08:36:19Z</time>
      </trkpt>
      <trkpt lat="44.41688" lon="5.39797">
        <ele>1267.8</ele>
        <time>2023-07-24T08:36:20Z</time>
      </trkpt>
      <trkpt lat="44.41688" lon="5.39797">
        <ele>1267.8</ele>
        <time>2023-07-24T08:36:21Z</time>
      </trkpt>
      <trkpt lat="44.41688" lon="5.39797">
        <ele>1267.8</ele>
        <time>2023-07-24T08:36:22Z</time>
      </trkpt>
      <trkpt lat="44.41688" lon="5.39797">
        <ele>1267.8</ele>
        <time>2023-07-24T08:36:23Z</time>
      </trkpt>
      <trkpt lat="44.41688" lon="5.39797">
        <ele>1267.8</ele>
        <time>2023-07-24T08:36:24Z</time>
      </trkpt>
      <trkpt lat="44.41688" lon="5.39797">
        <ele>1267.8</ele>
        <time>2023-07-24T08:36:25Z</time>
      </trkpt>
      <trkpt lat="44.41688" lon="5.39797">
        <ele>1267.8</ele>
        <time>2023-07-24T08:36:26Z</time>
      </trkpt>
      <trkpt lat="44.41686" lon="5.39803">
        <ele>1267.6</ele>
        <time>2023-07-24T08:36:45Z</time>
      </trkpt>
      <trkpt lat="44.41685" lon="5.39807">
        <ele>1267.5</ele>
        <time>2023-07-24T08:36:46Z</time>
      </trkpt>
      <trkpt lat="44.41684" lon="5.39811">
        <ele>1267.4</ele>
        <time>2023-07-24T08:36:47Z</time>
      </trkpt>
      <trkpt lat="44.41685" lon="5.39814">
        <ele>1267.4</ele>
        <time>2023-07-24T08:36:48Z</time>
      </trkpt>
      <trkpt lat="44.41685" lon="5.39815">
        <ele>1267.4</ele>
        <time>2023-07-24T08:36:49Z</time>
      </trkpt>
      <trkpt lat="44.41685" lon="5.39816">
        <ele>1267.4</ele>
        <time>2023-07-24T08:36:50Z</time>
      </trkpt>
      <trkpt lat="44.41686" lon="5.39817">
        <ele>1267.4</ele>
        <time>2023-07-24T08:36:51Z</time>
      </trkpt>
      <trkpt lat="44.41686" lon="5.39818">
        <ele>1267.4</ele>
        <time>2023-07-24T08:36:52Z</time>
      </trkpt>
      <trkpt lat="44.41686" lon="5.39819">
        <ele>1267.4</ele>
        <time>2023-07-24T08:36:53Z</time>
      </trkpt>
      <trkpt lat="44.41686" lon="5.3982">
        <ele>1267.4</ele>
        <time>2023-07-24T08:36:54Z</time>
      </trkpt>
      <trkpt lat="44.41686" lon="5.3982">
        <ele>1267.4</ele>
        <time>2023-07-24T08:36:55Z</time>
      </trkpt>
      <trkpt lat="44.41686" lon="5.39821">
        <ele>1267.4</ele>
        <time>2023-07-24T08:36:56Z</time>
      </trkpt>
      <trkpt lat="44.41686" lon="5.39822">
        <ele>1267.4</ele>
        <time>2023-07-24T08:36:57Z</time>
      </trkpt>
      <trkpt lat="44.41686" lon="5.39823">
        <ele>1267.5</ele>
        <time>2023-07-24T08:36:58Z</time>
      </trkpt>
      <trkpt lat="44.41687" lon="5.39824">
        <ele>1267.5</ele>
        <time>2023-07-24T08:36:59Z</time>
      </trkpt>
      <trkpt lat="44.41687" lon="5.39825">
        <ele>1267.5</ele>
        <time>2023-07-24T08:37:00Z</time>
      </trkpt>
      <trkpt lat="44.41687" lon="5.39826">
        <ele>1267.5</ele>
        <time>2023-07-24T08:37:03Z</time>
      </trkpt>
      <trkpt lat="44.41687" lon="5.39827">
        <ele>1267.5</ele>
        <time>2023-07-24T08:37:04Z</time>
      </trkpt>
      <trkpt lat="44.41687" lon="5.39828">
        <ele>1267.6</ele>
        <time>2023-07-24T08:37:05Z</time>
      </trkpt>
      <trkpt lat="44.41688" lon="5.39832">
        <ele>1267.6</ele>
        <time>2023-07-24T08:37:06Z</time>
      </trkpt>
      <trkpt lat="44.41689" lon="5.39835">
        <ele>1267.8</ele>
        <time>2023-07-24T08:37:07Z</time>
      </trkpt>
      <trkpt lat="44.4169" lon="5.39839">
        <ele>1267.9</ele>
        <time>2023-07-24T08:37:08Z</time>
      </trkpt>
      <trkpt lat="44.41692" lon="5.39843">
        <ele>1268.1</ele>
        <time>2023-07-24T08:37:09Z</time>
      </trkpt>
      <trkpt lat="44.41692" lon="5.39845">
        <ele>1268.2</ele>
        <time>2023-07-24T08:37:10Z</time>
      </trkpt>
      <trkpt lat="44.41693" lon="5.39846">
        <ele>1268.3</ele>
        <time>2023-07-24T08:37:11Z</time>
      </trkpt>
      <trkpt lat="44.41693" lon="5.39845">
        <ele>1268.3</ele>
        <time>2023-07-24T08:37:12Z</time>
      </trkpt>
      <trkpt lat="44.41693" lon="5.39845">
        <ele>1268.3</ele>
        <time>2023-07-24T08:37:13Z</time>
      </trkpt>
      <trkpt lat="44.41692" lon="5.39845">
        <ele>1268.3</ele>
        <time>2023-07-24T08:37:14Z</time>
      </trkpt>
      <trkpt lat="44.41692" lon="5.39845">
        <ele>1268.4</ele>
        <time>2023-07-24T08:37:15Z</time>
      </trkpt>
      <trkpt lat="44.41692" lon="5.39845">
        <ele>1268.4</ele>
        <time>2023-07-24T08:37:16Z</time>
      </trkpt>
      <trkpt lat="44.41692" lon="5.39845">
        <ele>1268.4</ele>
        <time>2023-07-24T08:37:17Z</time>
      </trkpt>
      <trkpt lat="44.41693" lon="5.39846">
        <ele>1268.4</ele>
        <time>2023-07-24T08:37:18Z</time>
      </trkpt>
      <trkpt lat="44.41693" lon="5.39847">
        <ele>1268.5</ele>
        <time>2023-07-24T08:37:19Z</time>
      </trkpt>
      <trkpt lat="44.41694" lon="5.39848">
        <ele>1268.6</ele>
        <time>2023-07-24T08:37:20Z</time>
      </trkpt>
      <trkpt lat="44.41694" lon="5.39848">
        <ele>1268.6</ele>
        <time>2023-07-24T08:37:21Z</time>
      </trkpt>
      <trkpt lat="44.41694" lon="5.39848">
        <ele>1268.6</ele>
        <time>2023-07-24T08:37:22Z</time>
      </trkpt>
      <trkpt lat="44.41695" lon="5.39849">
        <ele>1268.6</ele>
        <time>2023-07-24T08:37:23Z</time>
      </trkpt>
      <trkpt lat="44.41695" lon="5.3985">
        <ele>1268.7</ele>
        <time>2023-07-24T08:37:24Z</time>
      </trkpt>
      <trkpt lat="44.41695" lon="5.3985">
        <ele>1268.7</ele>
        <time>2023-07-24T08:37:25Z</time>
      </trkpt>
      <trkpt lat="44.41695" lon="5.3985">
        <ele>1268.7</ele>
        <time>2023-07-24T08:37:26Z</time>
      </trkpt>
      <trkpt lat="44.41695" lon="5.39851">
        <ele>1268.8</ele>
        <time>2023-07-24T08:37:27Z</time>
      </trkpt>
      <trkpt lat="44.41695" lon="5.39852">
        <ele>1268.8</ele>
        <time>2023-07-24T08:37:28Z</time>
      </trkpt>
      <trkpt lat="44.41695" lon="5.39853">
        <ele>1268.9</ele>
        <time>2023-07-24T08:37:29Z</time>
      </trkpt>
      <trkpt lat="44.41695" lon="5.39854">
        <ele>1268.9</ele>
        <time>2023-07-24T08:37:30Z</time>
      </trkpt>
      <trkpt lat="44.41696" lon="5.39855">
        <ele>1269</ele>
        <time>2023-07-24T08:37:31Z</time>
      </trkpt>
      <trkpt lat="44.41696" lon="5.39856">
        <ele>1269.1</ele>
        <time>2023-07-24T08:37:32Z</time>
      </trkpt>
      <trkpt lat="44.41696" lon="5.39857">
        <ele>1269.1</ele>
        <time>2023-07-24T08:37:33Z</time>
      </trkpt>
      <trkpt lat="44.41696" lon="5.39857">
        <ele>1269.1</ele>
        <time>2023-07-24T08:37:34Z</time>
      </trkpt>
      <trkpt lat="44.41696" lon="5.39857">
        <ele>1269.1</ele>
        <time>2023-07-24T08:37:35Z</time>
      </trkpt>
      <trkpt lat="44.41696" lon="5.39857">
        <ele>1269.1</ele>
        <time>2023-07-24T08:37:36Z</time>
      </trkpt>
      <trkpt lat="44.41696" lon="5.39857">
        <ele>1269.1</ele>
        <time>2023-07-24T08:37:37Z</time>
      </trkpt>
      <trkpt lat="44.41696" lon="5.39857">
        <ele>1269.1</ele>
        <time>2023-07-24T08:37:38Z</time>
      </trkpt>
      <trkpt lat="44.41696" lon="5.39857">
        <ele>1269.1</ele>
        <time>2023-07-24T08:37:39Z</time>
      </trkpt>
      <trkpt lat="44.41696" lon="5.39857">
        <ele>1269.1</ele>
        <time>2023-07-24T08:37:40Z</time>
      </trkpt>
      <trkpt lat="44.41696" lon="5.39857">
        <ele>1269.1</ele>
        <time>2023-07-24T08:37:41Z</time>
      </trkpt>
      <trkpt lat="44.41696" lon="5.39857">
        <ele>1269.1</ele>
        <time>2023-07-24T08:37:42Z</time>
      </trkpt>
      <trkpt lat="44.41696" lon="5.39857">
        <ele>1269.1</ele>
        <time>2023-07-24T08:37:43Z</time>
      </trkpt>
      <trkpt lat="44.41697" lon="5.39858">
        <ele>1269.3</ele>
        <time>2023-07-24T08:37:46Z</time>
      </trkpt>
      <trkpt lat="44.41698" lon="5.39859">
        <ele>1269.3</ele>
        <time>2023-07-24T08:37:47Z</time>
      </trkpt>
      <trkpt lat="44.41698" lon="5.39859">
        <ele>1269.3</ele>
        <time>2023-07-24T08:37:48Z</time>
      </trkpt>
      <trkpt lat="44.41698" lon="5.39859">
        <ele>1269.3</ele>
        <time>2023-07-24T08:37:49Z</time>
      </trkpt>
      <trkpt lat="44.41698" lon="5.39859">
        <ele>1269.4</ele>
        <time>2023-07-24T08:37:50Z</time>
      </trkpt>
      <trkpt lat="44.41698" lon="5.3986">
        <ele>1269.4</ele>
        <time>2023-07-24T08:37:51Z</time>
      </trkpt>
      <trkpt lat="44.41698" lon="5.39861">
        <ele>1269.5</ele>
        <time>2023-07-24T08:37:52Z</time>
      </trkpt>
      <trkpt lat="44.41699" lon="5.39862">
        <ele>1269.6</ele>
        <time>2023-07-24T08:37:53Z</time>
      </trkpt>
      <trkpt lat="44.41699" lon="5.39863">
        <ele>1269.6</ele>
        <time>2023-07-24T08:37:54Z</time>
      </trkpt>
      <trkpt lat="44.41699" lon="5.39864">
        <ele>1269.7</ele>
        <time>2023-07-24T08:37:55Z</time>
      </trkpt>
      <trkpt lat="44.41699" lon="5.39864">
        <ele>1269.7</ele>
        <time>2023-07-24T08:37:56Z</time>
      </trkpt>
      <trkpt lat="44.41699" lon="5.39864">
        <ele>1269.7</ele>
        <time>2023-07-24T08:37:57Z</time>
      </trkpt>
      <trkpt lat="44.41699" lon="5.39865">
        <ele>1269.7</ele>
        <time>2023-07-24T08:37:58Z</time>
      </trkpt>
      <trkpt lat="44.41699" lon="5.39866">
        <ele>1269.8</ele>
        <time>2023-07-24T08:37:59Z</time>
      </trkpt>
      <trkpt lat="44.41699" lon="5.39866">
        <ele>1269.8</ele>
        <time>2023-07-24T08:38:00Z</time>
      </trkpt>
      <trkpt lat="44.41699" lon="5.39866">
        <ele>1269.8</ele>
        <time>2023-07-24T08:38:01Z</time>
      </trkpt>
      <trkpt lat="44.41699" lon="5.39866">
        <ele>1269.8</ele>
        <time>2023-07-24T08:38:02Z</time>
      </trkpt>
      <trkpt lat="44.41699" lon="5.39866">
        <ele>1269.8</ele>
        <time>2023-07-24T08:38:03Z</time>
      </trkpt>
      <trkpt lat="44.41699" lon="5.39867">
        <ele>1269.8</ele>
        <time>2023-07-24T08:38:04Z</time>
      </trkpt>
      <trkpt lat="44.41696" lon="5.39873">
        <ele>1270.3</ele>
        <time>2023-07-24T08:38:29Z</time>
      </trkpt>
      <trkpt lat="44.41696" lon="5.39874">
        <ele>1270.3</ele>
        <time>2023-07-24T08:38:30Z</time>
      </trkpt>
      <trkpt lat="44.41696" lon="5.39874">
        <ele>1270.3</ele>
        <time>2023-07-24T08:38:31Z</time>
      </trkpt>
      <trkpt lat="44.41696" lon="5.39875">
        <ele>1270.4</ele>
        <time>2023-07-24T08:38:32Z</time>
      </trkpt>
      <trkpt lat="44.41695" lon="5.39875">
        <ele>1270.4</ele>
        <time>2023-07-24T08:38:33Z</time>
      </trkpt>
      <trkpt lat="44.41695" lon="5.39875">
        <ele>1270.4</ele>
        <time>2023-07-24T08:38:34Z</time>
      </trkpt>
      <trkpt lat="44.41695" lon="5.39875">
        <ele>1270.4</ele>
        <time>2023-07-24T08:38:35Z</time>
      </trkpt>
      <trkpt lat="44.41695" lon="5.39876">
        <ele>1270.5</ele>
        <time>2023-07-24T08:38:36Z</time>
      </trkpt>
      <trkpt lat="44.41695" lon="5.39877">
        <ele>1270.5</ele>
        <time>2023-07-24T08:38:37Z</time>
      </trkpt>
      <trkpt lat="44.41695" lon="5.39878">
        <ele>1270.6</ele>
        <time>2023-07-24T08:38:38Z</time>
      </trkpt>
      <trkpt lat="44.41695" lon="5.39879">
        <ele>1270.6</ele>
        <time>2023-07-24T08:38:39Z</time>
      </trkpt>
      <trkpt lat="44.41695" lon="5.39881">
        <ele>1270.7</ele>
        <time>2023-07-24T08:38:40Z</time>
      </trkpt>
      <trkpt lat="44.41695" lon="5.39881">
        <ele>1270.7</ele>
        <time>2023-07-24T08:38:41Z</time>
      </trkpt>
      <trkpt lat="44.41695" lon="5.39882">
        <ele>1270.7</ele>
        <time>2023-07-24T08:38:42Z</time>
      </trkpt>
      <trkpt lat="44.41695" lon="5.39881">
        <ele>1270.8</ele>
        <time>2023-07-24T08:38:43Z</time>
      </trkpt>
      <trkpt lat="44.41695" lon="5.39882">
        <ele>1270.8</ele>
        <time>2023-07-24T08:38:44Z</time>
      </trkpt>
      <trkpt lat="44.41695" lon="5.39882">
        <ele>1270.8</ele>
        <time>2023-07-24T08:38:45Z</time>
      </trkpt>
      <trkpt lat="44.41695" lon="5.39882">
        <ele>1270.8</ele>
        <time>2023-07-24T08:38:46Z</time>
      </trkpt>
      <trkpt lat="44.41695" lon="5.39882">
        <ele>1270.8</ele>
        <time>2023-07-24T08:38:47Z</time>
      </trkpt>
      <trkpt lat="44.41695" lon="5.39882">
        <ele>1270.8</ele>
        <time>2023-07-24T08:38:48Z</time>
      </trkpt>
      <trkpt lat="44.41695" lon="5.39882">
        <ele>1270.8</ele>
        <time>2023-07-24T08:38:49Z</time>
      </trkpt>
      <trkpt lat="44.41695" lon="5.39882">
        <ele>1270.8</ele>
        <time>2023-07-24T08:38:50Z</time>
      </trkpt>
      <trkpt lat="44.41696" lon="5.39881">
        <ele>1270.8</ele>
        <time>2023-07-24T08:38:51Z</time>
      </trkpt>
      <trkpt lat="44.41696" lon="5.39882">
        <ele>1270.9</ele>
        <time>2023-07-24T08:38:52Z</time>
      </trkpt>
      <trkpt lat="44.41699" lon="5.39888">
        <ele>1271.2</ele>
        <time>2023-07-24T08:39:01Z</time>
      </trkpt>
      <trkpt lat="44.41699" lon="5.39889">
        <ele>1271.2</ele>
        <time>2023-07-24T08:39:02Z</time>
      </trkpt>
      <trkpt lat="44.41699" lon="5.3989">
        <ele>1271.3</ele>
        <time>2023-07-24T08:39:03Z</time>
      </trkpt>
      <trkpt lat="44.417" lon="5.3989">
        <ele>1271.3</ele>
        <time>2023-07-24T08:39:04Z</time>
      </trkpt>
      <trkpt lat="44.417" lon="5.39891">
        <ele>1271.3</ele>
        <time>2023-07-24T08:39:05Z</time>
      </trkpt>
      <trkpt lat="44.417" lon="5.3989">
        <ele>1271.3</ele>
        <time>2023-07-24T08:39:06Z</time>
      </trkpt>
      <trkpt lat="44.417" lon="5.3989">
        <ele>1271.3</ele>
        <time>2023-07-24T08:39:07Z</time>
      </trkpt>
      <trkpt lat="44.417" lon="5.3989">
        <ele>1271.3</ele>
        <time>2023-07-24T08:39:08Z</time>
      </trkpt>
      <trkpt lat="44.417" lon="5.3989">
        <ele>1271.3</ele>
        <time>2023-07-24T08:39:09Z</time>
      </trkpt>
      <trkpt lat="44.417" lon="5.3989">
        <ele>1271.4</ele>
        <time>2023-07-24T08:39:10Z</time>
      </trkpt>
      <trkpt lat="44.417" lon="5.3989">
        <ele>1271.4</ele>
        <time>2023-07-24T08:39:11Z</time>
      </trkpt>
      <trkpt lat="44.417" lon="5.3989">
        <ele>1271.4</ele>
        <time>2023-07-24T08:39:12Z</time>
      </trkpt>
      <trkpt lat="44.417" lon="5.39891">
        <ele>1271.4</ele>
        <time>2023-07-24T08:39:13Z</time>
      </trkpt>
      <trkpt lat="44.41699" lon="5.39892">
        <ele>1271.4</ele>
        <time>2023-07-24T08:39:14Z</time>
      </trkpt>
      <trkpt lat="44.417" lon="5.39893">
        <ele>1271.5</ele>
        <time>2023-07-24T08:39:15Z</time>
      </trkpt>
      <trkpt lat="44.417" lon="5.39894">
        <ele>1271.5</ele>
        <time>2023-07-24T08:39:16Z</time>
      </trkpt>
      <trkpt lat="44.417" lon="5.39895">
        <ele>1271.5</ele>
        <time>2023-07-24T08:39:17Z</time>
      </trkpt>
      <trkpt lat="44.417" lon="5.39895">
        <ele>1271.6</ele>
        <time>2023-07-24T08:39:18Z</time>
      </trkpt>
      <trkpt lat="44.417" lon="5.39895">
        <ele>1271.6</ele>
        <time>2023-07-24T08:39:19Z</time>
      </trkpt>
      <trkpt lat="44.417" lon="5.39895">
        <ele>1271.6</ele>
        <time>2023-07-24T08:39:20Z</time>
      </trkpt>
      <trkpt lat="44.417" lon="5.39895">
        <ele>1271.6</ele>
        <time>2023-07-24T08:39:21Z</time>
      </trkpt>
      <trkpt lat="44.417" lon="5.39895">
        <ele>1271.6</ele>
        <time>2023-07-24T08:39:22Z</time>
      </trkpt>
      <trkpt lat="44.417" lon="5.39895">
        <ele>1271.6</ele>
        <time>2023-07-24T08:39:23Z</time>
      </trkpt>
      <trkpt lat="44.417" lon="5.39895">
        <ele>1271.6</ele>
        <time>2023-07-24T08:39:24Z</time>
      </trkpt>
      <trkpt lat="44.417" lon="5.39895">
        <ele>1271.6</ele>
        <time>2023-07-24T08:39:25Z</time>
      </trkpt>
      <trkpt lat="44.41701" lon="5.39897">
        <ele>1271.6</ele>
        <time>2023-07-24T08:39:26Z</time>
      </trkpt>
      <trkpt lat="44.41701" lon="5.39897">
        <ele>1271.6</ele>
        <time>2023-07-24T08:39:27Z</time>
      </trkpt>
      <trkpt lat="44.41701" lon="5.39897">
        <ele>1271.6</ele>
        <time>2023-07-24T08:39:28Z</time>
      </trkpt>
      <trkpt lat="44.41702" lon="5.39897">
        <ele>1271.7</ele>
        <time>2023-07-24T08:39:29Z</time>
      </trkpt>
      <trkpt lat="44.41703" lon="5.39898">
        <ele>1271.7</ele>
        <time>2023-07-24T08:39:30Z</time>
      </trkpt>
      <trkpt lat="44.41703" lon="5.39898">
        <ele>1271.7</ele>
        <time>2023-07-24T08:39:31Z</time>
      </trkpt>
      <trkpt lat="44.41703" lon="5.39898">
        <ele>1271.7</ele>
        <time>2023-07-24T08:39:32Z</time>
      </trkpt>
      <trkpt lat="44.41703" lon="5.39898">
        <ele>1271.7</ele>
        <time>2023-07-24T08:39:33Z</time>
      </trkpt>
      <trkpt lat="44.41703" lon="5.39898">
        <ele>1271.8</ele>
        <time>2023-07-24T08:39:34Z</time>
      </trkpt>
      <trkpt lat="44.41703" lon="5.39899">
        <ele>1271.8</ele>
        <time>2023-07-24T08:39:35Z</time>
      </trkpt>
      <trkpt lat="44.41703" lon="5.399">
        <ele>1271.8</ele>
        <time>2023-07-24T08:39:36Z</time>
      </trkpt>
      <trkpt lat="44.41703" lon="5.399">
        <ele>1271.8</ele>
        <time>2023-07-24T08:39:37Z</time>
      </trkpt>
      <trkpt lat="44.41703" lon="5.399">
        <ele>1271.8</ele>
        <time>2023-07-24T08:39:38Z</time>
      </trkpt>
      <trkpt lat="44.41703" lon="5.399">
        <ele>1271.8</ele>
        <time>2023-07-24T08:39:39Z</time>
      </trkpt>
      <trkpt lat="44.41703" lon="5.399">
        <ele>1271.8</ele>
        <time>2023-07-24T08:39:40Z</time>
      </trkpt>
      <trkpt lat="44.41703" lon="5.399">
        <ele>1271.8</ele>
        <time>2023-07-24T08:39:41Z</time>
      </trkpt>
      <trkpt lat="44.41703" lon="5.399">
        <ele>1271.8</ele>
        <time>2023-07-24T08:39:42Z</time>
      </trkpt>
      <trkpt lat="44.41703" lon="5.399">
        <ele>1271.8</ele>
        <time>2023-07-24T08:39:43Z</time>
      </trkpt>
      <trkpt lat="44.41704" lon="5.39901">
        <ele>1271.8</ele>
        <time>2023-07-24T08:39:44Z</time>
      </trkpt>
      <trkpt lat="44.41704" lon="5.39901">
        <ele>1271.9</ele>
        <time>2023-07-24T08:39:45Z</time>
      </trkpt>
      <trkpt lat="44.41704" lon="5.39901">
        <ele>1271.9</ele>
        <time>2023-07-24T08:39:46Z</time>
      </trkpt>
      <trkpt lat="44.41704" lon="5.39901">
        <ele>1271.9</ele>
        <time>2023-07-24T08:39:47Z</time>
      </trkpt>
      <trkpt lat="44.41704" lon="5.39901">
        <ele>1271.9</ele>
        <time>2023-07-24T08:39:48Z</time>
      </trkpt>
      <trkpt lat="44.41704" lon="5.39902">
        <ele>1271.9</ele>
        <time>2023-07-24T08:39:49Z</time>
      </trkpt>
      <trkpt lat="44.41704" lon="5.39904">
        <ele>1271.9</ele>
        <time>2023-07-24T08:39:50Z</time>
      </trkpt>
      <trkpt lat="44.41704" lon="5.39906">
        <ele>1272</ele>
        <time>2023-07-24T08:39:51Z</time>
      </trkpt>
      <trkpt lat="44.41705" lon="5.39907">
        <ele>1272</ele>
        <time>2023-07-24T08:39:52Z</time>
      </trkpt>
      <trkpt lat="44.41706" lon="5.39909">
        <ele>1272.1</ele>
        <time>2023-07-24T08:39:53Z</time>
      </trkpt>
      <trkpt lat="44.41706" lon="5.3991">
        <ele>1272.1</ele>
        <time>2023-07-24T08:39:54Z</time>
      </trkpt>
      <trkpt lat="44.41706" lon="5.39909">
        <ele>1272.1</ele>
        <time>2023-07-24T08:39:55Z</time>
      </trkpt>
      <trkpt lat="44.41706" lon="5.39909">
        <ele>1272.1</ele>
        <time>2023-07-24T08:39:56Z</time>
      </trkpt>
      <trkpt lat="44.41707" lon="5.39909">
        <ele>1272.1</ele>
        <time>2023-07-24T08:39:57Z</time>
      </trkpt>
      <trkpt lat="44.41707" lon="5.3991">
        <ele>1272.1</ele>
        <time>2023-07-24T08:39:58Z</time>
      </trkpt>
      <trkpt lat="44.41708" lon="5.39911">
        <ele>1272.2</ele>
        <time>2023-07-24T08:39:59Z</time>
      </trkpt>
      <trkpt lat="44.4171" lon="5.39912">
        <ele>1272.2</ele>
        <time>2023-07-24T08:40:00Z</time>
      </trkpt>
      <trkpt lat="44.41711" lon="5.39913">
        <ele>1272.2</ele>
        <time>2023-07-24T08:40:01Z</time>
      </trkpt>
      <trkpt lat="44.41711" lon="5.39914">
        <ele>1272.3</ele>
        <time>2023-07-24T08:40:02Z</time>
      </trkpt>
      <trkpt lat="44.41712" lon="5.39915">
        <ele>1272.3</ele>
        <time>2023-07-24T08:40:03Z</time>
      </trkpt>
      <trkpt lat="44.41714" lon="5.39918">
        <ele>1272.3</ele>
        <time>2023-07-24T08:40:04Z</time>
      </trkpt>
      <trkpt lat="44.41714" lon="5.39919">
        <ele>1272.3</ele>
        <time>2023-07-24T08:40:05Z</time>
      </trkpt>
      <trkpt lat="44.41716" lon="5.39923">
        <ele>1272.4</ele>
        <time>2023-07-24T08:40:06Z</time>
      </trkpt>
      <trkpt lat="44.41717" lon="5.39924">
        <ele>1272.4</ele>
        <time>2023-07-24T08:40:07Z</time>
      </trkpt>
      <trkpt lat="44.4172" lon="5.39927">
        <ele>1272.4</ele>
        <time>2023-07-24T08:40:08Z</time>
      </trkpt>
      <trkpt lat="44.41721" lon="5.39928">
        <ele>1272.4</ele>
        <time>2023-07-24T08:40:09Z</time>
      </trkpt>
      <trkpt lat="44.41722" lon="5.3993">
        <ele>1272.3</ele>
        <time>2023-07-24T08:40:10Z</time>
      </trkpt>
      <trkpt lat="44.41722" lon="5.39931">
        <ele>1272.3</ele>
        <time>2023-07-24T08:40:11Z</time>
      </trkpt>
      <trkpt lat="44.41722" lon="5.39932">
        <ele>1272.3</ele>
        <time>2023-07-24T08:40:12Z</time>
      </trkpt>
      <trkpt lat="44.41722" lon="5.39934">
        <ele>1272.3</ele>
        <time>2023-07-24T08:40:13Z</time>
      </trkpt>
      <trkpt lat="44.41723" lon="5.39936">
        <ele>1272.3</ele>
        <time>2023-07-24T08:40:14Z</time>
      </trkpt>
      <trkpt lat="44.41725" lon="5.39941">
        <ele>1272.2</ele>
        <time>2023-07-24T08:40:15Z</time>
      </trkpt>
      <trkpt lat="44.41725" lon="5.39942">
        <ele>1272.1</ele>
        <time>2023-07-24T08:40:16Z</time>
      </trkpt>
      <trkpt lat="44.41726" lon="5.39944">
        <ele>1272.1</ele>
        <time>2023-07-24T08:40:17Z</time>
      </trkpt>
      <trkpt lat="44.41727" lon="5.39946">
        <ele>1272</ele>
        <time>2023-07-24T08:40:18Z</time>
      </trkpt>
      <trkpt lat="44.41728" lon="5.39947">
        <ele>1272</ele>
        <time>2023-07-24T08:40:19Z</time>
      </trkpt>
      <trkpt lat="44.41728" lon="5.39947">
        <ele>1271.9</ele>
        <time>2023-07-24T08:40:20Z</time>
      </trkpt>
      <trkpt lat="44.41728" lon="5.39947">
        <ele>1271.9</ele>
        <time>2023-07-24T08:40:21Z</time>
      </trkpt>
      <trkpt lat="44.41728" lon="5.39947">
        <ele>1271.9</ele>
        <time>2023-07-24T08:40:22Z</time>
      </trkpt>
      <trkpt lat="44.41728" lon="5.39946">
        <ele>1271.9</ele>
        <time>2023-07-24T08:40:23Z</time>
      </trkpt>
      <trkpt lat="44.41728" lon="5.39946">
        <ele>1271.9</ele>
        <time>2023-07-24T08:40:24Z</time>
      </trkpt>
      <trkpt lat="44.41728" lon="5.39946">
        <ele>1271.9</ele>
        <time>2023-07-24T08:40:25Z</time>
      </trkpt>
      <trkpt lat="44.41728" lon="5.39946">
        <ele>1271.9</ele>
        <time>2023-07-24T08:40:26Z</time>
      </trkpt>
      <trkpt lat="44.41728" lon="5.39947">
        <ele>1271.9</ele>
        <time>2023-07-24T08:40:27Z</time>
      </trkpt>
      <trkpt lat="44.41728" lon="5.39947">
        <ele>1271.9</ele>
        <time>2023-07-24T08:40:28Z</time>
      </trkpt>
      <trkpt lat="44.41729" lon="5.39947">
        <ele>1271.9</ele>
        <time>2023-07-24T08:40:29Z</time>
      </trkpt>
      <trkpt lat="44.41729" lon="5.39947">
        <ele>1271.8</ele>
        <time>2023-07-24T08:40:30Z</time>
      </trkpt>
      <trkpt lat="44.41729" lon="5.39947">
        <ele>1271.8</ele>
        <time>2023-07-24T08:40:31Z</time>
      </trkpt>
      <trkpt lat="44.41729" lon="5.39948">
        <ele>1271.8</ele>
        <time>2023-07-24T08:40:33Z</time>
      </trkpt>
      <trkpt lat="44.41732" lon="5.39957">
        <ele>1271.4</ele>
        <time>2023-07-24T08:44:55Z</time>
      </trkpt>
      <trkpt lat="44.41733" lon="5.39958">
        <ele>1271.3</ele>
        <time>2023-07-24T08:44:56Z</time>
      </trkpt>
      <trkpt lat="44.41734" lon="5.39959">
        <ele>1271.2</ele>
        <time>2023-07-24T08:44:57Z</time>
      </trkpt>
      <trkpt lat="44.41734" lon="5.3996">
        <ele>1271.1</ele>
        <time>2023-07-24T08:44:58Z</time>
      </trkpt>
      <trkpt lat="44.41733" lon="5.39959">
        <ele>1271.1</ele>
        <time>2023-07-24T08:44:59Z</time>
      </trkpt>
      <trkpt lat="44.41733" lon="5.3996">
        <ele>1271.1</ele>
        <time>2023-07-24T08:45:00Z</time>
      </trkpt>
      <trkpt lat="44.41734" lon="5.3996">
        <ele>1271</ele>
        <time>2023-07-24T08:45:01Z</time>
      </trkpt>
      <trkpt lat="44.41733" lon="5.39961">
        <ele>1271</ele>
        <time>2023-07-24T08:45:02Z</time>
      </trkpt>
      <trkpt lat="44.41733" lon="5.39961">
        <ele>1271</ele>
        <time>2023-07-24T08:45:03Z</time>
      </trkpt>
      <trkpt lat="44.41733" lon="5.39961">
        <ele>1271</ele>
        <time>2023-07-24T08:45:04Z</time>
      </trkpt>
      <trkpt lat="44.41733" lon="5.39963">
        <ele>1270.9</ele>
        <time>2023-07-24T08:45:05Z</time>
      </trkpt>
      <trkpt lat="44.41733" lon="5.39964">
        <ele>1270.8</ele>
        <time>2023-07-24T08:45:06Z</time>
      </trkpt>
      <trkpt lat="44.41732" lon="5.39964">
        <ele>1270.8</ele>
        <time>2023-07-24T08:45:07Z</time>
      </trkpt>
      <trkpt lat="44.41732" lon="5.39965">
        <ele>1270.7</ele>
        <time>2023-07-24T08:45:08Z</time>
      </trkpt>
      <trkpt lat="44.41733" lon="5.39966">
        <ele>1270.7</ele>
        <time>2023-07-24T08:45:09Z</time>
      </trkpt>
      <trkpt lat="44.41733" lon="5.39967">
        <ele>1270.6</ele>
        <time>2023-07-24T08:45:10Z</time>
      </trkpt>
      <trkpt lat="44.41734" lon="5.39968">
        <ele>1270.5</ele>
        <time>2023-07-24T08:45:11Z</time>
      </trkpt>
      <trkpt lat="44.41733" lon="5.39968">
        <ele>1270.5</ele>
        <time>2023-07-24T08:45:12Z</time>
      </trkpt>
      <trkpt lat="44.41734" lon="5.39968">
        <ele>1270.5</ele>
        <time>2023-07-24T08:45:13Z</time>
      </trkpt>
      <trkpt lat="44.41734" lon="5.39969">
        <ele>1270.5</ele>
        <time>2023-07-24T08:45:14Z</time>
      </trkpt>
      <trkpt lat="44.41734" lon="5.3997">
        <ele>1270.4</ele>
        <time>2023-07-24T08:45:15Z</time>
      </trkpt>
      <trkpt lat="44.41734" lon="5.39971">
        <ele>1270.3</ele>
        <time>2023-07-24T08:45:16Z</time>
      </trkpt>
      <trkpt lat="44.41735" lon="5.39971">
        <ele>1270.3</ele>
        <time>2023-07-24T08:45:17Z</time>
      </trkpt>
      <trkpt lat="44.41735" lon="5.39971">
        <ele>1270.3</ele>
        <time>2023-07-24T08:45:18Z</time>
      </trkpt>
      <trkpt lat="44.41735" lon="5.39971">
        <ele>1270.2</ele>
        <time>2023-07-24T08:45:19Z</time>
      </trkpt>
      <trkpt lat="44.41736" lon="5.3997">
        <ele>1270.2</ele>
        <time>2023-07-24T08:45:20Z</time>
      </trkpt>
      <trkpt lat="44.41736" lon="5.39971">
        <ele>1270.1</ele>
        <time>2023-07-24T08:45:21Z</time>
      </trkpt>
      <trkpt lat="44.41736" lon="5.39972">
        <ele>1270.1</ele>
        <time>2023-07-24T08:45:22Z</time>
      </trkpt>
      <trkpt lat="44.41736" lon="5.39973">
        <ele>1270</ele>
        <time>2023-07-24T08:45:23Z</time>
      </trkpt>
      <trkpt lat="44.41736" lon="5.39975">
        <ele>1269.9</ele>
        <time>2023-07-24T08:45:24Z</time>
      </trkpt>
      <trkpt lat="44.41737" lon="5.39976">
        <ele>1269.9</ele>
        <time>2023-07-24T08:45:25Z</time>
      </trkpt>
      <trkpt lat="44.41737" lon="5.39977">
        <ele>1269.8</ele>
        <time>2023-07-24T08:45:26Z</time>
      </trkpt>
      <trkpt lat="44.41738" lon="5.39978">
        <ele>1269.7</ele>
        <time>2023-07-24T08:45:27Z</time>
      </trkpt>
      <trkpt lat="44.41738" lon="5.39978">
        <ele>1269.7</ele>
        <time>2023-07-24T08:45:28Z</time>
      </trkpt>
      <trkpt lat="44.41738" lon="5.39978">
        <ele>1269.7</ele>
        <time>2023-07-24T08:45:29Z</time>
      </trkpt>
      <trkpt lat="44.41738" lon="5.39978">
        <ele>1269.7</ele>
        <time>2023-07-24T08:45:30Z</time>
      </trkpt>
      <trkpt lat="44.41739" lon="5.39979">
        <ele>1269.6</ele>
        <time>2023-07-24T08:45:31Z</time>
      </trkpt>
      <trkpt lat="44.41739" lon="5.39979">
        <ele>1269.6</ele>
        <time>2023-07-24T08:45:32Z</time>
      </trkpt>
      <trkpt lat="44.41739" lon="5.3998">
        <ele>1269.6</ele>
        <time>2023-07-24T08:45:33Z</time>
      </trkpt>
      <trkpt lat="44.41739" lon="5.39979">
        <ele>1269.6</ele>
        <time>2023-07-24T08:45:34Z</time>
      </trkpt>
      <trkpt lat="44.41738" lon="5.3998">
        <ele>1269.6</ele>
        <time>2023-07-24T08:45:35Z</time>
      </trkpt>
      <trkpt lat="44.41738" lon="5.39982">
        <ele>1269.5</ele>
        <time>2023-07-24T08:45:36Z</time>
      </trkpt>
      <trkpt lat="44.41738" lon="5.39983">
        <ele>1269.5</ele>
        <time>2023-07-24T08:45:37Z</time>
      </trkpt>
      <trkpt lat="44.41738" lon="5.39984">
        <ele>1269.4</ele>
        <time>2023-07-24T08:45:38Z</time>
      </trkpt>
      <trkpt lat="44.41738" lon="5.39984">
        <ele>1269.4</ele>
        <time>2023-07-24T08:45:39Z</time>
      </trkpt>
      <trkpt lat="44.41738" lon="5.39985">
        <ele>1269.4</ele>
        <time>2023-07-24T08:45:40Z</time>
      </trkpt>
      <trkpt lat="44.41739" lon="5.39985">
        <ele>1269.3</ele>
        <time>2023-07-24T08:45:41Z</time>
      </trkpt>
      <trkpt lat="44.41739" lon="5.39985">
        <ele>1269.3</ele>
        <time>2023-07-24T08:45:42Z</time>
      </trkpt>
      <trkpt lat="44.41739" lon="5.39985">
        <ele>1269.3</ele>
        <time>2023-07-24T08:45:43Z</time>
      </trkpt>
      <trkpt lat="44.41739" lon="5.39985">
        <ele>1269.3</ele>
        <time>2023-07-24T08:45:44Z</time>
      </trkpt>
      <trkpt lat="44.41739" lon="5.39985">
        <ele>1269.3</ele>
        <time>2023-07-24T08:45:45Z</time>
      </trkpt>
      <trkpt lat="44.41739" lon="5.39985">
        <ele>1269.3</ele>
        <time>2023-07-24T08:45:46Z</time>
      </trkpt>
      <trkpt lat="44.41739" lon="5.39985">
        <ele>1269.3</ele>
        <time>2023-07-24T08:45:47Z</time>
      </trkpt>
      <trkpt lat="44.41739" lon="5.39986">
        <ele>1269.3</ele>
        <time>2023-07-24T08:45:48Z</time>
      </trkpt>
      <trkpt lat="44.4174" lon="5.39986">
        <ele>1269.3</ele>
        <time>2023-07-24T08:45:49Z</time>
      </trkpt>
      <trkpt lat="44.4174" lon="5.39987">
        <ele>1269.2</ele>
        <time>2023-07-24T08:45:50Z</time>
      </trkpt>
      <trkpt lat="44.41747" lon="5.40007">
        <ele>1268.6</ele>
        <time>2023-07-24T08:46:28Z</time>
      </trkpt>
      <trkpt lat="44.41747" lon="5.40007">
        <ele>1268.5</ele>
        <time>2023-07-24T08:46:29Z</time>
      </trkpt>
      <trkpt lat="44.41747" lon="5.40007">
        <ele>1268.5</ele>
        <time>2023-07-24T08:46:30Z</time>
      </trkpt>
      <trkpt lat="44.41747" lon="5.40007">
        <ele>1268.5</ele>
        <time>2023-07-24T08:46:31Z</time>
      </trkpt>
      <trkpt lat="44.41747" lon="5.40007">
        <ele>1268.5</ele>
        <time>2023-07-24T08:46:32Z</time>
      </trkpt>
      <trkpt lat="44.41747" lon="5.40007">
        <ele>1268.5</ele>
        <time>2023-07-24T08:46:33Z</time>
      </trkpt>
      <trkpt lat="44.41747" lon="5.40007">
        <ele>1268.5</ele>
        <time>2023-07-24T08:46:34Z</time>
      </trkpt>
      <trkpt lat="44.41748" lon="5.40007">
        <ele>1268.5</ele>
        <time>2023-07-24T08:46:35Z</time>
      </trkpt>
      <trkpt lat="44.41748" lon="5.40006">
        <ele>1268.5</ele>
        <time>2023-07-24T08:46:36Z</time>
      </trkpt>
      <trkpt lat="44.41748" lon="5.40006">
        <ele>1268.5</ele>
        <time>2023-07-24T08:46:37Z</time>
      </trkpt>
      <trkpt lat="44.41748" lon="5.40006">
        <ele>1268.5</ele>
        <time>2023-07-24T08:46:38Z</time>
      </trkpt>
      <trkpt lat="44.41748" lon="5.40006">
        <ele>1268.5</ele>
        <time>2023-07-24T08:46:39Z</time>
      </trkpt>
      <trkpt lat="44.41748" lon="5.40006">
        <ele>1268.5</ele>
        <time>2023-07-24T08:46:40Z</time>
      </trkpt>
      <trkpt lat="44.41748" lon="5.40006">
        <ele>1268.5</ele>
        <time>2023-07-24T08:46:41Z</time>
      </trkpt>
      <trkpt lat="44.41748" lon="5.40006">
        <ele>1268.5</ele>
        <time>2023-07-24T08:46:42Z</time>
      </trkpt>
      <trkpt lat="44.41748" lon="5.40006">
        <ele>1268.5</ele>
        <time>2023-07-24T08:46:43Z</time>
      </trkpt>
      <trkpt lat="44.41748" lon="5.40006">
        <ele>1268.5</ele>
        <time>2023-07-24T08:46:44Z</time>
      </trkpt>
      <trkpt lat="44.41748" lon="5.40006">
        <ele>1268.5</ele>
        <time>2023-07-24T08:46:45Z</time>
      </trkpt>
      <trkpt lat="44.41748" lon="5.40006">
        <ele>1268.5</ele>
        <time>2023-07-24T08:46:46Z</time>
      </trkpt>
      <trkpt lat="44.41748" lon="5.40006">
        <ele>1268.5</ele>
        <time>2023-07-24T08:46:47Z</time>
      </trkpt>
      <trkpt lat="44.41748" lon="5.40006">
        <ele>1268.5</ele>
        <time>2023-07-24T08:46:48Z</time>
      </trkpt>
      <trkpt lat="44.41749" lon="5.40007">
        <ele>1268.4</ele>
        <time>2023-07-24T08:46:49Z</time>
      </trkpt>
      <trkpt lat="44.41749" lon="5.40008">
        <ele>1268.4</ele>
        <time>2023-07-24T08:46:50Z</time>
      </trkpt>
      <trkpt lat="44.4175" lon="5.40008">
        <ele>1268.4</ele>
        <time>2023-07-24T08:46:51Z</time>
      </trkpt>
      <trkpt lat="44.4175" lon="5.40009">
        <ele>1268.4</ele>
        <time>2023-07-24T08:46:52Z</time>
      </trkpt>
      <trkpt lat="44.41749" lon="5.4001">
        <ele>1268.4</ele>
        <time>2023-07-24T08:46:53Z</time>
      </trkpt>
      <trkpt lat="44.41749" lon="5.40011">
        <ele>1268.3</ele>
        <time>2023-07-24T08:46:54Z</time>
      </trkpt>
      <trkpt lat="44.41749" lon="5.40012">
        <ele>1268.3</ele>
        <time>2023-07-24T08:46:55Z</time>
      </trkpt>
      <trkpt lat="44.41749" lon="5.40013">
        <ele>1268.3</ele>
        <time>2023-07-24T08:46:56Z</time>
      </trkpt>
      <trkpt lat="44.41749" lon="5.40014">
        <ele>1268.3</ele>
        <time>2023-07-24T08:46:57Z</time>
      </trkpt>
      <trkpt lat="44.41749" lon="5.40014">
        <ele>1268.3</ele>
        <time>2023-07-24T08:46:58Z</time>
      </trkpt>
      <trkpt lat="44.41749" lon="5.40015">
        <ele>1268.3</ele>
        <time>2023-07-24T08:46:59Z</time>
      </trkpt>
      <trkpt lat="44.41749" lon="5.40015">
        <ele>1268.3</ele>
        <time>2023-07-24T08:47:00Z</time>
      </trkpt>
      <trkpt lat="44.41749" lon="5.40015">
        <ele>1268.3</ele>
        <time>2023-07-24T08:47:01Z</time>
      </trkpt>
      <trkpt lat="44.41749" lon="5.40015">
        <ele>1268.3</ele>
        <time>2023-07-24T08:47:02Z</time>
      </trkpt>
      <trkpt lat="44.41749" lon="5.40015">
        <ele>1268.3</ele>
        <time>2023-07-24T08:47:03Z</time>
      </trkpt>
      <trkpt lat="44.41749" lon="5.40015">
        <ele>1268.3</ele>
        <time>2023-07-24T08:47:04Z</time>
      </trkpt>
      <trkpt lat="44.41749" lon="5.40016">
        <ele>1268.3</ele>
        <time>2023-07-24T08:47:05Z</time>
      </trkpt>
      <trkpt lat="44.41749" lon="5.40016">
        <ele>1268.3</ele>
        <time>2023-07-24T08:47:06Z</time>
      </trkpt>
      <trkpt lat="44.41749" lon="5.40019">
        <ele>1268.2</ele>
        <time>2023-07-24T08:47:07Z</time>
      </trkpt>
      <trkpt lat="44.4175" lon="5.40021">
        <ele>1268.2</ele>
        <time>2023-07-24T08:47:08Z</time>
      </trkpt>
      <trkpt lat="44.4175" lon="5.40022">
        <ele>1268.2</ele>
        <time>2023-07-24T08:47:09Z</time>
      </trkpt>
      <trkpt lat="44.41752" lon="5.40026">
        <ele>1268.2</ele>
        <time>2023-07-24T08:47:10Z</time>
      </trkpt>
      <trkpt lat="44.41753" lon="5.40028">
        <ele>1268.1</ele>
        <time>2023-07-24T08:47:11Z</time>
      </trkpt>
      <trkpt lat="44.41755" lon="5.40031">
        <ele>1268.1</ele>
        <time>2023-07-24T08:47:12Z</time>
      </trkpt>
      <trkpt lat="44.41755" lon="5.40032">
        <ele>1268.1</ele>
        <time>2023-07-24T08:47:13Z</time>
      </trkpt>
      <trkpt lat="44.41757" lon="5.40037">
        <ele>1268.3</ele>
        <time>2023-07-24T08:47:14Z</time>
      </trkpt>
      <trkpt lat="44.41757" lon="5.40038">
        <ele>1268.3</ele>
        <time>2023-07-24T08:47:15Z</time>
      </trkpt>
      <trkpt lat="44.41759" lon="5.40039">
        <ele>1268.5</ele>
        <time>2023-07-24T08:47:16Z</time>
      </trkpt>
      <trkpt lat="44.41759" lon="5.4004">
        <ele>1268.5</ele>
        <time>2023-07-24T08:47:17Z</time>
      </trkpt>
      <trkpt lat="44.41759" lon="5.40039">
        <ele>1268.5</ele>
        <time>2023-07-24T08:47:18Z</time>
      </trkpt>
      <trkpt lat="44.41759" lon="5.40039">
        <ele>1268.5</ele>
        <time>2023-07-24T08:47:19Z</time>
      </trkpt>
      <trkpt lat="44.41759" lon="5.40039">
        <ele>1268.5</ele>
        <time>2023-07-24T08:47:20Z</time>
      </trkpt>
      <trkpt lat="44.41759" lon="5.40039">
        <ele>1268.5</ele>
        <time>2023-07-24T08:47:21Z</time>
      </trkpt>
      <trkpt lat="44.41759" lon="5.40039">
        <ele>1268.5</ele>
        <time>2023-07-24T08:47:22Z</time>
      </trkpt>
      <trkpt lat="44.41759" lon="5.40039">
        <ele>1268.6</ele>
        <time>2023-07-24T08:47:23Z</time>
      </trkpt>
      <trkpt lat="44.4176" lon="5.40039">
        <ele>1268.6</ele>
        <time>2023-07-24T08:47:24Z</time>
      </trkpt>
      <trkpt lat="44.4176" lon="5.40039">
        <ele>1268.6</ele>
        <time>2023-07-24T08:47:25Z</time>
      </trkpt>
      <trkpt lat="44.4176" lon="5.4004">
        <ele>1268.6</ele>
        <time>2023-07-24T08:47:27Z</time>
      </trkpt>
      <trkpt lat="44.4176" lon="5.4004">
        <ele>1268.6</ele>
        <time>2023-07-24T08:47:28Z</time>
      </trkpt>
      <trkpt lat="44.4176" lon="5.4004">
        <ele>1268.6</ele>
        <time>2023-07-24T08:47:29Z</time>
      </trkpt>
      <trkpt lat="44.4176" lon="5.40039">
        <ele>1268.6</ele>
        <time>2023-07-24T08:47:30Z</time>
      </trkpt>
      <trkpt lat="44.41762" lon="5.40042">
        <ele>1268.8</ele>
        <time>2023-07-24T08:47:36Z</time>
      </trkpt>
      <trkpt lat="44.41762" lon="5.40043">
        <ele>1268.9</ele>
        <time>2023-07-24T08:47:37Z</time>
      </trkpt>
      <trkpt lat="44.41763" lon="5.40045">
        <ele>1268.9</ele>
        <time>2023-07-24T08:47:38Z</time>
      </trkpt>
      <trkpt lat="44.41763" lon="5.40045">
        <ele>1269</ele>
        <time>2023-07-24T08:47:39Z</time>
      </trkpt>
      <trkpt lat="44.41763" lon="5.40046">
        <ele>1269</ele>
        <time>2023-07-24T08:47:40Z</time>
      </trkpt>
      <trkpt lat="44.41765" lon="5.40048">
        <ele>1269.2</ele>
        <time>2023-07-24T08:47:41Z</time>
      </trkpt>
      <trkpt lat="44.41765" lon="5.40049">
        <ele>1269.3</ele>
        <time>2023-07-24T08:47:42Z</time>
      </trkpt>
      <trkpt lat="44.41766" lon="5.4005">
        <ele>1269.3</ele>
        <time>2023-07-24T08:47:43Z</time>
      </trkpt>
      <trkpt lat="44.41766" lon="5.40051">
        <ele>1269.4</ele>
        <time>2023-07-24T08:47:44Z</time>
      </trkpt>
      <trkpt lat="44.41767" lon="5.40052">
        <ele>1269.5</ele>
        <time>2023-07-24T08:47:45Z</time>
      </trkpt>
      <trkpt lat="44.41768" lon="5.40053">
        <ele>1269.6</ele>
        <time>2023-07-24T08:47:46Z</time>
      </trkpt>
      <trkpt lat="44.41769" lon="5.40054">
        <ele>1269.7</ele>
        <time>2023-07-24T08:47:47Z</time>
      </trkpt>
      <trkpt lat="44.4177" lon="5.40054">
        <ele>1269.8</ele>
        <time>2023-07-24T08:47:48Z</time>
      </trkpt>
      <trkpt lat="44.41771" lon="5.40054">
        <ele>1269.8</ele>
        <time>2023-07-24T08:47:49Z</time>
      </trkpt>
      <trkpt lat="44.41772" lon="5.40054">
        <ele>1269.9</ele>
        <time>2023-07-24T08:47:50Z</time>
      </trkpt>
      <trkpt lat="44.41773" lon="5.40054">
        <ele>1270</ele>
        <time>2023-07-24T08:47:51Z</time>
      </trkpt>
      <trkpt lat="44.41774" lon="5.40054">
        <ele>1270</ele>
        <time>2023-07-24T08:47:52Z</time>
      </trkpt>
      <trkpt lat="44.41775" lon="5.40054">
        <ele>1270.1</ele>
        <time>2023-07-24T08:47:53Z</time>
      </trkpt>
      <trkpt lat="44.41776" lon="5.40054">
        <ele>1270.1</ele>
        <time>2023-07-24T08:47:54Z</time>
      </trkpt>
      <trkpt lat="44.41776" lon="5.40054">
        <ele>1270.2</ele>
        <time>2023-07-24T08:47:55Z</time>
      </trkpt>
      <trkpt lat="44.41777" lon="5.40054">
        <ele>1270.2</ele>
        <time>2023-07-24T08:47:56Z</time>
      </trkpt>
      <trkpt lat="44.41778" lon="5.40054">
        <ele>1270.3</ele>
        <time>2023-07-24T08:47:57Z</time>
      </trkpt>
      <trkpt lat="44.41779" lon="5.40056">
        <ele>1270.3</ele>
        <time>2023-07-24T08:47:58Z</time>
      </trkpt>
      <trkpt lat="44.41779" lon="5.40056">
        <ele>1270.4</ele>
        <time>2023-07-24T08:47:59Z</time>
      </trkpt>
      <trkpt lat="44.4178" lon="5.40057">
        <ele>1270.4</ele>
        <time>2023-07-24T08:48:00Z</time>
      </trkpt>
      <trkpt lat="44.4178" lon="5.40058">
        <ele>1270.4</ele>
        <time>2023-07-24T08:48:01Z</time>
      </trkpt>
      <trkpt lat="44.4178" lon="5.4006">
        <ele>1270.5</ele>
        <time>2023-07-24T08:48:02Z</time>
      </trkpt>
      <trkpt lat="44.41781" lon="5.40061">
        <ele>1270.5</ele>
        <time>2023-07-24T08:48:03Z</time>
      </trkpt>
      <trkpt lat="44.41781" lon="5.40062">
        <ele>1270.5</ele>
        <time>2023-07-24T08:48:04Z</time>
      </trkpt>
      <trkpt lat="44.41781" lon="5.40063">
        <ele>1270.5</ele>
        <time>2023-07-24T08:48:05Z</time>
      </trkpt>
      <trkpt lat="44.41781" lon="5.40065">
        <ele>1270.5</ele>
        <time>2023-07-24T08:48:06Z</time>
      </trkpt>
      <trkpt lat="44.41781" lon="5.40066">
        <ele>1270.6</ele>
        <time>2023-07-24T08:48:07Z</time>
      </trkpt>
      <trkpt lat="44.41781" lon="5.40067">
        <ele>1270.6</ele>
        <time>2023-07-24T08:48:08Z</time>
      </trkpt>
      <trkpt lat="44.41781" lon="5.40066">
        <ele>1270.6</ele>
        <time>2023-07-24T08:48:09Z</time>
      </trkpt>
      <trkpt lat="44.41782" lon="5.40065">
        <ele>1270.6</ele>
        <time>2023-07-24T08:48:10Z</time>
      </trkpt>
      <trkpt lat="44.41782" lon="5.40063">
        <ele>1270.6</ele>
        <time>2023-07-24T08:48:11Z</time>
      </trkpt>
      <trkpt lat="44.41782" lon="5.40061">
        <ele>1270.6</ele>
        <time>2023-07-24T08:48:12Z</time>
      </trkpt>
      <trkpt lat="44.41781" lon="5.4006">
        <ele>1270.6</ele>
        <time>2023-07-24T08:48:13Z</time>
      </trkpt>
      <trkpt lat="44.41781" lon="5.40058">
        <ele>1270.6</ele>
        <time>2023-07-24T08:48:14Z</time>
      </trkpt>
      <trkpt lat="44.4178" lon="5.40057">
        <ele>1270.6</ele>
        <time>2023-07-24T08:48:15Z</time>
      </trkpt>
      <trkpt lat="44.41779" lon="5.40057">
        <ele>1270.6</ele>
        <time>2023-07-24T08:48:16Z</time>
      </trkpt>
      <trkpt lat="44.41778" lon="5.40056">
        <ele>1270.6</ele>
        <time>2023-07-24T08:48:17Z</time>
      </trkpt>
      <trkpt lat="44.41777" lon="5.40055">
        <ele>1270.6</ele>
        <time>2023-07-24T08:48:18Z</time>
      </trkpt>
      <trkpt lat="44.41776" lon="5.40054">
        <ele>1270.6</ele>
        <time>2023-07-24T08:48:19Z</time>
      </trkpt>
      <trkpt lat="44.41775" lon="5.40054">
        <ele>1270.6</ele>
        <time>2023-07-24T08:48:20Z</time>
      </trkpt>
      <trkpt lat="44.41774" lon="5.40053">
        <ele>1270.6</ele>
        <time>2023-07-24T08:48:21Z</time>
      </trkpt>
      <trkpt lat="44.41773" lon="5.40053">
        <ele>1270.6</ele>
        <time>2023-07-24T08:48:22Z</time>
      </trkpt>
      <trkpt lat="44.41772" lon="5.40052">
        <ele>1270.6</ele>
        <time>2023-07-24T08:48:23Z</time>
      </trkpt>
      <trkpt lat="44.41771" lon="5.40052">
        <ele>1270.6</ele>
        <time>2023-07-24T08:48:24Z</time>
      </trkpt>
      <trkpt lat="44.41771" lon="5.40052">
        <ele>1270.6</ele>
        <time>2023-07-24T08:48:25Z</time>
      </trkpt>
      <trkpt lat="44.4177" lon="5.40051">
        <ele>1270.6</ele>
        <time>2023-07-24T08:48:26Z</time>
      </trkpt>
      <trkpt lat="44.41769" lon="5.4005">
        <ele>1270.6</ele>
        <time>2023-07-24T08:48:27Z</time>
      </trkpt>
      <trkpt lat="44.41768" lon="5.4005">
        <ele>1270.6</ele>
        <time>2023-07-24T08:48:28Z</time>
      </trkpt>
      <trkpt lat="44.41767" lon="5.40048">
        <ele>1270.6</ele>
        <time>2023-07-24T08:48:29Z</time>
      </trkpt>
      <trkpt lat="44.41766" lon="5.40047">
        <ele>1270.6</ele>
        <time>2023-07-24T08:48:30Z</time>
      </trkpt>
      <trkpt lat="44.41765" lon="5.40046">
        <ele>1270.6</ele>
        <time>2023-07-24T08:48:31Z</time>
      </trkpt>
      <trkpt lat="44.41765" lon="5.40045">
        <ele>1270.6</ele>
        <time>2023-07-24T08:48:32Z</time>
      </trkpt>
      <trkpt lat="44.41764" lon="5.40044">
        <ele>1270.6</ele>
        <time>2023-07-24T08:48:33Z</time>
      </trkpt>
      <trkpt lat="44.41763" lon="5.40042">
        <ele>1270.6</ele>
        <time>2023-07-24T08:48:34Z</time>
      </trkpt>
      <trkpt lat="44.41763" lon="5.40041">
        <ele>1270.7</ele>
        <time>2023-07-24T08:48:35Z</time>
      </trkpt>
      <trkpt lat="44.41762" lon="5.4004">
        <ele>1270.7</ele>
        <time>2023-07-24T08:48:36Z</time>
      </trkpt>
      <trkpt lat="44.41761" lon="5.4004">
        <ele>1270.7</ele>
        <time>2023-07-24T08:48:37Z</time>
      </trkpt>
      <trkpt lat="44.41761" lon="5.4004">
        <ele>1270.7</ele>
        <time>2023-07-24T08:48:38Z</time>
      </trkpt>
      <trkpt lat="44.4176" lon="5.40041">
        <ele>1270.7</ele>
        <time>2023-07-24T08:48:39Z</time>
      </trkpt>
      <trkpt lat="44.4176" lon="5.40042">
        <ele>1270.7</ele>
        <time>2023-07-24T08:48:40Z</time>
      </trkpt>
      <trkpt lat="44.41759" lon="5.40043">
        <ele>1270.7</ele>
        <time>2023-07-24T08:48:41Z</time>
      </trkpt>
      <trkpt lat="44.41759" lon="5.40044">
        <ele>1270.7</ele>
        <time>2023-07-24T08:48:42Z</time>
      </trkpt>
      <trkpt lat="44.41759" lon="5.40046">
        <ele>1270.7</ele>
        <time>2023-07-24T08:48:43Z</time>
      </trkpt>
      <trkpt lat="44.4176" lon="5.40047">
        <ele>1270.7</ele>
        <time>2023-07-24T08:48:44Z</time>
      </trkpt>
      <trkpt lat="44.4176" lon="5.40048">
        <ele>1270.7</ele>
        <time>2023-07-24T08:48:45Z</time>
      </trkpt>
      <trkpt lat="44.4176" lon="5.4005">
        <ele>1270.7</ele>
        <time>2023-07-24T08:48:46Z</time>
      </trkpt>
      <trkpt lat="44.4176" lon="5.40051">
        <ele>1270.7</ele>
        <time>2023-07-24T08:48:47Z</time>
      </trkpt>
      <trkpt lat="44.41761" lon="5.40051">
        <ele>1270.7</ele>
        <time>2023-07-24T08:48:48Z</time>
      </trkpt>
      <trkpt lat="44.41761" lon="5.40051">
        <ele>1270.7</ele>
        <time>2023-07-24T08:48:49Z</time>
      </trkpt>
      <trkpt lat="44.41761" lon="5.4005">
        <ele>1270.8</ele>
        <time>2023-07-24T08:48:50Z</time>
      </trkpt>
      <trkpt lat="44.4176" lon="5.40049">
        <ele>1270.8</ele>
        <time>2023-07-24T08:48:51Z</time>
      </trkpt>
      <trkpt lat="44.4176" lon="5.40048">
        <ele>1270.8</ele>
        <time>2023-07-24T08:48:52Z</time>
      </trkpt>
      <trkpt lat="44.4176" lon="5.40047">
        <ele>1270.8</ele>
        <time>2023-07-24T08:48:53Z</time>
      </trkpt>
      <trkpt lat="44.4176" lon="5.40045">
        <ele>1270.8</ele>
        <time>2023-07-24T08:48:54Z</time>
      </trkpt>
      <trkpt lat="44.41759" lon="5.40043">
        <ele>1270.8</ele>
        <time>2023-07-24T08:48:55Z</time>
      </trkpt>
      <trkpt lat="44.41759" lon="5.40042">
        <ele>1270.8</ele>
        <time>2023-07-24T08:48:56Z</time>
      </trkpt>
      <trkpt lat="44.41759" lon="5.40041">
        <ele>1270.8</ele>
        <time>2023-07-24T08:48:57Z</time>
      </trkpt>
      <trkpt lat="44.41759" lon="5.4004">
        <ele>1270.8</ele>
        <time>2023-07-24T08:48:58Z</time>
      </trkpt>
      <trkpt lat="44.41759" lon="5.40038">
        <ele>1270.8</ele>
        <time>2023-07-24T08:48:59Z</time>
      </trkpt>
      <trkpt lat="44.41759" lon="5.40037">
        <ele>1270.8</ele>
        <time>2023-07-24T08:49:00Z</time>
      </trkpt>
      <trkpt lat="44.4176" lon="5.40037">
        <ele>1270.8</ele>
        <time>2023-07-24T08:49:01Z</time>
      </trkpt>
      <trkpt lat="44.4176" lon="5.40036">
        <ele>1270.8</ele>
        <time>2023-07-24T08:49:02Z</time>
      </trkpt>
      <trkpt lat="44.41761" lon="5.40036">
        <ele>1270.8</ele>
        <time>2023-07-24T08:49:03Z</time>
      </trkpt>
      <trkpt lat="44.41762" lon="5.40037">
        <ele>1270.8</ele>
        <time>2023-07-24T08:49:04Z</time>
      </trkpt>
      <trkpt lat="44.41762" lon="5.40037">
        <ele>1270.8</ele>
        <time>2023-07-24T08:49:05Z</time>
      </trkpt>
      <trkpt lat="44.41762" lon="5.40037">
        <ele>1270.8</ele>
        <time>2023-07-24T08:49:06Z</time>
      </trkpt>
      <trkpt lat="44.41762" lon="5.40038">
        <ele>1270.8</ele>
        <time>2023-07-24T08:49:07Z</time>
      </trkpt>
      <trkpt lat="44.41762" lon="5.40038">
        <ele>1270.8</ele>
        <time>2023-07-24T08:49:08Z</time>
      </trkpt>
      <trkpt lat="44.41761" lon="5.40038">
        <ele>1270.8</ele>
        <time>2023-07-24T08:49:09Z</time>
      </trkpt>
      <trkpt lat="44.41761" lon="5.40039">
        <ele>1270.8</ele>
        <time>2023-07-24T08:49:10Z</time>
      </trkpt>
      <trkpt lat="44.41762" lon="5.40041">
        <ele>1270.8</ele>
        <time>2023-07-24T08:49:11Z</time>
      </trkpt>
      <trkpt lat="44.41764" lon="5.40045">
        <ele>1270.8</ele>
        <time>2023-07-24T08:49:12Z</time>
      </trkpt>
      <trkpt lat="44.41764" lon="5.40047">
        <ele>1270.8</ele>
        <time>2023-07-24T08:49:13Z</time>
      </trkpt>
      <trkpt lat="44.41766" lon="5.4005">
        <ele>1270.8</ele>
        <time>2023-07-24T08:49:14Z</time>
      </trkpt>
      <trkpt lat="44.41769" lon="5.40053">
        <ele>1270.7</ele>
        <time>2023-07-24T08:49:15Z</time>
      </trkpt>
      <trkpt lat="44.41771" lon="5.40054">
        <ele>1270.7</ele>
        <time>2023-07-24T08:49:16Z</time>
      </trkpt>
      <trkpt lat="44.41774" lon="5.40055">
        <ele>1270.7</ele>
        <time>2023-07-24T08:49:17Z</time>
      </trkpt>
      <trkpt lat="44.41777" lon="5.40057">
        <ele>1270.6</ele>
        <time>2023-07-24T08:49:18Z</time>
      </trkpt>
      <trkpt lat="44.41778" lon="5.40058">
        <ele>1270.5</ele>
        <time>2023-07-24T08:49:19Z</time>
      </trkpt>
      <trkpt lat="44.41781" lon="5.40061">
        <ele>1270.4</ele>
        <time>2023-07-24T08:49:20Z</time>
      </trkpt>
      <trkpt lat="44.41782" lon="5.40062">
        <ele>1270.4</ele>
        <time>2023-07-24T08:49:21Z</time>
      </trkpt>
      <trkpt lat="44.41782" lon="5.40066">
        <ele>1270.2</ele>
        <time>2023-07-24T08:49:22Z</time>
      </trkpt>
      <trkpt lat="44.41782" lon="5.40068">
        <ele>1270.1</ele>
        <time>2023-07-24T08:49:23Z</time>
      </trkpt>
      <trkpt lat="44.41783" lon="5.40073">
        <ele>1270</ele>
        <time>2023-07-24T08:49:24Z</time>
      </trkpt>
      <trkpt lat="44.41784" lon="5.40074">
        <ele>1269.9</ele>
        <time>2023-07-24T08:49:25Z</time>
      </trkpt>
      <trkpt lat="44.41785" lon="5.4008">
        <ele>1269.7</ele>
        <time>2023-07-24T08:49:26Z</time>
      </trkpt>
      <trkpt lat="44.41786" lon="5.40081">
        <ele>1269.6</ele>
        <time>2023-07-24T08:49:27Z</time>
      </trkpt>
      <trkpt lat="44.41788" lon="5.40085">
        <ele>1269.5</ele>
        <time>2023-07-24T08:49:28Z</time>
      </trkpt>
      <trkpt lat="44.41789" lon="5.40089">
        <ele>1269.4</ele>
        <time>2023-07-24T08:49:29Z</time>
      </trkpt>
      <trkpt lat="44.4179" lon="5.40094">
        <ele>1269.4</ele>
        <time>2023-07-24T08:49:30Z</time>
      </trkpt>
      <trkpt lat="44.41791" lon="5.401">
        <ele>1269.3</ele>
        <time>2023-07-24T08:49:31Z</time>
      </trkpt>
      <trkpt lat="44.41793" lon="5.40105">
        <ele>1269.3</ele>
        <time>2023-07-24T08:49:32Z</time>
      </trkpt>
      <trkpt lat="44.41795" lon="5.40109">
        <ele>1269.4</ele>
        <time>2023-07-24T08:49:33Z</time>
      </trkpt>
      <trkpt lat="44.41797" lon="5.40113">
        <ele>1269.4</ele>
        <time>2023-07-24T08:49:34Z</time>
      </trkpt>
      <trkpt lat="44.41799" lon="5.40116">
        <ele>1269.5</ele>
        <time>2023-07-24T08:49:35Z</time>
      </trkpt>
      <trkpt lat="44.418" lon="5.40117">
        <ele>1269.5</ele>
        <time>2023-07-24T08:49:36Z</time>
      </trkpt>
      <trkpt lat="44.418" lon="5.40122">
        <ele>1269.5</ele>
        <time>2023-07-24T08:49:37Z</time>
      </trkpt>
      <trkpt lat="44.41801" lon="5.40123">
        <ele>1269.6</ele>
        <time>2023-07-24T08:49:38Z</time>
      </trkpt>
      <trkpt lat="44.41802" lon="5.40127">
        <ele>1269.6</ele>
        <time>2023-07-24T08:49:39Z</time>
      </trkpt>
      <trkpt lat="44.41803" lon="5.40128">
        <ele>1269.6</ele>
        <time>2023-07-24T08:49:40Z</time>
      </trkpt>
      <trkpt lat="44.41804" lon="5.40132">
        <ele>1269.7</ele>
        <time>2023-07-24T08:49:41Z</time>
      </trkpt>
      <trkpt lat="44.41804" lon="5.40133">
        <ele>1269.7</ele>
        <time>2023-07-24T08:49:42Z</time>
      </trkpt>
      <trkpt lat="44.41805" lon="5.40135">
        <ele>1269.8</ele>
        <time>2023-07-24T08:49:43Z</time>
      </trkpt>
      <trkpt lat="44.41807" lon="5.40137">
        <ele>1269.9</ele>
        <time>2023-07-24T08:49:44Z</time>
      </trkpt>
      <trkpt lat="44.41808" lon="5.40138">
        <ele>1269.9</ele>
        <time>2023-07-24T08:49:45Z</time>
      </trkpt>
      <trkpt lat="44.41809" lon="5.40138">
        <ele>1270</ele>
        <time>2023-07-24T08:49:46Z</time>
      </trkpt>
      <trkpt lat="44.4181" lon="5.40138">
        <ele>1270</ele>
        <time>2023-07-24T08:49:47Z</time>
      </trkpt>
      <trkpt lat="44.4181" lon="5.40138">
        <ele>1270</ele>
        <time>2023-07-24T08:49:48Z</time>
      </trkpt>
      <trkpt lat="44.4181" lon="5.40138">
        <ele>1270</ele>
        <time>2023-07-24T08:49:49Z</time>
      </trkpt>
      <trkpt lat="44.4181" lon="5.40138">
        <ele>1270</ele>
        <time>2023-07-24T08:49:50Z</time>
      </trkpt>
      <trkpt lat="44.4181" lon="5.40139">
        <ele>1270</ele>
        <time>2023-07-24T08:49:51Z</time>
      </trkpt>
      <trkpt lat="44.4181" lon="5.40139">
        <ele>1270</ele>
        <time>2023-07-24T08:49:52Z</time>
      </trkpt>
      <trkpt lat="44.4181" lon="5.40139">
        <ele>1270</ele>
        <time>2023-07-24T08:49:53Z</time>
      </trkpt>
      <trkpt lat="44.4181" lon="5.40139">
        <ele>1270</ele>
        <time>2023-07-24T08:49:54Z</time>
      </trkpt>
      <trkpt lat="44.4181" lon="5.40139">
        <ele>1270</ele>
        <time>2023-07-24T08:49:55Z</time>
      </trkpt>
      <trkpt lat="44.4181" lon="5.40139">
        <ele>1270</ele>
        <time>2023-07-24T08:49:56Z</time>
      </trkpt>
      <trkpt lat="44.4181" lon="5.40139">
        <ele>1270</ele>
        <time>2023-07-24T08:49:57Z</time>
      </trkpt>
      <trkpt lat="44.4181" lon="5.40139">
        <ele>1270</ele>
        <time>2023-07-24T08:49:58Z</time>
      </trkpt>
      <trkpt lat="44.41811" lon="5.40142">
        <ele>1270.2</ele>
        <time>2023-07-24T08:50:55Z</time>
      </trkpt>
      <trkpt lat="44.41811" lon="5.40143">
        <ele>1270.2</ele>
        <time>2023-07-24T08:50:56Z</time>
      </trkpt>
      <trkpt lat="44.41812" lon="5.40144">
        <ele>1270.3</ele>
        <time>2023-07-24T08:50:57Z</time>
      </trkpt>
      <trkpt lat="44.41812" lon="5.40145">
        <ele>1270.3</ele>
        <time>2023-07-24T08:50:58Z</time>
      </trkpt>
      <trkpt lat="44.41813" lon="5.40147">
        <ele>1270.4</ele>
        <time>2023-07-24T08:50:59Z</time>
      </trkpt>
      <trkpt lat="44.41814" lon="5.40149">
        <ele>1270.5</ele>
        <time>2023-07-24T08:51:00Z</time>
      </trkpt>
      <trkpt lat="44.41815" lon="5.40151">
        <ele>1270.7</ele>
        <time>2023-07-24T08:51:01Z</time>
      </trkpt>
      <trkpt lat="44.41816" lon="5.40153">
        <ele>1270.7</ele>
        <time>2023-07-24T08:51:02Z</time>
      </trkpt>
      <trkpt lat="44.41817" lon="5.40155">
        <ele>1270.8</ele>
        <time>2023-07-24T08:51:03Z</time>
      </trkpt>
      <trkpt lat="44.41817" lon="5.40155">
        <ele>1270.9</ele>
        <time>2023-07-24T08:51:04Z</time>
      </trkpt>
      <trkpt lat="44.41817" lon="5.40156">
        <ele>1270.9</ele>
        <time>2023-07-24T08:51:05Z</time>
      </trkpt>
      <trkpt lat="44.41817" lon="5.40156">
        <ele>1270.9</ele>
        <time>2023-07-24T08:51:06Z</time>
      </trkpt>
      <trkpt lat="44.41817" lon="5.40157">
        <ele>1271</ele>
        <time>2023-07-24T08:51:07Z</time>
      </trkpt>
      <trkpt lat="44.41817" lon="5.40157">
        <ele>1271</ele>
        <time>2023-07-24T08:51:08Z</time>
      </trkpt>
      <trkpt lat="44.41817" lon="5.40158">
        <ele>1271</ele>
        <time>2023-07-24T08:51:10Z</time>
      </trkpt>
      <trkpt lat="44.41817" lon="5.40158">
        <ele>1271.1</ele>
        <time>2023-07-24T08:51:11Z</time>
      </trkpt>
      <trkpt lat="44.41817" lon="5.40159">
        <ele>1271.1</ele>
        <time>2023-07-24T08:51:12Z</time>
      </trkpt>
      <trkpt lat="44.41817" lon="5.40159">
        <ele>1271.1</ele>
        <time>2023-07-24T08:51:13Z</time>
      </trkpt>
      <trkpt lat="44.41817" lon="5.4016">
        <ele>1271.1</ele>
        <time>2023-07-24T08:51:14Z</time>
      </trkpt>
      <trkpt lat="44.41817" lon="5.40161">
        <ele>1271.2</ele>
        <time>2023-07-24T08:51:19Z</time>
      </trkpt>
      <trkpt lat="44.41817" lon="5.40161">
        <ele>1271.2</ele>
        <time>2023-07-24T08:51:20Z</time>
      </trkpt>
      <trkpt lat="44.41817" lon="5.40162">
        <ele>1271.2</ele>
        <time>2023-07-24T08:51:21Z</time>
      </trkpt>
      <trkpt lat="44.41817" lon="5.40162">
        <ele>1271.3</ele>
        <time>2023-07-24T08:51:22Z</time>
      </trkpt>
      <trkpt lat="44.41817" lon="5.40163">
        <ele>1271.3</ele>
        <time>2023-07-24T08:51:23Z</time>
      </trkpt>
      <trkpt lat="44.41817" lon="5.40163">
        <ele>1271.3</ele>
        <time>2023-07-24T08:51:24Z</time>
      </trkpt>
      <trkpt lat="44.41817" lon="5.40165">
        <ele>1271.4</ele>
        <time>2023-07-24T08:51:25Z</time>
      </trkpt>
      <trkpt lat="44.41818" lon="5.40167">
        <ele>1271.5</ele>
        <time>2023-07-24T08:51:26Z</time>
      </trkpt>
      <trkpt lat="44.41818" lon="5.40169">
        <ele>1271.7</ele>
        <time>2023-07-24T08:51:27Z</time>
      </trkpt>
      <trkpt lat="44.41819" lon="5.40171">
        <ele>1271.8</ele>
        <time>2023-07-24T08:51:28Z</time>
      </trkpt>
      <trkpt lat="44.4182" lon="5.40172">
        <ele>1271.9</ele>
        <time>2023-07-24T08:51:29Z</time>
      </trkpt>
      <trkpt lat="44.41821" lon="5.40173">
        <ele>1272</ele>
        <time>2023-07-24T08:51:30Z</time>
      </trkpt>
      <trkpt lat="44.41822" lon="5.40174">
        <ele>1272.1</ele>
        <time>2023-07-24T08:51:31Z</time>
      </trkpt>
      <trkpt lat="44.41823" lon="5.40175">
        <ele>1272.2</ele>
        <time>2023-07-24T08:51:32Z</time>
      </trkpt>
      <trkpt lat="44.41824" lon="5.40177">
        <ele>1272.3</ele>
        <time>2023-07-24T08:51:33Z</time>
      </trkpt>
      <trkpt lat="44.41825" lon="5.40178">
        <ele>1272.4</ele>
        <time>2023-07-24T08:51:34Z</time>
      </trkpt>
      <trkpt lat="44.41825" lon="5.40179">
        <ele>1272.5</ele>
        <time>2023-07-24T08:51:35Z</time>
      </trkpt>
      <trkpt lat="44.41826" lon="5.4018">
        <ele>1272.5</ele>
        <time>2023-07-24T08:51:36Z</time>
      </trkpt>
      <trkpt lat="44.41826" lon="5.4018">
        <ele>1272.5</ele>
        <time>2023-07-24T08:51:37Z</time>
      </trkpt>
      <trkpt lat="44.41826" lon="5.40181">
        <ele>1272.6</ele>
        <time>2023-07-24T08:51:38Z</time>
      </trkpt>
      <trkpt lat="44.41827" lon="5.40182">
        <ele>1272.6</ele>
        <time>2023-07-24T08:51:39Z</time>
      </trkpt>
      <trkpt lat="44.41828" lon="5.40182">
        <ele>1272.7</ele>
        <time>2023-07-24T08:51:40Z</time>
      </trkpt>
      <trkpt lat="44.41828" lon="5.40182">
        <ele>1272.8</ele>
        <time>2023-07-24T08:51:41Z</time>
      </trkpt>
      <trkpt lat="44.41828" lon="5.40181">
        <ele>1272.8</ele>
        <time>2023-07-24T08:51:42Z</time>
      </trkpt>
      <trkpt lat="44.41827" lon="5.4018">
        <ele>1272.9</ele>
        <time>2023-07-24T08:51:43Z</time>
      </trkpt>
      <trkpt lat="44.41827" lon="5.40179">
        <ele>1272.9</ele>
        <time>2023-07-24T08:51:44Z</time>
      </trkpt>
      <trkpt lat="44.41826" lon="5.40178">
        <ele>1273</ele>
        <time>2023-07-24T08:51:45Z</time>
      </trkpt>
      <trkpt lat="44.41826" lon="5.40178">
        <ele>1273</ele>
        <time>2023-07-24T08:51:46Z</time>
      </trkpt>
      <trkpt lat="44.41825" lon="5.40176">
        <ele>1273.1</ele>
        <time>2023-07-24T08:51:47Z</time>
      </trkpt>
      <trkpt lat="44.41824" lon="5.40175">
        <ele>1273.2</ele>
        <time>2023-07-24T08:51:48Z</time>
      </trkpt>
      <trkpt lat="44.41822" lon="5.40173">
        <ele>1273.4</ele>
        <time>2023-07-24T08:51:49Z</time>
      </trkpt>
      <trkpt lat="44.41822" lon="5.40172">
        <ele>1273.4</ele>
        <time>2023-07-24T08:51:50Z</time>
      </trkpt>
      <trkpt lat="44.41821" lon="5.40172">
        <ele>1273.5</ele>
        <time>2023-07-24T08:51:51Z</time>
      </trkpt>
      <trkpt lat="44.41821" lon="5.4017">
        <ele>1273.6</ele>
        <time>2023-07-24T08:51:52Z</time>
      </trkpt>
      <trkpt lat="44.41821" lon="5.40169">
        <ele>1273.7</ele>
        <time>2023-07-24T08:51:53Z</time>
      </trkpt>
      <trkpt lat="44.41821" lon="5.40168">
        <ele>1273.7</ele>
        <time>2023-07-24T08:51:54Z</time>
      </trkpt>
      <trkpt lat="44.41821" lon="5.40166">
        <ele>1273.8</ele>
        <time>2023-07-24T08:51:55Z</time>
      </trkpt>
      <trkpt lat="44.41821" lon="5.40164">
        <ele>1273.9</ele>
        <time>2023-07-24T08:51:56Z</time>
      </trkpt>
      <trkpt lat="44.41821" lon="5.40163">
        <ele>1274</ele>
        <time>2023-07-24T08:51:57Z</time>
      </trkpt>
      <trkpt lat="44.4182" lon="5.4016">
        <ele>1274.2</ele>
        <time>2023-07-24T08:51:58Z</time>
      </trkpt>
      <trkpt lat="44.4182" lon="5.40159">
        <ele>1274.2</ele>
        <time>2023-07-24T08:51:59Z</time>
      </trkpt>
      <trkpt lat="44.4182" lon="5.40157">
        <ele>1274.3</ele>
        <time>2023-07-24T08:52:00Z</time>
      </trkpt>
      <trkpt lat="44.41821" lon="5.4016">
        <ele>1274.5</ele>
        <time>2023-07-24T08:52:01Z</time>
      </trkpt>
      <trkpt lat="44.41822" lon="5.40163">
        <ele>1274.7</ele>
        <time>2023-07-24T08:52:02Z</time>
      </trkpt>
      <trkpt lat="44.41823" lon="5.40166">
        <ele>1274.9</ele>
        <time>2023-07-24T08:52:03Z</time>
      </trkpt>
      <trkpt lat="44.41823" lon="5.40169">
        <ele>1275</ele>
        <time>2023-07-24T08:52:04Z</time>
      </trkpt>
      <trkpt lat="44.41824" lon="5.40172">
        <ele>1275.2</ele>
        <time>2023-07-24T08:52:05Z</time>
      </trkpt>
      <trkpt lat="44.41825" lon="5.40175">
        <ele>1275.4</ele>
        <time>2023-07-24T08:52:06Z</time>
      </trkpt>
      <trkpt lat="44.41826" lon="5.40178">
        <ele>1275.6</ele>
        <time>2023-07-24T08:52:07Z</time>
      </trkpt>
      <trkpt lat="44.41826" lon="5.40181">
        <ele>1275.8</ele>
        <time>2023-07-24T08:52:08Z</time>
      </trkpt>
      <trkpt lat="44.41827" lon="5.40184">
        <ele>1276</ele>
        <time>2023-07-24T08:52:09Z</time>
      </trkpt>
      <trkpt lat="44.41828" lon="5.40186">
        <ele>1276.2</ele>
        <time>2023-07-24T08:52:10Z</time>
      </trkpt>
      <trkpt lat="44.41829" lon="5.40189">
        <ele>1276.4</ele>
        <time>2023-07-24T08:52:30Z</time>
      </trkpt>
      <trkpt lat="44.41829" lon="5.40192">
        <ele>1276.6</ele>
        <time>2023-07-24T08:52:31Z</time>
      </trkpt>
      <trkpt lat="44.4183" lon="5.40195">
        <ele>1276.7</ele>
        <time>2023-07-24T08:52:32Z</time>
      </trkpt>
      <trkpt lat="44.41832" lon="5.402">
        <ele>1277.1</ele>
        <time>2023-07-24T08:52:33Z</time>
      </trkpt>
      <trkpt lat="44.41834" lon="5.40204">
        <ele>1277.4</ele>
        <time>2023-07-24T08:52:34Z</time>
      </trkpt>
      <trkpt lat="44.41835" lon="5.40208">
        <ele>1277.7</ele>
        <time>2023-07-24T08:52:35Z</time>
      </trkpt>
      <trkpt lat="44.41837" lon="5.40212">
        <ele>1278.1</ele>
        <time>2023-07-24T08:52:36Z</time>
      </trkpt>
      <trkpt lat="44.41839" lon="5.40216">
        <ele>1278.5</ele>
        <time>2023-07-24T08:52:37Z</time>
      </trkpt>
      <trkpt lat="44.41841" lon="5.40221">
        <ele>1279</ele>
        <time>2023-07-24T08:52:38Z</time>
      </trkpt>
      <trkpt lat="44.41842" lon="5.40225">
        <ele>1279.5</ele>
        <time>2023-07-24T08:52:39Z</time>
      </trkpt>
      <trkpt lat="44.41844" lon="5.40229">
        <ele>1280</ele>
        <time>2023-07-24T08:52:40Z</time>
      </trkpt>
      <trkpt lat="44.41846" lon="5.40232">
        <ele>1280.4</ele>
        <time>2023-07-24T08:52:41Z</time>
      </trkpt>
      <trkpt lat="44.41849" lon="5.40234">
        <ele>1280.9</ele>
        <time>2023-07-24T08:52:42Z</time>
      </trkpt>
      <trkpt lat="44.41851" lon="5.40237">
        <ele>1281.4</ele>
        <time>2023-07-24T08:52:43Z</time>
      </trkpt>
      <trkpt lat="44.41853" lon="5.4024">
        <ele>1281.8</ele>
        <time>2023-07-24T08:52:44Z</time>
      </trkpt>
      <trkpt lat="44.41855" lon="5.40244">
        <ele>1282.3</ele>
        <time>2023-07-24T08:52:45Z</time>
      </trkpt>
      <trkpt lat="44.41857" lon="5.40248">
        <ele>1282.8</ele>
        <time>2023-07-24T08:52:46Z</time>
      </trkpt>
      <trkpt lat="44.4186" lon="5.4025">
        <ele>1283.2</ele>
        <time>2023-07-24T08:52:47Z</time>
      </trkpt>
      <trkpt lat="44.41862" lon="5.40253">
        <ele>1283.6</ele>
        <time>2023-07-24T08:52:48Z</time>
      </trkpt>
      <trkpt lat="44.41864" lon="5.40256">
        <ele>1284</ele>
        <time>2023-07-24T08:52:49Z</time>
      </trkpt>
      <trkpt lat="44.41866" lon="5.4026">
        <ele>1284.5</ele>
        <time>2023-07-24T08:52:50Z</time>
      </trkpt>
      <trkpt lat="44.41866" lon="5.40261">
        <ele>1284.6</ele>
        <time>2023-07-24T08:52:51Z</time>
      </trkpt>
      <trkpt lat="44.41868" lon="5.40265">
        <ele>1285</ele>
        <time>2023-07-24T08:52:52Z</time>
      </trkpt>
      <trkpt lat="44.41869" lon="5.40267">
        <ele>1285.2</ele>
        <time>2023-07-24T08:52:53Z</time>
      </trkpt>
      <trkpt lat="44.4187" lon="5.40271">
        <ele>1285.6</ele>
        <time>2023-07-24T08:52:54Z</time>
      </trkpt>
      <trkpt lat="44.4187" lon="5.40272">
        <ele>1285.7</ele>
        <time>2023-07-24T08:52:55Z</time>
      </trkpt>
      <trkpt lat="44.4187" lon="5.40277">
        <ele>1286.2</ele>
        <time>2023-07-24T08:52:56Z</time>
      </trkpt>
      <trkpt lat="44.4187" lon="5.40279">
        <ele>1286.3</ele>
        <time>2023-07-24T08:52:57Z</time>
      </trkpt>
      <trkpt lat="44.41872" lon="5.40283">
        <ele>1286.7</ele>
        <time>2023-07-24T08:52:58Z</time>
      </trkpt>
      <trkpt lat="44.41873" lon="5.40286">
        <ele>1287</ele>
        <time>2023-07-24T08:52:59Z</time>
      </trkpt>
      <trkpt lat="44.41876" lon="5.40289">
        <ele>1287.3</ele>
        <time>2023-07-24T08:53:00Z</time>
      </trkpt>
      <trkpt lat="44.41878" lon="5.4029">
        <ele>1287.6</ele>
        <time>2023-07-24T08:53:01Z</time>
      </trkpt>
      <trkpt lat="44.41881" lon="5.40294">
        <ele>1287.9</ele>
        <time>2023-07-24T08:53:02Z</time>
      </trkpt>
      <trkpt lat="44.41881" lon="5.40296">
        <ele>1288</ele>
        <time>2023-07-24T08:53:03Z</time>
      </trkpt>
      <trkpt lat="44.41883" lon="5.403">
        <ele>1288.4</ele>
        <time>2023-07-24T08:53:04Z</time>
      </trkpt>
      <trkpt lat="44.41883" lon="5.40302">
        <ele>1288.5</ele>
        <time>2023-07-24T08:53:05Z</time>
      </trkpt>
      <trkpt lat="44.41884" lon="5.40306">
        <ele>1288.8</ele>
        <time>2023-07-24T08:53:06Z</time>
      </trkpt>
      <trkpt lat="44.41884" lon="5.40307">
        <ele>1288.9</ele>
        <time>2023-07-24T08:53:07Z</time>
      </trkpt>
      <trkpt lat="44.41884" lon="5.40312">
        <ele>1289.2</ele>
        <time>2023-07-24T08:53:08Z</time>
      </trkpt>
      <trkpt lat="44.41884" lon="5.40313">
        <ele>1289.3</ele>
        <time>2023-07-24T08:53:09Z</time>
      </trkpt>
      <trkpt lat="44.41886" lon="5.40318">
        <ele>1289.7</ele>
        <time>2023-07-24T08:53:10Z</time>
      </trkpt>
      <trkpt lat="44.41887" lon="5.40319">
        <ele>1289.8</ele>
        <time>2023-07-24T08:53:11Z</time>
      </trkpt>
      <trkpt lat="44.41889" lon="5.40324">
        <ele>1290.2</ele>
        <time>2023-07-24T08:53:12Z</time>
      </trkpt>
      <trkpt lat="44.4189" lon="5.40325">
        <ele>1290.3</ele>
        <time>2023-07-24T08:53:13Z</time>
      </trkpt>
      <trkpt lat="44.41893" lon="5.40327">
        <ele>1290.6</ele>
        <time>2023-07-24T08:53:14Z</time>
      </trkpt>
      <trkpt lat="44.41896" lon="5.40327">
        <ele>1290.9</ele>
        <time>2023-07-24T08:53:15Z</time>
      </trkpt>
      <trkpt lat="44.41897" lon="5.40327">
        <ele>1291</ele>
        <time>2023-07-24T08:53:16Z</time>
      </trkpt>
      <trkpt lat="44.419" lon="5.40328">
        <ele>1291.3</ele>
        <time>2023-07-24T08:53:17Z</time>
      </trkpt>
      <trkpt lat="44.41901" lon="5.40329">
        <ele>1291.4</ele>
        <time>2023-07-24T08:53:18Z</time>
      </trkpt>
      <trkpt lat="44.41904" lon="5.4033">
        <ele>1291.7</ele>
        <time>2023-07-24T08:53:19Z</time>
      </trkpt>
      <trkpt lat="44.41905" lon="5.40331">
        <ele>1291.8</ele>
        <time>2023-07-24T08:53:20Z</time>
      </trkpt>
      <trkpt lat="44.41907" lon="5.40333">
        <ele>1292.1</ele>
        <time>2023-07-24T08:53:21Z</time>
      </trkpt>
      <trkpt lat="44.41908" lon="5.40334">
        <ele>1292.2</ele>
        <time>2023-07-24T08:53:22Z</time>
      </trkpt>
      <trkpt lat="44.41911" lon="5.40336">
        <ele>1292.6</ele>
        <time>2023-07-24T08:53:23Z</time>
      </trkpt>
      <trkpt lat="44.41912" lon="5.40337">
        <ele>1292.7</ele>
        <time>2023-07-24T08:53:24Z</time>
      </trkpt>
      <trkpt lat="44.41916" lon="5.40339">
        <ele>1293.1</ele>
        <time>2023-07-24T08:53:25Z</time>
      </trkpt>
      <trkpt lat="44.41917" lon="5.4034">
        <ele>1293.2</ele>
        <time>2023-07-24T08:53:26Z</time>
      </trkpt>
      <trkpt lat="44.41918" lon="5.40341">
        <ele>1293.4</ele>
        <time>2023-07-24T08:53:27Z</time>
      </trkpt>
      <trkpt lat="44.4192" lon="5.40343">
        <ele>1293.6</ele>
        <time>2023-07-24T08:53:28Z</time>
      </trkpt>
      <trkpt lat="44.41922" lon="5.40345">
        <ele>1293.9</ele>
        <time>2023-07-24T08:53:29Z</time>
      </trkpt>
      <trkpt lat="44.41923" lon="5.40346">
        <ele>1294</ele>
        <time>2023-07-24T08:53:30Z</time>
      </trkpt>
      <trkpt lat="44.41925" lon="5.40349">
        <ele>1294.3</ele>
        <time>2023-07-24T08:53:31Z</time>
      </trkpt>
      <trkpt lat="44.41925" lon="5.40351">
        <ele>1294.4</ele>
        <time>2023-07-24T08:53:32Z</time>
      </trkpt>
      <trkpt lat="44.41926" lon="5.40353">
        <ele>1294.6</ele>
        <time>2023-07-24T08:53:33Z</time>
      </trkpt>
      <trkpt lat="44.41926" lon="5.40355">
        <ele>1294.8</ele>
        <time>2023-07-24T08:53:34Z</time>
      </trkpt>
      <trkpt lat="44.41927" lon="5.40359">
        <ele>1295</ele>
        <time>2023-07-24T08:53:35Z</time>
      </trkpt>
      <trkpt lat="44.41928" lon="5.4036">
        <ele>1295.1</ele>
        <time>2023-07-24T08:53:36Z</time>
      </trkpt>
      <trkpt lat="44.41929" lon="5.40364">
        <ele>1295.3</ele>
        <time>2023-07-24T08:53:37Z</time>
      </trkpt>
      <trkpt lat="44.4193" lon="5.40366">
        <ele>1295.4</ele>
        <time>2023-07-24T08:53:38Z</time>
      </trkpt>
      <trkpt lat="44.4193" lon="5.4037">
        <ele>1295.6</ele>
        <time>2023-07-24T08:53:39Z</time>
      </trkpt>
      <trkpt lat="44.41931" lon="5.40371">
        <ele>1295.6</ele>
        <time>2023-07-24T08:53:40Z</time>
      </trkpt>
      <trkpt lat="44.41931" lon="5.40373">
        <ele>1295.7</ele>
        <time>2023-07-24T08:53:41Z</time>
      </trkpt>
      <trkpt lat="44.41931" lon="5.40375">
        <ele>1295.8</ele>
        <time>2023-07-24T08:53:42Z</time>
      </trkpt>
      <trkpt lat="44.41932" lon="5.40377">
        <ele>1295.8</ele>
        <time>2023-07-24T08:53:43Z</time>
      </trkpt>
      <trkpt lat="44.41933" lon="5.40379">
        <ele>1295.9</ele>
        <time>2023-07-24T08:53:44Z</time>
      </trkpt>
      <trkpt lat="44.41936" lon="5.40381">
        <ele>1296</ele>
        <time>2023-07-24T08:53:45Z</time>
      </trkpt>
      <trkpt lat="44.41937" lon="5.40381">
        <ele>1296</ele>
        <time>2023-07-24T08:53:46Z</time>
      </trkpt>
      <trkpt lat="44.4194" lon="5.40383">
        <ele>1296.1</ele>
        <time>2023-07-24T08:53:47Z</time>
      </trkpt>
      <trkpt lat="44.4194" lon="5.40384">
        <ele>1296.2</ele>
        <time>2023-07-24T08:53:48Z</time>
      </trkpt>
      <trkpt lat="44.41942" lon="5.40387">
        <ele>1296.3</ele>
        <time>2023-07-24T08:53:49Z</time>
      </trkpt>
      <trkpt lat="44.41943" lon="5.40388">
        <ele>1296.3</ele>
        <time>2023-07-24T08:53:50Z</time>
      </trkpt>
      <trkpt lat="44.41945" lon="5.4039">
        <ele>1296.4</ele>
        <time>2023-07-24T08:53:51Z</time>
      </trkpt>
      <trkpt lat="44.41946" lon="5.40392">
        <ele>1296.4</ele>
        <time>2023-07-24T08:53:52Z</time>
      </trkpt>
      <trkpt lat="44.41946" lon="5.40394">
        <ele>1296.5</ele>
        <time>2023-07-24T08:53:53Z</time>
      </trkpt>
      <trkpt lat="44.41947" lon="5.40396">
        <ele>1296.6</ele>
        <time>2023-07-24T08:53:54Z</time>
      </trkpt>
      <trkpt lat="44.41948" lon="5.40399">
        <ele>1296.6</ele>
        <time>2023-07-24T08:53:55Z</time>
      </trkpt>
      <trkpt lat="44.41949" lon="5.404">
        <ele>1296.7</ele>
        <time>2023-07-24T08:53:56Z</time>
      </trkpt>
      <trkpt lat="44.41951" lon="5.40404">
        <ele>1296.8</ele>
        <time>2023-07-24T08:53:57Z</time>
      </trkpt>
      <trkpt lat="44.41951" lon="5.40405">
        <ele>1296.9</ele>
        <time>2023-07-24T08:53:58Z</time>
      </trkpt>
      <trkpt lat="44.41953" lon="5.40408">
        <ele>1297</ele>
        <time>2023-07-24T08:53:59Z</time>
      </trkpt>
      <trkpt lat="44.41954" lon="5.40409">
        <ele>1297</ele>
        <time>2023-07-24T08:54:00Z</time>
      </trkpt>
      <trkpt lat="44.41956" lon="5.40413">
        <ele>1297.1</ele>
        <time>2023-07-24T08:54:01Z</time>
      </trkpt>
      <trkpt lat="44.41957" lon="5.40414">
        <ele>1297.1</ele>
        <time>2023-07-24T08:54:02Z</time>
      </trkpt>
      <trkpt lat="44.4196" lon="5.40417">
        <ele>1297.2</ele>
        <time>2023-07-24T08:54:03Z</time>
      </trkpt>
      <trkpt lat="44.41961" lon="5.40418">
        <ele>1297.3</ele>
        <time>2023-07-24T08:54:04Z</time>
      </trkpt>
      <trkpt lat="44.41963" lon="5.40422">
        <ele>1297.3</ele>
        <time>2023-07-24T08:54:05Z</time>
      </trkpt>
      <trkpt lat="44.41964" lon="5.40424">
        <ele>1297.4</ele>
        <time>2023-07-24T08:54:06Z</time>
      </trkpt>
      <trkpt lat="44.41966" lon="5.40427">
        <ele>1297.4</ele>
        <time>2023-07-24T08:54:07Z</time>
      </trkpt>
      <trkpt lat="44.41967" lon="5.40428">
        <ele>1297.5</ele>
        <time>2023-07-24T08:54:08Z</time>
      </trkpt>
      <trkpt lat="44.4197" lon="5.40431">
        <ele>1297.5</ele>
        <time>2023-07-24T08:54:09Z</time>
      </trkpt>
      <trkpt lat="44.4197" lon="5.40432">
        <ele>1297.5</ele>
        <time>2023-07-24T08:54:10Z</time>
      </trkpt>
      <trkpt lat="44.41972" lon="5.40435">
        <ele>1297.5</ele>
        <time>2023-07-24T08:54:11Z</time>
      </trkpt>
      <trkpt lat="44.41973" lon="5.40436">
        <ele>1297.5</ele>
        <time>2023-07-24T08:54:12Z</time>
      </trkpt>
      <trkpt lat="44.41973" lon="5.40438">
        <ele>1297.5</ele>
        <time>2023-07-24T08:54:13Z</time>
      </trkpt>
      <trkpt lat="44.41973" lon="5.4044">
        <ele>1297.6</ele>
        <time>2023-07-24T08:54:14Z</time>
      </trkpt>
      <trkpt lat="44.41973" lon="5.4044">
        <ele>1297.6</ele>
        <time>2023-07-24T08:54:15Z</time>
      </trkpt>
      <trkpt lat="44.41973" lon="5.4044">
        <ele>1297.6</ele>
        <time>2023-07-24T08:54:16Z</time>
      </trkpt>
      <trkpt lat="44.41973" lon="5.4044">
        <ele>1297.6</ele>
        <time>2023-07-24T08:54:17Z</time>
      </trkpt>
      <trkpt lat="44.41973" lon="5.40441">
        <ele>1297.6</ele>
        <time>2023-07-24T08:54:18Z</time>
      </trkpt>
      <trkpt lat="44.41974" lon="5.40442">
        <ele>1297.6</ele>
        <time>2023-07-24T08:54:19Z</time>
      </trkpt>
      <trkpt lat="44.41974" lon="5.40442">
        <ele>1297.6</ele>
        <time>2023-07-24T08:54:20Z</time>
      </trkpt>
      <trkpt lat="44.41974" lon="5.40442">
        <ele>1297.6</ele>
        <time>2023-07-24T08:54:21Z</time>
      </trkpt>
      <trkpt lat="44.41974" lon="5.40442">
        <ele>1297.6</ele>
        <time>2023-07-24T08:54:22Z</time>
      </trkpt>
      <trkpt lat="44.41974" lon="5.40442">
        <ele>1297.6</ele>
        <time>2023-07-24T08:54:23Z</time>
      </trkpt>
      <trkpt lat="44.41974" lon="5.40442">
        <ele>1297.6</ele>
        <time>2023-07-24T08:54:24Z</time>
      </trkpt>
      <trkpt lat="44.41974" lon="5.40442">
        <ele>1297.6</ele>
        <time>2023-07-24T08:54:25Z</time>
      </trkpt>
      <trkpt lat="44.41974" lon="5.40442">
        <ele>1297.6</ele>
        <time>2023-07-24T08:54:26Z</time>
      </trkpt>
      <trkpt lat="44.41974" lon="5.40443">
        <ele>1297.6</ele>
        <time>2023-07-24T08:54:27Z</time>
      </trkpt>
      <trkpt lat="44.41974" lon="5.40444">
        <ele>1297.6</ele>
        <time>2023-07-24T08:54:28Z</time>
      </trkpt>
      <trkpt lat="44.41974" lon="5.40446">
        <ele>1297.6</ele>
        <time>2023-07-24T08:54:29Z</time>
      </trkpt>
      <trkpt lat="44.41974" lon="5.40447">
        <ele>1297.6</ele>
        <time>2023-07-24T08:54:30Z</time>
      </trkpt>
      <trkpt lat="44.41975" lon="5.40449">
        <ele>1297.6</ele>
        <time>2023-07-24T08:54:31Z</time>
      </trkpt>
      <trkpt lat="44.41975" lon="5.40449">
        <ele>1297.6</ele>
        <time>2023-07-24T08:54:32Z</time>
      </trkpt>
      <trkpt lat="44.41975" lon="5.4045">
        <ele>1297.6</ele>
        <time>2023-07-24T08:54:33Z</time>
      </trkpt>
      <trkpt lat="44.41975" lon="5.4045">
        <ele>1297.6</ele>
        <time>2023-07-24T08:54:34Z</time>
      </trkpt>
      <trkpt lat="44.41975" lon="5.40451">
        <ele>1297.6</ele>
        <time>2023-07-24T08:54:35Z</time>
      </trkpt>
      <trkpt lat="44.41975" lon="5.40452">
        <ele>1297.7</ele>
        <time>2023-07-24T08:54:36Z</time>
      </trkpt>
      <trkpt lat="44.41976" lon="5.40453">
        <ele>1297.7</ele>
        <time>2023-07-24T08:54:37Z</time>
      </trkpt>
      <trkpt lat="44.41976" lon="5.40453">
        <ele>1297.7</ele>
        <time>2023-07-24T08:54:38Z</time>
      </trkpt>
      <trkpt lat="44.41976" lon="5.40453">
        <ele>1297.7</ele>
        <time>2023-07-24T08:54:39Z</time>
      </trkpt>
      <trkpt lat="44.41976" lon="5.40453">
        <ele>1297.7</ele>
        <time>2023-07-24T08:54:40Z</time>
      </trkpt>
      <trkpt lat="44.41975" lon="5.40453">
        <ele>1297.7</ele>
        <time>2023-07-24T08:54:41Z</time>
      </trkpt>
      <trkpt lat="44.41976" lon="5.40457">
        <ele>1297.7</ele>
        <time>2023-07-24T08:54:43Z</time>
      </trkpt>
      <trkpt lat="44.41976" lon="5.40461">
        <ele>1297.7</ele>
        <time>2023-07-24T08:54:44Z</time>
      </trkpt>
      <trkpt lat="44.41977" lon="5.40465">
        <ele>1297.8</ele>
        <time>2023-07-24T08:54:45Z</time>
      </trkpt>
      <trkpt lat="44.41978" lon="5.40469">
        <ele>1297.9</ele>
        <time>2023-07-24T08:54:46Z</time>
      </trkpt>
      <trkpt lat="44.4198" lon="5.40473">
        <ele>1297.9</ele>
        <time>2023-07-24T08:54:47Z</time>
      </trkpt>
      <trkpt lat="44.41982" lon="5.40477">
        <ele>1298</ele>
        <time>2023-07-24T08:54:48Z</time>
      </trkpt>
      <trkpt lat="44.41983" lon="5.40481">
        <ele>1298</ele>
        <time>2023-07-24T08:54:49Z</time>
      </trkpt>
      <trkpt lat="44.41985" lon="5.40484">
        <ele>1298.1</ele>
        <time>2023-07-24T08:54:50Z</time>
      </trkpt>
      <trkpt lat="44.41987" lon="5.40488">
        <ele>1298.1</ele>
        <time>2023-07-24T08:54:51Z</time>
      </trkpt>
      <trkpt lat="44.41988" lon="5.40492">
        <ele>1298.1</ele>
        <time>2023-07-24T08:54:52Z</time>
      </trkpt>
      <trkpt lat="44.4199" lon="5.40496">
        <ele>1298.1</ele>
        <time>2023-07-24T08:54:53Z</time>
      </trkpt>
      <trkpt lat="44.41991" lon="5.405">
        <ele>1298.1</ele>
        <time>2023-07-24T08:54:54Z</time>
      </trkpt>
      <trkpt lat="44.41992" lon="5.40503">
        <ele>1298</ele>
        <time>2023-07-24T08:54:55Z</time>
      </trkpt>
      <trkpt lat="44.41994" lon="5.40507">
        <ele>1297.9</ele>
        <time>2023-07-24T08:54:56Z</time>
      </trkpt>
      <trkpt lat="44.41995" lon="5.4051">
        <ele>1297.8</ele>
        <time>2023-07-24T08:54:57Z</time>
      </trkpt>
      <trkpt lat="44.41997" lon="5.40514">
        <ele>1297.7</ele>
        <time>2023-07-24T08:54:58Z</time>
      </trkpt>
      <trkpt lat="44.41998" lon="5.40518">
        <ele>1297.5</ele>
        <time>2023-07-24T08:54:59Z</time>
      </trkpt>
      <trkpt lat="44.42" lon="5.40522">
        <ele>1297.4</ele>
        <time>2023-07-24T08:55:00Z</time>
      </trkpt>
      <trkpt lat="44.42001" lon="5.40526">
        <ele>1297.3</ele>
        <time>2023-07-24T08:55:01Z</time>
      </trkpt>
      <trkpt lat="44.42003" lon="5.4053">
        <ele>1297.2</ele>
        <time>2023-07-24T08:55:02Z</time>
      </trkpt>
      <trkpt lat="44.42004" lon="5.40533">
        <ele>1297.1</ele>
        <time>2023-07-24T08:55:03Z</time>
      </trkpt>
      <trkpt lat="44.42006" lon="5.40537">
        <ele>1297.1</ele>
        <time>2023-07-24T08:55:04Z</time>
      </trkpt>
      <trkpt lat="44.42007" lon="5.40541">
        <ele>1297.2</ele>
        <time>2023-07-24T08:55:05Z</time>
      </trkpt>
      <trkpt lat="44.42009" lon="5.40545">
        <ele>1297.2</ele>
        <time>2023-07-24T08:55:06Z</time>
      </trkpt>
      <trkpt lat="44.4201" lon="5.40548">
        <ele>1297.4</ele>
        <time>2023-07-24T08:55:07Z</time>
      </trkpt>
      <trkpt lat="44.42012" lon="5.40553">
        <ele>1297.5</ele>
        <time>2023-07-24T08:55:08Z</time>
      </trkpt>
      <trkpt lat="44.42013" lon="5.40554">
        <ele>1297.6</ele>
        <time>2023-07-24T08:55:09Z</time>
      </trkpt>
      <trkpt lat="44.42014" lon="5.40556">
        <ele>1297.7</ele>
        <time>2023-07-24T08:55:10Z</time>
      </trkpt>
      <trkpt lat="44.42015" lon="5.40557">
        <ele>1297.8</ele>
        <time>2023-07-24T08:55:11Z</time>
      </trkpt>
      <trkpt lat="44.42016" lon="5.40559">
        <ele>1297.9</ele>
        <time>2023-07-24T08:55:12Z</time>
      </trkpt>
      <trkpt lat="44.42016" lon="5.4056">
        <ele>1297.9</ele>
        <time>2023-07-24T08:55:13Z</time>
      </trkpt>
      <trkpt lat="44.42017" lon="5.40561">
        <ele>1298</ele>
        <time>2023-07-24T08:55:14Z</time>
      </trkpt>
      <trkpt lat="44.42018" lon="5.40562">
        <ele>1298</ele>
        <time>2023-07-24T08:55:15Z</time>
      </trkpt>
      <trkpt lat="44.42018" lon="5.40564">
        <ele>1298.1</ele>
        <time>2023-07-24T08:55:16Z</time>
      </trkpt>
      <trkpt lat="44.42019" lon="5.40565">
        <ele>1298.2</ele>
        <time>2023-07-24T08:55:17Z</time>
      </trkpt>
      <trkpt lat="44.42019" lon="5.40566">
        <ele>1298.2</ele>
        <time>2023-07-24T08:55:18Z</time>
      </trkpt>
      <trkpt lat="44.4202" lon="5.40566">
        <ele>1298.3</ele>
        <time>2023-07-24T08:55:19Z</time>
      </trkpt>
      <trkpt lat="44.4202" lon="5.40566">
        <ele>1298.3</ele>
        <time>2023-07-24T08:55:20Z</time>
      </trkpt>
      <trkpt lat="44.4202" lon="5.40566">
        <ele>1298.3</ele>
        <time>2023-07-24T08:55:21Z</time>
      </trkpt>
      <trkpt lat="44.4202" lon="5.40566">
        <ele>1298.3</ele>
        <time>2023-07-24T08:55:22Z</time>
      </trkpt>
      <trkpt lat="44.4202" lon="5.40566">
        <ele>1298.3</ele>
        <time>2023-07-24T08:55:23Z</time>
      </trkpt>
      <trkpt lat="44.4202" lon="5.40566">
        <ele>1298.3</ele>
        <time>2023-07-24T08:55:24Z</time>
      </trkpt>
      <trkpt lat="44.4202" lon="5.40566">
        <ele>1298.3</ele>
        <time>2023-07-24T08:55:25Z</time>
      </trkpt>
      <trkpt lat="44.4202" lon="5.40566">
        <ele>1298.3</ele>
        <time>2023-07-24T08:55:26Z</time>
      </trkpt>
      <trkpt lat="44.4202" lon="5.40566">
        <ele>1298.3</ele>
        <time>2023-07-24T08:55:27Z</time>
      </trkpt>
      <trkpt lat="44.4202" lon="5.40566">
        <ele>1298.3</ele>
        <time>2023-07-24T08:55:28Z</time>
      </trkpt>
      <trkpt lat="44.4202" lon="5.40566">
        <ele>1298.3</ele>
        <time>2023-07-24T08:55:29Z</time>
      </trkpt>
      <trkpt lat="44.4202" lon="5.40566">
        <ele>1298.3</ele>
        <time>2023-07-24T08:55:30Z</time>
      </trkpt>
      <trkpt lat="44.4202" lon="5.40565">
        <ele>1298.4</ele>
        <time>2023-07-24T08:55:31Z</time>
      </trkpt>
      <trkpt lat="44.42019" lon="5.40561">
        <ele>1298.5</ele>
        <time>2023-07-24T08:55:34Z</time>
      </trkpt>
      <trkpt lat="44.42019" lon="5.40562">
        <ele>1298.6</ele>
        <time>2023-07-24T08:55:35Z</time>
      </trkpt>
      <trkpt lat="44.42019" lon="5.40562">
        <ele>1298.6</ele>
        <time>2023-07-24T08:55:36Z</time>
      </trkpt>
      <trkpt lat="44.42019" lon="5.40563">
        <ele>1298.6</ele>
        <time>2023-07-24T08:55:37Z</time>
      </trkpt>
      <trkpt lat="44.42019" lon="5.40563">
        <ele>1298.6</ele>
        <time>2023-07-24T08:55:38Z</time>
      </trkpt>
      <trkpt lat="44.42019" lon="5.40563">
        <ele>1298.6</ele>
        <time>2023-07-24T08:55:39Z</time>
      </trkpt>
      <trkpt lat="44.42019" lon="5.40563">
        <ele>1298.6</ele>
        <time>2023-07-24T08:55:41Z</time>
      </trkpt>
      <trkpt lat="44.42019" lon="5.40563">
        <ele>1298.6</ele>
        <time>2023-07-24T08:55:42Z</time>
      </trkpt>
      <trkpt lat="44.42019" lon="5.40563">
        <ele>1298.6</ele>
        <time>2023-07-24T08:55:43Z</time>
      </trkpt>
      <trkpt lat="44.42019" lon="5.40563">
        <ele>1298.6</ele>
        <time>2023-07-24T08:55:44Z</time>
      </trkpt>
      <trkpt lat="44.42019" lon="5.40563">
        <ele>1298.6</ele>
        <time>2023-07-24T08:55:45Z</time>
      </trkpt>
      <trkpt lat="44.42019" lon="5.40563">
        <ele>1298.6</ele>
        <time>2023-07-24T08:55:47Z</time>
      </trkpt>
      <trkpt lat="44.42019" lon="5.40563">
        <ele>1298.6</ele>
        <time>2023-07-24T08:55:48Z</time>
      </trkpt>
      <trkpt lat="44.42019" lon="5.40563">
        <ele>1298.6</ele>
        <time>2023-07-24T08:55:49Z</time>
      </trkpt>
      <trkpt lat="44.42019" lon="5.40563">
        <ele>1298.6</ele>
        <time>2023-07-24T08:55:50Z</time>
      </trkpt>
      <trkpt lat="44.42019" lon="5.40563">
        <ele>1298.6</ele>
        <time>2023-07-24T08:55:51Z</time>
      </trkpt>
      <trkpt lat="44.42019" lon="5.40563">
        <ele>1298.6</ele>
        <time>2023-07-24T08:55:52Z</time>
      </trkpt>
      <trkpt lat="44.42019" lon="5.40563">
        <ele>1298.6</ele>
        <time>2023-07-24T08:55:53Z</time>
      </trkpt>
      <trkpt lat="44.42019" lon="5.40563">
        <ele>1298.6</ele>
        <time>2023-07-24T08:55:54Z</time>
      </trkpt>
      <trkpt lat="44.42019" lon="5.40564">
        <ele>1298.7</ele>
        <time>2023-07-24T08:55:56Z</time>
      </trkpt>
      <trkpt lat="44.42019" lon="5.40565">
        <ele>1298.7</ele>
        <time>2023-07-24T08:55:57Z</time>
      </trkpt>
      <trkpt lat="44.4202" lon="5.40567">
        <ele>1298.8</ele>
        <time>2023-07-24T08:55:58Z</time>
      </trkpt>
      <trkpt lat="44.4202" lon="5.40567">
        <ele>1298.8</ele>
        <time>2023-07-24T08:55:59Z</time>
      </trkpt>
      <trkpt lat="44.4202" lon="5.40568">
        <ele>1298.8</ele>
        <time>2023-07-24T08:56:00Z</time>
      </trkpt>
      <trkpt lat="44.4202" lon="5.40568">
        <ele>1298.8</ele>
        <time>2023-07-24T08:56:01Z</time>
      </trkpt>
      <trkpt lat="44.42021" lon="5.40568">
        <ele>1298.9</ele>
        <time>2023-07-24T08:56:02Z</time>
      </trkpt>
      <trkpt lat="44.42021" lon="5.40568">
        <ele>1298.9</ele>
        <time>2023-07-24T08:56:03Z</time>
      </trkpt>
      <trkpt lat="44.42021" lon="5.40568">
        <ele>1298.9</ele>
        <time>2023-07-24T08:56:04Z</time>
      </trkpt>
      <trkpt lat="44.42021" lon="5.4057">
        <ele>1299</ele>
        <time>2023-07-24T08:56:05Z</time>
      </trkpt>
      <trkpt lat="44.42021" lon="5.40571">
        <ele>1299</ele>
        <time>2023-07-24T08:56:06Z</time>
      </trkpt>
      <trkpt lat="44.42021" lon="5.40573">
        <ele>1299.1</ele>
        <time>2023-07-24T08:56:07Z</time>
      </trkpt>
      <trkpt lat="44.42021" lon="5.40575">
        <ele>1299.2</ele>
        <time>2023-07-24T08:56:08Z</time>
      </trkpt>
      <trkpt lat="44.42021" lon="5.40577">
        <ele>1299.2</ele>
        <time>2023-07-24T08:56:15Z</time>
      </trkpt>
      <trkpt lat="44.42021" lon="5.40578">
        <ele>1299.3</ele>
        <time>2023-07-24T08:56:16Z</time>
      </trkpt>
      <trkpt lat="44.42021" lon="5.4058">
        <ele>1299.4</ele>
        <time>2023-07-24T08:56:17Z</time>
      </trkpt>
      <trkpt lat="44.42022" lon="5.40584">
        <ele>1299.5</ele>
        <time>2023-07-24T08:56:18Z</time>
      </trkpt>
      <trkpt lat="44.42022" lon="5.40589">
        <ele>1299.7</ele>
        <time>2023-07-24T08:56:19Z</time>
      </trkpt>
      <trkpt lat="44.42023" lon="5.40595">
        <ele>1299.9</ele>
        <time>2023-07-24T08:56:20Z</time>
      </trkpt>
      <trkpt lat="44.42023" lon="5.40602">
        <ele>1300</ele>
        <time>2023-07-24T08:56:21Z</time>
      </trkpt>
      <trkpt lat="44.42025" lon="5.40609">
        <ele>1300</ele>
        <time>2023-07-24T08:56:22Z</time>
      </trkpt>
      <trkpt lat="44.42027" lon="5.40613">
        <ele>1299.9</ele>
        <time>2023-07-24T08:56:23Z</time>
      </trkpt>
      <trkpt lat="44.42029" lon="5.40617">
        <ele>1299.8</ele>
        <time>2023-07-24T08:56:24Z</time>
      </trkpt>
      <trkpt lat="44.42031" lon="5.4062">
        <ele>1299.7</ele>
        <time>2023-07-24T08:56:25Z</time>
      </trkpt>
      <trkpt lat="44.42034" lon="5.40623">
        <ele>1299.6</ele>
        <time>2023-07-24T08:56:26Z</time>
      </trkpt>
      <trkpt lat="44.42034" lon="5.40624">
        <ele>1299.5</ele>
        <time>2023-07-24T08:56:27Z</time>
      </trkpt>
      <trkpt lat="44.42035" lon="5.40627">
        <ele>1299.4</ele>
        <time>2023-07-24T08:56:28Z</time>
      </trkpt>
      <trkpt lat="44.42036" lon="5.40628">
        <ele>1299.4</ele>
        <time>2023-07-24T08:56:29Z</time>
      </trkpt>
      <trkpt lat="44.42036" lon="5.40629">
        <ele>1299.3</ele>
        <time>2023-07-24T08:56:30Z</time>
      </trkpt>
      <trkpt lat="44.42039" lon="5.40633">
        <ele>1299.1</ele>
        <time>2023-07-24T08:56:31Z</time>
      </trkpt>
      <trkpt lat="44.4204" lon="5.40635">
        <ele>1299</ele>
        <time>2023-07-24T08:56:32Z</time>
      </trkpt>
      <trkpt lat="44.42042" lon="5.40637">
        <ele>1298.9</ele>
        <time>2023-07-24T08:56:33Z</time>
      </trkpt>
      <trkpt lat="44.42045" lon="5.40639">
        <ele>1298.8</ele>
        <time>2023-07-24T08:56:34Z</time>
      </trkpt>
      <trkpt lat="44.42049" lon="5.40641">
        <ele>1298.7</ele>
        <time>2023-07-24T08:56:35Z</time>
      </trkpt>
      <trkpt lat="44.4205" lon="5.40642">
        <ele>1298.7</ele>
        <time>2023-07-24T08:56:36Z</time>
      </trkpt>
      <trkpt lat="44.42052" lon="5.40646">
        <ele>1298.7</ele>
        <time>2023-07-24T08:56:37Z</time>
      </trkpt>
      <trkpt lat="44.42052" lon="5.40647">
        <ele>1298.7</ele>
        <time>2023-07-24T08:56:38Z</time>
      </trkpt>
      <trkpt lat="44.42056" lon="5.4065">
        <ele>1298.7</ele>
        <time>2023-07-24T08:56:39Z</time>
      </trkpt>
      <trkpt lat="44.42057" lon="5.40651">
        <ele>1298.7</ele>
        <time>2023-07-24T08:56:40Z</time>
      </trkpt>
      <trkpt lat="44.42058" lon="5.40653">
        <ele>1298.7</ele>
        <time>2023-07-24T08:56:41Z</time>
      </trkpt>
      <trkpt lat="44.42059" lon="5.40654">
        <ele>1298.7</ele>
        <time>2023-07-24T08:56:42Z</time>
      </trkpt>
      <trkpt lat="44.42059" lon="5.40656">
        <ele>1298.7</ele>
        <time>2023-07-24T08:56:43Z</time>
      </trkpt>
      <trkpt lat="44.42059" lon="5.40658">
        <ele>1298.7</ele>
        <time>2023-07-24T08:56:44Z</time>
      </trkpt>
      <trkpt lat="44.42059" lon="5.4066">
        <ele>1298.7</ele>
        <time>2023-07-24T08:56:45Z</time>
      </trkpt>
      <trkpt lat="44.4206" lon="5.40661">
        <ele>1298.7</ele>
        <time>2023-07-24T08:56:46Z</time>
      </trkpt>
      <trkpt lat="44.4206" lon="5.40662">
        <ele>1298.7</ele>
        <time>2023-07-24T08:56:47Z</time>
      </trkpt>
      <trkpt lat="44.4206" lon="5.40662">
        <ele>1298.7</ele>
        <time>2023-07-24T08:56:48Z</time>
      </trkpt>
      <trkpt lat="44.4206" lon="5.40663">
        <ele>1298.7</ele>
        <time>2023-07-24T08:56:49Z</time>
      </trkpt>
      <trkpt lat="44.42061" lon="5.40665">
        <ele>1298.7</ele>
        <time>2023-07-24T08:56:50Z</time>
      </trkpt>
      <trkpt lat="44.42061" lon="5.40666">
        <ele>1298.6</ele>
        <time>2023-07-24T08:56:51Z</time>
      </trkpt>
      <trkpt lat="44.42064" lon="5.40669">
        <ele>1298.5</ele>
        <time>2023-07-24T08:56:52Z</time>
      </trkpt>
      <trkpt lat="44.42065" lon="5.4067">
        <ele>1298.5</ele>
        <time>2023-07-24T08:56:53Z</time>
      </trkpt>
      <trkpt lat="44.42066" lon="5.40672">
        <ele>1298.4</ele>
        <time>2023-07-24T08:56:54Z</time>
      </trkpt>
      <trkpt lat="44.42067" lon="5.40674">
        <ele>1298.3</ele>
        <time>2023-07-24T08:56:55Z</time>
      </trkpt>
      <trkpt lat="44.42067" lon="5.40678">
        <ele>1298.1</ele>
        <time>2023-07-24T08:56:56Z</time>
      </trkpt>
      <trkpt lat="44.42067" lon="5.40679">
        <ele>1298</ele>
        <time>2023-07-24T08:56:57Z</time>
      </trkpt>
      <trkpt lat="44.42067" lon="5.40683">
        <ele>1297.8</ele>
        <time>2023-07-24T08:56:58Z</time>
      </trkpt>
      <trkpt lat="44.42067" lon="5.40685">
        <ele>1297.7</ele>
        <time>2023-07-24T08:56:59Z</time>
      </trkpt>
      <trkpt lat="44.42067" lon="5.40687">
        <ele>1297.6</ele>
        <time>2023-07-24T08:57:00Z</time>
      </trkpt>
      <trkpt lat="44.42068" lon="5.40689">
        <ele>1297.5</ele>
        <time>2023-07-24T08:57:01Z</time>
      </trkpt>
      <trkpt lat="44.42069" lon="5.40692">
        <ele>1297.2</ele>
        <time>2023-07-24T08:57:02Z</time>
      </trkpt>
      <trkpt lat="44.42069" lon="5.40694">
        <ele>1297.1</ele>
        <time>2023-07-24T08:57:03Z</time>
      </trkpt>
      <trkpt lat="44.4207" lon="5.40695">
        <ele>1296.8</ele>
        <time>2023-07-24T08:57:04Z</time>
      </trkpt>
      <trkpt lat="44.42071" lon="5.40696">
        <ele>1296.8</ele>
        <time>2023-07-24T08:57:05Z</time>
      </trkpt>
      <trkpt lat="44.42071" lon="5.40696">
        <ele>1296.8</ele>
        <time>2023-07-24T08:57:06Z</time>
      </trkpt>
      <trkpt lat="44.42072" lon="5.40696">
        <ele>1296.7</ele>
        <time>2023-07-24T08:57:07Z</time>
      </trkpt>
      <trkpt lat="44.42072" lon="5.40697">
        <ele>1296.6</ele>
        <time>2023-07-24T08:57:08Z</time>
      </trkpt>
      <trkpt lat="44.42072" lon="5.40697">
        <ele>1296.6</ele>
        <time>2023-07-24T08:57:09Z</time>
      </trkpt>
      <trkpt lat="44.42074" lon="5.40701">
        <ele>1296</ele>
        <time>2023-07-24T08:57:10Z</time>
      </trkpt>
      <trkpt lat="44.42075" lon="5.40703">
        <ele>1295.8</ele>
        <time>2023-07-24T08:57:11Z</time>
      </trkpt>
      <trkpt lat="44.42077" lon="5.40705">
        <ele>1295.4</ele>
        <time>2023-07-24T08:57:12Z</time>
      </trkpt>
      <trkpt lat="44.42078" lon="5.40706">
        <ele>1295.2</ele>
        <time>2023-07-24T08:57:13Z</time>
      </trkpt>
      <trkpt lat="44.42078" lon="5.40705">
        <ele>1295.1</ele>
        <time>2023-07-24T08:57:14Z</time>
      </trkpt>
      <trkpt lat="44.42078" lon="5.40705">
        <ele>1295.1</ele>
        <time>2023-07-24T08:57:15Z</time>
      </trkpt>
      <trkpt lat="44.42079" lon="5.40704">
        <ele>1295</ele>
        <time>2023-07-24T08:57:16Z</time>
      </trkpt>
      <trkpt lat="44.42079" lon="5.40704">
        <ele>1295</ele>
        <time>2023-07-24T08:57:17Z</time>
      </trkpt>
      <trkpt lat="44.42079" lon="5.40704">
        <ele>1294.9</ele>
        <time>2023-07-24T08:57:18Z</time>
      </trkpt>
      <trkpt lat="44.4208" lon="5.40705">
        <ele>1294.8</ele>
        <time>2023-07-24T08:57:19Z</time>
      </trkpt>
      <trkpt lat="44.4208" lon="5.40706">
        <ele>1294.7</ele>
        <time>2023-07-24T08:57:20Z</time>
      </trkpt>
      <trkpt lat="44.4208" lon="5.40708">
        <ele>1294.5</ele>
        <time>2023-07-24T08:57:21Z</time>
      </trkpt>
      <trkpt lat="44.42081" lon="5.40709">
        <ele>1294.3</ele>
        <time>2023-07-24T08:57:22Z</time>
      </trkpt>
      <trkpt lat="44.42081" lon="5.4071">
        <ele>1294.2</ele>
        <time>2023-07-24T08:57:23Z</time>
      </trkpt>
      <trkpt lat="44.42082" lon="5.40711">
        <ele>1294.1</ele>
        <time>2023-07-24T08:57:24Z</time>
      </trkpt>
      <trkpt lat="44.42082" lon="5.40711">
        <ele>1294.1</ele>
        <time>2023-07-24T08:57:25Z</time>
      </trkpt>
      <trkpt lat="44.42082" lon="5.40711">
        <ele>1294</ele>
        <time>2023-07-24T08:57:26Z</time>
      </trkpt>
      <trkpt lat="44.42082" lon="5.40711">
        <ele>1294</ele>
        <time>2023-07-24T08:57:27Z</time>
      </trkpt>
      <trkpt lat="44.42082" lon="5.40711">
        <ele>1294</ele>
        <time>2023-07-24T08:57:28Z</time>
      </trkpt>
      <trkpt lat="44.42082" lon="5.40711">
        <ele>1294</ele>
        <time>2023-07-24T08:57:29Z</time>
      </trkpt>
      <trkpt lat="44.42082" lon="5.40712">
        <ele>1293.9</ele>
        <time>2023-07-24T08:57:30Z</time>
      </trkpt>
      <trkpt lat="44.42083" lon="5.40713">
        <ele>1293.8</ele>
        <time>2023-07-24T08:57:31Z</time>
      </trkpt>
      <trkpt lat="44.42083" lon="5.40715">
        <ele>1293.6</ele>
        <time>2023-07-24T08:57:32Z</time>
      </trkpt>
      <trkpt lat="44.42083" lon="5.40716">
        <ele>1293.5</ele>
        <time>2023-07-24T08:57:33Z</time>
      </trkpt>
      <trkpt lat="44.42083" lon="5.40716">
        <ele>1293.5</ele>
        <time>2023-07-24T08:57:34Z</time>
      </trkpt>
      <trkpt lat="44.42083" lon="5.40716">
        <ele>1293.5</ele>
        <time>2023-07-24T08:57:35Z</time>
      </trkpt>
      <trkpt lat="44.42083" lon="5.40717">
        <ele>1293.4</ele>
        <time>2023-07-24T08:57:36Z</time>
      </trkpt>
      <trkpt lat="44.42084" lon="5.40719">
        <ele>1293.2</ele>
        <time>2023-07-24T08:57:37Z</time>
      </trkpt>
      <trkpt lat="44.42084" lon="5.4072">
        <ele>1293</ele>
        <time>2023-07-24T08:57:38Z</time>
      </trkpt>
      <trkpt lat="44.42085" lon="5.40721">
        <ele>1293</ele>
        <time>2023-07-24T08:57:39Z</time>
      </trkpt>
      <trkpt lat="44.42085" lon="5.40721">
        <ele>1292.9</ele>
        <time>2023-07-24T08:57:40Z</time>
      </trkpt>
      <trkpt lat="44.42085" lon="5.40721">
        <ele>1292.9</ele>
        <time>2023-07-24T08:57:41Z</time>
      </trkpt>
      <trkpt lat="44.42085" lon="5.40721">
        <ele>1292.9</ele>
        <time>2023-07-24T08:57:42Z</time>
      </trkpt>
      <trkpt lat="44.42085" lon="5.40721">
        <ele>1292.9</ele>
        <time>2023-07-24T08:57:43Z</time>
      </trkpt>
      <trkpt lat="44.42085" lon="5.40722">
        <ele>1292.8</ele>
        <time>2023-07-24T08:57:44Z</time>
      </trkpt>
      <trkpt lat="44.42085" lon="5.40722">
        <ele>1292.8</ele>
        <time>2023-07-24T08:57:45Z</time>
      </trkpt>
      <trkpt lat="44.42085" lon="5.40722">
        <ele>1292.8</ele>
        <time>2023-07-24T08:57:46Z</time>
      </trkpt>
      <trkpt lat="44.42086" lon="5.40723">
        <ele>1292.7</ele>
        <time>2023-07-24T08:57:47Z</time>
      </trkpt>
      <trkpt lat="44.42086" lon="5.40724">
        <ele>1292.6</ele>
        <time>2023-07-24T08:57:48Z</time>
      </trkpt>
      <trkpt lat="44.42087" lon="5.40725">
        <ele>1292.4</ele>
        <time>2023-07-24T08:57:49Z</time>
      </trkpt>
      <trkpt lat="44.42087" lon="5.40725">
        <ele>1292.3</ele>
        <time>2023-07-24T08:57:50Z</time>
      </trkpt>
      <trkpt lat="44.42088" lon="5.40726">
        <ele>1292.2</ele>
        <time>2023-07-24T08:57:51Z</time>
      </trkpt>
      <trkpt lat="44.42089" lon="5.40727">
        <ele>1292.1</ele>
        <time>2023-07-24T08:57:52Z</time>
      </trkpt>
      <trkpt lat="44.4209" lon="5.40727">
        <ele>1291.9</ele>
        <time>2023-07-24T08:57:53Z</time>
      </trkpt>
      <trkpt lat="44.42091" lon="5.40728">
        <ele>1291.7</ele>
        <time>2023-07-24T08:57:54Z</time>
      </trkpt>
      <trkpt lat="44.42091" lon="5.40728">
        <ele>1291.7</ele>
        <time>2023-07-24T08:57:55Z</time>
      </trkpt>
      <trkpt lat="44.42091" lon="5.40729">
        <ele>1291.6</ele>
        <time>2023-07-24T08:57:56Z</time>
      </trkpt>
      <trkpt lat="44.42091" lon="5.40729">
        <ele>1291.5</ele>
        <time>2023-07-24T08:57:57Z</time>
      </trkpt>
      <trkpt lat="44.42091" lon="5.40729">
        <ele>1291.5</ele>
        <time>2023-07-24T08:57:58Z</time>
      </trkpt>
      <trkpt lat="44.42091" lon="5.40729">
        <ele>1291.4</ele>
        <time>2023-07-24T08:57:59Z</time>
      </trkpt>
      <trkpt lat="44.42091" lon="5.40729">
        <ele>1291.4</ele>
        <time>2023-07-24T08:58:00Z</time>
      </trkpt>
      <trkpt lat="44.42091" lon="5.40729">
        <ele>1291.4</ele>
        <time>2023-07-24T08:58:01Z</time>
      </trkpt>
      <trkpt lat="44.42091" lon="5.40729">
        <ele>1291.4</ele>
        <time>2023-07-24T08:58:02Z</time>
      </trkpt>
      <trkpt lat="44.42091" lon="5.40729">
        <ele>1291.4</ele>
        <time>2023-07-24T08:58:03Z</time>
      </trkpt>
      <trkpt lat="44.42091" lon="5.40729">
        <ele>1291.4</ele>
        <time>2023-07-24T08:58:04Z</time>
      </trkpt>
      <trkpt lat="44.42091" lon="5.4073">
        <ele>1291.3</ele>
        <time>2023-07-24T08:58:05Z</time>
      </trkpt>
      <trkpt lat="44.42091" lon="5.4073">
        <ele>1291.3</ele>
        <time>2023-07-24T08:58:06Z</time>
      </trkpt>
      <trkpt lat="44.42091" lon="5.4073">
        <ele>1291.3</ele>
        <time>2023-07-24T08:58:07Z</time>
      </trkpt>
      <trkpt lat="44.42093" lon="5.40733">
        <ele>1290.8</ele>
        <time>2023-07-24T08:58:14Z</time>
      </trkpt>
      <trkpt lat="44.42093" lon="5.40733">
        <ele>1290.7</ele>
        <time>2023-07-24T08:58:15Z</time>
      </trkpt>
      <trkpt lat="44.42094" lon="5.40734">
        <ele>1290.5</ele>
        <time>2023-07-24T08:58:16Z</time>
      </trkpt>
      <trkpt lat="44.42094" lon="5.40734">
        <ele>1290.4</ele>
        <time>2023-07-24T08:58:17Z</time>
      </trkpt>
      <trkpt lat="44.42095" lon="5.40735">
        <ele>1290.3</ele>
        <time>2023-07-24T08:58:18Z</time>
      </trkpt>
      <trkpt lat="44.42095" lon="5.40736">
        <ele>1290.2</ele>
        <time>2023-07-24T08:58:19Z</time>
      </trkpt>
      <trkpt lat="44.42095" lon="5.40737">
        <ele>1290</ele>
        <time>2023-07-24T08:58:20Z</time>
      </trkpt>
      <trkpt lat="44.42094" lon="5.40738">
        <ele>1289.9</ele>
        <time>2023-07-24T08:58:21Z</time>
      </trkpt>
      <trkpt lat="44.42094" lon="5.40738">
        <ele>1289.8</ele>
        <time>2023-07-24T08:58:22Z</time>
      </trkpt>
      <trkpt lat="44.42094" lon="5.40739">
        <ele>1289.6</ele>
        <time>2023-07-24T08:58:23Z</time>
      </trkpt>
      <trkpt lat="44.42094" lon="5.4074">
        <ele>1289.5</ele>
        <time>2023-07-24T08:58:24Z</time>
      </trkpt>
      <trkpt lat="44.42093" lon="5.4074">
        <ele>1289.4</ele>
        <time>2023-07-24T08:58:25Z</time>
      </trkpt>
      <trkpt lat="44.42093" lon="5.40741">
        <ele>1289.3</ele>
        <time>2023-07-24T08:58:26Z</time>
      </trkpt>
      <trkpt lat="44.42093" lon="5.40741">
        <ele>1289.2</ele>
        <time>2023-07-24T08:58:27Z</time>
      </trkpt>
      <trkpt lat="44.42093" lon="5.40742">
        <ele>1289</ele>
        <time>2023-07-24T08:58:28Z</time>
      </trkpt>
      <trkpt lat="44.42092" lon="5.40743">
        <ele>1288.9</ele>
        <time>2023-07-24T08:58:29Z</time>
      </trkpt>
      <trkpt lat="44.42102" lon="5.40777">
        <ele>1283.1</ele>
        <time>2023-07-24T08:59:03Z</time>
      </trkpt>
      <trkpt lat="44.42102" lon="5.40779">
        <ele>1282.9</ele>
        <time>2023-07-24T08:59:04Z</time>
      </trkpt>
      <trkpt lat="44.42102" lon="5.4078">
        <ele>1282.7</ele>
        <time>2023-07-24T08:59:05Z</time>
      </trkpt>
      <trkpt lat="44.42103" lon="5.40781">
        <ele>1282.6</ele>
        <time>2023-07-24T08:59:06Z</time>
      </trkpt>
      <trkpt lat="44.42103" lon="5.40782">
        <ele>1282.5</ele>
        <time>2023-07-24T08:59:07Z</time>
      </trkpt>
      <trkpt lat="44.42103" lon="5.40783">
        <ele>1282.4</ele>
        <time>2023-07-24T08:59:08Z</time>
      </trkpt>
      <trkpt lat="44.42103" lon="5.40784">
        <ele>1282.3</ele>
        <time>2023-07-24T08:59:09Z</time>
      </trkpt>
      <trkpt lat="44.42103" lon="5.40785">
        <ele>1282.1</ele>
        <time>2023-07-24T08:59:10Z</time>
      </trkpt>
      <trkpt lat="44.42104" lon="5.40788">
        <ele>1281.8</ele>
        <time>2023-07-24T08:59:11Z</time>
      </trkpt>
      <trkpt lat="44.42104" lon="5.40789">
        <ele>1281.6</ele>
        <time>2023-07-24T08:59:12Z</time>
      </trkpt>
      <trkpt lat="44.42105" lon="5.4079">
        <ele>1281.5</ele>
        <time>2023-07-24T08:59:13Z</time>
      </trkpt>
      <trkpt lat="44.42105" lon="5.40791">
        <ele>1281.4</ele>
        <time>2023-07-24T08:59:14Z</time>
      </trkpt>
      <trkpt lat="44.42105" lon="5.40791">
        <ele>1281.4</ele>
        <time>2023-07-24T08:59:15Z</time>
      </trkpt>
      <trkpt lat="44.42105" lon="5.40791">
        <ele>1281.4</ele>
        <time>2023-07-24T08:59:16Z</time>
      </trkpt>
      <trkpt lat="44.42105" lon="5.40793">
        <ele>1281.2</ele>
        <time>2023-07-24T08:59:17Z</time>
      </trkpt>
      <trkpt lat="44.42105" lon="5.40794">
        <ele>1281.1</ele>
        <time>2023-07-24T08:59:18Z</time>
      </trkpt>
      <trkpt lat="44.42105" lon="5.40794">
        <ele>1281</ele>
        <time>2023-07-24T08:59:19Z</time>
      </trkpt>
      <trkpt lat="44.42105" lon="5.40796">
        <ele>1280.9</ele>
        <time>2023-07-24T08:59:20Z</time>
      </trkpt>
      <trkpt lat="44.42105" lon="5.40797">
        <ele>1280.8</ele>
        <time>2023-07-24T08:59:21Z</time>
      </trkpt>
      <trkpt lat="44.42106" lon="5.40798">
        <ele>1280.6</ele>
        <time>2023-07-24T08:59:22Z</time>
      </trkpt>
      <trkpt lat="44.42106" lon="5.40798">
        <ele>1280.6</ele>
        <time>2023-07-24T08:59:23Z</time>
      </trkpt>
      <trkpt lat="44.42106" lon="5.40798">
        <ele>1280.6</ele>
        <time>2023-07-24T08:59:24Z</time>
      </trkpt>
      <trkpt lat="44.42106" lon="5.408">
        <ele>1280.4</ele>
        <time>2023-07-24T08:59:25Z</time>
      </trkpt>
      <trkpt lat="44.42106" lon="5.40801">
        <ele>1280.3</ele>
        <time>2023-07-24T08:59:26Z</time>
      </trkpt>
      <trkpt lat="44.42106" lon="5.40802">
        <ele>1280.3</ele>
        <time>2023-07-24T08:59:27Z</time>
      </trkpt>
      <trkpt lat="44.42106" lon="5.40802">
        <ele>1280.2</ele>
        <time>2023-07-24T08:59:28Z</time>
      </trkpt>
      <trkpt lat="44.42106" lon="5.40804">
        <ele>1280.1</ele>
        <time>2023-07-24T08:59:29Z</time>
      </trkpt>
      <trkpt lat="44.42106" lon="5.40806">
        <ele>1279.9</ele>
        <time>2023-07-24T08:59:30Z</time>
      </trkpt>
      <trkpt lat="44.42106" lon="5.40807">
        <ele>1279.7</ele>
        <time>2023-07-24T08:59:31Z</time>
      </trkpt>
      <trkpt lat="44.42107" lon="5.40808">
        <ele>1279.6</ele>
        <time>2023-07-24T08:59:32Z</time>
      </trkpt>
      <trkpt lat="44.42106" lon="5.40808">
        <ele>1279.6</ele>
        <time>2023-07-24T08:59:33Z</time>
      </trkpt>
      <trkpt lat="44.42106" lon="5.40808">
        <ele>1279.6</ele>
        <time>2023-07-24T08:59:34Z</time>
      </trkpt>
      <trkpt lat="44.42106" lon="5.40808">
        <ele>1279.6</ele>
        <time>2023-07-24T08:59:35Z</time>
      </trkpt>
      <trkpt lat="44.42106" lon="5.40808">
        <ele>1279.5</ele>
        <time>2023-07-24T08:59:36Z</time>
      </trkpt>
      <trkpt lat="44.42106" lon="5.40808">
        <ele>1279.5</ele>
        <time>2023-07-24T08:59:37Z</time>
      </trkpt>
      <trkpt lat="44.42106" lon="5.40808">
        <ele>1279.5</ele>
        <time>2023-07-24T08:59:38Z</time>
      </trkpt>
      <trkpt lat="44.42106" lon="5.40808">
        <ele>1279.5</ele>
        <time>2023-07-24T08:59:39Z</time>
      </trkpt>
      <trkpt lat="44.42106" lon="5.40808">
        <ele>1279.4</ele>
        <time>2023-07-24T08:59:40Z</time>
      </trkpt>
      <trkpt lat="44.42106" lon="5.40807">
        <ele>1279.4</ele>
        <time>2023-07-24T08:59:41Z</time>
      </trkpt>
      <trkpt lat="44.42106" lon="5.40807">
        <ele>1279.4</ele>
        <time>2023-07-24T08:59:42Z</time>
      </trkpt>
      <trkpt lat="44.42106" lon="5.40807">
        <ele>1279.4</ele>
        <time>2023-07-24T08:59:43Z</time>
      </trkpt>
      <trkpt lat="44.42109" lon="5.40814">
        <ele>1278.6</ele>
        <time>2023-07-24T09:00:25Z</time>
      </trkpt>
      <trkpt lat="44.42111" lon="5.40818">
        <ele>1278.2</ele>
        <time>2023-07-24T09:00:26Z</time>
      </trkpt>
      <trkpt lat="44.42112" lon="5.40824">
        <ele>1277.6</ele>
        <time>2023-07-24T09:00:27Z</time>
      </trkpt>
      <trkpt lat="44.42114" lon="5.4083">
        <ele>1277.1</ele>
        <time>2023-07-24T09:00:28Z</time>
      </trkpt>
      <trkpt lat="44.42116" lon="5.40836">
        <ele>1276.4</ele>
        <time>2023-07-24T09:00:29Z</time>
      </trkpt>
      <trkpt lat="44.42118" lon="5.40843">
        <ele>1275.8</ele>
        <time>2023-07-24T09:00:30Z</time>
      </trkpt>
      <trkpt lat="44.4212" lon="5.4085">
        <ele>1275.2</ele>
        <time>2023-07-24T09:00:31Z</time>
      </trkpt>
      <trkpt lat="44.42122" lon="5.40856">
        <ele>1274.7</ele>
        <time>2023-07-24T09:00:32Z</time>
      </trkpt>
      <trkpt lat="44.42124" lon="5.40862">
        <ele>1274.3</ele>
        <time>2023-07-24T09:00:33Z</time>
      </trkpt>
      <trkpt lat="44.42125" lon="5.40867">
        <ele>1274</ele>
        <time>2023-07-24T09:00:34Z</time>
      </trkpt>
      <trkpt lat="44.42126" lon="5.40871">
        <ele>1273.7</ele>
        <time>2023-07-24T09:00:35Z</time>
      </trkpt>
      <trkpt lat="44.42126" lon="5.40875">
        <ele>1273.4</ele>
        <time>2023-07-24T09:00:36Z</time>
      </trkpt>
      <trkpt lat="44.42127" lon="5.4088">
        <ele>1273</ele>
        <time>2023-07-24T09:00:37Z</time>
      </trkpt>
      <trkpt lat="44.42127" lon="5.40885">
        <ele>1272.6</ele>
        <time>2023-07-24T09:00:38Z</time>
      </trkpt>
      <trkpt lat="44.42129" lon="5.4089">
        <ele>1272.1</ele>
        <time>2023-07-24T09:00:39Z</time>
      </trkpt>
      <trkpt lat="44.4213" lon="5.40894">
        <ele>1271.5</ele>
        <time>2023-07-24T09:00:40Z</time>
      </trkpt>
      <trkpt lat="44.42132" lon="5.40899">
        <ele>1270.9</ele>
        <time>2023-07-24T09:00:41Z</time>
      </trkpt>
      <trkpt lat="44.42135" lon="5.40903">
        <ele>1270.3</ele>
        <time>2023-07-24T09:00:42Z</time>
      </trkpt>
      <trkpt lat="44.42137" lon="5.40907">
        <ele>1269.8</ele>
        <time>2023-07-24T09:00:43Z</time>
      </trkpt>
      <trkpt lat="44.42138" lon="5.40911">
        <ele>1269.4</ele>
        <time>2023-07-24T09:00:44Z</time>
      </trkpt>
      <trkpt lat="44.42138" lon="5.40915">
        <ele>1268.9</ele>
        <time>2023-07-24T09:00:45Z</time>
      </trkpt>
      <trkpt lat="44.42138" lon="5.4092">
        <ele>1268.4</ele>
        <time>2023-07-24T09:00:46Z</time>
      </trkpt>
      <trkpt lat="44.42138" lon="5.40926">
        <ele>1267.8</ele>
        <time>2023-07-24T09:00:47Z</time>
      </trkpt>
      <trkpt lat="44.42138" lon="5.40931">
        <ele>1267.2</ele>
        <time>2023-07-24T09:00:48Z</time>
      </trkpt>
      <trkpt lat="44.42138" lon="5.40937">
        <ele>1266.7</ele>
        <time>2023-07-24T09:00:49Z</time>
      </trkpt>
      <trkpt lat="44.42138" lon="5.40941">
        <ele>1266.3</ele>
        <time>2023-07-24T09:00:50Z</time>
      </trkpt>
      <trkpt lat="44.42138" lon="5.40945">
        <ele>1266</ele>
        <time>2023-07-24T09:00:51Z</time>
      </trkpt>
      <trkpt lat="44.42138" lon="5.40947">
        <ele>1265.9</ele>
        <time>2023-07-24T09:00:52Z</time>
      </trkpt>
      <trkpt lat="44.42139" lon="5.40948">
        <ele>1265.7</ele>
        <time>2023-07-24T09:00:53Z</time>
      </trkpt>
      <trkpt lat="44.4214" lon="5.40951">
        <ele>1265.6</ele>
        <time>2023-07-24T09:00:54Z</time>
      </trkpt>
      <trkpt lat="44.42141" lon="5.40952">
        <ele>1265.4</ele>
        <time>2023-07-24T09:00:55Z</time>
      </trkpt>
      <trkpt lat="44.42142" lon="5.40954">
        <ele>1265.3</ele>
        <time>2023-07-24T09:00:56Z</time>
      </trkpt>
      <trkpt lat="44.42142" lon="5.40956">
        <ele>1265.2</ele>
        <time>2023-07-24T09:00:57Z</time>
      </trkpt>
      <trkpt lat="44.42143" lon="5.40958">
        <ele>1265.1</ele>
        <time>2023-07-24T09:00:58Z</time>
      </trkpt>
      <trkpt lat="44.42143" lon="5.40959">
        <ele>1265</ele>
        <time>2023-07-24T09:00:59Z</time>
      </trkpt>
      <trkpt lat="44.42144" lon="5.4096">
        <ele>1264.9</ele>
        <time>2023-07-24T09:01:00Z</time>
      </trkpt>
      <trkpt lat="44.42144" lon="5.40961">
        <ele>1264.9</ele>
        <time>2023-07-24T09:01:01Z</time>
      </trkpt>
      <trkpt lat="44.42147" lon="5.40963">
        <ele>1264.8</ele>
        <time>2023-07-24T09:01:02Z</time>
      </trkpt>
      <trkpt lat="44.42148" lon="5.40964">
        <ele>1264.7</ele>
        <time>2023-07-24T09:01:03Z</time>
      </trkpt>
      <trkpt lat="44.42149" lon="5.40969">
        <ele>1264.6</ele>
        <time>2023-07-24T09:01:04Z</time>
      </trkpt>
      <trkpt lat="44.42149" lon="5.40971">
        <ele>1264.5</ele>
        <time>2023-07-24T09:01:05Z</time>
      </trkpt>
      <trkpt lat="44.42148" lon="5.40976">
        <ele>1264.4</ele>
        <time>2023-07-24T09:01:06Z</time>
      </trkpt>
      <trkpt lat="44.4215" lon="5.40983">
        <ele>1264.4</ele>
        <time>2023-07-24T09:01:07Z</time>
      </trkpt>
      <trkpt lat="44.42153" lon="5.40989">
        <ele>1264.4</ele>
        <time>2023-07-24T09:01:08Z</time>
      </trkpt>
      <trkpt lat="44.42156" lon="5.40994">
        <ele>1264.4</ele>
        <time>2023-07-24T09:01:09Z</time>
      </trkpt>
      <trkpt lat="44.42158" lon="5.40998">
        <ele>1264.5</ele>
        <time>2023-07-24T09:01:10Z</time>
      </trkpt>
      <trkpt lat="44.4216" lon="5.41003">
        <ele>1264.6</ele>
        <time>2023-07-24T09:01:11Z</time>
      </trkpt>
      <trkpt lat="44.42164" lon="5.41008">
        <ele>1264.8</ele>
        <time>2023-07-24T09:01:12Z</time>
      </trkpt>
      <trkpt lat="44.42167" lon="5.41013">
        <ele>1265</ele>
        <time>2023-07-24T09:01:13Z</time>
      </trkpt>
      <trkpt lat="44.4217" lon="5.41018">
        <ele>1265.3</ele>
        <time>2023-07-24T09:01:14Z</time>
      </trkpt>
      <trkpt lat="44.42173" lon="5.41023">
        <ele>1265.5</ele>
        <time>2023-07-24T09:01:15Z</time>
      </trkpt>
      <trkpt lat="44.42175" lon="5.41028">
        <ele>1265.8</ele>
        <time>2023-07-24T09:01:16Z</time>
      </trkpt>
      <trkpt lat="44.42178" lon="5.41033">
        <ele>1266.2</ele>
        <time>2023-07-24T09:01:17Z</time>
      </trkpt>
      <trkpt lat="44.4218" lon="5.41039">
        <ele>1266.5</ele>
        <time>2023-07-24T09:01:18Z</time>
      </trkpt>
      <trkpt lat="44.42183" lon="5.41043">
        <ele>1266.8</ele>
        <time>2023-07-24T09:01:19Z</time>
      </trkpt>
      <trkpt lat="44.42186" lon="5.41047">
        <ele>1267.2</ele>
        <time>2023-07-24T09:01:20Z</time>
      </trkpt>
      <trkpt lat="44.42189" lon="5.41052">
        <ele>1267.5</ele>
        <time>2023-07-24T09:01:21Z</time>
      </trkpt>
      <trkpt lat="44.42192" lon="5.41056">
        <ele>1267.9</ele>
        <time>2023-07-24T09:01:22Z</time>
      </trkpt>
      <trkpt lat="44.42193" lon="5.4106">
        <ele>1268.2</ele>
        <time>2023-07-24T09:01:23Z</time>
      </trkpt>
      <trkpt lat="44.42192" lon="5.41065">
        <ele>1269.1</ele>
        <time>2023-07-24T09:01:24Z</time>
      </trkpt>
      <trkpt lat="44.42193" lon="5.41068">
        <ele>1269.5</ele>
        <time>2023-07-24T09:01:25Z</time>
      </trkpt>
      <trkpt lat="44.42195" lon="5.41072">
        <ele>1270</ele>
        <time>2023-07-24T09:01:26Z</time>
      </trkpt>
      <trkpt lat="44.42198" lon="5.41075">
        <ele>1270.6</ele>
        <time>2023-07-24T09:01:27Z</time>
      </trkpt>
      <trkpt lat="44.422" lon="5.41078">
        <ele>1271.1</ele>
        <time>2023-07-24T09:01:28Z</time>
      </trkpt>
      <trkpt lat="44.42203" lon="5.41081">
        <ele>1271.5</ele>
        <time>2023-07-24T09:01:29Z</time>
      </trkpt>
      <trkpt lat="44.42204" lon="5.41085">
        <ele>1272</ele>
        <time>2023-07-24T09:01:30Z</time>
      </trkpt>
      <trkpt lat="44.42204" lon="5.41087">
        <ele>1272.2</ele>
        <time>2023-07-24T09:01:31Z</time>
      </trkpt>
      <trkpt lat="44.42206" lon="5.41092">
        <ele>1272.8</ele>
        <time>2023-07-24T09:01:32Z</time>
      </trkpt>
      <trkpt lat="44.42207" lon="5.41094">
        <ele>1272.9</ele>
        <time>2023-07-24T09:01:33Z</time>
      </trkpt>
      <trkpt lat="44.42208" lon="5.41098">
        <ele>1273.3</ele>
        <time>2023-07-24T09:01:34Z</time>
      </trkpt>
      <trkpt lat="44.42209" lon="5.41101">
        <ele>1273.6</ele>
        <time>2023-07-24T09:01:35Z</time>
      </trkpt>
      <trkpt lat="44.42211" lon="5.41105">
        <ele>1273.9</ele>
        <time>2023-07-24T09:01:36Z</time>
      </trkpt>
      <trkpt lat="44.42212" lon="5.41107">
        <ele>1274.1</ele>
        <time>2023-07-24T09:01:37Z</time>
      </trkpt>
      <trkpt lat="44.42214" lon="5.41111">
        <ele>1274.4</ele>
        <time>2023-07-24T09:01:38Z</time>
      </trkpt>
      <trkpt lat="44.42214" lon="5.41112">
        <ele>1274.5</ele>
        <time>2023-07-24T09:01:39Z</time>
      </trkpt>
      <trkpt lat="44.42216" lon="5.41115">
        <ele>1274.7</ele>
        <time>2023-07-24T09:01:40Z</time>
      </trkpt>
      <trkpt lat="44.42217" lon="5.41119">
        <ele>1275</ele>
        <time>2023-07-24T09:01:41Z</time>
      </trkpt>
      <trkpt lat="44.42218" lon="5.41123">
        <ele>1275.2</ele>
        <time>2023-07-24T09:01:42Z</time>
      </trkpt>
      <trkpt lat="44.4222" lon="5.41127">
        <ele>1275.5</ele>
        <time>2023-07-24T09:01:43Z</time>
      </trkpt>
      <trkpt lat="44.42222" lon="5.41131">
        <ele>1275.8</ele>
        <time>2023-07-24T09:01:44Z</time>
      </trkpt>
      <trkpt lat="44.42223" lon="5.41134">
        <ele>1276.1</ele>
        <time>2023-07-24T09:01:45Z</time>
      </trkpt>
      <trkpt lat="44.42225" lon="5.41137">
        <ele>1276.4</ele>
        <time>2023-07-24T09:01:46Z</time>
      </trkpt>
      <trkpt lat="44.42227" lon="5.41141">
        <ele>1276.7</ele>
        <time>2023-07-24T09:01:47Z</time>
      </trkpt>
      <trkpt lat="44.42227" lon="5.41142">
        <ele>1276.8</ele>
        <time>2023-07-24T09:01:48Z</time>
      </trkpt>
      <trkpt lat="44.42227" lon="5.41146">
        <ele>1277.1</ele>
        <time>2023-07-24T09:01:49Z</time>
      </trkpt>
      <trkpt lat="44.42227" lon="5.41147">
        <ele>1277.3</ele>
        <time>2023-07-24T09:01:50Z</time>
      </trkpt>
      <trkpt lat="44.42226" lon="5.41151">
        <ele>1277.6</ele>
        <time>2023-07-24T09:01:51Z</time>
      </trkpt>
      <trkpt lat="44.42226" lon="5.41153">
        <ele>1277.7</ele>
        <time>2023-07-24T09:01:52Z</time>
      </trkpt>
      <trkpt lat="44.42228" lon="5.41158">
        <ele>1278.1</ele>
        <time>2023-07-24T09:01:53Z</time>
      </trkpt>
      <trkpt lat="44.42228" lon="5.41159">
        <ele>1278.3</ele>
        <time>2023-07-24T09:01:54Z</time>
      </trkpt>
      <trkpt lat="44.4223" lon="5.41164">
        <ele>1278.7</ele>
        <time>2023-07-24T09:01:55Z</time>
      </trkpt>
      <trkpt lat="44.4223" lon="5.41165">
        <ele>1278.8</ele>
        <time>2023-07-24T09:01:56Z</time>
      </trkpt>
      <trkpt lat="44.42232" lon="5.41167">
        <ele>1279</ele>
        <time>2023-07-24T09:01:57Z</time>
      </trkpt>
      <trkpt lat="44.42233" lon="5.41168">
        <ele>1279.1</ele>
        <time>2023-07-24T09:01:58Z</time>
      </trkpt>
      <trkpt lat="44.42233" lon="5.41168">
        <ele>1279.2</ele>
        <time>2023-07-24T09:01:59Z</time>
      </trkpt>
      <trkpt lat="44.42234" lon="5.4117">
        <ele>1279.3</ele>
        <time>2023-07-24T09:02:00Z</time>
      </trkpt>
      <trkpt lat="44.42235" lon="5.41173">
        <ele>1279.5</ele>
        <time>2023-07-24T09:02:01Z</time>
      </trkpt>
      <trkpt lat="44.42236" lon="5.41177">
        <ele>1279.9</ele>
        <time>2023-07-24T09:02:02Z</time>
      </trkpt>
      <trkpt lat="44.42236" lon="5.41178">
        <ele>1280</ele>
        <time>2023-07-24T09:02:03Z</time>
      </trkpt>
      <trkpt lat="44.42237" lon="5.41183">
        <ele>1280.3</ele>
        <time>2023-07-24T09:02:04Z</time>
      </trkpt>
      <trkpt lat="44.42238" lon="5.41184">
        <ele>1280.5</ele>
        <time>2023-07-24T09:02:05Z</time>
      </trkpt>
      <trkpt lat="44.4224" lon="5.41188">
        <ele>1280.9</ele>
        <time>2023-07-24T09:02:06Z</time>
      </trkpt>
      <trkpt lat="44.4224" lon="5.4119">
        <ele>1281</ele>
        <time>2023-07-24T09:02:07Z</time>
      </trkpt>
      <trkpt lat="44.42242" lon="5.41195">
        <ele>1281.6</ele>
        <time>2023-07-24T09:02:08Z</time>
      </trkpt>
      <trkpt lat="44.42242" lon="5.41197">
        <ele>1281.8</ele>
        <time>2023-07-24T09:02:09Z</time>
      </trkpt>
      <trkpt lat="44.42244" lon="5.41201">
        <ele>1282.4</ele>
        <time>2023-07-24T09:02:10Z</time>
      </trkpt>
      <trkpt lat="44.42245" lon="5.41202">
        <ele>1282.5</ele>
        <time>2023-07-24T09:02:11Z</time>
      </trkpt>
      <trkpt lat="44.42248" lon="5.41205">
        <ele>1283.2</ele>
        <time>2023-07-24T09:02:12Z</time>
      </trkpt>
      <trkpt lat="44.42249" lon="5.41206">
        <ele>1283.4</ele>
        <time>2023-07-24T09:02:13Z</time>
      </trkpt>
      <trkpt lat="44.42251" lon="5.41209">
        <ele>1284</ele>
        <time>2023-07-24T09:02:14Z</time>
      </trkpt>
      <trkpt lat="44.42252" lon="5.4121">
        <ele>1284.2</ele>
        <time>2023-07-24T09:02:15Z</time>
      </trkpt>
      <trkpt lat="44.42254" lon="5.41215">
        <ele>1284.8</ele>
        <time>2023-07-24T09:02:16Z</time>
      </trkpt>
      <trkpt lat="44.42254" lon="5.41216">
        <ele>1285</ele>
        <time>2023-07-24T09:02:17Z</time>
      </trkpt>
      <trkpt lat="44.42256" lon="5.41221">
        <ele>1285.5</ele>
        <time>2023-07-24T09:02:18Z</time>
      </trkpt>
      <trkpt lat="44.42256" lon="5.41222">
        <ele>1285.7</ele>
        <time>2023-07-24T09:02:19Z</time>
      </trkpt>
      <trkpt lat="44.42259" lon="5.41225">
        <ele>1286.1</ele>
        <time>2023-07-24T09:02:20Z</time>
      </trkpt>
      <trkpt lat="44.4226" lon="5.41226">
        <ele>1286.1</ele>
        <time>2023-07-24T09:02:21Z</time>
      </trkpt>
      <trkpt lat="44.42262" lon="5.41228">
        <ele>1286.4</ele>
        <time>2023-07-24T09:02:22Z</time>
      </trkpt>
      <trkpt lat="44.42263" lon="5.41229">
        <ele>1286.4</ele>
        <time>2023-07-24T09:02:23Z</time>
      </trkpt>
      <trkpt lat="44.42265" lon="5.41232">
        <ele>1286.6</ele>
        <time>2023-07-24T09:02:24Z</time>
      </trkpt>
      <trkpt lat="44.42265" lon="5.41233">
        <ele>1286.6</ele>
        <time>2023-07-24T09:02:25Z</time>
      </trkpt>
      <trkpt lat="44.42266" lon="5.41237">
        <ele>1286.7</ele>
        <time>2023-07-24T09:02:26Z</time>
      </trkpt>
      <trkpt lat="44.42267" lon="5.41238">
        <ele>1286.7</ele>
        <time>2023-07-24T09:02:27Z</time>
      </trkpt>
      <trkpt lat="44.42268" lon="5.41242">
        <ele>1286.7</ele>
        <time>2023-07-24T09:02:28Z</time>
      </trkpt>
      <trkpt lat="44.42268" lon="5.41243">
        <ele>1286.7</ele>
        <time>2023-07-24T09:02:29Z</time>
      </trkpt>
      <trkpt lat="44.42269" lon="5.41246">
        <ele>1286.8</ele>
        <time>2023-07-24T09:02:30Z</time>
      </trkpt>
      <trkpt lat="44.42269" lon="5.41248">
        <ele>1286.8</ele>
        <time>2023-07-24T09:02:31Z</time>
      </trkpt>
      <trkpt lat="44.4227" lon="5.41252">
        <ele>1286.8</ele>
        <time>2023-07-24T09:02:32Z</time>
      </trkpt>
      <trkpt lat="44.4227" lon="5.41253">
        <ele>1286.8</ele>
        <time>2023-07-24T09:02:33Z</time>
      </trkpt>
      <trkpt lat="44.42271" lon="5.41258">
        <ele>1286.9</ele>
        <time>2023-07-24T09:02:34Z</time>
      </trkpt>
      <trkpt lat="44.42272" lon="5.4126">
        <ele>1286.9</ele>
        <time>2023-07-24T09:02:35Z</time>
      </trkpt>
      <trkpt lat="44.42272" lon="5.41264">
        <ele>1287</ele>
        <time>2023-07-24T09:02:36Z</time>
      </trkpt>
      <trkpt lat="44.42272" lon="5.41266">
        <ele>1287</ele>
        <time>2023-07-24T09:02:37Z</time>
      </trkpt>
      <trkpt lat="44.42272" lon="5.4127">
        <ele>1287.1</ele>
        <time>2023-07-24T09:02:38Z</time>
      </trkpt>
      <trkpt lat="44.42272" lon="5.41274">
        <ele>1287.1</ele>
        <time>2023-07-24T09:02:39Z</time>
      </trkpt>
      <trkpt lat="44.42273" lon="5.41278">
        <ele>1287.2</ele>
        <time>2023-07-24T09:02:40Z</time>
      </trkpt>
      <trkpt lat="44.42274" lon="5.4128">
        <ele>1287.2</ele>
        <time>2023-07-24T09:02:41Z</time>
      </trkpt>
      <trkpt lat="44.42275" lon="5.41285">
        <ele>1287.2</ele>
        <time>2023-07-24T09:02:42Z</time>
      </trkpt>
      <trkpt lat="44.42275" lon="5.41287">
        <ele>1287.2</ele>
        <time>2023-07-24T09:02:43Z</time>
      </trkpt>
      <trkpt lat="44.42277" lon="5.41292">
        <ele>1287.1</ele>
        <time>2023-07-24T09:02:44Z</time>
      </trkpt>
      <trkpt lat="44.42277" lon="5.41293">
        <ele>1287</ele>
        <time>2023-07-24T09:02:45Z</time>
      </trkpt>
      <trkpt lat="44.42279" lon="5.41297">
        <ele>1286.9</ele>
        <time>2023-07-24T09:02:46Z</time>
      </trkpt>
      <trkpt lat="44.42279" lon="5.41298">
        <ele>1286.8</ele>
        <time>2023-07-24T09:02:47Z</time>
      </trkpt>
      <trkpt lat="44.4228" lon="5.413">
        <ele>1286.7</ele>
        <time>2023-07-24T09:02:48Z</time>
      </trkpt>
      <trkpt lat="44.4228" lon="5.41302">
        <ele>1286.6</ele>
        <time>2023-07-24T09:02:49Z</time>
      </trkpt>
      <trkpt lat="44.42281" lon="5.41305">
        <ele>1286.5</ele>
        <time>2023-07-24T09:02:50Z</time>
      </trkpt>
      <trkpt lat="44.42281" lon="5.41307">
        <ele>1286.3</ele>
        <time>2023-07-24T09:02:51Z</time>
      </trkpt>
      <trkpt lat="44.42281" lon="5.41311">
        <ele>1286</ele>
        <time>2023-07-24T09:02:52Z</time>
      </trkpt>
      <trkpt lat="44.42281" lon="5.41313">
        <ele>1285.9</ele>
        <time>2023-07-24T09:02:53Z</time>
      </trkpt>
      <trkpt lat="44.4228" lon="5.41318">
        <ele>1285.6</ele>
        <time>2023-07-24T09:02:54Z</time>
      </trkpt>
      <trkpt lat="44.4228" lon="5.4132">
        <ele>1285.5</ele>
        <time>2023-07-24T09:02:55Z</time>
      </trkpt>
      <trkpt lat="44.4228" lon="5.41325">
        <ele>1285.3</ele>
        <time>2023-07-24T09:02:56Z</time>
      </trkpt>
      <trkpt lat="44.4228" lon="5.41327">
        <ele>1285.3</ele>
        <time>2023-07-24T09:02:57Z</time>
      </trkpt>
      <trkpt lat="44.4228" lon="5.41332">
        <ele>1285.2</ele>
        <time>2023-07-24T09:02:58Z</time>
      </trkpt>
      <trkpt lat="44.42281" lon="5.41334">
        <ele>1285.1</ele>
        <time>2023-07-24T09:02:59Z</time>
      </trkpt>
      <trkpt lat="44.42282" lon="5.41337">
        <ele>1285.2</ele>
        <time>2023-07-24T09:03:00Z</time>
      </trkpt>
      <trkpt lat="44.42282" lon="5.41341">
        <ele>1285.2</ele>
        <time>2023-07-24T09:03:01Z</time>
      </trkpt>
      <trkpt lat="44.42284" lon="5.41346">
        <ele>1285.3</ele>
        <time>2023-07-24T09:03:02Z</time>
      </trkpt>
      <trkpt lat="44.42285" lon="5.41347">
        <ele>1285.3</ele>
        <time>2023-07-24T09:03:03Z</time>
      </trkpt>
      <trkpt lat="44.42288" lon="5.4135">
        <ele>1285.4</ele>
        <time>2023-07-24T09:03:04Z</time>
      </trkpt>
      <trkpt lat="44.42289" lon="5.41351">
        <ele>1285.4</ele>
        <time>2023-07-24T09:03:05Z</time>
      </trkpt>
      <trkpt lat="44.42291" lon="5.41353">
        <ele>1285.4</ele>
        <time>2023-07-24T09:03:06Z</time>
      </trkpt>
      <trkpt lat="44.42292" lon="5.41355">
        <ele>1285.4</ele>
        <time>2023-07-24T09:03:07Z</time>
      </trkpt>
      <trkpt lat="44.42294" lon="5.4136">
        <ele>1285.2</ele>
        <time>2023-07-24T09:03:08Z</time>
      </trkpt>
      <trkpt lat="44.42294" lon="5.41362">
        <ele>1285.2</ele>
        <time>2023-07-24T09:03:09Z</time>
      </trkpt>
      <trkpt lat="44.42294" lon="5.41366">
        <ele>1285.1</ele>
        <time>2023-07-24T09:03:10Z</time>
      </trkpt>
      <trkpt lat="44.42295" lon="5.4137">
        <ele>1284.9</ele>
        <time>2023-07-24T09:03:11Z</time>
      </trkpt>
      <trkpt lat="44.42296" lon="5.41375">
        <ele>1284.7</ele>
        <time>2023-07-24T09:03:12Z</time>
      </trkpt>
      <trkpt lat="44.42297" lon="5.41377">
        <ele>1284.6</ele>
        <time>2023-07-24T09:03:13Z</time>
      </trkpt>
      <trkpt lat="44.42298" lon="5.41378">
        <ele>1284.6</ele>
        <time>2023-07-24T09:03:14Z</time>
      </trkpt>
      <trkpt lat="44.42298" lon="5.41379">
        <ele>1284.5</ele>
        <time>2023-07-24T09:03:15Z</time>
      </trkpt>
      <trkpt lat="44.42298" lon="5.41381">
        <ele>1284.4</ele>
        <time>2023-07-24T09:03:16Z</time>
      </trkpt>
      <trkpt lat="44.42297" lon="5.41386">
        <ele>1284.3</ele>
        <time>2023-07-24T09:03:17Z</time>
      </trkpt>
      <trkpt lat="44.42296" lon="5.41387">
        <ele>1284.2</ele>
        <time>2023-07-24T09:03:18Z</time>
      </trkpt>
      <trkpt lat="44.42295" lon="5.41392">
        <ele>1284</ele>
        <time>2023-07-24T09:03:19Z</time>
      </trkpt>
      <trkpt lat="44.42295" lon="5.41394">
        <ele>1284</ele>
        <time>2023-07-24T09:03:20Z</time>
      </trkpt>
      <trkpt lat="44.42296" lon="5.41399">
        <ele>1283.9</ele>
        <time>2023-07-24T09:03:21Z</time>
      </trkpt>
      <trkpt lat="44.42296" lon="5.41401">
        <ele>1283.9</ele>
        <time>2023-07-24T09:03:22Z</time>
      </trkpt>
      <trkpt lat="44.42297" lon="5.41406">
        <ele>1283.9</ele>
        <time>2023-07-24T09:03:23Z</time>
      </trkpt>
      <trkpt lat="44.42299" lon="5.4141">
        <ele>1283.9</ele>
        <time>2023-07-24T09:03:24Z</time>
      </trkpt>
      <trkpt lat="44.42301" lon="5.41415">
        <ele>1284</ele>
        <time>2023-07-24T09:03:25Z</time>
      </trkpt>
      <trkpt lat="44.42303" lon="5.4142">
        <ele>1284.1</ele>
        <time>2023-07-24T09:03:26Z</time>
      </trkpt>
      <trkpt lat="44.42305" lon="5.41426">
        <ele>1284.2</ele>
        <time>2023-07-24T09:03:27Z</time>
      </trkpt>
      <trkpt lat="44.42307" lon="5.41431">
        <ele>1284.4</ele>
        <time>2023-07-24T09:03:28Z</time>
      </trkpt>
      <trkpt lat="44.42309" lon="5.41436">
        <ele>1284.7</ele>
        <time>2023-07-24T09:03:29Z</time>
      </trkpt>
      <trkpt lat="44.42312" lon="5.41441">
        <ele>1285</ele>
        <time>2023-07-24T09:03:30Z</time>
      </trkpt>
      <trkpt lat="44.42314" lon="5.41446">
        <ele>1285.3</ele>
        <time>2023-07-24T09:03:31Z</time>
      </trkpt>
      <trkpt lat="44.42317" lon="5.4145">
        <ele>1285.7</ele>
        <time>2023-07-24T09:03:32Z</time>
      </trkpt>
      <trkpt lat="44.42319" lon="5.41455">
        <ele>1286</ele>
        <time>2023-07-24T09:03:33Z</time>
      </trkpt>
      <trkpt lat="44.4232" lon="5.4146">
        <ele>1286.4</ele>
        <time>2023-07-24T09:03:34Z</time>
      </trkpt>
      <trkpt lat="44.42322" lon="5.41465">
        <ele>1286.9</ele>
        <time>2023-07-24T09:03:35Z</time>
      </trkpt>
      <trkpt lat="44.42325" lon="5.4147">
        <ele>1287.4</ele>
        <time>2023-07-24T09:03:36Z</time>
      </trkpt>
      <trkpt lat="44.42328" lon="5.41474">
        <ele>1287.9</ele>
        <time>2023-07-24T09:03:37Z</time>
      </trkpt>
      <trkpt lat="44.4233" lon="5.41478">
        <ele>1288.3</ele>
        <time>2023-07-24T09:03:38Z</time>
      </trkpt>
      <trkpt lat="44.42332" lon="5.41481">
        <ele>1288.7</ele>
        <time>2023-07-24T09:03:39Z</time>
      </trkpt>
      <trkpt lat="44.42333" lon="5.41485">
        <ele>1288.9</ele>
        <time>2023-07-24T09:03:40Z</time>
      </trkpt>
      <trkpt lat="44.42334" lon="5.41488">
        <ele>1289.2</ele>
        <time>2023-07-24T09:03:41Z</time>
      </trkpt>
      <trkpt lat="44.42335" lon="5.41492">
        <ele>1289.4</ele>
        <time>2023-07-24T09:03:42Z</time>
      </trkpt>
      <trkpt lat="44.42337" lon="5.41495">
        <ele>1289.6</ele>
        <time>2023-07-24T09:03:43Z</time>
      </trkpt>
      <trkpt lat="44.42339" lon="5.41498">
        <ele>1289.8</ele>
        <time>2023-07-24T09:03:44Z</time>
      </trkpt>
      <trkpt lat="44.4234" lon="5.41502">
        <ele>1290</ele>
        <time>2023-07-24T09:03:45Z</time>
      </trkpt>
      <trkpt lat="44.42342" lon="5.41506">
        <ele>1290.2</ele>
        <time>2023-07-24T09:03:46Z</time>
      </trkpt>
      <trkpt lat="44.42343" lon="5.4151">
        <ele>1290.5</ele>
        <time>2023-07-24T09:03:47Z</time>
      </trkpt>
      <trkpt lat="44.42344" lon="5.41514">
        <ele>1290.7</ele>
        <time>2023-07-24T09:03:48Z</time>
      </trkpt>
      <trkpt lat="44.42345" lon="5.41518">
        <ele>1291</ele>
        <time>2023-07-24T09:03:49Z</time>
      </trkpt>
      <trkpt lat="44.42346" lon="5.41522">
        <ele>1291.2</ele>
        <time>2023-07-24T09:03:50Z</time>
      </trkpt>
      <trkpt lat="44.42348" lon="5.41525">
        <ele>1291.5</ele>
        <time>2023-07-24T09:03:51Z</time>
      </trkpt>
      <trkpt lat="44.42351" lon="5.41529">
        <ele>1291.9</ele>
        <time>2023-07-24T09:03:52Z</time>
      </trkpt>
      <trkpt lat="44.42352" lon="5.41531">
        <ele>1292.1</ele>
        <time>2023-07-24T09:03:53Z</time>
      </trkpt>
      <trkpt lat="44.42354" lon="5.41534">
        <ele>1292.4</ele>
        <time>2023-07-24T09:03:54Z</time>
      </trkpt>
      <trkpt lat="44.42356" lon="5.41536">
        <ele>1292.6</ele>
        <time>2023-07-24T09:03:55Z</time>
      </trkpt>
      <trkpt lat="44.42359" lon="5.4154">
        <ele>1293</ele>
        <time>2023-07-24T09:03:56Z</time>
      </trkpt>
      <trkpt lat="44.42359" lon="5.41541">
        <ele>1293.1</ele>
        <time>2023-07-24T09:03:57Z</time>
      </trkpt>
      <trkpt lat="44.4236" lon="5.41545">
        <ele>1293.4</ele>
        <time>2023-07-24T09:03:58Z</time>
      </trkpt>
      <trkpt lat="44.42361" lon="5.41546">
        <ele>1293.5</ele>
        <time>2023-07-24T09:03:59Z</time>
      </trkpt>
      <trkpt lat="44.42361" lon="5.41548">
        <ele>1293.7</ele>
        <time>2023-07-24T09:04:00Z</time>
      </trkpt>
      <trkpt lat="44.42364" lon="5.41551">
        <ele>1294.1</ele>
        <time>2023-07-24T09:04:02Z</time>
      </trkpt>
      <trkpt lat="44.42365" lon="5.41551">
        <ele>1294.1</ele>
        <time>2023-07-24T09:04:03Z</time>
      </trkpt>
      <trkpt lat="44.42365" lon="5.41551">
        <ele>1294.1</ele>
        <time>2023-07-24T09:04:04Z</time>
      </trkpt>
      <trkpt lat="44.42365" lon="5.41551">
        <ele>1294.2</ele>
        <time>2023-07-24T09:04:05Z</time>
      </trkpt>
      <trkpt lat="44.42365" lon="5.41551">
        <ele>1294.2</ele>
        <time>2023-07-24T09:04:06Z</time>
      </trkpt>
      <trkpt lat="44.42365" lon="5.41552">
        <ele>1294.2</ele>
        <time>2023-07-24T09:04:07Z</time>
      </trkpt>
      <trkpt lat="44.42365" lon="5.41552">
        <ele>1294.2</ele>
        <time>2023-07-24T09:04:08Z</time>
      </trkpt>
      <trkpt lat="44.42366" lon="5.41552">
        <ele>1294.3</ele>
        <time>2023-07-24T09:04:09Z</time>
      </trkpt>
      <trkpt lat="44.42366" lon="5.41553">
        <ele>1294.3</ele>
        <time>2023-07-24T09:04:10Z</time>
      </trkpt>
      <trkpt lat="44.42366" lon="5.41553">
        <ele>1294.3</ele>
        <time>2023-07-24T09:04:11Z</time>
      </trkpt>
      <trkpt lat="44.42366" lon="5.41553">
        <ele>1294.4</ele>
        <time>2023-07-24T09:04:12Z</time>
      </trkpt>
      <trkpt lat="44.42366" lon="5.41554">
        <ele>1294.4</ele>
        <time>2023-07-24T09:04:13Z</time>
      </trkpt>
      <trkpt lat="44.42366" lon="5.41554">
        <ele>1294.4</ele>
        <time>2023-07-24T09:04:14Z</time>
      </trkpt>
      <trkpt lat="44.42367" lon="5.41554">
        <ele>1294.4</ele>
        <time>2023-07-24T09:04:15Z</time>
      </trkpt>
      <trkpt lat="44.42367" lon="5.41554">
        <ele>1294.5</ele>
        <time>2023-07-24T09:04:16Z</time>
      </trkpt>
      <trkpt lat="44.42368" lon="5.41558">
        <ele>1294.8</ele>
        <time>2023-07-24T09:04:17Z</time>
      </trkpt>
      <trkpt lat="44.42368" lon="5.41559">
        <ele>1294.8</ele>
        <time>2023-07-24T09:04:18Z</time>
      </trkpt>
      <trkpt lat="44.4237" lon="5.41563">
        <ele>1295.2</ele>
        <time>2023-07-24T09:04:19Z</time>
      </trkpt>
      <trkpt lat="44.42371" lon="5.41564">
        <ele>1295.3</ele>
        <time>2023-07-24T09:04:20Z</time>
      </trkpt>
      <trkpt lat="44.42373" lon="5.41568">
        <ele>1295.7</ele>
        <time>2023-07-24T09:04:21Z</time>
      </trkpt>
      <trkpt lat="44.42375" lon="5.41571">
        <ele>1296</ele>
        <time>2023-07-24T09:04:22Z</time>
      </trkpt>
      <trkpt lat="44.42376" lon="5.41573">
        <ele>1296.2</ele>
        <time>2023-07-24T09:04:23Z</time>
      </trkpt>
      <trkpt lat="44.42377" lon="5.41574">
        <ele>1296.4</ele>
        <time>2023-07-24T09:04:24Z</time>
      </trkpt>
      <trkpt lat="44.42379" lon="5.41576">
        <ele>1296.7</ele>
        <time>2023-07-24T09:04:25Z</time>
      </trkpt>
      <trkpt lat="44.4238" lon="5.41577">
        <ele>1296.8</ele>
        <time>2023-07-24T09:04:26Z</time>
      </trkpt>
      <trkpt lat="44.42382" lon="5.41581">
        <ele>1297.1</ele>
        <time>2023-07-24T09:04:27Z</time>
      </trkpt>
      <trkpt lat="44.42383" lon="5.41582">
        <ele>1297.3</ele>
        <time>2023-07-24T09:04:28Z</time>
      </trkpt>
      <trkpt lat="44.42385" lon="5.41586">
        <ele>1297.6</ele>
        <time>2023-07-24T09:04:29Z</time>
      </trkpt>
      <trkpt lat="44.42385" lon="5.41587">
        <ele>1297.7</ele>
        <time>2023-07-24T09:04:30Z</time>
      </trkpt>
      <trkpt lat="44.42388" lon="5.41591">
        <ele>1298</ele>
        <time>2023-07-24T09:04:31Z</time>
      </trkpt>
      <trkpt lat="44.42388" lon="5.41593">
        <ele>1298.1</ele>
        <time>2023-07-24T09:04:32Z</time>
      </trkpt>
      <trkpt lat="44.42391" lon="5.41598">
        <ele>1298.4</ele>
        <time>2023-07-24T09:04:33Z</time>
      </trkpt>
      <trkpt lat="44.42392" lon="5.41599">
        <ele>1298.5</ele>
        <time>2023-07-24T09:04:34Z</time>
      </trkpt>
      <trkpt lat="44.42393" lon="5.41603">
        <ele>1298.6</ele>
        <time>2023-07-24T09:04:35Z</time>
      </trkpt>
      <trkpt lat="44.42395" lon="5.41608">
        <ele>1298.8</ele>
        <time>2023-07-24T09:04:36Z</time>
      </trkpt>
      <trkpt lat="44.42395" lon="5.4161">
        <ele>1298.8</ele>
        <time>2023-07-24T09:04:37Z</time>
      </trkpt>
      <trkpt lat="44.42396" lon="5.41614">
        <ele>1298.9</ele>
        <time>2023-07-24T09:04:38Z</time>
      </trkpt>
      <trkpt lat="44.42397" lon="5.41617">
        <ele>1298.9</ele>
        <time>2023-07-24T09:04:39Z</time>
      </trkpt>
      <trkpt lat="44.42399" lon="5.41622">
        <ele>1299</ele>
        <time>2023-07-24T09:04:40Z</time>
      </trkpt>
      <trkpt lat="44.424" lon="5.41623">
        <ele>1299</ele>
        <time>2023-07-24T09:04:41Z</time>
      </trkpt>
      <trkpt lat="44.42401" lon="5.41627">
        <ele>1299.1</ele>
        <time>2023-07-24T09:04:42Z</time>
      </trkpt>
      <trkpt lat="44.42403" lon="5.41632">
        <ele>1299.1</ele>
        <time>2023-07-24T09:04:43Z</time>
      </trkpt>
      <trkpt lat="44.42403" lon="5.41633">
        <ele>1299.1</ele>
        <time>2023-07-24T09:04:44Z</time>
      </trkpt>
      <trkpt lat="44.42404" lon="5.41638">
        <ele>1299.2</ele>
        <time>2023-07-24T09:04:45Z</time>
      </trkpt>
      <trkpt lat="44.42405" lon="5.4164">
        <ele>1299.2</ele>
        <time>2023-07-24T09:04:46Z</time>
      </trkpt>
      <trkpt lat="44.42406" lon="5.41643">
        <ele>1299.2</ele>
        <time>2023-07-24T09:04:47Z</time>
      </trkpt>
      <trkpt lat="44.42407" lon="5.41648">
        <ele>1299.3</ele>
        <time>2023-07-24T09:04:48Z</time>
      </trkpt>
      <trkpt lat="44.42408" lon="5.41649">
        <ele>1299.3</ele>
        <time>2023-07-24T09:04:49Z</time>
      </trkpt>
      <trkpt lat="44.42409" lon="5.41653">
        <ele>1299.3</ele>
        <time>2023-07-24T09:04:50Z</time>
      </trkpt>
      <trkpt lat="44.4241" lon="5.41657">
        <ele>1299.4</ele>
        <time>2023-07-24T09:04:51Z</time>
      </trkpt>
      <trkpt lat="44.4241" lon="5.41661">
        <ele>1299.4</ele>
        <time>2023-07-24T09:04:52Z</time>
      </trkpt>
      <trkpt lat="44.42412" lon="5.41665">
        <ele>1299.5</ele>
        <time>2023-07-24T09:04:53Z</time>
      </trkpt>
      <trkpt lat="44.42414" lon="5.41669">
        <ele>1299.5</ele>
        <time>2023-07-24T09:04:54Z</time>
      </trkpt>
      <trkpt lat="44.42415" lon="5.41671">
        <ele>1299.5</ele>
        <time>2023-07-24T09:04:55Z</time>
      </trkpt>
      <trkpt lat="44.42417" lon="5.41674">
        <ele>1299.6</ele>
        <time>2023-07-24T09:04:56Z</time>
      </trkpt>
      <trkpt lat="44.42417" lon="5.41676">
        <ele>1299.6</ele>
        <time>2023-07-24T09:04:57Z</time>
      </trkpt>
      <trkpt lat="44.42417" lon="5.41681">
        <ele>1299.7</ele>
        <time>2023-07-24T09:04:58Z</time>
      </trkpt>
      <trkpt lat="44.42418" lon="5.41683">
        <ele>1299.7</ele>
        <time>2023-07-24T09:04:59Z</time>
      </trkpt>
      <trkpt lat="44.4242" lon="5.41688">
        <ele>1299.8</ele>
        <time>2023-07-24T09:05:00Z</time>
      </trkpt>
      <trkpt lat="44.4242" lon="5.41689">
        <ele>1299.8</ele>
        <time>2023-07-24T09:05:01Z</time>
      </trkpt>
      <trkpt lat="44.42422" lon="5.41693">
        <ele>1300</ele>
        <time>2023-07-24T09:05:02Z</time>
      </trkpt>
      <trkpt lat="44.42423" lon="5.41695">
        <ele>1300</ele>
        <time>2023-07-24T09:05:03Z</time>
      </trkpt>
      <trkpt lat="44.42424" lon="5.41699">
        <ele>1300.2</ele>
        <time>2023-07-24T09:05:04Z</time>
      </trkpt>
      <trkpt lat="44.42425" lon="5.41703">
        <ele>1300.4</ele>
        <time>2023-07-24T09:05:05Z</time>
      </trkpt>
      <trkpt lat="44.42427" lon="5.41706">
        <ele>1300.6</ele>
        <time>2023-07-24T09:05:06Z</time>
      </trkpt>
      <trkpt lat="44.42429" lon="5.4171">
        <ele>1300.9</ele>
        <time>2023-07-24T09:05:07Z</time>
      </trkpt>
      <trkpt lat="44.42431" lon="5.41713">
        <ele>1301.2</ele>
        <time>2023-07-24T09:05:08Z</time>
      </trkpt>
      <trkpt lat="44.42434" lon="5.41716">
        <ele>1301.5</ele>
        <time>2023-07-24T09:05:09Z</time>
      </trkpt>
      <trkpt lat="44.42436" lon="5.41719">
        <ele>1301.8</ele>
        <time>2023-07-24T09:05:10Z</time>
      </trkpt>
      <trkpt lat="44.42438" lon="5.41723">
        <ele>1302.1</ele>
        <time>2023-07-24T09:05:11Z</time>
      </trkpt>
      <trkpt lat="44.42438" lon="5.41725">
        <ele>1302.2</ele>
        <time>2023-07-24T09:05:12Z</time>
      </trkpt>
      <trkpt lat="44.4244" lon="5.41728">
        <ele>1302.5</ele>
        <time>2023-07-24T09:05:13Z</time>
      </trkpt>
      <trkpt lat="44.42442" lon="5.41732">
        <ele>1302.8</ele>
        <time>2023-07-24T09:05:14Z</time>
      </trkpt>
      <trkpt lat="44.42443" lon="5.41734">
        <ele>1302.9</ele>
        <time>2023-07-24T09:05:15Z</time>
      </trkpt>
      <trkpt lat="44.42446" lon="5.41738">
        <ele>1303.2</ele>
        <time>2023-07-24T09:05:16Z</time>
      </trkpt>
      <trkpt lat="44.42446" lon="5.41739">
        <ele>1303.3</ele>
        <time>2023-07-24T09:05:17Z</time>
      </trkpt>
      <trkpt lat="44.42447" lon="5.41743">
        <ele>1303.6</ele>
        <time>2023-07-24T09:05:18Z</time>
      </trkpt>
      <trkpt lat="44.42448" lon="5.41747">
        <ele>1303.8</ele>
        <time>2023-07-24T09:05:19Z</time>
      </trkpt>
      <trkpt lat="44.4245" lon="5.41751">
        <ele>1304</ele>
        <time>2023-07-24T09:05:20Z</time>
      </trkpt>
      <trkpt lat="44.42451" lon="5.41754">
        <ele>1304.3</ele>
        <time>2023-07-24T09:05:21Z</time>
      </trkpt>
      <trkpt lat="44.42453" lon="5.41757">
        <ele>1304.5</ele>
        <time>2023-07-24T09:05:22Z</time>
      </trkpt>
      <trkpt lat="44.42455" lon="5.41761">
        <ele>1304.8</ele>
        <time>2023-07-24T09:05:23Z</time>
      </trkpt>
      <trkpt lat="44.42457" lon="5.41763">
        <ele>1305.1</ele>
        <time>2023-07-24T09:05:24Z</time>
      </trkpt>
      <trkpt lat="44.42459" lon="5.41766">
        <ele>1305.3</ele>
        <time>2023-07-24T09:05:25Z</time>
      </trkpt>
      <trkpt lat="44.4246" lon="5.41772">
        <ele>1305.6</ele>
        <time>2023-07-24T09:05:26Z</time>
      </trkpt>
      <trkpt lat="44.42461" lon="5.41774">
        <ele>1305.7</ele>
        <time>2023-07-24T09:05:27Z</time>
      </trkpt>
      <trkpt lat="44.42462" lon="5.41778">
        <ele>1305.9</ele>
        <time>2023-07-24T09:05:28Z</time>
      </trkpt>
      <trkpt lat="44.42463" lon="5.41781">
        <ele>1306</ele>
        <time>2023-07-24T09:05:29Z</time>
      </trkpt>
      <trkpt lat="44.42465" lon="5.41784">
        <ele>1306.2</ele>
        <time>2023-07-24T09:05:30Z</time>
      </trkpt>
      <trkpt lat="44.42466" lon="5.41788">
        <ele>1306.3</ele>
        <time>2023-07-24T09:05:31Z</time>
      </trkpt>
      <trkpt lat="44.42468" lon="5.41791">
        <ele>1306.5</ele>
        <time>2023-07-24T09:05:32Z</time>
      </trkpt>
      <trkpt lat="44.42469" lon="5.41795">
        <ele>1306.6</ele>
        <time>2023-07-24T09:05:33Z</time>
      </trkpt>
      <trkpt lat="44.4247" lon="5.41796">
        <ele>1306.7</ele>
        <time>2023-07-24T09:05:34Z</time>
      </trkpt>
      <trkpt lat="44.42472" lon="5.41801">
        <ele>1306.8</ele>
        <time>2023-07-24T09:05:35Z</time>
      </trkpt>
      <trkpt lat="44.42472" lon="5.41802">
        <ele>1306.9</ele>
        <time>2023-07-24T09:05:36Z</time>
      </trkpt>
      <trkpt lat="44.42474" lon="5.41807">
        <ele>1307</ele>
        <time>2023-07-24T09:05:37Z</time>
      </trkpt>
      <trkpt lat="44.42474" lon="5.41809">
        <ele>1307.1</ele>
        <time>2023-07-24T09:05:38Z</time>
      </trkpt>
      <trkpt lat="44.42476" lon="5.41812">
        <ele>1307.2</ele>
        <time>2023-07-24T09:05:39Z</time>
      </trkpt>
      <trkpt lat="44.42477" lon="5.41817">
        <ele>1307.4</ele>
        <time>2023-07-24T09:05:40Z</time>
      </trkpt>
      <trkpt lat="44.42478" lon="5.41818">
        <ele>1307.4</ele>
        <time>2023-07-24T09:05:41Z</time>
      </trkpt>
      <trkpt lat="44.4248" lon="5.41821">
        <ele>1307.5</ele>
        <time>2023-07-24T09:05:42Z</time>
      </trkpt>
      <trkpt lat="44.42481" lon="5.41822">
        <ele>1307.6</ele>
        <time>2023-07-24T09:05:43Z</time>
      </trkpt>
      <trkpt lat="44.42482" lon="5.41827">
        <ele>1307.7</ele>
        <time>2023-07-24T09:05:44Z</time>
      </trkpt>
      <trkpt lat="44.42483" lon="5.41828">
        <ele>1307.8</ele>
        <time>2023-07-24T09:05:45Z</time>
      </trkpt>
      <trkpt lat="44.42484" lon="5.41832">
        <ele>1307.9</ele>
        <time>2023-07-24T09:05:46Z</time>
      </trkpt>
      <trkpt lat="44.42485" lon="5.41835">
        <ele>1308.1</ele>
        <time>2023-07-24T09:05:47Z</time>
      </trkpt>
      <trkpt lat="44.42487" lon="5.41839">
        <ele>1308.2</ele>
        <time>2023-07-24T09:05:48Z</time>
      </trkpt>
      <trkpt lat="44.42489" lon="5.41842">
        <ele>1308.3</ele>
        <time>2023-07-24T09:05:49Z</time>
      </trkpt>
      <trkpt lat="44.42493" lon="5.41843">
        <ele>1308.5</ele>
        <time>2023-07-24T09:05:50Z</time>
      </trkpt>
      <trkpt lat="44.42494" lon="5.41843">
        <ele>1308.7</ele>
        <time>2023-07-24T09:05:51Z</time>
      </trkpt>
      <trkpt lat="44.42496" lon="5.41843">
        <ele>1308.8</ele>
        <time>2023-07-24T09:05:52Z</time>
      </trkpt>
      <trkpt lat="44.42497" lon="5.41844">
        <ele>1308.9</ele>
        <time>2023-07-24T09:05:53Z</time>
      </trkpt>
      <trkpt lat="44.42497" lon="5.41844">
        <ele>1308.9</ele>
        <time>2023-07-24T09:05:54Z</time>
      </trkpt>
      <trkpt lat="44.42497" lon="5.41844">
        <ele>1309</ele>
        <time>2023-07-24T09:05:55Z</time>
      </trkpt>
      <trkpt lat="44.42497" lon="5.41844">
        <ele>1309</ele>
        <time>2023-07-24T09:05:56Z</time>
      </trkpt>
      <trkpt lat="44.42497" lon="5.41844">
        <ele>1309</ele>
        <time>2023-07-24T09:05:57Z</time>
      </trkpt>
      <trkpt lat="44.42497" lon="5.41844">
        <ele>1309</ele>
        <time>2023-07-24T09:05:58Z</time>
      </trkpt>
      <trkpt lat="44.42497" lon="5.41844">
        <ele>1309</ele>
        <time>2023-07-24T09:05:59Z</time>
      </trkpt>
      <trkpt lat="44.42497" lon="5.41844">
        <ele>1309</ele>
        <time>2023-07-24T09:06:00Z</time>
      </trkpt>
      <trkpt lat="44.42497" lon="5.41844">
        <ele>1309</ele>
        <time>2023-07-24T09:06:01Z</time>
      </trkpt>
      <trkpt lat="44.42497" lon="5.41844">
        <ele>1309</ele>
        <time>2023-07-24T09:06:02Z</time>
      </trkpt>
      <trkpt lat="44.42497" lon="5.41844">
        <ele>1309</ele>
        <time>2023-07-24T09:06:03Z</time>
      </trkpt>
      <trkpt lat="44.42497" lon="5.41844">
        <ele>1309</ele>
        <time>2023-07-24T09:06:04Z</time>
      </trkpt>
      <trkpt lat="44.42498" lon="5.41838">
        <ele>1309.5</ele>
        <time>2023-07-24T09:06:17Z</time>
      </trkpt>
      <trkpt lat="44.42498" lon="5.41838">
        <ele>1309.5</ele>
        <time>2023-07-24T09:06:18Z</time>
      </trkpt>
      <trkpt lat="44.42498" lon="5.41838">
        <ele>1309.6</ele>
        <time>2023-07-24T09:06:19Z</time>
      </trkpt>
      <trkpt lat="44.42498" lon="5.41838">
        <ele>1309.6</ele>
        <time>2023-07-24T09:06:20Z</time>
      </trkpt>
      <trkpt lat="44.42496" lon="5.41839">
        <ele>1309.7</ele>
        <time>2023-07-24T09:06:21Z</time>
      </trkpt>
      <trkpt lat="44.42496" lon="5.4184">
        <ele>1309.8</ele>
        <time>2023-07-24T09:06:22Z</time>
      </trkpt>
      <trkpt lat="44.42496" lon="5.4184">
        <ele>1309.8</ele>
        <time>2023-07-24T09:06:23Z</time>
      </trkpt>
      <trkpt lat="44.42496" lon="5.4184">
        <ele>1309.8</ele>
        <time>2023-07-24T09:06:24Z</time>
      </trkpt>
      <trkpt lat="44.42496" lon="5.4184">
        <ele>1309.8</ele>
        <time>2023-07-24T09:06:25Z</time>
      </trkpt>
      <trkpt lat="44.42496" lon="5.4184">
        <ele>1309.8</ele>
        <time>2023-07-24T09:06:26Z</time>
      </trkpt>
      <trkpt lat="44.42495" lon="5.41841">
        <ele>1309.9</ele>
        <time>2023-07-24T09:06:27Z</time>
      </trkpt>
      <trkpt lat="44.42495" lon="5.41842">
        <ele>1310</ele>
        <time>2023-07-24T09:06:28Z</time>
      </trkpt>
      <trkpt lat="44.42494" lon="5.41843">
        <ele>1310</ele>
        <time>2023-07-24T09:06:29Z</time>
      </trkpt>
      <trkpt lat="44.42494" lon="5.41844">
        <ele>1310.1</ele>
        <time>2023-07-24T09:06:30Z</time>
      </trkpt>
      <trkpt lat="44.42494" lon="5.41844">
        <ele>1310.1</ele>
        <time>2023-07-24T09:06:31Z</time>
      </trkpt>
      <trkpt lat="44.42494" lon="5.41843">
        <ele>1310.2</ele>
        <time>2023-07-24T09:06:32Z</time>
      </trkpt>
      <trkpt lat="44.42495" lon="5.41842">
        <ele>1310.2</ele>
        <time>2023-07-24T09:07:27Z</time>
      </trkpt>
      <trkpt lat="44.42495" lon="5.41842">
        <ele>1310.3</ele>
        <time>2023-07-24T09:07:28Z</time>
      </trkpt>
      <trkpt lat="44.42495" lon="5.41841">
        <ele>1310.3</ele>
        <time>2023-07-24T09:07:29Z</time>
      </trkpt>
      <trkpt lat="44.42495" lon="5.4184">
        <ele>1310.4</ele>
        <time>2023-07-24T09:07:30Z</time>
      </trkpt>
      <trkpt lat="44.42495" lon="5.41839">
        <ele>1310.5</ele>
        <time>2023-07-24T09:07:31Z</time>
      </trkpt>
      <trkpt lat="44.42496" lon="5.41838">
        <ele>1310.5</ele>
        <time>2023-07-24T09:07:32Z</time>
      </trkpt>
      <trkpt lat="44.42497" lon="5.4184">
        <ele>1310.7</ele>
        <time>2023-07-24T09:07:33Z</time>
      </trkpt>
      <trkpt lat="44.42498" lon="5.41843">
        <ele>1310.8</ele>
        <time>2023-07-24T09:07:34Z</time>
      </trkpt>
      <trkpt lat="44.42499" lon="5.41845">
        <ele>1311</ele>
        <time>2023-07-24T09:07:35Z</time>
      </trkpt>
      <trkpt lat="44.425" lon="5.41847">
        <ele>1311.2</ele>
        <time>2023-07-24T09:07:36Z</time>
      </trkpt>
      <trkpt lat="44.42501" lon="5.4185">
        <ele>1311.4</ele>
        <time>2023-07-24T09:07:37Z</time>
      </trkpt>
      <trkpt lat="44.42502" lon="5.41852">
        <ele>1311.5</ele>
        <time>2023-07-24T09:07:38Z</time>
      </trkpt>
      <trkpt lat="44.42503" lon="5.41855">
        <ele>1311.7</ele>
        <time>2023-07-24T09:07:39Z</time>
      </trkpt>
      <trkpt lat="44.42504" lon="5.41857">
        <ele>1311.9</ele>
        <time>2023-07-24T09:07:42Z</time>
      </trkpt>
      <trkpt lat="44.42505" lon="5.41859">
        <ele>1312.1</ele>
        <time>2023-07-24T09:07:44Z</time>
      </trkpt>
      <trkpt lat="44.42506" lon="5.41862">
        <ele>1312.3</ele>
        <time>2023-07-24T09:08:38Z</time>
      </trkpt>
      <trkpt lat="44.42507" lon="5.41864">
        <ele>1312.5</ele>
        <time>2023-07-24T09:08:39Z</time>
      </trkpt>
      <trkpt lat="44.42508" lon="5.41867">
        <ele>1312.7</ele>
        <time>2023-07-24T09:08:40Z</time>
      </trkpt>
      <trkpt lat="44.42511" lon="5.4187">
        <ele>1313.1</ele>
        <time>2023-07-24T09:08:41Z</time>
      </trkpt>
      <trkpt lat="44.42512" lon="5.41871">
        <ele>1313.2</ele>
        <time>2023-07-24T09:08:42Z</time>
      </trkpt>
      <trkpt lat="44.42514" lon="5.41874">
        <ele>1313.5</ele>
        <time>2023-07-24T09:08:43Z</time>
      </trkpt>
      <trkpt lat="44.42515" lon="5.41877">
        <ele>1313.9</ele>
        <time>2023-07-24T09:08:44Z</time>
      </trkpt>
      <trkpt lat="44.42518" lon="5.41881">
        <ele>1314.4</ele>
        <time>2023-07-24T09:08:45Z</time>
      </trkpt>
      <trkpt lat="44.42519" lon="5.41883">
        <ele>1314.6</ele>
        <time>2023-07-24T09:08:46Z</time>
      </trkpt>
      <trkpt lat="44.4252" lon="5.41887">
        <ele>1315.2</ele>
        <time>2023-07-24T09:08:47Z</time>
      </trkpt>
      <trkpt lat="44.42521" lon="5.41889">
        <ele>1315.4</ele>
        <time>2023-07-24T09:08:48Z</time>
      </trkpt>
      <trkpt lat="44.42523" lon="5.41892">
        <ele>1315.9</ele>
        <time>2023-07-24T09:08:49Z</time>
      </trkpt>
      <trkpt lat="44.42524" lon="5.41895">
        <ele>1316.3</ele>
        <time>2023-07-24T09:08:50Z</time>
      </trkpt>
      <trkpt lat="44.42525" lon="5.41899">
        <ele>1316.8</ele>
        <time>2023-07-24T09:08:51Z</time>
      </trkpt>
      <trkpt lat="44.42527" lon="5.41903">
        <ele>1317.3</ele>
        <time>2023-07-24T09:08:52Z</time>
      </trkpt>
      <trkpt lat="44.42529" lon="5.41907">
        <ele>1317.8</ele>
        <time>2023-07-24T09:08:53Z</time>
      </trkpt>
      <trkpt lat="44.4253" lon="5.41911">
        <ele>1318.3</ele>
        <time>2023-07-24T09:08:54Z</time>
      </trkpt>
      <trkpt lat="44.42532" lon="5.41915">
        <ele>1318.8</ele>
        <time>2023-07-24T09:08:55Z</time>
      </trkpt>
      <trkpt lat="44.42533" lon="5.41916">
        <ele>1319</ele>
        <time>2023-07-24T09:08:56Z</time>
      </trkpt>
      <trkpt lat="44.42535" lon="5.41919">
        <ele>1319.4</ele>
        <time>2023-07-24T09:08:57Z</time>
      </trkpt>
      <trkpt lat="44.42535" lon="5.4192">
        <ele>1319.5</ele>
        <time>2023-07-24T09:08:58Z</time>
      </trkpt>
      <trkpt lat="44.42538" lon="5.41923">
        <ele>1319.9</ele>
        <time>2023-07-24T09:08:59Z</time>
      </trkpt>
      <trkpt lat="44.42538" lon="5.41924">
        <ele>1320.1</ele>
        <time>2023-07-24T09:09:00Z</time>
      </trkpt>
      <trkpt lat="44.42541" lon="5.41927">
        <ele>1320.4</ele>
        <time>2023-07-24T09:09:01Z</time>
      </trkpt>
      <trkpt lat="44.42541" lon="5.41928">
        <ele>1320.5</ele>
        <time>2023-07-24T09:09:02Z</time>
      </trkpt>
      <trkpt lat="44.42543" lon="5.4193">
        <ele>1320.7</ele>
        <time>2023-07-24T09:09:03Z</time>
      </trkpt>
      <trkpt lat="44.42544" lon="5.41932">
        <ele>1320.9</ele>
        <time>2023-07-24T09:09:04Z</time>
      </trkpt>
      <trkpt lat="44.42545" lon="5.41936">
        <ele>1321.3</ele>
        <time>2023-07-24T09:09:05Z</time>
      </trkpt>
      <trkpt lat="44.42546" lon="5.41937">
        <ele>1321.4</ele>
        <time>2023-07-24T09:09:06Z</time>
      </trkpt>
      <trkpt lat="44.42549" lon="5.4194">
        <ele>1321.8</ele>
        <time>2023-07-24T09:09:07Z</time>
      </trkpt>
      <trkpt lat="44.42549" lon="5.41941">
        <ele>1321.9</ele>
        <time>2023-07-24T09:09:08Z</time>
      </trkpt>
      <trkpt lat="44.42552" lon="5.41944">
        <ele>1322.3</ele>
        <time>2023-07-24T09:09:09Z</time>
      </trkpt>
      <trkpt lat="44.42553" lon="5.41944">
        <ele>1322.4</ele>
        <time>2023-07-24T09:09:10Z</time>
      </trkpt>
      <trkpt lat="44.42555" lon="5.41947">
        <ele>1322.8</ele>
        <time>2023-07-24T09:09:11Z</time>
      </trkpt>
      <trkpt lat="44.42556" lon="5.41948">
        <ele>1322.9</ele>
        <time>2023-07-24T09:09:12Z</time>
      </trkpt>
      <trkpt lat="44.42558" lon="5.4195">
        <ele>1323.2</ele>
        <time>2023-07-24T09:09:13Z</time>
      </trkpt>
      <trkpt lat="44.42558" lon="5.41951">
        <ele>1323.3</ele>
        <time>2023-07-24T09:09:14Z</time>
      </trkpt>
      <trkpt lat="44.42561" lon="5.41954">
        <ele>1323.7</ele>
        <time>2023-07-24T09:09:15Z</time>
      </trkpt>
      <trkpt lat="44.42561" lon="5.41955">
        <ele>1323.8</ele>
        <time>2023-07-24T09:09:16Z</time>
      </trkpt>
      <trkpt lat="44.42564" lon="5.41958">
        <ele>1324.2</ele>
        <time>2023-07-24T09:09:17Z</time>
      </trkpt>
      <trkpt lat="44.42565" lon="5.41959">
        <ele>1324.3</ele>
        <time>2023-07-24T09:09:18Z</time>
      </trkpt>
      <trkpt lat="44.42567" lon="5.41962">
        <ele>1324.7</ele>
        <time>2023-07-24T09:09:19Z</time>
      </trkpt>
      <trkpt lat="44.42568" lon="5.41963">
        <ele>1324.8</ele>
        <time>2023-07-24T09:09:20Z</time>
      </trkpt>
      <trkpt lat="44.42571" lon="5.41966">
        <ele>1325.2</ele>
        <time>2023-07-24T09:09:21Z</time>
      </trkpt>
      <trkpt lat="44.42571" lon="5.41966">
        <ele>1325.3</ele>
        <time>2023-07-24T09:09:22Z</time>
      </trkpt>
      <trkpt lat="44.42574" lon="5.41969">
        <ele>1325.6</ele>
        <time>2023-07-24T09:09:23Z</time>
      </trkpt>
      <trkpt lat="44.42575" lon="5.4197">
        <ele>1325.7</ele>
        <time>2023-07-24T09:09:24Z</time>
      </trkpt>
      <trkpt lat="44.42576" lon="5.41973">
        <ele>1325.9</ele>
        <time>2023-07-24T09:09:25Z</time>
      </trkpt>
      <trkpt lat="44.42577" lon="5.41974">
        <ele>1326</ele>
        <time>2023-07-24T09:09:26Z</time>
      </trkpt>
      <trkpt lat="44.42579" lon="5.41977">
        <ele>1326.2</ele>
        <time>2023-07-24T09:09:27Z</time>
      </trkpt>
      <trkpt lat="44.42579" lon="5.41978">
        <ele>1326.3</ele>
        <time>2023-07-24T09:09:28Z</time>
      </trkpt>
      <trkpt lat="44.42581" lon="5.41982">
        <ele>1326.5</ele>
        <time>2023-07-24T09:09:29Z</time>
      </trkpt>
      <trkpt lat="44.42581" lon="5.41984">
        <ele>1326.6</ele>
        <time>2023-07-24T09:09:30Z</time>
      </trkpt>
      <trkpt lat="44.42583" lon="5.41988">
        <ele>1326.8</ele>
        <time>2023-07-24T09:09:31Z</time>
      </trkpt>
      <trkpt lat="44.42583" lon="5.41989">
        <ele>1326.9</ele>
        <time>2023-07-24T09:09:32Z</time>
      </trkpt>
      <trkpt lat="44.42585" lon="5.41992">
        <ele>1327</ele>
        <time>2023-07-24T09:09:33Z</time>
      </trkpt>
      <trkpt lat="44.42586" lon="5.41993">
        <ele>1327.1</ele>
        <time>2023-07-24T09:09:34Z</time>
      </trkpt>
      <trkpt lat="44.42586" lon="5.41994">
        <ele>1327.1</ele>
        <time>2023-07-24T09:09:35Z</time>
      </trkpt>
      <trkpt lat="44.42587" lon="5.41996">
        <ele>1327.2</ele>
        <time>2023-07-24T09:09:36Z</time>
      </trkpt>
      <trkpt lat="44.42587" lon="5.41996">
        <ele>1327.2</ele>
        <time>2023-07-24T09:09:37Z</time>
      </trkpt>
      <trkpt lat="44.42587" lon="5.41996">
        <ele>1327.2</ele>
        <time>2023-07-24T09:09:38Z</time>
      </trkpt>
      <trkpt lat="44.42587" lon="5.41996">
        <ele>1327.2</ele>
        <time>2023-07-24T09:09:39Z</time>
      </trkpt>
      <trkpt lat="44.42587" lon="5.41996">
        <ele>1327.2</ele>
        <time>2023-07-24T09:09:40Z</time>
      </trkpt>
      <trkpt lat="44.42587" lon="5.41995">
        <ele>1327.2</ele>
        <time>2023-07-24T09:09:41Z</time>
      </trkpt>
      <trkpt lat="44.42587" lon="5.41995">
        <ele>1327.2</ele>
        <time>2023-07-24T09:09:42Z</time>
      </trkpt>
      <trkpt lat="44.42588" lon="5.41996">
        <ele>1327.3</ele>
        <time>2023-07-24T09:09:43Z</time>
      </trkpt>
      <trkpt lat="44.42589" lon="5.41996">
        <ele>1327.3</ele>
        <time>2023-07-24T09:09:44Z</time>
      </trkpt>
      <trkpt lat="44.42589" lon="5.41997">
        <ele>1327.3</ele>
        <time>2023-07-24T09:09:45Z</time>
      </trkpt>
      <trkpt lat="44.4259" lon="5.41997">
        <ele>1327.4</ele>
        <time>2023-07-24T09:09:46Z</time>
      </trkpt>
      <trkpt lat="44.4259" lon="5.41998">
        <ele>1327.4</ele>
        <time>2023-07-24T09:09:47Z</time>
      </trkpt>
      <trkpt lat="44.42591" lon="5.41998">
        <ele>1327.4</ele>
        <time>2023-07-24T09:09:48Z</time>
      </trkpt>
      <trkpt lat="44.42591" lon="5.41999">
        <ele>1327.4</ele>
        <time>2023-07-24T09:09:49Z</time>
      </trkpt>
      <trkpt lat="44.42591" lon="5.41999">
        <ele>1327.4</ele>
        <time>2023-07-24T09:09:50Z</time>
      </trkpt>
      <trkpt lat="44.42592" lon="5.41999">
        <ele>1327.5</ele>
        <time>2023-07-24T09:09:51Z</time>
      </trkpt>
      <trkpt lat="44.42594" lon="5.42003">
        <ele>1327.6</ele>
        <time>2023-07-24T09:09:52Z</time>
      </trkpt>
      <trkpt lat="44.42596" lon="5.42006">
        <ele>1327.7</ele>
        <time>2023-07-24T09:09:53Z</time>
      </trkpt>
      <trkpt lat="44.42597" lon="5.42007">
        <ele>1327.7</ele>
        <time>2023-07-24T09:09:54Z</time>
      </trkpt>
      <trkpt lat="44.42598" lon="5.42009">
        <ele>1327.7</ele>
        <time>2023-07-24T09:09:55Z</time>
      </trkpt>
      <trkpt lat="44.426" lon="5.4201">
        <ele>1327.8</ele>
        <time>2023-07-24T09:09:56Z</time>
      </trkpt>
      <trkpt lat="44.42602" lon="5.42013">
        <ele>1327.8</ele>
        <time>2023-07-24T09:09:57Z</time>
      </trkpt>
      <trkpt lat="44.42603" lon="5.42014">
        <ele>1327.8</ele>
        <time>2023-07-24T09:09:58Z</time>
      </trkpt>
      <trkpt lat="44.42606" lon="5.42016">
        <ele>1327.8</ele>
        <time>2023-07-24T09:09:59Z</time>
      </trkpt>
      <trkpt lat="44.42607" lon="5.42017">
        <ele>1327.8</ele>
        <time>2023-07-24T09:10:00Z</time>
      </trkpt>
      <trkpt lat="44.42608" lon="5.4202">
        <ele>1327.8</ele>
        <time>2023-07-24T09:10:01Z</time>
      </trkpt>
      <trkpt lat="44.42609" lon="5.42022">
        <ele>1327.8</ele>
        <time>2023-07-24T09:10:02Z</time>
      </trkpt>
      <trkpt lat="44.4261" lon="5.42027">
        <ele>1327.7</ele>
        <time>2023-07-24T09:10:03Z</time>
      </trkpt>
      <trkpt lat="44.4261" lon="5.42028">
        <ele>1327.7</ele>
        <time>2023-07-24T09:10:04Z</time>
      </trkpt>
      <trkpt lat="44.42612" lon="5.42033">
        <ele>1327.7</ele>
        <time>2023-07-24T09:10:05Z</time>
      </trkpt>
      <trkpt lat="44.42613" lon="5.42034">
        <ele>1327.7</ele>
        <time>2023-07-24T09:10:06Z</time>
      </trkpt>
      <trkpt lat="44.42615" lon="5.42039">
        <ele>1327.7</ele>
        <time>2023-07-24T09:10:07Z</time>
      </trkpt>
      <trkpt lat="44.42616" lon="5.4204">
        <ele>1327.7</ele>
        <time>2023-07-24T09:10:08Z</time>
      </trkpt>
      <trkpt lat="44.42618" lon="5.42043">
        <ele>1327.7</ele>
        <time>2023-07-24T09:10:09Z</time>
      </trkpt>
      <trkpt lat="44.4262" lon="5.42046">
        <ele>1327.7</ele>
        <time>2023-07-24T09:10:10Z</time>
      </trkpt>
      <trkpt lat="44.42622" lon="5.4205">
        <ele>1327.7</ele>
        <time>2023-07-24T09:10:11Z</time>
      </trkpt>
      <trkpt lat="44.42623" lon="5.42051">
        <ele>1327.7</ele>
        <time>2023-07-24T09:10:12Z</time>
      </trkpt>
      <trkpt lat="44.42625" lon="5.42054">
        <ele>1327.8</ele>
        <time>2023-07-24T09:10:13Z</time>
      </trkpt>
      <trkpt lat="44.42626" lon="5.42055">
        <ele>1327.8</ele>
        <time>2023-07-24T09:10:14Z</time>
      </trkpt>
      <trkpt lat="44.42627" lon="5.42059">
        <ele>1328</ele>
        <time>2023-07-24T09:10:15Z</time>
      </trkpt>
      <trkpt lat="44.42628" lon="5.4206">
        <ele>1328</ele>
        <time>2023-07-24T09:10:16Z</time>
      </trkpt>
      <trkpt lat="44.4263" lon="5.42064">
        <ele>1328.2</ele>
        <time>2023-07-24T09:10:17Z</time>
      </trkpt>
      <trkpt lat="44.4263" lon="5.42065">
        <ele>1328.3</ele>
        <time>2023-07-24T09:10:18Z</time>
      </trkpt>
      <trkpt lat="44.42632" lon="5.42068">
        <ele>1328.5</ele>
        <time>2023-07-24T09:10:19Z</time>
      </trkpt>
      <trkpt lat="44.42635" lon="5.4207">
        <ele>1328.7</ele>
        <time>2023-07-24T09:10:20Z</time>
      </trkpt>
      <trkpt lat="44.42638" lon="5.42071">
        <ele>1328.9</ele>
        <time>2023-07-24T09:10:21Z</time>
      </trkpt>
      <trkpt lat="44.42639" lon="5.42071">
        <ele>1329</ele>
        <time>2023-07-24T09:10:22Z</time>
      </trkpt>
      <trkpt lat="44.42641" lon="5.42074">
        <ele>1329.3</ele>
        <time>2023-07-24T09:10:23Z</time>
      </trkpt>
      <trkpt lat="44.42641" lon="5.42075">
        <ele>1329.4</ele>
        <time>2023-07-24T09:10:24Z</time>
      </trkpt>
      <trkpt lat="44.42643" lon="5.42079">
        <ele>1329.7</ele>
        <time>2023-07-24T09:10:25Z</time>
      </trkpt>
      <trkpt lat="44.42644" lon="5.4208">
        <ele>1329.8</ele>
        <time>2023-07-24T09:10:26Z</time>
      </trkpt>
      <trkpt lat="44.42646" lon="5.42083">
        <ele>1330.2</ele>
        <time>2023-07-24T09:10:27Z</time>
      </trkpt>
      <trkpt lat="44.42646" lon="5.42085">
        <ele>1330.3</ele>
        <time>2023-07-24T09:10:28Z</time>
      </trkpt>
      <trkpt lat="44.42649" lon="5.42089">
        <ele>1330.8</ele>
        <time>2023-07-24T09:10:29Z</time>
      </trkpt>
      <trkpt lat="44.42649" lon="5.4209">
        <ele>1330.9</ele>
        <time>2023-07-24T09:10:30Z</time>
      </trkpt>
      <trkpt lat="44.4265" lon="5.42094">
        <ele>1331.3</ele>
        <time>2023-07-24T09:10:31Z</time>
      </trkpt>
      <trkpt lat="44.42651" lon="5.42095">
        <ele>1331.4</ele>
        <time>2023-07-24T09:10:32Z</time>
      </trkpt>
      <trkpt lat="44.42651" lon="5.42096">
        <ele>1331.5</ele>
        <time>2023-07-24T09:10:33Z</time>
      </trkpt>
      <trkpt lat="44.42652" lon="5.42097">
        <ele>1331.6</ele>
        <time>2023-07-24T09:10:34Z</time>
      </trkpt>
      <trkpt lat="44.42652" lon="5.42097">
        <ele>1331.7</ele>
        <time>2023-07-24T09:10:35Z</time>
      </trkpt>
      <trkpt lat="44.42652" lon="5.42098">
        <ele>1331.7</ele>
        <time>2023-07-24T09:10:36Z</time>
      </trkpt>
      <trkpt lat="44.42653" lon="5.42099">
        <ele>1331.8</ele>
        <time>2023-07-24T09:10:37Z</time>
      </trkpt>
      <trkpt lat="44.42653" lon="5.42099">
        <ele>1331.9</ele>
        <time>2023-07-24T09:10:38Z</time>
      </trkpt>
      <trkpt lat="44.42656" lon="5.42103">
        <ele>1332.3</ele>
        <time>2023-07-24T09:10:39Z</time>
      </trkpt>
      <trkpt lat="44.42656" lon="5.42105">
        <ele>1332.5</ele>
        <time>2023-07-24T09:10:40Z</time>
      </trkpt>
      <trkpt lat="44.42658" lon="5.42107">
        <ele>1332.8</ele>
        <time>2023-07-24T09:10:41Z</time>
      </trkpt>
      <trkpt lat="44.42659" lon="5.42108">
        <ele>1332.9</ele>
        <time>2023-07-24T09:10:42Z</time>
      </trkpt>
      <trkpt lat="44.42659" lon="5.42109">
        <ele>1333</ele>
        <time>2023-07-24T09:10:43Z</time>
      </trkpt>
      <trkpt lat="44.42659" lon="5.4211">
        <ele>1333.1</ele>
        <time>2023-07-24T09:10:44Z</time>
      </trkpt>
      <trkpt lat="44.4266" lon="5.4211">
        <ele>1333.2</ele>
        <time>2023-07-24T09:10:45Z</time>
      </trkpt>
      <trkpt lat="44.4266" lon="5.42111">
        <ele>1333.3</ele>
        <time>2023-07-24T09:10:46Z</time>
      </trkpt>
      <trkpt lat="44.4266" lon="5.42112">
        <ele>1333.4</ele>
        <time>2023-07-24T09:10:47Z</time>
      </trkpt>
      <trkpt lat="44.42661" lon="5.42113">
        <ele>1333.5</ele>
        <time>2023-07-24T09:10:48Z</time>
      </trkpt>
      <trkpt lat="44.42661" lon="5.42114">
        <ele>1333.6</ele>
        <time>2023-07-24T09:10:49Z</time>
      </trkpt>
      <trkpt lat="44.42661" lon="5.42114">
        <ele>1333.7</ele>
        <time>2023-07-24T09:10:50Z</time>
      </trkpt>
      <trkpt lat="44.42661" lon="5.42115">
        <ele>1333.8</ele>
        <time>2023-07-24T09:10:51Z</time>
      </trkpt>
      <trkpt lat="44.42662" lon="5.42116">
        <ele>1333.9</ele>
        <time>2023-07-24T09:10:52Z</time>
      </trkpt>
      <trkpt lat="44.42662" lon="5.42117">
        <ele>1334</ele>
        <time>2023-07-24T09:10:53Z</time>
      </trkpt>
      <trkpt lat="44.42662" lon="5.42118">
        <ele>1334.1</ele>
        <time>2023-07-24T09:11:05Z</time>
      </trkpt>
      <trkpt lat="44.42663" lon="5.42119">
        <ele>1334.2</ele>
        <time>2023-07-24T09:11:06Z</time>
      </trkpt>
      <trkpt lat="44.42663" lon="5.42119">
        <ele>1334.3</ele>
        <time>2023-07-24T09:11:07Z</time>
      </trkpt>
      <trkpt lat="44.42666" lon="5.42122">
        <ele>1334.9</ele>
        <time>2023-07-24T09:11:08Z</time>
      </trkpt>
      <trkpt lat="44.42667" lon="5.42123">
        <ele>1335.1</ele>
        <time>2023-07-24T09:11:09Z</time>
      </trkpt>
      <trkpt lat="44.42669" lon="5.42127">
        <ele>1335.8</ele>
        <time>2023-07-24T09:11:10Z</time>
      </trkpt>
      <trkpt lat="44.4267" lon="5.42129">
        <ele>1336</ele>
        <time>2023-07-24T09:11:11Z</time>
      </trkpt>
      <trkpt lat="44.42671" lon="5.42134">
        <ele>1336.7</ele>
        <time>2023-07-24T09:11:12Z</time>
      </trkpt>
      <trkpt lat="44.42671" lon="5.42135">
        <ele>1337</ele>
        <time>2023-07-24T09:11:13Z</time>
      </trkpt>
      <trkpt lat="44.42672" lon="5.42139">
        <ele>1337.7</ele>
        <time>2023-07-24T09:11:14Z</time>
      </trkpt>
      <trkpt lat="44.42673" lon="5.42143">
        <ele>1338.4</ele>
        <time>2023-07-24T09:11:15Z</time>
      </trkpt>
      <trkpt lat="44.42674" lon="5.42143">
        <ele>1338.5</ele>
        <time>2023-07-24T09:11:17Z</time>
      </trkpt>
      <trkpt lat="44.42674" lon="5.42142">
        <ele>1338.7</ele>
        <time>2023-07-24T09:11:18Z</time>
      </trkpt>
      <trkpt lat="44.42674" lon="5.42141">
        <ele>1338.9</ele>
        <time>2023-07-24T09:11:19Z</time>
      </trkpt>
      <trkpt lat="44.42674" lon="5.42141">
        <ele>1339.1</ele>
        <time>2023-07-24T09:11:20Z</time>
      </trkpt>
      <trkpt lat="44.42673" lon="5.4214">
        <ele>1339.2</ele>
        <time>2023-07-24T09:11:21Z</time>
      </trkpt>
      <trkpt lat="44.42673" lon="5.4214">
        <ele>1339.2</ele>
        <time>2023-07-24T09:11:22Z</time>
      </trkpt>
      <trkpt lat="44.42673" lon="5.42139">
        <ele>1339.3</ele>
        <time>2023-07-24T09:11:23Z</time>
      </trkpt>
      <trkpt lat="44.42673" lon="5.42139">
        <ele>1339.3</ele>
        <time>2023-07-24T09:11:24Z</time>
      </trkpt>
      <trkpt lat="44.42673" lon="5.42139">
        <ele>1339.3</ele>
        <time>2023-07-24T09:11:26Z</time>
      </trkpt>
      <trkpt lat="44.42673" lon="5.42139">
        <ele>1339.3</ele>
        <time>2023-07-24T09:11:27Z</time>
      </trkpt>
      <trkpt lat="44.42674" lon="5.42139">
        <ele>1339.4</ele>
        <time>2023-07-24T09:11:28Z</time>
      </trkpt>
      <trkpt lat="44.42674" lon="5.42139">
        <ele>1339.4</ele>
        <time>2023-07-24T09:11:29Z</time>
      </trkpt>
      <trkpt lat="44.42674" lon="5.42139">
        <ele>1339.5</ele>
        <time>2023-07-24T09:11:30Z</time>
      </trkpt>
      <trkpt lat="44.42676" lon="5.42142">
        <ele>1340.3</ele>
        <time>2023-07-24T09:11:46Z</time>
      </trkpt>
      <trkpt lat="44.42676" lon="5.42143">
        <ele>1340.4</ele>
        <time>2023-07-24T09:11:47Z</time>
      </trkpt>
      <trkpt lat="44.42676" lon="5.42143">
        <ele>1340.5</ele>
        <time>2023-07-24T09:11:48Z</time>
      </trkpt>
      <trkpt lat="44.42676" lon="5.42142">
        <ele>1340.5</ele>
        <time>2023-07-24T09:11:49Z</time>
      </trkpt>
      <trkpt lat="44.42676" lon="5.42142">
        <ele>1340.6</ele>
        <time>2023-07-24T09:11:50Z</time>
      </trkpt>
      <trkpt lat="44.42677" lon="5.42142">
        <ele>1340.6</ele>
        <time>2023-07-24T09:11:51Z</time>
      </trkpt>
      <trkpt lat="44.42677" lon="5.42142">
        <ele>1340.6</ele>
        <time>2023-07-24T09:11:52Z</time>
      </trkpt>
      <trkpt lat="44.42677" lon="5.42142">
        <ele>1340.6</ele>
        <time>2023-07-24T09:11:53Z</time>
      </trkpt>
      <trkpt lat="44.42677" lon="5.42142">
        <ele>1340.6</ele>
        <time>2023-07-24T09:11:54Z</time>
      </trkpt>
      <trkpt lat="44.42677" lon="5.42142">
        <ele>1340.6</ele>
        <time>2023-07-24T09:11:55Z</time>
      </trkpt>
      <trkpt lat="44.42677" lon="5.42142">
        <ele>1340.6</ele>
        <time>2023-07-24T09:11:56Z</time>
      </trkpt>
      <trkpt lat="44.42677" lon="5.42142">
        <ele>1340.6</ele>
        <time>2023-07-24T09:11:57Z</time>
      </trkpt>
      <trkpt lat="44.42683" lon="5.4215">
        <ele>1342.9</ele>
        <time>2023-07-24T09:12:27Z</time>
      </trkpt>
      <trkpt lat="44.42684" lon="5.42151">
        <ele>1343.2</ele>
        <time>2023-07-24T09:12:28Z</time>
      </trkpt>
      <trkpt lat="44.42684" lon="5.42152">
        <ele>1343.5</ele>
        <time>2023-07-24T09:12:29Z</time>
      </trkpt>
      <trkpt lat="44.42685" lon="5.42153">
        <ele>1343.7</ele>
        <time>2023-07-24T09:12:30Z</time>
      </trkpt>
      <trkpt lat="44.42685" lon="5.42155">
        <ele>1344</ele>
        <time>2023-07-24T09:12:31Z</time>
      </trkpt>
      <trkpt lat="44.42685" lon="5.42155">
        <ele>1344.2</ele>
        <time>2023-07-24T09:12:32Z</time>
      </trkpt>
      <trkpt lat="44.42685" lon="5.42156">
        <ele>1344.3</ele>
        <time>2023-07-24T09:12:33Z</time>
      </trkpt>
      <trkpt lat="44.42685" lon="5.42156">
        <ele>1344.3</ele>
        <time>2023-07-24T09:12:34Z</time>
      </trkpt>
      <trkpt lat="44.42685" lon="5.42156">
        <ele>1344.3</ele>
        <time>2023-07-24T09:12:35Z</time>
      </trkpt>
      <trkpt lat="44.42685" lon="5.42156">
        <ele>1344.3</ele>
        <time>2023-07-24T09:12:36Z</time>
      </trkpt>
      <trkpt lat="44.42685" lon="5.42156">
        <ele>1344.3</ele>
        <time>2023-07-24T09:12:37Z</time>
      </trkpt>
      <trkpt lat="44.42685" lon="5.42156">
        <ele>1344.3</ele>
        <time>2023-07-24T09:12:38Z</time>
      </trkpt>
      <trkpt lat="44.42685" lon="5.42156">
        <ele>1344.3</ele>
        <time>2023-07-24T09:12:39Z</time>
      </trkpt>
      <trkpt lat="44.42685" lon="5.42156">
        <ele>1344.3</ele>
        <time>2023-07-24T09:12:40Z</time>
      </trkpt>
      <trkpt lat="44.42685" lon="5.42156">
        <ele>1344.3</ele>
        <time>2023-07-24T09:12:41Z</time>
      </trkpt>
      <trkpt lat="44.42685" lon="5.42156">
        <ele>1344.3</ele>
        <time>2023-07-24T09:12:42Z</time>
      </trkpt>
      <trkpt lat="44.42685" lon="5.42156">
        <ele>1344.3</ele>
        <time>2023-07-24T09:12:43Z</time>
      </trkpt>
      <trkpt lat="44.42688" lon="5.42159">
        <ele>1345.3</ele>
        <time>2023-07-24T09:12:49Z</time>
      </trkpt>
      <trkpt lat="44.42688" lon="5.4216">
        <ele>1345.4</ele>
        <time>2023-07-24T09:12:50Z</time>
      </trkpt>
      <trkpt lat="44.42689" lon="5.4216">
        <ele>1345.5</ele>
        <time>2023-07-24T09:12:51Z</time>
      </trkpt>
      <trkpt lat="44.42689" lon="5.4216">
        <ele>1345.6</ele>
        <time>2023-07-24T09:12:52Z</time>
      </trkpt>
      <trkpt lat="44.42689" lon="5.4216">
        <ele>1345.6</ele>
        <time>2023-07-24T09:12:53Z</time>
      </trkpt>
      <trkpt lat="44.42689" lon="5.4216">
        <ele>1345.6</ele>
        <time>2023-07-24T09:12:54Z</time>
      </trkpt>
      <trkpt lat="44.42689" lon="5.4216">
        <ele>1345.6</ele>
        <time>2023-07-24T09:12:55Z</time>
      </trkpt>
      <trkpt lat="44.42689" lon="5.4216">
        <ele>1345.6</ele>
        <time>2023-07-24T09:12:56Z</time>
      </trkpt>
      <trkpt lat="44.42689" lon="5.4216">
        <ele>1345.6</ele>
        <time>2023-07-24T09:12:57Z</time>
      </trkpt>
      <trkpt lat="44.42689" lon="5.4216">
        <ele>1345.6</ele>
        <time>2023-07-24T09:12:58Z</time>
      </trkpt>
      <trkpt lat="44.42689" lon="5.4216">
        <ele>1345.6</ele>
        <time>2023-07-24T09:12:59Z</time>
      </trkpt>
      <trkpt lat="44.42689" lon="5.4216">
        <ele>1345.6</ele>
        <time>2023-07-24T09:13:00Z</time>
      </trkpt>
      <trkpt lat="44.42689" lon="5.4216">
        <ele>1345.6</ele>
        <time>2023-07-24T09:13:01Z</time>
      </trkpt>
      <trkpt lat="44.42689" lon="5.4216">
        <ele>1345.6</ele>
        <time>2023-07-24T09:13:02Z</time>
      </trkpt>
      <trkpt lat="44.42689" lon="5.4216">
        <ele>1345.6</ele>
        <time>2023-07-24T09:13:03Z</time>
      </trkpt>
      <trkpt lat="44.42691" lon="5.42159">
        <ele>1346.1</ele>
        <time>2023-07-24T09:13:10Z</time>
      </trkpt>
      <trkpt lat="44.42691" lon="5.42159">
        <ele>1346.2</ele>
        <time>2023-07-24T09:13:11Z</time>
      </trkpt>
      <trkpt lat="44.42691" lon="5.42159">
        <ele>1346.2</ele>
        <time>2023-07-24T09:13:12Z</time>
      </trkpt>
      <trkpt lat="44.42692" lon="5.42159">
        <ele>1346.3</ele>
        <time>2023-07-24T09:13:13Z</time>
      </trkpt>
      <trkpt lat="44.42693" lon="5.4216">
        <ele>1346.5</ele>
        <time>2023-07-24T09:13:14Z</time>
      </trkpt>
      <trkpt lat="44.42693" lon="5.4216">
        <ele>1346.6</ele>
        <time>2023-07-24T09:13:15Z</time>
      </trkpt>
      <trkpt lat="44.42694" lon="5.4216">
        <ele>1346.8</ele>
        <time>2023-07-24T09:13:16Z</time>
      </trkpt>
      <trkpt lat="44.42695" lon="5.42161">
        <ele>1347</ele>
        <time>2023-07-24T09:13:17Z</time>
      </trkpt>
      <trkpt lat="44.42695" lon="5.42161">
        <ele>1347.1</ele>
        <time>2023-07-24T09:13:18Z</time>
      </trkpt>
      <trkpt lat="44.42696" lon="5.42162">
        <ele>1347.3</ele>
        <time>2023-07-24T09:13:19Z</time>
      </trkpt>
      <trkpt lat="44.42696" lon="5.42163">
        <ele>1347.4</ele>
        <time>2023-07-24T09:13:20Z</time>
      </trkpt>
      <trkpt lat="44.42697" lon="5.42163">
        <ele>1347.5</ele>
        <time>2023-07-24T09:13:21Z</time>
      </trkpt>
      <trkpt lat="44.42697" lon="5.42164">
        <ele>1347.7</ele>
        <time>2023-07-24T09:13:22Z</time>
      </trkpt>
      <trkpt lat="44.42698" lon="5.42164">
        <ele>1347.7</ele>
        <time>2023-07-24T09:13:23Z</time>
      </trkpt>
      <trkpt lat="44.42698" lon="5.42164">
        <ele>1347.8</ele>
        <time>2023-07-24T09:13:24Z</time>
      </trkpt>
      <trkpt lat="44.42698" lon="5.42166">
        <ele>1348</ele>
        <time>2023-07-24T09:13:25Z</time>
      </trkpt>
      <trkpt lat="44.42697" lon="5.42168">
        <ele>1348.2</ele>
        <time>2023-07-24T09:13:26Z</time>
      </trkpt>
      <trkpt lat="44.42697" lon="5.4217">
        <ele>1348.5</ele>
        <time>2023-07-24T09:13:27Z</time>
      </trkpt>
      <trkpt lat="44.42696" lon="5.42172">
        <ele>1348.8</ele>
        <time>2023-07-24T09:13:28Z</time>
      </trkpt>
      <trkpt lat="44.42696" lon="5.42173">
        <ele>1349</ele>
        <time>2023-07-24T09:13:29Z</time>
      </trkpt>
      <trkpt lat="44.42696" lon="5.42174">
        <ele>1349.1</ele>
        <time>2023-07-24T09:13:30Z</time>
      </trkpt>
      <trkpt lat="44.42696" lon="5.42174">
        <ele>1349.2</ele>
        <time>2023-07-24T09:13:31Z</time>
      </trkpt>
      <trkpt lat="44.42696" lon="5.42174">
        <ele>1349.2</ele>
        <time>2023-07-24T09:13:32Z</time>
      </trkpt>
      <trkpt lat="44.42696" lon="5.42174">
        <ele>1349.2</ele>
        <time>2023-07-24T09:13:33Z</time>
      </trkpt>
      <trkpt lat="44.42696" lon="5.42174">
        <ele>1349.2</ele>
        <time>2023-07-24T09:13:34Z</time>
      </trkpt>
      <trkpt lat="44.42696" lon="5.42174">
        <ele>1349.2</ele>
        <time>2023-07-24T09:13:35Z</time>
      </trkpt>
      <trkpt lat="44.42696" lon="5.42174">
        <ele>1349.2</ele>
        <time>2023-07-24T09:13:36Z</time>
      </trkpt>
      <trkpt lat="44.42696" lon="5.42174">
        <ele>1349.2</ele>
        <time>2023-07-24T09:13:37Z</time>
      </trkpt>
      <trkpt lat="44.42697" lon="5.42174">
        <ele>1349.4</ele>
        <time>2023-07-24T09:13:38Z</time>
      </trkpt>
      <trkpt lat="44.42698" lon="5.42175">
        <ele>1349.5</ele>
        <time>2023-07-24T09:13:39Z</time>
      </trkpt>
      <trkpt lat="44.42698" lon="5.42176">
        <ele>1349.6</ele>
        <time>2023-07-24T09:13:40Z</time>
      </trkpt>
      <trkpt lat="44.42703" lon="5.42185">
        <ele>1351</ele>
        <time>2023-07-24T09:14:03Z</time>
      </trkpt>
      <trkpt lat="44.42703" lon="5.42185">
        <ele>1351.1</ele>
        <time>2023-07-24T09:14:04Z</time>
      </trkpt>
      <trkpt lat="44.42703" lon="5.42185">
        <ele>1351.1</ele>
        <time>2023-07-24T09:14:05Z</time>
      </trkpt>
      <trkpt lat="44.42702" lon="5.42186">
        <ele>1351.1</ele>
        <time>2023-07-24T09:14:06Z</time>
      </trkpt>
      <trkpt lat="44.42702" lon="5.42186">
        <ele>1351.2</ele>
        <time>2023-07-24T09:14:07Z</time>
      </trkpt>
      <trkpt lat="44.42702" lon="5.42186">
        <ele>1351.2</ele>
        <time>2023-07-24T09:14:08Z</time>
      </trkpt>
      <trkpt lat="44.42702" lon="5.42186">
        <ele>1351.3</ele>
        <time>2023-07-24T09:14:09Z</time>
      </trkpt>
      <trkpt lat="44.42701" lon="5.42186">
        <ele>1351.3</ele>
        <time>2023-07-24T09:14:10Z</time>
      </trkpt>
      <trkpt lat="44.42701" lon="5.42186">
        <ele>1351.3</ele>
        <time>2023-07-24T09:14:11Z</time>
      </trkpt>
      <trkpt lat="44.42702" lon="5.42186">
        <ele>1351.3</ele>
        <time>2023-07-24T09:14:12Z</time>
      </trkpt>
      <trkpt lat="44.42702" lon="5.42186">
        <ele>1351.4</ele>
        <time>2023-07-24T09:14:13Z</time>
      </trkpt>
      <trkpt lat="44.42702" lon="5.42186">
        <ele>1351.5</ele>
        <time>2023-07-24T09:14:14Z</time>
      </trkpt>
      <trkpt lat="44.42702" lon="5.42187">
        <ele>1351.5</ele>
        <time>2023-07-24T09:14:15Z</time>
      </trkpt>
      <trkpt lat="44.42702" lon="5.42187">
        <ele>1351.5</ele>
        <time>2023-07-24T09:14:16Z</time>
      </trkpt>
      <trkpt lat="44.42702" lon="5.42187">
        <ele>1351.6</ele>
        <time>2023-07-24T09:14:17Z</time>
      </trkpt>
      <trkpt lat="44.42702" lon="5.42187">
        <ele>1351.6</ele>
        <time>2023-07-24T09:14:18Z</time>
      </trkpt>
      <trkpt lat="44.42701" lon="5.42187">
        <ele>1351.6</ele>
        <time>2023-07-24T09:14:19Z</time>
      </trkpt>
      <trkpt lat="44.42701" lon="5.42187">
        <ele>1351.6</ele>
        <time>2023-07-24T09:14:20Z</time>
      </trkpt>
      <trkpt lat="44.42701" lon="5.42187">
        <ele>1351.6</ele>
        <time>2023-07-24T09:14:21Z</time>
      </trkpt>
      <trkpt lat="44.42701" lon="5.42187">
        <ele>1351.6</ele>
        <time>2023-07-24T09:14:22Z</time>
      </trkpt>
      <trkpt lat="44.42701" lon="5.42187">
        <ele>1351.6</ele>
        <time>2023-07-24T09:14:23Z</time>
      </trkpt>
      <trkpt lat="44.42702" lon="5.42187">
        <ele>1351.7</ele>
        <time>2023-07-24T09:14:24Z</time>
      </trkpt>
      <trkpt lat="44.42702" lon="5.42187">
        <ele>1351.8</ele>
        <time>2023-07-24T09:14:25Z</time>
      </trkpt>
      <trkpt lat="44.42703" lon="5.42188">
        <ele>1351.9</ele>
        <time>2023-07-24T09:14:26Z</time>
      </trkpt>
      <trkpt lat="44.42704" lon="5.42189">
        <ele>1352.1</ele>
        <time>2023-07-24T09:14:27Z</time>
      </trkpt>
      <trkpt lat="44.42704" lon="5.4219">
        <ele>1352.2</ele>
        <time>2023-07-24T09:14:28Z</time>
      </trkpt>
      <trkpt lat="44.42705" lon="5.42191">
        <ele>1352.3</ele>
        <time>2023-07-24T09:14:29Z</time>
      </trkpt>
      <trkpt lat="44.42705" lon="5.42191">
        <ele>1352.4</ele>
        <time>2023-07-24T09:14:30Z</time>
      </trkpt>
      <trkpt lat="44.42706" lon="5.42192">
        <ele>1352.5</ele>
        <time>2023-07-24T09:14:31Z</time>
      </trkpt>
      <trkpt lat="44.42706" lon="5.42192">
        <ele>1352.5</ele>
        <time>2023-07-24T09:14:32Z</time>
      </trkpt>
      <trkpt lat="44.42706" lon="5.42192">
        <ele>1352.5</ele>
        <time>2023-07-24T09:14:33Z</time>
      </trkpt>
      <trkpt lat="44.42707" lon="5.42193">
        <ele>1352.7</ele>
        <time>2023-07-24T09:14:34Z</time>
      </trkpt>
      <trkpt lat="44.42708" lon="5.42194">
        <ele>1352.9</ele>
        <time>2023-07-24T09:14:35Z</time>
      </trkpt>
      <trkpt lat="44.42709" lon="5.42195">
        <ele>1353</ele>
        <time>2023-07-24T09:14:36Z</time>
      </trkpt>
      <trkpt lat="44.4271" lon="5.42195">
        <ele>1353.1</ele>
        <time>2023-07-24T09:14:37Z</time>
      </trkpt>
      <trkpt lat="44.4271" lon="5.42196">
        <ele>1353.1</ele>
        <time>2023-07-24T09:14:38Z</time>
      </trkpt>
      <trkpt lat="44.4271" lon="5.42196">
        <ele>1353.1</ele>
        <time>2023-07-24T09:14:39Z</time>
      </trkpt>
      <trkpt lat="44.4271" lon="5.42196">
        <ele>1353.2</ele>
        <time>2023-07-24T09:14:40Z</time>
      </trkpt>
      <trkpt lat="44.4271" lon="5.42197">
        <ele>1353.2</ele>
        <time>2023-07-24T09:14:41Z</time>
      </trkpt>
      <trkpt lat="44.42711" lon="5.42198">
        <ele>1353.3</ele>
        <time>2023-07-24T09:14:42Z</time>
      </trkpt>
      <trkpt lat="44.42711" lon="5.42198">
        <ele>1353.4</ele>
        <time>2023-07-24T09:14:43Z</time>
      </trkpt>
      <trkpt lat="44.42711" lon="5.42199">
        <ele>1353.4</ele>
        <time>2023-07-24T09:14:44Z</time>
      </trkpt>
      <trkpt lat="44.42712" lon="5.422">
        <ele>1353.5</ele>
        <time>2023-07-24T09:14:45Z</time>
      </trkpt>
      <trkpt lat="44.42712" lon="5.42201">
        <ele>1353.6</ele>
        <time>2023-07-24T09:14:46Z</time>
      </trkpt>
      <trkpt lat="44.42713" lon="5.42202">
        <ele>1353.8</ele>
        <time>2023-07-24T09:14:47Z</time>
      </trkpt>
      <trkpt lat="44.42713" lon="5.42203">
        <ele>1353.9</ele>
        <time>2023-07-24T09:14:48Z</time>
      </trkpt>
      <trkpt lat="44.42713" lon="5.42205">
        <ele>1354</ele>
        <time>2023-07-24T09:14:49Z</time>
      </trkpt>
      <trkpt lat="44.42713" lon="5.42207">
        <ele>1354.2</ele>
        <time>2023-07-24T09:14:50Z</time>
      </trkpt>
      <trkpt lat="44.42713" lon="5.42209">
        <ele>1354.3</ele>
        <time>2023-07-24T09:14:51Z</time>
      </trkpt>
      <trkpt lat="44.42713" lon="5.42209">
        <ele>1354.3</ele>
        <time>2023-07-24T09:14:52Z</time>
      </trkpt>
      <trkpt lat="44.42713" lon="5.4221">
        <ele>1354.4</ele>
        <time>2023-07-24T09:14:53Z</time>
      </trkpt>
      <trkpt lat="44.42713" lon="5.4221">
        <ele>1354.4</ele>
        <time>2023-07-24T09:14:54Z</time>
      </trkpt>
      <trkpt lat="44.42714" lon="5.42211">
        <ele>1354.5</ele>
        <time>2023-07-24T09:14:55Z</time>
      </trkpt>
      <trkpt lat="44.42715" lon="5.42213">
        <ele>1354.6</ele>
        <time>2023-07-24T09:14:56Z</time>
      </trkpt>
      <trkpt lat="44.42716" lon="5.42214">
        <ele>1354.8</ele>
        <time>2023-07-24T09:14:57Z</time>
      </trkpt>
      <trkpt lat="44.42716" lon="5.42215">
        <ele>1354.9</ele>
        <time>2023-07-24T09:14:58Z</time>
      </trkpt>
      <trkpt lat="44.42716" lon="5.42215">
        <ele>1354.9</ele>
        <time>2023-07-24T09:14:59Z</time>
      </trkpt>
      <trkpt lat="44.42717" lon="5.42216">
        <ele>1355</ele>
        <time>2023-07-24T09:15:00Z</time>
      </trkpt>
      <trkpt lat="44.42717" lon="5.42217">
        <ele>1355</ele>
        <time>2023-07-24T09:15:01Z</time>
      </trkpt>
      <trkpt lat="44.42717" lon="5.42218">
        <ele>1355.1</ele>
        <time>2023-07-24T09:15:02Z</time>
      </trkpt>
      <trkpt lat="44.42718" lon="5.42219">
        <ele>1355.2</ele>
        <time>2023-07-24T09:15:03Z</time>
      </trkpt>
      <trkpt lat="44.42718" lon="5.4222">
        <ele>1355.3</ele>
        <time>2023-07-24T09:15:04Z</time>
      </trkpt>
      <trkpt lat="44.42718" lon="5.42221">
        <ele>1355.4</ele>
        <time>2023-07-24T09:15:05Z</time>
      </trkpt>
      <trkpt lat="44.42718" lon="5.42221">
        <ele>1355.4</ele>
        <time>2023-07-24T09:15:06Z</time>
      </trkpt>
      <trkpt lat="44.42718" lon="5.42222">
        <ele>1355.5</ele>
        <time>2023-07-24T09:15:07Z</time>
      </trkpt>
      <trkpt lat="44.42718" lon="5.42223">
        <ele>1355.6</ele>
        <time>2023-07-24T09:15:08Z</time>
      </trkpt>
      <trkpt lat="44.42718" lon="5.42224">
        <ele>1355.7</ele>
        <time>2023-07-24T09:15:09Z</time>
      </trkpt>
      <trkpt lat="44.42719" lon="5.42225">
        <ele>1355.8</ele>
        <time>2023-07-24T09:15:10Z</time>
      </trkpt>
      <trkpt lat="44.42719" lon="5.42226">
        <ele>1355.9</ele>
        <time>2023-07-24T09:15:11Z</time>
      </trkpt>
      <trkpt lat="44.4272" lon="5.42228">
        <ele>1356</ele>
        <time>2023-07-24T09:15:12Z</time>
      </trkpt>
      <trkpt lat="44.4272" lon="5.42228">
        <ele>1356</ele>
        <time>2023-07-24T09:15:13Z</time>
      </trkpt>
      <trkpt lat="44.42719" lon="5.42228">
        <ele>1356</ele>
        <time>2023-07-24T09:15:14Z</time>
      </trkpt>
      <trkpt lat="44.42719" lon="5.42228">
        <ele>1356</ele>
        <time>2023-07-24T09:15:15Z</time>
      </trkpt>
      <trkpt lat="44.42719" lon="5.42228">
        <ele>1356.1</ele>
        <time>2023-07-24T09:15:16Z</time>
      </trkpt>
      <trkpt lat="44.42719" lon="5.42228">
        <ele>1356.1</ele>
        <time>2023-07-24T09:15:17Z</time>
      </trkpt>
      <trkpt lat="44.42719" lon="5.42228">
        <ele>1356.1</ele>
        <time>2023-07-24T09:15:18Z</time>
      </trkpt>
      <trkpt lat="44.42719" lon="5.42228">
        <ele>1356.1</ele>
        <time>2023-07-24T09:15:19Z</time>
      </trkpt>
      <trkpt lat="44.42719" lon="5.42228">
        <ele>1356.1</ele>
        <time>2023-07-24T09:15:20Z</time>
      </trkpt>
      <trkpt lat="44.42719" lon="5.42228">
        <ele>1356.2</ele>
        <time>2023-07-24T09:15:21Z</time>
      </trkpt>
      <trkpt lat="44.4272" lon="5.42228">
        <ele>1356.2</ele>
        <time>2023-07-24T09:15:22Z</time>
      </trkpt>
      <trkpt lat="44.4272" lon="5.42228">
        <ele>1356.2</ele>
        <time>2023-07-24T09:15:23Z</time>
      </trkpt>
      <trkpt lat="44.4272" lon="5.42229">
        <ele>1356.3</ele>
        <time>2023-07-24T09:15:24Z</time>
      </trkpt>
      <trkpt lat="44.4272" lon="5.42229">
        <ele>1356.3</ele>
        <time>2023-07-24T09:15:25Z</time>
      </trkpt>
      <trkpt lat="44.42724" lon="5.42235">
        <ele>1357</ele>
        <time>2023-07-24T09:15:34Z</time>
      </trkpt>
      <trkpt lat="44.42725" lon="5.42237">
        <ele>1357.2</ele>
        <time>2023-07-24T09:15:36Z</time>
      </trkpt>
      <trkpt lat="44.42726" lon="5.42238">
        <ele>1357.4</ele>
        <time>2023-07-24T09:15:37Z</time>
      </trkpt>
      <trkpt lat="44.42726" lon="5.42238">
        <ele>1357.4</ele>
        <time>2023-07-24T09:15:38Z</time>
      </trkpt>
      <trkpt lat="44.42726" lon="5.42239">
        <ele>1357.5</ele>
        <time>2023-07-24T09:15:39Z</time>
      </trkpt>
      <trkpt lat="44.42726" lon="5.4224">
        <ele>1357.6</ele>
        <time>2023-07-24T09:15:40Z</time>
      </trkpt>
      <trkpt lat="44.42726" lon="5.4224">
        <ele>1357.6</ele>
        <time>2023-07-24T09:15:41Z</time>
      </trkpt>
      <trkpt lat="44.42726" lon="5.4224">
        <ele>1357.6</ele>
        <time>2023-07-24T09:15:42Z</time>
      </trkpt>
      <trkpt lat="44.42726" lon="5.4224">
        <ele>1357.6</ele>
        <time>2023-07-24T09:15:43Z</time>
      </trkpt>
      <trkpt lat="44.42726" lon="5.4224">
        <ele>1357.7</ele>
        <time>2023-07-24T09:15:44Z</time>
      </trkpt>
      <trkpt lat="44.42726" lon="5.42241">
        <ele>1357.7</ele>
        <time>2023-07-24T09:15:45Z</time>
      </trkpt>
      <trkpt lat="44.42726" lon="5.42242">
        <ele>1357.8</ele>
        <time>2023-07-24T09:15:46Z</time>
      </trkpt>
      <trkpt lat="44.42727" lon="5.42244">
        <ele>1358</ele>
        <time>2023-07-24T09:15:47Z</time>
      </trkpt>
      <trkpt lat="44.42727" lon="5.42245">
        <ele>1358.2</ele>
        <time>2023-07-24T09:15:48Z</time>
      </trkpt>
      <trkpt lat="44.42728" lon="5.42247">
        <ele>1358.4</ele>
        <time>2023-07-24T09:15:49Z</time>
      </trkpt>
      <trkpt lat="44.42729" lon="5.42248">
        <ele>1358.6</ele>
        <time>2023-07-24T09:15:50Z</time>
      </trkpt>
      <trkpt lat="44.42729" lon="5.4225">
        <ele>1358.9</ele>
        <time>2023-07-24T09:16:09Z</time>
      </trkpt>
      <trkpt lat="44.4273" lon="5.42251">
        <ele>1359.1</ele>
        <time>2023-07-24T09:16:10Z</time>
      </trkpt>
      <trkpt lat="44.4273" lon="5.42253">
        <ele>1359.3</ele>
        <time>2023-07-24T09:16:11Z</time>
      </trkpt>
      <trkpt lat="44.42733" lon="5.42256">
        <ele>1359.9</ele>
        <time>2023-07-24T09:16:12Z</time>
      </trkpt>
      <trkpt lat="44.42734" lon="5.42256">
        <ele>1360.1</ele>
        <time>2023-07-24T09:16:13Z</time>
      </trkpt>
      <trkpt lat="44.42736" lon="5.42258">
        <ele>1360.6</ele>
        <time>2023-07-24T09:16:14Z</time>
      </trkpt>
      <trkpt lat="44.42737" lon="5.42259">
        <ele>1360.7</ele>
        <time>2023-07-24T09:16:15Z</time>
      </trkpt>
      <trkpt lat="44.4274" lon="5.42261">
        <ele>1361.3</ele>
        <time>2023-07-24T09:16:16Z</time>
      </trkpt>
      <trkpt lat="44.42741" lon="5.42262">
        <ele>1361.5</ele>
        <time>2023-07-24T09:16:17Z</time>
      </trkpt>
      <trkpt lat="44.42744" lon="5.42265">
        <ele>1362</ele>
        <time>2023-07-24T09:16:18Z</time>
      </trkpt>
      <trkpt lat="44.42745" lon="5.42265">
        <ele>1362.2</ele>
        <time>2023-07-24T09:16:19Z</time>
      </trkpt>
      <trkpt lat="44.42747" lon="5.42269">
        <ele>1362.6</ele>
        <time>2023-07-24T09:16:20Z</time>
      </trkpt>
      <trkpt lat="44.42747" lon="5.4227">
        <ele>1362.8</ele>
        <time>2023-07-24T09:16:21Z</time>
      </trkpt>
      <trkpt lat="44.42749" lon="5.42275">
        <ele>1363.3</ele>
        <time>2023-07-24T09:16:22Z</time>
      </trkpt>
      <trkpt lat="44.4275" lon="5.42276">
        <ele>1363.5</ele>
        <time>2023-07-24T09:16:23Z</time>
      </trkpt>
      <trkpt lat="44.42752" lon="5.4228">
        <ele>1363.9</ele>
        <time>2023-07-24T09:16:24Z</time>
      </trkpt>
      <trkpt lat="44.42752" lon="5.42281">
        <ele>1364.1</ele>
        <time>2023-07-24T09:16:25Z</time>
      </trkpt>
      <trkpt lat="44.42755" lon="5.42284">
        <ele>1364.4</ele>
        <time>2023-07-24T09:16:26Z</time>
      </trkpt>
      <trkpt lat="44.42756" lon="5.42285">
        <ele>1364.5</ele>
        <time>2023-07-24T09:16:27Z</time>
      </trkpt>
      <trkpt lat="44.42758" lon="5.42288">
        <ele>1364.9</ele>
        <time>2023-07-24T09:16:28Z</time>
      </trkpt>
      <trkpt lat="44.42759" lon="5.42289">
        <ele>1365</ele>
        <time>2023-07-24T09:16:29Z</time>
      </trkpt>
      <trkpt lat="44.4276" lon="5.4229">
        <ele>1365.1</ele>
        <time>2023-07-24T09:16:30Z</time>
      </trkpt>
      <trkpt lat="44.42761" lon="5.42292">
        <ele>1365.2</ele>
        <time>2023-07-24T09:16:31Z</time>
      </trkpt>
      <trkpt lat="44.42762" lon="5.42295">
        <ele>1365.4</ele>
        <time>2023-07-24T09:16:32Z</time>
      </trkpt>
      <trkpt lat="44.42763" lon="5.42297">
        <ele>1365.4</ele>
        <time>2023-07-24T09:16:33Z</time>
      </trkpt>
      <trkpt lat="44.42765" lon="5.42301">
        <ele>1365.4</ele>
        <time>2023-07-24T09:16:34Z</time>
      </trkpt>
      <trkpt lat="44.42766" lon="5.42302">
        <ele>1365.4</ele>
        <time>2023-07-24T09:16:35Z</time>
      </trkpt>
      <trkpt lat="44.42768" lon="5.42307">
        <ele>1365.4</ele>
        <time>2023-07-24T09:16:36Z</time>
      </trkpt>
      <trkpt lat="44.42769" lon="5.42308">
        <ele>1365.4</ele>
        <time>2023-07-24T09:16:37Z</time>
      </trkpt>
      <trkpt lat="44.4277" lon="5.42312">
        <ele>1365.4</ele>
        <time>2023-07-24T09:16:38Z</time>
      </trkpt>
      <trkpt lat="44.42772" lon="5.42315">
        <ele>1365.4</ele>
        <time>2023-07-24T09:16:39Z</time>
      </trkpt>
      <trkpt lat="44.42773" lon="5.42319">
        <ele>1365.3</ele>
        <time>2023-07-24T09:16:40Z</time>
      </trkpt>
      <trkpt lat="44.42774" lon="5.42321">
        <ele>1365.3</ele>
        <time>2023-07-24T09:16:41Z</time>
      </trkpt>
      <trkpt lat="44.42774" lon="5.42326">
        <ele>1365.3</ele>
        <time>2023-07-24T09:16:42Z</time>
      </trkpt>
      <trkpt lat="44.42774" lon="5.42328">
        <ele>1365.3</ele>
        <time>2023-07-24T09:16:43Z</time>
      </trkpt>
      <trkpt lat="44.42775" lon="5.42333">
        <ele>1365.2</ele>
        <time>2023-07-24T09:16:44Z</time>
      </trkpt>
      <trkpt lat="44.42776" lon="5.42335">
        <ele>1365.2</ele>
        <time>2023-07-24T09:16:45Z</time>
      </trkpt>
      <trkpt lat="44.42776" lon="5.42339">
        <ele>1365.3</ele>
        <time>2023-07-24T09:16:46Z</time>
      </trkpt>
      <trkpt lat="44.42777" lon="5.42341">
        <ele>1365.3</ele>
        <time>2023-07-24T09:16:47Z</time>
      </trkpt>
      <trkpt lat="44.42778" lon="5.42346">
        <ele>1365.4</ele>
        <time>2023-07-24T09:16:48Z</time>
      </trkpt>
      <trkpt lat="44.42778" lon="5.42347">
        <ele>1365.4</ele>
        <time>2023-07-24T09:16:49Z</time>
      </trkpt>
      <trkpt lat="44.42778" lon="5.42348">
        <ele>1365.4</ele>
        <time>2023-07-24T09:16:50Z</time>
      </trkpt>
      <trkpt lat="44.42778" lon="5.42348">
        <ele>1365.5</ele>
        <time>2023-07-24T09:16:51Z</time>
      </trkpt>
      <trkpt lat="44.42778" lon="5.42348">
        <ele>1365.5</ele>
        <time>2023-07-24T09:16:52Z</time>
      </trkpt>
      <trkpt lat="44.42778" lon="5.42348">
        <ele>1365.5</ele>
        <time>2023-07-24T09:16:53Z</time>
      </trkpt>
      <trkpt lat="44.42778" lon="5.42349">
        <ele>1365.5</ele>
        <time>2023-07-24T09:16:54Z</time>
      </trkpt>
      <trkpt lat="44.42778" lon="5.42349">
        <ele>1365.5</ele>
        <time>2023-07-24T09:16:55Z</time>
      </trkpt>
      <trkpt lat="44.42778" lon="5.42348">
        <ele>1365.5</ele>
        <time>2023-07-24T09:16:56Z</time>
      </trkpt>
      <trkpt lat="44.42778" lon="5.42348">
        <ele>1365.5</ele>
        <time>2023-07-24T09:16:57Z</time>
      </trkpt>
      <trkpt lat="44.42779" lon="5.4235">
        <ele>1365.6</ele>
        <time>2023-07-24T09:16:58Z</time>
      </trkpt>
      <trkpt lat="44.42781" lon="5.42354">
        <ele>1365.7</ele>
        <time>2023-07-24T09:16:59Z</time>
      </trkpt>
      <trkpt lat="44.42782" lon="5.42355">
        <ele>1365.7</ele>
        <time>2023-07-24T09:17:00Z</time>
      </trkpt>
      <trkpt lat="44.42784" lon="5.42359">
        <ele>1365.8</ele>
        <time>2023-07-24T09:17:01Z</time>
      </trkpt>
      <trkpt lat="44.42785" lon="5.4236">
        <ele>1365.8</ele>
        <time>2023-07-24T09:17:02Z</time>
      </trkpt>
      <trkpt lat="44.42786" lon="5.42362">
        <ele>1365.8</ele>
        <time>2023-07-24T09:17:03Z</time>
      </trkpt>
      <trkpt lat="44.42787" lon="5.42364">
        <ele>1365.8</ele>
        <time>2023-07-24T09:17:04Z</time>
      </trkpt>
      <trkpt lat="44.42788" lon="5.42368">
        <ele>1365.8</ele>
        <time>2023-07-24T09:17:05Z</time>
      </trkpt>
      <trkpt lat="44.42789" lon="5.42369">
        <ele>1365.8</ele>
        <time>2023-07-24T09:17:06Z</time>
      </trkpt>
      <trkpt lat="44.42791" lon="5.42374">
        <ele>1365.6</ele>
        <time>2023-07-24T09:17:07Z</time>
      </trkpt>
      <trkpt lat="44.42791" lon="5.42375">
        <ele>1365.6</ele>
        <time>2023-07-24T09:17:08Z</time>
      </trkpt>
      <trkpt lat="44.42792" lon="5.42377">
        <ele>1365.5</ele>
        <time>2023-07-24T09:17:09Z</time>
      </trkpt>
      <trkpt lat="44.42792" lon="5.4238">
        <ele>1365.4</ele>
        <time>2023-07-24T09:17:10Z</time>
      </trkpt>
      <trkpt lat="44.42794" lon="5.42383">
        <ele>1365.2</ele>
        <time>2023-07-24T09:17:11Z</time>
      </trkpt>
      <trkpt lat="44.42794" lon="5.42384">
        <ele>1365.1</ele>
        <time>2023-07-24T09:17:12Z</time>
      </trkpt>
      <trkpt lat="44.42795" lon="5.42386">
        <ele>1365</ele>
        <time>2023-07-24T09:17:13Z</time>
      </trkpt>
      <trkpt lat="44.42795" lon="5.42387">
        <ele>1365</ele>
        <time>2023-07-24T09:17:14Z</time>
      </trkpt>
      <trkpt lat="44.42795" lon="5.42387">
        <ele>1364.9</ele>
        <time>2023-07-24T09:17:15Z</time>
      </trkpt>
      <trkpt lat="44.42795" lon="5.42388">
        <ele>1364.9</ele>
        <time>2023-07-24T09:17:16Z</time>
      </trkpt>
      <trkpt lat="44.42795" lon="5.42388">
        <ele>1364.9</ele>
        <time>2023-07-24T09:17:17Z</time>
      </trkpt>
      <trkpt lat="44.42795" lon="5.42388">
        <ele>1364.9</ele>
        <time>2023-07-24T09:17:18Z</time>
      </trkpt>
      <trkpt lat="44.42795" lon="5.42389">
        <ele>1364.8</ele>
        <time>2023-07-24T09:17:19Z</time>
      </trkpt>
      <trkpt lat="44.42795" lon="5.42389">
        <ele>1364.8</ele>
        <time>2023-07-24T09:17:20Z</time>
      </trkpt>
      <trkpt lat="44.42794" lon="5.42389">
        <ele>1364.8</ele>
        <time>2023-07-24T09:17:21Z</time>
      </trkpt>
      <trkpt lat="44.42794" lon="5.4239">
        <ele>1364.8</ele>
        <time>2023-07-24T09:17:22Z</time>
      </trkpt>
      <trkpt lat="44.42795" lon="5.42392">
        <ele>1364.6</ele>
        <time>2023-07-24T09:17:23Z</time>
      </trkpt>
      <trkpt lat="44.42795" lon="5.42394">
        <ele>1364.5</ele>
        <time>2023-07-24T09:17:24Z</time>
      </trkpt>
      <trkpt lat="44.42795" lon="5.42396">
        <ele>1364.4</ele>
        <time>2023-07-24T09:17:25Z</time>
      </trkpt>
      <trkpt lat="44.42796" lon="5.42396">
        <ele>1364.4</ele>
        <time>2023-07-24T09:17:26Z</time>
      </trkpt>
      <trkpt lat="44.42796" lon="5.42396">
        <ele>1364.4</ele>
        <time>2023-07-24T09:17:27Z</time>
      </trkpt>
      <trkpt lat="44.42796" lon="5.42396">
        <ele>1364.4</ele>
        <time>2023-07-24T09:17:28Z</time>
      </trkpt>
      <trkpt lat="44.42796" lon="5.42396">
        <ele>1364.4</ele>
        <time>2023-07-24T09:17:29Z</time>
      </trkpt>
      <trkpt lat="44.42796" lon="5.42396">
        <ele>1364.4</ele>
        <time>2023-07-24T09:17:30Z</time>
      </trkpt>
      <trkpt lat="44.42796" lon="5.42396">
        <ele>1364.3</ele>
        <time>2023-07-24T09:17:31Z</time>
      </trkpt>
      <trkpt lat="44.42796" lon="5.42397">
        <ele>1364.3</ele>
        <time>2023-07-24T09:17:32Z</time>
      </trkpt>
      <trkpt lat="44.42797" lon="5.42397">
        <ele>1364.3</ele>
        <time>2023-07-24T09:17:33Z</time>
      </trkpt>
      <trkpt lat="44.42797" lon="5.42398">
        <ele>1364.3</ele>
        <time>2023-07-24T09:17:34Z</time>
      </trkpt>
      <trkpt lat="44.42797" lon="5.42399">
        <ele>1364.2</ele>
        <time>2023-07-24T09:17:35Z</time>
      </trkpt>
      <trkpt lat="44.42797" lon="5.424">
        <ele>1364.2</ele>
        <time>2023-07-24T09:17:36Z</time>
      </trkpt>
      <trkpt lat="44.42797" lon="5.42401">
        <ele>1364.2</ele>
        <time>2023-07-24T09:17:37Z</time>
      </trkpt>
      <trkpt lat="44.42797" lon="5.42403">
        <ele>1364.1</ele>
        <time>2023-07-24T09:17:39Z</time>
      </trkpt>
      <trkpt lat="44.42797" lon="5.42404">
        <ele>1364.1</ele>
        <time>2023-07-24T09:17:40Z</time>
      </trkpt>
      <trkpt lat="44.42797" lon="5.42404">
        <ele>1364.1</ele>
        <time>2023-07-24T09:17:41Z</time>
      </trkpt>
      <trkpt lat="44.42797" lon="5.42404">
        <ele>1364.1</ele>
        <time>2023-07-24T09:17:42Z</time>
      </trkpt>
      <trkpt lat="44.42797" lon="5.42404">
        <ele>1364.1</ele>
        <time>2023-07-24T09:17:43Z</time>
      </trkpt>
      <trkpt lat="44.42797" lon="5.42405">
        <ele>1364.1</ele>
        <time>2023-07-24T09:17:44Z</time>
      </trkpt>
      <trkpt lat="44.42797" lon="5.42406">
        <ele>1364</ele>
        <time>2023-07-24T09:17:45Z</time>
      </trkpt>
      <trkpt lat="44.42797" lon="5.42408">
        <ele>1364</ele>
        <time>2023-07-24T09:17:46Z</time>
      </trkpt>
      <trkpt lat="44.42798" lon="5.42412">
        <ele>1363.9</ele>
        <time>2023-07-24T09:17:47Z</time>
      </trkpt>
      <trkpt lat="44.42799" lon="5.42414">
        <ele>1363.8</ele>
        <time>2023-07-24T09:17:48Z</time>
      </trkpt>
      <trkpt lat="44.428" lon="5.42417">
        <ele>1363.8</ele>
        <time>2023-07-24T09:17:49Z</time>
      </trkpt>
      <trkpt lat="44.42801" lon="5.42418">
        <ele>1363.7</ele>
        <time>2023-07-24T09:17:50Z</time>
      </trkpt>
      <trkpt lat="44.42801" lon="5.42418">
        <ele>1363.7</ele>
        <time>2023-07-24T09:17:51Z</time>
      </trkpt>
      <trkpt lat="44.42801" lon="5.42418">
        <ele>1363.7</ele>
        <time>2023-07-24T09:17:52Z</time>
      </trkpt>
      <trkpt lat="44.428" lon="5.42417">
        <ele>1363.6</ele>
        <time>2023-07-24T09:17:53Z</time>
      </trkpt>
      <trkpt lat="44.428" lon="5.42416">
        <ele>1363.6</ele>
        <time>2023-07-24T09:17:54Z</time>
      </trkpt>
      <trkpt lat="44.42801" lon="5.42416">
        <ele>1363.6</ele>
        <time>2023-07-24T09:17:55Z</time>
      </trkpt>
      <trkpt lat="44.42801" lon="5.42417">
        <ele>1363.6</ele>
        <time>2023-07-24T09:17:56Z</time>
      </trkpt>
      <trkpt lat="44.42801" lon="5.42417">
        <ele>1363.5</ele>
        <time>2023-07-24T09:17:57Z</time>
      </trkpt>
      <trkpt lat="44.42802" lon="5.42418">
        <ele>1363.5</ele>
        <time>2023-07-24T09:17:58Z</time>
      </trkpt>
      <trkpt lat="44.42802" lon="5.42418">
        <ele>1363.5</ele>
        <time>2023-07-24T09:17:59Z</time>
      </trkpt>
      <trkpt lat="44.42802" lon="5.42419">
        <ele>1363.4</ele>
        <time>2023-07-24T09:18:00Z</time>
      </trkpt>
      <trkpt lat="44.42803" lon="5.4242">
        <ele>1363.4</ele>
        <time>2023-07-24T09:18:01Z</time>
      </trkpt>
      <trkpt lat="44.42803" lon="5.4242">
        <ele>1363.3</ele>
        <time>2023-07-24T09:18:02Z</time>
      </trkpt>
      <trkpt lat="44.42803" lon="5.42421">
        <ele>1363.3</ele>
        <time>2023-07-24T09:18:03Z</time>
      </trkpt>
      <trkpt lat="44.42804" lon="5.42422">
        <ele>1363.2</ele>
        <time>2023-07-24T09:18:04Z</time>
      </trkpt>
      <trkpt lat="44.42804" lon="5.42423">
        <ele>1363.2</ele>
        <time>2023-07-24T09:18:05Z</time>
      </trkpt>
      <trkpt lat="44.42804" lon="5.42423">
        <ele>1363.2</ele>
        <time>2023-07-24T09:18:06Z</time>
      </trkpt>
      <trkpt lat="44.42804" lon="5.42423">
        <ele>1363.2</ele>
        <time>2023-07-24T09:18:07Z</time>
      </trkpt>
      <trkpt lat="44.42804" lon="5.42424">
        <ele>1363.1</ele>
        <time>2023-07-24T09:18:08Z</time>
      </trkpt>
      <trkpt lat="44.42805" lon="5.42424">
        <ele>1363.1</ele>
        <time>2023-07-24T09:18:09Z</time>
      </trkpt>
      <trkpt lat="44.42805" lon="5.42425">
        <ele>1363</ele>
        <time>2023-07-24T09:18:10Z</time>
      </trkpt>
      <trkpt lat="44.42805" lon="5.42426">
        <ele>1362.9</ele>
        <time>2023-07-24T09:18:11Z</time>
      </trkpt>
      <trkpt lat="44.42805" lon="5.42428">
        <ele>1362.9</ele>
        <time>2023-07-24T09:18:12Z</time>
      </trkpt>
      <trkpt lat="44.42804" lon="5.42429">
        <ele>1362.8</ele>
        <time>2023-07-24T09:18:13Z</time>
      </trkpt>
      <trkpt lat="44.42804" lon="5.4243">
        <ele>1362.7</ele>
        <time>2023-07-24T09:18:14Z</time>
      </trkpt>
      <trkpt lat="44.42805" lon="5.42431">
        <ele>1362.7</ele>
        <time>2023-07-24T09:18:15Z</time>
      </trkpt>
      <trkpt lat="44.42805" lon="5.42431">
        <ele>1362.6</ele>
        <time>2023-07-24T09:18:16Z</time>
      </trkpt>
      <trkpt lat="44.42805" lon="5.42432">
        <ele>1362.6</ele>
        <time>2023-07-24T09:18:17Z</time>
      </trkpt>
      <trkpt lat="44.42805" lon="5.42433">
        <ele>1362.5</ele>
        <time>2023-07-24T09:18:18Z</time>
      </trkpt>
      <trkpt lat="44.42805" lon="5.42433">
        <ele>1362.5</ele>
        <time>2023-07-24T09:18:19Z</time>
      </trkpt>
      <trkpt lat="44.42805" lon="5.42434">
        <ele>1362.4</ele>
        <time>2023-07-24T09:18:20Z</time>
      </trkpt>
      <trkpt lat="44.42805" lon="5.42435">
        <ele>1362.4</ele>
        <time>2023-07-24T09:18:21Z</time>
      </trkpt>
      <trkpt lat="44.42805" lon="5.42436">
        <ele>1362.4</ele>
        <time>2023-07-24T09:18:22Z</time>
      </trkpt>
      <trkpt lat="44.42806" lon="5.42436">
        <ele>1362.3</ele>
        <time>2023-07-24T09:18:23Z</time>
      </trkpt>
      <trkpt lat="44.42806" lon="5.42437">
        <ele>1362.3</ele>
        <time>2023-07-24T09:18:24Z</time>
      </trkpt>
      <trkpt lat="44.42806" lon="5.42438">
        <ele>1362.2</ele>
        <time>2023-07-24T09:18:25Z</time>
      </trkpt>
      <trkpt lat="44.42806" lon="5.42438">
        <ele>1362.2</ele>
        <time>2023-07-24T09:18:47Z</time>
      </trkpt>
      <trkpt lat="44.42806" lon="5.42439">
        <ele>1362.2</ele>
        <time>2023-07-24T09:18:48Z</time>
      </trkpt>
      <trkpt lat="44.42806" lon="5.4244">
        <ele>1362.1</ele>
        <time>2023-07-24T09:18:49Z</time>
      </trkpt>
      <trkpt lat="44.42807" lon="5.42445">
        <ele>1361.9</ele>
        <time>2023-07-24T09:18:50Z</time>
      </trkpt>
      <trkpt lat="44.42807" lon="5.42447">
        <ele>1361.8</ele>
        <time>2023-07-24T09:18:51Z</time>
      </trkpt>
      <trkpt lat="44.42807" lon="5.42451">
        <ele>1361.7</ele>
        <time>2023-07-24T09:18:52Z</time>
      </trkpt>
      <trkpt lat="44.42807" lon="5.42455">
        <ele>1361.6</ele>
        <time>2023-07-24T09:18:53Z</time>
      </trkpt>
      <trkpt lat="44.42809" lon="5.42459">
        <ele>1361.6</ele>
        <time>2023-07-24T09:18:54Z</time>
      </trkpt>
      <trkpt lat="44.4281" lon="5.42461">
        <ele>1361.6</ele>
        <time>2023-07-24T09:18:55Z</time>
      </trkpt>
      <trkpt lat="44.4281" lon="5.42463">
        <ele>1361.6</ele>
        <time>2023-07-24T09:18:56Z</time>
      </trkpt>
      <trkpt lat="44.42811" lon="5.42465">
        <ele>1361.6</ele>
        <time>2023-07-24T09:18:57Z</time>
      </trkpt>
      <trkpt lat="44.42811" lon="5.42466">
        <ele>1361.6</ele>
        <time>2023-07-24T09:18:58Z</time>
      </trkpt>
      <trkpt lat="44.42812" lon="5.42466">
        <ele>1361.6</ele>
        <time>2023-07-24T09:18:59Z</time>
      </trkpt>
      <trkpt lat="44.42812" lon="5.42467">
        <ele>1361.6</ele>
        <time>2023-07-24T09:19:00Z</time>
      </trkpt>
      <trkpt lat="44.42812" lon="5.42468">
        <ele>1361.6</ele>
        <time>2023-07-24T09:19:01Z</time>
      </trkpt>
      <trkpt lat="44.42812" lon="5.42468">
        <ele>1361.6</ele>
        <time>2023-07-24T09:19:02Z</time>
      </trkpt>
      <trkpt lat="44.42813" lon="5.42469">
        <ele>1361.6</ele>
        <time>2023-07-24T09:19:03Z</time>
      </trkpt>
      <trkpt lat="44.42815" lon="5.42472">
        <ele>1361.7</ele>
        <time>2023-07-24T09:19:04Z</time>
      </trkpt>
      <trkpt lat="44.42816" lon="5.42473">
        <ele>1361.7</ele>
        <time>2023-07-24T09:19:05Z</time>
      </trkpt>
      <trkpt lat="44.42819" lon="5.42476">
        <ele>1361.7</ele>
        <time>2023-07-24T09:19:06Z</time>
      </trkpt>
      <trkpt lat="44.42819" lon="5.42478">
        <ele>1361.6</ele>
        <time>2023-07-24T09:19:07Z</time>
      </trkpt>
      <trkpt lat="44.42821" lon="5.42482">
        <ele>1361.6</ele>
        <time>2023-07-24T09:19:08Z</time>
      </trkpt>
      <trkpt lat="44.42822" lon="5.42483">
        <ele>1361.5</ele>
        <time>2023-07-24T09:19:09Z</time>
      </trkpt>
      <trkpt lat="44.42824" lon="5.42487">
        <ele>1361.4</ele>
        <time>2023-07-24T09:19:10Z</time>
      </trkpt>
      <trkpt lat="44.42825" lon="5.42488">
        <ele>1361.3</ele>
        <time>2023-07-24T09:19:11Z</time>
      </trkpt>
      <trkpt lat="44.42826" lon="5.42493">
        <ele>1361.1</ele>
        <time>2023-07-24T09:19:12Z</time>
      </trkpt>
      <trkpt lat="44.42827" lon="5.42494">
        <ele>1361.1</ele>
        <time>2023-07-24T09:19:13Z</time>
      </trkpt>
      <trkpt lat="44.42828" lon="5.42498">
        <ele>1360.9</ele>
        <time>2023-07-24T09:19:14Z</time>
      </trkpt>
      <trkpt lat="44.4283" lon="5.42501">
        <ele>1360.8</ele>
        <time>2023-07-24T09:19:15Z</time>
      </trkpt>
      <trkpt lat="44.42831" lon="5.42505">
        <ele>1360.7</ele>
        <time>2023-07-24T09:19:16Z</time>
      </trkpt>
      <trkpt lat="44.42833" lon="5.42509">
        <ele>1360.5</ele>
        <time>2023-07-24T09:19:17Z</time>
      </trkpt>
      <trkpt lat="44.42834" lon="5.42512">
        <ele>1360.4</ele>
        <time>2023-07-24T09:19:18Z</time>
      </trkpt>
      <trkpt lat="44.42836" lon="5.42516">
        <ele>1360.2</ele>
        <time>2023-07-24T09:19:19Z</time>
      </trkpt>
      <trkpt lat="44.42838" lon="5.4252">
        <ele>1360.1</ele>
        <time>2023-07-24T09:19:20Z</time>
      </trkpt>
      <trkpt lat="44.4284" lon="5.42523">
        <ele>1359.9</ele>
        <time>2023-07-24T09:19:21Z</time>
      </trkpt>
      <trkpt lat="44.42842" lon="5.42527">
        <ele>1359.8</ele>
        <time>2023-07-24T09:19:22Z</time>
      </trkpt>
      <trkpt lat="44.42844" lon="5.4253">
        <ele>1359.6</ele>
        <time>2023-07-24T09:19:23Z</time>
      </trkpt>
      <trkpt lat="44.42846" lon="5.42534">
        <ele>1359.4</ele>
        <time>2023-07-24T09:19:24Z</time>
      </trkpt>
      <trkpt lat="44.42848" lon="5.42537">
        <ele>1359.3</ele>
        <time>2023-07-24T09:19:25Z</time>
      </trkpt>
      <trkpt lat="44.4285" lon="5.4254">
        <ele>1359.1</ele>
        <time>2023-07-24T09:19:26Z</time>
      </trkpt>
      <trkpt lat="44.42851" lon="5.42543">
        <ele>1359</ele>
        <time>2023-07-24T09:19:27Z</time>
      </trkpt>
      <trkpt lat="44.42853" lon="5.42547">
        <ele>1358.9</ele>
        <time>2023-07-24T09:19:28Z</time>
      </trkpt>
      <trkpt lat="44.42855" lon="5.4255">
        <ele>1358.8</ele>
        <time>2023-07-24T09:19:29Z</time>
      </trkpt>
      <trkpt lat="44.42856" lon="5.42554">
        <ele>1358.7</ele>
        <time>2023-07-24T09:19:30Z</time>
      </trkpt>
      <trkpt lat="44.42858" lon="5.42558">
        <ele>1358.6</ele>
        <time>2023-07-24T09:19:31Z</time>
      </trkpt>
      <trkpt lat="44.4286" lon="5.42561">
        <ele>1358.4</ele>
        <time>2023-07-24T09:19:32Z</time>
      </trkpt>
      <trkpt lat="44.42862" lon="5.42564">
        <ele>1358.3</ele>
        <time>2023-07-24T09:19:33Z</time>
      </trkpt>
      <trkpt lat="44.42864" lon="5.42567">
        <ele>1358.1</ele>
        <time>2023-07-24T09:19:34Z</time>
      </trkpt>
      <trkpt lat="44.42866" lon="5.4257">
        <ele>1358</ele>
        <time>2023-07-24T09:19:35Z</time>
      </trkpt>
      <trkpt lat="44.42868" lon="5.42573">
        <ele>1357.8</ele>
        <time>2023-07-24T09:19:36Z</time>
      </trkpt>
      <trkpt lat="44.42869" lon="5.42576">
        <ele>1357.6</ele>
        <time>2023-07-24T09:19:37Z</time>
      </trkpt>
      <trkpt lat="44.42871" lon="5.42579">
        <ele>1357.5</ele>
        <time>2023-07-24T09:19:38Z</time>
      </trkpt>
      <trkpt lat="44.42873" lon="5.42583">
        <ele>1357.3</ele>
        <time>2023-07-24T09:19:39Z</time>
      </trkpt>
      <trkpt lat="44.42875" lon="5.42586">
        <ele>1357.2</ele>
        <time>2023-07-24T09:19:40Z</time>
      </trkpt>
      <trkpt lat="44.42876" lon="5.42589">
        <ele>1357</ele>
        <time>2023-07-24T09:19:41Z</time>
      </trkpt>
      <trkpt lat="44.42878" lon="5.42593">
        <ele>1356.8</ele>
        <time>2023-07-24T09:19:42Z</time>
      </trkpt>
      <trkpt lat="44.4288" lon="5.42596">
        <ele>1356.7</ele>
        <time>2023-07-24T09:19:43Z</time>
      </trkpt>
      <trkpt lat="44.42882" lon="5.42599">
        <ele>1356.5</ele>
        <time>2023-07-24T09:19:44Z</time>
      </trkpt>
      <trkpt lat="44.42884" lon="5.42603">
        <ele>1356.4</ele>
        <time>2023-07-24T09:19:45Z</time>
      </trkpt>
      <trkpt lat="44.42886" lon="5.42606">
        <ele>1356.3</ele>
        <time>2023-07-24T09:19:46Z</time>
      </trkpt>
      <trkpt lat="44.42888" lon="5.42609">
        <ele>1356.2</ele>
        <time>2023-07-24T09:19:47Z</time>
      </trkpt>
      <trkpt lat="44.42889" lon="5.42613">
        <ele>1356.2</ele>
        <time>2023-07-24T09:19:48Z</time>
      </trkpt>
      <trkpt lat="44.42891" lon="5.42616">
        <ele>1356.2</ele>
        <time>2023-07-24T09:19:49Z</time>
      </trkpt>
      <trkpt lat="44.42893" lon="5.42619">
        <ele>1356.3</ele>
        <time>2023-07-24T09:19:50Z</time>
      </trkpt>
      <trkpt lat="44.42896" lon="5.42622">
        <ele>1356.4</ele>
        <time>2023-07-24T09:19:51Z</time>
      </trkpt>
      <trkpt lat="44.42898" lon="5.42625">
        <ele>1356.6</ele>
        <time>2023-07-24T09:19:52Z</time>
      </trkpt>
      <trkpt lat="44.429" lon="5.42628">
        <ele>1356.7</ele>
        <time>2023-07-24T09:19:53Z</time>
      </trkpt>
      <trkpt lat="44.42903" lon="5.4263">
        <ele>1356.9</ele>
        <time>2023-07-24T09:19:54Z</time>
      </trkpt>
      <trkpt lat="44.42906" lon="5.42632">
        <ele>1357.2</ele>
        <time>2023-07-24T09:19:55Z</time>
      </trkpt>
      <trkpt lat="44.42907" lon="5.42633">
        <ele>1357.2</ele>
        <time>2023-07-24T09:19:56Z</time>
      </trkpt>
      <trkpt lat="44.4291" lon="5.42635">
        <ele>1357.6</ele>
        <time>2023-07-24T09:19:57Z</time>
      </trkpt>
      <trkpt lat="44.4291" lon="5.42636">
        <ele>1357.6</ele>
        <time>2023-07-24T09:19:58Z</time>
      </trkpt>
      <trkpt lat="44.42912" lon="5.4264">
        <ele>1358</ele>
        <time>2023-07-24T09:19:59Z</time>
      </trkpt>
      <trkpt lat="44.42913" lon="5.42641">
        <ele>1358.1</ele>
        <time>2023-07-24T09:20:00Z</time>
      </trkpt>
      <trkpt lat="44.42915" lon="5.42646">
        <ele>1358.4</ele>
        <time>2023-07-24T09:20:01Z</time>
      </trkpt>
      <trkpt lat="44.42916" lon="5.42647">
        <ele>1358.6</ele>
        <time>2023-07-24T09:20:02Z</time>
      </trkpt>
      <trkpt lat="44.42918" lon="5.4265">
        <ele>1358.8</ele>
        <time>2023-07-24T09:20:03Z</time>
      </trkpt>
      <trkpt lat="44.4292" lon="5.42654">
        <ele>1359.1</ele>
        <time>2023-07-24T09:20:04Z</time>
      </trkpt>
      <trkpt lat="44.4292" lon="5.42656">
        <ele>1359.2</ele>
        <time>2023-07-24T09:20:05Z</time>
      </trkpt>
      <trkpt lat="44.42923" lon="5.4266">
        <ele>1359.5</ele>
        <time>2023-07-24T09:20:06Z</time>
      </trkpt>
      <trkpt lat="44.42923" lon="5.42662">
        <ele>1359.6</ele>
        <time>2023-07-24T09:20:07Z</time>
      </trkpt>
      <trkpt lat="44.42925" lon="5.42666">
        <ele>1359.8</ele>
        <time>2023-07-24T09:20:08Z</time>
      </trkpt>
      <trkpt lat="44.42926" lon="5.42667">
        <ele>1359.9</ele>
        <time>2023-07-24T09:20:09Z</time>
      </trkpt>
      <trkpt lat="44.42927" lon="5.42672">
        <ele>1360.2</ele>
        <time>2023-07-24T09:20:10Z</time>
      </trkpt>
      <trkpt lat="44.42928" lon="5.42674">
        <ele>1360.3</ele>
        <time>2023-07-24T09:20:11Z</time>
      </trkpt>
      <trkpt lat="44.42929" lon="5.42677">
        <ele>1360.5</ele>
        <time>2023-07-24T09:20:12Z</time>
      </trkpt>
      <trkpt lat="44.4293" lon="5.42681">
        <ele>1360.7</ele>
        <time>2023-07-24T09:20:13Z</time>
      </trkpt>
      <trkpt lat="44.42931" lon="5.42685">
        <ele>1361</ele>
        <time>2023-07-24T09:20:14Z</time>
      </trkpt>
      <trkpt lat="44.42932" lon="5.4269">
        <ele>1361.4</ele>
        <time>2023-07-24T09:20:15Z</time>
      </trkpt>
      <trkpt lat="44.42933" lon="5.42694">
        <ele>1361.7</ele>
        <time>2023-07-24T09:20:16Z</time>
      </trkpt>
      <trkpt lat="44.42935" lon="5.42698">
        <ele>1362.1</ele>
        <time>2023-07-24T09:20:17Z</time>
      </trkpt>
      <trkpt lat="44.42936" lon="5.42701">
        <ele>1362.4</ele>
        <time>2023-07-24T09:20:18Z</time>
      </trkpt>
      <trkpt lat="44.42937" lon="5.42705">
        <ele>1362.7</ele>
        <time>2023-07-24T09:20:19Z</time>
      </trkpt>
      <trkpt lat="44.42939" lon="5.42709">
        <ele>1363.1</ele>
        <time>2023-07-24T09:20:20Z</time>
      </trkpt>
      <trkpt lat="44.4294" lon="5.42711">
        <ele>1363.3</ele>
        <time>2023-07-24T09:20:21Z</time>
      </trkpt>
      <trkpt lat="44.4294" lon="5.42711">
        <ele>1363.3</ele>
        <time>2023-07-24T09:20:22Z</time>
      </trkpt>
      <trkpt lat="44.4294" lon="5.42711">
        <ele>1363.3</ele>
        <time>2023-07-24T09:20:23Z</time>
      </trkpt>
      <trkpt lat="44.4294" lon="5.42711">
        <ele>1363.3</ele>
        <time>2023-07-24T09:20:24Z</time>
      </trkpt>
      <trkpt lat="44.4294" lon="5.42711">
        <ele>1363.4</ele>
        <time>2023-07-24T09:20:25Z</time>
      </trkpt>
      <trkpt lat="44.42941" lon="5.42711">
        <ele>1363.4</ele>
        <time>2023-07-24T09:20:26Z</time>
      </trkpt>
      <trkpt lat="44.42941" lon="5.42711">
        <ele>1363.4</ele>
        <time>2023-07-24T09:20:27Z</time>
      </trkpt>
      <trkpt lat="44.42941" lon="5.42711">
        <ele>1363.5</ele>
        <time>2023-07-24T09:20:28Z</time>
      </trkpt>
      <trkpt lat="44.42941" lon="5.42711">
        <ele>1363.5</ele>
        <time>2023-07-24T09:20:29Z</time>
      </trkpt>
      <trkpt lat="44.42941" lon="5.42711">
        <ele>1363.5</ele>
        <time>2023-07-24T09:20:30Z</time>
      </trkpt>
      <trkpt lat="44.42941" lon="5.42711">
        <ele>1363.5</ele>
        <time>2023-07-24T09:20:31Z</time>
      </trkpt>
      <trkpt lat="44.42941" lon="5.42711">
        <ele>1363.5</ele>
        <time>2023-07-24T09:20:32Z</time>
      </trkpt>
      <trkpt lat="44.42941" lon="5.42711">
        <ele>1363.5</ele>
        <time>2023-07-24T09:20:33Z</time>
      </trkpt>
      <trkpt lat="44.42942" lon="5.42716">
        <ele>1363.9</ele>
        <time>2023-07-24T09:20:40Z</time>
      </trkpt>
      <trkpt lat="44.42945" lon="5.42718">
        <ele>1364.2</ele>
        <time>2023-07-24T09:20:41Z</time>
      </trkpt>
      <trkpt lat="44.42947" lon="5.42721">
        <ele>1364.5</ele>
        <time>2023-07-24T09:20:42Z</time>
      </trkpt>
      <trkpt lat="44.4295" lon="5.42724">
        <ele>1364.9</ele>
        <time>2023-07-24T09:20:43Z</time>
      </trkpt>
      <trkpt lat="44.42951" lon="5.42725">
        <ele>1365</ele>
        <time>2023-07-24T09:20:44Z</time>
      </trkpt>
      <trkpt lat="44.42953" lon="5.42729">
        <ele>1365.4</ele>
        <time>2023-07-24T09:20:45Z</time>
      </trkpt>
      <trkpt lat="44.42954" lon="5.4273">
        <ele>1365.5</ele>
        <time>2023-07-24T09:20:46Z</time>
      </trkpt>
      <trkpt lat="44.42956" lon="5.42733">
        <ele>1365.7</ele>
        <time>2023-07-24T09:20:47Z</time>
      </trkpt>
      <trkpt lat="44.42958" lon="5.42736">
        <ele>1365.9</ele>
        <time>2023-07-24T09:20:48Z</time>
      </trkpt>
      <trkpt lat="44.4296" lon="5.42739">
        <ele>1366.1</ele>
        <time>2023-07-24T09:20:49Z</time>
      </trkpt>
      <trkpt lat="44.42963" lon="5.42741">
        <ele>1366.3</ele>
        <time>2023-07-24T09:20:50Z</time>
      </trkpt>
      <trkpt lat="44.42965" lon="5.42745">
        <ele>1366.5</ele>
        <time>2023-07-24T09:20:51Z</time>
      </trkpt>
      <trkpt lat="44.42966" lon="5.42747">
        <ele>1366.5</ele>
        <time>2023-07-24T09:20:52Z</time>
      </trkpt>
      <trkpt lat="44.42968" lon="5.42752">
        <ele>1366.7</ele>
        <time>2023-07-24T09:20:53Z</time>
      </trkpt>
      <trkpt lat="44.42968" lon="5.42754">
        <ele>1366.8</ele>
        <time>2023-07-24T09:20:54Z</time>
      </trkpt>
      <trkpt lat="44.42969" lon="5.42757">
        <ele>1366.9</ele>
        <time>2023-07-24T09:20:55Z</time>
      </trkpt>
      <trkpt lat="44.42971" lon="5.42761">
        <ele>1367</ele>
        <time>2023-07-24T09:20:56Z</time>
      </trkpt>
      <trkpt lat="44.42972" lon="5.42765">
        <ele>1367.1</ele>
        <time>2023-07-24T09:20:57Z</time>
      </trkpt>
      <trkpt lat="44.42974" lon="5.42769">
        <ele>1367.2</ele>
        <time>2023-07-24T09:20:58Z</time>
      </trkpt>
      <trkpt lat="44.42977" lon="5.42772">
        <ele>1367.3</ele>
        <time>2023-07-24T09:20:59Z</time>
      </trkpt>
      <trkpt lat="44.42979" lon="5.42776">
        <ele>1367.4</ele>
        <time>2023-07-24T09:21:00Z</time>
      </trkpt>
      <trkpt lat="44.42981" lon="5.4278">
        <ele>1367.5</ele>
        <time>2023-07-24T09:21:01Z</time>
      </trkpt>
      <trkpt lat="44.42983" lon="5.42784">
        <ele>1367.6</ele>
        <time>2023-07-24T09:21:02Z</time>
      </trkpt>
      <trkpt lat="44.42985" lon="5.42787">
        <ele>1367.7</ele>
        <time>2023-07-24T09:21:03Z</time>
      </trkpt>
      <trkpt lat="44.42987" lon="5.4279">
        <ele>1367.8</ele>
        <time>2023-07-24T09:21:04Z</time>
      </trkpt>
      <trkpt lat="44.42988" lon="5.42792">
        <ele>1367.8</ele>
        <time>2023-07-24T09:21:05Z</time>
      </trkpt>
      <trkpt lat="44.42989" lon="5.42792">
        <ele>1367.8</ele>
        <time>2023-07-24T09:21:06Z</time>
      </trkpt>
      <trkpt lat="44.42989" lon="5.42792">
        <ele>1367.9</ele>
        <time>2023-07-24T09:21:07Z</time>
      </trkpt>
      <trkpt lat="44.42989" lon="5.42791">
        <ele>1367.9</ele>
        <time>2023-07-24T09:21:08Z</time>
      </trkpt>
      <trkpt lat="44.42989" lon="5.42791">
        <ele>1367.9</ele>
        <time>2023-07-24T09:21:09Z</time>
      </trkpt>
      <trkpt lat="44.42988" lon="5.42791">
        <ele>1367.9</ele>
        <time>2023-07-24T09:21:10Z</time>
      </trkpt>
      <trkpt lat="44.42988" lon="5.42791">
        <ele>1367.9</ele>
        <time>2023-07-24T09:21:11Z</time>
      </trkpt>
      <trkpt lat="44.42988" lon="5.42791">
        <ele>1367.9</ele>
        <time>2023-07-24T09:21:12Z</time>
      </trkpt>
      <trkpt lat="44.42988" lon="5.42791">
        <ele>1367.9</ele>
        <time>2023-07-24T09:21:13Z</time>
      </trkpt>
      <trkpt lat="44.42989" lon="5.42792">
        <ele>1368</ele>
        <time>2023-07-24T09:21:14Z</time>
      </trkpt>
      <trkpt lat="44.42989" lon="5.42792">
        <ele>1368</ele>
        <time>2023-07-24T09:21:15Z</time>
      </trkpt>
      <trkpt lat="44.4299" lon="5.42792">
        <ele>1368</ele>
        <time>2023-07-24T09:21:16Z</time>
      </trkpt>
      <trkpt lat="44.4299" lon="5.42793">
        <ele>1368</ele>
        <time>2023-07-24T09:21:18Z</time>
      </trkpt>
      <trkpt lat="44.42991" lon="5.42793">
        <ele>1368.1</ele>
        <time>2023-07-24T09:21:19Z</time>
      </trkpt>
      <trkpt lat="44.42992" lon="5.42794">
        <ele>1368.1</ele>
        <time>2023-07-24T09:21:20Z</time>
      </trkpt>
      <trkpt lat="44.42994" lon="5.42798">
        <ele>1368.2</ele>
        <time>2023-07-24T09:21:21Z</time>
      </trkpt>
      <trkpt lat="44.42995" lon="5.42799">
        <ele>1368.3</ele>
        <time>2023-07-24T09:21:22Z</time>
      </trkpt>
      <trkpt lat="44.42998" lon="5.42803">
        <ele>1368.4</ele>
        <time>2023-07-24T09:21:23Z</time>
      </trkpt>
      <trkpt lat="44.42998" lon="5.42803">
        <ele>1368.4</ele>
        <time>2023-07-24T09:21:24Z</time>
      </trkpt>
      <trkpt lat="44.43" lon="5.42805">
        <ele>1368.5</ele>
        <time>2023-07-24T09:21:25Z</time>
      </trkpt>
      <trkpt lat="44.43" lon="5.42805">
        <ele>1368.5</ele>
        <time>2023-07-24T09:21:26Z</time>
      </trkpt>
      <trkpt lat="44.43001" lon="5.42806">
        <ele>1368.5</ele>
        <time>2023-07-24T09:21:27Z</time>
      </trkpt>
      <trkpt lat="44.43001" lon="5.42806">
        <ele>1368.5</ele>
        <time>2023-07-24T09:21:28Z</time>
      </trkpt>
      <trkpt lat="44.43002" lon="5.42806">
        <ele>1368.5</ele>
        <time>2023-07-24T09:21:29Z</time>
      </trkpt>
      <trkpt lat="44.43005" lon="5.42809">
        <ele>1368.6</ele>
        <time>2023-07-24T09:21:30Z</time>
      </trkpt>
      <trkpt lat="44.43006" lon="5.4281">
        <ele>1368.7</ele>
        <time>2023-07-24T09:21:31Z</time>
      </trkpt>
      <trkpt lat="44.43009" lon="5.42812">
        <ele>1368.7</ele>
        <time>2023-07-24T09:21:32Z</time>
      </trkpt>
      <trkpt lat="44.4301" lon="5.42813">
        <ele>1368.7</ele>
        <time>2023-07-24T09:21:33Z</time>
      </trkpt>
      <trkpt lat="44.43014" lon="5.42815">
        <ele>1368.7</ele>
        <time>2023-07-24T09:21:34Z</time>
      </trkpt>
      <trkpt lat="44.43015" lon="5.42817">
        <ele>1368.7</ele>
        <time>2023-07-24T09:21:35Z</time>
      </trkpt>
      <trkpt lat="44.43018" lon="5.42819">
        <ele>1368.7</ele>
        <time>2023-07-24T09:21:36Z</time>
      </trkpt>
      <trkpt lat="44.4302" lon="5.42822">
        <ele>1368.7</ele>
        <time>2023-07-24T09:21:37Z</time>
      </trkpt>
      <trkpt lat="44.43022" lon="5.42824">
        <ele>1368.7</ele>
        <time>2023-07-24T09:21:38Z</time>
      </trkpt>
      <trkpt lat="44.43024" lon="5.42827">
        <ele>1368.7</ele>
        <time>2023-07-24T09:21:39Z</time>
      </trkpt>
      <trkpt lat="44.43026" lon="5.4283">
        <ele>1368.6</ele>
        <time>2023-07-24T09:21:40Z</time>
      </trkpt>
      <trkpt lat="44.43029" lon="5.42832">
        <ele>1368.6</ele>
        <time>2023-07-24T09:21:41Z</time>
      </trkpt>
      <trkpt lat="44.43032" lon="5.42836">
        <ele>1368.6</ele>
        <time>2023-07-24T09:21:42Z</time>
      </trkpt>
      <trkpt lat="44.43033" lon="5.42837">
        <ele>1368.6</ele>
        <time>2023-07-24T09:21:43Z</time>
      </trkpt>
      <trkpt lat="44.43035" lon="5.42841">
        <ele>1368.7</ele>
        <time>2023-07-24T09:21:44Z</time>
      </trkpt>
      <trkpt lat="44.43036" lon="5.42842">
        <ele>1368.7</ele>
        <time>2023-07-24T09:21:45Z</time>
      </trkpt>
      <trkpt lat="44.43039" lon="5.42844">
        <ele>1368.7</ele>
        <time>2023-07-24T09:21:46Z</time>
      </trkpt>
      <trkpt lat="44.43041" lon="5.42847">
        <ele>1368.7</ele>
        <time>2023-07-24T09:21:47Z</time>
      </trkpt>
      <trkpt lat="44.43043" lon="5.42849">
        <ele>1368.8</ele>
        <time>2023-07-24T09:21:48Z</time>
      </trkpt>
      <trkpt lat="44.43045" lon="5.42852">
        <ele>1368.8</ele>
        <time>2023-07-24T09:21:49Z</time>
      </trkpt>
      <trkpt lat="44.43047" lon="5.42855">
        <ele>1368.8</ele>
        <time>2023-07-24T09:21:50Z</time>
      </trkpt>
      <trkpt lat="44.43048" lon="5.42856">
        <ele>1368.9</ele>
        <time>2023-07-24T09:21:51Z</time>
      </trkpt>
      <trkpt lat="44.43049" lon="5.42856">
        <ele>1368.9</ele>
        <time>2023-07-24T09:21:52Z</time>
      </trkpt>
      <trkpt lat="44.43049" lon="5.42857">
        <ele>1368.9</ele>
        <time>2023-07-24T09:21:53Z</time>
      </trkpt>
      <trkpt lat="44.43049" lon="5.42857">
        <ele>1368.9</ele>
        <time>2023-07-24T09:21:54Z</time>
      </trkpt>
      <trkpt lat="44.4305" lon="5.42858">
        <ele>1368.9</ele>
        <time>2023-07-24T09:21:55Z</time>
      </trkpt>
      <trkpt lat="44.4305" lon="5.42858">
        <ele>1368.9</ele>
        <time>2023-07-24T09:21:56Z</time>
      </trkpt>
      <trkpt lat="44.4305" lon="5.42858">
        <ele>1368.9</ele>
        <time>2023-07-24T09:21:57Z</time>
      </trkpt>
      <trkpt lat="44.43051" lon="5.42859">
        <ele>1368.9</ele>
        <time>2023-07-24T09:21:58Z</time>
      </trkpt>
      <trkpt lat="44.43051" lon="5.42859">
        <ele>1368.9</ele>
        <time>2023-07-24T09:21:59Z</time>
      </trkpt>
      <trkpt lat="44.43051" lon="5.4286">
        <ele>1368.9</ele>
        <time>2023-07-24T09:22:00Z</time>
      </trkpt>
      <trkpt lat="44.43052" lon="5.4286">
        <ele>1368.9</ele>
        <time>2023-07-24T09:22:01Z</time>
      </trkpt>
      <trkpt lat="44.43052" lon="5.42861">
        <ele>1369</ele>
        <time>2023-07-24T09:22:02Z</time>
      </trkpt>
      <trkpt lat="44.43052" lon="5.42861">
        <ele>1369</ele>
        <time>2023-07-24T09:22:03Z</time>
      </trkpt>
      <trkpt lat="44.43056" lon="5.42865">
        <ele>1369.1</ele>
        <time>2023-07-24T09:22:04Z</time>
      </trkpt>
      <trkpt lat="44.43059" lon="5.42869">
        <ele>1369.3</ele>
        <time>2023-07-24T09:22:05Z</time>
      </trkpt>
      <trkpt lat="44.43063" lon="5.42873">
        <ele>1369.7</ele>
        <time>2023-07-24T09:22:06Z</time>
      </trkpt>
      <trkpt lat="44.43067" lon="5.42877">
        <ele>1370</ele>
        <time>2023-07-24T09:22:07Z</time>
      </trkpt>
      <trkpt lat="44.43071" lon="5.42881">
        <ele>1370.5</ele>
        <time>2023-07-24T09:22:08Z</time>
      </trkpt>
      <trkpt lat="44.43075" lon="5.42886">
        <ele>1371</ele>
        <time>2023-07-24T09:22:09Z</time>
      </trkpt>
      <trkpt lat="44.43079" lon="5.4289">
        <ele>1371.6</ele>
        <time>2023-07-24T09:22:10Z</time>
      </trkpt>
      <trkpt lat="44.43082" lon="5.42894">
        <ele>1372.2</ele>
        <time>2023-07-24T09:22:11Z</time>
      </trkpt>
      <trkpt lat="44.43086" lon="5.42899">
        <ele>1372.9</ele>
        <time>2023-07-24T09:22:12Z</time>
      </trkpt>
      <trkpt lat="44.43089" lon="5.42903">
        <ele>1373.5</ele>
        <time>2023-07-24T09:22:13Z</time>
      </trkpt>
      <trkpt lat="44.43092" lon="5.42907">
        <ele>1374.2</ele>
        <time>2023-07-24T09:22:14Z</time>
      </trkpt>
      <trkpt lat="44.43095" lon="5.42912">
        <ele>1374.9</ele>
        <time>2023-07-24T09:22:15Z</time>
      </trkpt>
      <trkpt lat="44.43097" lon="5.42916">
        <ele>1375.5</ele>
        <time>2023-07-24T09:22:16Z</time>
      </trkpt>
      <trkpt lat="44.43099" lon="5.4292">
        <ele>1376.2</ele>
        <time>2023-07-24T09:22:17Z</time>
      </trkpt>
      <trkpt lat="44.43101" lon="5.42923">
        <ele>1377.2</ele>
        <time>2023-07-24T09:22:18Z</time>
      </trkpt>
      <trkpt lat="44.43104" lon="5.42926">
        <ele>1378.3</ele>
        <time>2023-07-24T09:22:19Z</time>
      </trkpt>
      <trkpt lat="44.43104" lon="5.42928">
        <ele>1378.6</ele>
        <time>2023-07-24T09:22:20Z</time>
      </trkpt>
      <trkpt lat="44.43105" lon="5.4293">
        <ele>1379.1</ele>
        <time>2023-07-24T09:22:21Z</time>
      </trkpt>
      <trkpt lat="44.43104" lon="5.42931">
        <ele>1379.4</ele>
        <time>2023-07-24T09:22:22Z</time>
      </trkpt>
      <trkpt lat="44.43104" lon="5.42931">
        <ele>1379.4</ele>
        <time>2023-07-24T09:22:23Z</time>
      </trkpt>
      <trkpt lat="44.43104" lon="5.4293">
        <ele>1379.5</ele>
        <time>2023-07-24T09:22:24Z</time>
      </trkpt>
      <trkpt lat="44.43104" lon="5.42929">
        <ele>1379.7</ele>
        <time>2023-07-24T09:22:25Z</time>
      </trkpt>
      <trkpt lat="44.43104" lon="5.42929">
        <ele>1379.8</ele>
        <time>2023-07-24T09:22:26Z</time>
      </trkpt>
      <trkpt lat="44.43104" lon="5.42928">
        <ele>1379.9</ele>
        <time>2023-07-24T09:22:27Z</time>
      </trkpt>
      <trkpt lat="44.43104" lon="5.42928">
        <ele>1380</ele>
        <time>2023-07-24T09:22:28Z</time>
      </trkpt>
      <trkpt lat="44.43104" lon="5.42928">
        <ele>1380.1</ele>
        <time>2023-07-24T09:22:29Z</time>
      </trkpt>
      <trkpt lat="44.43104" lon="5.42927">
        <ele>1380.1</ele>
        <time>2023-07-24T09:22:30Z</time>
      </trkpt>
      <trkpt lat="44.43104" lon="5.42927">
        <ele>1380.1</ele>
        <time>2023-07-24T09:22:31Z</time>
      </trkpt>
      <trkpt lat="44.43104" lon="5.42927">
        <ele>1380.1</ele>
        <time>2023-07-24T09:22:32Z</time>
      </trkpt>
      <trkpt lat="44.43104" lon="5.42927">
        <ele>1380.1</ele>
        <time>2023-07-24T09:22:33Z</time>
      </trkpt>
      <trkpt lat="44.43104" lon="5.42927">
        <ele>1380.1</ele>
        <time>2023-07-24T09:22:34Z</time>
      </trkpt>
      <trkpt lat="44.43104" lon="5.42928">
        <ele>1380.2</ele>
        <time>2023-07-24T09:22:35Z</time>
      </trkpt>
      <trkpt lat="44.43107" lon="5.42933">
        <ele>1381.5</ele>
        <time>2023-07-24T09:22:46Z</time>
      </trkpt>
      <trkpt lat="44.43108" lon="5.42936">
        <ele>1382.3</ele>
        <time>2023-07-24T09:22:47Z</time>
      </trkpt>
      <trkpt lat="44.4311" lon="5.42939">
        <ele>1383</ele>
        <time>2023-07-24T09:22:48Z</time>
      </trkpt>
      <trkpt lat="44.43112" lon="5.42943">
        <ele>1383.7</ele>
        <time>2023-07-24T09:22:49Z</time>
      </trkpt>
      <trkpt lat="44.43113" lon="5.42947">
        <ele>1384.6</ele>
        <time>2023-07-24T09:22:50Z</time>
      </trkpt>
      <trkpt lat="44.43114" lon="5.42949">
        <ele>1384.8</ele>
        <time>2023-07-24T09:22:51Z</time>
      </trkpt>
      <trkpt lat="44.43116" lon="5.42952">
        <ele>1385.5</ele>
        <time>2023-07-24T09:22:52Z</time>
      </trkpt>
      <trkpt lat="44.43117" lon="5.42953">
        <ele>1385.8</ele>
        <time>2023-07-24T09:22:53Z</time>
      </trkpt>
      <trkpt lat="44.43119" lon="5.42957">
        <ele>1386.4</ele>
        <time>2023-07-24T09:22:54Z</time>
      </trkpt>
      <trkpt lat="44.43119" lon="5.42958">
        <ele>1386.6</ele>
        <time>2023-07-24T09:22:55Z</time>
      </trkpt>
      <trkpt lat="44.4312" lon="5.42963">
        <ele>1387.2</ele>
        <time>2023-07-24T09:22:56Z</time>
      </trkpt>
      <trkpt lat="44.43121" lon="5.42967">
        <ele>1387.9</ele>
        <time>2023-07-24T09:22:57Z</time>
      </trkpt>
      <trkpt lat="44.43122" lon="5.42971">
        <ele>1388.6</ele>
        <time>2023-07-24T09:22:58Z</time>
      </trkpt>
      <trkpt lat="44.43123" lon="5.42976">
        <ele>1389.3</ele>
        <time>2023-07-24T09:22:59Z</time>
      </trkpt>
      <trkpt lat="44.43125" lon="5.4298">
        <ele>1390</ele>
        <time>2023-07-24T09:23:00Z</time>
      </trkpt>
      <trkpt lat="44.43127" lon="5.42984">
        <ele>1390.7</ele>
        <time>2023-07-24T09:23:01Z</time>
      </trkpt>
      <trkpt lat="44.43128" lon="5.42988">
        <ele>1391.4</ele>
        <time>2023-07-24T09:23:02Z</time>
      </trkpt>
      <trkpt lat="44.43129" lon="5.42992">
        <ele>1392</ele>
        <time>2023-07-24T09:23:03Z</time>
      </trkpt>
      <trkpt lat="44.43131" lon="5.42997">
        <ele>1392.6</ele>
        <time>2023-07-24T09:23:04Z</time>
      </trkpt>
      <trkpt lat="44.43132" lon="5.43001">
        <ele>1393.4</ele>
        <time>2023-07-24T09:23:05Z</time>
      </trkpt>
      <trkpt lat="44.43134" lon="5.43005">
        <ele>1394</ele>
        <time>2023-07-24T09:23:06Z</time>
      </trkpt>
      <trkpt lat="44.43136" lon="5.43008">
        <ele>1394.6</ele>
        <time>2023-07-24T09:23:07Z</time>
      </trkpt>
      <trkpt lat="44.43138" lon="5.43011">
        <ele>1395.2</ele>
        <time>2023-07-24T09:23:08Z</time>
      </trkpt>
      <trkpt lat="44.43141" lon="5.43015">
        <ele>1395.9</ele>
        <time>2023-07-24T09:23:09Z</time>
      </trkpt>
      <trkpt lat="44.43141" lon="5.43016">
        <ele>1396.1</ele>
        <time>2023-07-24T09:23:10Z</time>
      </trkpt>
      <trkpt lat="44.43143" lon="5.43019">
        <ele>1396.6</ele>
        <time>2023-07-24T09:23:11Z</time>
      </trkpt>
      <trkpt lat="44.43145" lon="5.43022">
        <ele>1397.2</ele>
        <time>2023-07-24T09:23:12Z</time>
      </trkpt>
      <trkpt lat="44.43147" lon="5.43025">
        <ele>1397.7</ele>
        <time>2023-07-24T09:23:13Z</time>
      </trkpt>
      <trkpt lat="44.43149" lon="5.43029">
        <ele>1398.2</ele>
        <time>2023-07-24T09:23:14Z</time>
      </trkpt>
      <trkpt lat="44.43152" lon="5.43033">
        <ele>1398.8</ele>
        <time>2023-07-24T09:23:15Z</time>
      </trkpt>
      <trkpt lat="44.43152" lon="5.43034">
        <ele>1399</ele>
        <time>2023-07-24T09:23:16Z</time>
      </trkpt>
      <trkpt lat="44.43154" lon="5.43038">
        <ele>1399.5</ele>
        <time>2023-07-24T09:23:17Z</time>
      </trkpt>
      <trkpt lat="44.43156" lon="5.43041">
        <ele>1399.9</ele>
        <time>2023-07-24T09:23:18Z</time>
      </trkpt>
      <trkpt lat="44.43157" lon="5.43045">
        <ele>1400.3</ele>
        <time>2023-07-24T09:23:19Z</time>
      </trkpt>
      <trkpt lat="44.43158" lon="5.43049">
        <ele>1400.7</ele>
        <time>2023-07-24T09:23:20Z</time>
      </trkpt>
      <trkpt lat="44.43159" lon="5.43053">
        <ele>1401</ele>
        <time>2023-07-24T09:23:21Z</time>
      </trkpt>
      <trkpt lat="44.4316" lon="5.43057">
        <ele>1401.4</ele>
        <time>2023-07-24T09:23:22Z</time>
      </trkpt>
      <trkpt lat="44.43161" lon="5.43061">
        <ele>1401.7</ele>
        <time>2023-07-24T09:23:23Z</time>
      </trkpt>
      <trkpt lat="44.43161" lon="5.43066">
        <ele>1402.1</ele>
        <time>2023-07-24T09:23:24Z</time>
      </trkpt>
      <trkpt lat="44.43162" lon="5.43071">
        <ele>1402.5</ele>
        <time>2023-07-24T09:23:25Z</time>
      </trkpt>
      <trkpt lat="44.43163" lon="5.43075">
        <ele>1403</ele>
        <time>2023-07-24T09:23:26Z</time>
      </trkpt>
      <trkpt lat="44.43164" lon="5.4308">
        <ele>1403.4</ele>
        <time>2023-07-24T09:23:27Z</time>
      </trkpt>
      <trkpt lat="44.43165" lon="5.43084">
        <ele>1404</ele>
        <time>2023-07-24T09:23:28Z</time>
      </trkpt>
      <trkpt lat="44.43165" lon="5.43088">
        <ele>1404.5</ele>
        <time>2023-07-24T09:23:29Z</time>
      </trkpt>
      <trkpt lat="44.43166" lon="5.43092">
        <ele>1405</ele>
        <time>2023-07-24T09:23:30Z</time>
      </trkpt>
      <trkpt lat="44.43168" lon="5.43096">
        <ele>1405.5</ele>
        <time>2023-07-24T09:23:31Z</time>
      </trkpt>
      <trkpt lat="44.43169" lon="5.431">
        <ele>1406</ele>
        <time>2023-07-24T09:23:32Z</time>
      </trkpt>
      <trkpt lat="44.4317" lon="5.43104">
        <ele>1406.5</ele>
        <time>2023-07-24T09:23:33Z</time>
      </trkpt>
      <trkpt lat="44.43171" lon="5.43108">
        <ele>1406.9</ele>
        <time>2023-07-24T09:23:34Z</time>
      </trkpt>
      <trkpt lat="44.43172" lon="5.43113">
        <ele>1407.5</ele>
        <time>2023-07-24T09:23:35Z</time>
      </trkpt>
      <trkpt lat="44.43173" lon="5.43114">
        <ele>1407.7</ele>
        <time>2023-07-24T09:23:36Z</time>
      </trkpt>
      <trkpt lat="44.43175" lon="5.43119">
        <ele>1408.3</ele>
        <time>2023-07-24T09:23:37Z</time>
      </trkpt>
      <trkpt lat="44.43175" lon="5.4312">
        <ele>1408.5</ele>
        <time>2023-07-24T09:23:38Z</time>
      </trkpt>
      <trkpt lat="44.43177" lon="5.43125">
        <ele>1409.2</ele>
        <time>2023-07-24T09:23:39Z</time>
      </trkpt>
      <trkpt lat="44.43177" lon="5.43127">
        <ele>1409.4</ele>
        <time>2023-07-24T09:23:40Z</time>
      </trkpt>
      <trkpt lat="44.43178" lon="5.43131">
        <ele>1410</ele>
        <time>2023-07-24T09:23:41Z</time>
      </trkpt>
      <trkpt lat="44.43178" lon="5.43135">
        <ele>1410.6</ele>
        <time>2023-07-24T09:23:42Z</time>
      </trkpt>
      <trkpt lat="44.43178" lon="5.43139">
        <ele>1411.2</ele>
        <time>2023-07-24T09:23:43Z</time>
      </trkpt>
      <trkpt lat="44.43178" lon="5.43143">
        <ele>1411.9</ele>
        <time>2023-07-24T09:23:44Z</time>
      </trkpt>
      <trkpt lat="44.43179" lon="5.43147">
        <ele>1412.7</ele>
        <time>2023-07-24T09:23:45Z</time>
      </trkpt>
      <trkpt lat="44.4318" lon="5.43151">
        <ele>1413.4</ele>
        <time>2023-07-24T09:23:46Z</time>
      </trkpt>
      <trkpt lat="44.43181" lon="5.43155">
        <ele>1413.8</ele>
        <time>2023-07-24T09:23:47Z</time>
      </trkpt>
      <trkpt lat="44.43181" lon="5.43159">
        <ele>1414</ele>
        <time>2023-07-24T09:23:48Z</time>
      </trkpt>
      <trkpt lat="44.43182" lon="5.43163">
        <ele>1414.1</ele>
        <time>2023-07-24T09:23:49Z</time>
      </trkpt>
      <trkpt lat="44.43182" lon="5.43167">
        <ele>1414.3</ele>
        <time>2023-07-24T09:23:50Z</time>
      </trkpt>
      <trkpt lat="44.43182" lon="5.43171">
        <ele>1414.5</ele>
        <time>2023-07-24T09:23:51Z</time>
      </trkpt>
      <trkpt lat="44.43182" lon="5.43175">
        <ele>1414.6</ele>
        <time>2023-07-24T09:23:52Z</time>
      </trkpt>
      <trkpt lat="44.43182" lon="5.43175">
        <ele>1414.7</ele>
        <time>2023-07-24T09:23:53Z</time>
      </trkpt>
      <trkpt lat="44.43182" lon="5.43176">
        <ele>1414.7</ele>
        <time>2023-07-24T09:23:54Z</time>
      </trkpt>
      <trkpt lat="44.43182" lon="5.43177">
        <ele>1414.7</ele>
        <time>2023-07-24T09:23:55Z</time>
      </trkpt>
      <trkpt lat="44.43182" lon="5.43178">
        <ele>1414.7</ele>
        <time>2023-07-24T09:23:56Z</time>
      </trkpt>
      <trkpt lat="44.43182" lon="5.43179">
        <ele>1414.8</ele>
        <time>2023-07-24T09:23:57Z</time>
      </trkpt>
      <trkpt lat="44.43182" lon="5.43179">
        <ele>1414.8</ele>
        <time>2023-07-24T09:23:58Z</time>
      </trkpt>
      <trkpt lat="44.43182" lon="5.4318">
        <ele>1414.8</ele>
        <time>2023-07-24T09:23:59Z</time>
      </trkpt>
      <trkpt lat="44.43182" lon="5.43181">
        <ele>1414.9</ele>
        <time>2023-07-24T09:24:00Z</time>
      </trkpt>
      <trkpt lat="44.43182" lon="5.43182">
        <ele>1414.9</ele>
        <time>2023-07-24T09:24:01Z</time>
      </trkpt>
      <trkpt lat="44.43182" lon="5.43182">
        <ele>1414.9</ele>
        <time>2023-07-24T09:24:02Z</time>
      </trkpt>
      <trkpt lat="44.43182" lon="5.43183">
        <ele>1414.9</ele>
        <time>2023-07-24T09:24:03Z</time>
      </trkpt>
      <trkpt lat="44.43182" lon="5.43184">
        <ele>1415</ele>
        <time>2023-07-24T09:24:04Z</time>
      </trkpt>
      <trkpt lat="44.43182" lon="5.43185">
        <ele>1415</ele>
        <time>2023-07-24T09:27:39Z</time>
      </trkpt>
      <trkpt lat="44.43182" lon="5.43186">
        <ele>1415</ele>
        <time>2023-07-24T09:27:40Z</time>
      </trkpt>
      <trkpt lat="44.43182" lon="5.43186">
        <ele>1415</ele>
        <time>2023-07-24T09:27:41Z</time>
      </trkpt>
      <trkpt lat="44.43184" lon="5.43191">
        <ele>1415.2</ele>
        <time>2023-07-24T09:27:42Z</time>
      </trkpt>
      <trkpt lat="44.43184" lon="5.43192">
        <ele>1415.2</ele>
        <time>2023-07-24T09:27:43Z</time>
      </trkpt>
      <trkpt lat="44.43185" lon="5.43196">
        <ele>1415.3</ele>
        <time>2023-07-24T09:27:44Z</time>
      </trkpt>
      <trkpt lat="44.43185" lon="5.43198">
        <ele>1415.4</ele>
        <time>2023-07-24T09:27:45Z</time>
      </trkpt>
      <trkpt lat="44.43185" lon="5.43202">
        <ele>1415.5</ele>
        <time>2023-07-24T09:27:46Z</time>
      </trkpt>
      <trkpt lat="44.43185" lon="5.43204">
        <ele>1415.6</ele>
        <time>2023-07-24T09:27:47Z</time>
      </trkpt>
      <trkpt lat="44.43186" lon="5.43209">
        <ele>1415.7</ele>
        <time>2023-07-24T09:27:48Z</time>
      </trkpt>
      <trkpt lat="44.43186" lon="5.43211">
        <ele>1415.8</ele>
        <time>2023-07-24T09:27:49Z</time>
      </trkpt>
      <trkpt lat="44.43186" lon="5.43215">
        <ele>1415.9</ele>
        <time>2023-07-24T09:27:50Z</time>
      </trkpt>
      <trkpt lat="44.43187" lon="5.4322">
        <ele>1416</ele>
        <time>2023-07-24T09:27:51Z</time>
      </trkpt>
      <trkpt lat="44.43188" lon="5.43225">
        <ele>1416.2</ele>
        <time>2023-07-24T09:27:52Z</time>
      </trkpt>
      <trkpt lat="44.43189" lon="5.4323">
        <ele>1416.4</ele>
        <time>2023-07-24T09:27:53Z</time>
      </trkpt>
      <trkpt lat="44.4319" lon="5.43235">
        <ele>1416.7</ele>
        <time>2023-07-24T09:27:54Z</time>
      </trkpt>
      <trkpt lat="44.43191" lon="5.43241">
        <ele>1416.9</ele>
        <time>2023-07-24T09:27:55Z</time>
      </trkpt>
      <trkpt lat="44.43192" lon="5.43245">
        <ele>1417.1</ele>
        <time>2023-07-24T09:27:56Z</time>
      </trkpt>
      <trkpt lat="44.43193" lon="5.4325">
        <ele>1417.3</ele>
        <time>2023-07-24T09:27:57Z</time>
      </trkpt>
      <trkpt lat="44.43195" lon="5.43254">
        <ele>1417.5</ele>
        <time>2023-07-24T09:27:58Z</time>
      </trkpt>
      <trkpt lat="44.43196" lon="5.43258">
        <ele>1417.7</ele>
        <time>2023-07-24T09:27:59Z</time>
      </trkpt>
      <trkpt lat="44.43197" lon="5.43263">
        <ele>1417.9</ele>
        <time>2023-07-24T09:28:00Z</time>
      </trkpt>
      <trkpt lat="44.43198" lon="5.43264">
        <ele>1417.9</ele>
        <time>2023-07-24T09:28:01Z</time>
      </trkpt>
      <trkpt lat="44.43199" lon="5.43268">
        <ele>1418.1</ele>
        <time>2023-07-24T09:28:02Z</time>
      </trkpt>
      <trkpt lat="44.432" lon="5.43269">
        <ele>1418.2</ele>
        <time>2023-07-24T09:28:03Z</time>
      </trkpt>
      <trkpt lat="44.43201" lon="5.43273">
        <ele>1418.3</ele>
        <time>2023-07-24T09:28:04Z</time>
      </trkpt>
      <trkpt lat="44.43202" lon="5.43274">
        <ele>1418.4</ele>
        <time>2023-07-24T09:28:05Z</time>
      </trkpt>
      <trkpt lat="44.43204" lon="5.43278">
        <ele>1418.5</ele>
        <time>2023-07-24T09:28:06Z</time>
      </trkpt>
      <trkpt lat="44.43205" lon="5.4328">
        <ele>1418.7</ele>
        <time>2023-07-24T09:28:07Z</time>
      </trkpt>
      <trkpt lat="44.43207" lon="5.43284">
        <ele>1418.8</ele>
        <time>2023-07-24T09:28:08Z</time>
      </trkpt>
      <trkpt lat="44.43209" lon="5.43288">
        <ele>1419</ele>
        <time>2023-07-24T09:28:09Z</time>
      </trkpt>
      <trkpt lat="44.4321" lon="5.4329">
        <ele>1419.1</ele>
        <time>2023-07-24T09:28:10Z</time>
      </trkpt>
      <trkpt lat="44.43212" lon="5.43293">
        <ele>1419.3</ele>
        <time>2023-07-24T09:28:11Z</time>
      </trkpt>
      <trkpt lat="44.43214" lon="5.43296">
        <ele>1419.4</ele>
        <time>2023-07-24T09:28:12Z</time>
      </trkpt>
      <trkpt lat="44.43216" lon="5.43299">
        <ele>1419.6</ele>
        <time>2023-07-24T09:28:13Z</time>
      </trkpt>
      <trkpt lat="44.43218" lon="5.43303">
        <ele>1419.8</ele>
        <time>2023-07-24T09:28:14Z</time>
      </trkpt>
      <trkpt lat="44.43221" lon="5.43308">
        <ele>1420</ele>
        <time>2023-07-24T09:28:15Z</time>
      </trkpt>
      <trkpt lat="44.43222" lon="5.43311">
        <ele>1420.1</ele>
        <time>2023-07-24T09:28:16Z</time>
      </trkpt>
      <trkpt lat="44.43224" lon="5.43315">
        <ele>1420.3</ele>
        <time>2023-07-24T09:28:17Z</time>
      </trkpt>
      <trkpt lat="44.43226" lon="5.43318">
        <ele>1420.4</ele>
        <time>2023-07-24T09:28:18Z</time>
      </trkpt>
      <trkpt lat="44.43228" lon="5.43322">
        <ele>1420.5</ele>
        <time>2023-07-24T09:28:19Z</time>
      </trkpt>
      <trkpt lat="44.43229" lon="5.43323">
        <ele>1420.5</ele>
        <time>2023-07-24T09:28:20Z</time>
      </trkpt>
      <trkpt lat="44.43231" lon="5.43326">
        <ele>1420.5</ele>
        <time>2023-07-24T09:28:21Z</time>
      </trkpt>
      <trkpt lat="44.43231" lon="5.43328">
        <ele>1420.5</ele>
        <time>2023-07-24T09:28:22Z</time>
      </trkpt>
      <trkpt lat="44.43234" lon="5.43331">
        <ele>1420.6</ele>
        <time>2023-07-24T09:28:23Z</time>
      </trkpt>
      <trkpt lat="44.43236" lon="5.43334">
        <ele>1420.6</ele>
        <time>2023-07-24T09:28:24Z</time>
      </trkpt>
      <trkpt lat="44.43238" lon="5.43337">
        <ele>1420.6</ele>
        <time>2023-07-24T09:28:25Z</time>
      </trkpt>
      <trkpt lat="44.43241" lon="5.4334">
        <ele>1420.7</ele>
        <time>2023-07-24T09:28:26Z</time>
      </trkpt>
      <trkpt lat="44.43244" lon="5.43343">
        <ele>1420.7</ele>
        <time>2023-07-24T09:28:27Z</time>
      </trkpt>
      <trkpt lat="44.43246" lon="5.43346">
        <ele>1420.8</ele>
        <time>2023-07-24T09:28:28Z</time>
      </trkpt>
      <trkpt lat="44.43249" lon="5.43348">
        <ele>1420.9</ele>
        <time>2023-07-24T09:28:29Z</time>
      </trkpt>
      <trkpt lat="44.43251" lon="5.43351">
        <ele>1420.9</ele>
        <time>2023-07-24T09:28:30Z</time>
      </trkpt>
      <trkpt lat="44.43254" lon="5.43354">
        <ele>1421</ele>
        <time>2023-07-24T09:28:31Z</time>
      </trkpt>
      <trkpt lat="44.43256" lon="5.43357">
        <ele>1421.1</ele>
        <time>2023-07-24T09:28:32Z</time>
      </trkpt>
      <trkpt lat="44.43258" lon="5.4336">
        <ele>1421.2</ele>
        <time>2023-07-24T09:28:33Z</time>
      </trkpt>
      <trkpt lat="44.43261" lon="5.43362">
        <ele>1421.1</ele>
        <time>2023-07-24T09:28:34Z</time>
      </trkpt>
      <trkpt lat="44.43263" lon="5.43364">
        <ele>1420.9</ele>
        <time>2023-07-24T09:28:35Z</time>
      </trkpt>
      <trkpt lat="44.43265" lon="5.43367">
        <ele>1420.6</ele>
        <time>2023-07-24T09:28:36Z</time>
      </trkpt>
      <trkpt lat="44.43268" lon="5.43369">
        <ele>1420.1</ele>
        <time>2023-07-24T09:28:37Z</time>
      </trkpt>
      <trkpt lat="44.4327" lon="5.43371">
        <ele>1419.4</ele>
        <time>2023-07-24T09:28:38Z</time>
      </trkpt>
      <trkpt lat="44.43273" lon="5.43374">
        <ele>1418.5</ele>
        <time>2023-07-24T09:28:39Z</time>
      </trkpt>
      <trkpt lat="44.43276" lon="5.43376">
        <ele>1417.6</ele>
        <time>2023-07-24T09:28:40Z</time>
      </trkpt>
      <trkpt lat="44.43279" lon="5.43379">
        <ele>1416.9</ele>
        <time>2023-07-24T09:28:41Z</time>
      </trkpt>
      <trkpt lat="44.43283" lon="5.43382">
        <ele>1416.4</ele>
        <time>2023-07-24T09:28:42Z</time>
      </trkpt>
      <trkpt lat="44.43287" lon="5.43384">
        <ele>1416.1</ele>
        <time>2023-07-24T09:28:43Z</time>
      </trkpt>
      <trkpt lat="44.43291" lon="5.43386">
        <ele>1416</ele>
        <time>2023-07-24T09:28:44Z</time>
      </trkpt>
      <trkpt lat="44.43294" lon="5.43388">
        <ele>1415.8</ele>
        <time>2023-07-24T09:28:45Z</time>
      </trkpt>
      <trkpt lat="44.43298" lon="5.43389">
        <ele>1415.7</ele>
        <time>2023-07-24T09:28:46Z</time>
      </trkpt>
      <trkpt lat="44.433" lon="5.43391">
        <ele>1415.7</ele>
        <time>2023-07-24T09:28:47Z</time>
      </trkpt>
      <trkpt lat="44.43303" lon="5.43394">
        <ele>1415.6</ele>
        <time>2023-07-24T09:28:48Z</time>
      </trkpt>
      <trkpt lat="44.43306" lon="5.43398">
        <ele>1415.6</ele>
        <time>2023-07-24T09:28:49Z</time>
      </trkpt>
      <trkpt lat="44.43308" lon="5.43401">
        <ele>1415.6</ele>
        <time>2023-07-24T09:28:50Z</time>
      </trkpt>
      <trkpt lat="44.4331" lon="5.43405">
        <ele>1415.5</ele>
        <time>2023-07-24T09:28:51Z</time>
      </trkpt>
      <trkpt lat="44.43312" lon="5.4341">
        <ele>1415.5</ele>
        <time>2023-07-24T09:28:52Z</time>
      </trkpt>
      <trkpt lat="44.43314" lon="5.4342">
        <ele>1415.3</ele>
        <time>2023-07-24T09:28:54Z</time>
      </trkpt>
      <trkpt lat="44.43316" lon="5.43425">
        <ele>1415.3</ele>
        <time>2023-07-24T09:28:55Z</time>
      </trkpt>
      <trkpt lat="44.43317" lon="5.43429">
        <ele>1415.2</ele>
        <time>2023-07-24T09:28:56Z</time>
      </trkpt>
      <trkpt lat="44.4332" lon="5.43435">
        <ele>1415.2</ele>
        <time>2023-07-24T09:28:57Z</time>
      </trkpt>
      <trkpt lat="44.43322" lon="5.4344">
        <ele>1415.2</ele>
        <time>2023-07-24T09:28:58Z</time>
      </trkpt>
      <trkpt lat="44.43324" lon="5.43444">
        <ele>1415.4</ele>
        <time>2023-07-24T09:28:59Z</time>
      </trkpt>
      <trkpt lat="44.43325" lon="5.4345">
        <ele>1415.6</ele>
        <time>2023-07-24T09:29:00Z</time>
      </trkpt>
      <trkpt lat="44.43326" lon="5.43456">
        <ele>1416.1</ele>
        <time>2023-07-24T09:29:01Z</time>
      </trkpt>
      <trkpt lat="44.43327" lon="5.43463">
        <ele>1416.7</ele>
        <time>2023-07-24T09:29:02Z</time>
      </trkpt>
      <trkpt lat="44.43328" lon="5.43468">
        <ele>1417.3</ele>
        <time>2023-07-24T09:29:03Z</time>
      </trkpt>
      <trkpt lat="44.43329" lon="5.43474">
        <ele>1417.9</ele>
        <time>2023-07-24T09:29:04Z</time>
      </trkpt>
      <trkpt lat="44.4333" lon="5.43478">
        <ele>1418.5</ele>
        <time>2023-07-24T09:29:05Z</time>
      </trkpt>
      <trkpt lat="44.43331" lon="5.43482">
        <ele>1418.9</ele>
        <time>2023-07-24T09:29:06Z</time>
      </trkpt>
      <trkpt lat="44.43331" lon="5.43485">
        <ele>1419.3</ele>
        <time>2023-07-24T09:29:07Z</time>
      </trkpt>
      <trkpt lat="44.43331" lon="5.43486">
        <ele>1419.5</ele>
        <time>2023-07-24T09:29:08Z</time>
      </trkpt>
      <trkpt lat="44.43331" lon="5.43487">
        <ele>1419.6</ele>
        <time>2023-07-24T09:29:09Z</time>
      </trkpt>
      <trkpt lat="44.4333" lon="5.43489">
        <ele>1419.8</ele>
        <time>2023-07-24T09:29:10Z</time>
      </trkpt>
      <trkpt lat="44.4333" lon="5.4349">
        <ele>1420</ele>
        <time>2023-07-24T09:29:11Z</time>
      </trkpt>
      <trkpt lat="44.4333" lon="5.43491">
        <ele>1420.2</ele>
        <time>2023-07-24T09:29:12Z</time>
      </trkpt>
      <trkpt lat="44.43329" lon="5.43493">
        <ele>1420.4</ele>
        <time>2023-07-24T09:29:13Z</time>
      </trkpt>
      <trkpt lat="44.43329" lon="5.43497">
        <ele>1421</ele>
        <time>2023-07-24T09:29:14Z</time>
      </trkpt>
      <trkpt lat="44.43329" lon="5.43502">
        <ele>1421.8</ele>
        <time>2023-07-24T09:29:15Z</time>
      </trkpt>
      <trkpt lat="44.43329" lon="5.43504">
        <ele>1422</ele>
        <time>2023-07-24T09:29:16Z</time>
      </trkpt>
      <trkpt lat="44.43329" lon="5.43509">
        <ele>1422.7</ele>
        <time>2023-07-24T09:29:17Z</time>
      </trkpt>
      <trkpt lat="44.43329" lon="5.4351">
        <ele>1422.9</ele>
        <time>2023-07-24T09:29:18Z</time>
      </trkpt>
      <trkpt lat="44.43328" lon="5.43516">
        <ele>1423.7</ele>
        <time>2023-07-24T09:29:19Z</time>
      </trkpt>
      <trkpt lat="44.43328" lon="5.43518">
        <ele>1423.9</ele>
        <time>2023-07-24T09:29:20Z</time>
      </trkpt>
      <trkpt lat="44.43327" lon="5.43522">
        <ele>1424.4</ele>
        <time>2023-07-24T09:29:21Z</time>
      </trkpt>
      <trkpt lat="44.43326" lon="5.43526">
        <ele>1425</ele>
        <time>2023-07-24T09:29:22Z</time>
      </trkpt>
      <trkpt lat="44.43325" lon="5.43531">
        <ele>1425.5</ele>
        <time>2023-07-24T09:29:23Z</time>
      </trkpt>
      <trkpt lat="44.43324" lon="5.43536">
        <ele>1425.9</ele>
        <time>2023-07-24T09:29:24Z</time>
      </trkpt>
      <trkpt lat="44.43324" lon="5.4354">
        <ele>1426.4</ele>
        <time>2023-07-24T09:29:25Z</time>
      </trkpt>
      <trkpt lat="44.43323" lon="5.43545">
        <ele>1428.8</ele>
        <time>2023-07-24T09:29:26Z</time>
      </trkpt>
      <trkpt lat="44.43323" lon="5.4355">
        <ele>1429.4</ele>
        <time>2023-07-24T09:29:27Z</time>
      </trkpt>
      <trkpt lat="44.43323" lon="5.43555">
        <ele>1430</ele>
        <time>2023-07-24T09:29:28Z</time>
      </trkpt>
      <trkpt lat="44.43322" lon="5.43559">
        <ele>1430.5</ele>
        <time>2023-07-24T09:29:29Z</time>
      </trkpt>
      <trkpt lat="44.43322" lon="5.43563">
        <ele>1430.9</ele>
        <time>2023-07-24T09:29:30Z</time>
      </trkpt>
      <trkpt lat="44.43321" lon="5.43567">
        <ele>1431.3</ele>
        <time>2023-07-24T09:29:31Z</time>
      </trkpt>
      <trkpt lat="44.4332" lon="5.43572">
        <ele>1431.8</ele>
        <time>2023-07-24T09:29:32Z</time>
      </trkpt>
      <trkpt lat="44.43319" lon="5.43573">
        <ele>1431.9</ele>
        <time>2023-07-24T09:29:33Z</time>
      </trkpt>
      <trkpt lat="44.43318" lon="5.43579">
        <ele>1432.4</ele>
        <time>2023-07-24T09:29:34Z</time>
      </trkpt>
      <trkpt lat="44.43318" lon="5.4358">
        <ele>1432.5</ele>
        <time>2023-07-24T09:29:35Z</time>
      </trkpt>
      <trkpt lat="44.43317" lon="5.43585">
        <ele>1433</ele>
        <time>2023-07-24T09:29:36Z</time>
      </trkpt>
      <trkpt lat="44.43316" lon="5.43587">
        <ele>1433.1</ele>
        <time>2023-07-24T09:29:37Z</time>
      </trkpt>
      <trkpt lat="44.43315" lon="5.43592">
        <ele>1433.6</ele>
        <time>2023-07-24T09:29:38Z</time>
      </trkpt>
      <trkpt lat="44.43314" lon="5.43594">
        <ele>1433.7</ele>
        <time>2023-07-24T09:29:39Z</time>
      </trkpt>
      <trkpt lat="44.43313" lon="5.43598">
        <ele>1434</ele>
        <time>2023-07-24T09:29:40Z</time>
      </trkpt>
      <trkpt lat="44.43312" lon="5.43601">
        <ele>1434.3</ele>
        <time>2023-07-24T09:29:41Z</time>
      </trkpt>
      <trkpt lat="44.4331" lon="5.43605">
        <ele>1434.5</ele>
        <time>2023-07-24T09:29:42Z</time>
      </trkpt>
      <trkpt lat="44.43308" lon="5.43609">
        <ele>1434.9</ele>
        <time>2023-07-24T09:29:43Z</time>
      </trkpt>
      <trkpt lat="44.43308" lon="5.43611">
        <ele>1435.1</ele>
        <time>2023-07-24T09:29:44Z</time>
      </trkpt>
      <trkpt lat="44.43306" lon="5.43616">
        <ele>1435.5</ele>
        <time>2023-07-24T09:29:45Z</time>
      </trkpt>
      <trkpt lat="44.43305" lon="5.43618">
        <ele>1435.6</ele>
        <time>2023-07-24T09:29:46Z</time>
      </trkpt>
      <trkpt lat="44.43304" lon="5.43621">
        <ele>1435.9</ele>
        <time>2023-07-24T09:29:47Z</time>
      </trkpt>
      <trkpt lat="44.43302" lon="5.43625">
        <ele>1436.2</ele>
        <time>2023-07-24T09:29:48Z</time>
      </trkpt>
      <trkpt lat="44.43301" lon="5.43629">
        <ele>1436.5</ele>
        <time>2023-07-24T09:29:49Z</time>
      </trkpt>
      <trkpt lat="44.433" lon="5.43633">
        <ele>1436.8</ele>
        <time>2023-07-24T09:29:50Z</time>
      </trkpt>
      <trkpt lat="44.43298" lon="5.43638">
        <ele>1437.2</ele>
        <time>2023-07-24T09:29:51Z</time>
      </trkpt>
      <trkpt lat="44.43298" lon="5.4364">
        <ele>1437.3</ele>
        <time>2023-07-24T09:29:52Z</time>
      </trkpt>
      <trkpt lat="44.43297" lon="5.43645">
        <ele>1437.6</ele>
        <time>2023-07-24T09:29:53Z</time>
      </trkpt>
      <trkpt lat="44.43297" lon="5.43647">
        <ele>1437.7</ele>
        <time>2023-07-24T09:29:54Z</time>
      </trkpt>
      <trkpt lat="44.43297" lon="5.43652">
        <ele>1438</ele>
        <time>2023-07-24T09:29:55Z</time>
      </trkpt>
      <trkpt lat="44.43297" lon="5.43654">
        <ele>1438.1</ele>
        <time>2023-07-24T09:29:56Z</time>
      </trkpt>
      <trkpt lat="44.43295" lon="5.43659">
        <ele>1438.3</ele>
        <time>2023-07-24T09:29:57Z</time>
      </trkpt>
      <trkpt lat="44.43295" lon="5.43661">
        <ele>1438.4</ele>
        <time>2023-07-24T09:29:58Z</time>
      </trkpt>
      <trkpt lat="44.43293" lon="5.43666">
        <ele>1438.5</ele>
        <time>2023-07-24T09:29:59Z</time>
      </trkpt>
      <trkpt lat="44.43293" lon="5.43668">
        <ele>1438.6</ele>
        <time>2023-07-24T09:30:00Z</time>
      </trkpt>
      <trkpt lat="44.43291" lon="5.43673">
        <ele>1438.7</ele>
        <time>2023-07-24T09:30:01Z</time>
      </trkpt>
      <trkpt lat="44.43291" lon="5.43674">
        <ele>1438.7</ele>
        <time>2023-07-24T09:30:02Z</time>
      </trkpt>
      <trkpt lat="44.4329" lon="5.43679">
        <ele>1438.8</ele>
        <time>2023-07-24T09:30:03Z</time>
      </trkpt>
      <trkpt lat="44.4329" lon="5.4368">
        <ele>1438.8</ele>
        <time>2023-07-24T09:30:04Z</time>
      </trkpt>
      <trkpt lat="44.4329" lon="5.43684">
        <ele>1438.8</ele>
        <time>2023-07-24T09:30:05Z</time>
      </trkpt>
      <trkpt lat="44.43289" lon="5.43685">
        <ele>1438.8</ele>
        <time>2023-07-24T09:30:06Z</time>
      </trkpt>
      <trkpt lat="44.43288" lon="5.4369">
        <ele>1438.9</ele>
        <time>2023-07-24T09:30:07Z</time>
      </trkpt>
      <trkpt lat="44.43288" lon="5.43692">
        <ele>1438.9</ele>
        <time>2023-07-24T09:30:08Z</time>
      </trkpt>
      <trkpt lat="44.43288" lon="5.43697">
        <ele>1438.9</ele>
        <time>2023-07-24T09:30:09Z</time>
      </trkpt>
      <trkpt lat="44.43288" lon="5.43699">
        <ele>1438.9</ele>
        <time>2023-07-24T09:30:10Z</time>
      </trkpt>
      <trkpt lat="44.43289" lon="5.43703">
        <ele>1438.9</ele>
        <time>2023-07-24T09:30:11Z</time>
      </trkpt>
      <trkpt lat="44.43291" lon="5.43708">
        <ele>1438.9</ele>
        <time>2023-07-24T09:30:12Z</time>
      </trkpt>
      <trkpt lat="44.43292" lon="5.4371">
        <ele>1438.9</ele>
        <time>2023-07-24T09:30:13Z</time>
      </trkpt>
      <trkpt lat="44.43294" lon="5.43714">
        <ele>1438.9</ele>
        <time>2023-07-24T09:30:14Z</time>
      </trkpt>
      <trkpt lat="44.43294" lon="5.43715">
        <ele>1439</ele>
        <time>2023-07-24T09:30:15Z</time>
      </trkpt>
      <trkpt lat="44.43296" lon="5.43719">
        <ele>1439</ele>
        <time>2023-07-24T09:30:16Z</time>
      </trkpt>
      <trkpt lat="44.43297" lon="5.4372">
        <ele>1439</ele>
        <time>2023-07-24T09:30:17Z</time>
      </trkpt>
      <trkpt lat="44.43299" lon="5.43724">
        <ele>1439</ele>
        <time>2023-07-24T09:30:18Z</time>
      </trkpt>
      <trkpt lat="44.433" lon="5.43725">
        <ele>1439</ele>
        <time>2023-07-24T09:30:19Z</time>
      </trkpt>
      <trkpt lat="44.43302" lon="5.43728">
        <ele>1439</ele>
        <time>2023-07-24T09:30:20Z</time>
      </trkpt>
      <trkpt lat="44.43302" lon="5.43729">
        <ele>1439.1</ele>
        <time>2023-07-24T09:30:21Z</time>
      </trkpt>
      <trkpt lat="44.43304" lon="5.43733">
        <ele>1439.1</ele>
        <time>2023-07-24T09:30:22Z</time>
      </trkpt>
      <trkpt lat="44.43305" lon="5.43734">
        <ele>1439.1</ele>
        <time>2023-07-24T09:30:23Z</time>
      </trkpt>
      <trkpt lat="44.43307" lon="5.43738">
        <ele>1439.2</ele>
        <time>2023-07-24T09:30:24Z</time>
      </trkpt>
      <trkpt lat="44.43307" lon="5.43739">
        <ele>1439.2</ele>
        <time>2023-07-24T09:30:25Z</time>
      </trkpt>
      <trkpt lat="44.43309" lon="5.43743">
        <ele>1439.2</ele>
        <time>2023-07-24T09:30:26Z</time>
      </trkpt>
      <trkpt lat="44.43309" lon="5.43744">
        <ele>1439.2</ele>
        <time>2023-07-24T09:30:27Z</time>
      </trkpt>
      <trkpt lat="44.43311" lon="5.43746">
        <ele>1439.2</ele>
        <time>2023-07-24T09:30:28Z</time>
      </trkpt>
      <trkpt lat="44.43312" lon="5.43747">
        <ele>1439.2</ele>
        <time>2023-07-24T09:30:29Z</time>
      </trkpt>
      <trkpt lat="44.43314" lon="5.43751">
        <ele>1439.1</ele>
        <time>2023-07-24T09:30:30Z</time>
      </trkpt>
      <trkpt lat="44.43315" lon="5.43752">
        <ele>1439.1</ele>
        <time>2023-07-24T09:30:31Z</time>
      </trkpt>
      <trkpt lat="44.43318" lon="5.43755">
        <ele>1439.1</ele>
        <time>2023-07-24T09:30:32Z</time>
      </trkpt>
      <trkpt lat="44.43319" lon="5.43756">
        <ele>1439</ele>
        <time>2023-07-24T09:30:33Z</time>
      </trkpt>
      <trkpt lat="44.43321" lon="5.43759">
        <ele>1439</ele>
        <time>2023-07-24T09:30:34Z</time>
      </trkpt>
      <trkpt lat="44.43322" lon="5.4376">
        <ele>1438.9</ele>
        <time>2023-07-24T09:30:35Z</time>
      </trkpt>
      <trkpt lat="44.43324" lon="5.43763">
        <ele>1438.9</ele>
        <time>2023-07-24T09:30:36Z</time>
      </trkpt>
      <trkpt lat="44.43325" lon="5.43764">
        <ele>1438.8</ele>
        <time>2023-07-24T09:30:37Z</time>
      </trkpt>
      <trkpt lat="44.43327" lon="5.43769">
        <ele>1438.8</ele>
        <time>2023-07-24T09:30:38Z</time>
      </trkpt>
      <trkpt lat="44.43328" lon="5.4377">
        <ele>1438.7</ele>
        <time>2023-07-24T09:30:39Z</time>
      </trkpt>
      <trkpt lat="44.43329" lon="5.43773">
        <ele>1438.7</ele>
        <time>2023-07-24T09:30:40Z</time>
      </trkpt>
      <trkpt lat="44.4333" lon="5.43774">
        <ele>1438.6</ele>
        <time>2023-07-24T09:30:41Z</time>
      </trkpt>
      <trkpt lat="44.43332" lon="5.43778">
        <ele>1438.6</ele>
        <time>2023-07-24T09:30:42Z</time>
      </trkpt>
      <trkpt lat="44.43332" lon="5.43779">
        <ele>1438.5</ele>
        <time>2023-07-24T09:30:43Z</time>
      </trkpt>
      <trkpt lat="44.43333" lon="5.43783">
        <ele>1438.4</ele>
        <time>2023-07-24T09:30:44Z</time>
      </trkpt>
      <trkpt lat="44.43334" lon="5.43785">
        <ele>1438.4</ele>
        <time>2023-07-24T09:30:45Z</time>
      </trkpt>
      <trkpt lat="44.43335" lon="5.43789">
        <ele>1438.3</ele>
        <time>2023-07-24T09:30:46Z</time>
      </trkpt>
      <trkpt lat="44.43336" lon="5.4379">
        <ele>1438.2</ele>
        <time>2023-07-24T09:30:47Z</time>
      </trkpt>
      <trkpt lat="44.43337" lon="5.43794">
        <ele>1438.1</ele>
        <time>2023-07-24T09:30:48Z</time>
      </trkpt>
      <trkpt lat="44.43338" lon="5.43796">
        <ele>1438.1</ele>
        <time>2023-07-24T09:30:49Z</time>
      </trkpt>
      <trkpt lat="44.4334" lon="5.43799">
        <ele>1438</ele>
        <time>2023-07-24T09:30:50Z</time>
      </trkpt>
      <trkpt lat="44.43341" lon="5.43801">
        <ele>1437.9</ele>
        <time>2023-07-24T09:30:51Z</time>
      </trkpt>
      <trkpt lat="44.43342" lon="5.43804">
        <ele>1437.8</ele>
        <time>2023-07-24T09:30:52Z</time>
      </trkpt>
      <trkpt lat="44.43343" lon="5.43806">
        <ele>1437.7</ele>
        <time>2023-07-24T09:30:53Z</time>
      </trkpt>
      <trkpt lat="44.43345" lon="5.43809">
        <ele>1437.6</ele>
        <time>2023-07-24T09:30:54Z</time>
      </trkpt>
      <trkpt lat="44.43345" lon="5.43811">
        <ele>1437.6</ele>
        <time>2023-07-24T09:30:55Z</time>
      </trkpt>
      <trkpt lat="44.43347" lon="5.43814">
        <ele>1437.5</ele>
        <time>2023-07-24T09:30:56Z</time>
      </trkpt>
      <trkpt lat="44.43347" lon="5.43816">
        <ele>1437.4</ele>
        <time>2023-07-24T09:30:57Z</time>
      </trkpt>
      <trkpt lat="44.43349" lon="5.43819">
        <ele>1437.3</ele>
        <time>2023-07-24T09:30:58Z</time>
      </trkpt>
      <trkpt lat="44.43349" lon="5.43821">
        <ele>1437.3</ele>
        <time>2023-07-24T09:30:59Z</time>
      </trkpt>
      <trkpt lat="44.43351" lon="5.43825">
        <ele>1437.2</ele>
        <time>2023-07-24T09:31:00Z</time>
      </trkpt>
      <trkpt lat="44.43351" lon="5.43826">
        <ele>1437.1</ele>
        <time>2023-07-24T09:31:01Z</time>
      </trkpt>
      <trkpt lat="44.43353" lon="5.4383">
        <ele>1437</ele>
        <time>2023-07-24T09:31:02Z</time>
      </trkpt>
      <trkpt lat="44.43354" lon="5.43832">
        <ele>1437</ele>
        <time>2023-07-24T09:31:03Z</time>
      </trkpt>
      <trkpt lat="44.43356" lon="5.43836">
        <ele>1436.9</ele>
        <time>2023-07-24T09:31:04Z</time>
      </trkpt>
      <trkpt lat="44.43356" lon="5.43837">
        <ele>1436.9</ele>
        <time>2023-07-24T09:31:05Z</time>
      </trkpt>
      <trkpt lat="44.43358" lon="5.43842">
        <ele>1436.8</ele>
        <time>2023-07-24T09:31:06Z</time>
      </trkpt>
      <trkpt lat="44.43358" lon="5.43844">
        <ele>1436.8</ele>
        <time>2023-07-24T09:31:07Z</time>
      </trkpt>
      <trkpt lat="44.4336" lon="5.43849">
        <ele>1436.8</ele>
        <time>2023-07-24T09:31:08Z</time>
      </trkpt>
      <trkpt lat="44.4336" lon="5.4385">
        <ele>1436.8</ele>
        <time>2023-07-24T09:31:09Z</time>
      </trkpt>
      <trkpt lat="44.43362" lon="5.43854">
        <ele>1436.9</ele>
        <time>2023-07-24T09:31:10Z</time>
      </trkpt>
      <trkpt lat="44.43362" lon="5.43855">
        <ele>1436.9</ele>
        <time>2023-07-24T09:31:11Z</time>
      </trkpt>
      <trkpt lat="44.43364" lon="5.43859">
        <ele>1437</ele>
        <time>2023-07-24T09:31:12Z</time>
      </trkpt>
      <trkpt lat="44.43364" lon="5.43861">
        <ele>1437.1</ele>
        <time>2023-07-24T09:31:13Z</time>
      </trkpt>
      <trkpt lat="44.43365" lon="5.43865">
        <ele>1437.2</ele>
        <time>2023-07-24T09:31:14Z</time>
      </trkpt>
      <trkpt lat="44.43365" lon="5.43866">
        <ele>1437.3</ele>
        <time>2023-07-24T09:31:15Z</time>
      </trkpt>
      <trkpt lat="44.43365" lon="5.4387">
        <ele>1437.4</ele>
        <time>2023-07-24T09:31:16Z</time>
      </trkpt>
      <trkpt lat="44.43365" lon="5.43875">
        <ele>1437.6</ele>
        <time>2023-07-24T09:31:17Z</time>
      </trkpt>
      <trkpt lat="44.43364" lon="5.43879">
        <ele>1437.8</ele>
        <time>2023-07-24T09:31:18Z</time>
      </trkpt>
      <trkpt lat="44.43364" lon="5.43884">
        <ele>1438.1</ele>
        <time>2023-07-24T09:31:19Z</time>
      </trkpt>
      <trkpt lat="44.43364" lon="5.43889">
        <ele>1438.3</ele>
        <time>2023-07-24T09:31:20Z</time>
      </trkpt>
      <trkpt lat="44.43363" lon="5.43894">
        <ele>1438.6</ele>
        <time>2023-07-24T09:31:21Z</time>
      </trkpt>
      <trkpt lat="44.43363" lon="5.43899">
        <ele>1438.9</ele>
        <time>2023-07-24T09:31:22Z</time>
      </trkpt>
      <trkpt lat="44.43363" lon="5.43903">
        <ele>1439.1</ele>
        <time>2023-07-24T09:31:23Z</time>
      </trkpt>
      <trkpt lat="44.43362" lon="5.43907">
        <ele>1439.4</ele>
        <time>2023-07-24T09:31:24Z</time>
      </trkpt>
      <trkpt lat="44.43361" lon="5.43911">
        <ele>1439.6</ele>
        <time>2023-07-24T09:31:25Z</time>
      </trkpt>
      <trkpt lat="44.4336" lon="5.43915">
        <ele>1439.8</ele>
        <time>2023-07-24T09:31:26Z</time>
      </trkpt>
      <trkpt lat="44.4336" lon="5.43919">
        <ele>1440.1</ele>
        <time>2023-07-24T09:31:27Z</time>
      </trkpt>
      <trkpt lat="44.43359" lon="5.43923">
        <ele>1440.4</ele>
        <time>2023-07-24T09:31:28Z</time>
      </trkpt>
      <trkpt lat="44.43359" lon="5.43928">
        <ele>1440.7</ele>
        <time>2023-07-24T09:31:29Z</time>
      </trkpt>
      <trkpt lat="44.43359" lon="5.43932">
        <ele>1441</ele>
        <time>2023-07-24T09:31:30Z</time>
      </trkpt>
      <trkpt lat="44.43358" lon="5.43937">
        <ele>1441.2</ele>
        <time>2023-07-24T09:31:31Z</time>
      </trkpt>
      <trkpt lat="44.43357" lon="5.43941">
        <ele>1441.5</ele>
        <time>2023-07-24T09:31:32Z</time>
      </trkpt>
      <trkpt lat="44.43356" lon="5.43945">
        <ele>1441.8</ele>
        <time>2023-07-24T09:31:33Z</time>
      </trkpt>
      <trkpt lat="44.43356" lon="5.43949">
        <ele>1442</ele>
        <time>2023-07-24T09:31:34Z</time>
      </trkpt>
      <trkpt lat="44.43355" lon="5.43953">
        <ele>1442.2</ele>
        <time>2023-07-24T09:31:35Z</time>
      </trkpt>
      <trkpt lat="44.43354" lon="5.43957">
        <ele>1442.4</ele>
        <time>2023-07-24T09:31:36Z</time>
      </trkpt>
      <trkpt lat="44.43353" lon="5.43961">
        <ele>1442.6</ele>
        <time>2023-07-24T09:31:37Z</time>
      </trkpt>
      <trkpt lat="44.4335" lon="5.43969">
        <ele>1443</ele>
        <time>2023-07-24T09:31:39Z</time>
      </trkpt>
      <trkpt lat="44.43349" lon="5.43973">
        <ele>1443</ele>
        <time>2023-07-24T09:31:40Z</time>
      </trkpt>
      <trkpt lat="44.43348" lon="5.43978">
        <ele>1443</ele>
        <time>2023-07-24T09:31:41Z</time>
      </trkpt>
      <trkpt lat="44.43347" lon="5.43982">
        <ele>1442.8</ele>
        <time>2023-07-24T09:31:42Z</time>
      </trkpt>
      <trkpt lat="44.43346" lon="5.43986">
        <ele>1442.5</ele>
        <time>2023-07-24T09:31:43Z</time>
      </trkpt>
      <trkpt lat="44.43345" lon="5.43991">
        <ele>1442.1</ele>
        <time>2023-07-24T09:31:44Z</time>
      </trkpt>
      <trkpt lat="44.43345" lon="5.43993">
        <ele>1441.9</ele>
        <time>2023-07-24T09:31:45Z</time>
      </trkpt>
      <trkpt lat="44.43345" lon="5.43997">
        <ele>1441.9</ele>
        <time>2023-07-24T09:31:46Z</time>
      </trkpt>
      <trkpt lat="44.43345" lon="5.44002">
        <ele>1442.1</ele>
        <time>2023-07-24T09:31:47Z</time>
      </trkpt>
      <trkpt lat="44.43345" lon="5.44004">
        <ele>1442.2</ele>
        <time>2023-07-24T09:31:48Z</time>
      </trkpt>
      <trkpt lat="44.43344" lon="5.44007">
        <ele>1442.3</ele>
        <time>2023-07-24T09:31:49Z</time>
      </trkpt>
      <trkpt lat="44.43344" lon="5.44009">
        <ele>1442.4</ele>
        <time>2023-07-24T09:31:50Z</time>
      </trkpt>
      <trkpt lat="44.43344" lon="5.44009">
        <ele>1442.4</ele>
        <time>2023-07-24T09:31:51Z</time>
      </trkpt>
      <trkpt lat="44.43345" lon="5.4401">
        <ele>1442.4</ele>
        <time>2023-07-24T09:31:52Z</time>
      </trkpt>
      <trkpt lat="44.43345" lon="5.44008">
        <ele>1442.5</ele>
        <time>2023-07-24T09:31:53Z</time>
      </trkpt>
      <trkpt lat="44.43345" lon="5.44007">
        <ele>1442.5</ele>
        <time>2023-07-24T09:31:54Z</time>
      </trkpt>
      <trkpt lat="44.43344" lon="5.44006">
        <ele>1442.6</ele>
        <time>2023-07-24T09:31:55Z</time>
      </trkpt>
      <trkpt lat="44.43344" lon="5.44006">
        <ele>1442.6</ele>
        <time>2023-07-24T09:31:56Z</time>
      </trkpt>
      <trkpt lat="44.43344" lon="5.44006">
        <ele>1442.6</ele>
        <time>2023-07-24T09:31:57Z</time>
      </trkpt>
      <trkpt lat="44.43344" lon="5.44005">
        <ele>1442.6</ele>
        <time>2023-07-24T09:31:58Z</time>
      </trkpt>
      <trkpt lat="44.43344" lon="5.44005">
        <ele>1442.6</ele>
        <time>2023-07-24T09:31:59Z</time>
      </trkpt>
      <trkpt lat="44.43344" lon="5.44005">
        <ele>1442.6</ele>
        <time>2023-07-24T09:32:00Z</time>
      </trkpt>
      <trkpt lat="44.43343" lon="5.44004">
        <ele>1442.7</ele>
        <time>2023-07-24T09:32:01Z</time>
      </trkpt>
      <trkpt lat="44.43343" lon="5.44004">
        <ele>1442.7</ele>
        <time>2023-07-24T09:32:02Z</time>
      </trkpt>
      <trkpt lat="44.43343" lon="5.44004">
        <ele>1442.7</ele>
        <time>2023-07-24T09:32:03Z</time>
      </trkpt>
      <trkpt lat="44.43343" lon="5.44004">
        <ele>1442.7</ele>
        <time>2023-07-24T09:32:04Z</time>
      </trkpt>
      <trkpt lat="44.43343" lon="5.44004">
        <ele>1442.7</ele>
        <time>2023-07-24T09:32:05Z</time>
      </trkpt>
      <trkpt lat="44.43343" lon="5.44005">
        <ele>1442.7</ele>
        <time>2023-07-24T09:32:06Z</time>
      </trkpt>
      <trkpt lat="44.43343" lon="5.44005">
        <ele>1442.7</ele>
        <time>2023-07-24T09:32:07Z</time>
      </trkpt>
      <trkpt lat="44.43343" lon="5.44004">
        <ele>1442.8</ele>
        <time>2023-07-24T09:32:08Z</time>
      </trkpt>
      <trkpt lat="44.43344" lon="5.44003">
        <ele>1442.8</ele>
        <time>2023-07-24T09:32:09Z</time>
      </trkpt>
      <trkpt lat="44.43343" lon="5.44001">
        <ele>1442.9</ele>
        <time>2023-07-24T09:32:10Z</time>
      </trkpt>
      <trkpt lat="44.43343" lon="5.44">
        <ele>1442.9</ele>
        <time>2023-07-24T09:32:11Z</time>
      </trkpt>
      <trkpt lat="44.43342" lon="5.43999">
        <ele>1443</ele>
        <time>2023-07-24T09:32:12Z</time>
      </trkpt>
      <trkpt lat="44.43342" lon="5.43999">
        <ele>1443</ele>
        <time>2023-07-24T09:32:13Z</time>
      </trkpt>
      <trkpt lat="44.43342" lon="5.43999">
        <ele>1443</ele>
        <time>2023-07-24T09:32:14Z</time>
      </trkpt>
      <trkpt lat="44.43341" lon="5.43997">
        <ele>1443</ele>
        <time>2023-07-24T09:32:15Z</time>
      </trkpt>
      <trkpt lat="44.4334" lon="5.43995">
        <ele>1443.1</ele>
        <time>2023-07-24T09:32:16Z</time>
      </trkpt>
      <trkpt lat="44.4334" lon="5.43995">
        <ele>1443.1</ele>
        <time>2023-07-24T09:32:17Z</time>
      </trkpt>
      <trkpt lat="44.4334" lon="5.43995">
        <ele>1443.1</ele>
        <time>2023-07-24T09:32:18Z</time>
      </trkpt>
      <trkpt lat="44.4334" lon="5.43996">
        <ele>1443.1</ele>
        <time>2023-07-24T09:32:19Z</time>
      </trkpt>
      <trkpt lat="44.4334" lon="5.43997">
        <ele>1443.2</ele>
        <time>2023-07-24T09:32:20Z</time>
      </trkpt>
      <trkpt lat="44.43341" lon="5.43998">
        <ele>1443.2</ele>
        <time>2023-07-24T09:32:21Z</time>
      </trkpt>
      <trkpt lat="44.43341" lon="5.44">
        <ele>1443.2</ele>
        <time>2023-07-24T09:32:22Z</time>
      </trkpt>
      <trkpt lat="44.4334" lon="5.44001">
        <ele>1443.2</ele>
        <time>2023-07-24T09:32:23Z</time>
      </trkpt>
      <trkpt lat="44.4334" lon="5.44003">
        <ele>1443.3</ele>
        <time>2023-07-24T09:32:24Z</time>
      </trkpt>
      <trkpt lat="44.4334" lon="5.44004">
        <ele>1443.3</ele>
        <time>2023-07-24T09:32:25Z</time>
      </trkpt>
      <trkpt lat="44.4334" lon="5.44004">
        <ele>1443.3</ele>
        <time>2023-07-24T09:32:27Z</time>
      </trkpt>
      <trkpt lat="44.43341" lon="5.44006">
        <ele>1443.3</ele>
        <time>2023-07-24T09:32:28Z</time>
      </trkpt>
      <trkpt lat="44.4334" lon="5.44007">
        <ele>1443.3</ele>
        <time>2023-07-24T09:32:29Z</time>
      </trkpt>
      <trkpt lat="44.4334" lon="5.44006">
        <ele>1443.3</ele>
        <time>2023-07-24T09:32:30Z</time>
      </trkpt>
      <trkpt lat="44.4334" lon="5.44007">
        <ele>1443.3</ele>
        <time>2023-07-24T09:32:31Z</time>
      </trkpt>
      <trkpt lat="44.4334" lon="5.44007">
        <ele>1443.3</ele>
        <time>2023-07-24T09:32:32Z</time>
      </trkpt>
      <trkpt lat="44.4334" lon="5.44006">
        <ele>1443.3</ele>
        <time>2023-07-24T09:32:33Z</time>
      </trkpt>
      <trkpt lat="44.4334" lon="5.44006">
        <ele>1443.3</ele>
        <time>2023-07-24T09:32:34Z</time>
      </trkpt>
      <trkpt lat="44.4334" lon="5.44006">
        <ele>1443.4</ele>
        <time>2023-07-24T09:32:35Z</time>
      </trkpt>
      <trkpt lat="44.4334" lon="5.44006">
        <ele>1443.4</ele>
        <time>2023-07-24T09:32:36Z</time>
      </trkpt>
      <trkpt lat="44.4334" lon="5.44006">
        <ele>1443.4</ele>
        <time>2023-07-24T09:32:37Z</time>
      </trkpt>
      <trkpt lat="44.43339" lon="5.44006">
        <ele>1443.4</ele>
        <time>2023-07-24T09:32:38Z</time>
      </trkpt>
      <trkpt lat="44.43339" lon="5.44006">
        <ele>1443.4</ele>
        <time>2023-07-24T09:32:39Z</time>
      </trkpt>
      <trkpt lat="44.43339" lon="5.44002">
        <ele>1443.4</ele>
        <time>2023-07-24T09:32:44Z</time>
      </trkpt>
      <trkpt lat="44.4334" lon="5.44">
        <ele>1443.4</ele>
        <time>2023-07-24T09:32:45Z</time>
      </trkpt>
      <trkpt lat="44.43341" lon="5.43999">
        <ele>1443.4</ele>
        <time>2023-07-24T09:32:46Z</time>
      </trkpt>
      <trkpt lat="44.43342" lon="5.43997">
        <ele>1443.5</ele>
        <time>2023-07-24T09:32:47Z</time>
      </trkpt>
      <trkpt lat="44.43342" lon="5.43997">
        <ele>1443.5</ele>
        <time>2023-07-24T09:32:48Z</time>
      </trkpt>
      <trkpt lat="44.43342" lon="5.43998">
        <ele>1443.5</ele>
        <time>2023-07-24T09:32:49Z</time>
      </trkpt>
      <trkpt lat="44.43342" lon="5.43998">
        <ele>1443.5</ele>
        <time>2023-07-24T09:32:50Z</time>
      </trkpt>
      <trkpt lat="44.43342" lon="5.43998">
        <ele>1443.5</ele>
        <time>2023-07-24T09:32:51Z</time>
      </trkpt>
      <trkpt lat="44.43342" lon="5.43999">
        <ele>1443.5</ele>
        <time>2023-07-24T09:32:52Z</time>
      </trkpt>
      <trkpt lat="44.43341" lon="5.43999">
        <ele>1443.5</ele>
        <time>2023-07-24T09:32:53Z</time>
      </trkpt>
      <trkpt lat="44.43341" lon="5.43999">
        <ele>1443.5</ele>
        <time>2023-07-24T09:32:54Z</time>
      </trkpt>
      <trkpt lat="44.43341" lon="5.43999">
        <ele>1443.5</ele>
        <time>2023-07-24T09:32:55Z</time>
      </trkpt>
      <trkpt lat="44.43341" lon="5.43999">
        <ele>1443.5</ele>
        <time>2023-07-24T09:32:56Z</time>
      </trkpt>
      <trkpt lat="44.43341" lon="5.43999">
        <ele>1443.5</ele>
        <time>2023-07-24T09:32:57Z</time>
      </trkpt>
      <trkpt lat="44.43341" lon="5.43999">
        <ele>1443.5</ele>
        <time>2023-07-24T09:32:58Z</time>
      </trkpt>
      <trkpt lat="44.43341" lon="5.43999">
        <ele>1443.5</ele>
        <time>2023-07-24T09:33:00Z</time>
      </trkpt>
      <trkpt lat="44.43338" lon="5.44003">
        <ele>1443.5</ele>
        <time>2023-07-24T09:33:06Z</time>
      </trkpt>
      <trkpt lat="44.43338" lon="5.44007">
        <ele>1443.5</ele>
        <time>2023-07-24T09:33:07Z</time>
      </trkpt>
      <trkpt lat="44.43338" lon="5.44012">
        <ele>1443.6</ele>
        <time>2023-07-24T09:33:08Z</time>
      </trkpt>
      <trkpt lat="44.43338" lon="5.44016">
        <ele>1443.6</ele>
        <time>2023-07-24T09:33:09Z</time>
      </trkpt>
      <trkpt lat="44.43338" lon="5.44021">
        <ele>1443.6</ele>
        <time>2023-07-24T09:33:10Z</time>
      </trkpt>
      <trkpt lat="44.43338" lon="5.44025">
        <ele>1443.7</ele>
        <time>2023-07-24T09:33:11Z</time>
      </trkpt>
      <trkpt lat="44.43337" lon="5.44029">
        <ele>1443.7</ele>
        <time>2023-07-24T09:33:12Z</time>
      </trkpt>
      <trkpt lat="44.43337" lon="5.44034">
        <ele>1443.8</ele>
        <time>2023-07-24T09:33:13Z</time>
      </trkpt>
      <trkpt lat="44.43337" lon="5.44038">
        <ele>1443.8</ele>
        <time>2023-07-24T09:33:14Z</time>
      </trkpt>
      <trkpt lat="44.43337" lon="5.44042">
        <ele>1443.9</ele>
        <time>2023-07-24T09:33:15Z</time>
      </trkpt>
      <trkpt lat="44.43337" lon="5.44047">
        <ele>1444</ele>
        <time>2023-07-24T09:33:16Z</time>
      </trkpt>
      <trkpt lat="44.43337" lon="5.44051">
        <ele>1444.1</ele>
        <time>2023-07-24T09:33:17Z</time>
      </trkpt>
      <trkpt lat="44.43337" lon="5.44056">
        <ele>1444.2</ele>
        <time>2023-07-24T09:33:18Z</time>
      </trkpt>
      <trkpt lat="44.43337" lon="5.44058">
        <ele>1444.3</ele>
        <time>2023-07-24T09:33:19Z</time>
      </trkpt>
      <trkpt lat="44.43336" lon="5.44063">
        <ele>1444.4</ele>
        <time>2023-07-24T09:33:20Z</time>
      </trkpt>
      <trkpt lat="44.43336" lon="5.44065">
        <ele>1444.5</ele>
        <time>2023-07-24T09:33:21Z</time>
      </trkpt>
      <trkpt lat="44.43335" lon="5.44069">
        <ele>1444.6</ele>
        <time>2023-07-24T09:33:22Z</time>
      </trkpt>
      <trkpt lat="44.43334" lon="5.4407">
        <ele>1444.6</ele>
        <time>2023-07-24T09:33:23Z</time>
      </trkpt>
      <trkpt lat="44.43334" lon="5.44072">
        <ele>1444.7</ele>
        <time>2023-07-24T09:33:24Z</time>
      </trkpt>
      <trkpt lat="44.43334" lon="5.44073">
        <ele>1444.7</ele>
        <time>2023-07-24T09:33:25Z</time>
      </trkpt>
      <trkpt lat="44.43334" lon="5.44074">
        <ele>1444.7</ele>
        <time>2023-07-24T09:33:26Z</time>
      </trkpt>
      <trkpt lat="44.43334" lon="5.44074">
        <ele>1444.7</ele>
        <time>2023-07-24T09:33:27Z</time>
      </trkpt>
      <trkpt lat="44.43334" lon="5.44075">
        <ele>1444.8</ele>
        <time>2023-07-24T09:33:28Z</time>
      </trkpt>
      <trkpt lat="44.43334" lon="5.44076">
        <ele>1444.8</ele>
        <time>2023-07-24T09:33:29Z</time>
      </trkpt>
      <trkpt lat="44.43334" lon="5.44077">
        <ele>1444.8</ele>
        <time>2023-07-24T09:33:30Z</time>
      </trkpt>
      <trkpt lat="44.43334" lon="5.44077">
        <ele>1444.8</ele>
        <time>2023-07-24T09:33:31Z</time>
      </trkpt>
      <trkpt lat="44.43333" lon="5.44078">
        <ele>1444.8</ele>
        <time>2023-07-24T09:33:32Z</time>
      </trkpt>
      <trkpt lat="44.43333" lon="5.44079">
        <ele>1444.9</ele>
        <time>2023-07-24T09:33:33Z</time>
      </trkpt>
      <trkpt lat="44.43333" lon="5.4408">
        <ele>1444.9</ele>
        <time>2023-07-24T09:33:34Z</time>
      </trkpt>
      <trkpt lat="44.43333" lon="5.4408">
        <ele>1444.9</ele>
        <time>2023-07-24T09:33:35Z</time>
      </trkpt>
      <trkpt lat="44.43333" lon="5.44081">
        <ele>1444.9</ele>
        <time>2023-07-24T09:33:36Z</time>
      </trkpt>
      <trkpt lat="44.43333" lon="5.44082">
        <ele>1444.9</ele>
        <time>2023-07-24T09:33:37Z</time>
      </trkpt>
      <trkpt lat="44.43333" lon="5.44083">
        <ele>1444.9</ele>
        <time>2023-07-24T09:33:38Z</time>
      </trkpt>
      <trkpt lat="44.43333" lon="5.44083">
        <ele>1445</ele>
        <time>2023-07-24T09:35:26Z</time>
      </trkpt>
      <trkpt lat="44.43333" lon="5.44084">
        <ele>1445</ele>
        <time>2023-07-24T09:35:27Z</time>
      </trkpt>
      <trkpt lat="44.43333" lon="5.44085">
        <ele>1445</ele>
        <time>2023-07-24T09:35:28Z</time>
      </trkpt>
      <trkpt lat="44.43333" lon="5.4409">
        <ele>1445.1</ele>
        <time>2023-07-24T09:35:29Z</time>
      </trkpt>
      <trkpt lat="44.43332" lon="5.44094">
        <ele>1445.2</ele>
        <time>2023-07-24T09:35:30Z</time>
      </trkpt>
      <trkpt lat="44.43331" lon="5.44099">
        <ele>1445.3</ele>
        <time>2023-07-24T09:35:31Z</time>
      </trkpt>
      <trkpt lat="44.43331" lon="5.44104">
        <ele>1445.4</ele>
        <time>2023-07-24T09:35:32Z</time>
      </trkpt>
      <trkpt lat="44.4333" lon="5.44109">
        <ele>1445.4</ele>
        <time>2023-07-24T09:35:33Z</time>
      </trkpt>
      <trkpt lat="44.43329" lon="5.44113">
        <ele>1445.6</ele>
        <time>2023-07-24T09:35:34Z</time>
      </trkpt>
      <trkpt lat="44.43328" lon="5.4412">
        <ele>1445.7</ele>
        <time>2023-07-24T09:35:35Z</time>
      </trkpt>
      <trkpt lat="44.43328" lon="5.44126">
        <ele>1445.8</ele>
        <time>2023-07-24T09:35:36Z</time>
      </trkpt>
      <trkpt lat="44.43327" lon="5.44132">
        <ele>1446</ele>
        <time>2023-07-24T09:35:37Z</time>
      </trkpt>
      <trkpt lat="44.43326" lon="5.44136">
        <ele>1446.1</ele>
        <time>2023-07-24T09:35:38Z</time>
      </trkpt>
      <trkpt lat="44.43325" lon="5.4414">
        <ele>1446.2</ele>
        <time>2023-07-24T09:35:39Z</time>
      </trkpt>
      <trkpt lat="44.43324" lon="5.44144">
        <ele>1446.2</ele>
        <time>2023-07-24T09:35:40Z</time>
      </trkpt>
      <trkpt lat="44.43323" lon="5.44148">
        <ele>1446.3</ele>
        <time>2023-07-24T09:35:41Z</time>
      </trkpt>
      <trkpt lat="44.43322" lon="5.44152">
        <ele>1446.4</ele>
        <time>2023-07-24T09:35:42Z</time>
      </trkpt>
      <trkpt lat="44.4332" lon="5.44157">
        <ele>1446.6</ele>
        <time>2023-07-24T09:35:43Z</time>
      </trkpt>
      <trkpt lat="44.4332" lon="5.44158">
        <ele>1446.6</ele>
        <time>2023-07-24T09:35:44Z</time>
      </trkpt>
      <trkpt lat="44.43319" lon="5.44162">
        <ele>1446.7</ele>
        <time>2023-07-24T09:35:45Z</time>
      </trkpt>
      <trkpt lat="44.43317" lon="5.44166">
        <ele>1446.9</ele>
        <time>2023-07-24T09:35:46Z</time>
      </trkpt>
      <trkpt lat="44.43317" lon="5.44168">
        <ele>1446.9</ele>
        <time>2023-07-24T09:35:47Z</time>
      </trkpt>
      <trkpt lat="44.43316" lon="5.44172">
        <ele>1447.1</ele>
        <time>2023-07-24T09:35:48Z</time>
      </trkpt>
      <trkpt lat="44.43316" lon="5.44174">
        <ele>1447.1</ele>
        <time>2023-07-24T09:35:49Z</time>
      </trkpt>
      <trkpt lat="44.43316" lon="5.44179">
        <ele>1447.3</ele>
        <time>2023-07-24T09:35:50Z</time>
      </trkpt>
      <trkpt lat="44.43316" lon="5.4418">
        <ele>1447.4</ele>
        <time>2023-07-24T09:35:51Z</time>
      </trkpt>
      <trkpt lat="44.43314" lon="5.44185">
        <ele>1447.5</ele>
        <time>2023-07-24T09:35:52Z</time>
      </trkpt>
      <trkpt lat="44.43313" lon="5.44186">
        <ele>1447.6</ele>
        <time>2023-07-24T09:35:53Z</time>
      </trkpt>
      <trkpt lat="44.43311" lon="5.44189">
        <ele>1447.8</ele>
        <time>2023-07-24T09:35:54Z</time>
      </trkpt>
      <trkpt lat="44.43311" lon="5.4419">
        <ele>1447.8</ele>
        <time>2023-07-24T09:35:55Z</time>
      </trkpt>
      <trkpt lat="44.4331" lon="5.44194">
        <ele>1447.9</ele>
        <time>2023-07-24T09:35:56Z</time>
      </trkpt>
      <trkpt lat="44.4331" lon="5.44195">
        <ele>1448</ele>
        <time>2023-07-24T09:35:57Z</time>
      </trkpt>
      <trkpt lat="44.43308" lon="5.44199">
        <ele>1448.1</ele>
        <time>2023-07-24T09:35:58Z</time>
      </trkpt>
      <trkpt lat="44.43308" lon="5.442">
        <ele>1448.2</ele>
        <time>2023-07-24T09:35:59Z</time>
      </trkpt>
      <trkpt lat="44.43307" lon="5.44205">
        <ele>1448.3</ele>
        <time>2023-07-24T09:36:00Z</time>
      </trkpt>
      <trkpt lat="44.43307" lon="5.44206">
        <ele>1448.3</ele>
        <time>2023-07-24T09:36:01Z</time>
      </trkpt>
      <trkpt lat="44.43306" lon="5.44211">
        <ele>1448.4</ele>
        <time>2023-07-24T09:36:02Z</time>
      </trkpt>
      <trkpt lat="44.43306" lon="5.44213">
        <ele>1448.5</ele>
        <time>2023-07-24T09:36:03Z</time>
      </trkpt>
      <trkpt lat="44.43304" lon="5.44217">
        <ele>1448.5</ele>
        <time>2023-07-24T09:36:04Z</time>
      </trkpt>
      <trkpt lat="44.43304" lon="5.44219">
        <ele>1448.6</ele>
        <time>2023-07-24T09:36:05Z</time>
      </trkpt>
      <trkpt lat="44.43302" lon="5.44223">
        <ele>1448.6</ele>
        <time>2023-07-24T09:36:06Z</time>
      </trkpt>
      <trkpt lat="44.43301" lon="5.44224">
        <ele>1448.6</ele>
        <time>2023-07-24T09:36:07Z</time>
      </trkpt>
      <trkpt lat="44.433" lon="5.44229">
        <ele>1448.6</ele>
        <time>2023-07-24T09:36:08Z</time>
      </trkpt>
      <trkpt lat="44.43299" lon="5.4423">
        <ele>1448.6</ele>
        <time>2023-07-24T09:36:09Z</time>
      </trkpt>
      <trkpt lat="44.43298" lon="5.44235">
        <ele>1448.6</ele>
        <time>2023-07-24T09:36:10Z</time>
      </trkpt>
      <trkpt lat="44.43298" lon="5.44236">
        <ele>1448.6</ele>
        <time>2023-07-24T09:36:11Z</time>
      </trkpt>
      <trkpt lat="44.43296" lon="5.44241">
        <ele>1448.5</ele>
        <time>2023-07-24T09:36:12Z</time>
      </trkpt>
      <trkpt lat="44.43296" lon="5.44243">
        <ele>1448.5</ele>
        <time>2023-07-24T09:36:13Z</time>
      </trkpt>
      <trkpt lat="44.43295" lon="5.44247">
        <ele>1448.4</ele>
        <time>2023-07-24T09:36:14Z</time>
      </trkpt>
      <trkpt lat="44.43293" lon="5.44251">
        <ele>1448.3</ele>
        <time>2023-07-24T09:36:15Z</time>
      </trkpt>
      <trkpt lat="44.4329" lon="5.44255">
        <ele>1448.1</ele>
        <time>2023-07-24T09:36:16Z</time>
      </trkpt>
      <trkpt lat="44.43288" lon="5.44261">
        <ele>1447.8</ele>
        <time>2023-07-24T09:36:17Z</time>
      </trkpt>
      <trkpt lat="44.43287" lon="5.44266">
        <ele>1447.5</ele>
        <time>2023-07-24T09:36:18Z</time>
      </trkpt>
      <trkpt lat="44.43286" lon="5.44271">
        <ele>1447.2</ele>
        <time>2023-07-24T09:36:19Z</time>
      </trkpt>
      <trkpt lat="44.43284" lon="5.44277">
        <ele>1446.9</ele>
        <time>2023-07-24T09:36:20Z</time>
      </trkpt>
      <trkpt lat="44.43283" lon="5.44282">
        <ele>1446.6</ele>
        <time>2023-07-24T09:36:21Z</time>
      </trkpt>
      <trkpt lat="44.43281" lon="5.44288">
        <ele>1446.3</ele>
        <time>2023-07-24T09:36:22Z</time>
      </trkpt>
      <trkpt lat="44.43279" lon="5.44293">
        <ele>1446.1</ele>
        <time>2023-07-24T09:36:23Z</time>
      </trkpt>
      <trkpt lat="44.43276" lon="5.44298">
        <ele>1445.8</ele>
        <time>2023-07-24T09:36:24Z</time>
      </trkpt>
      <trkpt lat="44.43274" lon="5.44303">
        <ele>1445.5</ele>
        <time>2023-07-24T09:36:25Z</time>
      </trkpt>
      <trkpt lat="44.43272" lon="5.44309">
        <ele>1445.2</ele>
        <time>2023-07-24T09:36:26Z</time>
      </trkpt>
      <trkpt lat="44.4327" lon="5.44315">
        <ele>1444.9</ele>
        <time>2023-07-24T09:36:27Z</time>
      </trkpt>
      <trkpt lat="44.43268" lon="5.44322">
        <ele>1444.4</ele>
        <time>2023-07-24T09:36:28Z</time>
      </trkpt>
      <trkpt lat="44.43267" lon="5.4433">
        <ele>1443.9</ele>
        <time>2023-07-24T09:36:29Z</time>
      </trkpt>
      <trkpt lat="44.43266" lon="5.44337">
        <ele>1443.5</ele>
        <time>2023-07-24T09:36:30Z</time>
      </trkpt>
      <trkpt lat="44.43265" lon="5.44343">
        <ele>1443.2</ele>
        <time>2023-07-24T09:36:31Z</time>
      </trkpt>
      <trkpt lat="44.43264" lon="5.44349">
        <ele>1442.9</ele>
        <time>2023-07-24T09:36:32Z</time>
      </trkpt>
      <trkpt lat="44.43263" lon="5.44354">
        <ele>1442.8</ele>
        <time>2023-07-24T09:36:33Z</time>
      </trkpt>
      <trkpt lat="44.43263" lon="5.44359">
        <ele>1442.5</ele>
        <time>2023-07-24T09:36:34Z</time>
      </trkpt>
      <trkpt lat="44.43261" lon="5.44365">
        <ele>1442.2</ele>
        <time>2023-07-24T09:36:35Z</time>
      </trkpt>
      <trkpt lat="44.43261" lon="5.4437">
        <ele>1441.8</ele>
        <time>2023-07-24T09:36:36Z</time>
      </trkpt>
      <trkpt lat="44.4326" lon="5.44376">
        <ele>1441.5</ele>
        <time>2023-07-24T09:36:37Z</time>
      </trkpt>
      <trkpt lat="44.43259" lon="5.44383">
        <ele>1441.1</ele>
        <time>2023-07-24T09:36:38Z</time>
      </trkpt>
      <trkpt lat="44.43258" lon="5.44389">
        <ele>1440.8</ele>
        <time>2023-07-24T09:36:39Z</time>
      </trkpt>
      <trkpt lat="44.43257" lon="5.44395">
        <ele>1440.4</ele>
        <time>2023-07-24T09:36:40Z</time>
      </trkpt>
      <trkpt lat="44.43255" lon="5.44401">
        <ele>1440.1</ele>
        <time>2023-07-24T09:36:41Z</time>
      </trkpt>
      <trkpt lat="44.43254" lon="5.44407">
        <ele>1439.7</ele>
        <time>2023-07-24T09:36:42Z</time>
      </trkpt>
      <trkpt lat="44.43253" lon="5.44413">
        <ele>1439.4</ele>
        <time>2023-07-24T09:36:43Z</time>
      </trkpt>
      <trkpt lat="44.43252" lon="5.44419">
        <ele>1439.1</ele>
        <time>2023-07-24T09:36:44Z</time>
      </trkpt>
      <trkpt lat="44.43251" lon="5.44424">
        <ele>1438.8</ele>
        <time>2023-07-24T09:36:45Z</time>
      </trkpt>
      <trkpt lat="44.4325" lon="5.4443">
        <ele>1438.5</ele>
        <time>2023-07-24T09:36:46Z</time>
      </trkpt>
      <trkpt lat="44.43249" lon="5.44436">
        <ele>1438.1</ele>
        <time>2023-07-24T09:36:47Z</time>
      </trkpt>
      <trkpt lat="44.43247" lon="5.44442">
        <ele>1437.8</ele>
        <time>2023-07-24T09:36:48Z</time>
      </trkpt>
      <trkpt lat="44.43246" lon="5.44447">
        <ele>1437.5</ele>
        <time>2023-07-24T09:36:49Z</time>
      </trkpt>
      <trkpt lat="44.43245" lon="5.44452">
        <ele>1437.1</ele>
        <time>2023-07-24T09:36:50Z</time>
      </trkpt>
      <trkpt lat="44.43244" lon="5.44458">
        <ele>1436.8</ele>
        <time>2023-07-24T09:36:51Z</time>
      </trkpt>
      <trkpt lat="44.43243" lon="5.44463">
        <ele>1436.4</ele>
        <time>2023-07-24T09:36:52Z</time>
      </trkpt>
      <trkpt lat="44.43242" lon="5.44468">
        <ele>1436.1</ele>
        <time>2023-07-24T09:36:53Z</time>
      </trkpt>
      <trkpt lat="44.43242" lon="5.44472">
        <ele>1435.8</ele>
        <time>2023-07-24T09:36:54Z</time>
      </trkpt>
      <trkpt lat="44.43241" lon="5.44477">
        <ele>1435.4</ele>
        <time>2023-07-24T09:36:55Z</time>
      </trkpt>
      <trkpt lat="44.4324" lon="5.44482">
        <ele>1435.1</ele>
        <time>2023-07-24T09:36:56Z</time>
      </trkpt>
      <trkpt lat="44.43239" lon="5.44487">
        <ele>1434.7</ele>
        <time>2023-07-24T09:36:57Z</time>
      </trkpt>
      <trkpt lat="44.43239" lon="5.44491">
        <ele>1434.3</ele>
        <time>2023-07-24T09:36:58Z</time>
      </trkpt>
      <trkpt lat="44.43238" lon="5.44495">
        <ele>1433.9</ele>
        <time>2023-07-24T09:36:59Z</time>
      </trkpt>
      <trkpt lat="44.43237" lon="5.44499">
        <ele>1433.5</ele>
        <time>2023-07-24T09:37:00Z</time>
      </trkpt>
      <trkpt lat="44.43236" lon="5.44503">
        <ele>1433.2</ele>
        <time>2023-07-24T09:37:01Z</time>
      </trkpt>
      <trkpt lat="44.43235" lon="5.44508">
        <ele>1432.6</ele>
        <time>2023-07-24T09:37:02Z</time>
      </trkpt>
      <trkpt lat="44.43234" lon="5.4451">
        <ele>1432.5</ele>
        <time>2023-07-24T09:37:03Z</time>
      </trkpt>
      <trkpt lat="44.43233" lon="5.44515">
        <ele>1431.9</ele>
        <time>2023-07-24T09:37:04Z</time>
      </trkpt>
      <trkpt lat="44.43233" lon="5.44517">
        <ele>1431.7</ele>
        <time>2023-07-24T09:37:05Z</time>
      </trkpt>
      <trkpt lat="44.43233" lon="5.4452">
        <ele>1431.3</ele>
        <time>2023-07-24T09:37:06Z</time>
      </trkpt>
      <trkpt lat="44.43232" lon="5.44524">
        <ele>1430.9</ele>
        <time>2023-07-24T09:37:07Z</time>
      </trkpt>
      <trkpt lat="44.43231" lon="5.44526">
        <ele>1430.6</ele>
        <time>2023-07-24T09:37:08Z</time>
      </trkpt>
      <trkpt lat="44.43229" lon="5.44526">
        <ele>1430.5</ele>
        <time>2023-07-24T09:37:09Z</time>
      </trkpt>
      <trkpt lat="44.43225" lon="5.44525">
        <ele>1430.1</ele>
        <time>2023-07-24T09:37:10Z</time>
      </trkpt>
      <trkpt lat="44.43223" lon="5.44525">
        <ele>1430</ele>
        <time>2023-07-24T09:37:11Z</time>
      </trkpt>
      <trkpt lat="44.43221" lon="5.44524">
        <ele>1429.6</ele>
        <time>2023-07-24T09:37:12Z</time>
      </trkpt>
      <trkpt lat="44.43218" lon="5.44523">
        <ele>1429.3</ele>
        <time>2023-07-24T09:37:13Z</time>
      </trkpt>
      <trkpt lat="44.43214" lon="5.44522">
        <ele>1428.8</ele>
        <time>2023-07-24T09:37:14Z</time>
      </trkpt>
      <trkpt lat="44.43212" lon="5.44522">
        <ele>1428.6</ele>
        <time>2023-07-24T09:37:15Z</time>
      </trkpt>
      <trkpt lat="44.43208" lon="5.44521">
        <ele>1428.1</ele>
        <time>2023-07-24T09:37:16Z</time>
      </trkpt>
      <trkpt lat="44.43207" lon="5.44521">
        <ele>1427.9</ele>
        <time>2023-07-24T09:37:17Z</time>
      </trkpt>
      <trkpt lat="44.43204" lon="5.44521">
        <ele>1427.5</ele>
        <time>2023-07-24T09:37:18Z</time>
      </trkpt>
      <trkpt lat="44.43201" lon="5.44521">
        <ele>1427.1</ele>
        <time>2023-07-24T09:37:19Z</time>
      </trkpt>
      <trkpt lat="44.43197" lon="5.44522">
        <ele>1426.5</ele>
        <time>2023-07-24T09:37:20Z</time>
      </trkpt>
      <trkpt lat="44.43196" lon="5.44522">
        <ele>1426.3</ele>
        <time>2023-07-24T09:37:21Z</time>
      </trkpt>
      <trkpt lat="44.43192" lon="5.44522">
        <ele>1425.6</ele>
        <time>2023-07-24T09:37:22Z</time>
      </trkpt>
      <trkpt lat="44.43191" lon="5.44522">
        <ele>1425.4</ele>
        <time>2023-07-24T09:37:23Z</time>
      </trkpt>
      <trkpt lat="44.43188" lon="5.44523">
        <ele>1424.9</ele>
        <time>2023-07-24T09:37:24Z</time>
      </trkpt>
      <trkpt lat="44.43185" lon="5.44523">
        <ele>1424.3</ele>
        <time>2023-07-24T09:37:25Z</time>
      </trkpt>
      <trkpt lat="44.43182" lon="5.44524">
        <ele>1423.7</ele>
        <time>2023-07-24T09:37:26Z</time>
      </trkpt>
      <trkpt lat="44.43179" lon="5.44524">
        <ele>1423.1</ele>
        <time>2023-07-24T09:37:27Z</time>
      </trkpt>
      <trkpt lat="44.43176" lon="5.44524">
        <ele>1422.4</ele>
        <time>2023-07-24T09:37:28Z</time>
      </trkpt>
      <trkpt lat="44.43173" lon="5.44525">
        <ele>1421.7</ele>
        <time>2023-07-24T09:37:29Z</time>
      </trkpt>
      <trkpt lat="44.43171" lon="5.44526">
        <ele>1421.1</ele>
        <time>2023-07-24T09:37:30Z</time>
      </trkpt>
      <trkpt lat="44.43168" lon="5.44528">
        <ele>1420.4</ele>
        <time>2023-07-24T09:37:31Z</time>
      </trkpt>
      <trkpt lat="44.43165" lon="5.4453">
        <ele>1419.7</ele>
        <time>2023-07-24T09:37:32Z</time>
      </trkpt>
      <trkpt lat="44.43163" lon="5.44532">
        <ele>1419.1</ele>
        <time>2023-07-24T09:37:33Z</time>
      </trkpt>
      <trkpt lat="44.4316" lon="5.44535">
        <ele>1418.5</ele>
        <time>2023-07-24T09:37:34Z</time>
      </trkpt>
      <trkpt lat="44.43157" lon="5.44534">
        <ele>1417.8</ele>
        <time>2023-07-24T09:37:35Z</time>
      </trkpt>
      <trkpt lat="44.43156" lon="5.44533">
        <ele>1417.5</ele>
        <time>2023-07-24T09:37:36Z</time>
      </trkpt>
      <trkpt lat="44.43154" lon="5.4453">
        <ele>1416.8</ele>
        <time>2023-07-24T09:37:37Z</time>
      </trkpt>
      <trkpt lat="44.43153" lon="5.44529">
        <ele>1416.7</ele>
        <time>2023-07-24T09:37:38Z</time>
      </trkpt>
      <trkpt lat="44.43153" lon="5.44528">
        <ele>1416.6</ele>
        <time>2023-07-24T09:37:39Z</time>
      </trkpt>
      <trkpt lat="44.43154" lon="5.44528">
        <ele>1416.5</ele>
        <time>2023-07-24T09:37:40Z</time>
      </trkpt>
      <trkpt lat="44.43154" lon="5.44528">
        <ele>1416.4</ele>
        <time>2023-07-24T09:37:41Z</time>
      </trkpt>
      <trkpt lat="44.43154" lon="5.44528">
        <ele>1416.3</ele>
        <time>2023-07-24T09:37:42Z</time>
      </trkpt>
      <trkpt lat="44.43154" lon="5.44527">
        <ele>1416.2</ele>
        <time>2023-07-24T09:37:43Z</time>
      </trkpt>
      <trkpt lat="44.43153" lon="5.44526">
        <ele>1416</ele>
        <time>2023-07-24T09:37:44Z</time>
      </trkpt>
      <trkpt lat="44.43153" lon="5.44525">
        <ele>1415.8</ele>
        <time>2023-07-24T09:37:45Z</time>
      </trkpt>
      <trkpt lat="44.43152" lon="5.44524">
        <ele>1415.6</ele>
        <time>2023-07-24T09:37:46Z</time>
      </trkpt>
      <trkpt lat="44.43152" lon="5.44523">
        <ele>1415.5</ele>
        <time>2023-07-24T09:37:47Z</time>
      </trkpt>
      <trkpt lat="44.43151" lon="5.44523">
        <ele>1415.3</ele>
        <time>2023-07-24T09:37:48Z</time>
      </trkpt>
      <trkpt lat="44.43151" lon="5.44522">
        <ele>1415.2</ele>
        <time>2023-07-24T09:37:49Z</time>
      </trkpt>
      <trkpt lat="44.4315" lon="5.44523">
        <ele>1414.9</ele>
        <time>2023-07-24T09:37:50Z</time>
      </trkpt>
      <trkpt lat="44.43149" lon="5.44523">
        <ele>1414.9</ele>
        <time>2023-07-24T09:37:51Z</time>
      </trkpt>
      <trkpt lat="44.43149" lon="5.44523">
        <ele>1414.8</ele>
        <time>2023-07-24T09:37:52Z</time>
      </trkpt>
      <trkpt lat="44.43149" lon="5.44523">
        <ele>1414.7</ele>
        <time>2023-07-24T09:37:53Z</time>
      </trkpt>
      <trkpt lat="44.43148" lon="5.44523">
        <ele>1414.6</ele>
        <time>2023-07-24T09:37:54Z</time>
      </trkpt>
      <trkpt lat="44.43148" lon="5.44523">
        <ele>1414.6</ele>
        <time>2023-07-24T09:37:55Z</time>
      </trkpt>
      <trkpt lat="44.43148" lon="5.44523">
        <ele>1414.5</ele>
        <time>2023-07-24T09:37:56Z</time>
      </trkpt>
      <trkpt lat="44.43147" lon="5.44523">
        <ele>1414.4</ele>
        <time>2023-07-24T09:37:57Z</time>
      </trkpt>
      <trkpt lat="44.43147" lon="5.44523">
        <ele>1414.3</ele>
        <time>2023-07-24T09:37:58Z</time>
      </trkpt>
      <trkpt lat="44.43144" lon="5.44525">
        <ele>1413.7</ele>
        <time>2023-07-24T09:37:59Z</time>
      </trkpt>
      <trkpt lat="44.43143" lon="5.44525">
        <ele>1413.4</ele>
        <time>2023-07-24T09:38:00Z</time>
      </trkpt>
      <trkpt lat="44.43139" lon="5.44525">
        <ele>1412.5</ele>
        <time>2023-07-24T09:38:01Z</time>
      </trkpt>
      <trkpt lat="44.43138" lon="5.44524">
        <ele>1412.1</ele>
        <time>2023-07-24T09:38:02Z</time>
      </trkpt>
      <trkpt lat="44.43135" lon="5.44523">
        <ele>1411.4</ele>
        <time>2023-07-24T09:38:03Z</time>
      </trkpt>
      <trkpt lat="44.43135" lon="5.44523">
        <ele>1411.2</ele>
        <time>2023-07-24T09:38:04Z</time>
      </trkpt>
      <trkpt lat="44.43133" lon="5.44523">
        <ele>1410.8</ele>
        <time>2023-07-24T09:38:05Z</time>
      </trkpt>
      <trkpt lat="44.43131" lon="5.44522">
        <ele>1410.3</ele>
        <time>2023-07-24T09:38:06Z</time>
      </trkpt>
      <trkpt lat="44.4313" lon="5.44522">
        <ele>1409.8</ele>
        <time>2023-07-24T09:38:07Z</time>
      </trkpt>
      <trkpt lat="44.43128" lon="5.44523">
        <ele>1409.3</ele>
        <time>2023-07-24T09:38:08Z</time>
      </trkpt>
      <trkpt lat="44.43125" lon="5.44523">
        <ele>1408.5</ele>
        <time>2023-07-24T09:38:09Z</time>
      </trkpt>
      <trkpt lat="44.43124" lon="5.44524">
        <ele>1408.2</ele>
        <time>2023-07-24T09:38:10Z</time>
      </trkpt>
      <trkpt lat="44.43121" lon="5.44523">
        <ele>1407.4</ele>
        <time>2023-07-24T09:38:11Z</time>
      </trkpt>
      <trkpt lat="44.4312" lon="5.44522">
        <ele>1407.1</ele>
        <time>2023-07-24T09:38:12Z</time>
      </trkpt>
      <trkpt lat="44.43118" lon="5.44522">
        <ele>1406.6</ele>
        <time>2023-07-24T09:38:13Z</time>
      </trkpt>
      <trkpt lat="44.43116" lon="5.44521">
        <ele>1406.2</ele>
        <time>2023-07-24T09:38:14Z</time>
      </trkpt>
      <trkpt lat="44.43115" lon="5.4452">
        <ele>1405.9</ele>
        <time>2023-07-24T09:38:15Z</time>
      </trkpt>
      <trkpt lat="44.43114" lon="5.44519">
        <ele>1405.7</ele>
        <time>2023-07-24T09:38:16Z</time>
      </trkpt>
      <trkpt lat="44.43114" lon="5.44519">
        <ele>1405.6</ele>
        <time>2023-07-24T09:38:17Z</time>
      </trkpt>
      <trkpt lat="44.43114" lon="5.44519">
        <ele>1405.5</ele>
        <time>2023-07-24T09:38:18Z</time>
      </trkpt>
      <trkpt lat="44.43114" lon="5.44519">
        <ele>1405.5</ele>
        <time>2023-07-24T09:38:19Z</time>
      </trkpt>
      <trkpt lat="44.43114" lon="5.44519">
        <ele>1405.5</ele>
        <time>2023-07-24T09:38:20Z</time>
      </trkpt>
      <trkpt lat="44.43115" lon="5.44519">
        <ele>1405.4</ele>
        <time>2023-07-24T09:38:21Z</time>
      </trkpt>
      <trkpt lat="44.43115" lon="5.4452">
        <ele>1405.2</ele>
        <time>2023-07-24T09:38:22Z</time>
      </trkpt>
      <trkpt lat="44.43116" lon="5.44519">
        <ele>1405.2</ele>
        <time>2023-07-24T09:38:23Z</time>
      </trkpt>
      <trkpt lat="44.43116" lon="5.44519">
        <ele>1405.1</ele>
        <time>2023-07-24T09:38:24Z</time>
      </trkpt>
      <trkpt lat="44.43116" lon="5.44519">
        <ele>1405.1</ele>
        <time>2023-07-24T09:38:25Z</time>
      </trkpt>
      <trkpt lat="44.43115" lon="5.44519">
        <ele>1405</ele>
        <time>2023-07-24T09:38:26Z</time>
      </trkpt>
      <trkpt lat="44.43115" lon="5.44519">
        <ele>1404.9</ele>
        <time>2023-07-24T09:38:27Z</time>
      </trkpt>
      <trkpt lat="44.43114" lon="5.4452">
        <ele>1404.8</ele>
        <time>2023-07-24T09:38:28Z</time>
      </trkpt>
      <trkpt lat="44.43114" lon="5.4452">
        <ele>1404.7</ele>
        <time>2023-07-24T09:38:29Z</time>
      </trkpt>
      <trkpt lat="44.43114" lon="5.4452">
        <ele>1404.7</ele>
        <time>2023-07-24T09:38:29Z</time>
      </trkpt>
      <trkpt lat="44.43113" lon="5.4452">
        <ele>1404.6</ele>
        <time>2023-07-24T09:38:30Z</time>
      </trkpt>
      <trkpt lat="44.43113" lon="5.4452">
        <ele>1404.5</ele>
        <time>2023-07-24T09:38:31Z</time>
      </trkpt>
      <trkpt lat="44.43113" lon="5.4452">
        <ele>1404.5</ele>
        <time>2023-07-24T09:38:32Z</time>
      </trkpt>
      <trkpt lat="44.43113" lon="5.4452">
        <ele>1404.5</ele>
        <time>2023-07-24T09:38:33Z</time>
      </trkpt>
      <trkpt lat="44.43113" lon="5.4452">
        <ele>1404.5</ele>
        <time>2023-07-24T09:38:34Z</time>
      </trkpt>
      <trkpt lat="44.43113" lon="5.4452">
        <ele>1404.5</ele>
        <time>2023-07-24T09:38:35Z</time>
      </trkpt>
      <trkpt lat="44.43113" lon="5.4452">
        <ele>1404.5</ele>
        <time>2023-07-24T09:38:36Z</time>
      </trkpt>
      <trkpt lat="44.43113" lon="5.4452">
        <ele>1404.5</ele>
        <time>2023-07-24T09:38:37Z</time>
      </trkpt>
      <trkpt lat="44.43113" lon="5.4452">
        <ele>1404.5</ele>
        <time>2023-07-24T09:38:38Z</time>
      </trkpt>
      <trkpt lat="44.43113" lon="5.44521">
        <ele>1404.2</ele>
        <time>2023-07-24T09:38:39Z</time>
      </trkpt>
      <trkpt lat="44.43111" lon="5.44522">
        <ele>1403.9</ele>
        <time>2023-07-24T09:38:40Z</time>
      </trkpt>
      <trkpt lat="44.43111" lon="5.44522">
        <ele>1403.9</ele>
        <time>2023-07-24T09:38:40Z</time>
      </trkpt>
      <trkpt lat="44.43108" lon="5.44521">
        <ele>1403.2</ele>
        <time>2023-07-24T09:38:41Z</time>
      </trkpt>
      <trkpt lat="44.43107" lon="5.44521">
        <ele>1402.9</ele>
        <time>2023-07-24T09:38:42Z</time>
      </trkpt>
      <trkpt lat="44.43104" lon="5.4452">
        <ele>1401.9</ele>
        <time>2023-07-24T09:38:43Z</time>
      </trkpt>
      <trkpt lat="44.43102" lon="5.4452">
        <ele>1401.6</ele>
        <time>2023-07-24T09:38:44Z</time>
      </trkpt>
      <trkpt lat="44.43098" lon="5.44518">
        <ele>1400.6</ele>
        <time>2023-07-24T09:38:45Z</time>
      </trkpt>
      <trkpt lat="44.43097" lon="5.44518">
        <ele>1400.2</ele>
        <time>2023-07-24T09:38:46Z</time>
      </trkpt>
      <trkpt lat="44.43093" lon="5.44517">
        <ele>1399.2</ele>
        <time>2023-07-24T09:38:47Z</time>
      </trkpt>
      <trkpt lat="44.43092" lon="5.44517">
        <ele>1398.8</ele>
        <time>2023-07-24T09:38:48Z</time>
      </trkpt>
      <trkpt lat="44.43088" lon="5.44516">
        <ele>1397.7</ele>
        <time>2023-07-24T09:38:49Z</time>
      </trkpt>
      <trkpt lat="44.43087" lon="5.44515">
        <ele>1397.4</ele>
        <time>2023-07-24T09:38:50Z</time>
      </trkpt>
      <trkpt lat="44.43084" lon="5.44515">
        <ele>1396.6</ele>
        <time>2023-07-24T09:38:51Z</time>
      </trkpt>
      <trkpt lat="44.43081" lon="5.44514">
        <ele>1395.8</ele>
        <time>2023-07-24T09:38:52Z</time>
      </trkpt>
      <trkpt lat="44.43078" lon="5.44511">
        <ele>1394.7</ele>
        <time>2023-07-24T09:38:53Z</time>
      </trkpt>
      <trkpt lat="44.43077" lon="5.4451">
        <ele>1394.3</ele>
        <time>2023-07-24T09:38:54Z</time>
      </trkpt>
      <trkpt lat="44.43075" lon="5.44508">
        <ele>1393.8</ele>
        <time>2023-07-24T09:38:55Z</time>
      </trkpt>
      <trkpt lat="44.43075" lon="5.44506">
        <ele>1393.4</ele>
        <time>2023-07-24T09:38:56Z</time>
      </trkpt>
      <trkpt lat="44.43075" lon="5.44506">
        <ele>1393.3</ele>
        <time>2023-07-24T09:38:57Z</time>
      </trkpt>
      <trkpt lat="44.43075" lon="5.44506">
        <ele>1393.2</ele>
        <time>2023-07-24T09:38:58Z</time>
      </trkpt>
      <trkpt lat="44.43075" lon="5.44506">
        <ele>1393.1</ele>
        <time>2023-07-24T09:38:59Z</time>
      </trkpt>
      <trkpt lat="44.43076" lon="5.44506">
        <ele>1393.1</ele>
        <time>2023-07-24T09:39:00Z</time>
      </trkpt>
      <trkpt lat="44.43076" lon="5.44506">
        <ele>1393.1</ele>
        <time>2023-07-24T09:39:01Z</time>
      </trkpt>
      <trkpt lat="44.43076" lon="5.44506">
        <ele>1393.1</ele>
        <time>2023-07-24T09:39:02Z</time>
      </trkpt>
      <trkpt lat="44.43075" lon="5.44506">
        <ele>1393</ele>
        <time>2023-07-24T09:39:03Z</time>
      </trkpt>
      <trkpt lat="44.43074" lon="5.44506">
        <ele>1392.7</ele>
        <time>2023-07-24T09:39:04Z</time>
      </trkpt>
      <trkpt lat="44.43073" lon="5.44506">
        <ele>1392.4</ele>
        <time>2023-07-24T09:39:05Z</time>
      </trkpt>
      <trkpt lat="44.43072" lon="5.44507">
        <ele>1392.1</ele>
        <time>2023-07-24T09:39:06Z</time>
      </trkpt>
      <trkpt lat="44.43072" lon="5.44508">
        <ele>1391.9</ele>
        <time>2023-07-24T09:39:07Z</time>
      </trkpt>
      <trkpt lat="44.43072" lon="5.44509">
        <ele>1391.7</ele>
        <time>2023-07-24T09:39:08Z</time>
      </trkpt>
      <trkpt lat="44.43071" lon="5.44511">
        <ele>1391.4</ele>
        <time>2023-07-24T09:39:09Z</time>
      </trkpt>
      <trkpt lat="44.43071" lon="5.44511">
        <ele>1391.3</ele>
        <time>2023-07-24T09:39:10Z</time>
      </trkpt>
      <trkpt lat="44.43071" lon="5.44512">
        <ele>1391.1</ele>
        <time>2023-07-24T09:39:11Z</time>
      </trkpt>
      <trkpt lat="44.4307" lon="5.44512">
        <ele>1390.9</ele>
        <time>2023-07-24T09:39:12Z</time>
      </trkpt>
      <trkpt lat="44.4307" lon="5.44512">
        <ele>1390.8</ele>
        <time>2023-07-24T09:39:13Z</time>
      </trkpt>
      <trkpt lat="44.43069" lon="5.44512">
        <ele>1390.7</ele>
        <time>2023-07-24T09:39:14Z</time>
      </trkpt>
      <trkpt lat="44.43069" lon="5.44512">
        <ele>1390.5</ele>
        <time>2023-07-24T09:39:15Z</time>
      </trkpt>
      <trkpt lat="44.43068" lon="5.44511">
        <ele>1390.4</ele>
        <time>2023-07-24T09:39:16Z</time>
      </trkpt>
      <trkpt lat="44.43068" lon="5.44511">
        <ele>1390.2</ele>
        <time>2023-07-24T09:39:17Z</time>
      </trkpt>
      <trkpt lat="44.43067" lon="5.44511">
        <ele>1390.1</ele>
        <time>2023-07-24T09:39:18Z</time>
      </trkpt>
      <trkpt lat="44.43067" lon="5.44511">
        <ele>1389.9</ele>
        <time>2023-07-24T09:39:19Z</time>
      </trkpt>
      <trkpt lat="44.43066" lon="5.44511">
        <ele>1389.8</ele>
        <time>2023-07-24T09:39:20Z</time>
      </trkpt>
      <trkpt lat="44.43066" lon="5.4451">
        <ele>1389.6</ele>
        <time>2023-07-24T09:39:21Z</time>
      </trkpt>
      <trkpt lat="44.43065" lon="5.4451">
        <ele>1389.5</ele>
        <time>2023-07-24T09:39:22Z</time>
      </trkpt>
      <trkpt lat="44.43064" lon="5.4451">
        <ele>1389.3</ele>
        <time>2023-07-24T09:39:33Z</time>
      </trkpt>
      <trkpt lat="44.43064" lon="5.4451">
        <ele>1389.1</ele>
        <time>2023-07-24T09:39:34Z</time>
      </trkpt>
      <trkpt lat="44.43063" lon="5.4451">
        <ele>1389</ele>
        <time>2023-07-24T09:39:35Z</time>
      </trkpt>
      <trkpt lat="44.4306" lon="5.4451">
        <ele>1388</ele>
        <time>2023-07-24T09:39:36Z</time>
      </trkpt>
      <trkpt lat="44.43059" lon="5.44511">
        <ele>1387.6</ele>
        <time>2023-07-24T09:39:37Z</time>
      </trkpt>
      <trkpt lat="44.43056" lon="5.44512">
        <ele>1386.9</ele>
        <time>2023-07-24T09:39:38Z</time>
      </trkpt>
      <trkpt lat="44.43053" lon="5.44514">
        <ele>1386</ele>
        <time>2023-07-24T09:39:39Z</time>
      </trkpt>
      <trkpt lat="44.43052" lon="5.44514">
        <ele>1385.7</ele>
        <time>2023-07-24T09:39:40Z</time>
      </trkpt>
      <trkpt lat="44.43051" lon="5.44514">
        <ele>1385.4</ele>
        <time>2023-07-24T09:39:41Z</time>
      </trkpt>
      <trkpt lat="44.43051" lon="5.44514">
        <ele>1385.3</ele>
        <time>2023-07-24T09:39:42Z</time>
      </trkpt>
      <trkpt lat="44.4305" lon="5.44515">
        <ele>1385.2</ele>
        <time>2023-07-24T09:39:43Z</time>
      </trkpt>
      <trkpt lat="44.43049" lon="5.44515">
        <ele>1385</ele>
        <time>2023-07-24T09:39:44Z</time>
      </trkpt>
      <trkpt lat="44.43049" lon="5.44515">
        <ele>1384.8</ele>
        <time>2023-07-24T09:39:45Z</time>
      </trkpt>
      <trkpt lat="44.43048" lon="5.44515">
        <ele>1384.7</ele>
        <time>2023-07-24T09:39:46Z</time>
      </trkpt>
      <trkpt lat="44.43047" lon="5.44515">
        <ele>1384.4</ele>
        <time>2023-07-24T09:39:47Z</time>
      </trkpt>
      <trkpt lat="44.43046" lon="5.44514">
        <ele>1384.1</ele>
        <time>2023-07-24T09:39:48Z</time>
      </trkpt>
      <trkpt lat="44.43046" lon="5.44514">
        <ele>1383.9</ele>
        <time>2023-07-24T09:39:49Z</time>
      </trkpt>
      <trkpt lat="44.43046" lon="5.44513">
        <ele>1383.8</ele>
        <time>2023-07-24T09:39:50Z</time>
      </trkpt>
      <trkpt lat="44.43045" lon="5.44512">
        <ele>1383.5</ele>
        <time>2023-07-24T09:39:51Z</time>
      </trkpt>
      <trkpt lat="44.43045" lon="5.44511">
        <ele>1383.3</ele>
        <time>2023-07-24T09:39:52Z</time>
      </trkpt>
      <trkpt lat="44.43045" lon="5.44509">
        <ele>1383</ele>
        <time>2023-07-24T09:39:53Z</time>
      </trkpt>
      <trkpt lat="44.43045" lon="5.44508">
        <ele>1382.8</ele>
        <time>2023-07-24T09:39:54Z</time>
      </trkpt>
      <trkpt lat="44.43045" lon="5.44508">
        <ele>1382.7</ele>
        <time>2023-07-24T09:39:55Z</time>
      </trkpt>
      <trkpt lat="44.43044" lon="5.44507">
        <ele>1382.7</ele>
        <time>2023-07-24T09:39:56Z</time>
      </trkpt>
      <trkpt lat="44.43044" lon="5.44507">
        <ele>1382.5</ele>
        <time>2023-07-24T09:39:57Z</time>
      </trkpt>
      <trkpt lat="44.43043" lon="5.44507">
        <ele>1382.3</ele>
        <time>2023-07-24T09:39:58Z</time>
      </trkpt>
      <trkpt lat="44.43042" lon="5.44507">
        <ele>1382.1</ele>
        <time>2023-07-24T09:39:59Z</time>
      </trkpt>
      <trkpt lat="44.43041" lon="5.44506">
        <ele>1381.8</ele>
        <time>2023-07-24T09:40:00Z</time>
      </trkpt>
      <trkpt lat="44.4304" lon="5.44506">
        <ele>1381.5</ele>
        <time>2023-07-24T09:40:01Z</time>
      </trkpt>
      <trkpt lat="44.43039" lon="5.44506">
        <ele>1381.3</ele>
        <time>2023-07-24T09:40:02Z</time>
      </trkpt>
      <trkpt lat="44.43039" lon="5.44506">
        <ele>1381.2</ele>
        <time>2023-07-24T09:40:03Z</time>
      </trkpt>
      <trkpt lat="44.43039" lon="5.44506">
        <ele>1381.2</ele>
        <time>2023-07-24T09:40:04Z</time>
      </trkpt>
      <trkpt lat="44.43039" lon="5.44505">
        <ele>1381.1</ele>
        <time>2023-07-24T09:40:05Z</time>
      </trkpt>
      <trkpt lat="44.43038" lon="5.44505">
        <ele>1380.9</ele>
        <time>2023-07-24T09:40:06Z</time>
      </trkpt>
      <trkpt lat="44.43037" lon="5.44505">
        <ele>1380.7</ele>
        <time>2023-07-24T09:40:07Z</time>
      </trkpt>
      <trkpt lat="44.43036" lon="5.44505">
        <ele>1380.5</ele>
        <time>2023-07-24T09:40:08Z</time>
      </trkpt>
      <trkpt lat="44.43035" lon="5.44505">
        <ele>1380.2</ele>
        <time>2023-07-24T09:40:09Z</time>
      </trkpt>
      <trkpt lat="44.43034" lon="5.44505">
        <ele>1379.9</ele>
        <time>2023-07-24T09:40:10Z</time>
      </trkpt>
      <trkpt lat="44.43033" lon="5.44505">
        <ele>1379.8</ele>
        <time>2023-07-24T09:40:11Z</time>
      </trkpt>
      <trkpt lat="44.43033" lon="5.44505">
        <ele>1379.7</ele>
        <time>2023-07-24T09:40:12Z</time>
      </trkpt>
      <trkpt lat="44.43032" lon="5.44505">
        <ele>1379.5</ele>
        <time>2023-07-24T09:40:13Z</time>
      </trkpt>
      <trkpt lat="44.43031" lon="5.44505">
        <ele>1379.2</ele>
        <time>2023-07-24T09:40:14Z</time>
      </trkpt>
      <trkpt lat="44.4303" lon="5.44505">
        <ele>1378.9</ele>
        <time>2023-07-24T09:40:15Z</time>
      </trkpt>
      <trkpt lat="44.43028" lon="5.44505">
        <ele>1378.6</ele>
        <time>2023-07-24T09:40:16Z</time>
      </trkpt>
      <trkpt lat="44.43028" lon="5.44504">
        <ele>1378.3</ele>
        <time>2023-07-24T09:40:17Z</time>
      </trkpt>
      <trkpt lat="44.43027" lon="5.44503">
        <ele>1378.1</ele>
        <time>2023-07-24T09:40:18Z</time>
      </trkpt>
      <trkpt lat="44.43026" lon="5.44502">
        <ele>1377.8</ele>
        <time>2023-07-24T09:40:19Z</time>
      </trkpt>
      <trkpt lat="44.43025" lon="5.44501">
        <ele>1377.6</ele>
        <time>2023-07-24T09:40:20Z</time>
      </trkpt>
      <trkpt lat="44.43025" lon="5.44501">
        <ele>1377.4</ele>
        <time>2023-07-24T09:40:21Z</time>
      </trkpt>
      <trkpt lat="44.43024" lon="5.44501">
        <ele>1377.3</ele>
        <time>2023-07-24T09:40:22Z</time>
      </trkpt>
      <trkpt lat="44.43024" lon="5.44501">
        <ele>1377.2</ele>
        <time>2023-07-24T09:40:23Z</time>
      </trkpt>
      <trkpt lat="44.43024" lon="5.445">
        <ele>1377.2</ele>
        <time>2023-07-24T09:40:24Z</time>
      </trkpt>
      <trkpt lat="44.43024" lon="5.445">
        <ele>1377.2</ele>
        <time>2023-07-24T09:40:25Z</time>
      </trkpt>
      <trkpt lat="44.43024" lon="5.445">
        <ele>1377.1</ele>
        <time>2023-07-24T09:40:26Z</time>
      </trkpt>
      <trkpt lat="44.43023" lon="5.445">
        <ele>1377.1</ele>
        <time>2023-07-24T09:40:27Z</time>
      </trkpt>
      <trkpt lat="44.43023" lon="5.445">
        <ele>1377</ele>
        <time>2023-07-24T09:40:28Z</time>
      </trkpt>
      <trkpt lat="44.43023" lon="5.445">
        <ele>1377</ele>
        <time>2023-07-24T09:40:29Z</time>
      </trkpt>
      <trkpt lat="44.43023" lon="5.44501">
        <ele>1376.9</ele>
        <time>2023-07-24T09:40:30Z</time>
      </trkpt>
      <trkpt lat="44.43023" lon="5.44501">
        <ele>1376.8</ele>
        <time>2023-07-24T09:40:31Z</time>
      </trkpt>
      <trkpt lat="44.43023" lon="5.44502">
        <ele>1376.8</ele>
        <time>2023-07-24T09:40:32Z</time>
      </trkpt>
      <trkpt lat="44.43023" lon="5.44502">
        <ele>1376.7</ele>
        <time>2023-07-24T09:40:33Z</time>
      </trkpt>
      <trkpt lat="44.43023" lon="5.44502">
        <ele>1376.6</ele>
        <time>2023-07-24T09:40:34Z</time>
      </trkpt>
      <trkpt lat="44.43022" lon="5.44501">
        <ele>1376.4</ele>
        <time>2023-07-24T09:40:35Z</time>
      </trkpt>
      <trkpt lat="44.43022" lon="5.44501">
        <ele>1376.3</ele>
        <time>2023-07-24T09:40:36Z</time>
      </trkpt>
      <trkpt lat="44.43022" lon="5.44501">
        <ele>1376.3</ele>
        <time>2023-07-24T09:40:37Z</time>
      </trkpt>
      <trkpt lat="44.43021" lon="5.445">
        <ele>1376.2</ele>
        <time>2023-07-24T09:40:38Z</time>
      </trkpt>
      <trkpt lat="44.43021" lon="5.445">
        <ele>1376.1</ele>
        <time>2023-07-24T09:40:39Z</time>
      </trkpt>
      <trkpt lat="44.43021" lon="5.445">
        <ele>1376</ele>
        <time>2023-07-24T09:40:40Z</time>
      </trkpt>
      <trkpt lat="44.4302" lon="5.445">
        <ele>1375.9</ele>
        <time>2023-07-24T09:40:41Z</time>
      </trkpt>
      <trkpt lat="44.4302" lon="5.445">
        <ele>1375.8</ele>
        <time>2023-07-24T09:40:42Z</time>
      </trkpt>
      <trkpt lat="44.4302" lon="5.445">
        <ele>1375.7</ele>
        <time>2023-07-24T09:40:43Z</time>
      </trkpt>
      <trkpt lat="44.43019" lon="5.445">
        <ele>1375.6</ele>
        <time>2023-07-24T09:40:44Z</time>
      </trkpt>
      <trkpt lat="44.43019" lon="5.445">
        <ele>1375.5</ele>
        <time>2023-07-24T09:40:45Z</time>
      </trkpt>
      <trkpt lat="44.43018" lon="5.445">
        <ele>1375.4</ele>
        <time>2023-07-24T09:40:46Z</time>
      </trkpt>
      <trkpt lat="44.43018" lon="5.445">
        <ele>1375.3</ele>
        <time>2023-07-24T09:40:47Z</time>
      </trkpt>
      <trkpt lat="44.43018" lon="5.445">
        <ele>1375.2</ele>
        <time>2023-07-24T09:40:48Z</time>
      </trkpt>
      <trkpt lat="44.43017" lon="5.445">
        <ele>1375.1</ele>
        <time>2023-07-24T09:40:49Z</time>
      </trkpt>
      <trkpt lat="44.43017" lon="5.445">
        <ele>1375.1</ele>
        <time>2023-07-24T09:40:50Z</time>
      </trkpt>
      <trkpt lat="44.43017" lon="5.445">
        <ele>1375</ele>
        <time>2023-07-24T09:40:51Z</time>
      </trkpt>
      <trkpt lat="44.43016" lon="5.445">
        <ele>1374.9</ele>
        <time>2023-07-24T09:43:46Z</time>
      </trkpt>
      <trkpt lat="44.43016" lon="5.445">
        <ele>1374.8</ele>
        <time>2023-07-24T09:43:47Z</time>
      </trkpt>
      <trkpt lat="44.43015" lon="5.44499">
        <ele>1374.7</ele>
        <time>2023-07-24T09:43:48Z</time>
      </trkpt>
      <trkpt lat="44.43015" lon="5.44499">
        <ele>1374.6</ele>
        <time>2023-07-24T09:43:49Z</time>
      </trkpt>
      <trkpt lat="44.43013" lon="5.44499">
        <ele>1374.2</ele>
        <time>2023-07-24T09:43:50Z</time>
      </trkpt>
      <trkpt lat="44.43012" lon="5.44497">
        <ele>1373.6</ele>
        <time>2023-07-24T09:43:51Z</time>
      </trkpt>
      <trkpt lat="44.43009" lon="5.44494">
        <ele>1372.4</ele>
        <time>2023-07-24T09:43:52Z</time>
      </trkpt>
      <trkpt lat="44.43009" lon="5.44493">
        <ele>1372</ele>
        <time>2023-07-24T09:43:53Z</time>
      </trkpt>
      <trkpt lat="44.43006" lon="5.44491">
        <ele>1370.9</ele>
        <time>2023-07-24T09:43:54Z</time>
      </trkpt>
      <trkpt lat="44.43006" lon="5.4449">
        <ele>1370.6</ele>
        <time>2023-07-24T09:43:55Z</time>
      </trkpt>
      <trkpt lat="44.43003" lon="5.4449">
        <ele>1369.5</ele>
        <time>2023-07-24T09:43:56Z</time>
      </trkpt>
      <trkpt lat="44.43002" lon="5.4449">
        <ele>1369.2</ele>
        <time>2023-07-24T09:43:57Z</time>
      </trkpt>
      <trkpt lat="44.42999" lon="5.4449">
        <ele>1368.1</ele>
        <time>2023-07-24T09:43:58Z</time>
      </trkpt>
      <trkpt lat="44.42998" lon="5.44491">
        <ele>1367.8</ele>
        <time>2023-07-24T09:43:59Z</time>
      </trkpt>
      <trkpt lat="44.42997" lon="5.44491">
        <ele>1367.1</ele>
        <time>2023-07-24T09:44:00Z</time>
      </trkpt>
      <trkpt lat="44.42995" lon="5.44491">
        <ele>1366.5</ele>
        <time>2023-07-24T09:44:01Z</time>
      </trkpt>
      <trkpt lat="44.42993" lon="5.44491">
        <ele>1365.8</ele>
        <time>2023-07-24T09:44:02Z</time>
      </trkpt>
      <trkpt lat="44.42992" lon="5.4449">
        <ele>1365.1</ele>
        <time>2023-07-24T09:44:03Z</time>
      </trkpt>
      <trkpt lat="44.42989" lon="5.44487">
        <ele>1364</ele>
        <time>2023-07-24T09:44:04Z</time>
      </trkpt>
      <trkpt lat="44.42989" lon="5.44486">
        <ele>1363.6</ele>
        <time>2023-07-24T09:44:05Z</time>
      </trkpt>
      <trkpt lat="44.42987" lon="5.44483">
        <ele>1362.5</ele>
        <time>2023-07-24T09:44:06Z</time>
      </trkpt>
      <trkpt lat="44.42986" lon="5.44482">
        <ele>1362.1</ele>
        <time>2023-07-24T09:44:07Z</time>
      </trkpt>
      <trkpt lat="44.42985" lon="5.4448">
        <ele>1361.4</ele>
        <time>2023-07-24T09:44:08Z</time>
      </trkpt>
      <trkpt lat="44.42984" lon="5.44478">
        <ele>1360.8</ele>
        <time>2023-07-24T09:44:09Z</time>
      </trkpt>
      <trkpt lat="44.42983" lon="5.44477">
        <ele>1360.4</ele>
        <time>2023-07-24T09:44:10Z</time>
      </trkpt>
      <trkpt lat="44.42982" lon="5.44475">
        <ele>1359.8</ele>
        <time>2023-07-24T09:44:11Z</time>
      </trkpt>
      <trkpt lat="44.4298" lon="5.44473">
        <ele>1358.8</ele>
        <time>2023-07-24T09:44:12Z</time>
      </trkpt>
      <trkpt lat="44.42979" lon="5.44472">
        <ele>1358.4</ele>
        <time>2023-07-24T09:44:13Z</time>
      </trkpt>
      <trkpt lat="44.42976" lon="5.44472">
        <ele>1357.2</ele>
        <time>2023-07-24T09:44:14Z</time>
      </trkpt>
      <trkpt lat="44.42975" lon="5.44473">
        <ele>1356.8</ele>
        <time>2023-07-24T09:44:15Z</time>
      </trkpt>
      <trkpt lat="44.42973" lon="5.44473">
        <ele>1356.1</ele>
        <time>2023-07-24T09:44:16Z</time>
      </trkpt>
      <trkpt lat="44.42972" lon="5.44475">
        <ele>1355.4</ele>
        <time>2023-07-24T09:44:17Z</time>
      </trkpt>
      <trkpt lat="44.42969" lon="5.44477">
        <ele>1354.2</ele>
        <time>2023-07-24T09:44:18Z</time>
      </trkpt>
      <trkpt lat="44.42968" lon="5.44478">
        <ele>1353.8</ele>
        <time>2023-07-24T09:44:19Z</time>
      </trkpt>
      <trkpt lat="44.42967" lon="5.44479">
        <ele>1353.1</ele>
        <time>2023-07-24T09:44:20Z</time>
      </trkpt>
      <trkpt lat="44.42965" lon="5.4448">
        <ele>1352.4</ele>
        <time>2023-07-24T09:44:21Z</time>
      </trkpt>
      <trkpt lat="44.42964" lon="5.44482">
        <ele>1351.7</ele>
        <time>2023-07-24T09:44:22Z</time>
      </trkpt>
      <trkpt lat="44.42963" lon="5.44483">
        <ele>1351.1</ele>
        <time>2023-07-24T09:44:23Z</time>
      </trkpt>
      <trkpt lat="44.42961" lon="5.44484">
        <ele>1350.5</ele>
        <time>2023-07-24T09:44:24Z</time>
      </trkpt>
      <trkpt lat="44.42959" lon="5.44483">
        <ele>1349.8</ele>
        <time>2023-07-24T09:44:25Z</time>
      </trkpt>
      <trkpt lat="44.42958" lon="5.44482">
        <ele>1349.1</ele>
        <time>2023-07-24T09:44:26Z</time>
      </trkpt>
      <trkpt lat="44.42956" lon="5.44481">
        <ele>1348.4</ele>
        <time>2023-07-24T09:44:27Z</time>
      </trkpt>
      <trkpt lat="44.42955" lon="5.44477">
        <ele>1347.4</ele>
        <time>2023-07-24T09:44:28Z</time>
      </trkpt>
      <trkpt lat="44.42955" lon="5.44475">
        <ele>1347</ele>
        <time>2023-07-24T09:44:29Z</time>
      </trkpt>
      <trkpt lat="44.42955" lon="5.44473">
        <ele>1346.3</ele>
        <time>2023-07-24T09:44:30Z</time>
      </trkpt>
      <trkpt lat="44.42955" lon="5.44472">
        <ele>1346</ele>
        <time>2023-07-24T09:44:31Z</time>
      </trkpt>
      <trkpt lat="44.42955" lon="5.44472">
        <ele>1345.8</ele>
        <time>2023-07-24T09:44:32Z</time>
      </trkpt>
      <trkpt lat="44.42955" lon="5.44472">
        <ele>1345.6</ele>
        <time>2023-07-24T09:44:33Z</time>
      </trkpt>
      <trkpt lat="44.42956" lon="5.44472">
        <ele>1345.6</ele>
        <time>2023-07-24T09:44:34Z</time>
      </trkpt>
      <trkpt lat="44.42955" lon="5.44471">
        <ele>1345.3</ele>
        <time>2023-07-24T09:44:35Z</time>
      </trkpt>
      <trkpt lat="44.42955" lon="5.4447">
        <ele>1345.1</ele>
        <time>2023-07-24T09:44:36Z</time>
      </trkpt>
      <trkpt lat="44.42954" lon="5.44471">
        <ele>1344.7</ele>
        <time>2023-07-24T09:44:37Z</time>
      </trkpt>
      <trkpt lat="44.42953" lon="5.44472">
        <ele>1344.4</ele>
        <time>2023-07-24T09:44:38Z</time>
      </trkpt>
      <trkpt lat="44.42953" lon="5.44472">
        <ele>1344.1</ele>
        <time>2023-07-24T09:44:39Z</time>
      </trkpt>
      <trkpt lat="44.42953" lon="5.44472">
        <ele>1344.1</ele>
        <time>2023-07-24T09:44:40Z</time>
      </trkpt>
      <trkpt lat="44.42953" lon="5.44473">
        <ele>1344</ele>
        <time>2023-07-24T09:44:41Z</time>
      </trkpt>
      <trkpt lat="44.42953" lon="5.44473">
        <ele>1343.9</ele>
        <time>2023-07-24T09:44:42Z</time>
      </trkpt>
      <trkpt lat="44.42953" lon="5.44473">
        <ele>1343.8</ele>
        <time>2023-07-24T09:44:43Z</time>
      </trkpt>
      <trkpt lat="44.42953" lon="5.44474">
        <ele>1343.8</ele>
        <time>2023-07-24T09:44:44Z</time>
      </trkpt>
      <trkpt lat="44.42953" lon="5.44474">
        <ele>1343.7</ele>
        <time>2023-07-24T09:44:45Z</time>
      </trkpt>
      <trkpt lat="44.42953" lon="5.44474">
        <ele>1343.7</ele>
        <time>2023-07-24T09:44:46Z</time>
      </trkpt>
      <trkpt lat="44.42953" lon="5.44474">
        <ele>1343.7</ele>
        <time>2023-07-24T09:44:47Z</time>
      </trkpt>
      <trkpt lat="44.42953" lon="5.44473">
        <ele>1343.5</ele>
        <time>2023-07-24T09:44:48Z</time>
      </trkpt>
      <trkpt lat="44.42952" lon="5.44473">
        <ele>1343.2</ele>
        <time>2023-07-24T09:44:49Z</time>
      </trkpt>
      <trkpt lat="44.42949" lon="5.44474">
        <ele>1342</ele>
        <time>2023-07-24T09:44:51Z</time>
      </trkpt>
      <trkpt lat="44.42947" lon="5.44474">
        <ele>1341.4</ele>
        <time>2023-07-24T09:44:52Z</time>
      </trkpt>
      <trkpt lat="44.42945" lon="5.44473">
        <ele>1340.8</ele>
        <time>2023-07-24T09:44:53Z</time>
      </trkpt>
      <trkpt lat="44.42943" lon="5.44471">
        <ele>1339.7</ele>
        <time>2023-07-24T09:44:54Z</time>
      </trkpt>
      <trkpt lat="44.42942" lon="5.4447">
        <ele>1339.3</ele>
        <time>2023-07-24T09:44:55Z</time>
      </trkpt>
      <trkpt lat="44.42938" lon="5.44469">
        <ele>1338.1</ele>
        <time>2023-07-24T09:44:56Z</time>
      </trkpt>
      <trkpt lat="44.42937" lon="5.44468">
        <ele>1337.6</ele>
        <time>2023-07-24T09:44:57Z</time>
      </trkpt>
      <trkpt lat="44.42934" lon="5.44467">
        <ele>1336.6</ele>
        <time>2023-07-24T09:44:58Z</time>
      </trkpt>
      <trkpt lat="44.42931" lon="5.44465">
        <ele>1335.3</ele>
        <time>2023-07-24T09:44:59Z</time>
      </trkpt>
      <trkpt lat="44.4293" lon="5.44463">
        <ele>1334.9</ele>
        <time>2023-07-24T09:45:00Z</time>
      </trkpt>
      <trkpt lat="44.42928" lon="5.44461">
        <ele>1333.8</ele>
        <time>2023-07-24T09:45:01Z</time>
      </trkpt>
      <trkpt lat="44.42927" lon="5.44461">
        <ele>1333.5</ele>
        <time>2023-07-24T09:45:02Z</time>
      </trkpt>
      <trkpt lat="44.42926" lon="5.44461">
        <ele>1333.2</ele>
        <time>2023-07-24T09:45:03Z</time>
      </trkpt>
      <trkpt lat="44.42926" lon="5.44461">
        <ele>1333.2</ele>
        <time>2023-07-24T09:45:04Z</time>
      </trkpt>
      <trkpt lat="44.42926" lon="5.44461">
        <ele>1333.1</ele>
        <time>2023-07-24T09:45:05Z</time>
      </trkpt>
      <trkpt lat="44.42926" lon="5.44461">
        <ele>1333.1</ele>
        <time>2023-07-24T09:45:06Z</time>
      </trkpt>
      <trkpt lat="44.42926" lon="5.44461">
        <ele>1333</ele>
        <time>2023-07-24T09:45:07Z</time>
      </trkpt>
      <trkpt lat="44.42926" lon="5.44461">
        <ele>1332.8</ele>
        <time>2023-07-24T09:45:08Z</time>
      </trkpt>
      <trkpt lat="44.42925" lon="5.44461">
        <ele>1332.5</ele>
        <time>2023-07-24T09:45:09Z</time>
      </trkpt>
      <trkpt lat="44.42924" lon="5.44461">
        <ele>1332.2</ele>
        <time>2023-07-24T09:45:10Z</time>
      </trkpt>
      <trkpt lat="44.42923" lon="5.44462">
        <ele>1331.9</ele>
        <time>2023-07-24T09:45:11Z</time>
      </trkpt>
      <trkpt lat="44.42923" lon="5.44462">
        <ele>1331.7</ele>
        <time>2023-07-24T09:45:12Z</time>
      </trkpt>
      <trkpt lat="44.42922" lon="5.44462">
        <ele>1331.5</ele>
        <time>2023-07-24T09:45:13Z</time>
      </trkpt>
      <trkpt lat="44.42922" lon="5.44461">
        <ele>1331.3</ele>
        <time>2023-07-24T09:45:14Z</time>
      </trkpt>
      <trkpt lat="44.42921" lon="5.44461">
        <ele>1331.1</ele>
        <time>2023-07-24T09:45:15Z</time>
      </trkpt>
      <trkpt lat="44.42921" lon="5.44461">
        <ele>1330.8</ele>
        <time>2023-07-24T09:45:16Z</time>
      </trkpt>
      <trkpt lat="44.4292" lon="5.44461">
        <ele>1330.6</ele>
        <time>2023-07-24T09:45:17Z</time>
      </trkpt>
      <trkpt lat="44.4292" lon="5.44461">
        <ele>1330.4</ele>
        <time>2023-07-24T09:45:18Z</time>
      </trkpt>
      <trkpt lat="44.42919" lon="5.44461">
        <ele>1330.4</ele>
        <time>2023-07-24T09:45:19Z</time>
      </trkpt>
      <trkpt lat="44.42919" lon="5.44461">
        <ele>1330.3</ele>
        <time>2023-07-24T09:45:20Z</time>
      </trkpt>
      <trkpt lat="44.42919" lon="5.44461">
        <ele>1330.3</ele>
        <time>2023-07-24T09:45:21Z</time>
      </trkpt>
      <trkpt lat="44.42919" lon="5.44461">
        <ele>1330.3</ele>
        <time>2023-07-24T09:45:22Z</time>
      </trkpt>
      <trkpt lat="44.42919" lon="5.44461">
        <ele>1330.3</ele>
        <time>2023-07-24T09:45:23Z</time>
      </trkpt>
      <trkpt lat="44.42919" lon="5.44461">
        <ele>1330.3</ele>
        <time>2023-07-24T09:45:24Z</time>
      </trkpt>
      <trkpt lat="44.42919" lon="5.44461">
        <ele>1330.3</ele>
        <time>2023-07-24T09:45:25Z</time>
      </trkpt>
      <trkpt lat="44.42919" lon="5.44462">
        <ele>1330</ele>
        <time>2023-07-24T09:45:26Z</time>
      </trkpt>
      <trkpt lat="44.42918" lon="5.44462">
        <ele>1329.6</ele>
        <time>2023-07-24T09:45:27Z</time>
      </trkpt>
      <trkpt lat="44.42915" lon="5.44462">
        <ele>1328.6</ele>
        <time>2023-07-24T09:45:28Z</time>
      </trkpt>
      <trkpt lat="44.42914" lon="5.44462">
        <ele>1328.2</ele>
        <time>2023-07-24T09:45:29Z</time>
      </trkpt>
      <trkpt lat="44.42911" lon="5.44462">
        <ele>1327.1</ele>
        <time>2023-07-24T09:45:30Z</time>
      </trkpt>
      <trkpt lat="44.4291" lon="5.44461">
        <ele>1326.7</ele>
        <time>2023-07-24T09:45:31Z</time>
      </trkpt>
      <trkpt lat="44.42907" lon="5.4446">
        <ele>1325.5</ele>
        <time>2023-07-24T09:45:32Z</time>
      </trkpt>
      <trkpt lat="44.42906" lon="5.44459">
        <ele>1325.1</ele>
        <time>2023-07-24T09:45:33Z</time>
      </trkpt>
      <trkpt lat="44.42903" lon="5.44456">
        <ele>1323.9</ele>
        <time>2023-07-24T09:45:34Z</time>
      </trkpt>
      <trkpt lat="44.42902" lon="5.44455">
        <ele>1323.5</ele>
        <time>2023-07-24T09:45:35Z</time>
      </trkpt>
      <trkpt lat="44.42899" lon="5.44454">
        <ele>1322.3</ele>
        <time>2023-07-24T09:45:36Z</time>
      </trkpt>
      <trkpt lat="44.42898" lon="5.44454">
        <ele>1321.8</ele>
        <time>2023-07-24T09:45:37Z</time>
      </trkpt>
      <trkpt lat="44.42895" lon="5.44456">
        <ele>1320.5</ele>
        <time>2023-07-24T09:45:38Z</time>
      </trkpt>
      <trkpt lat="44.42894" lon="5.44457">
        <ele>1320.1</ele>
        <time>2023-07-24T09:45:39Z</time>
      </trkpt>
      <trkpt lat="44.42893" lon="5.44458">
        <ele>1319.6</ele>
        <time>2023-07-24T09:45:40Z</time>
      </trkpt>
      <trkpt lat="44.42892" lon="5.44458">
        <ele>1319.5</ele>
        <time>2023-07-24T09:45:41Z</time>
      </trkpt>
      <trkpt lat="44.42893" lon="5.44458">
        <ele>1319.3</ele>
        <time>2023-07-24T09:45:42Z</time>
      </trkpt>
      <trkpt lat="44.42893" lon="5.44458">
        <ele>1319.2</ele>
        <time>2023-07-24T09:45:43Z</time>
      </trkpt>
      <trkpt lat="44.42892" lon="5.44459">
        <ele>1318.9</ele>
        <time>2023-07-24T09:45:44Z</time>
      </trkpt>
      <trkpt lat="44.42891" lon="5.44458">
        <ele>1318.5</ele>
        <time>2023-07-24T09:45:45Z</time>
      </trkpt>
      <trkpt lat="44.4289" lon="5.44458">
        <ele>1318.3</ele>
        <time>2023-07-24T09:45:46Z</time>
      </trkpt>
      <trkpt lat="44.4289" lon="5.44458">
        <ele>1318.3</ele>
        <time>2023-07-24T09:45:47Z</time>
      </trkpt>
      <trkpt lat="44.4289" lon="5.44458">
        <ele>1318.3</ele>
        <time>2023-07-24T09:45:48Z</time>
      </trkpt>
      <trkpt lat="44.4289" lon="5.44457">
        <ele>1318.1</ele>
        <time>2023-07-24T09:45:49Z</time>
      </trkpt>
      <trkpt lat="44.4289" lon="5.44456">
        <ele>1317.8</ele>
        <time>2023-07-24T09:45:50Z</time>
      </trkpt>
      <trkpt lat="44.42889" lon="5.44455">
        <ele>1317.5</ele>
        <time>2023-07-24T09:45:51Z</time>
      </trkpt>
      <trkpt lat="44.42889" lon="5.44455">
        <ele>1317.2</ele>
        <time>2023-07-24T09:45:52Z</time>
      </trkpt>
      <trkpt lat="44.42887" lon="5.44455">
        <ele>1316.7</ele>
        <time>2023-07-24T09:45:53Z</time>
      </trkpt>
      <trkpt lat="44.42887" lon="5.44455">
        <ele>1316.4</ele>
        <time>2023-07-24T09:45:54Z</time>
      </trkpt>
      <trkpt lat="44.42886" lon="5.44454">
        <ele>1316.1</ele>
        <time>2023-07-24T09:45:55Z</time>
      </trkpt>
      <trkpt lat="44.42884" lon="5.44454">
        <ele>1315.6</ele>
        <time>2023-07-24T09:45:56Z</time>
      </trkpt>
      <trkpt lat="44.42883" lon="5.44453">
        <ele>1315.1</ele>
        <time>2023-07-24T09:45:57Z</time>
      </trkpt>
      <trkpt lat="44.42882" lon="5.44453">
        <ele>1314.8</ele>
        <time>2023-07-24T09:45:58Z</time>
      </trkpt>
      <trkpt lat="44.42882" lon="5.44452">
        <ele>1314.6</ele>
        <time>2023-07-24T09:45:59Z</time>
      </trkpt>
      <trkpt lat="44.42882" lon="5.44452">
        <ele>1314.5</ele>
        <time>2023-07-24T09:46:00Z</time>
      </trkpt>
      <trkpt lat="44.42881" lon="5.44452">
        <ele>1314.4</ele>
        <time>2023-07-24T09:46:01Z</time>
      </trkpt>
      <trkpt lat="44.42881" lon="5.44452">
        <ele>1314.2</ele>
        <time>2023-07-24T09:46:02Z</time>
      </trkpt>
      <trkpt lat="44.42881" lon="5.44452">
        <ele>1314.1</ele>
        <time>2023-07-24T09:46:03Z</time>
      </trkpt>
      <trkpt lat="44.4288" lon="5.44451">
        <ele>1314</ele>
        <time>2023-07-24T09:46:04Z</time>
      </trkpt>
      <trkpt lat="44.4288" lon="5.44451">
        <ele>1313.8</ele>
        <time>2023-07-24T09:46:05Z</time>
      </trkpt>
      <trkpt lat="44.4288" lon="5.44451">
        <ele>1313.7</ele>
        <time>2023-07-24T09:46:06Z</time>
      </trkpt>
      <trkpt lat="44.4288" lon="5.44451">
        <ele>1313.6</ele>
        <time>2023-07-24T09:46:07Z</time>
      </trkpt>
      <trkpt lat="44.42879" lon="5.4445">
        <ele>1313.5</ele>
        <time>2023-07-24T09:46:08Z</time>
      </trkpt>
      <trkpt lat="44.42879" lon="5.4445">
        <ele>1313.3</ele>
        <time>2023-07-24T09:46:09Z</time>
      </trkpt>
      <trkpt lat="44.42876" lon="5.4445">
        <ele>1312.1</ele>
        <time>2023-07-24T09:46:10Z</time>
      </trkpt>
      <trkpt lat="44.42875" lon="5.44451">
        <ele>1311.7</ele>
        <time>2023-07-24T09:46:11Z</time>
      </trkpt>
      <trkpt lat="44.42871" lon="5.44452">
        <ele>1310.3</ele>
        <time>2023-07-24T09:46:12Z</time>
      </trkpt>
      <trkpt lat="44.4287" lon="5.44453">
        <ele>1309.9</ele>
        <time>2023-07-24T09:46:13Z</time>
      </trkpt>
      <trkpt lat="44.42867" lon="5.44454">
        <ele>1308.6</ele>
        <time>2023-07-24T09:46:14Z</time>
      </trkpt>
      <trkpt lat="44.42866" lon="5.44455">
        <ele>1308.2</ele>
        <time>2023-07-24T09:46:15Z</time>
      </trkpt>
      <trkpt lat="44.42862" lon="5.44455">
        <ele>1306.9</ele>
        <time>2023-07-24T09:46:16Z</time>
      </trkpt>
      <trkpt lat="44.42861" lon="5.44455">
        <ele>1306.5</ele>
        <time>2023-07-24T09:46:17Z</time>
      </trkpt>
      <trkpt lat="44.42858" lon="5.44454">
        <ele>1305.5</ele>
        <time>2023-07-24T09:46:18Z</time>
      </trkpt>
      <trkpt lat="44.42855" lon="5.44453">
        <ele>1304.4</ele>
        <time>2023-07-24T09:46:19Z</time>
      </trkpt>
      <trkpt lat="44.42852" lon="5.44452">
        <ele>1303.2</ele>
        <time>2023-07-24T09:46:20Z</time>
      </trkpt>
      <trkpt lat="44.42848" lon="5.44451">
        <ele>1302</ele>
        <time>2023-07-24T09:46:21Z</time>
      </trkpt>
      <trkpt lat="44.42845" lon="5.4445">
        <ele>1301</ele>
        <time>2023-07-24T09:46:22Z</time>
      </trkpt>
      <trkpt lat="44.42842" lon="5.44449">
        <ele>1299.8</ele>
        <time>2023-07-24T09:46:23Z</time>
      </trkpt>
      <trkpt lat="44.42841" lon="5.44448">
        <ele>1299.5</ele>
        <time>2023-07-24T09:46:24Z</time>
      </trkpt>
      <trkpt lat="44.42842" lon="5.44448">
        <ele>1299.3</ele>
        <time>2023-07-24T09:46:25Z</time>
      </trkpt>
      <trkpt lat="44.42842" lon="5.44447">
        <ele>1299.2</ele>
        <time>2023-07-24T09:46:26Z</time>
      </trkpt>
      <trkpt lat="44.42842" lon="5.44447">
        <ele>1299.1</ele>
        <time>2023-07-24T09:46:27Z</time>
      </trkpt>
      <trkpt lat="44.42842" lon="5.44448">
        <ele>1299.1</ele>
        <time>2023-07-24T09:46:28Z</time>
      </trkpt>
      <trkpt lat="44.42842" lon="5.44448">
        <ele>1299.1</ele>
        <time>2023-07-24T09:46:29Z</time>
      </trkpt>
      <trkpt lat="44.42842" lon="5.44448">
        <ele>1299</ele>
        <time>2023-07-24T09:46:30Z</time>
      </trkpt>
      <trkpt lat="44.42841" lon="5.44448">
        <ele>1298.8</ele>
        <time>2023-07-24T09:46:31Z</time>
      </trkpt>
      <trkpt lat="44.42841" lon="5.44448">
        <ele>1298.7</ele>
        <time>2023-07-24T09:46:32Z</time>
      </trkpt>
      <trkpt lat="44.4284" lon="5.44448">
        <ele>1298.5</ele>
        <time>2023-07-24T09:46:33Z</time>
      </trkpt>
      <trkpt lat="44.4284" lon="5.44449">
        <ele>1298.2</ele>
        <time>2023-07-24T09:46:34Z</time>
      </trkpt>
      <trkpt lat="44.42839" lon="5.4445">
        <ele>1298</ele>
        <time>2023-07-24T09:46:35Z</time>
      </trkpt>
      <trkpt lat="44.42839" lon="5.4445">
        <ele>1298</ele>
        <time>2023-07-24T09:46:36Z</time>
      </trkpt>
      <trkpt lat="44.42839" lon="5.4445">
        <ele>1298</ele>
        <time>2023-07-24T09:46:37Z</time>
      </trkpt>
      <trkpt lat="44.42839" lon="5.4445">
        <ele>1297.9</ele>
        <time>2023-07-24T09:46:38Z</time>
      </trkpt>
      <trkpt lat="44.42839" lon="5.4445">
        <ele>1297.9</ele>
        <time>2023-07-24T09:46:39Z</time>
      </trkpt>
      <trkpt lat="44.42839" lon="5.4445">
        <ele>1297.9</ele>
        <time>2023-07-24T09:46:40Z</time>
      </trkpt>
      <trkpt lat="44.42839" lon="5.4445">
        <ele>1297.8</ele>
        <time>2023-07-24T09:46:41Z</time>
      </trkpt>
      <trkpt lat="44.42839" lon="5.44451">
        <ele>1297.6</ele>
        <time>2023-07-24T09:46:42Z</time>
      </trkpt>
      <trkpt lat="44.42838" lon="5.44452">
        <ele>1297.2</ele>
        <time>2023-07-24T09:46:43Z</time>
      </trkpt>
      <trkpt lat="44.42837" lon="5.44453">
        <ele>1296.7</ele>
        <time>2023-07-24T09:46:44Z</time>
      </trkpt>
      <trkpt lat="44.42836" lon="5.44456">
        <ele>1296.1</ele>
        <time>2023-07-24T09:46:45Z</time>
      </trkpt>
      <trkpt lat="44.42835" lon="5.44457">
        <ele>1295.9</ele>
        <time>2023-07-24T09:46:46Z</time>
      </trkpt>
      <trkpt lat="44.42835" lon="5.44457">
        <ele>1295.6</ele>
        <time>2023-07-24T09:46:47Z</time>
      </trkpt>
      <trkpt lat="44.42832" lon="5.44457">
        <ele>1294.7</ele>
        <time>2023-07-24T09:46:48Z</time>
      </trkpt>
      <trkpt lat="44.42831" lon="5.44457">
        <ele>1294.4</ele>
        <time>2023-07-24T09:46:49Z</time>
      </trkpt>
      <trkpt lat="44.42829" lon="5.44455">
        <ele>1293.8</ele>
        <time>2023-07-24T09:46:50Z</time>
      </trkpt>
      <trkpt lat="44.42828" lon="5.44454">
        <ele>1293.3</ele>
        <time>2023-07-24T09:46:51Z</time>
      </trkpt>
      <trkpt lat="44.42828" lon="5.44451">
        <ele>1292.7</ele>
        <time>2023-07-24T09:46:52Z</time>
      </trkpt>
      <trkpt lat="44.42828" lon="5.4445">
        <ele>1292.4</ele>
        <time>2023-07-24T09:46:53Z</time>
      </trkpt>
      <trkpt lat="44.42828" lon="5.44448">
        <ele>1292.1</ele>
        <time>2023-07-24T09:46:54Z</time>
      </trkpt>
      <trkpt lat="44.42827" lon="5.44444">
        <ele>1291.1</ele>
        <time>2023-07-24T09:46:55Z</time>
      </trkpt>
      <trkpt lat="44.42827" lon="5.44442">
        <ele>1290.8</ele>
        <time>2023-07-24T09:46:56Z</time>
      </trkpt>
      <trkpt lat="44.42826" lon="5.44439">
        <ele>1290.2</ele>
        <time>2023-07-24T09:46:57Z</time>
      </trkpt>
      <trkpt lat="44.42827" lon="5.44438">
        <ele>1290</ele>
        <time>2023-07-24T09:46:58Z</time>
      </trkpt>
      <trkpt lat="44.42827" lon="5.44438">
        <ele>1289.9</ele>
        <time>2023-07-24T09:46:59Z</time>
      </trkpt>
      <trkpt lat="44.42827" lon="5.44438">
        <ele>1289.9</ele>
        <time>2023-07-24T09:47:00Z</time>
      </trkpt>
      <trkpt lat="44.42827" lon="5.44438">
        <ele>1289.8</ele>
        <time>2023-07-24T09:47:01Z</time>
      </trkpt>
      <trkpt lat="44.42826" lon="5.44437">
        <ele>1289.4</ele>
        <time>2023-07-24T09:47:02Z</time>
      </trkpt>
      <trkpt lat="44.42824" lon="5.44435">
        <ele>1289</ele>
        <time>2023-07-24T09:47:03Z</time>
      </trkpt>
      <trkpt lat="44.42822" lon="5.44435">
        <ele>1288.4</ele>
        <time>2023-07-24T09:47:04Z</time>
      </trkpt>
      <trkpt lat="44.4282" lon="5.44435">
        <ele>1288.2</ele>
        <time>2023-07-24T09:47:05Z</time>
      </trkpt>
      <trkpt lat="44.42817" lon="5.44436">
        <ele>1287.6</ele>
        <time>2023-07-24T09:47:06Z</time>
      </trkpt>
      <trkpt lat="44.42817" lon="5.44437">
        <ele>1287.4</ele>
        <time>2023-07-24T09:47:07Z</time>
      </trkpt>
      <trkpt lat="44.42814" lon="5.44439">
        <ele>1287</ele>
        <time>2023-07-24T09:47:08Z</time>
      </trkpt>
      <trkpt lat="44.42813" lon="5.44439">
        <ele>1286.8</ele>
        <time>2023-07-24T09:47:09Z</time>
      </trkpt>
      <trkpt lat="44.4281" lon="5.44442">
        <ele>1286.4</ele>
        <time>2023-07-24T09:47:10Z</time>
      </trkpt>
      <trkpt lat="44.4281" lon="5.44443">
        <ele>1286.3</ele>
        <time>2023-07-24T09:47:11Z</time>
      </trkpt>
      <trkpt lat="44.42808" lon="5.44446">
        <ele>1286</ele>
        <time>2023-07-24T09:47:12Z</time>
      </trkpt>
      <trkpt lat="44.42807" lon="5.44447">
        <ele>1285.9</ele>
        <time>2023-07-24T09:47:13Z</time>
      </trkpt>
      <trkpt lat="44.42804" lon="5.44449">
        <ele>1285.6</ele>
        <time>2023-07-24T09:47:14Z</time>
      </trkpt>
      <trkpt lat="44.42803" lon="5.44452">
        <ele>1285.4</ele>
        <time>2023-07-24T09:47:15Z</time>
      </trkpt>
      <trkpt lat="44.42801" lon="5.44457">
        <ele>1285.1</ele>
        <time>2023-07-24T09:47:16Z</time>
      </trkpt>
      <trkpt lat="44.42801" lon="5.44458">
        <ele>1285</ele>
        <time>2023-07-24T09:47:17Z</time>
      </trkpt>
      <trkpt lat="44.42799" lon="5.44464">
        <ele>1284.7</ele>
        <time>2023-07-24T09:47:18Z</time>
      </trkpt>
      <trkpt lat="44.42799" lon="5.44466">
        <ele>1284.5</ele>
        <time>2023-07-24T09:47:19Z</time>
      </trkpt>
      <trkpt lat="44.42799" lon="5.44471">
        <ele>1284.2</ele>
        <time>2023-07-24T09:47:20Z</time>
      </trkpt>
      <trkpt lat="44.42799" lon="5.44473">
        <ele>1284.1</ele>
        <time>2023-07-24T09:47:21Z</time>
      </trkpt>
      <trkpt lat="44.428" lon="5.44477">
        <ele>1283.8</ele>
        <time>2023-07-24T09:47:22Z</time>
      </trkpt>
      <trkpt lat="44.428" lon="5.44482">
        <ele>1283.4</ele>
        <time>2023-07-24T09:47:23Z</time>
      </trkpt>
      <trkpt lat="44.42801" lon="5.44486">
        <ele>1283.1</ele>
        <time>2023-07-24T09:47:24Z</time>
      </trkpt>
      <trkpt lat="44.42801" lon="5.4449">
        <ele>1282.7</ele>
        <time>2023-07-24T09:47:25Z</time>
      </trkpt>
      <trkpt lat="44.42801" lon="5.44494">
        <ele>1282.4</ele>
        <time>2023-07-24T09:47:26Z</time>
      </trkpt>
      <trkpt lat="44.42801" lon="5.44498">
        <ele>1282</ele>
        <time>2023-07-24T09:47:27Z</time>
      </trkpt>
      <trkpt lat="44.428" lon="5.44503">
        <ele>1281.7</ele>
        <time>2023-07-24T09:47:28Z</time>
      </trkpt>
      <trkpt lat="44.42801" lon="5.44509">
        <ele>1281.3</ele>
        <time>2023-07-24T09:47:29Z</time>
      </trkpt>
      <trkpt lat="44.42801" lon="5.44515">
        <ele>1281</ele>
        <time>2023-07-24T09:47:30Z</time>
      </trkpt>
      <trkpt lat="44.42801" lon="5.4452">
        <ele>1280.8</ele>
        <time>2023-07-24T09:47:31Z</time>
      </trkpt>
      <trkpt lat="44.42802" lon="5.44527">
        <ele>1280.6</ele>
        <time>2023-07-24T09:47:32Z</time>
      </trkpt>
      <trkpt lat="44.42803" lon="5.44533">
        <ele>1280.5</ele>
        <time>2023-07-24T09:47:33Z</time>
      </trkpt>
      <trkpt lat="44.42804" lon="5.44539">
        <ele>1280.5</ele>
        <time>2023-07-24T09:47:34Z</time>
      </trkpt>
      <trkpt lat="44.42807" lon="5.44545">
        <ele>1280.4</ele>
        <time>2023-07-24T09:47:35Z</time>
      </trkpt>
      <trkpt lat="44.42808" lon="5.44549">
        <ele>1280.4</ele>
        <time>2023-07-24T09:47:36Z</time>
      </trkpt>
      <trkpt lat="44.4281" lon="5.44553">
        <ele>1280.2</ele>
        <time>2023-07-24T09:47:37Z</time>
      </trkpt>
      <trkpt lat="44.42811" lon="5.44556">
        <ele>1280.1</ele>
        <time>2023-07-24T09:47:38Z</time>
      </trkpt>
      <trkpt lat="44.42813" lon="5.4456">
        <ele>1279.9</ele>
        <time>2023-07-24T09:47:39Z</time>
      </trkpt>
      <trkpt lat="44.42815" lon="5.44564">
        <ele>1279.5</ele>
        <time>2023-07-24T09:47:40Z</time>
      </trkpt>
      <trkpt lat="44.42817" lon="5.44568">
        <ele>1279.2</ele>
        <time>2023-07-24T09:47:41Z</time>
      </trkpt>
      <trkpt lat="44.42819" lon="5.44573">
        <ele>1278.7</ele>
        <time>2023-07-24T09:47:42Z</time>
      </trkpt>
      <trkpt lat="44.42821" lon="5.44576">
        <ele>1278.2</ele>
        <time>2023-07-24T09:47:43Z</time>
      </trkpt>
      <trkpt lat="44.42823" lon="5.44578">
        <ele>1278</ele>
        <time>2023-07-24T09:47:44Z</time>
      </trkpt>
      <trkpt lat="44.42823" lon="5.44578">
        <ele>1277.9</ele>
        <time>2023-07-24T09:47:45Z</time>
      </trkpt>
      <trkpt lat="44.42823" lon="5.44578">
        <ele>1277.9</ele>
        <time>2023-07-24T09:47:46Z</time>
      </trkpt>
      <trkpt lat="44.42823" lon="5.44579">
        <ele>1277.9</ele>
        <time>2023-07-24T09:47:47Z</time>
      </trkpt>
      <trkpt lat="44.42824" lon="5.44579">
        <ele>1277.9</ele>
        <time>2023-07-24T09:47:48Z</time>
      </trkpt>
      <trkpt lat="44.42824" lon="5.44579">
        <ele>1277.8</ele>
        <time>2023-07-24T09:47:49Z</time>
      </trkpt>
      <trkpt lat="44.42824" lon="5.44579">
        <ele>1277.8</ele>
        <time>2023-07-24T09:47:50Z</time>
      </trkpt>
      <trkpt lat="44.42824" lon="5.44579">
        <ele>1277.8</ele>
        <time>2023-07-24T09:47:51Z</time>
      </trkpt>
      <trkpt lat="44.42824" lon="5.44579">
        <ele>1277.8</ele>
        <time>2023-07-24T09:47:52Z</time>
      </trkpt>
      <trkpt lat="44.42826" lon="5.44584">
        <ele>1277.3</ele>
        <time>2023-07-24T09:47:53Z</time>
      </trkpt>
      <trkpt lat="44.42827" lon="5.44585">
        <ele>1277.2</ele>
        <time>2023-07-24T09:47:54Z</time>
      </trkpt>
      <trkpt lat="44.42828" lon="5.4459">
        <ele>1276.9</ele>
        <time>2023-07-24T09:47:55Z</time>
      </trkpt>
      <trkpt lat="44.42828" lon="5.44592">
        <ele>1276.7</ele>
        <time>2023-07-24T09:47:56Z</time>
      </trkpt>
      <trkpt lat="44.42827" lon="5.44596">
        <ele>1276.5</ele>
        <time>2023-07-24T09:47:57Z</time>
      </trkpt>
      <trkpt lat="44.42827" lon="5.446">
        <ele>1276.3</ele>
        <time>2023-07-24T09:47:58Z</time>
      </trkpt>
      <trkpt lat="44.42827" lon="5.44605">
        <ele>1276.1</ele>
        <time>2023-07-24T09:47:59Z</time>
      </trkpt>
      <trkpt lat="44.42828" lon="5.4461">
        <ele>1276</ele>
        <time>2023-07-24T09:48:00Z</time>
      </trkpt>
      <trkpt lat="44.42828" lon="5.44615">
        <ele>1275.8</ele>
        <time>2023-07-24T09:48:01Z</time>
      </trkpt>
      <trkpt lat="44.42829" lon="5.44619">
        <ele>1275.7</ele>
        <time>2023-07-24T09:48:02Z</time>
      </trkpt>
      <trkpt lat="44.42829" lon="5.44624">
        <ele>1275.6</ele>
        <time>2023-07-24T09:48:03Z</time>
      </trkpt>
      <trkpt lat="44.4283" lon="5.44628">
        <ele>1275.5</ele>
        <time>2023-07-24T09:48:04Z</time>
      </trkpt>
      <trkpt lat="44.42832" lon="5.44633">
        <ele>1275.4</ele>
        <time>2023-07-24T09:48:05Z</time>
      </trkpt>
      <trkpt lat="44.42832" lon="5.44637">
        <ele>1275.2</ele>
        <time>2023-07-24T09:48:06Z</time>
      </trkpt>
      <trkpt lat="44.42833" lon="5.44641">
        <ele>1275.1</ele>
        <time>2023-07-24T09:48:07Z</time>
      </trkpt>
      <trkpt lat="44.42833" lon="5.44646">
        <ele>1275</ele>
        <time>2023-07-24T09:48:08Z</time>
      </trkpt>
      <trkpt lat="44.42832" lon="5.4465">
        <ele>1274.8</ele>
        <time>2023-07-24T09:48:09Z</time>
      </trkpt>
      <trkpt lat="44.42832" lon="5.44653">
        <ele>1274.7</ele>
        <time>2023-07-24T09:48:10Z</time>
      </trkpt>
      <trkpt lat="44.4283" lon="5.44658">
        <ele>1274.4</ele>
        <time>2023-07-24T09:48:11Z</time>
      </trkpt>
      <trkpt lat="44.4283" lon="5.4466">
        <ele>1274.4</ele>
        <time>2023-07-24T09:48:12Z</time>
      </trkpt>
      <trkpt lat="44.42828" lon="5.44664">
        <ele>1274.1</ele>
        <time>2023-07-24T09:48:14Z</time>
      </trkpt>
      <trkpt lat="44.42827" lon="5.44668">
        <ele>1273.9</ele>
        <time>2023-07-24T09:48:15Z</time>
      </trkpt>
      <trkpt lat="44.42827" lon="5.4467">
        <ele>1273.8</ele>
        <time>2023-07-24T09:48:16Z</time>
      </trkpt>
      <trkpt lat="44.42827" lon="5.44674">
        <ele>1273.5</ele>
        <time>2023-07-24T09:48:17Z</time>
      </trkpt>
      <trkpt lat="44.42826" lon="5.44676">
        <ele>1273.4</ele>
        <time>2023-07-24T09:48:18Z</time>
      </trkpt>
      <trkpt lat="44.42825" lon="5.4468">
        <ele>1273.1</ele>
        <time>2023-07-24T09:48:19Z</time>
      </trkpt>
      <trkpt lat="44.42824" lon="5.44682">
        <ele>1273</ele>
        <time>2023-07-24T09:48:20Z</time>
      </trkpt>
      <trkpt lat="44.42823" lon="5.44685">
        <ele>1272.8</ele>
        <time>2023-07-24T09:48:21Z</time>
      </trkpt>
      <trkpt lat="44.42821" lon="5.4469">
        <ele>1272.4</ele>
        <time>2023-07-24T09:48:22Z</time>
      </trkpt>
      <trkpt lat="44.42818" lon="5.44694">
        <ele>1272.1</ele>
        <time>2023-07-24T09:48:23Z</time>
      </trkpt>
      <trkpt lat="44.42815" lon="5.44697">
        <ele>1271.7</ele>
        <time>2023-07-24T09:48:24Z</time>
      </trkpt>
      <trkpt lat="44.42813" lon="5.447">
        <ele>1271.5</ele>
        <time>2023-07-24T09:48:25Z</time>
      </trkpt>
      <trkpt lat="44.42812" lon="5.44702">
        <ele>1271.3</ele>
        <time>2023-07-24T09:48:26Z</time>
      </trkpt>
      <trkpt lat="44.42811" lon="5.44703">
        <ele>1271.3</ele>
        <time>2023-07-24T09:48:27Z</time>
      </trkpt>
      <trkpt lat="44.42811" lon="5.44703">
        <ele>1271.2</ele>
        <time>2023-07-24T09:48:28Z</time>
      </trkpt>
      <trkpt lat="44.4281" lon="5.44705">
        <ele>1271.1</ele>
        <time>2023-07-24T09:48:29Z</time>
      </trkpt>
      <trkpt lat="44.42809" lon="5.44707">
        <ele>1271</ele>
        <time>2023-07-24T09:48:30Z</time>
      </trkpt>
      <trkpt lat="44.42807" lon="5.44708">
        <ele>1270.9</ele>
        <time>2023-07-24T09:48:31Z</time>
      </trkpt>
      <trkpt lat="44.42806" lon="5.44711">
        <ele>1270.7</ele>
        <time>2023-07-24T09:48:32Z</time>
      </trkpt>
      <trkpt lat="44.42804" lon="5.44715">
        <ele>1270.5</ele>
        <time>2023-07-24T09:48:33Z</time>
      </trkpt>
      <trkpt lat="44.42803" lon="5.44719">
        <ele>1270.2</ele>
        <time>2023-07-24T09:48:34Z</time>
      </trkpt>
      <trkpt lat="44.42802" lon="5.44721">
        <ele>1270.1</ele>
        <time>2023-07-24T09:48:35Z</time>
      </trkpt>
      <trkpt lat="44.42801" lon="5.44724">
        <ele>1269.9</ele>
        <time>2023-07-24T09:48:36Z</time>
      </trkpt>
      <trkpt lat="44.42798" lon="5.44728">
        <ele>1269.5</ele>
        <time>2023-07-24T09:48:37Z</time>
      </trkpt>
      <trkpt lat="44.42798" lon="5.4473">
        <ele>1269.4</ele>
        <time>2023-07-24T09:48:38Z</time>
      </trkpt>
      <trkpt lat="44.42796" lon="5.44733">
        <ele>1269</ele>
        <time>2023-07-24T09:48:39Z</time>
      </trkpt>
      <trkpt lat="44.42793" lon="5.44737">
        <ele>1268.5</ele>
        <time>2023-07-24T09:48:40Z</time>
      </trkpt>
      <trkpt lat="44.42792" lon="5.44738">
        <ele>1268.3</ele>
        <time>2023-07-24T09:48:41Z</time>
      </trkpt>
      <trkpt lat="44.42791" lon="5.4474">
        <ele>1267.9</ele>
        <time>2023-07-24T09:48:42Z</time>
      </trkpt>
      <trkpt lat="44.42791" lon="5.44743">
        <ele>1267.7</ele>
        <time>2023-07-24T09:48:43Z</time>
      </trkpt>
      <trkpt lat="44.4279" lon="5.44747">
        <ele>1267.1</ele>
        <time>2023-07-24T09:48:44Z</time>
      </trkpt>
      <trkpt lat="44.4279" lon="5.44749">
        <ele>1266.9</ele>
        <time>2023-07-24T09:48:45Z</time>
      </trkpt>
      <trkpt lat="44.42789" lon="5.44753">
        <ele>1266.4</ele>
        <time>2023-07-24T09:48:46Z</time>
      </trkpt>
      <trkpt lat="44.42788" lon="5.44754">
        <ele>1266.2</ele>
        <time>2023-07-24T09:48:47Z</time>
      </trkpt>
      <trkpt lat="44.42787" lon="5.44757">
        <ele>1265.8</ele>
        <time>2023-07-24T09:48:48Z</time>
      </trkpt>
      <trkpt lat="44.42786" lon="5.44758">
        <ele>1265.7</ele>
        <time>2023-07-24T09:48:49Z</time>
      </trkpt>
      <trkpt lat="44.42783" lon="5.44761">
        <ele>1265.1</ele>
        <time>2023-07-24T09:48:50Z</time>
      </trkpt>
      <trkpt lat="44.42782" lon="5.44762">
        <ele>1264.9</ele>
        <time>2023-07-24T09:48:51Z</time>
      </trkpt>
      <trkpt lat="44.4278" lon="5.44766">
        <ele>1264.4</ele>
        <time>2023-07-24T09:48:52Z</time>
      </trkpt>
      <trkpt lat="44.42779" lon="5.44767">
        <ele>1264.2</ele>
        <time>2023-07-24T09:48:53Z</time>
      </trkpt>
      <trkpt lat="44.42778" lon="5.44769">
        <ele>1264</ele>
        <time>2023-07-24T09:48:54Z</time>
      </trkpt>
      <trkpt lat="44.42777" lon="5.44771">
        <ele>1263.7</ele>
        <time>2023-07-24T09:48:55Z</time>
      </trkpt>
      <trkpt lat="44.42774" lon="5.44775">
        <ele>1263.1</ele>
        <time>2023-07-24T09:48:56Z</time>
      </trkpt>
      <trkpt lat="44.42773" lon="5.44777">
        <ele>1262.9</ele>
        <time>2023-07-24T09:48:57Z</time>
      </trkpt>
      <trkpt lat="44.42771" lon="5.4478">
        <ele>1262.6</ele>
        <time>2023-07-24T09:48:58Z</time>
      </trkpt>
      <trkpt lat="44.4277" lon="5.44783">
        <ele>1262.2</ele>
        <time>2023-07-24T09:48:59Z</time>
      </trkpt>
      <trkpt lat="44.42769" lon="5.44786">
        <ele>1261.9</ele>
        <time>2023-07-24T09:49:00Z</time>
      </trkpt>
      <trkpt lat="44.42767" lon="5.4479">
        <ele>1261.5</ele>
        <time>2023-07-24T09:49:01Z</time>
      </trkpt>
      <trkpt lat="44.42767" lon="5.44792">
        <ele>1261.3</ele>
        <time>2023-07-24T09:49:02Z</time>
      </trkpt>
      <trkpt lat="44.42765" lon="5.44796">
        <ele>1260.9</ele>
        <time>2023-07-24T09:49:03Z</time>
      </trkpt>
      <trkpt lat="44.42764" lon="5.44798">
        <ele>1260.7</ele>
        <time>2023-07-24T09:49:04Z</time>
      </trkpt>
      <trkpt lat="44.42764" lon="5.44802">
        <ele>1260.3</ele>
        <time>2023-07-24T09:49:05Z</time>
      </trkpt>
      <trkpt lat="44.42762" lon="5.44807">
        <ele>1259.7</ele>
        <time>2023-07-24T09:49:06Z</time>
      </trkpt>
      <trkpt lat="44.42762" lon="5.44809">
        <ele>1259.5</ele>
        <time>2023-07-24T09:49:07Z</time>
      </trkpt>
      <trkpt lat="44.42761" lon="5.44812">
        <ele>1259.1</ele>
        <time>2023-07-24T09:49:08Z</time>
      </trkpt>
      <trkpt lat="44.4276" lon="5.44816">
        <ele>1258.7</ele>
        <time>2023-07-24T09:49:09Z</time>
      </trkpt>
      <trkpt lat="44.42759" lon="5.4482">
        <ele>1258.2</ele>
        <time>2023-07-24T09:49:10Z</time>
      </trkpt>
      <trkpt lat="44.42759" lon="5.44824">
        <ele>1257.7</ele>
        <time>2023-07-24T09:49:11Z</time>
      </trkpt>
      <trkpt lat="44.42758" lon="5.44828">
        <ele>1257.2</ele>
        <time>2023-07-24T09:49:12Z</time>
      </trkpt>
      <trkpt lat="44.42758" lon="5.44832">
        <ele>1256.6</ele>
        <time>2023-07-24T09:49:13Z</time>
      </trkpt>
      <trkpt lat="44.42758" lon="5.44834">
        <ele>1256.4</ele>
        <time>2023-07-24T09:49:14Z</time>
      </trkpt>
      <trkpt lat="44.42756" lon="5.44839">
        <ele>1255.7</ele>
        <time>2023-07-24T09:49:15Z</time>
      </trkpt>
      <trkpt lat="44.42755" lon="5.44841">
        <ele>1255.4</ele>
        <time>2023-07-24T09:49:16Z</time>
      </trkpt>
      <trkpt lat="44.42754" lon="5.44845">
        <ele>1254.8</ele>
        <time>2023-07-24T09:49:17Z</time>
      </trkpt>
      <trkpt lat="44.42753" lon="5.44849">
        <ele>1254.2</ele>
        <time>2023-07-24T09:49:18Z</time>
      </trkpt>
      <trkpt lat="44.42753" lon="5.44853">
        <ele>1253.7</ele>
        <time>2023-07-24T09:49:19Z</time>
      </trkpt>
      <trkpt lat="44.42753" lon="5.44859">
        <ele>1253</ele>
        <time>2023-07-24T09:49:20Z</time>
      </trkpt>
      <trkpt lat="44.42753" lon="5.4486">
        <ele>1252.8</ele>
        <time>2023-07-24T09:49:21Z</time>
      </trkpt>
      <trkpt lat="44.42753" lon="5.44862">
        <ele>1252.5</ele>
        <time>2023-07-24T09:49:22Z</time>
      </trkpt>
      <trkpt lat="44.42753" lon="5.44864">
        <ele>1252.3</ele>
        <time>2023-07-24T09:49:23Z</time>
      </trkpt>
      <trkpt lat="44.42753" lon="5.44868">
        <ele>1251.7</ele>
        <time>2023-07-24T09:49:24Z</time>
      </trkpt>
      <trkpt lat="44.42753" lon="5.4487">
        <ele>1251.5</ele>
        <time>2023-07-24T09:49:25Z</time>
      </trkpt>
      <trkpt lat="44.42753" lon="5.44874">
        <ele>1250.9</ele>
        <time>2023-07-24T09:49:26Z</time>
      </trkpt>
      <trkpt lat="44.42753" lon="5.44876">
        <ele>1250.7</ele>
        <time>2023-07-24T09:49:27Z</time>
      </trkpt>
      <trkpt lat="44.42754" lon="5.44882">
        <ele>1249.9</ele>
        <time>2023-07-24T09:49:28Z</time>
      </trkpt>
      <trkpt lat="44.42754" lon="5.44883">
        <ele>1249.6</ele>
        <time>2023-07-24T09:49:29Z</time>
      </trkpt>
      <trkpt lat="44.42755" lon="5.44889">
        <ele>1248.8</ele>
        <time>2023-07-24T09:49:30Z</time>
      </trkpt>
      <trkpt lat="44.42755" lon="5.4489">
        <ele>1248.5</ele>
        <time>2023-07-24T09:49:31Z</time>
      </trkpt>
      <trkpt lat="44.42756" lon="5.44895">
        <ele>1247.8</ele>
        <time>2023-07-24T09:49:32Z</time>
      </trkpt>
      <trkpt lat="44.42756" lon="5.44897">
        <ele>1247.6</ele>
        <time>2023-07-24T09:49:33Z</time>
      </trkpt>
      <trkpt lat="44.42757" lon="5.44901">
        <ele>1247</ele>
        <time>2023-07-24T09:49:34Z</time>
      </trkpt>
      <trkpt lat="44.42758" lon="5.44904">
        <ele>1246.6</ele>
        <time>2023-07-24T09:49:35Z</time>
      </trkpt>
      <trkpt lat="44.42758" lon="5.44906">
        <ele>1246.4</ele>
        <time>2023-07-24T09:49:36Z</time>
      </trkpt>
      <trkpt lat="44.42758" lon="5.4491">
        <ele>1245.9</ele>
        <time>2023-07-24T09:49:37Z</time>
      </trkpt>
      <trkpt lat="44.42758" lon="5.44911">
        <ele>1245.8</ele>
        <time>2023-07-24T09:49:38Z</time>
      </trkpt>
      <trkpt lat="44.42756" lon="5.44916">
        <ele>1245.3</ele>
        <time>2023-07-24T09:49:39Z</time>
      </trkpt>
      <trkpt lat="44.42756" lon="5.44918">
        <ele>1245.1</ele>
        <time>2023-07-24T09:49:40Z</time>
      </trkpt>
      <trkpt lat="44.42757" lon="5.44922">
        <ele>1244.8</ele>
        <time>2023-07-24T09:49:41Z</time>
      </trkpt>
      <trkpt lat="44.42758" lon="5.44926">
        <ele>1244.4</ele>
        <time>2023-07-24T09:49:42Z</time>
      </trkpt>
      <trkpt lat="44.4276" lon="5.4493">
        <ele>1244</ele>
        <time>2023-07-24T09:49:43Z</time>
      </trkpt>
      <trkpt lat="44.42763" lon="5.44934">
        <ele>1243.4</ele>
        <time>2023-07-24T09:49:44Z</time>
      </trkpt>
      <trkpt lat="44.42763" lon="5.44935">
        <ele>1243.3</ele>
        <time>2023-07-24T09:49:45Z</time>
      </trkpt>
      <trkpt lat="44.42764" lon="5.44937">
        <ele>1242.9</ele>
        <time>2023-07-24T09:49:46Z</time>
      </trkpt>
      <trkpt lat="44.42764" lon="5.44939">
        <ele>1242.6</ele>
        <time>2023-07-24T09:49:47Z</time>
      </trkpt>
      <trkpt lat="44.42764" lon="5.44941">
        <ele>1242.3</ele>
        <time>2023-07-24T09:49:48Z</time>
      </trkpt>
      <trkpt lat="44.42764" lon="5.44943">
        <ele>1241.9</ele>
        <time>2023-07-24T09:49:49Z</time>
      </trkpt>
      <trkpt lat="44.42764" lon="5.44946">
        <ele>1241.4</ele>
        <time>2023-07-24T09:49:50Z</time>
      </trkpt>
      <trkpt lat="44.42764" lon="5.44948">
        <ele>1241</ele>
        <time>2023-07-24T09:49:51Z</time>
      </trkpt>
      <trkpt lat="44.42764" lon="5.4495">
        <ele>1240.5</ele>
        <time>2023-07-24T09:49:52Z</time>
      </trkpt>
      <trkpt lat="44.42764" lon="5.44952">
        <ele>1240.1</ele>
        <time>2023-07-24T09:49:53Z</time>
      </trkpt>
      <trkpt lat="44.42762" lon="5.44956">
        <ele>1239.2</ele>
        <time>2023-07-24T09:49:54Z</time>
      </trkpt>
      <trkpt lat="44.42761" lon="5.44957">
        <ele>1238.9</ele>
        <time>2023-07-24T09:49:55Z</time>
      </trkpt>
      <trkpt lat="44.4276" lon="5.44961">
        <ele>1238</ele>
        <time>2023-07-24T09:49:56Z</time>
      </trkpt>
      <trkpt lat="44.4276" lon="5.44962">
        <ele>1237.7</ele>
        <time>2023-07-24T09:49:57Z</time>
      </trkpt>
      <trkpt lat="44.4276" lon="5.44964">
        <ele>1237.4</ele>
        <time>2023-07-24T09:49:58Z</time>
      </trkpt>
      <trkpt lat="44.42761" lon="5.44966">
        <ele>1237.1</ele>
        <time>2023-07-24T09:49:59Z</time>
      </trkpt>
      <trkpt lat="44.42761" lon="5.44966">
        <ele>1236.9</ele>
        <time>2023-07-24T09:50:00Z</time>
      </trkpt>
      <trkpt lat="44.42761" lon="5.44967">
        <ele>1236.8</ele>
        <time>2023-07-24T09:50:01Z</time>
      </trkpt>
      <trkpt lat="44.42761" lon="5.44967">
        <ele>1236.7</ele>
        <time>2023-07-24T09:50:02Z</time>
      </trkpt>
      <trkpt lat="44.42761" lon="5.44968">
        <ele>1236.5</ele>
        <time>2023-07-24T09:50:03Z</time>
      </trkpt>
      <trkpt lat="44.42761" lon="5.44969">
        <ele>1236.5</ele>
        <time>2023-07-24T09:50:04Z</time>
      </trkpt>
      <trkpt lat="44.4276" lon="5.44969">
        <ele>1236.3</ele>
        <time>2023-07-24T09:50:05Z</time>
      </trkpt>
      <trkpt lat="44.4276" lon="5.4497">
        <ele>1236.1</ele>
        <time>2023-07-24T09:50:06Z</time>
      </trkpt>
      <trkpt lat="44.42759" lon="5.44971">
        <ele>1235.8</ele>
        <time>2023-07-24T09:50:07Z</time>
      </trkpt>
      <trkpt lat="44.42759" lon="5.44971">
        <ele>1235.7</ele>
        <time>2023-07-24T09:50:08Z</time>
      </trkpt>
      <trkpt lat="44.42758" lon="5.44972">
        <ele>1235.6</ele>
        <time>2023-07-24T09:50:09Z</time>
      </trkpt>
      <trkpt lat="44.42758" lon="5.44973">
        <ele>1235.4</ele>
        <time>2023-07-24T09:50:10Z</time>
      </trkpt>
      <trkpt lat="44.42758" lon="5.44973">
        <ele>1235.3</ele>
        <time>2023-07-24T09:50:11Z</time>
      </trkpt>
      <trkpt lat="44.42758" lon="5.44974">
        <ele>1235.2</ele>
        <time>2023-07-24T09:50:12Z</time>
      </trkpt>
      <trkpt lat="44.42758" lon="5.44974">
        <ele>1235.1</ele>
        <time>2023-07-24T09:50:13Z</time>
      </trkpt>
      <trkpt lat="44.42756" lon="5.44979">
        <ele>1234.1</ele>
        <time>2023-07-24T09:50:14Z</time>
      </trkpt>
      <trkpt lat="44.42755" lon="5.44981">
        <ele>1233.8</ele>
        <time>2023-07-24T09:50:15Z</time>
      </trkpt>
      <trkpt lat="44.42754" lon="5.44985">
        <ele>1233</ele>
        <time>2023-07-24T09:50:16Z</time>
      </trkpt>
      <trkpt lat="44.42754" lon="5.44989">
        <ele>1232.1</ele>
        <time>2023-07-24T09:50:17Z</time>
      </trkpt>
      <trkpt lat="44.42753" lon="5.44991">
        <ele>1231.8</ele>
        <time>2023-07-24T09:50:18Z</time>
      </trkpt>
      <trkpt lat="44.42752" lon="5.44994">
        <ele>1231</ele>
        <time>2023-07-24T09:50:19Z</time>
      </trkpt>
      <trkpt lat="44.42752" lon="5.44996">
        <ele>1230.7</ele>
        <time>2023-07-24T09:50:20Z</time>
      </trkpt>
      <trkpt lat="44.42751" lon="5.45">
        <ele>1229.8</ele>
        <time>2023-07-24T09:50:21Z</time>
      </trkpt>
      <trkpt lat="44.42751" lon="5.45001">
        <ele>1229.5</ele>
        <time>2023-07-24T09:50:22Z</time>
      </trkpt>
      <trkpt lat="44.4275" lon="5.45003">
        <ele>1229</ele>
        <time>2023-07-24T09:50:23Z</time>
      </trkpt>
      <trkpt lat="44.42749" lon="5.45005">
        <ele>1228.5</ele>
        <time>2023-07-24T09:50:24Z</time>
      </trkpt>
      <trkpt lat="44.42748" lon="5.45008">
        <ele>1227.8</ele>
        <time>2023-07-24T09:50:25Z</time>
      </trkpt>
      <trkpt lat="44.42747" lon="5.45009">
        <ele>1227.4</ele>
        <time>2023-07-24T09:50:26Z</time>
      </trkpt>
      <trkpt lat="44.42747" lon="5.4501">
        <ele>1227.1</ele>
        <time>2023-07-24T09:50:27Z</time>
      </trkpt>
      <trkpt lat="44.42744" lon="5.45012">
        <ele>1226.3</ele>
        <time>2023-07-24T09:50:28Z</time>
      </trkpt>
      <trkpt lat="44.42742" lon="5.45015">
        <ele>1225.5</ele>
        <time>2023-07-24T09:50:29Z</time>
      </trkpt>
      <trkpt lat="44.4274" lon="5.45018">
        <ele>1224.6</ele>
        <time>2023-07-24T09:50:30Z</time>
      </trkpt>
      <trkpt lat="44.42738" lon="5.45022">
        <ele>1223.7</ele>
        <time>2023-07-24T09:50:31Z</time>
      </trkpt>
      <trkpt lat="44.42737" lon="5.45026">
        <ele>1222.9</ele>
        <time>2023-07-24T09:50:32Z</time>
      </trkpt>
      <trkpt lat="44.42735" lon="5.45031">
        <ele>1221.9</ele>
        <time>2023-07-24T09:50:33Z</time>
      </trkpt>
      <trkpt lat="44.42734" lon="5.45033">
        <ele>1221.6</ele>
        <time>2023-07-24T09:50:34Z</time>
      </trkpt>
      <trkpt lat="44.42733" lon="5.45037">
        <ele>1220.7</ele>
        <time>2023-07-24T09:50:35Z</time>
      </trkpt>
      <trkpt lat="44.42732" lon="5.45038">
        <ele>1220.6</ele>
        <time>2023-07-24T09:50:36Z</time>
      </trkpt>
      <trkpt lat="44.42732" lon="5.45039">
        <ele>1220.4</ele>
        <time>2023-07-24T09:50:37Z</time>
      </trkpt>
      <trkpt lat="44.42732" lon="5.45039">
        <ele>1220.4</ele>
        <time>2023-07-24T09:50:38Z</time>
      </trkpt>
      <trkpt lat="44.42732" lon="5.45039">
        <ele>1220.4</ele>
        <time>2023-07-24T09:50:39Z</time>
      </trkpt>
      <trkpt lat="44.42733" lon="5.45039">
        <ele>1220.3</ele>
        <time>2023-07-24T09:50:40Z</time>
      </trkpt>
      <trkpt lat="44.42733" lon="5.45039">
        <ele>1220.3</ele>
        <time>2023-07-24T09:50:41Z</time>
      </trkpt>
      <trkpt lat="44.42733" lon="5.45039">
        <ele>1220.3</ele>
        <time>2023-07-24T09:50:42Z</time>
      </trkpt>
      <trkpt lat="44.42733" lon="5.45039">
        <ele>1220.3</ele>
        <time>2023-07-24T09:50:43Z</time>
      </trkpt>
      <trkpt lat="44.42733" lon="5.45039">
        <ele>1220.3</ele>
        <time>2023-07-24T09:50:44Z</time>
      </trkpt>
      <trkpt lat="44.42733" lon="5.45039">
        <ele>1220.3</ele>
        <time>2023-07-24T09:50:45Z</time>
      </trkpt>
      <trkpt lat="44.42733" lon="5.45039">
        <ele>1220.3</ele>
        <time>2023-07-24T09:50:46Z</time>
      </trkpt>
      <trkpt lat="44.42732" lon="5.45039">
        <ele>1220.2</ele>
        <time>2023-07-24T09:50:47Z</time>
      </trkpt>
      <trkpt lat="44.4273" lon="5.45043">
        <ele>1219.4</ele>
        <time>2023-07-24T09:50:49Z</time>
      </trkpt>
      <trkpt lat="44.42728" lon="5.45046">
        <ele>1218.6</ele>
        <time>2023-07-24T09:50:50Z</time>
      </trkpt>
      <trkpt lat="44.42725" lon="5.4505">
        <ele>1217.5</ele>
        <time>2023-07-24T09:50:51Z</time>
      </trkpt>
      <trkpt lat="44.42722" lon="5.45053">
        <ele>1216.5</ele>
        <time>2023-07-24T09:50:52Z</time>
      </trkpt>
      <trkpt lat="44.42719" lon="5.45057">
        <ele>1215.4</ele>
        <time>2023-07-24T09:50:53Z</time>
      </trkpt>
      <trkpt lat="44.42717" lon="5.45062">
        <ele>1214.5</ele>
        <time>2023-07-24T09:50:54Z</time>
      </trkpt>
      <trkpt lat="44.42716" lon="5.45065">
        <ele>1213.8</ele>
        <time>2023-07-24T09:50:55Z</time>
      </trkpt>
      <trkpt lat="44.42713" lon="5.45069">
        <ele>1212.8</ele>
        <time>2023-07-24T09:50:56Z</time>
      </trkpt>
      <trkpt lat="44.42712" lon="5.4507">
        <ele>1212.5</ele>
        <time>2023-07-24T09:50:57Z</time>
      </trkpt>
      <trkpt lat="44.4271" lon="5.45074">
        <ele>1211.6</ele>
        <time>2023-07-24T09:50:58Z</time>
      </trkpt>
      <trkpt lat="44.42709" lon="5.45075">
        <ele>1211.4</ele>
        <time>2023-07-24T09:50:59Z</time>
      </trkpt>
      <trkpt lat="44.42707" lon="5.45079">
        <ele>1210.5</ele>
        <time>2023-07-24T09:51:00Z</time>
      </trkpt>
      <trkpt lat="44.42707" lon="5.4508">
        <ele>1210.2</ele>
        <time>2023-07-24T09:51:01Z</time>
      </trkpt>
      <trkpt lat="44.42705" lon="5.45084">
        <ele>1209.4</ele>
        <time>2023-07-24T09:51:02Z</time>
      </trkpt>
      <trkpt lat="44.42703" lon="5.45087">
        <ele>1208.6</ele>
        <time>2023-07-24T09:51:03Z</time>
      </trkpt>
      <trkpt lat="44.42701" lon="5.45091">
        <ele>1207.6</ele>
        <time>2023-07-24T09:51:04Z</time>
      </trkpt>
      <trkpt lat="44.427" lon="5.45093">
        <ele>1207.2</ele>
        <time>2023-07-24T09:51:05Z</time>
      </trkpt>
      <trkpt lat="44.42698" lon="5.45096">
        <ele>1206.4</ele>
        <time>2023-07-24T09:51:06Z</time>
      </trkpt>
      <trkpt lat="44.42697" lon="5.45097">
        <ele>1206.1</ele>
        <time>2023-07-24T09:51:07Z</time>
      </trkpt>
      <trkpt lat="44.42695" lon="5.451">
        <ele>1205.3</ele>
        <time>2023-07-24T09:51:08Z</time>
      </trkpt>
      <trkpt lat="44.42694" lon="5.45101">
        <ele>1205</ele>
        <time>2023-07-24T09:51:09Z</time>
      </trkpt>
      <trkpt lat="44.4269" lon="5.45105">
        <ele>1203.8</ele>
        <time>2023-07-24T09:51:10Z</time>
      </trkpt>
      <trkpt lat="44.42689" lon="5.45106">
        <ele>1203.2</ele>
        <time>2023-07-24T09:51:11Z</time>
      </trkpt>
      <trkpt lat="44.42687" lon="5.4511">
        <ele>1202.1</ele>
        <time>2023-07-24T09:51:12Z</time>
      </trkpt>
      <trkpt lat="44.42685" lon="5.45114">
        <ele>1201.2</ele>
        <time>2023-07-24T09:51:13Z</time>
      </trkpt>
      <trkpt lat="44.42682" lon="5.45118">
        <ele>1200.1</ele>
        <time>2023-07-24T09:51:14Z</time>
      </trkpt>
      <trkpt lat="44.42681" lon="5.45119">
        <ele>1199.7</ele>
        <time>2023-07-24T09:51:15Z</time>
      </trkpt>
      <trkpt lat="44.42678" lon="5.45121">
        <ele>1198.9</ele>
        <time>2023-07-24T09:51:16Z</time>
      </trkpt>
      <trkpt lat="44.42676" lon="5.45124">
        <ele>1198.1</ele>
        <time>2023-07-24T09:51:17Z</time>
      </trkpt>
      <trkpt lat="44.42674" lon="5.45128">
        <ele>1197.3</ele>
        <time>2023-07-24T09:51:18Z</time>
      </trkpt>
      <trkpt lat="44.42672" lon="5.45132">
        <ele>1196.5</ele>
        <time>2023-07-24T09:51:19Z</time>
      </trkpt>
      <trkpt lat="44.42671" lon="5.45136">
        <ele>1195.7</ele>
        <time>2023-07-24T09:51:20Z</time>
      </trkpt>
      <trkpt lat="44.42669" lon="5.4514">
        <ele>1195.1</ele>
        <time>2023-07-24T09:51:21Z</time>
      </trkpt>
      <trkpt lat="44.42667" lon="5.45143">
        <ele>1194.4</ele>
        <time>2023-07-24T09:51:22Z</time>
      </trkpt>
      <trkpt lat="44.42666" lon="5.45143">
        <ele>1194.1</ele>
        <time>2023-07-24T09:51:23Z</time>
      </trkpt>
      <trkpt lat="44.42664" lon="5.45146">
        <ele>1193.4</ele>
        <time>2023-07-24T09:51:24Z</time>
      </trkpt>
      <trkpt lat="44.42664" lon="5.45147">
        <ele>1193.2</ele>
        <time>2023-07-24T09:51:25Z</time>
      </trkpt>
      <trkpt lat="44.42663" lon="5.45149">
        <ele>1192.7</ele>
        <time>2023-07-24T09:51:26Z</time>
      </trkpt>
      <trkpt lat="44.42662" lon="5.4515">
        <ele>1192.3</ele>
        <time>2023-07-24T09:51:27Z</time>
      </trkpt>
      <trkpt lat="44.42661" lon="5.45152">
        <ele>1191.9</ele>
        <time>2023-07-24T09:51:28Z</time>
      </trkpt>
      <trkpt lat="44.42661" lon="5.45153">
        <ele>1191.7</ele>
        <time>2023-07-24T09:51:29Z</time>
      </trkpt>
      <trkpt lat="44.42661" lon="5.45154">
        <ele>1191.5</ele>
        <time>2023-07-24T09:51:30Z</time>
      </trkpt>
      <trkpt lat="44.42659" lon="5.45157">
        <ele>1190.8</ele>
        <time>2023-07-24T09:51:31Z</time>
      </trkpt>
      <trkpt lat="44.42659" lon="5.45158">
        <ele>1190.6</ele>
        <time>2023-07-24T09:51:32Z</time>
      </trkpt>
      <trkpt lat="44.42659" lon="5.45159">
        <ele>1190.3</ele>
        <time>2023-07-24T09:51:33Z</time>
      </trkpt>
      <trkpt lat="44.42657" lon="5.45163">
        <ele>1189.5</ele>
        <time>2023-07-24T09:51:34Z</time>
      </trkpt>
      <trkpt lat="44.42656" lon="5.45164">
        <ele>1189.1</ele>
        <time>2023-07-24T09:51:35Z</time>
      </trkpt>
      <trkpt lat="44.42654" lon="5.45167">
        <ele>1188.4</ele>
        <time>2023-07-24T09:51:36Z</time>
      </trkpt>
      <trkpt lat="44.42653" lon="5.45169">
        <ele>1187.9</ele>
        <time>2023-07-24T09:51:37Z</time>
      </trkpt>
      <trkpt lat="44.42653" lon="5.4517">
        <ele>1187.7</ele>
        <time>2023-07-24T09:51:38Z</time>
      </trkpt>
      <trkpt lat="44.42653" lon="5.45171">
        <ele>1187.6</ele>
        <time>2023-07-24T09:51:39Z</time>
      </trkpt>
      <trkpt lat="44.42653" lon="5.45171">
        <ele>1187.5</ele>
        <time>2023-07-24T09:51:40Z</time>
      </trkpt>
      <trkpt lat="44.42654" lon="5.45171">
        <ele>1187.3</ele>
        <time>2023-07-24T09:51:41Z</time>
      </trkpt>
      <trkpt lat="44.42654" lon="5.4517">
        <ele>1187.3</ele>
        <time>2023-07-24T09:51:42Z</time>
      </trkpt>
      <trkpt lat="44.42654" lon="5.4517">
        <ele>1187.3</ele>
        <time>2023-07-24T09:51:43Z</time>
      </trkpt>
      <trkpt lat="44.42654" lon="5.45171">
        <ele>1187.2</ele>
        <time>2023-07-24T09:51:44Z</time>
      </trkpt>
      <trkpt lat="44.42654" lon="5.45172">
        <ele>1187</ele>
        <time>2023-07-24T09:51:45Z</time>
      </trkpt>
      <trkpt lat="44.42653" lon="5.45173">
        <ele>1186.8</ele>
        <time>2023-07-24T09:51:46Z</time>
      </trkpt>
      <trkpt lat="44.42653" lon="5.45174">
        <ele>1186.6</ele>
        <time>2023-07-24T09:51:47Z</time>
      </trkpt>
      <trkpt lat="44.42653" lon="5.45174">
        <ele>1186.5</ele>
        <time>2023-07-24T09:51:48Z</time>
      </trkpt>
      <trkpt lat="44.42652" lon="5.45176">
        <ele>1186.1</ele>
        <time>2023-07-24T09:51:49Z</time>
      </trkpt>
      <trkpt lat="44.42652" lon="5.45178">
        <ele>1185.7</ele>
        <time>2023-07-24T09:51:50Z</time>
      </trkpt>
      <trkpt lat="44.42651" lon="5.4518">
        <ele>1185.3</ele>
        <time>2023-07-24T09:51:58Z</time>
      </trkpt>
      <trkpt lat="44.4265" lon="5.45182">
        <ele>1184.9</ele>
        <time>2023-07-24T09:51:59Z</time>
      </trkpt>
      <trkpt lat="44.4265" lon="5.45184">
        <ele>1184.6</ele>
        <time>2023-07-24T09:52:00Z</time>
      </trkpt>
      <trkpt lat="44.42648" lon="5.45188">
        <ele>1183.6</ele>
        <time>2023-07-24T09:52:01Z</time>
      </trkpt>
      <trkpt lat="44.42647" lon="5.4519">
        <ele>1183.3</ele>
        <time>2023-07-24T09:52:02Z</time>
      </trkpt>
      <trkpt lat="44.42646" lon="5.45194">
        <ele>1182.5</ele>
        <time>2023-07-24T09:52:03Z</time>
      </trkpt>
      <trkpt lat="44.42645" lon="5.45198">
        <ele>1181.5</ele>
        <time>2023-07-24T09:52:04Z</time>
      </trkpt>
      <trkpt lat="44.42644" lon="5.452">
        <ele>1181.2</ele>
        <time>2023-07-24T09:52:05Z</time>
      </trkpt>
      <trkpt lat="44.42644" lon="5.45202">
        <ele>1180.8</ele>
        <time>2023-07-24T09:52:06Z</time>
      </trkpt>
      <trkpt lat="44.42644" lon="5.45203">
        <ele>1180.6</ele>
        <time>2023-07-24T09:52:07Z</time>
      </trkpt>
      <trkpt lat="44.42644" lon="5.45203">
        <ele>1180.5</ele>
        <time>2023-07-24T09:52:08Z</time>
      </trkpt>
      <trkpt lat="44.42644" lon="5.45205">
        <ele>1180.1</ele>
        <time>2023-07-24T09:52:09Z</time>
      </trkpt>
      <trkpt lat="44.42643" lon="5.45207">
        <ele>1179.9</ele>
        <time>2023-07-24T09:52:10Z</time>
      </trkpt>
      <trkpt lat="44.42643" lon="5.45208">
        <ele>1179.7</ele>
        <time>2023-07-24T09:52:11Z</time>
      </trkpt>
      <trkpt lat="44.42643" lon="5.45209">
        <ele>1179.4</ele>
        <time>2023-07-24T09:52:12Z</time>
      </trkpt>
      <trkpt lat="44.42642" lon="5.45213">
        <ele>1178.6</ele>
        <time>2023-07-24T09:52:13Z</time>
      </trkpt>
      <trkpt lat="44.42641" lon="5.45214">
        <ele>1178.3</ele>
        <time>2023-07-24T09:52:14Z</time>
      </trkpt>
      <trkpt lat="44.4264" lon="5.45219">
        <ele>1177.3</ele>
        <time>2023-07-24T09:52:15Z</time>
      </trkpt>
      <trkpt lat="44.42639" lon="5.45221">
        <ele>1176.9</ele>
        <time>2023-07-24T09:52:16Z</time>
      </trkpt>
      <trkpt lat="44.42639" lon="5.45225">
        <ele>1176</ele>
        <time>2023-07-24T09:52:17Z</time>
      </trkpt>
      <trkpt lat="44.42639" lon="5.45226">
        <ele>1175.7</ele>
        <time>2023-07-24T09:52:18Z</time>
      </trkpt>
      <trkpt lat="44.42638" lon="5.45228">
        <ele>1175.4</ele>
        <time>2023-07-24T09:52:19Z</time>
      </trkpt>
      <trkpt lat="44.42638" lon="5.45228">
        <ele>1175.3</ele>
        <time>2023-07-24T09:52:20Z</time>
      </trkpt>
      <trkpt lat="44.42638" lon="5.45229">
        <ele>1175.1</ele>
        <time>2023-07-24T09:52:21Z</time>
      </trkpt>
      <trkpt lat="44.42637" lon="5.4523">
        <ele>1174.8</ele>
        <time>2023-07-24T09:52:22Z</time>
      </trkpt>
      <trkpt lat="44.42636" lon="5.45231">
        <ele>1174.4</ele>
        <time>2023-07-24T09:52:23Z</time>
      </trkpt>
      <trkpt lat="44.42635" lon="5.45233">
        <ele>1173.8</ele>
        <time>2023-07-24T09:52:24Z</time>
      </trkpt>
      <trkpt lat="44.42633" lon="5.45237">
        <ele>1172.7</ele>
        <time>2023-07-24T09:52:25Z</time>
      </trkpt>
      <trkpt lat="44.42632" lon="5.45239">
        <ele>1172.3</ele>
        <time>2023-07-24T09:52:26Z</time>
      </trkpt>
      <trkpt lat="44.42629" lon="5.45241">
        <ele>1171.4</ele>
        <time>2023-07-24T09:52:27Z</time>
      </trkpt>
      <trkpt lat="44.42627" lon="5.45245">
        <ele>1170.4</ele>
        <time>2023-07-24T09:52:28Z</time>
      </trkpt>
      <trkpt lat="44.42625" lon="5.45248">
        <ele>1169.6</ele>
        <time>2023-07-24T09:52:29Z</time>
      </trkpt>
      <trkpt lat="44.42624" lon="5.45251">
        <ele>1168.8</ele>
        <time>2023-07-24T09:52:30Z</time>
      </trkpt>
      <trkpt lat="44.42622" lon="5.45254">
        <ele>1168</ele>
        <time>2023-07-24T09:52:31Z</time>
      </trkpt>
      <trkpt lat="44.42621" lon="5.45258">
        <ele>1167.4</ele>
        <time>2023-07-24T09:52:32Z</time>
      </trkpt>
      <trkpt lat="44.42619" lon="5.45261">
        <ele>1166.7</ele>
        <time>2023-07-24T09:52:33Z</time>
      </trkpt>
      <trkpt lat="44.42616" lon="5.45264">
        <ele>1165.8</ele>
        <time>2023-07-24T09:52:34Z</time>
      </trkpt>
      <trkpt lat="44.42615" lon="5.45266">
        <ele>1165.5</ele>
        <time>2023-07-24T09:52:35Z</time>
      </trkpt>
      <trkpt lat="44.42612" lon="5.45269">
        <ele>1164.8</ele>
        <time>2023-07-24T09:52:36Z</time>
      </trkpt>
      <trkpt lat="44.42609" lon="5.45272">
        <ele>1164.3</ele>
        <time>2023-07-24T09:52:37Z</time>
      </trkpt>
      <trkpt lat="44.42606" lon="5.45276">
        <ele>1163.8</ele>
        <time>2023-07-24T09:52:38Z</time>
      </trkpt>
      <trkpt lat="44.42602" lon="5.45282">
        <ele>1163.2</ele>
        <time>2023-07-24T09:52:39Z</time>
      </trkpt>
      <trkpt lat="44.42598" lon="5.45288">
        <ele>1162.6</ele>
        <time>2023-07-24T09:52:40Z</time>
      </trkpt>
      <trkpt lat="44.42595" lon="5.45294">
        <ele>1162</ele>
        <time>2023-07-24T09:52:41Z</time>
      </trkpt>
      <trkpt lat="44.42591" lon="5.453">
        <ele>1161.5</ele>
        <time>2023-07-24T09:52:42Z</time>
      </trkpt>
      <trkpt lat="44.42588" lon="5.45305">
        <ele>1161.1</ele>
        <time>2023-07-24T09:52:43Z</time>
      </trkpt>
      <trkpt lat="44.42584" lon="5.45308">
        <ele>1160.7</ele>
        <time>2023-07-24T09:52:44Z</time>
      </trkpt>
      <trkpt lat="44.42582" lon="5.4531">
        <ele>1160.3</ele>
        <time>2023-07-24T09:52:45Z</time>
      </trkpt>
      <trkpt lat="44.42579" lon="5.45312">
        <ele>1159.9</ele>
        <time>2023-07-24T09:52:46Z</time>
      </trkpt>
      <trkpt lat="44.42578" lon="5.45313">
        <ele>1159.8</ele>
        <time>2023-07-24T09:52:47Z</time>
      </trkpt>
      <trkpt lat="44.42576" lon="5.45314">
        <ele>1159.4</ele>
        <time>2023-07-24T09:52:48Z</time>
      </trkpt>
      <trkpt lat="44.42575" lon="5.45315">
        <ele>1159.3</ele>
        <time>2023-07-24T09:52:49Z</time>
      </trkpt>
      <trkpt lat="44.42572" lon="5.45317">
        <ele>1158.8</ele>
        <time>2023-07-24T09:52:50Z</time>
      </trkpt>
      <trkpt lat="44.42569" lon="5.4532">
        <ele>1158.4</ele>
        <time>2023-07-24T09:52:51Z</time>
      </trkpt>
      <trkpt lat="44.42567" lon="5.45323">
        <ele>1158</ele>
        <time>2023-07-24T09:52:52Z</time>
      </trkpt>
      <trkpt lat="44.42564" lon="5.45326">
        <ele>1157.5</ele>
        <time>2023-07-24T09:52:53Z</time>
      </trkpt>
      <trkpt lat="44.42561" lon="5.45329">
        <ele>1156.9</ele>
        <time>2023-07-24T09:52:54Z</time>
      </trkpt>
      <trkpt lat="44.42558" lon="5.45332">
        <ele>1156.3</ele>
        <time>2023-07-24T09:52:55Z</time>
      </trkpt>
      <trkpt lat="44.42558" lon="5.45333">
        <ele>1156.1</ele>
        <time>2023-07-24T09:52:56Z</time>
      </trkpt>
      <trkpt lat="44.42555" lon="5.45336">
        <ele>1155.5</ele>
        <time>2023-07-24T09:52:57Z</time>
      </trkpt>
      <trkpt lat="44.42553" lon="5.45339">
        <ele>1154.8</ele>
        <time>2023-07-24T09:52:58Z</time>
      </trkpt>
      <trkpt lat="44.42551" lon="5.45342">
        <ele>1154.2</ele>
        <time>2023-07-24T09:52:59Z</time>
      </trkpt>
      <trkpt lat="44.42549" lon="5.45346">
        <ele>1153.4</ele>
        <time>2023-07-24T09:53:00Z</time>
      </trkpt>
      <trkpt lat="44.42548" lon="5.45347">
        <ele>1153.2</ele>
        <time>2023-07-24T09:53:01Z</time>
      </trkpt>
      <trkpt lat="44.42546" lon="5.45349">
        <ele>1152.6</ele>
        <time>2023-07-24T09:53:02Z</time>
      </trkpt>
      <trkpt lat="44.42546" lon="5.4535">
        <ele>1152.4</ele>
        <time>2023-07-24T09:53:03Z</time>
      </trkpt>
      <trkpt lat="44.42545" lon="5.45351">
        <ele>1152.1</ele>
        <time>2023-07-24T09:53:04Z</time>
      </trkpt>
      <trkpt lat="44.42541" lon="5.45353">
        <ele>1151.1</ele>
        <time>2023-07-24T09:53:05Z</time>
      </trkpt>
      <trkpt lat="44.4254" lon="5.45354">
        <ele>1150.7</ele>
        <time>2023-07-24T09:53:06Z</time>
      </trkpt>
      <trkpt lat="44.42538" lon="5.45357">
        <ele>1149.8</ele>
        <time>2023-07-24T09:53:07Z</time>
      </trkpt>
      <trkpt lat="44.42538" lon="5.45358">
        <ele>1149.6</ele>
        <time>2023-07-24T09:53:08Z</time>
      </trkpt>
      <trkpt lat="44.42537" lon="5.4536">
        <ele>1149.2</ele>
        <time>2023-07-24T09:53:09Z</time>
      </trkpt>
      <trkpt lat="44.42537" lon="5.4536">
        <ele>1149</ele>
        <time>2023-07-24T09:53:10Z</time>
      </trkpt>
      <trkpt lat="44.42537" lon="5.45361">
        <ele>1148.8</ele>
        <time>2023-07-24T09:53:11Z</time>
      </trkpt>
      <trkpt lat="44.42537" lon="5.45362">
        <ele>1148.5</ele>
        <time>2023-07-24T09:53:12Z</time>
      </trkpt>
      <trkpt lat="44.42538" lon="5.45363">
        <ele>1148.4</ele>
        <time>2023-07-24T09:53:13Z</time>
      </trkpt>
      <trkpt lat="44.42538" lon="5.45363">
        <ele>1148.3</ele>
        <time>2023-07-24T09:53:14Z</time>
      </trkpt>
      <trkpt lat="44.42538" lon="5.45363">
        <ele>1148.3</ele>
        <time>2023-07-24T09:53:15Z</time>
      </trkpt>
      <trkpt lat="44.42538" lon="5.45363">
        <ele>1148.3</ele>
        <time>2023-07-24T09:53:16Z</time>
      </trkpt>
      <trkpt lat="44.42538" lon="5.45363">
        <ele>1148.3</ele>
        <time>2023-07-24T09:53:17Z</time>
      </trkpt>
      <trkpt lat="44.42538" lon="5.45363">
        <ele>1148.3</ele>
        <time>2023-07-24T09:53:18Z</time>
      </trkpt>
      <trkpt lat="44.42538" lon="5.45363">
        <ele>1148.3</ele>
        <time>2023-07-24T09:53:19Z</time>
      </trkpt>
      <trkpt lat="44.42538" lon="5.45363">
        <ele>1148.3</ele>
        <time>2023-07-24T09:53:20Z</time>
      </trkpt>
      <trkpt lat="44.42538" lon="5.45363">
        <ele>1148.3</ele>
        <time>2023-07-24T09:53:21Z</time>
      </trkpt>
      <trkpt lat="44.42538" lon="5.45363">
        <ele>1148.3</ele>
        <time>2023-07-24T09:53:22Z</time>
      </trkpt>
      <trkpt lat="44.42537" lon="5.45363">
        <ele>1148.1</ele>
        <time>2023-07-24T09:53:23Z</time>
      </trkpt>
      <trkpt lat="44.42535" lon="5.45365">
        <ele>1147.2</ele>
        <time>2023-07-24T09:53:26Z</time>
      </trkpt>
      <trkpt lat="44.42535" lon="5.45366">
        <ele>1147</ele>
        <time>2023-07-24T09:53:27Z</time>
      </trkpt>
      <trkpt lat="44.42534" lon="5.45366">
        <ele>1146.8</ele>
        <time>2023-07-24T09:53:28Z</time>
      </trkpt>
      <trkpt lat="44.42534" lon="5.45366">
        <ele>1146.7</ele>
        <time>2023-07-24T09:53:29Z</time>
      </trkpt>
      <trkpt lat="44.42534" lon="5.45367">
        <ele>1146.6</ele>
        <time>2023-07-24T09:53:30Z</time>
      </trkpt>
      <trkpt lat="44.42534" lon="5.45367">
        <ele>1146.6</ele>
        <time>2023-07-24T09:53:31Z</time>
      </trkpt>
      <trkpt lat="44.42533" lon="5.45367">
        <ele>1146.3</ele>
        <time>2023-07-24T09:53:32Z</time>
      </trkpt>
      <trkpt lat="44.42533" lon="5.45366">
        <ele>1146.1</ele>
        <time>2023-07-24T09:53:33Z</time>
      </trkpt>
      <trkpt lat="44.42532" lon="5.45366">
        <ele>1145.8</ele>
        <time>2023-07-24T09:53:34Z</time>
      </trkpt>
      <trkpt lat="44.42531" lon="5.45365">
        <ele>1145.4</ele>
        <time>2023-07-24T09:53:36Z</time>
      </trkpt>
      <trkpt lat="44.42531" lon="5.45365">
        <ele>1145.4</ele>
        <time>2023-07-24T09:53:37Z</time>
      </trkpt>
      <trkpt lat="44.42531" lon="5.45365">
        <ele>1145.3</ele>
        <time>2023-07-24T09:53:38Z</time>
      </trkpt>
      <trkpt lat="44.42531" lon="5.45365">
        <ele>1145.3</ele>
        <time>2023-07-24T09:53:39Z</time>
      </trkpt>
      <trkpt lat="44.42531" lon="5.45365">
        <ele>1145.3</ele>
        <time>2023-07-24T09:53:40Z</time>
      </trkpt>
      <trkpt lat="44.42531" lon="5.45365">
        <ele>1145.3</ele>
        <time>2023-07-24T09:53:41Z</time>
      </trkpt>
      <trkpt lat="44.42531" lon="5.45365">
        <ele>1145.3</ele>
        <time>2023-07-24T09:53:42Z</time>
      </trkpt>
      <trkpt lat="44.42531" lon="5.45364">
        <ele>1145.1</ele>
        <time>2023-07-24T09:53:43Z</time>
      </trkpt>
      <trkpt lat="44.4253" lon="5.45363">
        <ele>1144.8</ele>
        <time>2023-07-24T09:53:44Z</time>
      </trkpt>
      <trkpt lat="44.4253" lon="5.45362">
        <ele>1144.4</ele>
        <time>2023-07-24T09:53:45Z</time>
      </trkpt>
      <trkpt lat="44.4253" lon="5.45361">
        <ele>1144.1</ele>
        <time>2023-07-24T09:53:46Z</time>
      </trkpt>
      <trkpt lat="44.42529" lon="5.4536">
        <ele>1143.7</ele>
        <time>2023-07-24T09:53:47Z</time>
      </trkpt>
      <trkpt lat="44.42528" lon="5.45359">
        <ele>1143.3</ele>
        <time>2023-07-24T09:53:48Z</time>
      </trkpt>
      <trkpt lat="44.42527" lon="5.45358">
        <ele>1142.8</ele>
        <time>2023-07-24T09:53:49Z</time>
      </trkpt>
      <trkpt lat="44.42526" lon="5.45358">
        <ele>1142.4</ele>
        <time>2023-07-24T09:53:50Z</time>
      </trkpt>
      <trkpt lat="44.42525" lon="5.45358">
        <ele>1142.1</ele>
        <time>2023-07-24T09:53:51Z</time>
      </trkpt>
      <trkpt lat="44.42524" lon="5.45358">
        <ele>1141.9</ele>
        <time>2023-07-24T09:53:52Z</time>
      </trkpt>
      <trkpt lat="44.42524" lon="5.45358">
        <ele>1141.8</ele>
        <time>2023-07-24T09:53:53Z</time>
      </trkpt>
      <trkpt lat="44.42524" lon="5.45358">
        <ele>1141.8</ele>
        <time>2023-07-24T09:53:54Z</time>
      </trkpt>
      <trkpt lat="44.42524" lon="5.45358">
        <ele>1141.8</ele>
        <time>2023-07-24T09:53:55Z</time>
      </trkpt>
      <trkpt lat="44.42524" lon="5.45358">
        <ele>1141.8</ele>
        <time>2023-07-24T09:53:56Z</time>
      </trkpt>
      <trkpt lat="44.42524" lon="5.45359">
        <ele>1141.5</ele>
        <time>2023-07-24T09:53:57Z</time>
      </trkpt>
      <trkpt lat="44.42524" lon="5.4536">
        <ele>1141.3</ele>
        <time>2023-07-24T09:53:58Z</time>
      </trkpt>
      <trkpt lat="44.42523" lon="5.45361">
        <ele>1141</ele>
        <time>2023-07-24T09:53:59Z</time>
      </trkpt>
      <trkpt lat="44.42523" lon="5.45362">
        <ele>1140.8</ele>
        <time>2023-07-24T09:54:00Z</time>
      </trkpt>
      <trkpt lat="44.42523" lon="5.45362">
        <ele>1140.7</ele>
        <time>2023-07-24T09:54:01Z</time>
      </trkpt>
      <trkpt lat="44.42523" lon="5.45363">
        <ele>1140.6</ele>
        <time>2023-07-24T09:54:02Z</time>
      </trkpt>
      <trkpt lat="44.42523" lon="5.45363">
        <ele>1140.6</ele>
        <time>2023-07-24T09:54:03Z</time>
      </trkpt>
      <trkpt lat="44.42522" lon="5.45362">
        <ele>1140.4</ele>
        <time>2023-07-24T09:54:04Z</time>
      </trkpt>
      <trkpt lat="44.42522" lon="5.45363">
        <ele>1140.2</ele>
        <time>2023-07-24T09:54:05Z</time>
      </trkpt>
      <trkpt lat="44.42521" lon="5.45364">
        <ele>1139.8</ele>
        <time>2023-07-24T09:54:06Z</time>
      </trkpt>
      <trkpt lat="44.4252" lon="5.45366">
        <ele>1139.3</ele>
        <time>2023-07-24T09:54:07Z</time>
      </trkpt>
      <trkpt lat="44.42519" lon="5.45367">
        <ele>1138.9</ele>
        <time>2023-07-24T09:54:08Z</time>
      </trkpt>
      <trkpt lat="44.42517" lon="5.4537">
        <ele>1138.1</ele>
        <time>2023-07-24T09:54:09Z</time>
      </trkpt>
      <trkpt lat="44.42517" lon="5.45371">
        <ele>1137.8</ele>
        <time>2023-07-24T09:54:10Z</time>
      </trkpt>
      <trkpt lat="44.42516" lon="5.45375">
        <ele>1137</ele>
        <time>2023-07-24T09:54:11Z</time>
      </trkpt>
      <trkpt lat="44.42515" lon="5.45377">
        <ele>1136.7</ele>
        <time>2023-07-24T09:54:12Z</time>
      </trkpt>
      <trkpt lat="44.42515" lon="5.45379">
        <ele>1136.3</ele>
        <time>2023-07-24T09:54:13Z</time>
      </trkpt>
      <trkpt lat="44.42515" lon="5.45381">
        <ele>1135.8</ele>
        <time>2023-07-24T09:54:14Z</time>
      </trkpt>
      <trkpt lat="44.42514" lon="5.45383">
        <ele>1135.4</ele>
        <time>2023-07-24T09:54:15Z</time>
      </trkpt>
      <trkpt lat="44.42514" lon="5.45386">
        <ele>1134.9</ele>
        <time>2023-07-24T09:54:16Z</time>
      </trkpt>
      <trkpt lat="44.42514" lon="5.45388">
        <ele>1134.6</ele>
        <time>2023-07-24T09:54:17Z</time>
      </trkpt>
      <trkpt lat="44.42513" lon="5.4539">
        <ele>1134.2</ele>
        <time>2023-07-24T09:54:18Z</time>
      </trkpt>
      <trkpt lat="44.42513" lon="5.45394">
        <ele>1133.3</ele>
        <time>2023-07-24T09:54:19Z</time>
      </trkpt>
      <trkpt lat="44.42512" lon="5.45396">
        <ele>1132.9</ele>
        <time>2023-07-24T09:54:20Z</time>
      </trkpt>
      <trkpt lat="44.42512" lon="5.454">
        <ele>1132</ele>
        <time>2023-07-24T09:54:21Z</time>
      </trkpt>
      <trkpt lat="44.42512" lon="5.45405">
        <ele>1131.1</ele>
        <time>2023-07-24T09:54:22Z</time>
      </trkpt>
      <trkpt lat="44.42512" lon="5.45406">
        <ele>1130.8</ele>
        <time>2023-07-24T09:54:23Z</time>
      </trkpt>
      <trkpt lat="44.42512" lon="5.45412">
        <ele>1129.8</ele>
        <time>2023-07-24T09:54:24Z</time>
      </trkpt>
      <trkpt lat="44.42512" lon="5.45414">
        <ele>1129.4</ele>
        <time>2023-07-24T09:54:25Z</time>
      </trkpt>
      <trkpt lat="44.42512" lon="5.45418">
        <ele>1128.5</ele>
        <time>2023-07-24T09:54:26Z</time>
      </trkpt>
      <trkpt lat="44.42512" lon="5.45423">
        <ele>1127.8</ele>
        <time>2023-07-24T09:54:27Z</time>
      </trkpt>
      <trkpt lat="44.42514" lon="5.45428">
        <ele>1127</ele>
        <time>2023-07-24T09:54:28Z</time>
      </trkpt>
      <trkpt lat="44.42514" lon="5.4543">
        <ele>1126.7</ele>
        <time>2023-07-24T09:54:29Z</time>
      </trkpt>
      <trkpt lat="44.42515" lon="5.45433">
        <ele>1126.2</ele>
        <time>2023-07-24T09:54:30Z</time>
      </trkpt>
      <trkpt lat="44.42516" lon="5.45438">
        <ele>1125.7</ele>
        <time>2023-07-24T09:54:31Z</time>
      </trkpt>
      <trkpt lat="44.42516" lon="5.4544">
        <ele>1125.5</ele>
        <time>2023-07-24T09:54:32Z</time>
      </trkpt>
      <trkpt lat="44.42516" lon="5.45442">
        <ele>1125.3</ele>
        <time>2023-07-24T09:54:33Z</time>
      </trkpt>
      <trkpt lat="44.42516" lon="5.45443">
        <ele>1125.3</ele>
        <time>2023-07-24T09:54:34Z</time>
      </trkpt>
      <trkpt lat="44.42516" lon="5.45443">
        <ele>1125.2</ele>
        <time>2023-07-24T09:54:35Z</time>
      </trkpt>
      <trkpt lat="44.42516" lon="5.45444">
        <ele>1125.2</ele>
        <time>2023-07-24T09:54:36Z</time>
      </trkpt>
      <trkpt lat="44.42517" lon="5.45444">
        <ele>1125.1</ele>
        <time>2023-07-24T09:54:37Z</time>
      </trkpt>
      <trkpt lat="44.42517" lon="5.45445">
        <ele>1125.1</ele>
        <time>2023-07-24T09:54:38Z</time>
      </trkpt>
      <trkpt lat="44.42517" lon="5.45445">
        <ele>1125</ele>
        <time>2023-07-24T09:54:39Z</time>
      </trkpt>
      <trkpt lat="44.42518" lon="5.45449">
        <ele>1124.7</ele>
        <time>2023-07-24T09:54:40Z</time>
      </trkpt>
      <trkpt lat="44.42518" lon="5.4545">
        <ele>1124.6</ele>
        <time>2023-07-24T09:54:41Z</time>
      </trkpt>
      <trkpt lat="44.4252" lon="5.45454">
        <ele>1124.3</ele>
        <time>2023-07-24T09:54:42Z</time>
      </trkpt>
      <trkpt lat="44.42521" lon="5.45458">
        <ele>1123.9</ele>
        <time>2023-07-24T09:54:43Z</time>
      </trkpt>
      <trkpt lat="44.42522" lon="5.45459">
        <ele>1123.9</ele>
        <time>2023-07-24T09:54:44Z</time>
      </trkpt>
      <trkpt lat="44.42522" lon="5.45462">
        <ele>1123.6</ele>
        <time>2023-07-24T09:54:45Z</time>
      </trkpt>
      <trkpt lat="44.42522" lon="5.45463">
        <ele>1123.5</ele>
        <time>2023-07-24T09:54:46Z</time>
      </trkpt>
      <trkpt lat="44.42522" lon="5.45465">
        <ele>1123.4</ele>
        <time>2023-07-24T09:54:47Z</time>
      </trkpt>
      <trkpt lat="44.42522" lon="5.45469">
        <ele>1123.1</ele>
        <time>2023-07-24T09:54:48Z</time>
      </trkpt>
      <trkpt lat="44.42523" lon="5.4547">
        <ele>1123</ele>
        <time>2023-07-24T09:54:49Z</time>
      </trkpt>
      <trkpt lat="44.42523" lon="5.45471">
        <ele>1122.8</ele>
        <time>2023-07-24T09:54:50Z</time>
      </trkpt>
      <trkpt lat="44.42524" lon="5.45471">
        <ele>1122.8</ele>
        <time>2023-07-24T09:54:51Z</time>
      </trkpt>
      <trkpt lat="44.42525" lon="5.45472">
        <ele>1122.7</ele>
        <time>2023-07-24T09:54:52Z</time>
      </trkpt>
      <trkpt lat="44.42525" lon="5.45472">
        <ele>1122.6</ele>
        <time>2023-07-24T09:54:53Z</time>
      </trkpt>
      <trkpt lat="44.42525" lon="5.45471">
        <ele>1122.6</ele>
        <time>2023-07-24T09:54:54Z</time>
      </trkpt>
      <trkpt lat="44.42525" lon="5.45472">
        <ele>1122.6</ele>
        <time>2023-07-24T09:54:55Z</time>
      </trkpt>
      <trkpt lat="44.42525" lon="5.45473">
        <ele>1122.4</ele>
        <time>2023-07-24T09:54:56Z</time>
      </trkpt>
      <trkpt lat="44.42526" lon="5.45473">
        <ele>1122.3</ele>
        <time>2023-07-24T09:54:57Z</time>
      </trkpt>
      <trkpt lat="44.42526" lon="5.45474">
        <ele>1122.3</ele>
        <time>2023-07-24T09:54:58Z</time>
      </trkpt>
      <trkpt lat="44.42526" lon="5.45474">
        <ele>1122.3</ele>
        <time>2023-07-24T09:54:59Z</time>
      </trkpt>
      <trkpt lat="44.42526" lon="5.45474">
        <ele>1122.3</ele>
        <time>2023-07-24T09:55:00Z</time>
      </trkpt>
      <trkpt lat="44.42526" lon="5.45474">
        <ele>1122.3</ele>
        <time>2023-07-24T09:55:01Z</time>
      </trkpt>
      <trkpt lat="44.42526" lon="5.45474">
        <ele>1122.3</ele>
        <time>2023-07-24T09:55:02Z</time>
      </trkpt>
      <trkpt lat="44.42526" lon="5.45474">
        <ele>1122.3</ele>
        <time>2023-07-24T09:55:03Z</time>
      </trkpt>
      <trkpt lat="44.42526" lon="5.45474">
        <ele>1122.3</ele>
        <time>2023-07-24T09:55:04Z</time>
      </trkpt>
      <trkpt lat="44.42526" lon="5.45475">
        <ele>1122.2</ele>
        <time>2023-07-24T09:55:05Z</time>
      </trkpt>
      <trkpt lat="44.42524" lon="5.45477">
        <ele>1121.8</ele>
        <time>2023-07-24T09:55:07Z</time>
      </trkpt>
      <trkpt lat="44.42524" lon="5.45478">
        <ele>1121.6</ele>
        <time>2023-07-24T09:55:08Z</time>
      </trkpt>
      <trkpt lat="44.42524" lon="5.45479">
        <ele>1121.5</ele>
        <time>2023-07-24T09:55:09Z</time>
      </trkpt>
      <trkpt lat="44.42524" lon="5.4548">
        <ele>1121.3</ele>
        <time>2023-07-24T09:55:10Z</time>
      </trkpt>
      <trkpt lat="44.42524" lon="5.45481">
        <ele>1121.2</ele>
        <time>2023-07-24T09:55:11Z</time>
      </trkpt>
      <trkpt lat="44.42524" lon="5.45481">
        <ele>1121.2</ele>
        <time>2023-07-24T09:55:12Z</time>
      </trkpt>
      <trkpt lat="44.42523" lon="5.45481">
        <ele>1121.1</ele>
        <time>2023-07-24T09:55:13Z</time>
      </trkpt>
      <trkpt lat="44.42523" lon="5.45483">
        <ele>1120.9</ele>
        <time>2023-07-24T09:55:14Z</time>
      </trkpt>
      <trkpt lat="44.42524" lon="5.45485">
        <ele>1120.5</ele>
        <time>2023-07-24T09:55:15Z</time>
      </trkpt>
      <trkpt lat="44.42524" lon="5.4549">
        <ele>1119.7</ele>
        <time>2023-07-24T09:55:16Z</time>
      </trkpt>
      <trkpt lat="44.42524" lon="5.45492">
        <ele>1119.4</ele>
        <time>2023-07-24T09:55:17Z</time>
      </trkpt>
      <trkpt lat="44.42524" lon="5.45497">
        <ele>1118.7</ele>
        <time>2023-07-24T09:55:18Z</time>
      </trkpt>
      <trkpt lat="44.42525" lon="5.45502">
        <ele>1118.1</ele>
        <time>2023-07-24T09:55:19Z</time>
      </trkpt>
      <trkpt lat="44.42526" lon="5.45507">
        <ele>1117.7</ele>
        <time>2023-07-24T09:55:20Z</time>
      </trkpt>
      <trkpt lat="44.42527" lon="5.45512">
        <ele>1117.4</ele>
        <time>2023-07-24T09:55:21Z</time>
      </trkpt>
      <trkpt lat="44.42527" lon="5.45516">
        <ele>1117.2</ele>
        <time>2023-07-24T09:55:22Z</time>
      </trkpt>
      <trkpt lat="44.42528" lon="5.4552">
        <ele>1117.1</ele>
        <time>2023-07-24T09:55:23Z</time>
      </trkpt>
      <trkpt lat="44.4253" lon="5.45524">
        <ele>1117</ele>
        <time>2023-07-24T09:55:24Z</time>
      </trkpt>
      <trkpt lat="44.4253" lon="5.45525">
        <ele>1116.9</ele>
        <time>2023-07-24T09:55:25Z</time>
      </trkpt>
      <trkpt lat="44.42529" lon="5.45529">
        <ele>1116.7</ele>
        <time>2023-07-24T09:55:26Z</time>
      </trkpt>
      <trkpt lat="44.42528" lon="5.4553">
        <ele>1116.6</ele>
        <time>2023-07-24T09:55:27Z</time>
      </trkpt>
      <trkpt lat="44.42525" lon="5.45533">
        <ele>1116.3</ele>
        <time>2023-07-24T09:55:28Z</time>
      </trkpt>
      <trkpt lat="44.42521" lon="5.45536">
        <ele>1115.7</ele>
        <time>2023-07-24T09:55:29Z</time>
      </trkpt>
      <trkpt lat="44.42518" lon="5.45539">
        <ele>1115.1</ele>
        <time>2023-07-24T09:55:30Z</time>
      </trkpt>
      <trkpt lat="44.42515" lon="5.45543">
        <ele>1114.5</ele>
        <time>2023-07-24T09:55:31Z</time>
      </trkpt>
      <trkpt lat="44.42513" lon="5.45548">
        <ele>1113.9</ele>
        <time>2023-07-24T09:55:32Z</time>
      </trkpt>
      <trkpt lat="44.42511" lon="5.45552">
        <ele>1113.4</ele>
        <time>2023-07-24T09:55:33Z</time>
      </trkpt>
      <trkpt lat="44.42509" lon="5.45555">
        <ele>1113</ele>
        <time>2023-07-24T09:55:34Z</time>
      </trkpt>
      <trkpt lat="44.42506" lon="5.45558">
        <ele>1112.6</ele>
        <time>2023-07-24T09:55:35Z</time>
      </trkpt>
      <trkpt lat="44.42505" lon="5.45559">
        <ele>1112.4</ele>
        <time>2023-07-24T09:55:36Z</time>
      </trkpt>
      <trkpt lat="44.42502" lon="5.45561">
        <ele>1112.1</ele>
        <time>2023-07-24T09:55:37Z</time>
      </trkpt>
      <trkpt lat="44.42501" lon="5.45562">
        <ele>1111.9</ele>
        <time>2023-07-24T09:55:38Z</time>
      </trkpt>
      <trkpt lat="44.42498" lon="5.45565">
        <ele>1111.5</ele>
        <time>2023-07-24T09:55:39Z</time>
      </trkpt>
      <trkpt lat="44.42497" lon="5.45566">
        <ele>1111.4</ele>
        <time>2023-07-24T09:55:40Z</time>
      </trkpt>
      <trkpt lat="44.42495" lon="5.45569">
        <ele>1111</ele>
        <time>2023-07-24T09:55:41Z</time>
      </trkpt>
      <trkpt lat="44.42492" lon="5.45571">
        <ele>1110.6</ele>
        <time>2023-07-24T09:55:42Z</time>
      </trkpt>
      <trkpt lat="44.42491" lon="5.45572">
        <ele>1110.5</ele>
        <time>2023-07-24T09:55:43Z</time>
      </trkpt>
      <trkpt lat="44.42489" lon="5.45574">
        <ele>1110</ele>
        <time>2023-07-24T09:55:44Z</time>
      </trkpt>
      <trkpt lat="44.42488" lon="5.45575">
        <ele>1109.8</ele>
        <time>2023-07-24T09:55:45Z</time>
      </trkpt>
      <trkpt lat="44.42485" lon="5.45578">
        <ele>1109.2</ele>
        <time>2023-07-24T09:55:46Z</time>
      </trkpt>
      <trkpt lat="44.4248" lon="5.4558">
        <ele>1108.4</ele>
        <time>2023-07-24T09:55:47Z</time>
      </trkpt>
      <trkpt lat="44.42477" lon="5.45582">
        <ele>1107.8</ele>
        <time>2023-07-24T09:55:48Z</time>
      </trkpt>
      <trkpt lat="44.42475" lon="5.45585">
        <ele>1107.3</ele>
        <time>2023-07-24T09:55:49Z</time>
      </trkpt>
      <trkpt lat="44.42474" lon="5.45586">
        <ele>1107.1</ele>
        <time>2023-07-24T09:55:50Z</time>
      </trkpt>
      <trkpt lat="44.42471" lon="5.4559">
        <ele>1106.5</ele>
        <time>2023-07-24T09:55:51Z</time>
      </trkpt>
      <trkpt lat="44.42471" lon="5.45591">
        <ele>1106.2</ele>
        <time>2023-07-24T09:55:52Z</time>
      </trkpt>
      <trkpt lat="44.42468" lon="5.45594">
        <ele>1105.7</ele>
        <time>2023-07-24T09:55:53Z</time>
      </trkpt>
      <trkpt lat="44.42466" lon="5.45597">
        <ele>1105.1</ele>
        <time>2023-07-24T09:55:54Z</time>
      </trkpt>
      <trkpt lat="44.42463" lon="5.45601">
        <ele>1104.4</ele>
        <time>2023-07-24T09:55:55Z</time>
      </trkpt>
      <trkpt lat="44.42461" lon="5.45605">
        <ele>1103.8</ele>
        <time>2023-07-24T09:55:56Z</time>
      </trkpt>
      <trkpt lat="44.42459" lon="5.4561">
        <ele>1103.3</ele>
        <time>2023-07-24T09:55:57Z</time>
      </trkpt>
      <trkpt lat="44.42459" lon="5.45614">
        <ele>1103</ele>
        <time>2023-07-24T09:55:58Z</time>
      </trkpt>
      <trkpt lat="44.42458" lon="5.45618">
        <ele>1102.7</ele>
        <time>2023-07-24T09:55:59Z</time>
      </trkpt>
      <trkpt lat="44.42457" lon="5.45621">
        <ele>1102.5</ele>
        <time>2023-07-24T09:56:00Z</time>
      </trkpt>
      <trkpt lat="44.42455" lon="5.45626">
        <ele>1102.2</ele>
        <time>2023-07-24T09:56:01Z</time>
      </trkpt>
      <trkpt lat="44.42455" lon="5.45627">
        <ele>1102.1</ele>
        <time>2023-07-24T09:56:02Z</time>
      </trkpt>
      <trkpt lat="44.42452" lon="5.45631">
        <ele>1101.8</ele>
        <time>2023-07-24T09:56:03Z</time>
      </trkpt>
      <trkpt lat="44.42451" lon="5.45632">
        <ele>1101.7</ele>
        <time>2023-07-24T09:56:04Z</time>
      </trkpt>
      <trkpt lat="44.42449" lon="5.45635">
        <ele>1101.5</ele>
        <time>2023-07-24T09:56:05Z</time>
      </trkpt>
      <trkpt lat="44.42448" lon="5.45639">
        <ele>1101.2</ele>
        <time>2023-07-24T09:56:06Z</time>
      </trkpt>
      <trkpt lat="44.42447" lon="5.45643">
        <ele>1100.9</ele>
        <time>2023-07-24T09:56:07Z</time>
      </trkpt>
      <trkpt lat="44.42446" lon="5.45649">
        <ele>1100.5</ele>
        <time>2023-07-24T09:56:08Z</time>
      </trkpt>
      <trkpt lat="44.42446" lon="5.4565">
        <ele>1100.3</ele>
        <time>2023-07-24T09:56:09Z</time>
      </trkpt>
      <trkpt lat="44.42445" lon="5.45654">
        <ele>1100.1</ele>
        <time>2023-07-24T09:56:10Z</time>
      </trkpt>
      <trkpt lat="44.42445" lon="5.45658">
        <ele>1099.7</ele>
        <time>2023-07-24T09:56:11Z</time>
      </trkpt>
      <trkpt lat="44.42445" lon="5.45663">
        <ele>1099.3</ele>
        <time>2023-07-24T09:56:12Z</time>
      </trkpt>
      <trkpt lat="44.42446" lon="5.45668">
        <ele>1099</ele>
        <time>2023-07-24T09:56:13Z</time>
      </trkpt>
      <trkpt lat="44.42446" lon="5.45672">
        <ele>1098.6</ele>
        <time>2023-07-24T09:56:14Z</time>
      </trkpt>
      <trkpt lat="44.42446" lon="5.45674">
        <ele>1098.5</ele>
        <time>2023-07-24T09:56:15Z</time>
      </trkpt>
      <trkpt lat="44.42445" lon="5.45679">
        <ele>1098.1</ele>
        <time>2023-07-24T09:56:16Z</time>
      </trkpt>
      <trkpt lat="44.42445" lon="5.45681">
        <ele>1098</ele>
        <time>2023-07-24T09:56:17Z</time>
      </trkpt>
      <trkpt lat="44.42445" lon="5.45683">
        <ele>1097.9</ele>
        <time>2023-07-24T09:56:18Z</time>
      </trkpt>
      <trkpt lat="44.42446" lon="5.45683">
        <ele>1097.8</ele>
        <time>2023-07-24T09:56:19Z</time>
      </trkpt>
      <trkpt lat="44.42446" lon="5.45683">
        <ele>1097.8</ele>
        <time>2023-07-24T09:56:20Z</time>
      </trkpt>
      <trkpt lat="44.42448" lon="5.45683">
        <ele>1097.7</ele>
        <time>2023-07-24T09:56:21Z</time>
      </trkpt>
      <trkpt lat="44.42448" lon="5.45684">
        <ele>1097.6</ele>
        <time>2023-07-24T09:56:22Z</time>
      </trkpt>
      <trkpt lat="44.42448" lon="5.45684">
        <ele>1097.6</ele>
        <time>2023-07-24T09:56:23Z</time>
      </trkpt>
      <trkpt lat="44.42449" lon="5.45685">
        <ele>1097.4</ele>
        <time>2023-07-24T09:56:24Z</time>
      </trkpt>
      <trkpt lat="44.4245" lon="5.45687">
        <ele>1097.3</ele>
        <time>2023-07-24T09:56:25Z</time>
      </trkpt>
      <trkpt lat="44.4245" lon="5.45689">
        <ele>1097.2</ele>
        <time>2023-07-24T09:56:26Z</time>
      </trkpt>
      <trkpt lat="44.42451" lon="5.45689">
        <ele>1097.1</ele>
        <time>2023-07-24T09:56:27Z</time>
      </trkpt>
      <trkpt lat="44.42451" lon="5.4569">
        <ele>1097</ele>
        <time>2023-07-24T09:56:28Z</time>
      </trkpt>
      <trkpt lat="44.42451" lon="5.45691">
        <ele>1097</ele>
        <time>2023-07-24T09:56:29Z</time>
      </trkpt>
      <trkpt lat="44.42451" lon="5.45691">
        <ele>1096.9</ele>
        <time>2023-07-24T09:56:30Z</time>
      </trkpt>
      <trkpt lat="44.42452" lon="5.45693">
        <ele>1096.8</ele>
        <time>2023-07-24T09:56:31Z</time>
      </trkpt>
      <trkpt lat="44.42453" lon="5.45694">
        <ele>1096.6</ele>
        <time>2023-07-24T09:56:32Z</time>
      </trkpt>
      <trkpt lat="44.42453" lon="5.45694">
        <ele>1096.6</ele>
        <time>2023-07-24T09:56:33Z</time>
      </trkpt>
      <trkpt lat="44.42453" lon="5.45695">
        <ele>1096.5</ele>
        <time>2023-07-24T09:56:34Z</time>
      </trkpt>
      <trkpt lat="44.42453" lon="5.45695">
        <ele>1096.5</ele>
        <time>2023-07-24T09:56:35Z</time>
      </trkpt>
      <trkpt lat="44.42453" lon="5.45695">
        <ele>1096.5</ele>
        <time>2023-07-24T09:56:36Z</time>
      </trkpt>
      <trkpt lat="44.42453" lon="5.45695">
        <ele>1096.4</ele>
        <time>2023-07-24T09:56:37Z</time>
      </trkpt>
      <trkpt lat="44.42453" lon="5.45695">
        <ele>1096.4</ele>
        <time>2023-07-24T09:56:38Z</time>
      </trkpt>
      <trkpt lat="44.42453" lon="5.45695">
        <ele>1096.4</ele>
        <time>2023-07-24T09:56:39Z</time>
      </trkpt>
      <trkpt lat="44.42453" lon="5.45695">
        <ele>1096.4</ele>
        <time>2023-07-24T09:56:40Z</time>
      </trkpt>
      <trkpt lat="44.42453" lon="5.45695">
        <ele>1096.4</ele>
        <time>2023-07-24T09:56:41Z</time>
      </trkpt>
      <trkpt lat="44.42453" lon="5.45695">
        <ele>1096.4</ele>
        <time>2023-07-24T09:56:42Z</time>
      </trkpt>
      <trkpt lat="44.42453" lon="5.45696">
        <ele>1096.3</ele>
        <time>2023-07-24T09:56:43Z</time>
      </trkpt>
      <trkpt lat="44.42453" lon="5.45697">
        <ele>1096.2</ele>
        <time>2023-07-24T09:56:44Z</time>
      </trkpt>
      <trkpt lat="44.42452" lon="5.45698">
        <ele>1096.1</ele>
        <time>2023-07-24T09:56:45Z</time>
      </trkpt>
      <trkpt lat="44.42452" lon="5.45698">
        <ele>1096.1</ele>
        <time>2023-07-24T09:56:46Z</time>
      </trkpt>
      <trkpt lat="44.42458" lon="5.45726">
        <ele>1093.5</ele>
        <time>2023-07-24T09:56:56Z</time>
      </trkpt>
      <trkpt lat="44.42459" lon="5.4573">
        <ele>1093.2</ele>
        <time>2023-07-24T09:56:57Z</time>
      </trkpt>
      <trkpt lat="44.4246" lon="5.45734">
        <ele>1092.9</ele>
        <time>2023-07-24T09:56:58Z</time>
      </trkpt>
      <trkpt lat="44.42462" lon="5.45737">
        <ele>1092.6</ele>
        <time>2023-07-24T09:56:59Z</time>
      </trkpt>
      <trkpt lat="44.42463" lon="5.45741">
        <ele>1092.3</ele>
        <time>2023-07-24T09:57:00Z</time>
      </trkpt>
      <trkpt lat="44.42465" lon="5.45745">
        <ele>1091.9</ele>
        <time>2023-07-24T09:57:01Z</time>
      </trkpt>
      <trkpt lat="44.42468" lon="5.45751">
        <ele>1091.4</ele>
        <time>2023-07-24T09:57:02Z</time>
      </trkpt>
      <trkpt lat="44.42471" lon="5.45756">
        <ele>1090.9</ele>
        <time>2023-07-24T09:57:03Z</time>
      </trkpt>
      <trkpt lat="44.42473" lon="5.45761">
        <ele>1090.5</ele>
        <time>2023-07-24T09:57:04Z</time>
      </trkpt>
      <trkpt lat="44.42475" lon="5.45766">
        <ele>1090.1</ele>
        <time>2023-07-24T09:57:05Z</time>
      </trkpt>
      <trkpt lat="44.42476" lon="5.45772">
        <ele>1089.8</ele>
        <time>2023-07-24T09:57:06Z</time>
      </trkpt>
      <trkpt lat="44.42478" lon="5.45777">
        <ele>1089.5</ele>
        <time>2023-07-24T09:57:07Z</time>
      </trkpt>
      <trkpt lat="44.42479" lon="5.45783">
        <ele>1089.4</ele>
        <time>2023-07-24T09:57:08Z</time>
      </trkpt>
      <trkpt lat="44.4248" lon="5.45787">
        <ele>1089.2</ele>
        <time>2023-07-24T09:57:09Z</time>
      </trkpt>
      <trkpt lat="44.42481" lon="5.45791">
        <ele>1089.1</ele>
        <time>2023-07-24T09:57:10Z</time>
      </trkpt>
      <trkpt lat="44.42483" lon="5.45795">
        <ele>1089</ele>
        <time>2023-07-24T09:57:11Z</time>
      </trkpt>
      <trkpt lat="44.42484" lon="5.45799">
        <ele>1088.9</ele>
        <time>2023-07-24T09:57:12Z</time>
      </trkpt>
      <trkpt lat="44.42486" lon="5.45803">
        <ele>1088.7</ele>
        <time>2023-07-24T09:57:13Z</time>
      </trkpt>
      <trkpt lat="44.42488" lon="5.45808">
        <ele>1088.4</ele>
        <time>2023-07-24T09:57:14Z</time>
      </trkpt>
      <trkpt lat="44.4249" lon="5.45813">
        <ele>1088.1</ele>
        <time>2023-07-24T09:57:15Z</time>
      </trkpt>
      <trkpt lat="44.42493" lon="5.45816">
        <ele>1087.8</ele>
        <time>2023-07-24T09:57:16Z</time>
      </trkpt>
      <trkpt lat="44.42495" lon="5.45819">
        <ele>1087.5</ele>
        <time>2023-07-24T09:57:17Z</time>
      </trkpt>
      <trkpt lat="44.42495" lon="5.45824">
        <ele>1087.1</ele>
        <time>2023-07-24T09:57:18Z</time>
      </trkpt>
      <trkpt lat="44.42495" lon="5.4583">
        <ele>1086.5</ele>
        <time>2023-07-24T09:57:19Z</time>
      </trkpt>
      <trkpt lat="44.42496" lon="5.45836">
        <ele>1085.8</ele>
        <time>2023-07-24T09:57:20Z</time>
      </trkpt>
      <trkpt lat="44.42497" lon="5.45844">
        <ele>1085.1</ele>
        <time>2023-07-24T09:57:21Z</time>
      </trkpt>
      <trkpt lat="44.425" lon="5.45851">
        <ele>1084.6</ele>
        <time>2023-07-24T09:57:22Z</time>
      </trkpt>
      <trkpt lat="44.42503" lon="5.45858">
        <ele>1084.2</ele>
        <time>2023-07-24T09:57:23Z</time>
      </trkpt>
      <trkpt lat="44.42506" lon="5.45864">
        <ele>1084</ele>
        <time>2023-07-24T09:57:24Z</time>
      </trkpt>
      <trkpt lat="44.4251" lon="5.4587">
        <ele>1083.8</ele>
        <time>2023-07-24T09:57:25Z</time>
      </trkpt>
      <trkpt lat="44.42513" lon="5.45875">
        <ele>1083.7</ele>
        <time>2023-07-24T09:57:26Z</time>
      </trkpt>
      <trkpt lat="44.42516" lon="5.45881">
        <ele>1083.6</ele>
        <time>2023-07-24T09:57:27Z</time>
      </trkpt>
      <trkpt lat="44.42519" lon="5.45886">
        <ele>1083.5</ele>
        <time>2023-07-24T09:57:28Z</time>
      </trkpt>
      <trkpt lat="44.42521" lon="5.45891">
        <ele>1083.4</ele>
        <time>2023-07-24T09:57:29Z</time>
      </trkpt>
      <trkpt lat="44.42523" lon="5.45896">
        <ele>1083.3</ele>
        <time>2023-07-24T09:57:30Z</time>
      </trkpt>
      <trkpt lat="44.42526" lon="5.45902">
        <ele>1083.1</ele>
        <time>2023-07-24T09:57:31Z</time>
      </trkpt>
      <trkpt lat="44.42528" lon="5.45908">
        <ele>1082.9</ele>
        <time>2023-07-24T09:57:32Z</time>
      </trkpt>
      <trkpt lat="44.4253" lon="5.45913">
        <ele>1082.8</ele>
        <time>2023-07-24T09:57:33Z</time>
      </trkpt>
      <trkpt lat="44.42531" lon="5.45917">
        <ele>1082.7</ele>
        <time>2023-07-24T09:57:34Z</time>
      </trkpt>
      <trkpt lat="44.42531" lon="5.45922">
        <ele>1082.6</ele>
        <time>2023-07-24T09:57:35Z</time>
      </trkpt>
      <trkpt lat="44.42531" lon="5.45928">
        <ele>1082.5</ele>
        <time>2023-07-24T09:57:36Z</time>
      </trkpt>
      <trkpt lat="44.42532" lon="5.45935">
        <ele>1082.5</ele>
        <time>2023-07-24T09:57:37Z</time>
      </trkpt>
      <trkpt lat="44.42532" lon="5.45943">
        <ele>1082.6</ele>
        <time>2023-07-24T09:57:38Z</time>
      </trkpt>
      <trkpt lat="44.42532" lon="5.4595">
        <ele>1082.7</ele>
        <time>2023-07-24T09:57:39Z</time>
      </trkpt>
      <trkpt lat="44.42532" lon="5.45958">
        <ele>1082.9</ele>
        <time>2023-07-24T09:57:40Z</time>
      </trkpt>
      <trkpt lat="44.42532" lon="5.45964">
        <ele>1083.1</ele>
        <time>2023-07-24T09:57:41Z</time>
      </trkpt>
      <trkpt lat="44.42532" lon="5.4597">
        <ele>1083.2</ele>
        <time>2023-07-24T09:57:42Z</time>
      </trkpt>
      <trkpt lat="44.42533" lon="5.45978">
        <ele>1083.3</ele>
        <time>2023-07-24T09:57:43Z</time>
      </trkpt>
      <trkpt lat="44.42534" lon="5.45985">
        <ele>1083.4</ele>
        <time>2023-07-24T09:57:44Z</time>
      </trkpt>
      <trkpt lat="44.42534" lon="5.45992">
        <ele>1083.5</ele>
        <time>2023-07-24T09:57:45Z</time>
      </trkpt>
      <trkpt lat="44.42535" lon="5.45999">
        <ele>1083.6</ele>
        <time>2023-07-24T09:57:46Z</time>
      </trkpt>
      <trkpt lat="44.42535" lon="5.46006">
        <ele>1083.6</ele>
        <time>2023-07-24T09:57:47Z</time>
      </trkpt>
      <trkpt lat="44.42536" lon="5.46013">
        <ele>1083.6</ele>
        <time>2023-07-24T09:57:48Z</time>
      </trkpt>
      <trkpt lat="44.42537" lon="5.46019">
        <ele>1083.6</ele>
        <time>2023-07-24T09:57:49Z</time>
      </trkpt>
      <trkpt lat="44.42539" lon="5.46025">
        <ele>1083.6</ele>
        <time>2023-07-24T09:57:50Z</time>
      </trkpt>
      <trkpt lat="44.4254" lon="5.46031">
        <ele>1083.5</ele>
        <time>2023-07-24T09:57:51Z</time>
      </trkpt>
      <trkpt lat="44.42542" lon="5.46036">
        <ele>1083.4</ele>
        <time>2023-07-24T09:57:52Z</time>
      </trkpt>
      <trkpt lat="44.42543" lon="5.46043">
        <ele>1083.3</ele>
        <time>2023-07-24T09:57:53Z</time>
      </trkpt>
      <trkpt lat="44.42544" lon="5.46049">
        <ele>1083.1</ele>
        <time>2023-07-24T09:57:54Z</time>
      </trkpt>
      <trkpt lat="44.42546" lon="5.46056">
        <ele>1082.8</ele>
        <time>2023-07-24T09:57:55Z</time>
      </trkpt>
      <trkpt lat="44.42547" lon="5.46063">
        <ele>1082.5</ele>
        <time>2023-07-24T09:57:56Z</time>
      </trkpt>
      <trkpt lat="44.42548" lon="5.4607">
        <ele>1082.1</ele>
        <time>2023-07-24T09:57:57Z</time>
      </trkpt>
      <trkpt lat="44.42549" lon="5.46077">
        <ele>1081.7</ele>
        <time>2023-07-24T09:57:58Z</time>
      </trkpt>
      <trkpt lat="44.4255" lon="5.46084">
        <ele>1081.3</ele>
        <time>2023-07-24T09:57:59Z</time>
      </trkpt>
      <trkpt lat="44.42552" lon="5.46091">
        <ele>1080.9</ele>
        <time>2023-07-24T09:58:00Z</time>
      </trkpt>
      <trkpt lat="44.42554" lon="5.46096">
        <ele>1080.5</ele>
        <time>2023-07-24T09:58:01Z</time>
      </trkpt>
      <trkpt lat="44.42557" lon="5.46102">
        <ele>1080.1</ele>
        <time>2023-07-24T09:58:02Z</time>
      </trkpt>
      <trkpt lat="44.4256" lon="5.46107">
        <ele>1079.6</ele>
        <time>2023-07-24T09:58:03Z</time>
      </trkpt>
      <trkpt lat="44.42564" lon="5.46113">
        <ele>1079.1</ele>
        <time>2023-07-24T09:58:04Z</time>
      </trkpt>
      <trkpt lat="44.42568" lon="5.46119">
        <ele>1078.5</ele>
        <time>2023-07-24T09:58:05Z</time>
      </trkpt>
      <trkpt lat="44.42573" lon="5.46126">
        <ele>1077.8</ele>
        <time>2023-07-24T09:58:06Z</time>
      </trkpt>
      <trkpt lat="44.42577" lon="5.46134">
        <ele>1077.3</ele>
        <time>2023-07-24T09:58:07Z</time>
      </trkpt>
      <trkpt lat="44.42587" lon="5.46147">
        <ele>1076.5</ele>
        <time>2023-07-24T09:58:09Z</time>
      </trkpt>
      <trkpt lat="44.4259" lon="5.46152">
        <ele>1076.3</ele>
        <time>2023-07-24T09:58:10Z</time>
      </trkpt>
      <trkpt lat="44.42594" lon="5.46158">
        <ele>1076.3</ele>
        <time>2023-07-24T09:58:11Z</time>
      </trkpt>
      <trkpt lat="44.42597" lon="5.46164">
        <ele>1076.3</ele>
        <time>2023-07-24T09:58:12Z</time>
      </trkpt>
      <trkpt lat="44.426" lon="5.4617">
        <ele>1076.4</ele>
        <time>2023-07-24T09:58:13Z</time>
      </trkpt>
      <trkpt lat="44.42603" lon="5.46176">
        <ele>1076.6</ele>
        <time>2023-07-24T09:58:14Z</time>
      </trkpt>
      <trkpt lat="44.42607" lon="5.46181">
        <ele>1076.8</ele>
        <time>2023-07-24T09:58:15Z</time>
      </trkpt>
      <trkpt lat="44.42611" lon="5.46186">
        <ele>1077.1</ele>
        <time>2023-07-24T09:58:16Z</time>
      </trkpt>
      <trkpt lat="44.42615" lon="5.46191">
        <ele>1077.4</ele>
        <time>2023-07-24T09:58:17Z</time>
      </trkpt>
      <trkpt lat="44.4262" lon="5.46195">
        <ele>1077.8</ele>
        <time>2023-07-24T09:58:18Z</time>
      </trkpt>
      <trkpt lat="44.42624" lon="5.46199">
        <ele>1076.9</ele>
        <time>2023-07-24T09:58:19Z</time>
      </trkpt>
      <trkpt lat="44.42626" lon="5.46202">
        <ele>1076.5</ele>
        <time>2023-07-24T09:58:20Z</time>
      </trkpt>
      <trkpt lat="44.42628" lon="5.46205">
        <ele>1076</ele>
        <time>2023-07-24T09:58:21Z</time>
      </trkpt>
      <trkpt lat="44.42629" lon="5.46206">
        <ele>1075.9</ele>
        <time>2023-07-24T09:58:22Z</time>
      </trkpt>
      <trkpt lat="44.42631" lon="5.4621">
        <ele>1075.4</ele>
        <time>2023-07-24T09:58:23Z</time>
      </trkpt>
      <trkpt lat="44.42632" lon="5.46211">
        <ele>1075.2</ele>
        <time>2023-07-24T09:58:24Z</time>
      </trkpt>
      <trkpt lat="44.42636" lon="5.46214">
        <ele>1074.6</ele>
        <time>2023-07-24T09:58:25Z</time>
      </trkpt>
      <trkpt lat="44.4264" lon="5.46217">
        <ele>1074</ele>
        <time>2023-07-24T09:58:26Z</time>
      </trkpt>
      <trkpt lat="44.42644" lon="5.46221">
        <ele>1073.5</ele>
        <time>2023-07-24T09:58:27Z</time>
      </trkpt>
      <trkpt lat="44.42646" lon="5.46225">
        <ele>1073.1</ele>
        <time>2023-07-24T09:58:28Z</time>
      </trkpt>
      <trkpt lat="44.42646" lon="5.46226">
        <ele>1073</ele>
        <time>2023-07-24T09:58:29Z</time>
      </trkpt>
      <trkpt lat="44.42647" lon="5.46228">
        <ele>1072.7</ele>
        <time>2023-07-24T09:58:30Z</time>
      </trkpt>
      <trkpt lat="44.42648" lon="5.46229">
        <ele>1072.6</ele>
        <time>2023-07-24T09:58:31Z</time>
      </trkpt>
      <trkpt lat="44.42648" lon="5.46229">
        <ele>1072.5</ele>
        <time>2023-07-24T09:58:32Z</time>
      </trkpt>
      <trkpt lat="44.42649" lon="5.46229">
        <ele>1072.5</ele>
        <time>2023-07-24T09:58:33Z</time>
      </trkpt>
      <trkpt lat="44.42648" lon="5.46229">
        <ele>1072.4</ele>
        <time>2023-07-24T09:58:34Z</time>
      </trkpt>
      <trkpt lat="44.42649" lon="5.46229">
        <ele>1072.4</ele>
        <time>2023-07-24T09:58:35Z</time>
      </trkpt>
      <trkpt lat="44.42649" lon="5.46229">
        <ele>1072.4</ele>
        <time>2023-07-24T09:58:36Z</time>
      </trkpt>
      <trkpt lat="44.42649" lon="5.46229">
        <ele>1072.3</ele>
        <time>2023-07-24T09:58:37Z</time>
      </trkpt>
      <trkpt lat="44.42649" lon="5.4623">
        <ele>1072.3</ele>
        <time>2023-07-24T09:58:38Z</time>
      </trkpt>
      <trkpt lat="44.42649" lon="5.4623">
        <ele>1072.3</ele>
        <time>2023-07-24T09:58:39Z</time>
      </trkpt>
      <trkpt lat="44.42649" lon="5.4623">
        <ele>1072.3</ele>
        <time>2023-07-24T09:58:40Z</time>
      </trkpt>
      <trkpt lat="44.42649" lon="5.4623">
        <ele>1072.3</ele>
        <time>2023-07-24T09:58:41Z</time>
      </trkpt>
      <trkpt lat="44.42649" lon="5.4623">
        <ele>1072.3</ele>
        <time>2023-07-24T09:58:42Z</time>
      </trkpt>
      <trkpt lat="44.42649" lon="5.4623">
        <ele>1072.3</ele>
        <time>2023-07-24T09:58:43Z</time>
      </trkpt>
      <trkpt lat="44.42649" lon="5.46233">
        <ele>1072</ele>
        <time>2023-07-24T09:58:45Z</time>
      </trkpt>
      <trkpt lat="44.42649" lon="5.46234">
        <ele>1071.9</ele>
        <time>2023-07-24T09:58:46Z</time>
      </trkpt>
      <trkpt lat="44.42648" lon="5.46235">
        <ele>1071.8</ele>
        <time>2023-07-24T09:58:47Z</time>
      </trkpt>
      <trkpt lat="44.42648" lon="5.46236">
        <ele>1071.7</ele>
        <time>2023-07-24T09:58:48Z</time>
      </trkpt>
      <trkpt lat="44.42648" lon="5.46236">
        <ele>1071.7</ele>
        <time>2023-07-24T09:58:49Z</time>
      </trkpt>
      <trkpt lat="44.42648" lon="5.46236">
        <ele>1071.6</ele>
        <time>2023-07-24T09:58:50Z</time>
      </trkpt>
      <trkpt lat="44.42648" lon="5.46235">
        <ele>1071.5</ele>
        <time>2023-07-24T09:58:51Z</time>
      </trkpt>
      <trkpt lat="44.42648" lon="5.46234">
        <ele>1071.4</ele>
        <time>2023-07-24T09:58:52Z</time>
      </trkpt>
      <trkpt lat="44.42648" lon="5.46233">
        <ele>1071.3</ele>
        <time>2023-07-24T09:58:53Z</time>
      </trkpt>
      <trkpt lat="44.42648" lon="5.46233">
        <ele>1071.3</ele>
        <time>2023-07-24T09:58:54Z</time>
      </trkpt>
      <trkpt lat="44.42648" lon="5.46232">
        <ele>1071.2</ele>
        <time>2023-07-24T09:58:55Z</time>
      </trkpt>
      <trkpt lat="44.42648" lon="5.46231">
        <ele>1071.1</ele>
        <time>2023-07-24T09:58:56Z</time>
      </trkpt>
      <trkpt lat="44.42648" lon="5.46231">
        <ele>1071.1</ele>
        <time>2023-07-24T09:58:57Z</time>
      </trkpt>
      <trkpt lat="44.42648" lon="5.46231">
        <ele>1071.1</ele>
        <time>2023-07-24T09:58:58Z</time>
      </trkpt>
      <trkpt lat="44.42647" lon="5.46231">
        <ele>1071</ele>
        <time>2023-07-24T09:58:59Z</time>
      </trkpt>
      <trkpt lat="44.42647" lon="5.46231">
        <ele>1071</ele>
        <time>2023-07-24T09:59:00Z</time>
      </trkpt>
      <trkpt lat="44.42647" lon="5.46231">
        <ele>1071</ele>
        <time>2023-07-24T09:59:01Z</time>
      </trkpt>
      <trkpt lat="44.42647" lon="5.46231">
        <ele>1071</ele>
        <time>2023-07-24T09:59:02Z</time>
      </trkpt>
      <trkpt lat="44.42648" lon="5.46232">
        <ele>1071</ele>
        <time>2023-07-24T09:59:03Z</time>
      </trkpt>
      <trkpt lat="44.42655" lon="5.46242">
        <ele>1068.5</ele>
        <time>2023-07-24T09:59:39Z</time>
      </trkpt>
      <trkpt lat="44.42655" lon="5.46242">
        <ele>1068.5</ele>
        <time>2023-07-24T09:59:40Z</time>
      </trkpt>
      <trkpt lat="44.42655" lon="5.46242">
        <ele>1068.5</ele>
        <time>2023-07-24T09:59:41Z</time>
      </trkpt>
      <trkpt lat="44.42655" lon="5.46242">
        <ele>1068.5</ele>
        <time>2023-07-24T09:59:42Z</time>
      </trkpt>
      <trkpt lat="44.42655" lon="5.46242">
        <ele>1068.5</ele>
        <time>2023-07-24T09:59:43Z</time>
      </trkpt>
      <trkpt lat="44.42655" lon="5.46242">
        <ele>1068.5</ele>
        <time>2023-07-24T09:59:44Z</time>
      </trkpt>
      <trkpt lat="44.42655" lon="5.46242">
        <ele>1068.5</ele>
        <time>2023-07-24T09:59:45Z</time>
      </trkpt>
      <trkpt lat="44.42655" lon="5.46242">
        <ele>1068.5</ele>
        <time>2023-07-24T09:59:46Z</time>
      </trkpt>
      <trkpt lat="44.42655" lon="5.46242">
        <ele>1068.5</ele>
        <time>2023-07-24T09:59:47Z</time>
      </trkpt>
      <trkpt lat="44.42655" lon="5.46242">
        <ele>1068.5</ele>
        <time>2023-07-24T09:59:48Z</time>
      </trkpt>
      <trkpt lat="44.42655" lon="5.46242">
        <ele>1068.5</ele>
        <time>2023-07-24T09:59:49Z</time>
      </trkpt>
      <trkpt lat="44.42655" lon="5.46242">
        <ele>1068.5</ele>
        <time>2023-07-24T09:59:50Z</time>
      </trkpt>
      <trkpt lat="44.42652" lon="5.4624">
        <ele>1068.4</ele>
        <time>2023-07-24T10:00:22Z</time>
      </trkpt>
      <trkpt lat="44.42651" lon="5.46239">
        <ele>1068.3</ele>
        <time>2023-07-24T10:00:23Z</time>
      </trkpt>
      <trkpt lat="44.4265" lon="5.46238">
        <ele>1068.3</ele>
        <time>2023-07-24T10:00:24Z</time>
      </trkpt>
      <trkpt lat="44.42649" lon="5.46236">
        <ele>1068.2</ele>
        <time>2023-07-24T10:00:25Z</time>
      </trkpt>
      <trkpt lat="44.42648" lon="5.46235">
        <ele>1068.2</ele>
        <time>2023-07-24T10:00:26Z</time>
      </trkpt>
      <trkpt lat="44.42648" lon="5.46234">
        <ele>1068.1</ele>
        <time>2023-07-24T10:00:27Z</time>
      </trkpt>
      <trkpt lat="44.42648" lon="5.46235">
        <ele>1068.1</ele>
        <time>2023-07-24T10:00:28Z</time>
      </trkpt>
      <trkpt lat="44.42648" lon="5.46235">
        <ele>1068.1</ele>
        <time>2023-07-24T10:00:29Z</time>
      </trkpt>
      <trkpt lat="44.42648" lon="5.46236">
        <ele>1068.1</ele>
        <time>2023-07-24T10:00:30Z</time>
      </trkpt>
      <trkpt lat="44.42648" lon="5.46236">
        <ele>1068.1</ele>
        <time>2023-07-24T10:00:31Z</time>
      </trkpt>
      <trkpt lat="44.42648" lon="5.46237">
        <ele>1068.1</ele>
        <time>2023-07-24T10:00:32Z</time>
      </trkpt>
      <trkpt lat="44.42648" lon="5.46237">
        <ele>1068</ele>
        <time>2023-07-24T10:00:33Z</time>
      </trkpt>
      <trkpt lat="44.42648" lon="5.46238">
        <ele>1068</ele>
        <time>2023-07-24T10:00:34Z</time>
      </trkpt>
      <trkpt lat="44.42649" lon="5.46238">
        <ele>1068</ele>
        <time>2023-07-24T10:00:35Z</time>
      </trkpt>
      <trkpt lat="44.42649" lon="5.46239">
        <ele>1068</ele>
        <time>2023-07-24T10:00:36Z</time>
      </trkpt>
      <trkpt lat="44.42649" lon="5.46239">
        <ele>1068</ele>
        <time>2023-07-24T10:00:37Z</time>
      </trkpt>
      <trkpt lat="44.42649" lon="5.4624">
        <ele>1068</ele>
        <time>2023-07-24T10:00:38Z</time>
      </trkpt>
      <trkpt lat="44.42649" lon="5.4624">
        <ele>1068</ele>
        <time>2023-07-24T10:00:39Z</time>
      </trkpt>
      <trkpt lat="44.42649" lon="5.46241">
        <ele>1067.9</ele>
        <time>2023-07-24T10:00:40Z</time>
      </trkpt>
      <trkpt lat="44.42649" lon="5.46241">
        <ele>1067.9</ele>
        <time>2023-07-24T10:01:05Z</time>
      </trkpt>
      <trkpt lat="44.42649" lon="5.46242">
        <ele>1067.9</ele>
        <time>2023-07-24T10:01:06Z</time>
      </trkpt>
      <trkpt lat="44.4265" lon="5.46242">
        <ele>1067.9</ele>
        <time>2023-07-24T10:01:07Z</time>
      </trkpt>
      <trkpt lat="44.42647" lon="5.46246">
        <ele>1067.7</ele>
        <time>2023-07-24T10:01:08Z</time>
      </trkpt>
      <trkpt lat="44.42643" lon="5.46248">
        <ele>1067.6</ele>
        <time>2023-07-24T10:01:09Z</time>
      </trkpt>
      <trkpt lat="44.42635" lon="5.46252">
        <ele>1067.2</ele>
        <time>2023-07-24T10:01:11Z</time>
      </trkpt>
      <trkpt lat="44.42631" lon="5.46254">
        <ele>1067</ele>
        <time>2023-07-24T10:01:12Z</time>
      </trkpt>
      <trkpt lat="44.42626" lon="5.46255">
        <ele>1066.8</ele>
        <time>2023-07-24T10:01:13Z</time>
      </trkpt>
      <trkpt lat="44.42622" lon="5.46257">
        <ele>1066.6</ele>
        <time>2023-07-24T10:01:14Z</time>
      </trkpt>
      <trkpt lat="44.42617" lon="5.46258">
        <ele>1066.3</ele>
        <time>2023-07-24T10:01:15Z</time>
      </trkpt>
      <trkpt lat="44.42613" lon="5.46259">
        <ele>1066.1</ele>
        <time>2023-07-24T10:01:16Z</time>
      </trkpt>
      <trkpt lat="44.42609" lon="5.46259">
        <ele>1065.9</ele>
        <time>2023-07-24T10:01:17Z</time>
      </trkpt>
      <trkpt lat="44.42604" lon="5.46259">
        <ele>1065.6</ele>
        <time>2023-07-24T10:01:18Z</time>
      </trkpt>
      <trkpt lat="44.42599" lon="5.46259">
        <ele>1065.3</ele>
        <time>2023-07-24T10:01:19Z</time>
      </trkpt>
      <trkpt lat="44.42594" lon="5.46258">
        <ele>1065.1</ele>
        <time>2023-07-24T10:01:20Z</time>
      </trkpt>
      <trkpt lat="44.4259" lon="5.46258">
        <ele>1064.8</ele>
        <time>2023-07-24T10:01:21Z</time>
      </trkpt>
      <trkpt lat="44.42586" lon="5.46258">
        <ele>1064.6</ele>
        <time>2023-07-24T10:01:22Z</time>
      </trkpt>
      <trkpt lat="44.42582" lon="5.46257">
        <ele>1064.3</ele>
        <time>2023-07-24T10:01:23Z</time>
      </trkpt>
      <trkpt lat="44.42578" lon="5.46257">
        <ele>1064.1</ele>
        <time>2023-07-24T10:01:24Z</time>
      </trkpt>
      <trkpt lat="44.42574" lon="5.46256">
        <ele>1063.9</ele>
        <time>2023-07-24T10:01:25Z</time>
      </trkpt>
      <trkpt lat="44.4257" lon="5.46254">
        <ele>1063.6</ele>
        <time>2023-07-24T10:01:26Z</time>
      </trkpt>
      <trkpt lat="44.42566" lon="5.46252">
        <ele>1063.3</ele>
        <time>2023-07-24T10:01:27Z</time>
      </trkpt>
      <trkpt lat="44.42561" lon="5.46251">
        <ele>1063.5</ele>
        <time>2023-07-24T10:01:28Z</time>
      </trkpt>
      <trkpt lat="44.42556" lon="5.46251">
        <ele>1063.9</ele>
        <time>2023-07-24T10:01:29Z</time>
      </trkpt>
      <trkpt lat="44.42551" lon="5.46251">
        <ele>1064.3</ele>
        <time>2023-07-24T10:01:30Z</time>
      </trkpt>
      <trkpt lat="44.42549" lon="5.46251">
        <ele>1064.6</ele>
        <time>2023-07-24T10:01:31Z</time>
      </trkpt>
      <trkpt lat="44.42545" lon="5.4625">
        <ele>1065</ele>
        <time>2023-07-24T10:01:32Z</time>
      </trkpt>
      <trkpt lat="44.42544" lon="5.4625">
        <ele>1065.2</ele>
        <time>2023-07-24T10:01:33Z</time>
      </trkpt>
      <trkpt lat="44.42541" lon="5.4625">
        <ele>1065.6</ele>
        <time>2023-07-24T10:01:34Z</time>
      </trkpt>
      <trkpt lat="44.42537" lon="5.46249">
        <ele>1066</ele>
        <time>2023-07-24T10:01:35Z</time>
      </trkpt>
      <trkpt lat="44.42534" lon="5.46248">
        <ele>1066.4</ele>
        <time>2023-07-24T10:01:36Z</time>
      </trkpt>
      <trkpt lat="44.42531" lon="5.46247">
        <ele>1066.9</ele>
        <time>2023-07-24T10:01:37Z</time>
      </trkpt>
      <trkpt lat="44.42527" lon="5.46246">
        <ele>1067.3</ele>
        <time>2023-07-24T10:01:38Z</time>
      </trkpt>
      <trkpt lat="44.42524" lon="5.46246">
        <ele>1067.8</ele>
        <time>2023-07-24T10:01:39Z</time>
      </trkpt>
      <trkpt lat="44.42521" lon="5.46246">
        <ele>1068.2</ele>
        <time>2023-07-24T10:01:40Z</time>
      </trkpt>
      <trkpt lat="44.42518" lon="5.46245">
        <ele>1068.6</ele>
        <time>2023-07-24T10:01:41Z</time>
      </trkpt>
      <trkpt lat="44.42515" lon="5.46245">
        <ele>1069</ele>
        <time>2023-07-24T10:01:42Z</time>
      </trkpt>
      <trkpt lat="44.42511" lon="5.46244">
        <ele>1069.5</ele>
        <time>2023-07-24T10:01:43Z</time>
      </trkpt>
      <trkpt lat="44.42508" lon="5.46244">
        <ele>1070</ele>
        <time>2023-07-24T10:01:44Z</time>
      </trkpt>
      <trkpt lat="44.42504" lon="5.46244">
        <ele>1070.5</ele>
        <time>2023-07-24T10:01:45Z</time>
      </trkpt>
      <trkpt lat="44.42501" lon="5.46244">
        <ele>1070.9</ele>
        <time>2023-07-24T10:01:46Z</time>
      </trkpt>
      <trkpt lat="44.42499" lon="5.46244">
        <ele>1071.2</ele>
        <time>2023-07-24T10:01:47Z</time>
      </trkpt>
      <trkpt lat="44.42495" lon="5.46245">
        <ele>1071.6</ele>
        <time>2023-07-24T10:01:48Z</time>
      </trkpt>
      <trkpt lat="44.42492" lon="5.46245">
        <ele>1071.9</ele>
        <time>2023-07-24T10:01:49Z</time>
      </trkpt>
      <trkpt lat="44.42489" lon="5.46245">
        <ele>1072.2</ele>
        <time>2023-07-24T10:01:50Z</time>
      </trkpt>
      <trkpt lat="44.42487" lon="5.46245">
        <ele>1072.3</ele>
        <time>2023-07-24T10:01:51Z</time>
      </trkpt>
      <trkpt lat="44.42484" lon="5.46245">
        <ele>1072.5</ele>
        <time>2023-07-24T10:01:52Z</time>
      </trkpt>
      <trkpt lat="44.42483" lon="5.46245">
        <ele>1072.5</ele>
        <time>2023-07-24T10:01:53Z</time>
      </trkpt>
      <trkpt lat="44.42479" lon="5.46244">
        <ele>1072.6</ele>
        <time>2023-07-24T10:01:54Z</time>
      </trkpt>
      <trkpt lat="44.42478" lon="5.46244">
        <ele>1072.7</ele>
        <time>2023-07-24T10:01:55Z</time>
      </trkpt>
      <trkpt lat="44.42474" lon="5.46243">
        <ele>1072.8</ele>
        <time>2023-07-24T10:01:56Z</time>
      </trkpt>
      <trkpt lat="44.42473" lon="5.46242">
        <ele>1072.8</ele>
        <time>2023-07-24T10:01:57Z</time>
      </trkpt>
      <trkpt lat="44.4247" lon="5.46241">
        <ele>1072.8</ele>
        <time>2023-07-24T10:01:58Z</time>
      </trkpt>
      <trkpt lat="44.42467" lon="5.4624">
        <ele>1072.9</ele>
        <time>2023-07-24T10:01:59Z</time>
      </trkpt>
      <trkpt lat="44.42464" lon="5.46239">
        <ele>1072.9</ele>
        <time>2023-07-24T10:02:00Z</time>
      </trkpt>
      <trkpt lat="44.42461" lon="5.46239">
        <ele>1073</ele>
        <time>2023-07-24T10:02:01Z</time>
      </trkpt>
      <trkpt lat="44.42458" lon="5.46239">
        <ele>1073</ele>
        <time>2023-07-24T10:02:02Z</time>
      </trkpt>
      <trkpt lat="44.42454" lon="5.46238">
        <ele>1073.1</ele>
        <time>2023-07-24T10:02:03Z</time>
      </trkpt>
      <trkpt lat="44.4245" lon="5.46237">
        <ele>1073.2</ele>
        <time>2023-07-24T10:02:04Z</time>
      </trkpt>
      <trkpt lat="44.42447" lon="5.46236">
        <ele>1073.4</ele>
        <time>2023-07-24T10:02:05Z</time>
      </trkpt>
      <trkpt lat="44.42444" lon="5.46235">
        <ele>1073.5</ele>
        <time>2023-07-24T10:02:06Z</time>
      </trkpt>
      <trkpt lat="44.42441" lon="5.46235">
        <ele>1073.7</ele>
        <time>2023-07-24T10:02:07Z</time>
      </trkpt>
      <trkpt lat="44.42438" lon="5.46235">
        <ele>1073.9</ele>
        <time>2023-07-24T10:02:08Z</time>
      </trkpt>
      <trkpt lat="44.42435" lon="5.46235">
        <ele>1074.2</ele>
        <time>2023-07-24T10:02:09Z</time>
      </trkpt>
      <trkpt lat="44.42432" lon="5.46234">
        <ele>1074.5</ele>
        <time>2023-07-24T10:02:10Z</time>
      </trkpt>
      <trkpt lat="44.42429" lon="5.46233">
        <ele>1074.8</ele>
        <time>2023-07-24T10:02:11Z</time>
      </trkpt>
      <trkpt lat="44.42426" lon="5.46231">
        <ele>1075.2</ele>
        <time>2023-07-24T10:02:12Z</time>
      </trkpt>
      <trkpt lat="44.42423" lon="5.4623">
        <ele>1075.6</ele>
        <time>2023-07-24T10:02:13Z</time>
      </trkpt>
      <trkpt lat="44.4242" lon="5.46228">
        <ele>1076</ele>
        <time>2023-07-24T10:02:14Z</time>
      </trkpt>
      <trkpt lat="44.42414" lon="5.46221">
        <ele>1077.1</ele>
        <time>2023-07-24T10:02:16Z</time>
      </trkpt>
      <trkpt lat="44.42412" lon="5.4622">
        <ele>1077.4</ele>
        <time>2023-07-24T10:02:17Z</time>
      </trkpt>
      <trkpt lat="44.42408" lon="5.46218">
        <ele>1078</ele>
        <time>2023-07-24T10:02:18Z</time>
      </trkpt>
      <trkpt lat="44.42404" lon="5.46217">
        <ele>1078.5</ele>
        <time>2023-07-24T10:02:19Z</time>
      </trkpt>
      <trkpt lat="44.424" lon="5.46217">
        <ele>1079.1</ele>
        <time>2023-07-24T10:02:20Z</time>
      </trkpt>
      <trkpt lat="44.42396" lon="5.46217">
        <ele>1079.6</ele>
        <time>2023-07-24T10:02:21Z</time>
      </trkpt>
      <trkpt lat="44.42392" lon="5.46217">
        <ele>1080.1</ele>
        <time>2023-07-24T10:02:22Z</time>
      </trkpt>
      <trkpt lat="44.42389" lon="5.46217">
        <ele>1080.4</ele>
        <time>2023-07-24T10:02:23Z</time>
      </trkpt>
      <trkpt lat="44.42386" lon="5.46218">
        <ele>1080.7</ele>
        <time>2023-07-24T10:02:24Z</time>
      </trkpt>
      <trkpt lat="44.42383" lon="5.46217">
        <ele>1081</ele>
        <time>2023-07-24T10:02:25Z</time>
      </trkpt>
      <trkpt lat="44.4238" lon="5.46218">
        <ele>1081.3</ele>
        <time>2023-07-24T10:02:26Z</time>
      </trkpt>
      <trkpt lat="44.42376" lon="5.46218">
        <ele>1081.5</ele>
        <time>2023-07-24T10:02:27Z</time>
      </trkpt>
      <trkpt lat="44.42372" lon="5.46219">
        <ele>1081.8</ele>
        <time>2023-07-24T10:02:28Z</time>
      </trkpt>
      <trkpt lat="44.42369" lon="5.4622">
        <ele>1082</ele>
        <time>2023-07-24T10:02:29Z</time>
      </trkpt>
      <trkpt lat="44.42366" lon="5.4622">
        <ele>1082.2</ele>
        <time>2023-07-24T10:02:30Z</time>
      </trkpt>
      <trkpt lat="44.42363" lon="5.46222">
        <ele>1082.5</ele>
        <time>2023-07-24T10:02:31Z</time>
      </trkpt>
      <trkpt lat="44.42361" lon="5.46222">
        <ele>1082.5</ele>
        <time>2023-07-24T10:02:32Z</time>
      </trkpt>
      <trkpt lat="44.42358" lon="5.46225">
        <ele>1082.7</ele>
        <time>2023-07-24T10:02:33Z</time>
      </trkpt>
      <trkpt lat="44.42356" lon="5.46226">
        <ele>1082.8</ele>
        <time>2023-07-24T10:02:34Z</time>
      </trkpt>
      <trkpt lat="44.42354" lon="5.46228">
        <ele>1083</ele>
        <time>2023-07-24T10:02:35Z</time>
      </trkpt>
      <trkpt lat="44.42352" lon="5.46231">
        <ele>1083.1</ele>
        <time>2023-07-24T10:02:36Z</time>
      </trkpt>
      <trkpt lat="44.4235" lon="5.46234">
        <ele>1083.2</ele>
        <time>2023-07-24T10:02:37Z</time>
      </trkpt>
      <trkpt lat="44.42348" lon="5.46236">
        <ele>1083.3</ele>
        <time>2023-07-24T10:02:38Z</time>
      </trkpt>
      <trkpt lat="44.42346" lon="5.46241">
        <ele>1083.4</ele>
        <time>2023-07-24T10:02:39Z</time>
      </trkpt>
      <trkpt lat="44.42346" lon="5.46243">
        <ele>1083.5</ele>
        <time>2023-07-24T10:02:40Z</time>
      </trkpt>
      <trkpt lat="44.42345" lon="5.46247">
        <ele>1083.5</ele>
        <time>2023-07-24T10:02:41Z</time>
      </trkpt>
      <trkpt lat="44.42344" lon="5.46251">
        <ele>1083.6</ele>
        <time>2023-07-24T10:02:42Z</time>
      </trkpt>
      <trkpt lat="44.42343" lon="5.46257">
        <ele>1083.6</ele>
        <time>2023-07-24T10:02:43Z</time>
      </trkpt>
      <trkpt lat="44.42343" lon="5.46258">
        <ele>1083.6</ele>
        <time>2023-07-24T10:02:44Z</time>
      </trkpt>
      <trkpt lat="44.42341" lon="5.46262">
        <ele>1083.5</ele>
        <time>2023-07-24T10:02:45Z</time>
      </trkpt>
      <trkpt lat="44.4234" lon="5.46266">
        <ele>1083.4</ele>
        <time>2023-07-24T10:02:46Z</time>
      </trkpt>
      <trkpt lat="44.42338" lon="5.46271">
        <ele>1083.2</ele>
        <time>2023-07-24T10:02:47Z</time>
      </trkpt>
      <trkpt lat="44.42336" lon="5.46276">
        <ele>1082.9</ele>
        <time>2023-07-24T10:02:48Z</time>
      </trkpt>
      <trkpt lat="44.42334" lon="5.46282">
        <ele>1082.5</ele>
        <time>2023-07-24T10:02:49Z</time>
      </trkpt>
      <trkpt lat="44.42332" lon="5.46287">
        <ele>1082.1</ele>
        <time>2023-07-24T10:02:50Z</time>
      </trkpt>
      <trkpt lat="44.42329" lon="5.46292">
        <ele>1081.8</ele>
        <time>2023-07-24T10:02:51Z</time>
      </trkpt>
      <trkpt lat="44.42327" lon="5.46297">
        <ele>1081.3</ele>
        <time>2023-07-24T10:02:52Z</time>
      </trkpt>
      <trkpt lat="44.42325" lon="5.46303">
        <ele>1080.8</ele>
        <time>2023-07-24T10:02:53Z</time>
      </trkpt>
      <trkpt lat="44.42322" lon="5.46308">
        <ele>1080.4</ele>
        <time>2023-07-24T10:02:54Z</time>
      </trkpt>
      <trkpt lat="44.42318" lon="5.46315">
        <ele>1080.1</ele>
        <time>2023-07-24T10:02:55Z</time>
      </trkpt>
      <trkpt lat="44.42314" lon="5.46322">
        <ele>1080</ele>
        <time>2023-07-24T10:02:56Z</time>
      </trkpt>
      <trkpt lat="44.42311" lon="5.46329">
        <ele>1080.2</ele>
        <time>2023-07-24T10:02:57Z</time>
      </trkpt>
      <trkpt lat="44.42308" lon="5.46337">
        <ele>1080.7</ele>
        <time>2023-07-24T10:02:58Z</time>
      </trkpt>
      <trkpt lat="44.42306" lon="5.46342">
        <ele>1081.3</ele>
        <time>2023-07-24T10:02:59Z</time>
      </trkpt>
      <trkpt lat="44.42306" lon="5.46348">
        <ele>1081.7</ele>
        <time>2023-07-24T10:03:00Z</time>
      </trkpt>
      <trkpt lat="44.42306" lon="5.46352">
        <ele>1082.2</ele>
        <time>2023-07-24T10:03:01Z</time>
      </trkpt>
      <trkpt lat="44.42306" lon="5.46356">
        <ele>1082.5</ele>
        <time>2023-07-24T10:03:02Z</time>
      </trkpt>
      <trkpt lat="44.42306" lon="5.46359">
        <ele>1082.7</ele>
        <time>2023-07-24T10:03:03Z</time>
      </trkpt>
      <trkpt lat="44.42306" lon="5.46359">
        <ele>1082.7</ele>
        <time>2023-07-24T10:03:04Z</time>
      </trkpt>
      <trkpt lat="44.42306" lon="5.46359">
        <ele>1082.8</ele>
        <time>2023-07-24T10:03:05Z</time>
      </trkpt>
      <trkpt lat="44.42306" lon="5.46359">
        <ele>1082.8</ele>
        <time>2023-07-24T10:03:06Z</time>
      </trkpt>
      <trkpt lat="44.42306" lon="5.46361">
        <ele>1082.9</ele>
        <time>2023-07-24T10:03:07Z</time>
      </trkpt>
      <trkpt lat="44.42306" lon="5.46362">
        <ele>1083</ele>
        <time>2023-07-24T10:03:08Z</time>
      </trkpt>
      <trkpt lat="44.42305" lon="5.46364">
        <ele>1083.1</ele>
        <time>2023-07-24T10:03:09Z</time>
      </trkpt>
      <trkpt lat="44.42305" lon="5.46365">
        <ele>1083.2</ele>
        <time>2023-07-24T10:03:10Z</time>
      </trkpt>
      <trkpt lat="44.42304" lon="5.46366">
        <ele>1083.3</ele>
        <time>2023-07-24T10:03:11Z</time>
      </trkpt>
      <trkpt lat="44.42303" lon="5.46367">
        <ele>1083.4</ele>
        <time>2023-07-24T10:03:12Z</time>
      </trkpt>
      <trkpt lat="44.42303" lon="5.46367">
        <ele>1083.5</ele>
        <time>2023-07-24T10:03:13Z</time>
      </trkpt>
      <trkpt lat="44.42302" lon="5.46368">
        <ele>1083.5</ele>
        <time>2023-07-24T10:03:14Z</time>
      </trkpt>
      <trkpt lat="44.42302" lon="5.46368">
        <ele>1083.5</ele>
        <time>2023-07-24T10:03:15Z</time>
      </trkpt>
      <trkpt lat="44.42302" lon="5.46369">
        <ele>1083.6</ele>
        <time>2023-07-24T10:03:16Z</time>
      </trkpt>
      <trkpt lat="44.423" lon="5.46371">
        <ele>1083.7</ele>
        <time>2023-07-24T10:03:17Z</time>
      </trkpt>
      <trkpt lat="44.42297" lon="5.46374">
        <ele>1083.9</ele>
        <time>2023-07-24T10:03:18Z</time>
      </trkpt>
      <trkpt lat="44.42296" lon="5.46376">
        <ele>1084</ele>
        <time>2023-07-24T10:03:19Z</time>
      </trkpt>
      <trkpt lat="44.42294" lon="5.46379">
        <ele>1084</ele>
        <time>2023-07-24T10:03:20Z</time>
      </trkpt>
      <trkpt lat="44.42291" lon="5.46382">
        <ele>1084.1</ele>
        <time>2023-07-24T10:03:21Z</time>
      </trkpt>
      <trkpt lat="44.42289" lon="5.46385">
        <ele>1084.1</ele>
        <time>2023-07-24T10:03:22Z</time>
      </trkpt>
      <trkpt lat="44.42286" lon="5.46388">
        <ele>1084.1</ele>
        <time>2023-07-24T10:03:23Z</time>
      </trkpt>
      <trkpt lat="44.42284" lon="5.4639">
        <ele>1084</ele>
        <time>2023-07-24T10:03:24Z</time>
      </trkpt>
      <trkpt lat="44.42281" lon="5.46393">
        <ele>1083.9</ele>
        <time>2023-07-24T10:03:25Z</time>
      </trkpt>
      <trkpt lat="44.42279" lon="5.46396">
        <ele>1083.8</ele>
        <time>2023-07-24T10:03:26Z</time>
      </trkpt>
      <trkpt lat="44.42276" lon="5.46399">
        <ele>1083.7</ele>
        <time>2023-07-24T10:03:27Z</time>
      </trkpt>
      <trkpt lat="44.42273" lon="5.46402">
        <ele>1083.5</ele>
        <time>2023-07-24T10:03:28Z</time>
      </trkpt>
      <trkpt lat="44.42269" lon="5.46405">
        <ele>1083.3</ele>
        <time>2023-07-24T10:03:29Z</time>
      </trkpt>
      <trkpt lat="44.42265" lon="5.46408">
        <ele>1083.1</ele>
        <time>2023-07-24T10:03:30Z</time>
      </trkpt>
      <trkpt lat="44.4226" lon="5.46412">
        <ele>1083</ele>
        <time>2023-07-24T10:03:31Z</time>
      </trkpt>
      <trkpt lat="44.42256" lon="5.46417">
        <ele>1082.9</ele>
        <time>2023-07-24T10:03:32Z</time>
      </trkpt>
      <trkpt lat="44.42251" lon="5.46422">
        <ele>1082.8</ele>
        <time>2023-07-24T10:03:33Z</time>
      </trkpt>
      <trkpt lat="44.42247" lon="5.46426">
        <ele>1082.6</ele>
        <time>2023-07-24T10:03:34Z</time>
      </trkpt>
      <trkpt lat="44.42244" lon="5.4643">
        <ele>1082.5</ele>
        <time>2023-07-24T10:03:35Z</time>
      </trkpt>
      <trkpt lat="44.42241" lon="5.46433">
        <ele>1082.3</ele>
        <time>2023-07-24T10:03:36Z</time>
      </trkpt>
      <trkpt lat="44.42237" lon="5.46435">
        <ele>1082.2</ele>
        <time>2023-07-24T10:03:37Z</time>
      </trkpt>
      <trkpt lat="44.42236" lon="5.46435">
        <ele>1082.1</ele>
        <time>2023-07-24T10:03:38Z</time>
      </trkpt>
      <trkpt lat="44.42234" lon="5.46437">
        <ele>1082</ele>
        <time>2023-07-24T10:03:39Z</time>
      </trkpt>
      <trkpt lat="44.42231" lon="5.4644">
        <ele>1082</ele>
        <time>2023-07-24T10:03:40Z</time>
      </trkpt>
      <trkpt lat="44.42229" lon="5.46443">
        <ele>1081.9</ele>
        <time>2023-07-24T10:03:41Z</time>
      </trkpt>
      <trkpt lat="44.42227" lon="5.46447">
        <ele>1081.9</ele>
        <time>2023-07-24T10:03:42Z</time>
      </trkpt>
      <trkpt lat="44.42226" lon="5.46452">
        <ele>1082</ele>
        <time>2023-07-24T10:03:43Z</time>
      </trkpt>
      <trkpt lat="44.42225" lon="5.46457">
        <ele>1082</ele>
        <time>2023-07-24T10:03:44Z</time>
      </trkpt>
      <trkpt lat="44.42223" lon="5.46462">
        <ele>1082.1</ele>
        <time>2023-07-24T10:03:45Z</time>
      </trkpt>
      <trkpt lat="44.42222" lon="5.46468">
        <ele>1082.3</ele>
        <time>2023-07-24T10:03:46Z</time>
      </trkpt>
      <trkpt lat="44.4222" lon="5.46474">
        <ele>1082.5</ele>
        <time>2023-07-24T10:03:47Z</time>
      </trkpt>
      <trkpt lat="44.42218" lon="5.46478">
        <ele>1082.7</ele>
        <time>2023-07-24T10:03:48Z</time>
      </trkpt>
      <trkpt lat="44.42217" lon="5.46483">
        <ele>1082.9</ele>
        <time>2023-07-24T10:03:49Z</time>
      </trkpt>
      <trkpt lat="44.42215" lon="5.46487">
        <ele>1083.1</ele>
        <time>2023-07-24T10:03:50Z</time>
      </trkpt>
      <trkpt lat="44.42213" lon="5.46491">
        <ele>1083.3</ele>
        <time>2023-07-24T10:03:51Z</time>
      </trkpt>
      <trkpt lat="44.42211" lon="5.46496">
        <ele>1083.6</ele>
        <time>2023-07-24T10:03:52Z</time>
      </trkpt>
      <trkpt lat="44.4221" lon="5.46501">
        <ele>1083.9</ele>
        <time>2023-07-24T10:03:53Z</time>
      </trkpt>
      <trkpt lat="44.42209" lon="5.46506">
        <ele>1084.2</ele>
        <time>2023-07-24T10:03:54Z</time>
      </trkpt>
      <trkpt lat="44.42208" lon="5.4651">
        <ele>1084.5</ele>
        <time>2023-07-24T10:03:55Z</time>
      </trkpt>
      <trkpt lat="44.42206" lon="5.46515">
        <ele>1084.8</ele>
        <time>2023-07-24T10:03:56Z</time>
      </trkpt>
      <trkpt lat="44.42205" lon="5.46519">
        <ele>1085.1</ele>
        <time>2023-07-24T10:03:57Z</time>
      </trkpt>
      <trkpt lat="44.42203" lon="5.46522">
        <ele>1085.3</ele>
        <time>2023-07-24T10:03:58Z</time>
      </trkpt>
      <trkpt lat="44.422" lon="5.46524">
        <ele>1085.6</ele>
        <time>2023-07-24T10:03:59Z</time>
      </trkpt>
      <trkpt lat="44.42197" lon="5.46524">
        <ele>1085.9</ele>
        <time>2023-07-24T10:04:00Z</time>
      </trkpt>
      <trkpt lat="44.42194" lon="5.46522">
        <ele>1086.2</ele>
        <time>2023-07-24T10:04:01Z</time>
      </trkpt>
      <trkpt lat="44.4219" lon="5.4652">
        <ele>1086.5</ele>
        <time>2023-07-24T10:04:02Z</time>
      </trkpt>
      <trkpt lat="44.42187" lon="5.46518">
        <ele>1086.8</ele>
        <time>2023-07-24T10:04:03Z</time>
      </trkpt>
      <trkpt lat="44.42184" lon="5.46517">
        <ele>1087</ele>
        <time>2023-07-24T10:04:04Z</time>
      </trkpt>
      <trkpt lat="44.42181" lon="5.46517">
        <ele>1087.1</ele>
        <time>2023-07-24T10:04:05Z</time>
      </trkpt>
      <trkpt lat="44.42177" lon="5.46517">
        <ele>1087.3</ele>
        <time>2023-07-24T10:04:06Z</time>
      </trkpt>
      <trkpt lat="44.42174" lon="5.46517">
        <ele>1087.4</ele>
        <time>2023-07-24T10:04:07Z</time>
      </trkpt>
      <trkpt lat="44.42171" lon="5.46519">
        <ele>1087.5</ele>
        <time>2023-07-24T10:04:08Z</time>
      </trkpt>
      <trkpt lat="44.42169" lon="5.46521">
        <ele>1087.6</ele>
        <time>2023-07-24T10:04:09Z</time>
      </trkpt>
      <trkpt lat="44.42166" lon="5.46524">
        <ele>1087.7</ele>
        <time>2023-07-24T10:04:10Z</time>
      </trkpt>
      <trkpt lat="44.42164" lon="5.46527">
        <ele>1087.7</ele>
        <time>2023-07-24T10:04:11Z</time>
      </trkpt>
      <trkpt lat="44.42161" lon="5.4653">
        <ele>1087.7</ele>
        <time>2023-07-24T10:04:12Z</time>
      </trkpt>
      <trkpt lat="44.42159" lon="5.46534">
        <ele>1087.7</ele>
        <time>2023-07-24T10:04:13Z</time>
      </trkpt>
      <trkpt lat="44.42156" lon="5.46537">
        <ele>1087.7</ele>
        <time>2023-07-24T10:04:14Z</time>
      </trkpt>
      <trkpt lat="44.42154" lon="5.4654">
        <ele>1087.6</ele>
        <time>2023-07-24T10:04:15Z</time>
      </trkpt>
      <trkpt lat="44.42152" lon="5.46544">
        <ele>1087.5</ele>
        <time>2023-07-24T10:04:16Z</time>
      </trkpt>
      <trkpt lat="44.42149" lon="5.46547">
        <ele>1087.3</ele>
        <time>2023-07-24T10:04:17Z</time>
      </trkpt>
      <trkpt lat="44.42144" lon="5.46554">
        <ele>1086.8</ele>
        <time>2023-07-24T10:04:19Z</time>
      </trkpt>
      <trkpt lat="44.42141" lon="5.46558">
        <ele>1086.5</ele>
        <time>2023-07-24T10:04:20Z</time>
      </trkpt>
      <trkpt lat="44.42137" lon="5.46562">
        <ele>1086.1</ele>
        <time>2023-07-24T10:04:21Z</time>
      </trkpt>
      <trkpt lat="44.42133" lon="5.46568">
        <ele>1085.8</ele>
        <time>2023-07-24T10:04:22Z</time>
      </trkpt>
      <trkpt lat="44.42129" lon="5.46574">
        <ele>1085.6</ele>
        <time>2023-07-24T10:04:23Z</time>
      </trkpt>
      <trkpt lat="44.42126" lon="5.46579">
        <ele>1085.4</ele>
        <time>2023-07-24T10:04:24Z</time>
      </trkpt>
      <trkpt lat="44.42123" lon="5.46583">
        <ele>1085.3</ele>
        <time>2023-07-24T10:04:25Z</time>
      </trkpt>
      <trkpt lat="44.42121" lon="5.46587">
        <ele>1085.2</ele>
        <time>2023-07-24T10:04:26Z</time>
      </trkpt>
      <trkpt lat="44.42119" lon="5.46592">
        <ele>1085.1</ele>
        <time>2023-07-24T10:04:27Z</time>
      </trkpt>
      <trkpt lat="44.42116" lon="5.46596">
        <ele>1085.1</ele>
        <time>2023-07-24T10:04:28Z</time>
      </trkpt>
      <trkpt lat="44.42114" lon="5.46601">
        <ele>1085.1</ele>
        <time>2023-07-24T10:04:29Z</time>
      </trkpt>
      <trkpt lat="44.42111" lon="5.46605">
        <ele>1085.1</ele>
        <time>2023-07-24T10:04:30Z</time>
      </trkpt>
      <trkpt lat="44.42108" lon="5.46609">
        <ele>1085.2</ele>
        <time>2023-07-24T10:04:31Z</time>
      </trkpt>
      <trkpt lat="44.42105" lon="5.46613">
        <ele>1085.2</ele>
        <time>2023-07-24T10:04:32Z</time>
      </trkpt>
      <trkpt lat="44.42103" lon="5.46616">
        <ele>1085.2</ele>
        <time>2023-07-24T10:04:33Z</time>
      </trkpt>
      <trkpt lat="44.421" lon="5.4662">
        <ele>1085.1</ele>
        <time>2023-07-24T10:04:34Z</time>
      </trkpt>
      <trkpt lat="44.42097" lon="5.46623">
        <ele>1085</ele>
        <time>2023-07-24T10:04:35Z</time>
      </trkpt>
      <trkpt lat="44.42093" lon="5.46626">
        <ele>1084.8</ele>
        <time>2023-07-24T10:04:36Z</time>
      </trkpt>
      <trkpt lat="44.4209" lon="5.46629">
        <ele>1084.6</ele>
        <time>2023-07-24T10:04:37Z</time>
      </trkpt>
      <trkpt lat="44.42087" lon="5.46631">
        <ele>1084.4</ele>
        <time>2023-07-24T10:04:38Z</time>
      </trkpt>
      <trkpt lat="44.42084" lon="5.46634">
        <ele>1084.2</ele>
        <time>2023-07-24T10:04:39Z</time>
      </trkpt>
      <trkpt lat="44.4208" lon="5.46638">
        <ele>1084.1</ele>
        <time>2023-07-24T10:04:40Z</time>
      </trkpt>
      <trkpt lat="44.42075" lon="5.46641">
        <ele>1084</ele>
        <time>2023-07-24T10:04:41Z</time>
      </trkpt>
      <trkpt lat="44.42071" lon="5.46646">
        <ele>1084</ele>
        <time>2023-07-24T10:04:42Z</time>
      </trkpt>
      <trkpt lat="44.42068" lon="5.46651">
        <ele>1084</ele>
        <time>2023-07-24T10:04:43Z</time>
      </trkpt>
      <trkpt lat="44.42064" lon="5.46657">
        <ele>1084.2</ele>
        <time>2023-07-24T10:04:44Z</time>
      </trkpt>
      <trkpt lat="44.42061" lon="5.46661">
        <ele>1084.3</ele>
        <time>2023-07-24T10:04:45Z</time>
      </trkpt>
      <trkpt lat="44.42057" lon="5.46665">
        <ele>1084.5</ele>
        <time>2023-07-24T10:04:46Z</time>
      </trkpt>
      <trkpt lat="44.42053" lon="5.46669">
        <ele>1084.7</ele>
        <time>2023-07-24T10:04:47Z</time>
      </trkpt>
      <trkpt lat="44.42049" lon="5.46674">
        <ele>1084.9</ele>
        <time>2023-07-24T10:04:48Z</time>
      </trkpt>
      <trkpt lat="44.42046" lon="5.46679">
        <ele>1085.2</ele>
        <time>2023-07-24T10:04:49Z</time>
      </trkpt>
      <trkpt lat="44.42043" lon="5.46685">
        <ele>1085.4</ele>
        <time>2023-07-24T10:04:50Z</time>
      </trkpt>
      <trkpt lat="44.42041" lon="5.46691">
        <ele>1085.7</ele>
        <time>2023-07-24T10:04:51Z</time>
      </trkpt>
      <trkpt lat="44.42038" lon="5.46696">
        <ele>1085.9</ele>
        <time>2023-07-24T10:04:52Z</time>
      </trkpt>
      <trkpt lat="44.42036" lon="5.467">
        <ele>1086</ele>
        <time>2023-07-24T10:04:53Z</time>
      </trkpt>
      <trkpt lat="44.42033" lon="5.46703">
        <ele>1086.2</ele>
        <time>2023-07-24T10:04:54Z</time>
      </trkpt>
      <trkpt lat="44.4203" lon="5.46707">
        <ele>1086.4</ele>
        <time>2023-07-24T10:04:55Z</time>
      </trkpt>
      <trkpt lat="44.42026" lon="5.46711">
        <ele>1086.6</ele>
        <time>2023-07-24T10:04:56Z</time>
      </trkpt>
      <trkpt lat="44.42023" lon="5.46714">
        <ele>1086.9</ele>
        <time>2023-07-24T10:04:57Z</time>
      </trkpt>
      <trkpt lat="44.4202" lon="5.46718">
        <ele>1087.1</ele>
        <time>2023-07-24T10:04:58Z</time>
      </trkpt>
      <trkpt lat="44.42017" lon="5.46721">
        <ele>1087.3</ele>
        <time>2023-07-24T10:04:59Z</time>
      </trkpt>
      <trkpt lat="44.42014" lon="5.46725">
        <ele>1087.4</ele>
        <time>2023-07-24T10:05:00Z</time>
      </trkpt>
      <trkpt lat="44.42012" lon="5.46728">
        <ele>1087.5</ele>
        <time>2023-07-24T10:05:01Z</time>
      </trkpt>
      <trkpt lat="44.4201" lon="5.46731">
        <ele>1087.6</ele>
        <time>2023-07-24T10:05:02Z</time>
      </trkpt>
      <trkpt lat="44.42007" lon="5.46734">
        <ele>1087.7</ele>
        <time>2023-07-24T10:05:03Z</time>
      </trkpt>
      <trkpt lat="44.42005" lon="5.46734">
        <ele>1087.7</ele>
        <time>2023-07-24T10:05:04Z</time>
      </trkpt>
      <trkpt lat="44.42003" lon="5.46735">
        <ele>1087.7</ele>
        <time>2023-07-24T10:05:05Z</time>
      </trkpt>
      <trkpt lat="44.41999" lon="5.46735">
        <ele>1087.7</ele>
        <time>2023-07-24T10:05:06Z</time>
      </trkpt>
      <trkpt lat="44.41996" lon="5.46735">
        <ele>1087.6</ele>
        <time>2023-07-24T10:05:07Z</time>
      </trkpt>
      <trkpt lat="44.41991" lon="5.46735">
        <ele>1087.6</ele>
        <time>2023-07-24T10:05:08Z</time>
      </trkpt>
      <trkpt lat="44.41986" lon="5.46734">
        <ele>1087.6</ele>
        <time>2023-07-24T10:05:09Z</time>
      </trkpt>
      <trkpt lat="44.41981" lon="5.46731">
        <ele>1087.5</ele>
        <time>2023-07-24T10:05:10Z</time>
      </trkpt>
      <trkpt lat="44.41977" lon="5.46725">
        <ele>1087.6</ele>
        <time>2023-07-24T10:05:11Z</time>
      </trkpt>
      <trkpt lat="44.41974" lon="5.4672">
        <ele>1087.5</ele>
        <time>2023-07-24T10:05:12Z</time>
      </trkpt>
      <trkpt lat="44.4197" lon="5.46715">
        <ele>1087.4</ele>
        <time>2023-07-24T10:05:13Z</time>
      </trkpt>
      <trkpt lat="44.41966" lon="5.46711">
        <ele>1087.5</ele>
        <time>2023-07-24T10:05:14Z</time>
      </trkpt>
      <trkpt lat="44.41962" lon="5.46708">
        <ele>1087.6</ele>
        <time>2023-07-24T10:05:15Z</time>
      </trkpt>
      <trkpt lat="44.41958" lon="5.46703">
        <ele>1087.9</ele>
        <time>2023-07-24T10:05:16Z</time>
      </trkpt>
      <trkpt lat="44.41954" lon="5.467">
        <ele>1088.2</ele>
        <time>2023-07-24T10:05:17Z</time>
      </trkpt>
      <trkpt lat="44.41951" lon="5.46696">
        <ele>1088.4</ele>
        <time>2023-07-24T10:05:18Z</time>
      </trkpt>
      <trkpt lat="44.41949" lon="5.46693">
        <ele>1088.6</ele>
        <time>2023-07-24T10:05:19Z</time>
      </trkpt>
      <trkpt lat="44.41947" lon="5.46689">
        <ele>1088.8</ele>
        <time>2023-07-24T10:05:20Z</time>
      </trkpt>
      <trkpt lat="44.41945" lon="5.46684">
        <ele>1089</ele>
        <time>2023-07-24T10:05:21Z</time>
      </trkpt>
      <trkpt lat="44.41943" lon="5.4668">
        <ele>1089.1</ele>
        <time>2023-07-24T10:05:22Z</time>
      </trkpt>
      <trkpt lat="44.41941" lon="5.46677">
        <ele>1089.2</ele>
        <time>2023-07-24T10:05:23Z</time>
      </trkpt>
      <trkpt lat="44.41939" lon="5.46674">
        <ele>1089.4</ele>
        <time>2023-07-24T10:05:24Z</time>
      </trkpt>
      <trkpt lat="44.41938" lon="5.46673">
        <ele>1089.4</ele>
        <time>2023-07-24T10:05:25Z</time>
      </trkpt>
      <trkpt lat="44.41936" lon="5.46669">
        <ele>1089.6</ele>
        <time>2023-07-24T10:05:26Z</time>
      </trkpt>
      <trkpt lat="44.41936" lon="5.46667">
        <ele>1089.6</ele>
        <time>2023-07-24T10:05:27Z</time>
      </trkpt>
      <trkpt lat="44.41934" lon="5.46664">
        <ele>1089.7</ele>
        <time>2023-07-24T10:05:28Z</time>
      </trkpt>
      <trkpt lat="44.41932" lon="5.46659">
        <ele>1089.9</ele>
        <time>2023-07-24T10:05:29Z</time>
      </trkpt>
      <trkpt lat="44.41932" lon="5.46657">
        <ele>1089.9</ele>
        <time>2023-07-24T10:05:30Z</time>
      </trkpt>
      <trkpt lat="44.41931" lon="5.46654">
        <ele>1090</ele>
        <time>2023-07-24T10:05:31Z</time>
      </trkpt>
      <trkpt lat="44.41929" lon="5.4665">
        <ele>1090.1</ele>
        <time>2023-07-24T10:05:32Z</time>
      </trkpt>
      <trkpt lat="44.41927" lon="5.46647">
        <ele>1090.2</ele>
        <time>2023-07-24T10:05:33Z</time>
      </trkpt>
      <trkpt lat="44.41925" lon="5.46643">
        <ele>1090.3</ele>
        <time>2023-07-24T10:05:34Z</time>
      </trkpt>
      <trkpt lat="44.41922" lon="5.4664">
        <ele>1090.3</ele>
        <time>2023-07-24T10:05:35Z</time>
      </trkpt>
      <trkpt lat="44.4192" lon="5.46636">
        <ele>1090.4</ele>
        <time>2023-07-24T10:05:36Z</time>
      </trkpt>
      <trkpt lat="44.41917" lon="5.46632">
        <ele>1090.4</ele>
        <time>2023-07-24T10:05:37Z</time>
      </trkpt>
      <trkpt lat="44.41916" lon="5.46627">
        <ele>1090.5</ele>
        <time>2023-07-24T10:05:38Z</time>
      </trkpt>
      <trkpt lat="44.41914" lon="5.46623">
        <ele>1090.5</ele>
        <time>2023-07-24T10:05:39Z</time>
      </trkpt>
      <trkpt lat="44.41912" lon="5.46619">
        <ele>1090.6</ele>
        <time>2023-07-24T10:05:40Z</time>
      </trkpt>
      <trkpt lat="44.4191" lon="5.46614">
        <ele>1090.6</ele>
        <time>2023-07-24T10:05:41Z</time>
      </trkpt>
      <trkpt lat="44.41908" lon="5.4661">
        <ele>1090.7</ele>
        <time>2023-07-24T10:05:42Z</time>
      </trkpt>
      <trkpt lat="44.41906" lon="5.46605">
        <ele>1090.7</ele>
        <time>2023-07-24T10:05:43Z</time>
      </trkpt>
      <trkpt lat="44.41904" lon="5.46601">
        <ele>1090.8</ele>
        <time>2023-07-24T10:05:44Z</time>
      </trkpt>
      <trkpt lat="44.41902" lon="5.46597">
        <ele>1090.8</ele>
        <time>2023-07-24T10:05:45Z</time>
      </trkpt>
      <trkpt lat="44.419" lon="5.46593">
        <ele>1090.9</ele>
        <time>2023-07-24T10:05:46Z</time>
      </trkpt>
      <trkpt lat="44.41897" lon="5.46588">
        <ele>1090.9</ele>
        <time>2023-07-24T10:05:47Z</time>
      </trkpt>
      <trkpt lat="44.41895" lon="5.46584">
        <ele>1091</ele>
        <time>2023-07-24T10:05:48Z</time>
      </trkpt>
      <trkpt lat="44.41892" lon="5.46581">
        <ele>1091.1</ele>
        <time>2023-07-24T10:05:49Z</time>
      </trkpt>
      <trkpt lat="44.41889" lon="5.46578">
        <ele>1091.2</ele>
        <time>2023-07-24T10:05:50Z</time>
      </trkpt>
      <trkpt lat="44.41887" lon="5.46574">
        <ele>1091.3</ele>
        <time>2023-07-24T10:05:51Z</time>
      </trkpt>
      <trkpt lat="44.41883" lon="5.46571">
        <ele>1091.5</ele>
        <time>2023-07-24T10:05:52Z</time>
      </trkpt>
      <trkpt lat="44.41881" lon="5.46568">
        <ele>1091.6</ele>
        <time>2023-07-24T10:05:53Z</time>
      </trkpt>
      <trkpt lat="44.41878" lon="5.46565">
        <ele>1091.7</ele>
        <time>2023-07-24T10:05:54Z</time>
      </trkpt>
      <trkpt lat="44.41876" lon="5.46562">
        <ele>1091.8</ele>
        <time>2023-07-24T10:05:55Z</time>
      </trkpt>
      <trkpt lat="44.41873" lon="5.46558">
        <ele>1091.9</ele>
        <time>2023-07-24T10:05:56Z</time>
      </trkpt>
      <trkpt lat="44.41871" lon="5.46555">
        <ele>1092</ele>
        <time>2023-07-24T10:05:57Z</time>
      </trkpt>
      <trkpt lat="44.41868" lon="5.46551">
        <ele>1092.1</ele>
        <time>2023-07-24T10:05:58Z</time>
      </trkpt>
      <trkpt lat="44.41866" lon="5.46547">
        <ele>1092.1</ele>
        <time>2023-07-24T10:05:59Z</time>
      </trkpt>
      <trkpt lat="44.41864" lon="5.46543">
        <ele>1092.1</ele>
        <time>2023-07-24T10:06:00Z</time>
      </trkpt>
      <trkpt lat="44.41861" lon="5.46538">
        <ele>1092.1</ele>
        <time>2023-07-24T10:06:01Z</time>
      </trkpt>
      <trkpt lat="44.41859" lon="5.46533">
        <ele>1092</ele>
        <time>2023-07-24T10:06:02Z</time>
      </trkpt>
      <trkpt lat="44.41857" lon="5.46528">
        <ele>1092</ele>
        <time>2023-07-24T10:06:03Z</time>
      </trkpt>
      <trkpt lat="44.41854" lon="5.46522">
        <ele>1091.8</ele>
        <time>2023-07-24T10:06:04Z</time>
      </trkpt>
      <trkpt lat="44.4185" lon="5.46515">
        <ele>1091.7</ele>
        <time>2023-07-24T10:06:05Z</time>
      </trkpt>
      <trkpt lat="44.41847" lon="5.46509">
        <ele>1091.5</ele>
        <time>2023-07-24T10:06:06Z</time>
      </trkpt>
      <trkpt lat="44.41844" lon="5.46502">
        <ele>1091.5</ele>
        <time>2023-07-24T10:06:07Z</time>
      </trkpt>
      <trkpt lat="44.4184" lon="5.46497">
        <ele>1091.4</ele>
        <time>2023-07-24T10:06:08Z</time>
      </trkpt>
      <trkpt lat="44.41835" lon="5.46491">
        <ele>1091.5</ele>
        <time>2023-07-24T10:06:09Z</time>
      </trkpt>
      <trkpt lat="44.41831" lon="5.46485">
        <ele>1091.5</ele>
        <time>2023-07-24T10:06:10Z</time>
      </trkpt>
      <trkpt lat="44.41828" lon="5.46478">
        <ele>1091.6</ele>
        <time>2023-07-24T10:06:11Z</time>
      </trkpt>
      <trkpt lat="44.41824" lon="5.46473">
        <ele>1091.6</ele>
        <time>2023-07-24T10:06:12Z</time>
      </trkpt>
      <trkpt lat="44.41822" lon="5.46467">
        <ele>1091.6</ele>
        <time>2023-07-24T10:06:13Z</time>
      </trkpt>
      <trkpt lat="44.41819" lon="5.4646">
        <ele>1091.6</ele>
        <time>2023-07-24T10:06:14Z</time>
      </trkpt>
      <trkpt lat="44.41817" lon="5.46454">
        <ele>1091.6</ele>
        <time>2023-07-24T10:06:15Z</time>
      </trkpt>
      <trkpt lat="44.41814" lon="5.46447">
        <ele>1091.6</ele>
        <time>2023-07-24T10:06:16Z</time>
      </trkpt>
      <trkpt lat="44.41812" lon="5.46441">
        <ele>1091.6</ele>
        <time>2023-07-24T10:06:17Z</time>
      </trkpt>
      <trkpt lat="44.4181" lon="5.46435">
        <ele>1091.6</ele>
        <time>2023-07-24T10:06:18Z</time>
      </trkpt>
      <trkpt lat="44.41808" lon="5.4643">
        <ele>1091.7</ele>
        <time>2023-07-24T10:06:19Z</time>
      </trkpt>
      <trkpt lat="44.41805" lon="5.46424">
        <ele>1091.7</ele>
        <time>2023-07-24T10:06:20Z</time>
      </trkpt>
      <trkpt lat="44.41803" lon="5.46419">
        <ele>1091.8</ele>
        <time>2023-07-24T10:06:21Z</time>
      </trkpt>
      <trkpt lat="44.41801" lon="5.46413">
        <ele>1091.8</ele>
        <time>2023-07-24T10:06:22Z</time>
      </trkpt>
      <trkpt lat="44.418" lon="5.46408">
        <ele>1091.9</ele>
        <time>2023-07-24T10:06:23Z</time>
      </trkpt>
      <trkpt lat="44.41798" lon="5.46402">
        <ele>1091.9</ele>
        <time>2023-07-24T10:06:24Z</time>
      </trkpt>
      <trkpt lat="44.41797" lon="5.46397">
        <ele>1091.9</ele>
        <time>2023-07-24T10:06:25Z</time>
      </trkpt>
      <trkpt lat="44.41795" lon="5.46391">
        <ele>1092</ele>
        <time>2023-07-24T10:06:26Z</time>
      </trkpt>
      <trkpt lat="44.41793" lon="5.46385">
        <ele>1092</ele>
        <time>2023-07-24T10:06:27Z</time>
      </trkpt>
      <trkpt lat="44.41789" lon="5.46377">
        <ele>1092.2</ele>
        <time>2023-07-24T10:06:28Z</time>
      </trkpt>
      <trkpt lat="44.41785" lon="5.46369">
        <ele>1092.3</ele>
        <time>2023-07-24T10:06:29Z</time>
      </trkpt>
      <trkpt lat="44.41782" lon="5.46363">
        <ele>1092.5</ele>
        <time>2023-07-24T10:06:30Z</time>
      </trkpt>
      <trkpt lat="44.41779" lon="5.46355">
        <ele>1092.6</ele>
        <time>2023-07-24T10:06:31Z</time>
      </trkpt>
      <trkpt lat="44.41777" lon="5.46348">
        <ele>1092.7</ele>
        <time>2023-07-24T10:06:32Z</time>
      </trkpt>
      <trkpt lat="44.41775" lon="5.46341">
        <ele>1092.9</ele>
        <time>2023-07-24T10:06:33Z</time>
      </trkpt>
      <trkpt lat="44.41772" lon="5.46334">
        <ele>1093.1</ele>
        <time>2023-07-24T10:06:34Z</time>
      </trkpt>
      <trkpt lat="44.4177" lon="5.4633">
        <ele>1093.2</ele>
        <time>2023-07-24T10:06:35Z</time>
      </trkpt>
      <trkpt lat="44.41768" lon="5.46324">
        <ele>1093.4</ele>
        <time>2023-07-24T10:06:36Z</time>
      </trkpt>
      <trkpt lat="44.41766" lon="5.46319">
        <ele>1093.6</ele>
        <time>2023-07-24T10:06:37Z</time>
      </trkpt>
      <trkpt lat="44.41764" lon="5.46314">
        <ele>1093.8</ele>
        <time>2023-07-24T10:06:38Z</time>
      </trkpt>
      <trkpt lat="44.41762" lon="5.46309">
        <ele>1094.1</ele>
        <time>2023-07-24T10:06:39Z</time>
      </trkpt>
      <trkpt lat="44.4176" lon="5.46304">
        <ele>1094.4</ele>
        <time>2023-07-24T10:06:40Z</time>
      </trkpt>
      <trkpt lat="44.41758" lon="5.46299">
        <ele>1094.7</ele>
        <time>2023-07-24T10:06:41Z</time>
      </trkpt>
      <trkpt lat="44.41757" lon="5.46294">
        <ele>1095</ele>
        <time>2023-07-24T10:06:42Z</time>
      </trkpt>
      <trkpt lat="44.41755" lon="5.46289">
        <ele>1095.4</ele>
        <time>2023-07-24T10:06:43Z</time>
      </trkpt>
      <trkpt lat="44.41753" lon="5.46284">
        <ele>1095.8</ele>
        <time>2023-07-24T10:06:44Z</time>
      </trkpt>
      <trkpt lat="44.41751" lon="5.46279">
        <ele>1096.2</ele>
        <time>2023-07-24T10:06:45Z</time>
      </trkpt>
      <trkpt lat="44.41749" lon="5.46274">
        <ele>1096.6</ele>
        <time>2023-07-24T10:06:46Z</time>
      </trkpt>
      <trkpt lat="44.41747" lon="5.4627">
        <ele>1097</ele>
        <time>2023-07-24T10:06:47Z</time>
      </trkpt>
      <trkpt lat="44.41746" lon="5.46265">
        <ele>1097.4</ele>
        <time>2023-07-24T10:06:48Z</time>
      </trkpt>
      <trkpt lat="44.41744" lon="5.46261">
        <ele>1097.8</ele>
        <time>2023-07-24T10:06:49Z</time>
      </trkpt>
      <trkpt lat="44.41743" lon="5.46257">
        <ele>1098.2</ele>
        <time>2023-07-24T10:06:50Z</time>
      </trkpt>
      <trkpt lat="44.41741" lon="5.46253">
        <ele>1098.6</ele>
        <time>2023-07-24T10:06:51Z</time>
      </trkpt>
      <trkpt lat="44.41739" lon="5.46249">
        <ele>1099.1</ele>
        <time>2023-07-24T10:06:52Z</time>
      </trkpt>
      <trkpt lat="44.41738" lon="5.46244">
        <ele>1099.5</ele>
        <time>2023-07-24T10:06:53Z</time>
      </trkpt>
      <trkpt lat="44.41736" lon="5.4624">
        <ele>1100</ele>
        <time>2023-07-24T10:06:54Z</time>
      </trkpt>
      <trkpt lat="44.41734" lon="5.46237">
        <ele>1100.3</ele>
        <time>2023-07-24T10:06:55Z</time>
      </trkpt>
      <trkpt lat="44.41732" lon="5.46232">
        <ele>1100.8</ele>
        <time>2023-07-24T10:06:56Z</time>
      </trkpt>
      <trkpt lat="44.41732" lon="5.4623">
        <ele>1101</ele>
        <time>2023-07-24T10:06:57Z</time>
      </trkpt>
      <trkpt lat="44.41731" lon="5.46226">
        <ele>1101.3</ele>
        <time>2023-07-24T10:06:58Z</time>
      </trkpt>
      <trkpt lat="44.41729" lon="5.46222">
        <ele>1101.7</ele>
        <time>2023-07-24T10:06:59Z</time>
      </trkpt>
      <trkpt lat="44.41728" lon="5.46218">
        <ele>1102</ele>
        <time>2023-07-24T10:07:00Z</time>
      </trkpt>
      <trkpt lat="44.41727" lon="5.46214">
        <ele>1102.3</ele>
        <time>2023-07-24T10:07:01Z</time>
      </trkpt>
      <trkpt lat="44.41725" lon="5.4621">
        <ele>1102.6</ele>
        <time>2023-07-24T10:07:02Z</time>
      </trkpt>
      <trkpt lat="44.41724" lon="5.46206">
        <ele>1102.9</ele>
        <time>2023-07-24T10:07:03Z</time>
      </trkpt>
      <trkpt lat="44.41723" lon="5.46203">
        <ele>1103.2</ele>
        <time>2023-07-24T10:07:04Z</time>
      </trkpt>
      <trkpt lat="44.41722" lon="5.46198">
        <ele>1103.6</ele>
        <time>2023-07-24T10:07:05Z</time>
      </trkpt>
      <trkpt lat="44.41721" lon="5.46196">
        <ele>1103.7</ele>
        <time>2023-07-24T10:07:06Z</time>
      </trkpt>
      <trkpt lat="44.41719" lon="5.46193">
        <ele>1104</ele>
        <time>2023-07-24T10:07:07Z</time>
      </trkpt>
      <trkpt lat="44.41717" lon="5.46189">
        <ele>1104.3</ele>
        <time>2023-07-24T10:07:08Z</time>
      </trkpt>
      <trkpt lat="44.41716" lon="5.46187">
        <ele>1104.5</ele>
        <time>2023-07-24T10:07:09Z</time>
      </trkpt>
      <trkpt lat="44.41714" lon="5.46183">
        <ele>1104.8</ele>
        <time>2023-07-24T10:07:10Z</time>
      </trkpt>
      <trkpt lat="44.41713" lon="5.46179">
        <ele>1105.1</ele>
        <time>2023-07-24T10:07:11Z</time>
      </trkpt>
      <trkpt lat="44.41711" lon="5.46175">
        <ele>1105.4</ele>
        <time>2023-07-24T10:07:12Z</time>
      </trkpt>
      <trkpt lat="44.4171" lon="5.46171">
        <ele>1105.6</ele>
        <time>2023-07-24T10:07:13Z</time>
      </trkpt>
      <trkpt lat="44.41709" lon="5.46167">
        <ele>1105.9</ele>
        <time>2023-07-24T10:07:14Z</time>
      </trkpt>
      <trkpt lat="44.41708" lon="5.46163">
        <ele>1106.1</ele>
        <time>2023-07-24T10:07:15Z</time>
      </trkpt>
      <trkpt lat="44.41707" lon="5.46159">
        <ele>1106.2</ele>
        <time>2023-07-24T10:07:16Z</time>
      </trkpt>
      <trkpt lat="44.41706" lon="5.46155">
        <ele>1106.4</ele>
        <time>2023-07-24T10:07:17Z</time>
      </trkpt>
      <trkpt lat="44.41705" lon="5.46152">
        <ele>1106.6</ele>
        <time>2023-07-24T10:07:18Z</time>
      </trkpt>
      <trkpt lat="44.41704" lon="5.46148">
        <ele>1106.7</ele>
        <time>2023-07-24T10:07:19Z</time>
      </trkpt>
      <trkpt lat="44.41702" lon="5.46144">
        <ele>1106.9</ele>
        <time>2023-07-24T10:07:20Z</time>
      </trkpt>
      <trkpt lat="44.41701" lon="5.4614">
        <ele>1107</ele>
        <time>2023-07-24T10:07:21Z</time>
      </trkpt>
      <trkpt lat="44.417" lon="5.46137">
        <ele>1107.2</ele>
        <time>2023-07-24T10:07:22Z</time>
      </trkpt>
      <trkpt lat="44.41698" lon="5.46132">
        <ele>1107.4</ele>
        <time>2023-07-24T10:07:23Z</time>
      </trkpt>
      <trkpt lat="44.41697" lon="5.46131">
        <ele>1107.5</ele>
        <time>2023-07-24T10:07:24Z</time>
      </trkpt>
      <trkpt lat="44.41696" lon="5.46126">
        <ele>1107.6</ele>
        <time>2023-07-24T10:07:25Z</time>
      </trkpt>
      <trkpt lat="44.41695" lon="5.46125">
        <ele>1107.7</ele>
        <time>2023-07-24T10:07:26Z</time>
      </trkpt>
      <trkpt lat="44.41693" lon="5.46122">
        <ele>1107.8</ele>
        <time>2023-07-24T10:07:27Z</time>
      </trkpt>
      <trkpt lat="44.41692" lon="5.4612">
        <ele>1107.8</ele>
        <time>2023-07-24T10:07:28Z</time>
      </trkpt>
      <trkpt lat="44.4169" lon="5.46117">
        <ele>1107.8</ele>
        <time>2023-07-24T10:07:29Z</time>
      </trkpt>
      <trkpt lat="44.41687" lon="5.46115">
        <ele>1107.8</ele>
        <time>2023-07-24T10:07:30Z</time>
      </trkpt>
      <trkpt lat="44.41685" lon="5.46113">
        <ele>1107.6</ele>
        <time>2023-07-24T10:07:31Z</time>
      </trkpt>
      <trkpt lat="44.41684" lon="5.46112">
        <ele>1107.6</ele>
        <time>2023-07-24T10:07:32Z</time>
      </trkpt>
      <trkpt lat="44.41681" lon="5.4611">
        <ele>1107.4</ele>
        <time>2023-07-24T10:07:33Z</time>
      </trkpt>
      <trkpt lat="44.41681" lon="5.4611">
        <ele>1107.3</ele>
        <time>2023-07-24T10:07:34Z</time>
      </trkpt>
      <trkpt lat="44.41678" lon="5.46108">
        <ele>1106.9</ele>
        <time>2023-07-24T10:07:35Z</time>
      </trkpt>
      <trkpt lat="44.41677" lon="5.46108">
        <ele>1106.8</ele>
        <time>2023-07-24T10:07:36Z</time>
      </trkpt>
      <trkpt lat="44.41675" lon="5.46107">
        <ele>1106.6</ele>
        <time>2023-07-24T10:07:37Z</time>
      </trkpt>
      <trkpt lat="44.41675" lon="5.46106">
        <ele>1106.5</ele>
        <time>2023-07-24T10:07:38Z</time>
      </trkpt>
      <trkpt lat="44.41674" lon="5.46105">
        <ele>1106.4</ele>
        <time>2023-07-24T10:07:39Z</time>
      </trkpt>
      <trkpt lat="44.41674" lon="5.46105">
        <ele>1106.3</ele>
        <time>2023-07-24T10:07:40Z</time>
      </trkpt>
      <trkpt lat="44.41674" lon="5.46104">
        <ele>1106.2</ele>
        <time>2023-07-24T10:07:41Z</time>
      </trkpt>
      <trkpt lat="44.41673" lon="5.46104">
        <ele>1106.2</ele>
        <time>2023-07-24T10:07:42Z</time>
      </trkpt>
      <trkpt lat="44.41674" lon="5.46104">
        <ele>1106.1</ele>
        <time>2023-07-24T10:07:43Z</time>
      </trkpt>
      <trkpt lat="44.41674" lon="5.46104">
        <ele>1106.1</ele>
        <time>2023-07-24T10:07:44Z</time>
      </trkpt>
      <trkpt lat="44.41674" lon="5.46104">
        <ele>1106.1</ele>
        <time>2023-07-24T10:07:45Z</time>
      </trkpt>
      <trkpt lat="44.41674" lon="5.46104">
        <ele>1106.1</ele>
        <time>2023-07-24T10:07:46Z</time>
      </trkpt>
      <trkpt lat="44.41674" lon="5.46104">
        <ele>1106.1</ele>
        <time>2023-07-24T10:07:47Z</time>
      </trkpt>
      <trkpt lat="44.41674" lon="5.46104">
        <ele>1106.1</ele>
        <time>2023-07-24T10:07:48Z</time>
      </trkpt>
      <trkpt lat="44.41674" lon="5.46104">
        <ele>1106.1</ele>
        <time>2023-07-24T10:07:49Z</time>
      </trkpt>
      <trkpt lat="44.41674" lon="5.46104">
        <ele>1106.1</ele>
        <time>2023-07-24T10:07:50Z</time>
      </trkpt>
      <trkpt lat="44.41674" lon="5.46104">
        <ele>1106.1</ele>
        <time>2023-07-24T10:07:51Z</time>
      </trkpt>
      <trkpt lat="44.41672" lon="5.46102">
        <ele>1105.8</ele>
        <time>2023-07-24T10:07:53Z</time>
      </trkpt>
      <trkpt lat="44.41671" lon="5.46102">
        <ele>1105.5</ele>
        <time>2023-07-24T10:07:54Z</time>
      </trkpt>
      <trkpt lat="44.41669" lon="5.46102">
        <ele>1105.2</ele>
        <time>2023-07-24T10:07:55Z</time>
      </trkpt>
      <trkpt lat="44.41665" lon="5.46104">
        <ele>1104.4</ele>
        <time>2023-07-24T10:07:56Z</time>
      </trkpt>
      <trkpt lat="44.41664" lon="5.46105">
        <ele>1104.2</ele>
        <time>2023-07-24T10:07:57Z</time>
      </trkpt>
      <trkpt lat="44.41662" lon="5.46108">
        <ele>1103.5</ele>
        <time>2023-07-24T10:07:58Z</time>
      </trkpt>
      <trkpt lat="44.41661" lon="5.46108">
        <ele>1103.2</ele>
        <time>2023-07-24T10:07:59Z</time>
      </trkpt>
      <trkpt lat="44.41657" lon="5.4611">
        <ele>1102.4</ele>
        <time>2023-07-24T10:08:00Z</time>
      </trkpt>
      <trkpt lat="44.41656" lon="5.46111">
        <ele>1102.2</ele>
        <time>2023-07-24T10:08:01Z</time>
      </trkpt>
      <trkpt lat="44.41653" lon="5.46112">
        <ele>1101.4</ele>
        <time>2023-07-24T10:08:02Z</time>
      </trkpt>
      <trkpt lat="44.41652" lon="5.46112">
        <ele>1101.2</ele>
        <time>2023-07-24T10:08:03Z</time>
      </trkpt>
      <trkpt lat="44.41649" lon="5.46112">
        <ele>1100.5</ele>
        <time>2023-07-24T10:08:04Z</time>
      </trkpt>
      <trkpt lat="44.41648" lon="5.46112">
        <ele>1100.3</ele>
        <time>2023-07-24T10:08:05Z</time>
      </trkpt>
      <trkpt lat="44.41645" lon="5.46112">
        <ele>1099.7</ele>
        <time>2023-07-24T10:08:06Z</time>
      </trkpt>
      <trkpt lat="44.41644" lon="5.46112">
        <ele>1099.5</ele>
        <time>2023-07-24T10:08:07Z</time>
      </trkpt>
      <trkpt lat="44.4164" lon="5.46113">
        <ele>1098.5</ele>
        <time>2023-07-24T10:08:08Z</time>
      </trkpt>
      <trkpt lat="44.41639" lon="5.46114">
        <ele>1098.2</ele>
        <time>2023-07-24T10:08:09Z</time>
      </trkpt>
      <trkpt lat="44.41636" lon="5.46115">
        <ele>1097.4</ele>
        <time>2023-07-24T10:08:10Z</time>
      </trkpt>
      <trkpt lat="44.41633" lon="5.46116">
        <ele>1096.7</ele>
        <time>2023-07-24T10:08:11Z</time>
      </trkpt>
      <trkpt lat="44.4163" lon="5.46117">
        <ele>1095.9</ele>
        <time>2023-07-24T10:08:12Z</time>
      </trkpt>
      <trkpt lat="44.41627" lon="5.46118">
        <ele>1095</ele>
        <time>2023-07-24T10:08:13Z</time>
      </trkpt>
      <trkpt lat="44.41624" lon="5.4612">
        <ele>1094.2</ele>
        <time>2023-07-24T10:08:14Z</time>
      </trkpt>
      <trkpt lat="44.41621" lon="5.46121">
        <ele>1093.5</ele>
        <time>2023-07-24T10:08:15Z</time>
      </trkpt>
      <trkpt lat="44.41618" lon="5.46122">
        <ele>1092.8</ele>
        <time>2023-07-24T10:08:16Z</time>
      </trkpt>
      <trkpt lat="44.41614" lon="5.46122">
        <ele>1091.9</ele>
        <time>2023-07-24T10:08:17Z</time>
      </trkpt>
      <trkpt lat="44.41613" lon="5.46122">
        <ele>1091.6</ele>
        <time>2023-07-24T10:08:18Z</time>
      </trkpt>
      <trkpt lat="44.4161" lon="5.46122">
        <ele>1090.8</ele>
        <time>2023-07-24T10:08:19Z</time>
      </trkpt>
      <trkpt lat="44.41609" lon="5.46122">
        <ele>1090.6</ele>
        <time>2023-07-24T10:08:20Z</time>
      </trkpt>
      <trkpt lat="44.41605" lon="5.46125">
        <ele>1089.6</ele>
        <time>2023-07-24T10:08:21Z</time>
      </trkpt>
      <trkpt lat="44.41604" lon="5.46126">
        <ele>1089.3</ele>
        <time>2023-07-24T10:08:22Z</time>
      </trkpt>
      <trkpt lat="44.41601" lon="5.46129">
        <ele>1088.4</ele>
        <time>2023-07-24T10:08:23Z</time>
      </trkpt>
      <trkpt lat="44.416" lon="5.46129">
        <ele>1088.1</ele>
        <time>2023-07-24T10:08:24Z</time>
      </trkpt>
      <trkpt lat="44.41597" lon="5.4613">
        <ele>1087.4</ele>
        <time>2023-07-24T10:08:25Z</time>
      </trkpt>
      <trkpt lat="44.41593" lon="5.4613">
        <ele>1086.5</ele>
        <time>2023-07-24T10:08:26Z</time>
      </trkpt>
      <trkpt lat="44.41592" lon="5.4613">
        <ele>1086.2</ele>
        <time>2023-07-24T10:08:27Z</time>
      </trkpt>
      <trkpt lat="44.41589" lon="5.46128">
        <ele>1085.4</ele>
        <time>2023-07-24T10:08:28Z</time>
      </trkpt>
      <trkpt lat="44.41588" lon="5.46128">
        <ele>1085.1</ele>
        <time>2023-07-24T10:08:29Z</time>
      </trkpt>
      <trkpt lat="44.41585" lon="5.46124">
        <ele>1084.2</ele>
        <time>2023-07-24T10:08:30Z</time>
      </trkpt>
      <trkpt lat="44.41584" lon="5.46123">
        <ele>1084</ele>
        <time>2023-07-24T10:08:31Z</time>
      </trkpt>
      <trkpt lat="44.41582" lon="5.46121">
        <ele>1083.2</ele>
        <time>2023-07-24T10:08:32Z</time>
      </trkpt>
      <trkpt lat="44.4158" lon="5.46118">
        <ele>1082.4</ele>
        <time>2023-07-24T10:08:33Z</time>
      </trkpt>
      <trkpt lat="44.41577" lon="5.46116">
        <ele>1081.6</ele>
        <time>2023-07-24T10:08:34Z</time>
      </trkpt>
      <trkpt lat="44.41577" lon="5.46115">
        <ele>1081.3</ele>
        <time>2023-07-24T10:08:35Z</time>
      </trkpt>
      <trkpt lat="44.41574" lon="5.46112">
        <ele>1080.4</ele>
        <time>2023-07-24T10:08:36Z</time>
      </trkpt>
      <trkpt lat="44.41574" lon="5.46111">
        <ele>1080.2</ele>
        <time>2023-07-24T10:08:37Z</time>
      </trkpt>
      <trkpt lat="44.41572" lon="5.46109">
        <ele>1079.7</ele>
        <time>2023-07-24T10:08:38Z</time>
      </trkpt>
      <trkpt lat="44.41571" lon="5.46108">
        <ele>1079.3</ele>
        <time>2023-07-24T10:08:39Z</time>
      </trkpt>
      <trkpt lat="44.4157" lon="5.46108">
        <ele>1079.1</ele>
        <time>2023-07-24T10:08:40Z</time>
      </trkpt>
      <trkpt lat="44.4157" lon="5.46108">
        <ele>1079</ele>
        <time>2023-07-24T10:08:41Z</time>
      </trkpt>
      <trkpt lat="44.4157" lon="5.46108">
        <ele>1078.8</ele>
        <time>2023-07-24T10:08:42Z</time>
      </trkpt>
      <trkpt lat="44.41569" lon="5.46109">
        <ele>1078.6</ele>
        <time>2023-07-24T10:08:43Z</time>
      </trkpt>
      <trkpt lat="44.41568" lon="5.46111">
        <ele>1078.2</ele>
        <time>2023-07-24T10:08:44Z</time>
      </trkpt>
      <trkpt lat="44.41568" lon="5.46113">
        <ele>1077.8</ele>
        <time>2023-07-24T10:08:45Z</time>
      </trkpt>
      <trkpt lat="44.41568" lon="5.46114">
        <ele>1077.5</ele>
        <time>2023-07-24T10:08:46Z</time>
      </trkpt>
      <trkpt lat="44.41567" lon="5.46115">
        <ele>1077.1</ele>
        <time>2023-07-24T10:08:47Z</time>
      </trkpt>
      <trkpt lat="44.41564" lon="5.46118">
        <ele>1076.3</ele>
        <time>2023-07-24T10:08:48Z</time>
      </trkpt>
      <trkpt lat="44.41563" lon="5.46119">
        <ele>1075.9</ele>
        <time>2023-07-24T10:08:49Z</time>
      </trkpt>
      <trkpt lat="44.4156" lon="5.46122">
        <ele>1074.9</ele>
        <time>2023-07-24T10:08:50Z</time>
      </trkpt>
      <trkpt lat="44.41559" lon="5.46123">
        <ele>1074.5</ele>
        <time>2023-07-24T10:08:51Z</time>
      </trkpt>
      <trkpt lat="44.41556" lon="5.46126">
        <ele>1073.4</ele>
        <time>2023-07-24T10:08:52Z</time>
      </trkpt>
      <trkpt lat="44.41555" lon="5.46127">
        <ele>1073</ele>
        <time>2023-07-24T10:08:53Z</time>
      </trkpt>
      <trkpt lat="44.41553" lon="5.46131">
        <ele>1071.9</ele>
        <time>2023-07-24T10:08:54Z</time>
      </trkpt>
      <trkpt lat="44.41552" lon="5.46133">
        <ele>1071.6</ele>
        <time>2023-07-24T10:08:55Z</time>
      </trkpt>
      <trkpt lat="44.41548" lon="5.46135">
        <ele>1070.3</ele>
        <time>2023-07-24T10:08:56Z</time>
      </trkpt>
      <trkpt lat="44.41547" lon="5.46136">
        <ele>1069.9</ele>
        <time>2023-07-24T10:08:57Z</time>
      </trkpt>
      <trkpt lat="44.41544" lon="5.46139">
        <ele>1068.8</ele>
        <time>2023-07-24T10:08:58Z</time>
      </trkpt>
      <trkpt lat="44.4154" lon="5.46141">
        <ele>1067.6</ele>
        <time>2023-07-24T10:08:59Z</time>
      </trkpt>
      <trkpt lat="44.41537" lon="5.46143">
        <ele>1066.4</ele>
        <time>2023-07-24T10:09:00Z</time>
      </trkpt>
      <trkpt lat="44.41534" lon="5.46144">
        <ele>1065.3</ele>
        <time>2023-07-24T10:09:01Z</time>
      </trkpt>
      <trkpt lat="44.4153" lon="5.46146">
        <ele>1064.1</ele>
        <time>2023-07-24T10:09:02Z</time>
      </trkpt>
      <trkpt lat="44.41527" lon="5.46147">
        <ele>1062.9</ele>
        <time>2023-07-24T10:09:03Z</time>
      </trkpt>
      <trkpt lat="44.41524" lon="5.4615">
        <ele>1061.8</ele>
        <time>2023-07-24T10:09:04Z</time>
      </trkpt>
      <trkpt lat="44.41521" lon="5.46152">
        <ele>1060.6</ele>
        <time>2023-07-24T10:09:05Z</time>
      </trkpt>
      <trkpt lat="44.41519" lon="5.46154">
        <ele>1059.6</ele>
        <time>2023-07-24T10:09:06Z</time>
      </trkpt>
      <trkpt lat="44.41516" lon="5.46155">
        <ele>1058.7</ele>
        <time>2023-07-24T10:09:07Z</time>
      </trkpt>
      <trkpt lat="44.41512" lon="5.46156">
        <ele>1057.5</ele>
        <time>2023-07-24T10:09:08Z</time>
      </trkpt>
      <trkpt lat="44.41511" lon="5.46157">
        <ele>1057.1</ele>
        <time>2023-07-24T10:09:09Z</time>
      </trkpt>
      <trkpt lat="44.41508" lon="5.46159">
        <ele>1056.1</ele>
        <time>2023-07-24T10:09:10Z</time>
      </trkpt>
      <trkpt lat="44.41505" lon="5.46162">
        <ele>1055.2</ele>
        <time>2023-07-24T10:09:11Z</time>
      </trkpt>
      <trkpt lat="44.41502" lon="5.46164">
        <ele>1054.4</ele>
        <time>2023-07-24T10:09:12Z</time>
      </trkpt>
      <trkpt lat="44.415" lon="5.46165">
        <ele>1053.9</ele>
        <time>2023-07-24T10:09:13Z</time>
      </trkpt>
      <trkpt lat="44.41496" lon="5.46165">
        <ele>1052.8</ele>
        <time>2023-07-24T10:09:14Z</time>
      </trkpt>
      <trkpt lat="44.41495" lon="5.46165">
        <ele>1052.4</ele>
        <time>2023-07-24T10:09:15Z</time>
      </trkpt>
      <trkpt lat="44.41492" lon="5.46167">
        <ele>1051.6</ele>
        <time>2023-07-24T10:09:16Z</time>
      </trkpt>
      <trkpt lat="44.41489" lon="5.46169">
        <ele>1050.7</ele>
        <time>2023-07-24T10:09:17Z</time>
      </trkpt>
      <trkpt lat="44.41487" lon="5.46171">
        <ele>1049.9</ele>
        <time>2023-07-24T10:09:18Z</time>
      </trkpt>
      <trkpt lat="44.41484" lon="5.46173">
        <ele>1049.1</ele>
        <time>2023-07-24T10:09:19Z</time>
      </trkpt>
      <trkpt lat="44.41482" lon="5.46176">
        <ele>1048.3</ele>
        <time>2023-07-24T10:09:20Z</time>
      </trkpt>
      <trkpt lat="44.4148" lon="5.46179">
        <ele>1047.5</ele>
        <time>2023-07-24T10:09:21Z</time>
      </trkpt>
      <trkpt lat="44.41478" lon="5.46182">
        <ele>1046.8</ele>
        <time>2023-07-24T10:09:22Z</time>
      </trkpt>
      <trkpt lat="44.41476" lon="5.46185">
        <ele>1046</ele>
        <time>2023-07-24T10:09:23Z</time>
      </trkpt>
      <trkpt lat="44.41474" lon="5.46188">
        <ele>1045</ele>
        <time>2023-07-24T10:09:24Z</time>
      </trkpt>
      <trkpt lat="44.41472" lon="5.46191">
        <ele>1044.3</ele>
        <time>2023-07-24T10:09:25Z</time>
      </trkpt>
      <trkpt lat="44.41469" lon="5.46193">
        <ele>1043.6</ele>
        <time>2023-07-24T10:09:26Z</time>
      </trkpt>
      <trkpt lat="44.41467" lon="5.46195">
        <ele>1042.8</ele>
        <time>2023-07-24T10:09:27Z</time>
      </trkpt>
      <trkpt lat="44.41463" lon="5.46197">
        <ele>1041.7</ele>
        <time>2023-07-24T10:09:28Z</time>
      </trkpt>
      <trkpt lat="44.41461" lon="5.46198">
        <ele>1041.3</ele>
        <time>2023-07-24T10:09:29Z</time>
      </trkpt>
      <trkpt lat="44.41458" lon="5.46199">
        <ele>1040.5</ele>
        <time>2023-07-24T10:09:30Z</time>
      </trkpt>
      <trkpt lat="44.41454" lon="5.462">
        <ele>1039.5</ele>
        <time>2023-07-24T10:09:31Z</time>
      </trkpt>
      <trkpt lat="44.41453" lon="5.46201">
        <ele>1039.2</ele>
        <time>2023-07-24T10:09:32Z</time>
      </trkpt>
      <trkpt lat="44.41449" lon="5.46202">
        <ele>1038.3</ele>
        <time>2023-07-24T10:09:33Z</time>
      </trkpt>
      <trkpt lat="44.41447" lon="5.46202">
        <ele>1038</ele>
        <time>2023-07-24T10:09:34Z</time>
      </trkpt>
      <trkpt lat="44.41444" lon="5.46203">
        <ele>1037.3</ele>
        <time>2023-07-24T10:09:35Z</time>
      </trkpt>
      <trkpt lat="44.41441" lon="5.46204">
        <ele>1036.4</ele>
        <time>2023-07-24T10:09:36Z</time>
      </trkpt>
      <trkpt lat="44.41437" lon="5.46207">
        <ele>1035.6</ele>
        <time>2023-07-24T10:09:37Z</time>
      </trkpt>
      <trkpt lat="44.41434" lon="5.46209">
        <ele>1034.8</ele>
        <time>2023-07-24T10:09:38Z</time>
      </trkpt>
      <trkpt lat="44.41431" lon="5.46211">
        <ele>1034</ele>
        <time>2023-07-24T10:09:39Z</time>
      </trkpt>
      <trkpt lat="44.4143" lon="5.46211">
        <ele>1033.9</ele>
        <time>2023-07-24T10:09:40Z</time>
      </trkpt>
      <trkpt lat="44.41429" lon="5.46212">
        <ele>1033.6</ele>
        <time>2023-07-24T10:09:41Z</time>
      </trkpt>
      <trkpt lat="44.41427" lon="5.46212">
        <ele>1033.2</ele>
        <time>2023-07-24T10:09:42Z</time>
      </trkpt>
      <trkpt lat="44.41426" lon="5.46212">
        <ele>1032.9</ele>
        <time>2023-07-24T10:09:43Z</time>
      </trkpt>
      <trkpt lat="44.41425" lon="5.46212">
        <ele>1032.7</ele>
        <time>2023-07-24T10:09:44Z</time>
      </trkpt>
      <trkpt lat="44.41424" lon="5.46213">
        <ele>1032.6</ele>
        <time>2023-07-24T10:09:45Z</time>
      </trkpt>
      <trkpt lat="44.41424" lon="5.46213">
        <ele>1032.5</ele>
        <time>2023-07-24T10:09:46Z</time>
      </trkpt>
      <trkpt lat="44.41424" lon="5.46214">
        <ele>1032.3</ele>
        <time>2023-07-24T10:09:47Z</time>
      </trkpt>
      <trkpt lat="44.41424" lon="5.46215">
        <ele>1032.2</ele>
        <time>2023-07-24T10:09:48Z</time>
      </trkpt>
      <trkpt lat="44.41424" lon="5.46215">
        <ele>1032.2</ele>
        <time>2023-07-24T10:09:49Z</time>
      </trkpt>
      <trkpt lat="44.41424" lon="5.46215">
        <ele>1032.2</ele>
        <time>2023-07-24T10:09:50Z</time>
      </trkpt>
      <trkpt lat="44.41424" lon="5.46215">
        <ele>1032.2</ele>
        <time>2023-07-24T10:09:51Z</time>
      </trkpt>
      <trkpt lat="44.41424" lon="5.46215">
        <ele>1032.2</ele>
        <time>2023-07-24T10:09:52Z</time>
      </trkpt>
      <trkpt lat="44.41423" lon="5.46215">
        <ele>1032.1</ele>
        <time>2023-07-24T10:09:53Z</time>
      </trkpt>
      <trkpt lat="44.41422" lon="5.46215">
        <ele>1031.9</ele>
        <time>2023-07-24T10:09:55Z</time>
      </trkpt>
      <trkpt lat="44.41421" lon="5.46214">
        <ele>1031.7</ele>
        <time>2023-07-24T10:09:56Z</time>
      </trkpt>
      <trkpt lat="44.41419" lon="5.46214">
        <ele>1031.3</ele>
        <time>2023-07-24T10:09:57Z</time>
      </trkpt>
      <trkpt lat="44.41416" lon="5.46215">
        <ele>1030.7</ele>
        <time>2023-07-24T10:09:58Z</time>
      </trkpt>
      <trkpt lat="44.41413" lon="5.46216">
        <ele>1030.1</ele>
        <time>2023-07-24T10:09:59Z</time>
      </trkpt>
      <trkpt lat="44.41409" lon="5.46218">
        <ele>1029.5</ele>
        <time>2023-07-24T10:10:00Z</time>
      </trkpt>
      <trkpt lat="44.41405" lon="5.46218">
        <ele>1028.8</ele>
        <time>2023-07-24T10:10:01Z</time>
      </trkpt>
      <trkpt lat="44.41401" lon="5.46217">
        <ele>1028</ele>
        <time>2023-07-24T10:10:02Z</time>
      </trkpt>
      <trkpt lat="44.41396" lon="5.46213">
        <ele>1027.2</ele>
        <time>2023-07-24T10:10:03Z</time>
      </trkpt>
      <trkpt lat="44.41393" lon="5.4621">
        <ele>1026.5</ele>
        <time>2023-07-24T10:10:04Z</time>
      </trkpt>
      <trkpt lat="44.41389" lon="5.46207">
        <ele>1025.9</ele>
        <time>2023-07-24T10:10:05Z</time>
      </trkpt>
      <trkpt lat="44.41387" lon="5.46204">
        <ele>1025.4</ele>
        <time>2023-07-24T10:10:06Z</time>
      </trkpt>
      <trkpt lat="44.41384" lon="5.46202">
        <ele>1025</ele>
        <time>2023-07-24T10:10:07Z</time>
      </trkpt>
      <trkpt lat="44.41382" lon="5.46199">
        <ele>1024.5</ele>
        <time>2023-07-24T10:10:08Z</time>
      </trkpt>
      <trkpt lat="44.41379" lon="5.46197">
        <ele>1024.1</ele>
        <time>2023-07-24T10:10:09Z</time>
      </trkpt>
      <trkpt lat="44.41376" lon="5.46196">
        <ele>1023.6</ele>
        <time>2023-07-24T10:10:10Z</time>
      </trkpt>
      <trkpt lat="44.41373" lon="5.46195">
        <ele>1023.2</ele>
        <time>2023-07-24T10:10:11Z</time>
      </trkpt>
      <trkpt lat="44.41368" lon="5.46193">
        <ele>1022.6</ele>
        <time>2023-07-24T10:10:12Z</time>
      </trkpt>
      <trkpt lat="44.41363" lon="5.46192">
        <ele>1022</ele>
        <time>2023-07-24T10:10:13Z</time>
      </trkpt>
      <trkpt lat="44.41358" lon="5.4619">
        <ele>1021.4</ele>
        <time>2023-07-24T10:10:14Z</time>
      </trkpt>
      <trkpt lat="44.41354" lon="5.46189">
        <ele>1020.8</ele>
        <time>2023-07-24T10:10:15Z</time>
      </trkpt>
      <trkpt lat="44.41351" lon="5.46189">
        <ele>1020.3</ele>
        <time>2023-07-24T10:10:16Z</time>
      </trkpt>
      <trkpt lat="44.41348" lon="5.46188">
        <ele>1019.9</ele>
        <time>2023-07-24T10:10:17Z</time>
      </trkpt>
      <trkpt lat="44.41345" lon="5.46188">
        <ele>1019.4</ele>
        <time>2023-07-24T10:10:18Z</time>
      </trkpt>
      <trkpt lat="44.41341" lon="5.46187">
        <ele>1018.8</ele>
        <time>2023-07-24T10:10:19Z</time>
      </trkpt>
      <trkpt lat="44.4134" lon="5.46187">
        <ele>1018.6</ele>
        <time>2023-07-24T10:10:20Z</time>
      </trkpt>
      <trkpt lat="44.41337" lon="5.46185">
        <ele>1018</ele>
        <time>2023-07-24T10:10:21Z</time>
      </trkpt>
      <trkpt lat="44.41336" lon="5.46185">
        <ele>1017.7</ele>
        <time>2023-07-24T10:10:22Z</time>
      </trkpt>
      <trkpt lat="44.41332" lon="5.46183">
        <ele>1016.9</ele>
        <time>2023-07-24T10:10:23Z</time>
      </trkpt>
      <trkpt lat="44.4133" lon="5.46182">
        <ele>1016.6</ele>
        <time>2023-07-24T10:10:24Z</time>
      </trkpt>
      <trkpt lat="44.41327" lon="5.4618">
        <ele>1015.8</ele>
        <time>2023-07-24T10:10:25Z</time>
      </trkpt>
      <trkpt lat="44.41323" lon="5.46178">
        <ele>1014.9</ele>
        <time>2023-07-24T10:10:26Z</time>
      </trkpt>
      <trkpt lat="44.4132" lon="5.46175">
        <ele>1014.2</ele>
        <time>2023-07-24T10:10:27Z</time>
      </trkpt>
      <trkpt lat="44.41317" lon="5.46172">
        <ele>1013.4</ele>
        <time>2023-07-24T10:10:28Z</time>
      </trkpt>
      <trkpt lat="44.41314" lon="5.4617">
        <ele>1012.7</ele>
        <time>2023-07-24T10:10:29Z</time>
      </trkpt>
      <trkpt lat="44.41312" lon="5.46169">
        <ele>1012.1</ele>
        <time>2023-07-24T10:10:30Z</time>
      </trkpt>
      <trkpt lat="44.41309" lon="5.46167">
        <ele>1011.5</ele>
        <time>2023-07-24T10:10:31Z</time>
      </trkpt>
      <trkpt lat="44.41306" lon="5.46165">
        <ele>1010.9</ele>
        <time>2023-07-24T10:10:32Z</time>
      </trkpt>
      <trkpt lat="44.41303" lon="5.46163">
        <ele>1010.2</ele>
        <time>2023-07-24T10:10:33Z</time>
      </trkpt>
      <trkpt lat="44.413" lon="5.46162">
        <ele>1009.4</ele>
        <time>2023-07-24T10:10:34Z</time>
      </trkpt>
      <trkpt lat="44.41296" lon="5.46161">
        <ele>1008.6</ele>
        <time>2023-07-24T10:10:35Z</time>
      </trkpt>
      <trkpt lat="44.41293" lon="5.4616">
        <ele>1007.9</ele>
        <time>2023-07-24T10:10:36Z</time>
      </trkpt>
      <trkpt lat="44.4129" lon="5.46159">
        <ele>1007.1</ele>
        <time>2023-07-24T10:10:37Z</time>
      </trkpt>
      <trkpt lat="44.41286" lon="5.46158">
        <ele>1006.3</ele>
        <time>2023-07-24T10:10:38Z</time>
      </trkpt>
      <trkpt lat="44.41283" lon="5.46158">
        <ele>1005.6</ele>
        <time>2023-07-24T10:10:39Z</time>
      </trkpt>
      <trkpt lat="44.41279" lon="5.46158">
        <ele>1004.7</ele>
        <time>2023-07-24T10:10:40Z</time>
      </trkpt>
      <trkpt lat="44.41275" lon="5.46158">
        <ele>1003.7</ele>
        <time>2023-07-24T10:10:41Z</time>
      </trkpt>
      <trkpt lat="44.4127" lon="5.46158">
        <ele>1002.7</ele>
        <time>2023-07-24T10:10:42Z</time>
      </trkpt>
      <trkpt lat="44.41264" lon="5.46159">
        <ele>1001.5</ele>
        <time>2023-07-24T10:10:43Z</time>
      </trkpt>
      <trkpt lat="44.41259" lon="5.46159">
        <ele>1000.4</ele>
        <time>2023-07-24T10:10:44Z</time>
      </trkpt>
      <trkpt lat="44.41254" lon="5.46159">
        <ele>999.5</ele>
        <time>2023-07-24T10:10:45Z</time>
      </trkpt>
      <trkpt lat="44.4125" lon="5.46159">
        <ele>998.7</ele>
        <time>2023-07-24T10:10:46Z</time>
      </trkpt>
      <trkpt lat="44.41246" lon="5.46159">
        <ele>997.9</ele>
        <time>2023-07-24T10:10:47Z</time>
      </trkpt>
      <trkpt lat="44.41241" lon="5.4616">
        <ele>997.2</ele>
        <time>2023-07-24T10:10:48Z</time>
      </trkpt>
      <trkpt lat="44.41237" lon="5.46161">
        <ele>996.4</ele>
        <time>2023-07-24T10:10:49Z</time>
      </trkpt>
      <trkpt lat="44.41232" lon="5.46162">
        <ele>995.6</ele>
        <time>2023-07-24T10:10:50Z</time>
      </trkpt>
      <trkpt lat="44.41228" lon="5.46163">
        <ele>994.9</ele>
        <time>2023-07-24T10:10:51Z</time>
      </trkpt>
      <trkpt lat="44.41224" lon="5.46163">
        <ele>994.2</ele>
        <time>2023-07-24T10:10:52Z</time>
      </trkpt>
      <trkpt lat="44.4122" lon="5.46163">
        <ele>993.5</ele>
        <time>2023-07-24T10:10:53Z</time>
      </trkpt>
      <trkpt lat="44.41216" lon="5.46163">
        <ele>992.8</ele>
        <time>2023-07-24T10:10:54Z</time>
      </trkpt>
      <trkpt lat="44.41212" lon="5.46164">
        <ele>992</ele>
        <time>2023-07-24T10:10:55Z</time>
      </trkpt>
      <trkpt lat="44.41208" lon="5.46165">
        <ele>991.2</ele>
        <time>2023-07-24T10:10:56Z</time>
      </trkpt>
      <trkpt lat="44.41204" lon="5.46167">
        <ele>990.5</ele>
        <time>2023-07-24T10:10:57Z</time>
      </trkpt>
      <trkpt lat="44.41201" lon="5.46169">
        <ele>989.8</ele>
        <time>2023-07-24T10:10:58Z</time>
      </trkpt>
      <trkpt lat="44.41197" lon="5.4617">
        <ele>989.1</ele>
        <time>2023-07-24T10:10:59Z</time>
      </trkpt>
      <trkpt lat="44.41193" lon="5.4617">
        <ele>988.3</ele>
        <time>2023-07-24T10:11:00Z</time>
      </trkpt>
      <trkpt lat="44.4119" lon="5.4617">
        <ele>987.5</ele>
        <time>2023-07-24T10:11:01Z</time>
      </trkpt>
      <trkpt lat="44.41187" lon="5.4617">
        <ele>986.8</ele>
        <time>2023-07-24T10:11:02Z</time>
      </trkpt>
      <trkpt lat="44.41184" lon="5.46169">
        <ele>986.2</ele>
        <time>2023-07-24T10:11:03Z</time>
      </trkpt>
      <trkpt lat="44.4118" lon="5.46168">
        <ele>985.4</ele>
        <time>2023-07-24T10:11:04Z</time>
      </trkpt>
      <trkpt lat="44.41179" lon="5.46168">
        <ele>985.2</ele>
        <time>2023-07-24T10:11:05Z</time>
      </trkpt>
      <trkpt lat="44.41176" lon="5.46168">
        <ele>984.6</ele>
        <time>2023-07-24T10:11:06Z</time>
      </trkpt>
      <trkpt lat="44.41172" lon="5.46168">
        <ele>983.8</ele>
        <time>2023-07-24T10:11:07Z</time>
      </trkpt>
      <trkpt lat="44.41168" lon="5.46169">
        <ele>983</ele>
        <time>2023-07-24T10:11:08Z</time>
      </trkpt>
      <trkpt lat="44.41163" lon="5.46169">
        <ele>981.8</ele>
        <time>2023-07-24T10:11:09Z</time>
      </trkpt>
      <trkpt lat="44.41157" lon="5.4617">
        <ele>980.5</ele>
        <time>2023-07-24T10:11:10Z</time>
      </trkpt>
      <trkpt lat="44.41152" lon="5.46171">
        <ele>979.3</ele>
        <time>2023-07-24T10:11:11Z</time>
      </trkpt>
      <trkpt lat="44.41148" lon="5.46172">
        <ele>978.3</ele>
        <time>2023-07-24T10:11:12Z</time>
      </trkpt>
      <trkpt lat="44.41143" lon="5.46173">
        <ele>977.3</ele>
        <time>2023-07-24T10:11:13Z</time>
      </trkpt>
      <trkpt lat="44.4114" lon="5.46173">
        <ele>976.5</ele>
        <time>2023-07-24T10:11:14Z</time>
      </trkpt>
      <trkpt lat="44.41137" lon="5.46174">
        <ele>975.8</ele>
        <time>2023-07-24T10:11:15Z</time>
      </trkpt>
      <trkpt lat="44.41133" lon="5.46174">
        <ele>975.1</ele>
        <time>2023-07-24T10:11:16Z</time>
      </trkpt>
      <trkpt lat="44.4113" lon="5.46175">
        <ele>974.4</ele>
        <time>2023-07-24T10:11:17Z</time>
      </trkpt>
      <trkpt lat="44.41126" lon="5.46176">
        <ele>973.5</ele>
        <time>2023-07-24T10:11:18Z</time>
      </trkpt>
      <trkpt lat="44.41122" lon="5.46176">
        <ele>972.8</ele>
        <time>2023-07-24T10:11:19Z</time>
      </trkpt>
      <trkpt lat="44.41119" lon="5.46177">
        <ele>972.1</ele>
        <time>2023-07-24T10:11:20Z</time>
      </trkpt>
      <trkpt lat="44.41116" lon="5.46178">
        <ele>971.5</ele>
        <time>2023-07-24T10:11:21Z</time>
      </trkpt>
      <trkpt lat="44.41113" lon="5.46178">
        <ele>970.9</ele>
        <time>2023-07-24T10:11:22Z</time>
      </trkpt>
      <trkpt lat="44.4111" lon="5.46179">
        <ele>970.2</ele>
        <time>2023-07-24T10:11:23Z</time>
      </trkpt>
      <trkpt lat="44.41107" lon="5.4618">
        <ele>969.5</ele>
        <time>2023-07-24T10:11:24Z</time>
      </trkpt>
      <trkpt lat="44.41103" lon="5.46179">
        <ele>968.7</ele>
        <time>2023-07-24T10:11:25Z</time>
      </trkpt>
      <trkpt lat="44.41101" lon="5.46179">
        <ele>968</ele>
        <time>2023-07-24T10:11:26Z</time>
      </trkpt>
      <trkpt lat="44.41097" lon="5.46179">
        <ele>967.3</ele>
        <time>2023-07-24T10:11:27Z</time>
      </trkpt>
      <trkpt lat="44.41094" lon="5.46179">
        <ele>966.6</ele>
        <time>2023-07-24T10:11:28Z</time>
      </trkpt>
      <trkpt lat="44.41091" lon="5.4618">
        <ele>966</ele>
        <time>2023-07-24T10:11:29Z</time>
      </trkpt>
      <trkpt lat="44.41087" lon="5.46181">
        <ele>965.2</ele>
        <time>2023-07-24T10:11:30Z</time>
      </trkpt>
      <trkpt lat="44.41083" lon="5.46182">
        <ele>964.5</ele>
        <time>2023-07-24T10:11:31Z</time>
      </trkpt>
      <trkpt lat="44.41079" lon="5.46183">
        <ele>963.9</ele>
        <time>2023-07-24T10:11:32Z</time>
      </trkpt>
      <trkpt lat="44.41076" lon="5.46184">
        <ele>963.3</ele>
        <time>2023-07-24T10:11:33Z</time>
      </trkpt>
      <trkpt lat="44.41072" lon="5.46184">
        <ele>962.8</ele>
        <time>2023-07-24T10:11:34Z</time>
      </trkpt>
      <trkpt lat="44.41069" lon="5.46185">
        <ele>962.3</ele>
        <time>2023-07-24T10:11:35Z</time>
      </trkpt>
      <trkpt lat="44.41065" lon="5.46186">
        <ele>961.7</ele>
        <time>2023-07-24T10:11:36Z</time>
      </trkpt>
      <trkpt lat="44.4106" lon="5.46188">
        <ele>961</ele>
        <time>2023-07-24T10:11:37Z</time>
      </trkpt>
      <trkpt lat="44.41055" lon="5.46189">
        <ele>960.3</ele>
        <time>2023-07-24T10:11:38Z</time>
      </trkpt>
      <trkpt lat="44.4105" lon="5.46191">
        <ele>959.6</ele>
        <time>2023-07-24T10:11:39Z</time>
      </trkpt>
      <trkpt lat="44.41045" lon="5.46193">
        <ele>958.9</ele>
        <time>2023-07-24T10:11:40Z</time>
      </trkpt>
      <trkpt lat="44.41041" lon="5.46195">
        <ele>958.4</ele>
        <time>2023-07-24T10:11:41Z</time>
      </trkpt>
      <trkpt lat="44.41036" lon="5.46198">
        <ele>957.7</ele>
        <time>2023-07-24T10:11:42Z</time>
      </trkpt>
      <trkpt lat="44.41031" lon="5.46199">
        <ele>957.2</ele>
        <time>2023-07-24T10:11:43Z</time>
      </trkpt>
      <trkpt lat="44.41027" lon="5.46201">
        <ele>956.8</ele>
        <time>2023-07-24T10:11:44Z</time>
      </trkpt>
      <trkpt lat="44.41023" lon="5.46203">
        <ele>956.4</ele>
        <time>2023-07-24T10:11:45Z</time>
      </trkpt>
      <trkpt lat="44.4102" lon="5.46205">
        <ele>956</ele>
        <time>2023-07-24T10:11:46Z</time>
      </trkpt>
      <trkpt lat="44.41018" lon="5.46209">
        <ele>955.6</ele>
        <time>2023-07-24T10:11:47Z</time>
      </trkpt>
      <trkpt lat="44.41015" lon="5.46213">
        <ele>955.1</ele>
        <time>2023-07-24T10:11:48Z</time>
      </trkpt>
      <trkpt lat="44.41013" lon="5.46217">
        <ele>954.7</ele>
        <time>2023-07-24T10:11:49Z</time>
      </trkpt>
      <trkpt lat="44.41011" lon="5.4622">
        <ele>954.3</ele>
        <time>2023-07-24T10:11:50Z</time>
      </trkpt>
      <trkpt lat="44.41008" lon="5.46224">
        <ele>953.8</ele>
        <time>2023-07-24T10:11:51Z</time>
      </trkpt>
      <trkpt lat="44.41006" lon="5.46228">
        <ele>953.4</ele>
        <time>2023-07-24T10:11:52Z</time>
      </trkpt>
      <trkpt lat="44.41004" lon="5.46233">
        <ele>953</ele>
        <time>2023-07-24T10:11:53Z</time>
      </trkpt>
      <trkpt lat="44.41003" lon="5.46237">
        <ele>952.6</ele>
        <time>2023-07-24T10:11:54Z</time>
      </trkpt>
      <trkpt lat="44.41002" lon="5.46242">
        <ele>952.2</ele>
        <time>2023-07-24T10:11:55Z</time>
      </trkpt>
      <trkpt lat="44.41003" lon="5.46248">
        <ele>951.7</ele>
        <time>2023-07-24T10:11:56Z</time>
      </trkpt>
      <trkpt lat="44.41004" lon="5.46253">
        <ele>951.2</ele>
        <time>2023-07-24T10:11:57Z</time>
      </trkpt>
      <trkpt lat="44.41005" lon="5.46258">
        <ele>950.6</ele>
        <time>2023-07-24T10:11:58Z</time>
      </trkpt>
      <trkpt lat="44.41006" lon="5.46262">
        <ele>950.1</ele>
        <time>2023-07-24T10:11:59Z</time>
      </trkpt>
      <trkpt lat="44.41006" lon="5.46266">
        <ele>949.6</ele>
        <time>2023-07-24T10:12:00Z</time>
      </trkpt>
      <trkpt lat="44.41007" lon="5.4627">
        <ele>949</ele>
        <time>2023-07-24T10:12:01Z</time>
      </trkpt>
      <trkpt lat="44.41007" lon="5.46272">
        <ele>948.8</ele>
        <time>2023-07-24T10:12:02Z</time>
      </trkpt>
      <trkpt lat="44.41008" lon="5.46276">
        <ele>948.1</ele>
        <time>2023-07-24T10:12:03Z</time>
      </trkpt>
      <trkpt lat="44.41007" lon="5.46278">
        <ele>947.9</ele>
        <time>2023-07-24T10:12:04Z</time>
      </trkpt>
      <trkpt lat="44.41008" lon="5.46283">
        <ele>947.1</ele>
        <time>2023-07-24T10:12:05Z</time>
      </trkpt>
      <trkpt lat="44.41008" lon="5.46284">
        <ele>946.9</ele>
        <time>2023-07-24T10:12:06Z</time>
      </trkpt>
      <trkpt lat="44.41009" lon="5.46289">
        <ele>946.1</ele>
        <time>2023-07-24T10:12:07Z</time>
      </trkpt>
      <trkpt lat="44.41009" lon="5.4629">
        <ele>945.8</ele>
        <time>2023-07-24T10:12:08Z</time>
      </trkpt>
      <trkpt lat="44.41011" lon="5.46295">
        <ele>945.1</ele>
        <time>2023-07-24T10:12:09Z</time>
      </trkpt>
      <trkpt lat="44.41011" lon="5.46296">
        <ele>944.8</ele>
        <time>2023-07-24T10:12:10Z</time>
      </trkpt>
      <trkpt lat="44.41012" lon="5.46301">
        <ele>944</ele>
        <time>2023-07-24T10:12:11Z</time>
      </trkpt>
      <trkpt lat="44.41012" lon="5.46303">
        <ele>943.7</ele>
        <time>2023-07-24T10:12:12Z</time>
      </trkpt>
      <trkpt lat="44.41013" lon="5.46308">
        <ele>942.8</ele>
        <time>2023-07-24T10:12:13Z</time>
      </trkpt>
      <trkpt lat="44.41013" lon="5.46309">
        <ele>942.5</ele>
        <time>2023-07-24T10:12:14Z</time>
      </trkpt>
      <trkpt lat="44.41014" lon="5.46313">
        <ele>941.9</ele>
        <time>2023-07-24T10:12:15Z</time>
      </trkpt>
      <trkpt lat="44.41015" lon="5.46318">
        <ele>941.2</ele>
        <time>2023-07-24T10:12:16Z</time>
      </trkpt>
      <trkpt lat="44.41016" lon="5.46322">
        <ele>940.4</ele>
        <time>2023-07-24T10:12:17Z</time>
      </trkpt>
      <trkpt lat="44.41018" lon="5.46326">
        <ele>939.8</ele>
        <time>2023-07-24T10:12:18Z</time>
      </trkpt>
      <trkpt lat="44.41019" lon="5.46329">
        <ele>939.4</ele>
        <time>2023-07-24T10:12:19Z</time>
      </trkpt>
      <trkpt lat="44.41018" lon="5.4633">
        <ele>939.2</ele>
        <time>2023-07-24T10:12:20Z</time>
      </trkpt>
      <trkpt lat="44.41018" lon="5.46332">
        <ele>938.9</ele>
        <time>2023-07-24T10:12:21Z</time>
      </trkpt>
      <trkpt lat="44.41016" lon="5.46334">
        <ele>938.6</ele>
        <time>2023-07-24T10:12:22Z</time>
      </trkpt>
      <trkpt lat="44.41014" lon="5.46338">
        <ele>937.8</ele>
        <time>2023-07-24T10:12:23Z</time>
      </trkpt>
      <trkpt lat="44.41013" lon="5.4634">
        <ele>937.6</ele>
        <time>2023-07-24T10:12:24Z</time>
      </trkpt>
      <trkpt lat="44.4101" lon="5.46342">
        <ele>937</ele>
        <time>2023-07-24T10:12:25Z</time>
      </trkpt>
      <trkpt lat="44.41008" lon="5.46345">
        <ele>936.5</ele>
        <time>2023-07-24T10:12:26Z</time>
      </trkpt>
      <trkpt lat="44.41006" lon="5.46348">
        <ele>936</ele>
        <time>2023-07-24T10:12:27Z</time>
      </trkpt>
      <trkpt lat="44.41004" lon="5.46351">
        <ele>935.5</ele>
        <time>2023-07-24T10:12:28Z</time>
      </trkpt>
      <trkpt lat="44.41002" lon="5.46354">
        <ele>935.1</ele>
        <time>2023-07-24T10:12:29Z</time>
      </trkpt>
      <trkpt lat="44.41" lon="5.46357">
        <ele>934.6</ele>
        <time>2023-07-24T10:12:30Z</time>
      </trkpt>
      <trkpt lat="44.40998" lon="5.4636">
        <ele>934.1</ele>
        <time>2023-07-24T10:12:31Z</time>
      </trkpt>
      <trkpt lat="44.40996" lon="5.46363">
        <ele>933.6</ele>
        <time>2023-07-24T10:12:32Z</time>
      </trkpt>
      <trkpt lat="44.40993" lon="5.46367">
        <ele>933.2</ele>
        <time>2023-07-24T10:12:33Z</time>
      </trkpt>
      <trkpt lat="44.4099" lon="5.46371">
        <ele>932.7</ele>
        <time>2023-07-24T10:12:34Z</time>
      </trkpt>
      <trkpt lat="44.40987" lon="5.46375">
        <ele>932.2</ele>
        <time>2023-07-24T10:12:35Z</time>
      </trkpt>
      <trkpt lat="44.40985" lon="5.46378">
        <ele>931.8</ele>
        <time>2023-07-24T10:12:36Z</time>
      </trkpt>
      <trkpt lat="44.40982" lon="5.46382">
        <ele>931.4</ele>
        <time>2023-07-24T10:12:37Z</time>
      </trkpt>
      <trkpt lat="44.40979" lon="5.46385">
        <ele>931</ele>
        <time>2023-07-24T10:12:38Z</time>
      </trkpt>
      <trkpt lat="44.40977" lon="5.46388">
        <ele>930.7</ele>
        <time>2023-07-24T10:12:39Z</time>
      </trkpt>
      <trkpt lat="44.40974" lon="5.46392">
        <ele>930.3</ele>
        <time>2023-07-24T10:12:40Z</time>
      </trkpt>
      <trkpt lat="44.40972" lon="5.46396">
        <ele>930</ele>
        <time>2023-07-24T10:12:41Z</time>
      </trkpt>
      <trkpt lat="44.40969" lon="5.464">
        <ele>929.7</ele>
        <time>2023-07-24T10:12:42Z</time>
      </trkpt>
      <trkpt lat="44.40966" lon="5.46404">
        <ele>929.3</ele>
        <time>2023-07-24T10:12:43Z</time>
      </trkpt>
      <trkpt lat="44.40964" lon="5.46408">
        <ele>929.1</ele>
        <time>2023-07-24T10:12:44Z</time>
      </trkpt>
      <trkpt lat="44.40963" lon="5.46413">
        <ele>928.8</ele>
        <time>2023-07-24T10:12:45Z</time>
      </trkpt>
      <trkpt lat="44.40961" lon="5.46418">
        <ele>928.5</ele>
        <time>2023-07-24T10:12:46Z</time>
      </trkpt>
      <trkpt lat="44.4096" lon="5.46423">
        <ele>928.2</ele>
        <time>2023-07-24T10:12:47Z</time>
      </trkpt>
      <trkpt lat="44.40959" lon="5.46429">
        <ele>927.9</ele>
        <time>2023-07-24T10:12:48Z</time>
      </trkpt>
      <trkpt lat="44.40958" lon="5.46435">
        <ele>927.7</ele>
        <time>2023-07-24T10:12:49Z</time>
      </trkpt>
      <trkpt lat="44.40956" lon="5.46439">
        <ele>927.5</ele>
        <time>2023-07-24T10:12:50Z</time>
      </trkpt>
      <trkpt lat="44.40955" lon="5.46443">
        <ele>927.3</ele>
        <time>2023-07-24T10:12:51Z</time>
      </trkpt>
      <trkpt lat="44.40954" lon="5.46449">
        <ele>927</ele>
        <time>2023-07-24T10:12:52Z</time>
      </trkpt>
      <trkpt lat="44.40953" lon="5.46455">
        <ele>926.8</ele>
        <time>2023-07-24T10:12:53Z</time>
      </trkpt>
      <trkpt lat="44.40952" lon="5.46463">
        <ele>926.4</ele>
        <time>2023-07-24T10:12:54Z</time>
      </trkpt>
      <trkpt lat="44.40952" lon="5.46473">
        <ele>926.1</ele>
        <time>2023-07-24T10:12:55Z</time>
      </trkpt>
      <trkpt lat="44.40951" lon="5.46483">
        <ele>925.6</ele>
        <time>2023-07-24T10:12:56Z</time>
      </trkpt>
      <trkpt lat="44.4095" lon="5.46491">
        <ele>925.2</ele>
        <time>2023-07-24T10:12:57Z</time>
      </trkpt>
      <trkpt lat="44.4095" lon="5.465">
        <ele>924.7</ele>
        <time>2023-07-24T10:12:58Z</time>
      </trkpt>
      <trkpt lat="44.4095" lon="5.46507">
        <ele>924.5</ele>
        <time>2023-07-24T10:12:59Z</time>
      </trkpt>
      <trkpt lat="44.40952" lon="5.46513">
        <ele>924.2</ele>
        <time>2023-07-24T10:13:00Z</time>
      </trkpt>
      <trkpt lat="44.40954" lon="5.4652">
        <ele>924.1</ele>
        <time>2023-07-24T10:13:01Z</time>
      </trkpt>
      <trkpt lat="44.40955" lon="5.46526">
        <ele>924</ele>
        <time>2023-07-24T10:13:02Z</time>
      </trkpt>
      <trkpt lat="44.40955" lon="5.46533">
        <ele>924</ele>
        <time>2023-07-24T10:13:03Z</time>
      </trkpt>
      <trkpt lat="44.40954" lon="5.46539">
        <ele>924.2</ele>
        <time>2023-07-24T10:13:04Z</time>
      </trkpt>
      <trkpt lat="44.40953" lon="5.46545">
        <ele>924.4</ele>
        <time>2023-07-24T10:13:05Z</time>
      </trkpt>
      <trkpt lat="44.40952" lon="5.4655">
        <ele>924.8</ele>
        <time>2023-07-24T10:13:06Z</time>
      </trkpt>
      <trkpt lat="44.4095" lon="5.46554">
        <ele>925.1</ele>
        <time>2023-07-24T10:13:07Z</time>
      </trkpt>
      <trkpt lat="44.40949" lon="5.46559">
        <ele>925.5</ele>
        <time>2023-07-24T10:13:08Z</time>
      </trkpt>
      <trkpt lat="44.40948" lon="5.46561">
        <ele>925.6</ele>
        <time>2023-07-24T10:13:09Z</time>
      </trkpt>
      <trkpt lat="44.40946" lon="5.46564">
        <ele>926</ele>
        <time>2023-07-24T10:13:10Z</time>
      </trkpt>
      <trkpt lat="44.40945" lon="5.46565">
        <ele>926.1</ele>
        <time>2023-07-24T10:13:11Z</time>
      </trkpt>
      <trkpt lat="44.40942" lon="5.46567">
        <ele>926.4</ele>
        <time>2023-07-24T10:13:12Z</time>
      </trkpt>
      <trkpt lat="44.40941" lon="5.46568">
        <ele>926.5</ele>
        <time>2023-07-24T10:13:13Z</time>
      </trkpt>
      <trkpt lat="44.40939" lon="5.4657">
        <ele>926.7</ele>
        <time>2023-07-24T10:13:14Z</time>
      </trkpt>
      <trkpt lat="44.40936" lon="5.46571">
        <ele>926.9</ele>
        <time>2023-07-24T10:13:15Z</time>
      </trkpt>
      <trkpt lat="44.40932" lon="5.46573">
        <ele>927.3</ele>
        <time>2023-07-24T10:13:16Z</time>
      </trkpt>
      <trkpt lat="44.40931" lon="5.46574">
        <ele>927.4</ele>
        <time>2023-07-24T10:13:17Z</time>
      </trkpt>
      <trkpt lat="44.40928" lon="5.46577">
        <ele>927.7</ele>
        <time>2023-07-24T10:13:18Z</time>
      </trkpt>
      <trkpt lat="44.40925" lon="5.46579">
        <ele>928.1</ele>
        <time>2023-07-24T10:13:19Z</time>
      </trkpt>
      <trkpt lat="44.40922" lon="5.46581">
        <ele>928.4</ele>
        <time>2023-07-24T10:13:20Z</time>
      </trkpt>
      <trkpt lat="44.40919" lon="5.46581">
        <ele>928.7</ele>
        <time>2023-07-24T10:13:21Z</time>
      </trkpt>
      <trkpt lat="44.40916" lon="5.46582">
        <ele>928.9</ele>
        <time>2023-07-24T10:13:22Z</time>
      </trkpt>
      <trkpt lat="44.40913" lon="5.46583">
        <ele>929.1</ele>
        <time>2023-07-24T10:13:23Z</time>
      </trkpt>
      <trkpt lat="44.4091" lon="5.46585">
        <ele>929.4</ele>
        <time>2023-07-24T10:13:24Z</time>
      </trkpt>
      <trkpt lat="44.40909" lon="5.46586">
        <ele>929.4</ele>
        <time>2023-07-24T10:13:25Z</time>
      </trkpt>
      <trkpt lat="44.40906" lon="5.46587">
        <ele>929.7</ele>
        <time>2023-07-24T10:13:26Z</time>
      </trkpt>
      <trkpt lat="44.40902" lon="5.46587">
        <ele>929.9</ele>
        <time>2023-07-24T10:13:27Z</time>
      </trkpt>
      <trkpt lat="44.40899" lon="5.46587">
        <ele>930.1</ele>
        <time>2023-07-24T10:13:28Z</time>
      </trkpt>
      <trkpt lat="44.40895" lon="5.46587">
        <ele>930.2</ele>
        <time>2023-07-24T10:13:29Z</time>
      </trkpt>
      <trkpt lat="44.40893" lon="5.46587">
        <ele>930.4</ele>
        <time>2023-07-24T10:13:30Z</time>
      </trkpt>
      <trkpt lat="44.4089" lon="5.46588">
        <ele>930.6</ele>
        <time>2023-07-24T10:13:31Z</time>
      </trkpt>
      <trkpt lat="44.40886" lon="5.46588">
        <ele>930.8</ele>
        <time>2023-07-24T10:13:32Z</time>
      </trkpt>
      <trkpt lat="44.40883" lon="5.46588">
        <ele>931</ele>
        <time>2023-07-24T10:13:33Z</time>
      </trkpt>
      <trkpt lat="44.4088" lon="5.46589">
        <ele>931.2</ele>
        <time>2023-07-24T10:13:34Z</time>
      </trkpt>
      <trkpt lat="44.40876" lon="5.4659">
        <ele>931.5</ele>
        <time>2023-07-24T10:13:35Z</time>
      </trkpt>
      <trkpt lat="44.40873" lon="5.4659">
        <ele>931.8</ele>
        <time>2023-07-24T10:13:36Z</time>
      </trkpt>
      <trkpt lat="44.4087" lon="5.46589">
        <ele>932.1</ele>
        <time>2023-07-24T10:13:37Z</time>
      </trkpt>
      <trkpt lat="44.40866" lon="5.46589">
        <ele>932.4</ele>
        <time>2023-07-24T10:13:38Z</time>
      </trkpt>
      <trkpt lat="44.40864" lon="5.46589">
        <ele>932.5</ele>
        <time>2023-07-24T10:13:39Z</time>
      </trkpt>
      <trkpt lat="44.40861" lon="5.46588">
        <ele>932.7</ele>
        <time>2023-07-24T10:13:40Z</time>
      </trkpt>
      <trkpt lat="44.40858" lon="5.46585">
        <ele>932.9</ele>
        <time>2023-07-24T10:13:41Z</time>
      </trkpt>
      <trkpt lat="44.40854" lon="5.46581">
        <ele>933.2</ele>
        <time>2023-07-24T10:13:42Z</time>
      </trkpt>
      <trkpt lat="44.4085" lon="5.46576">
        <ele>933.4</ele>
        <time>2023-07-24T10:13:43Z</time>
      </trkpt>
      <trkpt lat="44.40846" lon="5.46572">
        <ele>933.7</ele>
        <time>2023-07-24T10:13:44Z</time>
      </trkpt>
      <trkpt lat="44.40843" lon="5.4657">
        <ele>933.8</ele>
        <time>2023-07-24T10:13:45Z</time>
      </trkpt>
      <trkpt lat="44.4084" lon="5.46567">
        <ele>934</ele>
        <time>2023-07-24T10:13:46Z</time>
      </trkpt>
      <trkpt lat="44.40839" lon="5.46566">
        <ele>934.1</ele>
        <time>2023-07-24T10:13:47Z</time>
      </trkpt>
      <trkpt lat="44.40837" lon="5.46563">
        <ele>934.2</ele>
        <time>2023-07-24T10:13:48Z</time>
      </trkpt>
      <trkpt lat="44.40834" lon="5.46561">
        <ele>934.3</ele>
        <time>2023-07-24T10:13:49Z</time>
      </trkpt>
      <trkpt lat="44.40832" lon="5.46559">
        <ele>934.5</ele>
        <time>2023-07-24T10:13:50Z</time>
      </trkpt>
      <trkpt lat="44.40829" lon="5.46557">
        <ele>934.6</ele>
        <time>2023-07-24T10:13:51Z</time>
      </trkpt>
      <trkpt lat="44.40826" lon="5.46556">
        <ele>934.6</ele>
        <time>2023-07-24T10:13:52Z</time>
      </trkpt>
      <trkpt lat="44.40825" lon="5.46556">
        <ele>934.6</ele>
        <time>2023-07-24T10:13:53Z</time>
      </trkpt>
      <trkpt lat="44.40822" lon="5.46557">
        <ele>934.6</ele>
        <time>2023-07-24T10:13:54Z</time>
      </trkpt>
      <trkpt lat="44.40818" lon="5.4656">
        <ele>934.4</ele>
        <time>2023-07-24T10:13:55Z</time>
      </trkpt>
      <trkpt lat="44.40815" lon="5.46563">
        <ele>934.3</ele>
        <time>2023-07-24T10:13:56Z</time>
      </trkpt>
      <trkpt lat="44.40812" lon="5.46566">
        <ele>934.1</ele>
        <time>2023-07-24T10:13:57Z</time>
      </trkpt>
      <trkpt lat="44.40808" lon="5.46569">
        <ele>933.9</ele>
        <time>2023-07-24T10:13:58Z</time>
      </trkpt>
      <trkpt lat="44.40804" lon="5.46572">
        <ele>933.8</ele>
        <time>2023-07-24T10:13:59Z</time>
      </trkpt>
      <trkpt lat="44.40798" lon="5.46575">
        <ele>933.8</ele>
        <time>2023-07-24T10:14:00Z</time>
      </trkpt>
      <trkpt lat="44.40793" lon="5.46576">
        <ele>934</ele>
        <time>2023-07-24T10:14:01Z</time>
      </trkpt>
      <trkpt lat="44.4079" lon="5.46579">
        <ele>934.4</ele>
        <time>2023-07-24T10:14:02Z</time>
      </trkpt>
      <trkpt lat="44.40786" lon="5.46581">
        <ele>934.8</ele>
        <time>2023-07-24T10:14:03Z</time>
      </trkpt>
      <trkpt lat="44.40783" lon="5.46583">
        <ele>935.2</ele>
        <time>2023-07-24T10:14:04Z</time>
      </trkpt>
      <trkpt lat="44.4078" lon="5.46585">
        <ele>935.7</ele>
        <time>2023-07-24T10:14:05Z</time>
      </trkpt>
      <trkpt lat="44.40776" lon="5.46587">
        <ele>936.3</ele>
        <time>2023-07-24T10:14:06Z</time>
      </trkpt>
      <trkpt lat="44.40775" lon="5.46587">
        <ele>936.4</ele>
        <time>2023-07-24T10:14:07Z</time>
      </trkpt>
      <trkpt lat="44.40771" lon="5.46587">
        <ele>936.9</ele>
        <time>2023-07-24T10:14:08Z</time>
      </trkpt>
      <trkpt lat="44.4077" lon="5.46587">
        <ele>937.1</ele>
        <time>2023-07-24T10:14:09Z</time>
      </trkpt>
      <trkpt lat="44.40767" lon="5.46585">
        <ele>937.6</ele>
        <time>2023-07-24T10:14:10Z</time>
      </trkpt>
      <trkpt lat="44.40763" lon="5.46582">
        <ele>938.2</ele>
        <time>2023-07-24T10:14:11Z</time>
      </trkpt>
      <trkpt lat="44.40758" lon="5.46578">
        <ele>939</ele>
        <time>2023-07-24T10:14:12Z</time>
      </trkpt>
      <trkpt lat="44.40754" lon="5.46575">
        <ele>939.7</ele>
        <time>2023-07-24T10:14:13Z</time>
      </trkpt>
      <trkpt lat="44.4075" lon="5.46572">
        <ele>940.3</ele>
        <time>2023-07-24T10:14:14Z</time>
      </trkpt>
      <trkpt lat="44.40747" lon="5.46569">
        <ele>940.8</ele>
        <time>2023-07-24T10:14:15Z</time>
      </trkpt>
      <trkpt lat="44.40745" lon="5.46566">
        <ele>941.2</ele>
        <time>2023-07-24T10:14:16Z</time>
      </trkpt>
      <trkpt lat="44.40742" lon="5.46564">
        <ele>941.6</ele>
        <time>2023-07-24T10:14:17Z</time>
      </trkpt>
      <trkpt lat="44.4074" lon="5.46561">
        <ele>941.9</ele>
        <time>2023-07-24T10:14:18Z</time>
      </trkpt>
      <trkpt lat="44.40738" lon="5.46557">
        <ele>942.2</ele>
        <time>2023-07-24T10:14:19Z</time>
      </trkpt>
      <trkpt lat="44.40736" lon="5.46554">
        <ele>942.5</ele>
        <time>2023-07-24T10:14:20Z</time>
      </trkpt>
      <trkpt lat="44.40735" lon="5.4655">
        <ele>942.8</ele>
        <time>2023-07-24T10:14:21Z</time>
      </trkpt>
      <trkpt lat="44.40733" lon="5.46547">
        <ele>943</ele>
        <time>2023-07-24T10:14:22Z</time>
      </trkpt>
      <trkpt lat="44.40731" lon="5.46544">
        <ele>943.2</ele>
        <time>2023-07-24T10:14:23Z</time>
      </trkpt>
      <trkpt lat="44.40728" lon="5.46542">
        <ele>943.4</ele>
        <time>2023-07-24T10:14:24Z</time>
      </trkpt>
      <trkpt lat="44.40726" lon="5.46539">
        <ele>943.6</ele>
        <time>2023-07-24T10:14:25Z</time>
      </trkpt>
      <trkpt lat="44.40724" lon="5.46537">
        <ele>943.7</ele>
        <time>2023-07-24T10:14:26Z</time>
      </trkpt>
      <trkpt lat="44.40722" lon="5.46533">
        <ele>943.8</ele>
        <time>2023-07-24T10:14:27Z</time>
      </trkpt>
      <trkpt lat="44.40721" lon="5.46531">
        <ele>943.8</ele>
        <time>2023-07-24T10:14:28Z</time>
      </trkpt>
      <trkpt lat="44.40718" lon="5.46529">
        <ele>943.8</ele>
        <time>2023-07-24T10:14:29Z</time>
      </trkpt>
      <trkpt lat="44.40715" lon="5.46526">
        <ele>943.8</ele>
        <time>2023-07-24T10:14:30Z</time>
      </trkpt>
      <trkpt lat="44.40714" lon="5.46526">
        <ele>943.8</ele>
        <time>2023-07-24T10:14:31Z</time>
      </trkpt>
      <trkpt lat="44.40711" lon="5.46524">
        <ele>943.6</ele>
        <time>2023-07-24T10:14:32Z</time>
      </trkpt>
      <trkpt lat="44.40709" lon="5.46523">
        <ele>943.6</ele>
        <time>2023-07-24T10:14:33Z</time>
      </trkpt>
      <trkpt lat="44.40707" lon="5.46521">
        <ele>943.4</ele>
        <time>2023-07-24T10:14:34Z</time>
      </trkpt>
      <trkpt lat="44.40704" lon="5.46518">
        <ele>943.2</ele>
        <time>2023-07-24T10:14:35Z</time>
      </trkpt>
      <trkpt lat="44.40702" lon="5.46515">
        <ele>943</ele>
        <time>2023-07-24T10:14:36Z</time>
      </trkpt>
      <trkpt lat="44.407" lon="5.46511">
        <ele>942.7</ele>
        <time>2023-07-24T10:14:37Z</time>
      </trkpt>
      <trkpt lat="44.40698" lon="5.46509">
        <ele>942.4</ele>
        <time>2023-07-24T10:14:38Z</time>
      </trkpt>
      <trkpt lat="44.40695" lon="5.46507">
        <ele>942</ele>
        <time>2023-07-24T10:14:39Z</time>
      </trkpt>
      <trkpt lat="44.40693" lon="5.46505">
        <ele>941.6</ele>
        <time>2023-07-24T10:14:40Z</time>
      </trkpt>
      <trkpt lat="44.40689" lon="5.46504">
        <ele>941</ele>
        <time>2023-07-24T10:14:41Z</time>
      </trkpt>
      <trkpt lat="44.40688" lon="5.46504">
        <ele>940.8</ele>
        <time>2023-07-24T10:14:42Z</time>
      </trkpt>
      <trkpt lat="44.40685" lon="5.46504">
        <ele>940.3</ele>
        <time>2023-07-24T10:14:43Z</time>
      </trkpt>
      <trkpt lat="44.40682" lon="5.46505">
        <ele>939.7</ele>
        <time>2023-07-24T10:14:44Z</time>
      </trkpt>
      <trkpt lat="44.40678" lon="5.46505">
        <ele>939</ele>
        <time>2023-07-24T10:14:45Z</time>
      </trkpt>
      <trkpt lat="44.40677" lon="5.46505">
        <ele>938.9</ele>
        <time>2023-07-24T10:14:46Z</time>
      </trkpt>
      <trkpt lat="44.40676" lon="5.46505">
        <ele>938.6</ele>
        <time>2023-07-24T10:14:47Z</time>
      </trkpt>
      <trkpt lat="44.40675" lon="5.46504">
        <ele>938.5</ele>
        <time>2023-07-24T10:14:48Z</time>
      </trkpt>
      <trkpt lat="44.40674" lon="5.46504">
        <ele>938.3</ele>
        <time>2023-07-24T10:14:49Z</time>
      </trkpt>
      <trkpt lat="44.40674" lon="5.46504">
        <ele>938.2</ele>
        <time>2023-07-24T10:14:50Z</time>
      </trkpt>
      <trkpt lat="44.40673" lon="5.46504">
        <ele>938</ele>
        <time>2023-07-24T10:14:51Z</time>
      </trkpt>
      <trkpt lat="44.40673" lon="5.46504">
        <ele>938</ele>
        <time>2023-07-24T10:14:52Z</time>
      </trkpt>
      <trkpt lat="44.40673" lon="5.46504">
        <ele>938</ele>
        <time>2023-07-24T10:14:53Z</time>
      </trkpt>
      <trkpt lat="44.40673" lon="5.46504">
        <ele>937.9</ele>
        <time>2023-07-24T10:14:54Z</time>
      </trkpt>
      <trkpt lat="44.40673" lon="5.46504">
        <ele>937.9</ele>
        <time>2023-07-24T10:14:55Z</time>
      </trkpt>
      <trkpt lat="44.40673" lon="5.46504">
        <ele>937.9</ele>
        <time>2023-07-24T10:14:56Z</time>
      </trkpt>
      <trkpt lat="44.40673" lon="5.46504">
        <ele>937.9</ele>
        <time>2023-07-24T10:14:57Z</time>
      </trkpt>
      <trkpt lat="44.40673" lon="5.46504">
        <ele>937.9</ele>
        <time>2023-07-24T10:14:58Z</time>
      </trkpt>
      <trkpt lat="44.40673" lon="5.46504">
        <ele>937.9</ele>
        <time>2023-07-24T10:14:59Z</time>
      </trkpt>
      <trkpt lat="44.40673" lon="5.46504">
        <ele>937.9</ele>
        <time>2023-07-24T10:15:00Z</time>
      </trkpt>
      <trkpt lat="44.40673" lon="5.46504">
        <ele>937.9</ele>
        <time>2023-07-24T10:15:01Z</time>
      </trkpt>
      <trkpt lat="44.40673" lon="5.46504">
        <ele>937.9</ele>
        <time>2023-07-24T10:15:02Z</time>
      </trkpt>
      <trkpt lat="44.40669" lon="5.46504">
        <ele>937.2</ele>
        <time>2023-07-24T10:15:44Z</time>
      </trkpt>
      <trkpt lat="44.40667" lon="5.46504">
        <ele>936.9</ele>
        <time>2023-07-24T10:15:45Z</time>
      </trkpt>
      <trkpt lat="44.40664" lon="5.46504">
        <ele>936.3</ele>
        <time>2023-07-24T10:15:46Z</time>
      </trkpt>
      <trkpt lat="44.40662" lon="5.46503">
        <ele>936.1</ele>
        <time>2023-07-24T10:15:47Z</time>
      </trkpt>
      <trkpt lat="44.40659" lon="5.46503">
        <ele>935.6</ele>
        <time>2023-07-24T10:15:48Z</time>
      </trkpt>
      <trkpt lat="44.40656" lon="5.46502">
        <ele>935</ele>
        <time>2023-07-24T10:15:49Z</time>
      </trkpt>
      <trkpt lat="44.40652" lon="5.46502">
        <ele>934.4</ele>
        <time>2023-07-24T10:15:50Z</time>
      </trkpt>
      <trkpt lat="44.40648" lon="5.46502">
        <ele>933.7</ele>
        <time>2023-07-24T10:15:51Z</time>
      </trkpt>
      <trkpt lat="44.40643" lon="5.46503">
        <ele>932.9</ele>
        <time>2023-07-24T10:15:52Z</time>
      </trkpt>
      <trkpt lat="44.40638" lon="5.46504">
        <ele>932.1</ele>
        <time>2023-07-24T10:15:53Z</time>
      </trkpt>
      <trkpt lat="44.40633" lon="5.46505">
        <ele>931.3</ele>
        <time>2023-07-24T10:15:54Z</time>
      </trkpt>
      <trkpt lat="44.40629" lon="5.46506">
        <ele>930.6</ele>
        <time>2023-07-24T10:15:55Z</time>
      </trkpt>
      <trkpt lat="44.40624" lon="5.46507">
        <ele>929.8</ele>
        <time>2023-07-24T10:15:56Z</time>
      </trkpt>
      <trkpt lat="44.40619" lon="5.46507">
        <ele>929.1</ele>
        <time>2023-07-24T10:15:57Z</time>
      </trkpt>
      <trkpt lat="44.40615" lon="5.46506">
        <ele>928.5</ele>
        <time>2023-07-24T10:15:58Z</time>
      </trkpt>
      <trkpt lat="44.40611" lon="5.46504">
        <ele>927.9</ele>
        <time>2023-07-24T10:15:59Z</time>
      </trkpt>
      <trkpt lat="44.40607" lon="5.46502">
        <ele>927.4</ele>
        <time>2023-07-24T10:16:00Z</time>
      </trkpt>
      <trkpt lat="44.40604" lon="5.465">
        <ele>926.9</ele>
        <time>2023-07-24T10:16:01Z</time>
      </trkpt>
      <trkpt lat="44.40601" lon="5.46497">
        <ele>926.4</ele>
        <time>2023-07-24T10:16:02Z</time>
      </trkpt>
      <trkpt lat="44.40597" lon="5.46495">
        <ele>925.9</ele>
        <time>2023-07-24T10:16:03Z</time>
      </trkpt>
      <trkpt lat="44.40592" lon="5.46493">
        <ele>925.3</ele>
        <time>2023-07-24T10:16:04Z</time>
      </trkpt>
      <trkpt lat="44.40588" lon="5.46491">
        <ele>924.6</ele>
        <time>2023-07-24T10:16:05Z</time>
      </trkpt>
      <trkpt lat="44.40583" lon="5.46489">
        <ele>924</ele>
        <time>2023-07-24T10:16:06Z</time>
      </trkpt>
      <trkpt lat="44.40579" lon="5.46486">
        <ele>923.3</ele>
        <time>2023-07-24T10:16:07Z</time>
      </trkpt>
      <trkpt lat="44.40574" lon="5.46482">
        <ele>922.6</ele>
        <time>2023-07-24T10:16:08Z</time>
      </trkpt>
      <trkpt lat="44.4057" lon="5.46478">
        <ele>921.8</ele>
        <time>2023-07-24T10:16:09Z</time>
      </trkpt>
      <trkpt lat="44.40565" lon="5.46474">
        <ele>920.8</ele>
        <time>2023-07-24T10:16:10Z</time>
      </trkpt>
      <trkpt lat="44.40559" lon="5.46468">
        <ele>919.7</ele>
        <time>2023-07-24T10:16:11Z</time>
      </trkpt>
      <trkpt lat="44.40553" lon="5.46463">
        <ele>918.5</ele>
        <time>2023-07-24T10:16:12Z</time>
      </trkpt>
      <trkpt lat="44.40548" lon="5.46458">
        <ele>917.6</ele>
        <time>2023-07-24T10:16:13Z</time>
      </trkpt>
      <trkpt lat="44.40544" lon="5.46455">
        <ele>917</ele>
        <time>2023-07-24T10:16:14Z</time>
      </trkpt>
      <trkpt lat="44.4054" lon="5.46452">
        <ele>916.5</ele>
        <time>2023-07-24T10:16:15Z</time>
      </trkpt>
      <trkpt lat="44.40537" lon="5.46449">
        <ele>915.8</ele>
        <time>2023-07-24T10:16:16Z</time>
      </trkpt>
      <trkpt lat="44.40533" lon="5.46445">
        <ele>915.1</ele>
        <time>2023-07-24T10:16:17Z</time>
      </trkpt>
      <trkpt lat="44.40529" lon="5.46441">
        <ele>914.4</ele>
        <time>2023-07-24T10:16:18Z</time>
      </trkpt>
      <trkpt lat="44.40523" lon="5.46434">
        <ele>913.2</ele>
        <time>2023-07-24T10:16:19Z</time>
      </trkpt>
      <trkpt lat="44.40516" lon="5.46426">
        <ele>911.7</ele>
        <time>2023-07-24T10:16:20Z</time>
      </trkpt>
      <trkpt lat="44.40511" lon="5.46418">
        <ele>910.5</ele>
        <time>2023-07-24T10:16:21Z</time>
      </trkpt>
      <trkpt lat="44.40505" lon="5.46412">
        <ele>909.4</ele>
        <time>2023-07-24T10:16:22Z</time>
      </trkpt>
      <trkpt lat="44.40501" lon="5.46407">
        <ele>908.4</ele>
        <time>2023-07-24T10:16:23Z</time>
      </trkpt>
      <trkpt lat="44.40496" lon="5.46401">
        <ele>907.5</ele>
        <time>2023-07-24T10:16:24Z</time>
      </trkpt>
      <trkpt lat="44.40492" lon="5.46395">
        <ele>906.5</ele>
        <time>2023-07-24T10:16:25Z</time>
      </trkpt>
      <trkpt lat="44.40489" lon="5.46388">
        <ele>905.5</ele>
        <time>2023-07-24T10:16:26Z</time>
      </trkpt>
      <trkpt lat="44.40484" lon="5.46382">
        <ele>904.6</ele>
        <time>2023-07-24T10:16:27Z</time>
      </trkpt>
      <trkpt lat="44.4048" lon="5.46377">
        <ele>903.7</ele>
        <time>2023-07-24T10:16:28Z</time>
      </trkpt>
      <trkpt lat="44.40476" lon="5.46373">
        <ele>902.9</ele>
        <time>2023-07-24T10:16:29Z</time>
      </trkpt>
      <trkpt lat="44.40473" lon="5.46369">
        <ele>902.1</ele>
        <time>2023-07-24T10:16:30Z</time>
      </trkpt>
      <trkpt lat="44.4047" lon="5.46366">
        <ele>901.5</ele>
        <time>2023-07-24T10:16:31Z</time>
      </trkpt>
      <trkpt lat="44.40467" lon="5.46363">
        <ele>900.7</ele>
        <time>2023-07-24T10:16:32Z</time>
      </trkpt>
      <trkpt lat="44.40463" lon="5.46359">
        <ele>899.9</ele>
        <time>2023-07-24T10:16:33Z</time>
      </trkpt>
      <trkpt lat="44.4046" lon="5.46355">
        <ele>899</ele>
        <time>2023-07-24T10:16:34Z</time>
      </trkpt>
      <trkpt lat="44.40456" lon="5.46351">
        <ele>898.1</ele>
        <time>2023-07-24T10:16:35Z</time>
      </trkpt>
      <trkpt lat="44.40452" lon="5.46347">
        <ele>897.2</ele>
        <time>2023-07-24T10:16:36Z</time>
      </trkpt>
      <trkpt lat="44.40448" lon="5.46342">
        <ele>896.3</ele>
        <time>2023-07-24T10:16:37Z</time>
      </trkpt>
      <trkpt lat="44.40444" lon="5.46337">
        <ele>895.5</ele>
        <time>2023-07-24T10:16:38Z</time>
      </trkpt>
      <trkpt lat="44.4044" lon="5.46332">
        <ele>894.7</ele>
        <time>2023-07-24T10:16:39Z</time>
      </trkpt>
      <trkpt lat="44.40436" lon="5.46328">
        <ele>893.9</ele>
        <time>2023-07-24T10:16:40Z</time>
      </trkpt>
      <trkpt lat="44.40431" lon="5.46325">
        <ele>893.3</ele>
        <time>2023-07-24T10:16:41Z</time>
      </trkpt>
      <trkpt lat="44.40427" lon="5.46322">
        <ele>892.7</ele>
        <time>2023-07-24T10:16:42Z</time>
      </trkpt>
      <trkpt lat="44.40422" lon="5.46321">
        <ele>892</ele>
        <time>2023-07-24T10:16:43Z</time>
      </trkpt>
      <trkpt lat="44.40418" lon="5.46321">
        <ele>891.5</ele>
        <time>2023-07-24T10:16:44Z</time>
      </trkpt>
      <trkpt lat="44.40414" lon="5.46322">
        <ele>891</ele>
        <time>2023-07-24T10:16:45Z</time>
      </trkpt>
      <trkpt lat="44.4041" lon="5.46324">
        <ele>890.4</ele>
        <time>2023-07-24T10:16:46Z</time>
      </trkpt>
      <trkpt lat="44.40407" lon="5.46327">
        <ele>889.8</ele>
        <time>2023-07-24T10:16:47Z</time>
      </trkpt>
      <trkpt lat="44.40403" lon="5.4633">
        <ele>889.2</ele>
        <time>2023-07-24T10:16:48Z</time>
      </trkpt>
      <trkpt lat="44.40399" lon="5.46333">
        <ele>888.6</ele>
        <time>2023-07-24T10:16:49Z</time>
      </trkpt>
      <trkpt lat="44.40396" lon="5.46338">
        <ele>888</ele>
        <time>2023-07-24T10:16:50Z</time>
      </trkpt>
      <trkpt lat="44.40394" lon="5.46343">
        <ele>887.6</ele>
        <time>2023-07-24T10:16:51Z</time>
      </trkpt>
      <trkpt lat="44.40392" lon="5.46348">
        <ele>887.1</ele>
        <time>2023-07-24T10:16:52Z</time>
      </trkpt>
      <trkpt lat="44.40392" lon="5.46355">
        <ele>886.7</ele>
        <time>2023-07-24T10:16:53Z</time>
      </trkpt>
      <trkpt lat="44.40393" lon="5.46361">
        <ele>886.4</ele>
        <time>2023-07-24T10:16:54Z</time>
      </trkpt>
      <trkpt lat="44.40394" lon="5.46368">
        <ele>886</ele>
        <time>2023-07-24T10:16:55Z</time>
      </trkpt>
      <trkpt lat="44.40395" lon="5.46373">
        <ele>885.6</ele>
        <time>2023-07-24T10:16:56Z</time>
      </trkpt>
      <trkpt lat="44.40397" lon="5.46378">
        <ele>885.3</ele>
        <time>2023-07-24T10:16:57Z</time>
      </trkpt>
      <trkpt lat="44.40399" lon="5.46382">
        <ele>885</ele>
        <time>2023-07-24T10:16:58Z</time>
      </trkpt>
      <trkpt lat="44.404" lon="5.46386">
        <ele>884.7</ele>
        <time>2023-07-24T10:16:59Z</time>
      </trkpt>
      <trkpt lat="44.40402" lon="5.46391">
        <ele>884.3</ele>
        <time>2023-07-24T10:17:00Z</time>
      </trkpt>
      <trkpt lat="44.40404" lon="5.46395">
        <ele>883.9</ele>
        <time>2023-07-24T10:17:01Z</time>
      </trkpt>
      <trkpt lat="44.40407" lon="5.46399">
        <ele>883.4</ele>
        <time>2023-07-24T10:17:02Z</time>
      </trkpt>
      <trkpt lat="44.40409" lon="5.46404">
        <ele>882.9</ele>
        <time>2023-07-24T10:17:03Z</time>
      </trkpt>
      <trkpt lat="44.40412" lon="5.46409">
        <ele>882.3</ele>
        <time>2023-07-24T10:17:04Z</time>
      </trkpt>
      <trkpt lat="44.40414" lon="5.46414">
        <ele>881.8</ele>
        <time>2023-07-24T10:17:05Z</time>
      </trkpt>
      <trkpt lat="44.40415" lon="5.46419">
        <ele>881.4</ele>
        <time>2023-07-24T10:17:06Z</time>
      </trkpt>
      <trkpt lat="44.40415" lon="5.46426">
        <ele>880.9</ele>
        <time>2023-07-24T10:17:07Z</time>
      </trkpt>
      <trkpt lat="44.40417" lon="5.46434">
        <ele>880.5</ele>
        <time>2023-07-24T10:17:08Z</time>
      </trkpt>
      <trkpt lat="44.40419" lon="5.46445">
        <ele>880</ele>
        <time>2023-07-24T10:17:09Z</time>
      </trkpt>
      <trkpt lat="44.4042" lon="5.46456">
        <ele>879.5</ele>
        <time>2023-07-24T10:17:10Z</time>
      </trkpt>
      <trkpt lat="44.40421" lon="5.46466">
        <ele>879.1</ele>
        <time>2023-07-24T10:17:11Z</time>
      </trkpt>
      <trkpt lat="44.4042" lon="5.46473">
        <ele>878.8</ele>
        <time>2023-07-24T10:17:12Z</time>
      </trkpt>
      <trkpt lat="44.40418" lon="5.4648">
        <ele>878.5</ele>
        <time>2023-07-24T10:17:13Z</time>
      </trkpt>
      <trkpt lat="44.40415" lon="5.46486">
        <ele>878.1</ele>
        <time>2023-07-24T10:17:14Z</time>
      </trkpt>
      <trkpt lat="44.40413" lon="5.46491">
        <ele>877.7</ele>
        <time>2023-07-24T10:17:15Z</time>
      </trkpt>
      <trkpt lat="44.4041" lon="5.46497">
        <ele>877.2</ele>
        <time>2023-07-24T10:17:16Z</time>
      </trkpt>
      <trkpt lat="44.40407" lon="5.46503">
        <ele>876.6</ele>
        <time>2023-07-24T10:17:17Z</time>
      </trkpt>
      <trkpt lat="44.40405" lon="5.46509">
        <ele>876.1</ele>
        <time>2023-07-24T10:17:18Z</time>
      </trkpt>
      <trkpt lat="44.40401" lon="5.46515">
        <ele>875.6</ele>
        <time>2023-07-24T10:17:19Z</time>
      </trkpt>
      <trkpt lat="44.40398" lon="5.46522">
        <ele>875.1</ele>
        <time>2023-07-24T10:17:20Z</time>
      </trkpt>
      <trkpt lat="44.40395" lon="5.46527">
        <ele>874.6</ele>
        <time>2023-07-24T10:17:21Z</time>
      </trkpt>
      <trkpt lat="44.40392" lon="5.46533">
        <ele>874.1</ele>
        <time>2023-07-24T10:17:22Z</time>
      </trkpt>
      <trkpt lat="44.40388" lon="5.46537">
        <ele>873.4</ele>
        <time>2023-07-24T10:17:23Z</time>
      </trkpt>
      <trkpt lat="44.40383" lon="5.46542">
        <ele>872.5</ele>
        <time>2023-07-24T10:17:24Z</time>
      </trkpt>
      <trkpt lat="44.40377" lon="5.46548">
        <ele>871.4</ele>
        <time>2023-07-24T10:17:25Z</time>
      </trkpt>
      <trkpt lat="44.40372" lon="5.46553">
        <ele>870.3</ele>
        <time>2023-07-24T10:17:26Z</time>
      </trkpt>
      <trkpt lat="44.40365" lon="5.46558">
        <ele>869.5</ele>
        <time>2023-07-24T10:17:27Z</time>
      </trkpt>
      <trkpt lat="44.4036" lon="5.46562">
        <ele>868.8</ele>
        <time>2023-07-24T10:17:28Z</time>
      </trkpt>
      <trkpt lat="44.40355" lon="5.46566">
        <ele>868.2</ele>
        <time>2023-07-24T10:17:29Z</time>
      </trkpt>
      <trkpt lat="44.40351" lon="5.4657">
        <ele>867.7</ele>
        <time>2023-07-24T10:17:30Z</time>
      </trkpt>
      <trkpt lat="44.40347" lon="5.46574">
        <ele>867.2</ele>
        <time>2023-07-24T10:17:31Z</time>
      </trkpt>
      <trkpt lat="44.40344" lon="5.46576">
        <ele>866.8</ele>
        <time>2023-07-24T10:17:32Z</time>
      </trkpt>
      <trkpt lat="44.40341" lon="5.46576">
        <ele>866.4</ele>
        <time>2023-07-24T10:17:33Z</time>
      </trkpt>
      <trkpt lat="44.40337" lon="5.46576">
        <ele>865.9</ele>
        <time>2023-07-24T10:17:34Z</time>
      </trkpt>
      <trkpt lat="44.40332" lon="5.46576">
        <ele>865.4</ele>
        <time>2023-07-24T10:17:35Z</time>
      </trkpt>
      <trkpt lat="44.40328" lon="5.46576">
        <ele>864.8</ele>
        <time>2023-07-24T10:17:36Z</time>
      </trkpt>
      <trkpt lat="44.40323" lon="5.46575">
        <ele>864.3</ele>
        <time>2023-07-24T10:17:37Z</time>
      </trkpt>
      <trkpt lat="44.40319" lon="5.46575">
        <ele>863.9</ele>
        <time>2023-07-24T10:17:38Z</time>
      </trkpt>
      <trkpt lat="44.40316" lon="5.46575">
        <ele>863.4</ele>
        <time>2023-07-24T10:17:39Z</time>
      </trkpt>
      <trkpt lat="44.40312" lon="5.46576">
        <ele>862.9</ele>
        <time>2023-07-24T10:17:40Z</time>
      </trkpt>
      <trkpt lat="44.40308" lon="5.46576">
        <ele>862.5</ele>
        <time>2023-07-24T10:17:41Z</time>
      </trkpt>
      <trkpt lat="44.40305" lon="5.46578">
        <ele>862.1</ele>
        <time>2023-07-24T10:17:42Z</time>
      </trkpt>
      <trkpt lat="44.40301" lon="5.46579">
        <ele>861.6</ele>
        <time>2023-07-24T10:17:43Z</time>
      </trkpt>
      <trkpt lat="44.40296" lon="5.46583">
        <ele>860.9</ele>
        <time>2023-07-24T10:17:44Z</time>
      </trkpt>
      <trkpt lat="44.40291" lon="5.46587">
        <ele>860.4</ele>
        <time>2023-07-24T10:17:45Z</time>
      </trkpt>
      <trkpt lat="44.40287" lon="5.46591">
        <ele>859.9</ele>
        <time>2023-07-24T10:17:46Z</time>
      </trkpt>
      <trkpt lat="44.40284" lon="5.46595">
        <ele>859.6</ele>
        <time>2023-07-24T10:17:47Z</time>
      </trkpt>
      <trkpt lat="44.40281" lon="5.46598">
        <ele>859.2</ele>
        <time>2023-07-24T10:17:48Z</time>
      </trkpt>
      <trkpt lat="44.40277" lon="5.46601">
        <ele>858.8</ele>
        <time>2023-07-24T10:17:49Z</time>
      </trkpt>
      <trkpt lat="44.40271" lon="5.46603">
        <ele>858.2</ele>
        <time>2023-07-24T10:17:50Z</time>
      </trkpt>
      <trkpt lat="44.40265" lon="5.46606">
        <ele>857.7</ele>
        <time>2023-07-24T10:17:51Z</time>
      </trkpt>
      <trkpt lat="44.4026" lon="5.46609">
        <ele>857.2</ele>
        <time>2023-07-24T10:17:52Z</time>
      </trkpt>
      <trkpt lat="44.40254" lon="5.46612">
        <ele>856.8</ele>
        <time>2023-07-24T10:17:53Z</time>
      </trkpt>
      <trkpt lat="44.40248" lon="5.46615">
        <ele>856.4</ele>
        <time>2023-07-24T10:17:54Z</time>
      </trkpt>
      <trkpt lat="44.40243" lon="5.46618">
        <ele>855.9</ele>
        <time>2023-07-24T10:17:55Z</time>
      </trkpt>
      <trkpt lat="44.40237" lon="5.46621">
        <ele>855.3</ele>
        <time>2023-07-24T10:17:56Z</time>
      </trkpt>
      <trkpt lat="44.40232" lon="5.46624">
        <ele>854.7</ele>
        <time>2023-07-24T10:17:57Z</time>
      </trkpt>
      <trkpt lat="44.40227" lon="5.46626">
        <ele>854</ele>
        <time>2023-07-24T10:17:58Z</time>
      </trkpt>
      <trkpt lat="44.40222" lon="5.46629">
        <ele>853.3</ele>
        <time>2023-07-24T10:17:59Z</time>
      </trkpt>
      <trkpt lat="44.40216" lon="5.46632">
        <ele>852.6</ele>
        <time>2023-07-24T10:18:00Z</time>
      </trkpt>
      <trkpt lat="44.4021" lon="5.46635">
        <ele>852</ele>
        <time>2023-07-24T10:18:01Z</time>
      </trkpt>
      <trkpt lat="44.40203" lon="5.46639">
        <ele>851.6</ele>
        <time>2023-07-24T10:18:02Z</time>
      </trkpt>
      <trkpt lat="44.40196" lon="5.46643">
        <ele>851.1</ele>
        <time>2023-07-24T10:18:03Z</time>
      </trkpt>
      <trkpt lat="44.4019" lon="5.46647">
        <ele>850.6</ele>
        <time>2023-07-24T10:18:04Z</time>
      </trkpt>
      <trkpt lat="44.40184" lon="5.4665">
        <ele>849.9</ele>
        <time>2023-07-24T10:18:05Z</time>
      </trkpt>
      <trkpt lat="44.40179" lon="5.46653">
        <ele>849.3</ele>
        <time>2023-07-24T10:18:06Z</time>
      </trkpt>
      <trkpt lat="44.40175" lon="5.46655">
        <ele>848.7</ele>
        <time>2023-07-24T10:18:07Z</time>
      </trkpt>
      <trkpt lat="44.40171" lon="5.46656">
        <ele>848.2</ele>
        <time>2023-07-24T10:18:08Z</time>
      </trkpt>
      <trkpt lat="44.40167" lon="5.46658">
        <ele>847.5</ele>
        <time>2023-07-24T10:18:09Z</time>
      </trkpt>
      <trkpt lat="44.40162" lon="5.4666">
        <ele>846.8</ele>
        <time>2023-07-24T10:18:10Z</time>
      </trkpt>
      <trkpt lat="44.40157" lon="5.46662">
        <ele>846</ele>
        <time>2023-07-24T10:18:11Z</time>
      </trkpt>
      <trkpt lat="44.40151" lon="5.46666">
        <ele>845.1</ele>
        <time>2023-07-24T10:18:12Z</time>
      </trkpt>
      <trkpt lat="44.40146" lon="5.46669">
        <ele>844.2</ele>
        <time>2023-07-24T10:18:13Z</time>
      </trkpt>
      <trkpt lat="44.40139" lon="5.46672">
        <ele>843.3</ele>
        <time>2023-07-24T10:18:14Z</time>
      </trkpt>
      <trkpt lat="44.40133" lon="5.46674">
        <ele>842.4</ele>
        <time>2023-07-24T10:18:15Z</time>
      </trkpt>
      <trkpt lat="44.40127" lon="5.46675">
        <ele>841.5</ele>
        <time>2023-07-24T10:18:16Z</time>
      </trkpt>
      <trkpt lat="44.40121" lon="5.46676">
        <ele>840.6</ele>
        <time>2023-07-24T10:18:17Z</time>
      </trkpt>
      <trkpt lat="44.40115" lon="5.46677">
        <ele>839.8</ele>
        <time>2023-07-24T10:18:18Z</time>
      </trkpt>
      <trkpt lat="44.40108" lon="5.46679">
        <ele>839</ele>
        <time>2023-07-24T10:18:19Z</time>
      </trkpt>
      <trkpt lat="44.40102" lon="5.4668">
        <ele>838.2</ele>
        <time>2023-07-24T10:18:20Z</time>
      </trkpt>
      <trkpt lat="44.40093" lon="5.46682">
        <ele>837.2</ele>
        <time>2023-07-24T10:18:21Z</time>
      </trkpt>
      <trkpt lat="44.40084" lon="5.46683">
        <ele>836.1</ele>
        <time>2023-07-24T10:18:22Z</time>
      </trkpt>
      <trkpt lat="44.40075" lon="5.46686">
        <ele>835.1</ele>
        <time>2023-07-24T10:18:23Z</time>
      </trkpt>
      <trkpt lat="44.40068" lon="5.46688">
        <ele>834.4</ele>
        <time>2023-07-24T10:18:24Z</time>
      </trkpt>
      <trkpt lat="44.40062" lon="5.46689">
        <ele>833.8</ele>
        <time>2023-07-24T10:18:25Z</time>
      </trkpt>
      <trkpt lat="44.40056" lon="5.46691">
        <ele>833.2</ele>
        <time>2023-07-24T10:18:26Z</time>
      </trkpt>
      <trkpt lat="44.4005" lon="5.46692">
        <ele>832.4</ele>
        <time>2023-07-24T10:18:27Z</time>
      </trkpt>
      <trkpt lat="44.40042" lon="5.46693">
        <ele>831.6</ele>
        <time>2023-07-24T10:18:28Z</time>
      </trkpt>
      <trkpt lat="44.40036" lon="5.46692">
        <ele>830.8</ele>
        <time>2023-07-24T10:18:29Z</time>
      </trkpt>
      <trkpt lat="44.40028" lon="5.46693">
        <ele>830</ele>
        <time>2023-07-24T10:18:30Z</time>
      </trkpt>
      <trkpt lat="44.40022" lon="5.46693">
        <ele>829.2</ele>
        <time>2023-07-24T10:18:31Z</time>
      </trkpt>
      <trkpt lat="44.40014" lon="5.46693">
        <ele>828.4</ele>
        <time>2023-07-24T10:18:32Z</time>
      </trkpt>
      <trkpt lat="44.40007" lon="5.46693">
        <ele>827.6</ele>
        <time>2023-07-24T10:18:33Z</time>
      </trkpt>
      <trkpt lat="44.4" lon="5.46692">
        <ele>826.8</ele>
        <time>2023-07-24T10:18:34Z</time>
      </trkpt>
      <trkpt lat="44.39993" lon="5.46691">
        <ele>825.9</ele>
        <time>2023-07-24T10:18:35Z</time>
      </trkpt>
      <trkpt lat="44.39985" lon="5.46692">
        <ele>824.8</ele>
        <time>2023-07-24T10:18:36Z</time>
      </trkpt>
      <trkpt lat="44.39979" lon="5.46692">
        <ele>824</ele>
        <time>2023-07-24T10:18:37Z</time>
      </trkpt>
      <trkpt lat="44.39973" lon="5.46695">
        <ele>823.2</ele>
        <time>2023-07-24T10:18:38Z</time>
      </trkpt>
      <trkpt lat="44.39967" lon="5.46699">
        <ele>822.6</ele>
        <time>2023-07-24T10:18:39Z</time>
      </trkpt>
      <trkpt lat="44.39962" lon="5.46702">
        <ele>821.9</ele>
        <time>2023-07-24T10:18:40Z</time>
      </trkpt>
      <trkpt lat="44.39956" lon="5.46705">
        <ele>821.2</ele>
        <time>2023-07-24T10:18:41Z</time>
      </trkpt>
      <trkpt lat="44.3995" lon="5.4671">
        <ele>820.4</ele>
        <time>2023-07-24T10:18:42Z</time>
      </trkpt>
      <trkpt lat="44.39944" lon="5.46714">
        <ele>819.7</ele>
        <time>2023-07-24T10:18:43Z</time>
      </trkpt>
      <trkpt lat="44.39938" lon="5.46718">
        <ele>819</ele>
        <time>2023-07-24T10:18:44Z</time>
      </trkpt>
      <trkpt lat="44.39932" lon="5.46722">
        <ele>818.4</ele>
        <time>2023-07-24T10:18:45Z</time>
      </trkpt>
      <trkpt lat="44.39926" lon="5.46726">
        <ele>817.7</ele>
        <time>2023-07-24T10:18:46Z</time>
      </trkpt>
      <trkpt lat="44.39921" lon="5.4673">
        <ele>817</ele>
        <time>2023-07-24T10:18:47Z</time>
      </trkpt>
      <trkpt lat="44.39916" lon="5.46733">
        <ele>816.4</ele>
        <time>2023-07-24T10:18:48Z</time>
      </trkpt>
      <trkpt lat="44.39911" lon="5.46735">
        <ele>815.7</ele>
        <time>2023-07-24T10:18:49Z</time>
      </trkpt>
      <trkpt lat="44.39907" lon="5.46738">
        <ele>815.1</ele>
        <time>2023-07-24T10:18:50Z</time>
      </trkpt>
      <trkpt lat="44.39903" lon="5.4674">
        <ele>814.5</ele>
        <time>2023-07-24T10:18:51Z</time>
      </trkpt>
      <trkpt lat="44.39899" lon="5.46742">
        <ele>813.8</ele>
        <time>2023-07-24T10:18:52Z</time>
      </trkpt>
      <trkpt lat="44.39895" lon="5.46745">
        <ele>813.1</ele>
        <time>2023-07-24T10:18:53Z</time>
      </trkpt>
      <trkpt lat="44.39892" lon="5.46748">
        <ele>812.4</ele>
        <time>2023-07-24T10:18:54Z</time>
      </trkpt>
      <trkpt lat="44.39888" lon="5.46751">
        <ele>811.6</ele>
        <time>2023-07-24T10:18:55Z</time>
      </trkpt>
      <trkpt lat="44.39884" lon="5.46755">
        <ele>810.8</ele>
        <time>2023-07-24T10:18:56Z</time>
      </trkpt>
      <trkpt lat="44.3988" lon="5.46758">
        <ele>810</ele>
        <time>2023-07-24T10:18:57Z</time>
      </trkpt>
      <trkpt lat="44.39876" lon="5.46761">
        <ele>809.3</ele>
        <time>2023-07-24T10:18:58Z</time>
      </trkpt>
      <trkpt lat="44.39872" lon="5.46764">
        <ele>808.6</ele>
        <time>2023-07-24T10:18:59Z</time>
      </trkpt>
      <trkpt lat="44.39868" lon="5.46765">
        <ele>808</ele>
        <time>2023-07-24T10:19:00Z</time>
      </trkpt>
      <trkpt lat="44.39865" lon="5.46766">
        <ele>807.4</ele>
        <time>2023-07-24T10:19:01Z</time>
      </trkpt>
      <trkpt lat="44.39861" lon="5.46768">
        <ele>806.8</ele>
        <time>2023-07-24T10:19:02Z</time>
      </trkpt>
      <trkpt lat="44.39857" lon="5.46769">
        <ele>806.2</ele>
        <time>2023-07-24T10:19:03Z</time>
      </trkpt>
      <trkpt lat="44.39853" lon="5.46771">
        <ele>805.7</ele>
        <time>2023-07-24T10:19:04Z</time>
      </trkpt>
      <trkpt lat="44.3985" lon="5.46773">
        <ele>805.2</ele>
        <time>2023-07-24T10:19:05Z</time>
      </trkpt>
      <trkpt lat="44.39848" lon="5.46776">
        <ele>804.7</ele>
        <time>2023-07-24T10:19:06Z</time>
      </trkpt>
      <trkpt lat="44.39846" lon="5.46779">
        <ele>804.2</ele>
        <time>2023-07-24T10:19:07Z</time>
      </trkpt>
      <trkpt lat="44.39844" lon="5.46783">
        <ele>803.7</ele>
        <time>2023-07-24T10:19:08Z</time>
      </trkpt>
      <trkpt lat="44.39842" lon="5.46788">
        <ele>803.1</ele>
        <time>2023-07-24T10:19:09Z</time>
      </trkpt>
      <trkpt lat="44.3984" lon="5.46791">
        <ele>802.6</ele>
        <time>2023-07-24T10:19:10Z</time>
      </trkpt>
      <trkpt lat="44.39837" lon="5.46793">
        <ele>802.1</ele>
        <time>2023-07-24T10:19:11Z</time>
      </trkpt>
      <trkpt lat="44.39834" lon="5.46793">
        <ele>801.5</ele>
        <time>2023-07-24T10:19:12Z</time>
      </trkpt>
      <trkpt lat="44.3983" lon="5.46793">
        <ele>800.9</ele>
        <time>2023-07-24T10:19:13Z</time>
      </trkpt>
      <trkpt lat="44.39826" lon="5.46795">
        <ele>800.1</ele>
        <time>2023-07-24T10:19:14Z</time>
      </trkpt>
      <trkpt lat="44.39822" lon="5.46796">
        <ele>799.4</ele>
        <time>2023-07-24T10:19:15Z</time>
      </trkpt>
      <trkpt lat="44.39818" lon="5.46797">
        <ele>798.7</ele>
        <time>2023-07-24T10:19:16Z</time>
      </trkpt>
      <trkpt lat="44.39814" lon="5.468">
        <ele>797.9</ele>
        <time>2023-07-24T10:19:17Z</time>
      </trkpt>
      <trkpt lat="44.3981" lon="5.46802">
        <ele>797</ele>
        <time>2023-07-24T10:19:18Z</time>
      </trkpt>
      <trkpt lat="44.39806" lon="5.46805">
        <ele>796.1</ele>
        <time>2023-07-24T10:19:19Z</time>
      </trkpt>
      <trkpt lat="44.39802" lon="5.46809">
        <ele>795.2</ele>
        <time>2023-07-24T10:19:20Z</time>
      </trkpt>
      <trkpt lat="44.39797" lon="5.46814">
        <ele>794.2</ele>
        <time>2023-07-24T10:19:21Z</time>
      </trkpt>
      <trkpt lat="44.39792" lon="5.46819">
        <ele>793.3</ele>
        <time>2023-07-24T10:19:22Z</time>
      </trkpt>
      <trkpt lat="44.39787" lon="5.46824">
        <ele>792.5</ele>
        <time>2023-07-24T10:19:23Z</time>
      </trkpt>
      <trkpt lat="44.39783" lon="5.46829">
        <ele>791.9</ele>
        <time>2023-07-24T10:19:24Z</time>
      </trkpt>
      <trkpt lat="44.39778" lon="5.46833">
        <ele>791.2</ele>
        <time>2023-07-24T10:19:25Z</time>
      </trkpt>
      <trkpt lat="44.39773" lon="5.46837">
        <ele>790.6</ele>
        <time>2023-07-24T10:19:26Z</time>
      </trkpt>
      <trkpt lat="44.39768" lon="5.46841">
        <ele>790.1</ele>
        <time>2023-07-24T10:19:27Z</time>
      </trkpt>
      <trkpt lat="44.39763" lon="5.46844">
        <ele>789.6</ele>
        <time>2023-07-24T10:19:28Z</time>
      </trkpt>
      <trkpt lat="44.39758" lon="5.46846">
        <ele>789.1</ele>
        <time>2023-07-24T10:19:29Z</time>
      </trkpt>
      <trkpt lat="44.39753" lon="5.46849">
        <ele>788.6</ele>
        <time>2023-07-24T10:19:30Z</time>
      </trkpt>
      <trkpt lat="44.39748" lon="5.46851">
        <ele>788</ele>
        <time>2023-07-24T10:19:31Z</time>
      </trkpt>
      <trkpt lat="44.39744" lon="5.46855">
        <ele>787.4</ele>
        <time>2023-07-24T10:19:32Z</time>
      </trkpt>
      <trkpt lat="44.3974" lon="5.46858">
        <ele>786.9</ele>
        <time>2023-07-24T10:19:33Z</time>
      </trkpt>
      <trkpt lat="44.39736" lon="5.46861">
        <ele>786.3</ele>
        <time>2023-07-24T10:19:34Z</time>
      </trkpt>
      <trkpt lat="44.39731" lon="5.46863">
        <ele>785.7</ele>
        <time>2023-07-24T10:19:35Z</time>
      </trkpt>
      <trkpt lat="44.39726" lon="5.46866">
        <ele>785.1</ele>
        <time>2023-07-24T10:19:36Z</time>
      </trkpt>
      <trkpt lat="44.39721" lon="5.4687">
        <ele>784.4</ele>
        <time>2023-07-24T10:19:37Z</time>
      </trkpt>
      <trkpt lat="44.39716" lon="5.46875">
        <ele>783.7</ele>
        <time>2023-07-24T10:19:38Z</time>
      </trkpt>
      <trkpt lat="44.39712" lon="5.46879">
        <ele>783.1</ele>
        <time>2023-07-24T10:19:39Z</time>
      </trkpt>
      <trkpt lat="44.39708" lon="5.46882">
        <ele>782.5</ele>
        <time>2023-07-24T10:19:40Z</time>
      </trkpt>
      <trkpt lat="44.39704" lon="5.46884">
        <ele>781.8</ele>
        <time>2023-07-24T10:19:41Z</time>
      </trkpt>
      <trkpt lat="44.397" lon="5.46887">
        <ele>781.1</ele>
        <time>2023-07-24T10:19:42Z</time>
      </trkpt>
      <trkpt lat="44.39696" lon="5.46889">
        <ele>780.4</ele>
        <time>2023-07-24T10:19:43Z</time>
      </trkpt>
      <trkpt lat="44.39692" lon="5.4689">
        <ele>779.8</ele>
        <time>2023-07-24T10:19:44Z</time>
      </trkpt>
      <trkpt lat="44.39688" lon="5.46891">
        <ele>779.1</ele>
        <time>2023-07-24T10:19:45Z</time>
      </trkpt>
      <trkpt lat="44.39683" lon="5.46893">
        <ele>778.2</ele>
        <time>2023-07-24T10:19:46Z</time>
      </trkpt>
      <trkpt lat="44.39679" lon="5.46896">
        <ele>777.4</ele>
        <time>2023-07-24T10:19:47Z</time>
      </trkpt>
      <trkpt lat="44.39675" lon="5.46898">
        <ele>776.6</ele>
        <time>2023-07-24T10:19:48Z</time>
      </trkpt>
      <trkpt lat="44.39671" lon="5.469">
        <ele>775.8</ele>
        <time>2023-07-24T10:19:49Z</time>
      </trkpt>
      <trkpt lat="44.39668" lon="5.46902">
        <ele>775</ele>
        <time>2023-07-24T10:19:50Z</time>
      </trkpt>
      <trkpt lat="44.39664" lon="5.46903">
        <ele>774.4</ele>
        <time>2023-07-24T10:19:51Z</time>
      </trkpt>
      <trkpt lat="44.39661" lon="5.46903">
        <ele>773.8</ele>
        <time>2023-07-24T10:19:52Z</time>
      </trkpt>
      <trkpt lat="44.39658" lon="5.46904">
        <ele>773.2</ele>
        <time>2023-07-24T10:19:53Z</time>
      </trkpt>
      <trkpt lat="44.39654" lon="5.46905">
        <ele>772.4</ele>
        <time>2023-07-24T10:19:54Z</time>
      </trkpt>
      <trkpt lat="44.39649" lon="5.46907">
        <ele>771.7</ele>
        <time>2023-07-24T10:19:55Z</time>
      </trkpt>
      <trkpt lat="44.39646" lon="5.46909">
        <ele>771.1</ele>
        <time>2023-07-24T10:19:56Z</time>
      </trkpt>
      <trkpt lat="44.39642" lon="5.46912">
        <ele>770.4</ele>
        <time>2023-07-24T10:19:57Z</time>
      </trkpt>
      <trkpt lat="44.39638" lon="5.46915">
        <ele>769.8</ele>
        <time>2023-07-24T10:19:58Z</time>
      </trkpt>
      <trkpt lat="44.39634" lon="5.46917">
        <ele>769.1</ele>
        <time>2023-07-24T10:19:59Z</time>
      </trkpt>
      <trkpt lat="44.39629" lon="5.4692">
        <ele>768.5</ele>
        <time>2023-07-24T10:20:00Z</time>
      </trkpt>
      <trkpt lat="44.39625" lon="5.46922">
        <ele>767.8</ele>
        <time>2023-07-24T10:20:01Z</time>
      </trkpt>
      <trkpt lat="44.3962" lon="5.46926">
        <ele>767.2</ele>
        <time>2023-07-24T10:20:02Z</time>
      </trkpt>
      <trkpt lat="44.39616" lon="5.4693">
        <ele>766.6</ele>
        <time>2023-07-24T10:20:03Z</time>
      </trkpt>
      <trkpt lat="44.39612" lon="5.46934">
        <ele>766</ele>
        <time>2023-07-24T10:20:04Z</time>
      </trkpt>
      <trkpt lat="44.39608" lon="5.46939">
        <ele>765.5</ele>
        <time>2023-07-24T10:20:05Z</time>
      </trkpt>
      <trkpt lat="44.39604" lon="5.46944">
        <ele>765</ele>
        <time>2023-07-24T10:20:06Z</time>
      </trkpt>
      <trkpt lat="44.39601" lon="5.46948">
        <ele>764.6</ele>
        <time>2023-07-24T10:20:07Z</time>
      </trkpt>
      <trkpt lat="44.39598" lon="5.46951">
        <ele>764.3</ele>
        <time>2023-07-24T10:20:08Z</time>
      </trkpt>
      <trkpt lat="44.39594" lon="5.46954">
        <ele>763.9</ele>
        <time>2023-07-24T10:20:09Z</time>
      </trkpt>
      <trkpt lat="44.39591" lon="5.46957">
        <ele>763.6</ele>
        <time>2023-07-24T10:20:10Z</time>
      </trkpt>
      <trkpt lat="44.39589" lon="5.4696">
        <ele>763.3</ele>
        <time>2023-07-24T10:20:11Z</time>
      </trkpt>
      <trkpt lat="44.39586" lon="5.46963">
        <ele>763</ele>
        <time>2023-07-24T10:20:12Z</time>
      </trkpt>
      <trkpt lat="44.39586" lon="5.46964">
        <ele>763</ele>
        <time>2023-07-24T10:20:13Z</time>
      </trkpt>
      <trkpt lat="44.39585" lon="5.46966">
        <ele>762.8</ele>
        <time>2023-07-24T10:20:14Z</time>
      </trkpt>
      <trkpt lat="44.39584" lon="5.46967">
        <ele>762.7</ele>
        <time>2023-07-24T10:20:15Z</time>
      </trkpt>
      <trkpt lat="44.39584" lon="5.46968">
        <ele>762.6</ele>
        <time>2023-07-24T10:20:16Z</time>
      </trkpt>
      <trkpt lat="44.39582" lon="5.4697">
        <ele>762.4</ele>
        <time>2023-07-24T10:20:17Z</time>
      </trkpt>
      <trkpt lat="44.39581" lon="5.46971">
        <ele>762.2</ele>
        <time>2023-07-24T10:20:18Z</time>
      </trkpt>
      <trkpt lat="44.39577" lon="5.46974">
        <ele>761.7</ele>
        <time>2023-07-24T10:20:19Z</time>
      </trkpt>
      <trkpt lat="44.39576" lon="5.46975">
        <ele>761.5</ele>
        <time>2023-07-24T10:20:20Z</time>
      </trkpt>
      <trkpt lat="44.39574" lon="5.46977">
        <ele>761.1</ele>
        <time>2023-07-24T10:20:21Z</time>
      </trkpt>
      <trkpt lat="44.39571" lon="5.4698">
        <ele>760.7</ele>
        <time>2023-07-24T10:20:22Z</time>
      </trkpt>
      <trkpt lat="44.39568" lon="5.46982">
        <ele>760.2</ele>
        <time>2023-07-24T10:20:23Z</time>
      </trkpt>
      <trkpt lat="44.39565" lon="5.46985">
        <ele>759.7</ele>
        <time>2023-07-24T10:20:24Z</time>
      </trkpt>
      <trkpt lat="44.39561" lon="5.46988">
        <ele>759.1</ele>
        <time>2023-07-24T10:20:25Z</time>
      </trkpt>
      <trkpt lat="44.39558" lon="5.46992">
        <ele>758.5</ele>
        <time>2023-07-24T10:20:26Z</time>
      </trkpt>
      <trkpt lat="44.39554" lon="5.46994">
        <ele>757.9</ele>
        <time>2023-07-24T10:20:27Z</time>
      </trkpt>
      <trkpt lat="44.39551" lon="5.46997">
        <ele>757.4</ele>
        <time>2023-07-24T10:20:28Z</time>
      </trkpt>
      <trkpt lat="44.39548" lon="5.47">
        <ele>756.8</ele>
        <time>2023-07-24T10:20:29Z</time>
      </trkpt>
      <trkpt lat="44.39545" lon="5.47003">
        <ele>756.2</ele>
        <time>2023-07-24T10:20:30Z</time>
      </trkpt>
      <trkpt lat="44.39541" lon="5.47007">
        <ele>755.6</ele>
        <time>2023-07-24T10:20:31Z</time>
      </trkpt>
      <trkpt lat="44.39537" lon="5.47011">
        <ele>755</ele>
        <time>2023-07-24T10:20:32Z</time>
      </trkpt>
      <trkpt lat="44.39533" lon="5.47014">
        <ele>754.4</ele>
        <time>2023-07-24T10:20:33Z</time>
      </trkpt>
      <trkpt lat="44.39529" lon="5.47018">
        <ele>753.8</ele>
        <time>2023-07-24T10:20:34Z</time>
      </trkpt>
      <trkpt lat="44.39525" lon="5.47021">
        <ele>753.2</ele>
        <time>2023-07-24T10:20:35Z</time>
      </trkpt>
      <trkpt lat="44.3952" lon="5.47025">
        <ele>752.7</ele>
        <time>2023-07-24T10:20:36Z</time>
      </trkpt>
      <trkpt lat="44.39516" lon="5.47029">
        <ele>752.1</ele>
        <time>2023-07-24T10:20:37Z</time>
      </trkpt>
      <trkpt lat="44.39512" lon="5.47033">
        <ele>751.6</ele>
        <time>2023-07-24T10:20:38Z</time>
      </trkpt>
      <trkpt lat="44.39509" lon="5.47037">
        <ele>751</ele>
        <time>2023-07-24T10:20:39Z</time>
      </trkpt>
      <trkpt lat="44.39506" lon="5.4704">
        <ele>750.4</ele>
        <time>2023-07-24T10:20:40Z</time>
      </trkpt>
      <trkpt lat="44.39502" lon="5.47044">
        <ele>749.7</ele>
        <time>2023-07-24T10:20:41Z</time>
      </trkpt>
      <trkpt lat="44.39499" lon="5.47047">
        <ele>749.1</ele>
        <time>2023-07-24T10:20:42Z</time>
      </trkpt>
      <trkpt lat="44.39496" lon="5.4705">
        <ele>748.6</ele>
        <time>2023-07-24T10:20:43Z</time>
      </trkpt>
      <trkpt lat="44.39492" lon="5.47052">
        <ele>747.9</ele>
        <time>2023-07-24T10:20:44Z</time>
      </trkpt>
      <trkpt lat="44.39488" lon="5.47054">
        <ele>747.3</ele>
        <time>2023-07-24T10:20:45Z</time>
      </trkpt>
      <trkpt lat="44.39485" lon="5.47057">
        <ele>746.7</ele>
        <time>2023-07-24T10:20:46Z</time>
      </trkpt>
      <trkpt lat="44.39481" lon="5.4706">
        <ele>745.9</ele>
        <time>2023-07-24T10:20:47Z</time>
      </trkpt>
      <trkpt lat="44.39477" lon="5.47064">
        <ele>745.3</ele>
        <time>2023-07-24T10:20:48Z</time>
      </trkpt>
      <trkpt lat="44.39473" lon="5.47066">
        <ele>744.6</ele>
        <time>2023-07-24T10:20:49Z</time>
      </trkpt>
      <trkpt lat="44.39469" lon="5.47069">
        <ele>744</ele>
        <time>2023-07-24T10:20:50Z</time>
      </trkpt>
      <trkpt lat="44.39465" lon="5.47072">
        <ele>743.2</ele>
        <time>2023-07-24T10:20:51Z</time>
      </trkpt>
      <trkpt lat="44.39461" lon="5.47074">
        <ele>742.5</ele>
        <time>2023-07-24T10:20:52Z</time>
      </trkpt>
      <trkpt lat="44.39457" lon="5.47076">
        <ele>741.8</ele>
        <time>2023-07-24T10:20:53Z</time>
      </trkpt>
      <trkpt lat="44.39453" lon="5.47078">
        <ele>741</ele>
        <time>2023-07-24T10:20:54Z</time>
      </trkpt>
      <trkpt lat="44.39449" lon="5.47079">
        <ele>740.2</ele>
        <time>2023-07-24T10:20:55Z</time>
      </trkpt>
      <trkpt lat="44.39445" lon="5.47081">
        <ele>739.4</ele>
        <time>2023-07-24T10:20:56Z</time>
      </trkpt>
      <trkpt lat="44.39441" lon="5.47082">
        <ele>738.5</ele>
        <time>2023-07-24T10:20:57Z</time>
      </trkpt>
      <trkpt lat="44.39437" lon="5.47084">
        <ele>737.7</ele>
        <time>2023-07-24T10:20:58Z</time>
      </trkpt>
      <trkpt lat="44.39432" lon="5.47086">
        <ele>736.8</ele>
        <time>2023-07-24T10:20:59Z</time>
      </trkpt>
      <trkpt lat="44.39428" lon="5.47087">
        <ele>735.9</ele>
        <time>2023-07-24T10:21:00Z</time>
      </trkpt>
      <trkpt lat="44.39423" lon="5.47089">
        <ele>735</ele>
        <time>2023-07-24T10:21:01Z</time>
      </trkpt>
      <trkpt lat="44.39419" lon="5.47091">
        <ele>734.2</ele>
        <time>2023-07-24T10:21:02Z</time>
      </trkpt>
      <trkpt lat="44.39415" lon="5.47092">
        <ele>733.4</ele>
        <time>2023-07-24T10:21:03Z</time>
      </trkpt>
      <trkpt lat="44.39411" lon="5.47094">
        <ele>732.7</ele>
        <time>2023-07-24T10:21:04Z</time>
      </trkpt>
      <trkpt lat="44.39408" lon="5.47095">
        <ele>732.2</ele>
        <time>2023-07-24T10:21:05Z</time>
      </trkpt>
      <trkpt lat="44.39405" lon="5.47095">
        <ele>731.7</ele>
        <time>2023-07-24T10:21:06Z</time>
      </trkpt>
      <trkpt lat="44.39403" lon="5.47096">
        <ele>731.1</ele>
        <time>2023-07-24T10:21:07Z</time>
      </trkpt>
      <trkpt lat="44.39399" lon="5.47095">
        <ele>730.3</ele>
        <time>2023-07-24T10:21:08Z</time>
      </trkpt>
      <trkpt lat="44.39397" lon="5.47095">
        <ele>729.9</ele>
        <time>2023-07-24T10:21:09Z</time>
      </trkpt>
      <trkpt lat="44.39394" lon="5.47092">
        <ele>729.1</ele>
        <time>2023-07-24T10:21:10Z</time>
      </trkpt>
      <trkpt lat="44.3939" lon="5.47089">
        <ele>728.1</ele>
        <time>2023-07-24T10:21:11Z</time>
      </trkpt>
      <trkpt lat="44.39384" lon="5.47089">
        <ele>726.9</ele>
        <time>2023-07-24T10:21:12Z</time>
      </trkpt>
      <trkpt lat="44.39377" lon="5.4709">
        <ele>725.4</ele>
        <time>2023-07-24T10:21:13Z</time>
      </trkpt>
      <trkpt lat="44.3937" lon="5.47093">
        <ele>723.9</ele>
        <time>2023-07-24T10:21:14Z</time>
      </trkpt>
      <trkpt lat="44.39362" lon="5.47095">
        <ele>722.2</ele>
        <time>2023-07-24T10:21:15Z</time>
      </trkpt>
      <trkpt lat="44.39355" lon="5.47096">
        <ele>720.6</ele>
        <time>2023-07-24T10:21:16Z</time>
      </trkpt>
      <trkpt lat="44.39348" lon="5.47097">
        <ele>719.1</ele>
        <time>2023-07-24T10:21:17Z</time>
      </trkpt>
      <trkpt lat="44.39342" lon="5.471">
        <ele>718</ele>
        <time>2023-07-24T10:21:18Z</time>
      </trkpt>
      <trkpt lat="44.39336" lon="5.471">
        <ele>717</ele>
        <time>2023-07-24T10:21:19Z</time>
      </trkpt>
      <trkpt lat="44.39331" lon="5.47097">
        <ele>716.1</ele>
        <time>2023-07-24T10:21:20Z</time>
      </trkpt>
      <trkpt lat="44.39326" lon="5.47092">
        <ele>715.2</ele>
        <time>2023-07-24T10:21:21Z</time>
      </trkpt>
      <trkpt lat="44.39323" lon="5.47085">
        <ele>714.9</ele>
        <time>2023-07-24T10:21:22Z</time>
      </trkpt>
      <trkpt lat="44.39322" lon="5.47077">
        <ele>714.5</ele>
        <time>2023-07-24T10:21:23Z</time>
      </trkpt>
      <trkpt lat="44.39322" lon="5.4707">
        <ele>714.2</ele>
        <time>2023-07-24T10:21:24Z</time>
      </trkpt>
      <trkpt lat="44.39325" lon="5.47063">
        <ele>714</ele>
        <time>2023-07-24T10:21:25Z</time>
      </trkpt>
      <trkpt lat="44.39329" lon="5.47057">
        <ele>713.7</ele>
        <time>2023-07-24T10:21:26Z</time>
      </trkpt>
      <trkpt lat="44.39331" lon="5.47052">
        <ele>713.4</ele>
        <time>2023-07-24T10:21:27Z</time>
      </trkpt>
      <trkpt lat="44.39331" lon="5.47046">
        <ele>713.2</ele>
        <time>2023-07-24T10:21:28Z</time>
      </trkpt>
      <trkpt lat="44.39328" lon="5.47041">
        <ele>713</ele>
        <time>2023-07-24T10:21:29Z</time>
      </trkpt>
      <trkpt lat="44.39322" lon="5.47038">
        <ele>712.7</ele>
        <time>2023-07-24T10:21:30Z</time>
      </trkpt>
      <trkpt lat="44.39315" lon="5.47038">
        <ele>712.5</ele>
        <time>2023-07-24T10:21:31Z</time>
      </trkpt>
      <trkpt lat="44.39309" lon="5.47039">
        <ele>712.2</ele>
        <time>2023-07-24T10:21:32Z</time>
      </trkpt>
      <trkpt lat="44.39304" lon="5.47041">
        <ele>711.8</ele>
        <time>2023-07-24T10:21:33Z</time>
      </trkpt>
      <trkpt lat="44.39299" lon="5.47045">
        <ele>711.4</ele>
        <time>2023-07-24T10:21:34Z</time>
      </trkpt>
      <trkpt lat="44.39294" lon="5.47051">
        <ele>710.8</ele>
        <time>2023-07-24T10:21:35Z</time>
      </trkpt>
      <trkpt lat="44.39289" lon="5.47057">
        <ele>710.3</ele>
        <time>2023-07-24T10:21:36Z</time>
      </trkpt>
      <trkpt lat="44.39284" lon="5.47065">
        <ele>709.7</ele>
        <time>2023-07-24T10:21:37Z</time>
      </trkpt>
      <trkpt lat="44.39279" lon="5.47071">
        <ele>709.1</ele>
        <time>2023-07-24T10:21:38Z</time>
      </trkpt>
      <trkpt lat="44.39275" lon="5.47078">
        <ele>708.6</ele>
        <time>2023-07-24T10:21:39Z</time>
      </trkpt>
      <trkpt lat="44.3927" lon="5.47083">
        <ele>708</ele>
        <time>2023-07-24T10:21:40Z</time>
      </trkpt>
      <trkpt lat="44.39266" lon="5.47089">
        <ele>707.6</ele>
        <time>2023-07-24T10:21:41Z</time>
      </trkpt>
      <trkpt lat="44.39263" lon="5.47096">
        <ele>707.3</ele>
        <time>2023-07-24T10:21:42Z</time>
      </trkpt>
      <trkpt lat="44.39262" lon="5.47105">
        <ele>707.2</ele>
        <time>2023-07-24T10:21:43Z</time>
      </trkpt>
      <trkpt lat="44.39261" lon="5.47114">
        <ele>707</ele>
        <time>2023-07-24T10:21:44Z</time>
      </trkpt>
      <trkpt lat="44.39261" lon="5.47123">
        <ele>706.8</ele>
        <time>2023-07-24T10:21:45Z</time>
      </trkpt>
      <trkpt lat="44.39264" lon="5.47132">
        <ele>706.4</ele>
        <time>2023-07-24T10:21:46Z</time>
      </trkpt>
      <trkpt lat="44.39268" lon="5.47141">
        <ele>706</ele>
        <time>2023-07-24T10:21:47Z</time>
      </trkpt>
      <trkpt lat="44.39272" lon="5.47149">
        <ele>705.4</ele>
        <time>2023-07-24T10:21:48Z</time>
      </trkpt>
      <trkpt lat="44.39276" lon="5.47157">
        <ele>704.9</ele>
        <time>2023-07-24T10:21:49Z</time>
      </trkpt>
      <trkpt lat="44.39279" lon="5.47165">
        <ele>704.4</ele>
        <time>2023-07-24T10:21:50Z</time>
      </trkpt>
      <trkpt lat="44.39282" lon="5.47173">
        <ele>703.9</ele>
        <time>2023-07-24T10:21:51Z</time>
      </trkpt>
      <trkpt lat="44.39286" lon="5.47182">
        <ele>703.3</ele>
        <time>2023-07-24T10:21:52Z</time>
      </trkpt>
      <trkpt lat="44.3929" lon="5.4719">
        <ele>702.8</ele>
        <time>2023-07-24T10:21:53Z</time>
      </trkpt>
      <trkpt lat="44.39293" lon="5.47199">
        <ele>702.2</ele>
        <time>2023-07-24T10:21:54Z</time>
      </trkpt>
      <trkpt lat="44.39297" lon="5.47209">
        <ele>701.6</ele>
        <time>2023-07-24T10:21:55Z</time>
      </trkpt>
      <trkpt lat="44.393" lon="5.4722">
        <ele>701</ele>
        <time>2023-07-24T10:21:56Z</time>
      </trkpt>
      <trkpt lat="44.39302" lon="5.47233">
        <ele>700.4</ele>
        <time>2023-07-24T10:21:57Z</time>
      </trkpt>
      <trkpt lat="44.39303" lon="5.47247">
        <ele>699.7</ele>
        <time>2023-07-24T10:21:58Z</time>
      </trkpt>
      <trkpt lat="44.39302" lon="5.47259">
        <ele>699.1</ele>
        <time>2023-07-24T10:21:59Z</time>
      </trkpt>
      <trkpt lat="44.393" lon="5.47271">
        <ele>698.5</ele>
        <time>2023-07-24T10:22:00Z</time>
      </trkpt>
      <trkpt lat="44.39299" lon="5.47284">
        <ele>697.9</ele>
        <time>2023-07-24T10:22:01Z</time>
      </trkpt>
      <trkpt lat="44.39298" lon="5.47297">
        <ele>697.3</ele>
        <time>2023-07-24T10:22:02Z</time>
      </trkpt>
      <trkpt lat="44.39298" lon="5.4731">
        <ele>696.5</ele>
        <time>2023-07-24T10:22:03Z</time>
      </trkpt>
      <trkpt lat="44.39299" lon="5.47324">
        <ele>695.8</ele>
        <time>2023-07-24T10:22:04Z</time>
      </trkpt>
      <trkpt lat="44.39301" lon="5.47338">
        <ele>695.1</ele>
        <time>2023-07-24T10:22:05Z</time>
      </trkpt>
      <trkpt lat="44.39304" lon="5.47351">
        <ele>694.4</ele>
        <time>2023-07-24T10:22:06Z</time>
      </trkpt>
      <trkpt lat="44.39307" lon="5.47365">
        <ele>693.8</ele>
        <time>2023-07-24T10:22:07Z</time>
      </trkpt>
      <trkpt lat="44.3931" lon="5.47378">
        <ele>693.2</ele>
        <time>2023-07-24T10:22:08Z</time>
      </trkpt>
      <trkpt lat="44.39313" lon="5.47392">
        <ele>692.7</ele>
        <time>2023-07-24T10:22:09Z</time>
      </trkpt>
      <trkpt lat="44.39316" lon="5.47406">
        <ele>692.3</ele>
        <time>2023-07-24T10:22:10Z</time>
      </trkpt>
      <trkpt lat="44.39319" lon="5.4742">
        <ele>691.9</ele>
        <time>2023-07-24T10:22:11Z</time>
      </trkpt>
      <trkpt lat="44.39322" lon="5.47433">
        <ele>691.6</ele>
        <time>2023-07-24T10:22:12Z</time>
      </trkpt>
      <trkpt lat="44.39324" lon="5.47447">
        <ele>691.5</ele>
        <time>2023-07-24T10:22:13Z</time>
      </trkpt>
      <trkpt lat="44.39323" lon="5.47459">
        <ele>691.6</ele>
        <time>2023-07-24T10:22:14Z</time>
      </trkpt>
      <trkpt lat="44.39319" lon="5.4747">
        <ele>691.4</ele>
        <time>2023-07-24T10:22:15Z</time>
      </trkpt>
      <trkpt lat="44.39311" lon="5.47475">
        <ele>691</ele>
        <time>2023-07-24T10:22:16Z</time>
      </trkpt>
      <trkpt lat="44.393" lon="5.47476">
        <ele>690.6</ele>
        <time>2023-07-24T10:22:17Z</time>
      </trkpt>
      <trkpt lat="44.39291" lon="5.47473">
        <ele>690.2</ele>
        <time>2023-07-24T10:22:18Z</time>
      </trkpt>
      <trkpt lat="44.39283" lon="5.47466">
        <ele>689.9</ele>
        <time>2023-07-24T10:22:19Z</time>
      </trkpt>
      <trkpt lat="44.39276" lon="5.4746">
        <ele>689.7</ele>
        <time>2023-07-24T10:22:20Z</time>
      </trkpt>
      <trkpt lat="44.39269" lon="5.47452">
        <ele>689.5</ele>
        <time>2023-07-24T10:22:21Z</time>
      </trkpt>
      <trkpt lat="44.39263" lon="5.47444">
        <ele>689.3</ele>
        <time>2023-07-24T10:22:22Z</time>
      </trkpt>
      <trkpt lat="44.39257" lon="5.47437">
        <ele>689.2</ele>
        <time>2023-07-24T10:22:23Z</time>
      </trkpt>
      <trkpt lat="44.39251" lon="5.47431">
        <ele>689.1</ele>
        <time>2023-07-24T10:22:24Z</time>
      </trkpt>
      <trkpt lat="44.39246" lon="5.47424">
        <ele>689</ele>
        <time>2023-07-24T10:22:25Z</time>
      </trkpt>
      <trkpt lat="44.39241" lon="5.47418">
        <ele>689</ele>
        <time>2023-07-24T10:22:26Z</time>
      </trkpt>
      <trkpt lat="44.39236" lon="5.47412">
        <ele>688.9</ele>
        <time>2023-07-24T10:22:27Z</time>
      </trkpt>
      <trkpt lat="44.3923" lon="5.47407">
        <ele>688.9</ele>
        <time>2023-07-24T10:22:28Z</time>
      </trkpt>
      <trkpt lat="44.39225" lon="5.47402">
        <ele>688.9</ele>
        <time>2023-07-24T10:22:29Z</time>
      </trkpt>
      <trkpt lat="44.3922" lon="5.47399">
        <ele>688.8</ele>
        <time>2023-07-24T10:22:30Z</time>
      </trkpt>
      <trkpt lat="44.39214" lon="5.47395">
        <ele>688.8</ele>
        <time>2023-07-24T10:22:31Z</time>
      </trkpt>
      <trkpt lat="44.39209" lon="5.47392">
        <ele>688.8</ele>
        <time>2023-07-24T10:22:32Z</time>
      </trkpt>
      <trkpt lat="44.39203" lon="5.47389">
        <ele>688.8</ele>
        <time>2023-07-24T10:22:33Z</time>
      </trkpt>
      <trkpt lat="44.39196" lon="5.47387">
        <ele>688.8</ele>
        <time>2023-07-24T10:22:34Z</time>
      </trkpt>
      <trkpt lat="44.3919" lon="5.47385">
        <ele>688.8</ele>
        <time>2023-07-24T10:22:35Z</time>
      </trkpt>
      <trkpt lat="44.39184" lon="5.47383">
        <ele>688.8</ele>
        <time>2023-07-24T10:22:36Z</time>
      </trkpt>
      <trkpt lat="44.39178" lon="5.47381">
        <ele>688.8</ele>
        <time>2023-07-24T10:22:37Z</time>
      </trkpt>
      <trkpt lat="44.39172" lon="5.4738">
        <ele>688.8</ele>
        <time>2023-07-24T10:22:38Z</time>
      </trkpt>
      <trkpt lat="44.39166" lon="5.47378">
        <ele>688.8</ele>
        <time>2023-07-24T10:22:39Z</time>
      </trkpt>
      <trkpt lat="44.3916" lon="5.47376">
        <ele>688.8</ele>
        <time>2023-07-24T10:22:40Z</time>
      </trkpt>
      <trkpt lat="44.39155" lon="5.47374">
        <ele>688.8</ele>
        <time>2023-07-24T10:22:41Z</time>
      </trkpt>
      <trkpt lat="44.39149" lon="5.47371">
        <ele>688.8</ele>
        <time>2023-07-24T10:22:42Z</time>
      </trkpt>
      <trkpt lat="44.39143" lon="5.4737">
        <ele>688.8</ele>
        <time>2023-07-24T10:22:43Z</time>
      </trkpt>
      <trkpt lat="44.39137" lon="5.47367">
        <ele>688.9</ele>
        <time>2023-07-24T10:22:44Z</time>
      </trkpt>
      <trkpt lat="44.39131" lon="5.47366">
        <ele>688.9</ele>
        <time>2023-07-24T10:22:45Z</time>
      </trkpt>
      <trkpt lat="44.39125" lon="5.47363">
        <ele>688.9</ele>
        <time>2023-07-24T10:22:46Z</time>
      </trkpt>
      <trkpt lat="44.39119" lon="5.4736">
        <ele>688.9</ele>
        <time>2023-07-24T10:22:47Z</time>
      </trkpt>
      <trkpt lat="44.39114" lon="5.47356">
        <ele>688.9</ele>
        <time>2023-07-24T10:22:48Z</time>
      </trkpt>
      <trkpt lat="44.39109" lon="5.47352">
        <ele>688.9</ele>
        <time>2023-07-24T10:22:49Z</time>
      </trkpt>
      <trkpt lat="44.39104" lon="5.47346">
        <ele>688.9</ele>
        <time>2023-07-24T10:22:50Z</time>
      </trkpt>
      <trkpt lat="44.391" lon="5.47341">
        <ele>688.9</ele>
        <time>2023-07-24T10:22:51Z</time>
      </trkpt>
      <trkpt lat="44.39095" lon="5.47336">
        <ele>688.9</ele>
        <time>2023-07-24T10:22:52Z</time>
      </trkpt>
      <trkpt lat="44.39091" lon="5.47331">
        <ele>689</ele>
        <time>2023-07-24T10:22:53Z</time>
      </trkpt>
      <trkpt lat="44.39087" lon="5.47325">
        <ele>689</ele>
        <time>2023-07-24T10:22:54Z</time>
      </trkpt>
      <trkpt lat="44.39083" lon="5.47319">
        <ele>689</ele>
        <time>2023-07-24T10:22:55Z</time>
      </trkpt>
      <trkpt lat="44.39078" lon="5.47313">
        <ele>689</ele>
        <time>2023-07-24T10:22:56Z</time>
      </trkpt>
      <trkpt lat="44.39073" lon="5.47308">
        <ele>689</ele>
        <time>2023-07-24T10:22:57Z</time>
      </trkpt>
      <trkpt lat="44.39069" lon="5.47302">
        <ele>689</ele>
        <time>2023-07-24T10:22:58Z</time>
      </trkpt>
      <trkpt lat="44.39065" lon="5.47297">
        <ele>689</ele>
        <time>2023-07-24T10:22:59Z</time>
      </trkpt>
      <trkpt lat="44.39061" lon="5.47291">
        <ele>689</ele>
        <time>2023-07-24T10:23:00Z</time>
      </trkpt>
      <trkpt lat="44.39056" lon="5.47286">
        <ele>689</ele>
        <time>2023-07-24T10:23:01Z</time>
      </trkpt>
      <trkpt lat="44.39051" lon="5.47282">
        <ele>688.9</ele>
        <time>2023-07-24T10:23:02Z</time>
      </trkpt>
      <trkpt lat="44.39046" lon="5.47277">
        <ele>688.9</ele>
        <time>2023-07-24T10:23:03Z</time>
      </trkpt>
      <trkpt lat="44.39041" lon="5.47272">
        <ele>688.9</ele>
        <time>2023-07-24T10:23:04Z</time>
      </trkpt>
      <trkpt lat="44.39036" lon="5.47267">
        <ele>688.9</ele>
        <time>2023-07-24T10:23:05Z</time>
      </trkpt>
      <trkpt lat="44.39031" lon="5.47263">
        <ele>688.9</ele>
        <time>2023-07-24T10:23:06Z</time>
      </trkpt>
      <trkpt lat="44.39025" lon="5.47259">
        <ele>688.8</ele>
        <time>2023-07-24T10:23:07Z</time>
      </trkpt>
      <trkpt lat="44.3902" lon="5.47256">
        <ele>688.8</ele>
        <time>2023-07-24T10:23:08Z</time>
      </trkpt>
      <trkpt lat="44.39014" lon="5.47254">
        <ele>688.8</ele>
        <time>2023-07-24T10:23:09Z</time>
      </trkpt>
      <trkpt lat="44.39009" lon="5.47253">
        <ele>688.8</ele>
        <time>2023-07-24T10:23:10Z</time>
      </trkpt>
      <trkpt lat="44.39003" lon="5.47253">
        <ele>688.7</ele>
        <time>2023-07-24T10:23:11Z</time>
      </trkpt>
      <trkpt lat="44.38998" lon="5.47253">
        <ele>688.7</ele>
        <time>2023-07-24T10:23:12Z</time>
      </trkpt>
      <trkpt lat="44.38992" lon="5.47254">
        <ele>688.7</ele>
        <time>2023-07-24T10:23:13Z</time>
      </trkpt>
      <trkpt lat="44.38987" lon="5.47256">
        <ele>688.6</ele>
        <time>2023-07-24T10:23:14Z</time>
      </trkpt>
      <trkpt lat="44.38982" lon="5.47259">
        <ele>688.5</ele>
        <time>2023-07-24T10:23:15Z</time>
      </trkpt>
      <trkpt lat="44.38977" lon="5.47262">
        <ele>688.5</ele>
        <time>2023-07-24T10:23:16Z</time>
      </trkpt>
      <trkpt lat="44.38972" lon="5.47266">
        <ele>688.4</ele>
        <time>2023-07-24T10:23:17Z</time>
      </trkpt>
      <trkpt lat="44.38967" lon="5.47271">
        <ele>688.3</ele>
        <time>2023-07-24T10:23:18Z</time>
      </trkpt>
      <trkpt lat="44.38963" lon="5.47276">
        <ele>688.2</ele>
        <time>2023-07-24T10:23:19Z</time>
      </trkpt>
      <trkpt lat="44.38959" lon="5.4728">
        <ele>688.1</ele>
        <time>2023-07-24T10:23:20Z</time>
      </trkpt>
      <trkpt lat="44.38955" lon="5.47284">
        <ele>687.9</ele>
        <time>2023-07-24T10:23:21Z</time>
      </trkpt>
      <trkpt lat="44.38951" lon="5.47289">
        <ele>687.7</ele>
        <time>2023-07-24T10:23:22Z</time>
      </trkpt>
      <trkpt lat="44.38948" lon="5.47294">
        <ele>687.5</ele>
        <time>2023-07-24T10:23:23Z</time>
      </trkpt>
      <trkpt lat="44.38944" lon="5.47299">
        <ele>687.2</ele>
        <time>2023-07-24T10:23:24Z</time>
      </trkpt>
      <trkpt lat="44.3894" lon="5.47306">
        <ele>686.8</ele>
        <time>2023-07-24T10:23:25Z</time>
      </trkpt>
      <trkpt lat="44.38935" lon="5.47311">
        <ele>686.4</ele>
        <time>2023-07-24T10:23:26Z</time>
      </trkpt>
      <trkpt lat="44.3893" lon="5.47316">
        <ele>686</ele>
        <time>2023-07-24T10:23:27Z</time>
      </trkpt>
      <trkpt lat="44.38924" lon="5.47319">
        <ele>685.6</ele>
        <time>2023-07-24T10:23:28Z</time>
      </trkpt>
      <trkpt lat="44.38918" lon="5.47322">
        <ele>685.1</ele>
        <time>2023-07-24T10:23:29Z</time>
      </trkpt>
      <trkpt lat="44.38911" lon="5.47325">
        <ele>684.6</ele>
        <time>2023-07-24T10:23:30Z</time>
      </trkpt>
      <trkpt lat="44.38904" lon="5.47329">
        <ele>684</ele>
        <time>2023-07-24T10:23:31Z</time>
      </trkpt>
      <trkpt lat="44.38898" lon="5.47333">
        <ele>683.5</ele>
        <time>2023-07-24T10:23:32Z</time>
      </trkpt>
      <trkpt lat="44.38885" lon="5.47341">
        <ele>682.5</ele>
        <time>2023-07-24T10:23:34Z</time>
      </trkpt>
      <trkpt lat="44.38879" lon="5.47346">
        <ele>682</ele>
        <time>2023-07-24T10:23:35Z</time>
      </trkpt>
      <trkpt lat="44.38874" lon="5.4735">
        <ele>681.6</ele>
        <time>2023-07-24T10:23:36Z</time>
      </trkpt>
      <trkpt lat="44.38871" lon="5.47352">
        <ele>681.3</ele>
        <time>2023-07-24T10:23:37Z</time>
      </trkpt>
      <trkpt lat="44.38868" lon="5.47353">
        <ele>681.1</ele>
        <time>2023-07-24T10:23:38Z</time>
      </trkpt>
      <trkpt lat="44.38865" lon="5.47354">
        <ele>680.9</ele>
        <time>2023-07-24T10:23:39Z</time>
      </trkpt>
      <trkpt lat="44.38862" lon="5.47354">
        <ele>680.8</ele>
        <time>2023-07-24T10:23:40Z</time>
      </trkpt>
      <trkpt lat="44.38861" lon="5.47354">
        <ele>680.7</ele>
        <time>2023-07-24T10:23:41Z</time>
      </trkpt>
      <trkpt lat="44.38857" lon="5.47355">
        <ele>680.5</ele>
        <time>2023-07-24T10:23:42Z</time>
      </trkpt>
      <trkpt lat="44.38855" lon="5.47356">
        <ele>680.4</ele>
        <time>2023-07-24T10:23:43Z</time>
      </trkpt>
      <trkpt lat="44.38851" lon="5.47359">
        <ele>680.4</ele>
        <time>2023-07-24T10:23:44Z</time>
      </trkpt>
      <trkpt lat="44.38847" lon="5.47364">
        <ele>680.5</ele>
        <time>2023-07-24T10:23:45Z</time>
      </trkpt>
      <trkpt lat="44.38845" lon="5.4737">
        <ele>680.5</ele>
        <time>2023-07-24T10:23:46Z</time>
      </trkpt>
      <trkpt lat="44.38843" lon="5.47377">
        <ele>680.6</ele>
        <time>2023-07-24T10:23:47Z</time>
      </trkpt>
      <trkpt lat="44.38841" lon="5.47385">
        <ele>680.7</ele>
        <time>2023-07-24T10:23:48Z</time>
      </trkpt>
      <trkpt lat="44.38839" lon="5.47392">
        <ele>680.8</ele>
        <time>2023-07-24T10:23:49Z</time>
      </trkpt>
      <trkpt lat="44.38837" lon="5.47399">
        <ele>680.8</ele>
        <time>2023-07-24T10:23:50Z</time>
      </trkpt>
      <trkpt lat="44.38835" lon="5.47405">
        <ele>680.9</ele>
        <time>2023-07-24T10:23:51Z</time>
      </trkpt>
      <trkpt lat="44.38833" lon="5.47412">
        <ele>681</ele>
        <time>2023-07-24T10:23:52Z</time>
      </trkpt>
      <trkpt lat="44.38831" lon="5.47418">
        <ele>681</ele>
        <time>2023-07-24T10:23:53Z</time>
      </trkpt>
      <trkpt lat="44.3883" lon="5.47425">
        <ele>681.1</ele>
        <time>2023-07-24T10:23:54Z</time>
      </trkpt>
      <trkpt lat="44.38829" lon="5.47432">
        <ele>681.1</ele>
        <time>2023-07-24T10:23:55Z</time>
      </trkpt>
      <trkpt lat="44.38828" lon="5.47439">
        <ele>681.2</ele>
        <time>2023-07-24T10:23:56Z</time>
      </trkpt>
      <trkpt lat="44.38827" lon="5.47445">
        <ele>681.2</ele>
        <time>2023-07-24T10:23:57Z</time>
      </trkpt>
      <trkpt lat="44.38825" lon="5.47452">
        <ele>681.3</ele>
        <time>2023-07-24T10:23:58Z</time>
      </trkpt>
      <trkpt lat="44.38824" lon="5.47458">
        <ele>681.4</ele>
        <time>2023-07-24T10:23:59Z</time>
      </trkpt>
      <trkpt lat="44.38823" lon="5.47465">
        <ele>681.4</ele>
        <time>2023-07-24T10:24:00Z</time>
      </trkpt>
      <trkpt lat="44.38821" lon="5.47472">
        <ele>681.4</ele>
        <time>2023-07-24T10:24:01Z</time>
      </trkpt>
      <trkpt lat="44.3882" lon="5.47479">
        <ele>681.4</ele>
        <time>2023-07-24T10:24:02Z</time>
      </trkpt>
      <trkpt lat="44.38818" lon="5.47486">
        <ele>681.5</ele>
        <time>2023-07-24T10:24:03Z</time>
      </trkpt>
      <trkpt lat="44.38817" lon="5.47493">
        <ele>681.5</ele>
        <time>2023-07-24T10:24:04Z</time>
      </trkpt>
      <trkpt lat="44.38816" lon="5.475">
        <ele>681.5</ele>
        <time>2023-07-24T10:24:05Z</time>
      </trkpt>
      <trkpt lat="44.38815" lon="5.47507">
        <ele>681.5</ele>
        <time>2023-07-24T10:24:06Z</time>
      </trkpt>
      <trkpt lat="44.38814" lon="5.47514">
        <ele>681.5</ele>
        <time>2023-07-24T10:24:07Z</time>
      </trkpt>
      <trkpt lat="44.38813" lon="5.47521">
        <ele>681.6</ele>
        <time>2023-07-24T10:24:08Z</time>
      </trkpt>
      <trkpt lat="44.38812" lon="5.47528">
        <ele>681.6</ele>
        <time>2023-07-24T10:24:09Z</time>
      </trkpt>
      <trkpt lat="44.38811" lon="5.47536">
        <ele>681.6</ele>
        <time>2023-07-24T10:24:10Z</time>
      </trkpt>
      <trkpt lat="44.38809" lon="5.47543">
        <ele>681.6</ele>
        <time>2023-07-24T10:24:11Z</time>
      </trkpt>
      <trkpt lat="44.38808" lon="5.47551">
        <ele>681.6</ele>
        <time>2023-07-24T10:24:12Z</time>
      </trkpt>
      <trkpt lat="44.38806" lon="5.47558">
        <ele>681.6</ele>
        <time>2023-07-24T10:24:13Z</time>
      </trkpt>
      <trkpt lat="44.38805" lon="5.47565">
        <ele>681.6</ele>
        <time>2023-07-24T10:24:14Z</time>
      </trkpt>
      <trkpt lat="44.38804" lon="5.47573">
        <ele>681.6</ele>
        <time>2023-07-24T10:24:15Z</time>
      </trkpt>
      <trkpt lat="44.38803" lon="5.4758">
        <ele>681.6</ele>
        <time>2023-07-24T10:24:16Z</time>
      </trkpt>
      <trkpt lat="44.38802" lon="5.47588">
        <ele>681.6</ele>
        <time>2023-07-24T10:24:17Z</time>
      </trkpt>
      <trkpt lat="44.38801" lon="5.47596">
        <ele>681.6</ele>
        <time>2023-07-24T10:24:18Z</time>
      </trkpt>
      <trkpt lat="44.388" lon="5.47603">
        <ele>681.6</ele>
        <time>2023-07-24T10:24:19Z</time>
      </trkpt>
      <trkpt lat="44.38799" lon="5.4761">
        <ele>681.6</ele>
        <time>2023-07-24T10:24:20Z</time>
      </trkpt>
      <trkpt lat="44.38797" lon="5.47618">
        <ele>681.6</ele>
        <time>2023-07-24T10:24:21Z</time>
      </trkpt>
      <trkpt lat="44.38796" lon="5.47625">
        <ele>681.6</ele>
        <time>2023-07-24T10:24:22Z</time>
      </trkpt>
      <trkpt lat="44.38794" lon="5.47633">
        <ele>681.6</ele>
        <time>2023-07-24T10:24:23Z</time>
      </trkpt>
      <trkpt lat="44.38793" lon="5.4764">
        <ele>681.6</ele>
        <time>2023-07-24T10:24:24Z</time>
      </trkpt>
      <trkpt lat="44.38791" lon="5.47648">
        <ele>681.6</ele>
        <time>2023-07-24T10:24:25Z</time>
      </trkpt>
      <trkpt lat="44.3879" lon="5.47655">
        <ele>681.6</ele>
        <time>2023-07-24T10:24:26Z</time>
      </trkpt>
      <trkpt lat="44.38789" lon="5.47663">
        <ele>681.6</ele>
        <time>2023-07-24T10:24:27Z</time>
      </trkpt>
      <trkpt lat="44.38788" lon="5.47671">
        <ele>681.6</ele>
        <time>2023-07-24T10:24:28Z</time>
      </trkpt>
      <trkpt lat="44.38786" lon="5.47678">
        <ele>681.6</ele>
        <time>2023-07-24T10:24:29Z</time>
      </trkpt>
      <trkpt lat="44.38785" lon="5.47686">
        <ele>681.6</ele>
        <time>2023-07-24T10:24:30Z</time>
      </trkpt>
      <trkpt lat="44.38784" lon="5.47693">
        <ele>681.6</ele>
        <time>2023-07-24T10:24:31Z</time>
      </trkpt>
      <trkpt lat="44.38782" lon="5.477">
        <ele>681.6</ele>
        <time>2023-07-24T10:24:32Z</time>
      </trkpt>
      <trkpt lat="44.38781" lon="5.47708">
        <ele>681.6</ele>
        <time>2023-07-24T10:24:33Z</time>
      </trkpt>
      <trkpt lat="44.38781" lon="5.47717">
        <ele>681.6</ele>
        <time>2023-07-24T10:24:34Z</time>
      </trkpt>
      <trkpt lat="44.38781" lon="5.47725">
        <ele>681.6</ele>
        <time>2023-07-24T10:24:35Z</time>
      </trkpt>
      <trkpt lat="44.38781" lon="5.47734">
        <ele>681.6</ele>
        <time>2023-07-24T10:24:36Z</time>
      </trkpt>
      <trkpt lat="44.38782" lon="5.47743">
        <ele>681.6</ele>
        <time>2023-07-24T10:24:37Z</time>
      </trkpt>
      <trkpt lat="44.38784" lon="5.47753">
        <ele>681.6</ele>
        <time>2023-07-24T10:24:38Z</time>
      </trkpt>
      <trkpt lat="44.38785" lon="5.47761">
        <ele>681.5</ele>
        <time>2023-07-24T10:24:39Z</time>
      </trkpt>
      <trkpt lat="44.38787" lon="5.47769">
        <ele>681.5</ele>
        <time>2023-07-24T10:24:40Z</time>
      </trkpt>
      <trkpt lat="44.38789" lon="5.47777">
        <ele>681.5</ele>
        <time>2023-07-24T10:24:41Z</time>
      </trkpt>
      <trkpt lat="44.38791" lon="5.47785">
        <ele>681.5</ele>
        <time>2023-07-24T10:24:42Z</time>
      </trkpt>
      <trkpt lat="44.38794" lon="5.47793">
        <ele>681.4</ele>
        <time>2023-07-24T10:24:43Z</time>
      </trkpt>
      <trkpt lat="44.38797" lon="5.47801">
        <ele>681.4</ele>
        <time>2023-07-24T10:24:44Z</time>
      </trkpt>
      <trkpt lat="44.388" lon="5.47808">
        <ele>681.4</ele>
        <time>2023-07-24T10:24:45Z</time>
      </trkpt>
      <trkpt lat="44.38804" lon="5.47816">
        <ele>681.3</ele>
        <time>2023-07-24T10:24:46Z</time>
      </trkpt>
      <trkpt lat="44.38808" lon="5.47823">
        <ele>681.3</ele>
        <time>2023-07-24T10:24:47Z</time>
      </trkpt>
      <trkpt lat="44.38812" lon="5.47829">
        <ele>681.3</ele>
        <time>2023-07-24T10:24:48Z</time>
      </trkpt>
      <trkpt lat="44.38816" lon="5.47836">
        <ele>681.3</ele>
        <time>2023-07-24T10:24:49Z</time>
      </trkpt>
      <trkpt lat="44.3882" lon="5.47842">
        <ele>681.3</ele>
        <time>2023-07-24T10:24:50Z</time>
      </trkpt>
      <trkpt lat="44.38825" lon="5.47848">
        <ele>681.3</ele>
        <time>2023-07-24T10:24:51Z</time>
      </trkpt>
      <trkpt lat="44.38831" lon="5.47853">
        <ele>681.3</ele>
        <time>2023-07-24T10:24:52Z</time>
      </trkpt>
      <trkpt lat="44.38836" lon="5.47858">
        <ele>681.3</ele>
        <time>2023-07-24T10:24:53Z</time>
      </trkpt>
      <trkpt lat="44.38841" lon="5.47863">
        <ele>681.3</ele>
        <time>2023-07-24T10:24:54Z</time>
      </trkpt>
      <trkpt lat="44.38847" lon="5.47867">
        <ele>681.3</ele>
        <time>2023-07-24T10:24:55Z</time>
      </trkpt>
      <trkpt lat="44.38852" lon="5.4787">
        <ele>681.2</ele>
        <time>2023-07-24T10:24:56Z</time>
      </trkpt>
      <trkpt lat="44.38858" lon="5.47872">
        <ele>681.2</ele>
        <time>2023-07-24T10:24:57Z</time>
      </trkpt>
      <trkpt lat="44.38864" lon="5.47874">
        <ele>681.2</ele>
        <time>2023-07-24T10:24:58Z</time>
      </trkpt>
      <trkpt lat="44.38871" lon="5.47876">
        <ele>681.2</ele>
        <time>2023-07-24T10:24:59Z</time>
      </trkpt>
      <trkpt lat="44.38876" lon="5.47877">
        <ele>681.2</ele>
        <time>2023-07-24T10:25:00Z</time>
      </trkpt>
      <trkpt lat="44.38883" lon="5.47878">
        <ele>681.1</ele>
        <time>2023-07-24T10:25:01Z</time>
      </trkpt>
      <trkpt lat="44.38889" lon="5.4788">
        <ele>681.1</ele>
        <time>2023-07-24T10:25:02Z</time>
      </trkpt>
      <trkpt lat="44.38895" lon="5.47881">
        <ele>681</ele>
        <time>2023-07-24T10:25:03Z</time>
      </trkpt>
      <trkpt lat="44.389" lon="5.47883">
        <ele>680.9</ele>
        <time>2023-07-24T10:25:04Z</time>
      </trkpt>
      <trkpt lat="44.38906" lon="5.47885">
        <ele>680.9</ele>
        <time>2023-07-24T10:25:05Z</time>
      </trkpt>
      <trkpt lat="44.38912" lon="5.47888">
        <ele>680.8</ele>
        <time>2023-07-24T10:25:06Z</time>
      </trkpt>
      <trkpt lat="44.38918" lon="5.47892">
        <ele>680.8</ele>
        <time>2023-07-24T10:25:07Z</time>
      </trkpt>
      <trkpt lat="44.38923" lon="5.47897">
        <ele>680.7</ele>
        <time>2023-07-24T10:25:08Z</time>
      </trkpt>
      <trkpt lat="44.38928" lon="5.47903">
        <ele>680.7</ele>
        <time>2023-07-24T10:25:09Z</time>
      </trkpt>
      <trkpt lat="44.38931" lon="5.47909">
        <ele>680.7</ele>
        <time>2023-07-24T10:25:10Z</time>
      </trkpt>
      <trkpt lat="44.38934" lon="5.47917">
        <ele>680.8</ele>
        <time>2023-07-24T10:25:11Z</time>
      </trkpt>
      <trkpt lat="44.38937" lon="5.47925">
        <ele>680.8</ele>
        <time>2023-07-24T10:25:12Z</time>
      </trkpt>
      <trkpt lat="44.38938" lon="5.47933">
        <ele>680.8</ele>
        <time>2023-07-24T10:25:13Z</time>
      </trkpt>
      <trkpt lat="44.38939" lon="5.47942">
        <ele>680.9</ele>
        <time>2023-07-24T10:25:14Z</time>
      </trkpt>
      <trkpt lat="44.38939" lon="5.4795">
        <ele>680.9</ele>
        <time>2023-07-24T10:25:15Z</time>
      </trkpt>
      <trkpt lat="44.38938" lon="5.47959">
        <ele>681</ele>
        <time>2023-07-24T10:25:16Z</time>
      </trkpt>
      <trkpt lat="44.38936" lon="5.47967">
        <ele>681.1</ele>
        <time>2023-07-24T10:25:17Z</time>
      </trkpt>
      <trkpt lat="44.38934" lon="5.47975">
        <ele>681.2</ele>
        <time>2023-07-24T10:25:18Z</time>
      </trkpt>
      <trkpt lat="44.38932" lon="5.47983">
        <ele>681.3</ele>
        <time>2023-07-24T10:25:19Z</time>
      </trkpt>
      <trkpt lat="44.38929" lon="5.47991">
        <ele>681.5</ele>
        <time>2023-07-24T10:25:20Z</time>
      </trkpt>
      <trkpt lat="44.38927" lon="5.47999">
        <ele>681.7</ele>
        <time>2023-07-24T10:25:21Z</time>
      </trkpt>
      <trkpt lat="44.38924" lon="5.48006">
        <ele>681.8</ele>
        <time>2023-07-24T10:25:22Z</time>
      </trkpt>
      <trkpt lat="44.38922" lon="5.48013">
        <ele>682</ele>
        <time>2023-07-24T10:25:23Z</time>
      </trkpt>
      <trkpt lat="44.3892" lon="5.48021">
        <ele>682.2</ele>
        <time>2023-07-24T10:25:24Z</time>
      </trkpt>
      <trkpt lat="44.38918" lon="5.48029">
        <ele>682.5</ele>
        <time>2023-07-24T10:25:25Z</time>
      </trkpt>
      <trkpt lat="44.38916" lon="5.48037">
        <ele>682.7</ele>
        <time>2023-07-24T10:25:26Z</time>
      </trkpt>
      <trkpt lat="44.38914" lon="5.48045">
        <ele>682.9</ele>
        <time>2023-07-24T10:25:27Z</time>
      </trkpt>
      <trkpt lat="44.38912" lon="5.48052">
        <ele>683.2</ele>
        <time>2023-07-24T10:25:28Z</time>
      </trkpt>
      <trkpt lat="44.3891" lon="5.4806">
        <ele>683.4</ele>
        <time>2023-07-24T10:25:29Z</time>
      </trkpt>
      <trkpt lat="44.38908" lon="5.48067">
        <ele>683.7</ele>
        <time>2023-07-24T10:25:30Z</time>
      </trkpt>
      <trkpt lat="44.38905" lon="5.48074">
        <ele>684</ele>
        <time>2023-07-24T10:25:31Z</time>
      </trkpt>
      <trkpt lat="44.38903" lon="5.48082">
        <ele>684.3</ele>
        <time>2023-07-24T10:25:32Z</time>
      </trkpt>
      <trkpt lat="44.38901" lon="5.48089">
        <ele>684.6</ele>
        <time>2023-07-24T10:25:33Z</time>
      </trkpt>
      <trkpt lat="44.38898" lon="5.48097">
        <ele>685</ele>
        <time>2023-07-24T10:25:34Z</time>
      </trkpt>
      <trkpt lat="44.38896" lon="5.48105">
        <ele>685.3</ele>
        <time>2023-07-24T10:25:35Z</time>
      </trkpt>
      <trkpt lat="44.38894" lon="5.48112">
        <ele>685.6</ele>
        <time>2023-07-24T10:25:36Z</time>
      </trkpt>
      <trkpt lat="44.38892" lon="5.48119">
        <ele>686</ele>
        <time>2023-07-24T10:25:37Z</time>
      </trkpt>
      <trkpt lat="44.3889" lon="5.48126">
        <ele>686.3</ele>
        <time>2023-07-24T10:25:38Z</time>
      </trkpt>
      <trkpt lat="44.38888" lon="5.48134">
        <ele>686.6</ele>
        <time>2023-07-24T10:25:39Z</time>
      </trkpt>
      <trkpt lat="44.38886" lon="5.48141">
        <ele>686.9</ele>
        <time>2023-07-24T10:25:40Z</time>
      </trkpt>
      <trkpt lat="44.38884" lon="5.48149">
        <ele>687.2</ele>
        <time>2023-07-24T10:25:41Z</time>
      </trkpt>
      <trkpt lat="44.38881" lon="5.48156">
        <ele>687.5</ele>
        <time>2023-07-24T10:25:42Z</time>
      </trkpt>
      <trkpt lat="44.38879" lon="5.48164">
        <ele>687.7</ele>
        <time>2023-07-24T10:25:43Z</time>
      </trkpt>
      <trkpt lat="44.38877" lon="5.48171">
        <ele>688</ele>
        <time>2023-07-24T10:25:44Z</time>
      </trkpt>
      <trkpt lat="44.38875" lon="5.48178">
        <ele>688.2</ele>
        <time>2023-07-24T10:25:45Z</time>
      </trkpt>
      <trkpt lat="44.38872" lon="5.48185">
        <ele>688.4</ele>
        <time>2023-07-24T10:25:46Z</time>
      </trkpt>
      <trkpt lat="44.3887" lon="5.48193">
        <ele>688.7</ele>
        <time>2023-07-24T10:25:47Z</time>
      </trkpt>
      <trkpt lat="44.38868" lon="5.482">
        <ele>688.9</ele>
        <time>2023-07-24T10:25:48Z</time>
      </trkpt>
      <trkpt lat="44.38867" lon="5.48208">
        <ele>689.2</ele>
        <time>2023-07-24T10:25:49Z</time>
      </trkpt>
      <trkpt lat="44.38864" lon="5.48216">
        <ele>689.4</ele>
        <time>2023-07-24T10:25:50Z</time>
      </trkpt>
      <trkpt lat="44.38862" lon="5.48223">
        <ele>689.6</ele>
        <time>2023-07-24T10:25:51Z</time>
      </trkpt>
      <trkpt lat="44.3886" lon="5.48231">
        <ele>689.8</ele>
        <time>2023-07-24T10:25:52Z</time>
      </trkpt>
      <trkpt lat="44.38858" lon="5.48239">
        <ele>690.1</ele>
        <time>2023-07-24T10:25:53Z</time>
      </trkpt>
      <trkpt lat="44.38856" lon="5.48246">
        <ele>690.2</ele>
        <time>2023-07-24T10:25:54Z</time>
      </trkpt>
      <trkpt lat="44.38855" lon="5.48253">
        <ele>690.4</ele>
        <time>2023-07-24T10:25:55Z</time>
      </trkpt>
      <trkpt lat="44.38854" lon="5.48261">
        <ele>690.6</ele>
        <time>2023-07-24T10:25:56Z</time>
      </trkpt>
      <trkpt lat="44.38853" lon="5.48269">
        <ele>690.8</ele>
        <time>2023-07-24T10:25:57Z</time>
      </trkpt>
      <trkpt lat="44.38851" lon="5.48277">
        <ele>691</ele>
        <time>2023-07-24T10:25:58Z</time>
      </trkpt>
      <trkpt lat="44.3885" lon="5.48285">
        <ele>691.2</ele>
        <time>2023-07-24T10:25:59Z</time>
      </trkpt>
      <trkpt lat="44.38849" lon="5.48292">
        <ele>691.4</ele>
        <time>2023-07-24T10:26:00Z</time>
      </trkpt>
      <trkpt lat="44.38847" lon="5.48299">
        <ele>691.6</ele>
        <time>2023-07-24T10:26:01Z</time>
      </trkpt>
      <trkpt lat="44.38846" lon="5.48307">
        <ele>691.7</ele>
        <time>2023-07-24T10:26:02Z</time>
      </trkpt>
      <trkpt lat="44.38845" lon="5.48315">
        <ele>691.9</ele>
        <time>2023-07-24T10:26:03Z</time>
      </trkpt>
      <trkpt lat="44.38843" lon="5.48323">
        <ele>692</ele>
        <time>2023-07-24T10:26:04Z</time>
      </trkpt>
      <trkpt lat="44.38841" lon="5.4833">
        <ele>692.1</ele>
        <time>2023-07-24T10:26:05Z</time>
      </trkpt>
      <trkpt lat="44.3884" lon="5.48338">
        <ele>692.2</ele>
        <time>2023-07-24T10:26:06Z</time>
      </trkpt>
      <trkpt lat="44.38839" lon="5.48346">
        <ele>692.3</ele>
        <time>2023-07-24T10:26:07Z</time>
      </trkpt>
      <trkpt lat="44.38837" lon="5.48354">
        <ele>692.4</ele>
        <time>2023-07-24T10:26:08Z</time>
      </trkpt>
      <trkpt lat="44.38836" lon="5.48361">
        <ele>692.5</ele>
        <time>2023-07-24T10:26:09Z</time>
      </trkpt>
      <trkpt lat="44.38835" lon="5.48368">
        <ele>692.6</ele>
        <time>2023-07-24T10:26:10Z</time>
      </trkpt>
      <trkpt lat="44.38834" lon="5.48376">
        <ele>692.6</ele>
        <time>2023-07-24T10:26:11Z</time>
      </trkpt>
      <trkpt lat="44.38834" lon="5.48385">
        <ele>692.7</ele>
        <time>2023-07-24T10:26:12Z</time>
      </trkpt>
      <trkpt lat="44.38833" lon="5.48393">
        <ele>692.8</ele>
        <time>2023-07-24T10:26:13Z</time>
      </trkpt>
      <trkpt lat="44.38833" lon="5.48401">
        <ele>692.8</ele>
        <time>2023-07-24T10:26:14Z</time>
      </trkpt>
      <trkpt lat="44.38832" lon="5.48408">
        <ele>692.9</ele>
        <time>2023-07-24T10:26:15Z</time>
      </trkpt>
      <trkpt lat="44.38831" lon="5.48416">
        <ele>692.9</ele>
        <time>2023-07-24T10:26:16Z</time>
      </trkpt>
      <trkpt lat="44.38831" lon="5.48425">
        <ele>692.9</ele>
        <time>2023-07-24T10:26:17Z</time>
      </trkpt>
      <trkpt lat="44.3883" lon="5.48433">
        <ele>692.9</ele>
        <time>2023-07-24T10:26:18Z</time>
      </trkpt>
      <trkpt lat="44.3883" lon="5.48441">
        <ele>692.9</ele>
        <time>2023-07-24T10:26:19Z</time>
      </trkpt>
      <trkpt lat="44.38829" lon="5.4845">
        <ele>692.9</ele>
        <time>2023-07-24T10:26:20Z</time>
      </trkpt>
      <trkpt lat="44.38829" lon="5.48458">
        <ele>692.8</ele>
        <time>2023-07-24T10:26:21Z</time>
      </trkpt>
      <trkpt lat="44.38828" lon="5.48466">
        <ele>692.8</ele>
        <time>2023-07-24T10:26:22Z</time>
      </trkpt>
      <trkpt lat="44.38827" lon="5.48474">
        <ele>692.8</ele>
        <time>2023-07-24T10:26:23Z</time>
      </trkpt>
      <trkpt lat="44.38826" lon="5.48483">
        <ele>692.7</ele>
        <time>2023-07-24T10:26:24Z</time>
      </trkpt>
      <trkpt lat="44.38826" lon="5.48491">
        <ele>692.7</ele>
        <time>2023-07-24T10:26:25Z</time>
      </trkpt>
      <trkpt lat="44.38825" lon="5.485">
        <ele>692.5</ele>
        <time>2023-07-24T10:26:26Z</time>
      </trkpt>
      <trkpt lat="44.38823" lon="5.48508">
        <ele>692.4</ele>
        <time>2023-07-24T10:26:27Z</time>
      </trkpt>
      <trkpt lat="44.38821" lon="5.48517">
        <ele>692.2</ele>
        <time>2023-07-24T10:26:28Z</time>
      </trkpt>
      <trkpt lat="44.38818" lon="5.48524">
        <ele>692</ele>
        <time>2023-07-24T10:26:29Z</time>
      </trkpt>
      <trkpt lat="44.38815" lon="5.48532">
        <ele>691.8</ele>
        <time>2023-07-24T10:26:30Z</time>
      </trkpt>
      <trkpt lat="44.38812" lon="5.4854">
        <ele>691.6</ele>
        <time>2023-07-24T10:26:31Z</time>
      </trkpt>
      <trkpt lat="44.38809" lon="5.48547">
        <ele>691.4</ele>
        <time>2023-07-24T10:26:32Z</time>
      </trkpt>
      <trkpt lat="44.38804" lon="5.48554">
        <ele>691.3</ele>
        <time>2023-07-24T10:26:33Z</time>
      </trkpt>
      <trkpt lat="44.388" lon="5.48559">
        <ele>691.2</ele>
        <time>2023-07-24T10:26:34Z</time>
      </trkpt>
      <trkpt lat="44.38795" lon="5.48564">
        <ele>691.1</ele>
        <time>2023-07-24T10:26:35Z</time>
      </trkpt>
      <trkpt lat="44.3879" lon="5.48569">
        <ele>691.1</ele>
        <time>2023-07-24T10:26:36Z</time>
      </trkpt>
      <trkpt lat="44.38786" lon="5.48574">
        <ele>691</ele>
        <time>2023-07-24T10:26:37Z</time>
      </trkpt>
      <trkpt lat="44.38781" lon="5.48579">
        <ele>690.9</ele>
        <time>2023-07-24T10:26:38Z</time>
      </trkpt>
      <trkpt lat="44.38778" lon="5.48585">
        <ele>690.9</ele>
        <time>2023-07-24T10:26:39Z</time>
      </trkpt>
      <trkpt lat="44.38774" lon="5.48592">
        <ele>690.7</ele>
        <time>2023-07-24T10:26:40Z</time>
      </trkpt>
      <trkpt lat="44.38772" lon="5.48599">
        <ele>690.4</ele>
        <time>2023-07-24T10:26:41Z</time>
      </trkpt>
      <trkpt lat="44.38771" lon="5.48607">
        <ele>690.1</ele>
        <time>2023-07-24T10:26:42Z</time>
      </trkpt>
      <trkpt lat="44.38771" lon="5.48616">
        <ele>689.7</ele>
        <time>2023-07-24T10:26:43Z</time>
      </trkpt>
      <trkpt lat="44.38771" lon="5.48625">
        <ele>689.3</ele>
        <time>2023-07-24T10:26:44Z</time>
      </trkpt>
      <trkpt lat="44.38772" lon="5.48633">
        <ele>689</ele>
        <time>2023-07-24T10:26:45Z</time>
      </trkpt>
      <trkpt lat="44.38774" lon="5.48641">
        <ele>688.6</ele>
        <time>2023-07-24T10:26:46Z</time>
      </trkpt>
      <trkpt lat="44.38776" lon="5.4865">
        <ele>688.3</ele>
        <time>2023-07-24T10:26:47Z</time>
      </trkpt>
      <trkpt lat="44.38778" lon="5.48659">
        <ele>687.9</ele>
        <time>2023-07-24T10:26:48Z</time>
      </trkpt>
      <trkpt lat="44.38781" lon="5.48669">
        <ele>687.4</ele>
        <time>2023-07-24T10:26:49Z</time>
      </trkpt>
      <trkpt lat="44.38783" lon="5.48679">
        <ele>687</ele>
        <time>2023-07-24T10:26:50Z</time>
      </trkpt>
      <trkpt lat="44.38786" lon="5.48688">
        <ele>686.6</ele>
        <time>2023-07-24T10:26:51Z</time>
      </trkpt>
      <trkpt lat="44.38789" lon="5.48697">
        <ele>686.2</ele>
        <time>2023-07-24T10:26:52Z</time>
      </trkpt>
      <trkpt lat="44.38791" lon="5.48707">
        <ele>685.8</ele>
        <time>2023-07-24T10:26:53Z</time>
      </trkpt>
      <trkpt lat="44.38794" lon="5.48717">
        <ele>685.4</ele>
        <time>2023-07-24T10:26:54Z</time>
      </trkpt>
      <trkpt lat="44.38797" lon="5.48727">
        <ele>685.1</ele>
        <time>2023-07-24T10:26:55Z</time>
      </trkpt>
      <trkpt lat="44.38799" lon="5.48737">
        <ele>684.7</ele>
        <time>2023-07-24T10:26:56Z</time>
      </trkpt>
      <trkpt lat="44.38802" lon="5.48747">
        <ele>684.4</ele>
        <time>2023-07-24T10:26:57Z</time>
      </trkpt>
      <trkpt lat="44.38804" lon="5.48757">
        <ele>684</ele>
        <time>2023-07-24T10:26:58Z</time>
      </trkpt>
      <trkpt lat="44.38806" lon="5.48768">
        <ele>683.6</ele>
        <time>2023-07-24T10:26:59Z</time>
      </trkpt>
      <trkpt lat="44.38808" lon="5.48778">
        <ele>683.3</ele>
        <time>2023-07-24T10:27:00Z</time>
      </trkpt>
      <trkpt lat="44.38811" lon="5.48787">
        <ele>682.9</ele>
        <time>2023-07-24T10:27:01Z</time>
      </trkpt>
      <trkpt lat="44.38814" lon="5.48796">
        <ele>682.6</ele>
        <time>2023-07-24T10:27:02Z</time>
      </trkpt>
      <trkpt lat="44.38818" lon="5.48806">
        <ele>682.2</ele>
        <time>2023-07-24T10:27:03Z</time>
      </trkpt>
      <trkpt lat="44.38822" lon="5.48815">
        <ele>681.8</ele>
        <time>2023-07-24T10:27:04Z</time>
      </trkpt>
      <trkpt lat="44.38827" lon="5.48824">
        <ele>681.4</ele>
        <time>2023-07-24T10:27:05Z</time>
      </trkpt>
      <trkpt lat="44.38832" lon="5.48832">
        <ele>681</ele>
        <time>2023-07-24T10:27:06Z</time>
      </trkpt>
      <trkpt lat="44.38838" lon="5.4884">
        <ele>680.6</ele>
        <time>2023-07-24T10:27:07Z</time>
      </trkpt>
      <trkpt lat="44.38845" lon="5.48848">
        <ele>680.3</ele>
        <time>2023-07-24T10:27:08Z</time>
      </trkpt>
      <trkpt lat="44.38851" lon="5.48857">
        <ele>679.9</ele>
        <time>2023-07-24T10:27:09Z</time>
      </trkpt>
      <trkpt lat="44.38857" lon="5.48866">
        <ele>679.6</ele>
        <time>2023-07-24T10:27:10Z</time>
      </trkpt>
      <trkpt lat="44.38862" lon="5.48875">
        <ele>679.3</ele>
        <time>2023-07-24T10:27:11Z</time>
      </trkpt>
      <trkpt lat="44.38866" lon="5.48885">
        <ele>679</ele>
        <time>2023-07-24T10:27:12Z</time>
      </trkpt>
      <trkpt lat="44.38871" lon="5.48895">
        <ele>678.7</ele>
        <time>2023-07-24T10:27:13Z</time>
      </trkpt>
      <trkpt lat="44.38874" lon="5.48904">
        <ele>678.4</ele>
        <time>2023-07-24T10:27:14Z</time>
      </trkpt>
      <trkpt lat="44.38878" lon="5.48915">
        <ele>678.2</ele>
        <time>2023-07-24T10:27:15Z</time>
      </trkpt>
      <trkpt lat="44.3888" lon="5.48926">
        <ele>678</ele>
        <time>2023-07-24T10:27:16Z</time>
      </trkpt>
      <trkpt lat="44.38883" lon="5.48936">
        <ele>677.7</ele>
        <time>2023-07-24T10:27:17Z</time>
      </trkpt>
      <trkpt lat="44.38885" lon="5.48947">
        <ele>677.5</ele>
        <time>2023-07-24T10:27:18Z</time>
      </trkpt>
      <trkpt lat="44.38887" lon="5.48958">
        <ele>677.3</ele>
        <time>2023-07-24T10:27:19Z</time>
      </trkpt>
      <trkpt lat="44.38889" lon="5.48968">
        <ele>677.1</ele>
        <time>2023-07-24T10:27:20Z</time>
      </trkpt>
      <trkpt lat="44.38891" lon="5.48977">
        <ele>676.9</ele>
        <time>2023-07-24T10:27:21Z</time>
      </trkpt>
      <trkpt lat="44.38893" lon="5.48987">
        <ele>676.8</ele>
        <time>2023-07-24T10:27:22Z</time>
      </trkpt>
      <trkpt lat="44.38896" lon="5.48997">
        <ele>676.6</ele>
        <time>2023-07-24T10:27:23Z</time>
      </trkpt>
      <trkpt lat="44.38898" lon="5.49006">
        <ele>676.5</ele>
        <time>2023-07-24T10:27:24Z</time>
      </trkpt>
      <trkpt lat="44.38901" lon="5.49015">
        <ele>676.5</ele>
        <time>2023-07-24T10:27:25Z</time>
      </trkpt>
      <trkpt lat="44.38903" lon="5.49024">
        <ele>676.4</ele>
        <time>2023-07-24T10:27:26Z</time>
      </trkpt>
      <trkpt lat="44.38905" lon="5.49033">
        <ele>676.3</ele>
        <time>2023-07-24T10:27:27Z</time>
      </trkpt>
      <trkpt lat="44.38907" lon="5.49042">
        <ele>676.1</ele>
        <time>2023-07-24T10:27:28Z</time>
      </trkpt>
      <trkpt lat="44.3891" lon="5.4905">
        <ele>676</ele>
        <time>2023-07-24T10:27:29Z</time>
      </trkpt>
      <trkpt lat="44.38913" lon="5.49058">
        <ele>675.9</ele>
        <time>2023-07-24T10:27:30Z</time>
      </trkpt>
      <trkpt lat="44.38916" lon="5.49066">
        <ele>675.7</ele>
        <time>2023-07-24T10:27:31Z</time>
      </trkpt>
      <trkpt lat="44.38919" lon="5.49074">
        <ele>675.6</ele>
        <time>2023-07-24T10:27:32Z</time>
      </trkpt>
      <trkpt lat="44.38921" lon="5.49082">
        <ele>675.4</ele>
        <time>2023-07-24T10:27:33Z</time>
      </trkpt>
      <trkpt lat="44.38924" lon="5.49091">
        <ele>675.3</ele>
        <time>2023-07-24T10:27:34Z</time>
      </trkpt>
      <trkpt lat="44.38927" lon="5.49099">
        <ele>675.1</ele>
        <time>2023-07-24T10:27:35Z</time>
      </trkpt>
      <trkpt lat="44.3893" lon="5.49107">
        <ele>675</ele>
        <time>2023-07-24T10:27:36Z</time>
      </trkpt>
      <trkpt lat="44.38933" lon="5.49115">
        <ele>674.8</ele>
        <time>2023-07-24T10:27:37Z</time>
      </trkpt>
      <trkpt lat="44.38937" lon="5.49123">
        <ele>674.6</ele>
        <time>2023-07-24T10:27:38Z</time>
      </trkpt>
      <trkpt lat="44.3894" lon="5.49132">
        <ele>674.4</ele>
        <time>2023-07-24T10:27:39Z</time>
      </trkpt>
      <trkpt lat="44.38943" lon="5.49139">
        <ele>674.2</ele>
        <time>2023-07-24T10:27:40Z</time>
      </trkpt>
      <trkpt lat="44.38948" lon="5.49147">
        <ele>673.9</ele>
        <time>2023-07-24T10:27:41Z</time>
      </trkpt>
      <trkpt lat="44.38953" lon="5.49154">
        <ele>673.7</ele>
        <time>2023-07-24T10:27:42Z</time>
      </trkpt>
      <trkpt lat="44.38958" lon="5.4916">
        <ele>673.4</ele>
        <time>2023-07-24T10:27:43Z</time>
      </trkpt>
      <trkpt lat="44.38964" lon="5.49165">
        <ele>673.1</ele>
        <time>2023-07-24T10:27:44Z</time>
      </trkpt>
      <trkpt lat="44.3897" lon="5.49171">
        <ele>672.7</ele>
        <time>2023-07-24T10:27:45Z</time>
      </trkpt>
      <trkpt lat="44.38977" lon="5.49176">
        <ele>672.4</ele>
        <time>2023-07-24T10:27:46Z</time>
      </trkpt>
      <trkpt lat="44.38983" lon="5.49182">
        <ele>672.1</ele>
        <time>2023-07-24T10:27:47Z</time>
      </trkpt>
      <trkpt lat="44.38989" lon="5.49188">
        <ele>671.8</ele>
        <time>2023-07-24T10:27:48Z</time>
      </trkpt>
      <trkpt lat="44.38995" lon="5.49194">
        <ele>671.4</ele>
        <time>2023-07-24T10:27:49Z</time>
      </trkpt>
      <trkpt lat="44.39001" lon="5.492">
        <ele>671.1</ele>
        <time>2023-07-24T10:27:50Z</time>
      </trkpt>
      <trkpt lat="44.39007" lon="5.49206">
        <ele>670.8</ele>
        <time>2023-07-24T10:27:51Z</time>
      </trkpt>
      <trkpt lat="44.39014" lon="5.49213">
        <ele>670.5</ele>
        <time>2023-07-24T10:27:52Z</time>
      </trkpt>
      <trkpt lat="44.3902" lon="5.4922">
        <ele>670.3</ele>
        <time>2023-07-24T10:27:53Z</time>
      </trkpt>
      <trkpt lat="44.39026" lon="5.49228">
        <ele>670.1</ele>
        <time>2023-07-24T10:27:54Z</time>
      </trkpt>
      <trkpt lat="44.3903" lon="5.49237">
        <ele>669.9</ele>
        <time>2023-07-24T10:27:55Z</time>
      </trkpt>
      <trkpt lat="44.39034" lon="5.49248">
        <ele>669.8</ele>
        <time>2023-07-24T10:27:56Z</time>
      </trkpt>
      <trkpt lat="44.39036" lon="5.49258">
        <ele>669.8</ele>
        <time>2023-07-24T10:27:57Z</time>
      </trkpt>
      <trkpt lat="44.39038" lon="5.49269">
        <ele>669.8</ele>
        <time>2023-07-24T10:27:58Z</time>
      </trkpt>
      <trkpt lat="44.39038" lon="5.4928">
        <ele>669.9</ele>
        <time>2023-07-24T10:27:59Z</time>
      </trkpt>
      <trkpt lat="44.39037" lon="5.4929">
        <ele>670</ele>
        <time>2023-07-24T10:28:00Z</time>
      </trkpt>
      <trkpt lat="44.39036" lon="5.49299">
        <ele>670.2</ele>
        <time>2023-07-24T10:28:01Z</time>
      </trkpt>
      <trkpt lat="44.39034" lon="5.49308">
        <ele>670.3</ele>
        <time>2023-07-24T10:28:02Z</time>
      </trkpt>
      <trkpt lat="44.39032" lon="5.49316">
        <ele>670.4</ele>
        <time>2023-07-24T10:28:03Z</time>
      </trkpt>
      <trkpt lat="44.3903" lon="5.49324">
        <ele>670.5</ele>
        <time>2023-07-24T10:28:04Z</time>
      </trkpt>
      <trkpt lat="44.39028" lon="5.49332">
        <ele>670.7</ele>
        <time>2023-07-24T10:28:05Z</time>
      </trkpt>
      <trkpt lat="44.39026" lon="5.4934">
        <ele>670.8</ele>
        <time>2023-07-24T10:28:06Z</time>
      </trkpt>
      <trkpt lat="44.39024" lon="5.49348">
        <ele>670.9</ele>
        <time>2023-07-24T10:28:07Z</time>
      </trkpt>
      <trkpt lat="44.39022" lon="5.49355">
        <ele>671</ele>
        <time>2023-07-24T10:28:08Z</time>
      </trkpt>
      <trkpt lat="44.3902" lon="5.49363">
        <ele>671.1</ele>
        <time>2023-07-24T10:28:09Z</time>
      </trkpt>
      <trkpt lat="44.39019" lon="5.49371">
        <ele>671.1</ele>
        <time>2023-07-24T10:28:10Z</time>
      </trkpt>
      <trkpt lat="44.39018" lon="5.49379">
        <ele>671.1</ele>
        <time>2023-07-24T10:28:11Z</time>
      </trkpt>
      <trkpt lat="44.39018" lon="5.49387">
        <ele>671</ele>
        <time>2023-07-24T10:28:12Z</time>
      </trkpt>
      <trkpt lat="44.39019" lon="5.49395">
        <ele>670.9</ele>
        <time>2023-07-24T10:28:13Z</time>
      </trkpt>
      <trkpt lat="44.39021" lon="5.49404">
        <ele>670.6</ele>
        <time>2023-07-24T10:28:14Z</time>
      </trkpt>
      <trkpt lat="44.39024" lon="5.49412">
        <ele>670.3</ele>
        <time>2023-07-24T10:28:15Z</time>
      </trkpt>
      <trkpt lat="44.39028" lon="5.49421">
        <ele>670</ele>
        <time>2023-07-24T10:28:16Z</time>
      </trkpt>
      <trkpt lat="44.39032" lon="5.4943">
        <ele>669.6</ele>
        <time>2023-07-24T10:28:17Z</time>
      </trkpt>
      <trkpt lat="44.39036" lon="5.49438">
        <ele>669.3</ele>
        <time>2023-07-24T10:28:18Z</time>
      </trkpt>
      <trkpt lat="44.3904" lon="5.49447">
        <ele>669.1</ele>
        <time>2023-07-24T10:28:19Z</time>
      </trkpt>
      <trkpt lat="44.39045" lon="5.49455">
        <ele>668.9</ele>
        <time>2023-07-24T10:28:20Z</time>
      </trkpt>
      <trkpt lat="44.39049" lon="5.49463">
        <ele>668.7</ele>
        <time>2023-07-24T10:28:21Z</time>
      </trkpt>
      <trkpt lat="44.39052" lon="5.49471">
        <ele>668.5</ele>
        <time>2023-07-24T10:28:22Z</time>
      </trkpt>
      <trkpt lat="44.39056" lon="5.49479">
        <ele>668.3</ele>
        <time>2023-07-24T10:28:23Z</time>
      </trkpt>
      <trkpt lat="44.3906" lon="5.49487">
        <ele>668.2</ele>
        <time>2023-07-24T10:28:24Z</time>
      </trkpt>
      <trkpt lat="44.39064" lon="5.49495">
        <ele>668</ele>
        <time>2023-07-24T10:28:25Z</time>
      </trkpt>
      <trkpt lat="44.39068" lon="5.49504">
        <ele>667.9</ele>
        <time>2023-07-24T10:28:26Z</time>
      </trkpt>
      <trkpt lat="44.39072" lon="5.49512">
        <ele>667.7</ele>
        <time>2023-07-24T10:28:27Z</time>
      </trkpt>
      <trkpt lat="44.39076" lon="5.4952">
        <ele>667.5</ele>
        <time>2023-07-24T10:28:28Z</time>
      </trkpt>
      <trkpt lat="44.3908" lon="5.49528">
        <ele>667.4</ele>
        <time>2023-07-24T10:28:29Z</time>
      </trkpt>
      <trkpt lat="44.39083" lon="5.49536">
        <ele>667.2</ele>
        <time>2023-07-24T10:28:30Z</time>
      </trkpt>
      <trkpt lat="44.39087" lon="5.49543">
        <ele>667</ele>
        <time>2023-07-24T10:28:31Z</time>
      </trkpt>
      <trkpt lat="44.39091" lon="5.49551">
        <ele>666.8</ele>
        <time>2023-07-24T10:28:32Z</time>
      </trkpt>
      <trkpt lat="44.39095" lon="5.49559">
        <ele>666.6</ele>
        <time>2023-07-24T10:28:33Z</time>
      </trkpt>
      <trkpt lat="44.39099" lon="5.49567">
        <ele>666.4</ele>
        <time>2023-07-24T10:28:34Z</time>
      </trkpt>
      <trkpt lat="44.39103" lon="5.49575">
        <ele>666.2</ele>
        <time>2023-07-24T10:28:35Z</time>
      </trkpt>
      <trkpt lat="44.39107" lon="5.49583">
        <ele>665.9</ele>
        <time>2023-07-24T10:28:36Z</time>
      </trkpt>
      <trkpt lat="44.3911" lon="5.49591">
        <ele>665.8</ele>
        <time>2023-07-24T10:28:37Z</time>
      </trkpt>
      <trkpt lat="44.39114" lon="5.49599">
        <ele>665.6</ele>
        <time>2023-07-24T10:28:38Z</time>
      </trkpt>
      <trkpt lat="44.39118" lon="5.49607">
        <ele>665.4</ele>
        <time>2023-07-24T10:28:39Z</time>
      </trkpt>
      <trkpt lat="44.39121" lon="5.49616">
        <ele>665.2</ele>
        <time>2023-07-24T10:28:40Z</time>
      </trkpt>
      <trkpt lat="44.39123" lon="5.49625">
        <ele>665.1</ele>
        <time>2023-07-24T10:28:41Z</time>
      </trkpt>
      <trkpt lat="44.39124" lon="5.49633">
        <ele>665.1</ele>
        <time>2023-07-24T10:28:42Z</time>
      </trkpt>
      <trkpt lat="44.39125" lon="5.49642">
        <ele>665.1</ele>
        <time>2023-07-24T10:28:43Z</time>
      </trkpt>
      <trkpt lat="44.39125" lon="5.49651">
        <ele>665.1</ele>
        <time>2023-07-24T10:28:44Z</time>
      </trkpt>
      <trkpt lat="44.39125" lon="5.49661">
        <ele>665.1</ele>
        <time>2023-07-24T10:28:45Z</time>
      </trkpt>
      <trkpt lat="44.39124" lon="5.49669">
        <ele>665.1</ele>
        <time>2023-07-24T10:28:46Z</time>
      </trkpt>
      <trkpt lat="44.39123" lon="5.49677">
        <ele>665.1</ele>
        <time>2023-07-24T10:28:47Z</time>
      </trkpt>
      <trkpt lat="44.39122" lon="5.49686">
        <ele>665</ele>
        <time>2023-07-24T10:28:48Z</time>
      </trkpt>
      <trkpt lat="44.39121" lon="5.49695">
        <ele>664.9</ele>
        <time>2023-07-24T10:28:49Z</time>
      </trkpt>
      <trkpt lat="44.39121" lon="5.49704">
        <ele>664.9</ele>
        <time>2023-07-24T10:28:50Z</time>
      </trkpt>
      <trkpt lat="44.39121" lon="5.49712">
        <ele>664.8</ele>
        <time>2023-07-24T10:28:51Z</time>
      </trkpt>
      <trkpt lat="44.39122" lon="5.49721">
        <ele>664.6</ele>
        <time>2023-07-24T10:28:52Z</time>
      </trkpt>
      <trkpt lat="44.39124" lon="5.4973">
        <ele>664.5</ele>
        <time>2023-07-24T10:28:53Z</time>
      </trkpt>
      <trkpt lat="44.39125" lon="5.49738">
        <ele>664.3</ele>
        <time>2023-07-24T10:28:54Z</time>
      </trkpt>
      <trkpt lat="44.39128" lon="5.49746">
        <ele>664.1</ele>
        <time>2023-07-24T10:28:55Z</time>
      </trkpt>
      <trkpt lat="44.39131" lon="5.49754">
        <ele>663.8</ele>
        <time>2023-07-24T10:28:56Z</time>
      </trkpt>
      <trkpt lat="44.39135" lon="5.4976">
        <ele>663.6</ele>
        <time>2023-07-24T10:28:57Z</time>
      </trkpt>
      <trkpt lat="44.39141" lon="5.49765">
        <ele>663.3</ele>
        <time>2023-07-24T10:28:58Z</time>
      </trkpt>
      <trkpt lat="44.39146" lon="5.49772">
        <ele>663</ele>
        <time>2023-07-24T10:28:59Z</time>
      </trkpt>
      <trkpt lat="44.39152" lon="5.49778">
        <ele>662.8</ele>
        <time>2023-07-24T10:29:00Z</time>
      </trkpt>
      <trkpt lat="44.39157" lon="5.49785">
        <ele>662.6</ele>
        <time>2023-07-24T10:29:01Z</time>
      </trkpt>
      <trkpt lat="44.39163" lon="5.49791">
        <ele>662.5</ele>
        <time>2023-07-24T10:29:02Z</time>
      </trkpt>
      <trkpt lat="44.39168" lon="5.49798">
        <ele>662.3</ele>
        <time>2023-07-24T10:29:03Z</time>
      </trkpt>
      <trkpt lat="44.39173" lon="5.49804">
        <ele>662.2</ele>
        <time>2023-07-24T10:29:04Z</time>
      </trkpt>
      <trkpt lat="44.39179" lon="5.4981">
        <ele>662</ele>
        <time>2023-07-24T10:29:05Z</time>
      </trkpt>
      <trkpt lat="44.39185" lon="5.49815">
        <ele>661.8</ele>
        <time>2023-07-24T10:29:06Z</time>
      </trkpt>
      <trkpt lat="44.39191" lon="5.49818">
        <ele>661.6</ele>
        <time>2023-07-24T10:29:07Z</time>
      </trkpt>
      <trkpt lat="44.39198" lon="5.49821">
        <ele>661.4</ele>
        <time>2023-07-24T10:29:08Z</time>
      </trkpt>
      <trkpt lat="44.39204" lon="5.49823">
        <ele>661.2</ele>
        <time>2023-07-24T10:29:09Z</time>
      </trkpt>
      <trkpt lat="44.39211" lon="5.49826">
        <ele>661</ele>
        <time>2023-07-24T10:29:10Z</time>
      </trkpt>
      <trkpt lat="44.39218" lon="5.4983">
        <ele>660.9</ele>
        <time>2023-07-24T10:29:11Z</time>
      </trkpt>
      <trkpt lat="44.39224" lon="5.49834">
        <ele>660.8</ele>
        <time>2023-07-24T10:29:12Z</time>
      </trkpt>
      <trkpt lat="44.3923" lon="5.4984">
        <ele>660.8</ele>
        <time>2023-07-24T10:29:13Z</time>
      </trkpt>
      <trkpt lat="44.39236" lon="5.49846">
        <ele>660.7</ele>
        <time>2023-07-24T10:29:14Z</time>
      </trkpt>
      <trkpt lat="44.3924" lon="5.49853">
        <ele>660.6</ele>
        <time>2023-07-24T10:29:15Z</time>
      </trkpt>
      <trkpt lat="44.39244" lon="5.49861">
        <ele>660.5</ele>
        <time>2023-07-24T10:29:16Z</time>
      </trkpt>
      <trkpt lat="44.39246" lon="5.49869">
        <ele>660.4</ele>
        <time>2023-07-24T10:29:17Z</time>
      </trkpt>
      <trkpt lat="44.39248" lon="5.49878">
        <ele>660.3</ele>
        <time>2023-07-24T10:29:18Z</time>
      </trkpt>
      <trkpt lat="44.39251" lon="5.49886">
        <ele>660.2</ele>
        <time>2023-07-24T10:29:19Z</time>
      </trkpt>
      <trkpt lat="44.39254" lon="5.49895">
        <ele>660.2</ele>
        <time>2023-07-24T10:29:20Z</time>
      </trkpt>
      <trkpt lat="44.39257" lon="5.49903">
        <ele>660.1</ele>
        <time>2023-07-24T10:29:21Z</time>
      </trkpt>
      <trkpt lat="44.3926" lon="5.49912">
        <ele>660.1</ele>
        <time>2023-07-24T10:29:22Z</time>
      </trkpt>
      <trkpt lat="44.39263" lon="5.4992">
        <ele>660.1</ele>
        <time>2023-07-24T10:29:23Z</time>
      </trkpt>
      <trkpt lat="44.39265" lon="5.49928">
        <ele>660.1</ele>
        <time>2023-07-24T10:29:24Z</time>
      </trkpt>
      <trkpt lat="44.39266" lon="5.49937">
        <ele>660.2</ele>
        <time>2023-07-24T10:29:25Z</time>
      </trkpt>
      <trkpt lat="44.39266" lon="5.49946">
        <ele>660.3</ele>
        <time>2023-07-24T10:29:26Z</time>
      </trkpt>
      <trkpt lat="44.39263" lon="5.49954">
        <ele>660.3</ele>
        <time>2023-07-24T10:29:27Z</time>
      </trkpt>
      <trkpt lat="44.39258" lon="5.4996">
        <ele>660.4</ele>
        <time>2023-07-24T10:29:28Z</time>
      </trkpt>
      <trkpt lat="44.39253" lon="5.49964">
        <ele>660.4</ele>
        <time>2023-07-24T10:29:29Z</time>
      </trkpt>
      <trkpt lat="44.39246" lon="5.49966">
        <ele>660.6</ele>
        <time>2023-07-24T10:29:30Z</time>
      </trkpt>
      <trkpt lat="44.3924" lon="5.49966">
        <ele>660.7</ele>
        <time>2023-07-24T10:29:31Z</time>
      </trkpt>
      <trkpt lat="44.39235" lon="5.49966">
        <ele>660.8</ele>
        <time>2023-07-24T10:29:32Z</time>
      </trkpt>
      <trkpt lat="44.39229" lon="5.49964">
        <ele>660.9</ele>
        <time>2023-07-24T10:29:33Z</time>
      </trkpt>
      <trkpt lat="44.39224" lon="5.49961">
        <ele>661</ele>
        <time>2023-07-24T10:29:34Z</time>
      </trkpt>
      <trkpt lat="44.39219" lon="5.49957">
        <ele>661.2</ele>
        <time>2023-07-24T10:29:35Z</time>
      </trkpt>
      <trkpt lat="44.39215" lon="5.49954">
        <ele>661.3</ele>
        <time>2023-07-24T10:29:36Z</time>
      </trkpt>
      <trkpt lat="44.39209" lon="5.49952">
        <ele>661.5</ele>
        <time>2023-07-24T10:29:37Z</time>
      </trkpt>
      <trkpt lat="44.39204" lon="5.4995">
        <ele>661.6</ele>
        <time>2023-07-24T10:29:38Z</time>
      </trkpt>
      <trkpt lat="44.39198" lon="5.49948">
        <ele>661.8</ele>
        <time>2023-07-24T10:29:39Z</time>
      </trkpt>
      <trkpt lat="44.39193" lon="5.49947">
        <ele>661.9</ele>
        <time>2023-07-24T10:29:40Z</time>
      </trkpt>
      <trkpt lat="44.39188" lon="5.49946">
        <ele>662.1</ele>
        <time>2023-07-24T10:29:41Z</time>
      </trkpt>
      <trkpt lat="44.39183" lon="5.49946">
        <ele>662.2</ele>
        <time>2023-07-24T10:29:42Z</time>
      </trkpt>
      <trkpt lat="44.39179" lon="5.49945">
        <ele>662.3</ele>
        <time>2023-07-24T10:29:43Z</time>
      </trkpt>
      <trkpt lat="44.39173" lon="5.49944">
        <ele>662.4</ele>
        <time>2023-07-24T10:29:44Z</time>
      </trkpt>
      <trkpt lat="44.39168" lon="5.49943">
        <ele>662.5</ele>
        <time>2023-07-24T10:29:45Z</time>
      </trkpt>
      <trkpt lat="44.39163" lon="5.49941">
        <ele>662.6</ele>
        <time>2023-07-24T10:29:46Z</time>
      </trkpt>
      <trkpt lat="44.39158" lon="5.49938">
        <ele>662.7</ele>
        <time>2023-07-24T10:29:47Z</time>
      </trkpt>
      <trkpt lat="44.39153" lon="5.49936">
        <ele>662.8</ele>
        <time>2023-07-24T10:29:48Z</time>
      </trkpt>
      <trkpt lat="44.39148" lon="5.49934">
        <ele>662.9</ele>
        <time>2023-07-24T10:29:49Z</time>
      </trkpt>
      <trkpt lat="44.39143" lon="5.49931">
        <ele>663</ele>
        <time>2023-07-24T10:29:50Z</time>
      </trkpt>
      <trkpt lat="44.39138" lon="5.49928">
        <ele>663.1</ele>
        <time>2023-07-24T10:29:51Z</time>
      </trkpt>
      <trkpt lat="44.39133" lon="5.49925">
        <ele>663.2</ele>
        <time>2023-07-24T10:29:52Z</time>
      </trkpt>
      <trkpt lat="44.39128" lon="5.49922">
        <ele>663.3</ele>
        <time>2023-07-24T10:29:53Z</time>
      </trkpt>
      <trkpt lat="44.39123" lon="5.49919">
        <ele>663.5</ele>
        <time>2023-07-24T10:29:54Z</time>
      </trkpt>
      <trkpt lat="44.39118" lon="5.49916">
        <ele>663.6</ele>
        <time>2023-07-24T10:29:55Z</time>
      </trkpt>
      <trkpt lat="44.39113" lon="5.49913">
        <ele>663.7</ele>
        <time>2023-07-24T10:29:56Z</time>
      </trkpt>
      <trkpt lat="44.39108" lon="5.4991">
        <ele>663.9</ele>
        <time>2023-07-24T10:29:57Z</time>
      </trkpt>
      <trkpt lat="44.39103" lon="5.49907">
        <ele>664.1</ele>
        <time>2023-07-24T10:29:58Z</time>
      </trkpt>
      <trkpt lat="44.39097" lon="5.49905">
        <ele>664.2</ele>
        <time>2023-07-24T10:29:59Z</time>
      </trkpt>
      <trkpt lat="44.39092" lon="5.49903">
        <ele>664.4</ele>
        <time>2023-07-24T10:30:00Z</time>
      </trkpt>
      <trkpt lat="44.39086" lon="5.49902">
        <ele>664.5</ele>
        <time>2023-07-24T10:30:01Z</time>
      </trkpt>
      <trkpt lat="44.3908" lon="5.49901">
        <ele>664.7</ele>
        <time>2023-07-24T10:30:02Z</time>
      </trkpt>
      <trkpt lat="44.39075" lon="5.49901">
        <ele>664.8</ele>
        <time>2023-07-24T10:30:03Z</time>
      </trkpt>
      <trkpt lat="44.39069" lon="5.49901">
        <ele>665</ele>
        <time>2023-07-24T10:30:04Z</time>
      </trkpt>
      <trkpt lat="44.39063" lon="5.49902">
        <ele>665.1</ele>
        <time>2023-07-24T10:30:05Z</time>
      </trkpt>
      <trkpt lat="44.39058" lon="5.49903">
        <ele>665.3</ele>
        <time>2023-07-24T10:30:06Z</time>
      </trkpt>
      <trkpt lat="44.39052" lon="5.49904">
        <ele>665.4</ele>
        <time>2023-07-24T10:30:07Z</time>
      </trkpt>
      <trkpt lat="44.39046" lon="5.49905">
        <ele>665.6</ele>
        <time>2023-07-24T10:30:08Z</time>
      </trkpt>
      <trkpt lat="44.3904" lon="5.49907">
        <ele>665.8</ele>
        <time>2023-07-24T10:30:09Z</time>
      </trkpt>
      <trkpt lat="44.39035" lon="5.49909">
        <ele>665.9</ele>
        <time>2023-07-24T10:30:10Z</time>
      </trkpt>
      <trkpt lat="44.39029" lon="5.49912">
        <ele>666.1</ele>
        <time>2023-07-24T10:30:11Z</time>
      </trkpt>
      <trkpt lat="44.39024" lon="5.49914">
        <ele>666.3</ele>
        <time>2023-07-24T10:30:12Z</time>
      </trkpt>
      <trkpt lat="44.39019" lon="5.49917">
        <ele>666.5</ele>
        <time>2023-07-24T10:30:13Z</time>
      </trkpt>
      <trkpt lat="44.39013" lon="5.49921">
        <ele>666.7</ele>
        <time>2023-07-24T10:30:14Z</time>
      </trkpt>
      <trkpt lat="44.39008" lon="5.49924">
        <ele>666.8</ele>
        <time>2023-07-24T10:30:15Z</time>
      </trkpt>
      <trkpt lat="44.39003" lon="5.49927">
        <ele>667</ele>
        <time>2023-07-24T10:30:16Z</time>
      </trkpt>
      <trkpt lat="44.38998" lon="5.4993">
        <ele>667.1</ele>
        <time>2023-07-24T10:30:17Z</time>
      </trkpt>
      <trkpt lat="44.38994" lon="5.49935">
        <ele>667.3</ele>
        <time>2023-07-24T10:30:18Z</time>
      </trkpt>
      <trkpt lat="44.38989" lon="5.49941">
        <ele>667.4</ele>
        <time>2023-07-24T10:30:19Z</time>
      </trkpt>
      <trkpt lat="44.38986" lon="5.49949">
        <ele>667.5</ele>
        <time>2023-07-24T10:30:20Z</time>
      </trkpt>
      <trkpt lat="44.38983" lon="5.49956">
        <ele>667.7</ele>
        <time>2023-07-24T10:30:21Z</time>
      </trkpt>
      <trkpt lat="44.38982" lon="5.49964">
        <ele>667.8</ele>
        <time>2023-07-24T10:30:22Z</time>
      </trkpt>
      <trkpt lat="44.38981" lon="5.49972">
        <ele>667.9</ele>
        <time>2023-07-24T10:30:23Z</time>
      </trkpt>
      <trkpt lat="44.38981" lon="5.49979">
        <ele>668</ele>
        <time>2023-07-24T10:30:24Z</time>
      </trkpt>
      <trkpt lat="44.38981" lon="5.49986">
        <ele>668.1</ele>
        <time>2023-07-24T10:30:25Z</time>
      </trkpt>
      <trkpt lat="44.38981" lon="5.49993">
        <ele>668.3</ele>
        <time>2023-07-24T10:30:26Z</time>
      </trkpt>
      <trkpt lat="44.38981" lon="5.50001">
        <ele>668.4</ele>
        <time>2023-07-24T10:30:27Z</time>
      </trkpt>
      <trkpt lat="44.38981" lon="5.50009">
        <ele>668.6</ele>
        <time>2023-07-24T10:30:28Z</time>
      </trkpt>
      <trkpt lat="44.3898" lon="5.50018">
        <ele>668.7</ele>
        <time>2023-07-24T10:30:29Z</time>
      </trkpt>
      <trkpt lat="44.3898" lon="5.50026">
        <ele>668.9</ele>
        <time>2023-07-24T10:30:30Z</time>
      </trkpt>
      <trkpt lat="44.3898" lon="5.50034">
        <ele>669.1</ele>
        <time>2023-07-24T10:30:31Z</time>
      </trkpt>
      <trkpt lat="44.3898" lon="5.50042">
        <ele>669.3</ele>
        <time>2023-07-24T10:30:32Z</time>
      </trkpt>
      <trkpt lat="44.3898" lon="5.5005">
        <ele>669.4</ele>
        <time>2023-07-24T10:30:33Z</time>
      </trkpt>
      <trkpt lat="44.3898" lon="5.50057">
        <ele>669.6</ele>
        <time>2023-07-24T10:30:34Z</time>
      </trkpt>
      <trkpt lat="44.3898" lon="5.50065">
        <ele>669.7</ele>
        <time>2023-07-24T10:30:35Z</time>
      </trkpt>
      <trkpt lat="44.3898" lon="5.50073">
        <ele>669.9</ele>
        <time>2023-07-24T10:30:36Z</time>
      </trkpt>
      <trkpt lat="44.3898" lon="5.50081">
        <ele>670.1</ele>
        <time>2023-07-24T10:30:37Z</time>
      </trkpt>
      <trkpt lat="44.38979" lon="5.50089">
        <ele>670.3</ele>
        <time>2023-07-24T10:30:38Z</time>
      </trkpt>
      <trkpt lat="44.38979" lon="5.50097">
        <ele>670.4</ele>
        <time>2023-07-24T10:30:39Z</time>
      </trkpt>
      <trkpt lat="44.38979" lon="5.50105">
        <ele>670.6</ele>
        <time>2023-07-24T10:30:40Z</time>
      </trkpt>
      <trkpt lat="44.38979" lon="5.50113">
        <ele>670.8</ele>
        <time>2023-07-24T10:30:41Z</time>
      </trkpt>
      <trkpt lat="44.3898" lon="5.50121">
        <ele>671</ele>
        <time>2023-07-24T10:30:42Z</time>
      </trkpt>
      <trkpt lat="44.3898" lon="5.50129">
        <ele>671.2</ele>
        <time>2023-07-24T10:30:43Z</time>
      </trkpt>
      <trkpt lat="44.38979" lon="5.50137">
        <ele>671.4</ele>
        <time>2023-07-24T10:30:44Z</time>
      </trkpt>
      <trkpt lat="44.38979" lon="5.50145">
        <ele>671.5</ele>
        <time>2023-07-24T10:30:45Z</time>
      </trkpt>
      <trkpt lat="44.38978" lon="5.50152">
        <ele>671.7</ele>
        <time>2023-07-24T10:30:46Z</time>
      </trkpt>
      <trkpt lat="44.38977" lon="5.5016">
        <ele>671.9</ele>
        <time>2023-07-24T10:30:47Z</time>
      </trkpt>
      <trkpt lat="44.38977" lon="5.50166">
        <ele>672</ele>
        <time>2023-07-24T10:30:48Z</time>
      </trkpt>
      <trkpt lat="44.38977" lon="5.50172">
        <ele>672.1</ele>
        <time>2023-07-24T10:30:49Z</time>
      </trkpt>
      <trkpt lat="44.38977" lon="5.50179">
        <ele>672.2</ele>
        <time>2023-07-24T10:30:50Z</time>
      </trkpt>
      <trkpt lat="44.38976" lon="5.50186">
        <ele>672.4</ele>
        <time>2023-07-24T10:30:51Z</time>
      </trkpt>
      <trkpt lat="44.38975" lon="5.50194">
        <ele>672.5</ele>
        <time>2023-07-24T10:30:52Z</time>
      </trkpt>
      <trkpt lat="44.38973" lon="5.50201">
        <ele>672.6</ele>
        <time>2023-07-24T10:30:53Z</time>
      </trkpt>
      <trkpt lat="44.38971" lon="5.50209">
        <ele>672.8</ele>
        <time>2023-07-24T10:30:54Z</time>
      </trkpt>
      <trkpt lat="44.38968" lon="5.50216">
        <ele>673</ele>
        <time>2023-07-24T10:30:55Z</time>
      </trkpt>
      <trkpt lat="44.38964" lon="5.50223">
        <ele>673.2</ele>
        <time>2023-07-24T10:30:56Z</time>
      </trkpt>
      <trkpt lat="44.3896" lon="5.5023">
        <ele>673.3</ele>
        <time>2023-07-24T10:30:57Z</time>
      </trkpt>
      <trkpt lat="44.38956" lon="5.50235">
        <ele>673.4</ele>
        <time>2023-07-24T10:30:58Z</time>
      </trkpt>
      <trkpt lat="44.38951" lon="5.5024">
        <ele>673.6</ele>
        <time>2023-07-24T10:30:59Z</time>
      </trkpt>
      <trkpt lat="44.38947" lon="5.50244">
        <ele>673.7</ele>
        <time>2023-07-24T10:31:00Z</time>
      </trkpt>
      <trkpt lat="44.38943" lon="5.50248">
        <ele>673.9</ele>
        <time>2023-07-24T10:31:01Z</time>
      </trkpt>
      <trkpt lat="44.38939" lon="5.50252">
        <ele>674.1</ele>
        <time>2023-07-24T10:31:02Z</time>
      </trkpt>
      <trkpt lat="44.38934" lon="5.50255">
        <ele>674.3</ele>
        <time>2023-07-24T10:31:03Z</time>
      </trkpt>
      <trkpt lat="44.38929" lon="5.50259">
        <ele>674.6</ele>
        <time>2023-07-24T10:31:04Z</time>
      </trkpt>
      <trkpt lat="44.38924" lon="5.50262">
        <ele>674.8</ele>
        <time>2023-07-24T10:31:05Z</time>
      </trkpt>
      <trkpt lat="44.38919" lon="5.50265">
        <ele>675.1</ele>
        <time>2023-07-24T10:31:06Z</time>
      </trkpt>
      <trkpt lat="44.38914" lon="5.50269">
        <ele>675.3</ele>
        <time>2023-07-24T10:31:07Z</time>
      </trkpt>
      <trkpt lat="44.38909" lon="5.50273">
        <ele>675.6</ele>
        <time>2023-07-24T10:31:08Z</time>
      </trkpt>
      <trkpt lat="44.38905" lon="5.50278">
        <ele>675.8</ele>
        <time>2023-07-24T10:31:09Z</time>
      </trkpt>
      <trkpt lat="44.389" lon="5.50283">
        <ele>676.1</ele>
        <time>2023-07-24T10:31:10Z</time>
      </trkpt>
      <trkpt lat="44.38896" lon="5.50287">
        <ele>676.3</ele>
        <time>2023-07-24T10:31:11Z</time>
      </trkpt>
      <trkpt lat="44.38891" lon="5.50291">
        <ele>676.6</ele>
        <time>2023-07-24T10:31:12Z</time>
      </trkpt>
      <trkpt lat="44.38887" lon="5.50295">
        <ele>676.8</ele>
        <time>2023-07-24T10:31:13Z</time>
      </trkpt>
      <trkpt lat="44.38882" lon="5.503">
        <ele>677.1</ele>
        <time>2023-07-24T10:31:14Z</time>
      </trkpt>
      <trkpt lat="44.38877" lon="5.50303">
        <ele>677.4</ele>
        <time>2023-07-24T10:31:15Z</time>
      </trkpt>
      <trkpt lat="44.38873" lon="5.50307">
        <ele>677.7</ele>
        <time>2023-07-24T10:31:16Z</time>
      </trkpt>
      <trkpt lat="44.38868" lon="5.50311">
        <ele>677.9</ele>
        <time>2023-07-24T10:31:17Z</time>
      </trkpt>
      <trkpt lat="44.38863" lon="5.50314">
        <ele>678.2</ele>
        <time>2023-07-24T10:31:18Z</time>
      </trkpt>
      <trkpt lat="44.38858" lon="5.50318">
        <ele>678.4</ele>
        <time>2023-07-24T10:31:19Z</time>
      </trkpt>
      <trkpt lat="44.38854" lon="5.50322">
        <ele>678.7</ele>
        <time>2023-07-24T10:31:20Z</time>
      </trkpt>
      <trkpt lat="44.38849" lon="5.50326">
        <ele>678.9</ele>
        <time>2023-07-24T10:31:21Z</time>
      </trkpt>
      <trkpt lat="44.38844" lon="5.50331">
        <ele>679.2</ele>
        <time>2023-07-24T10:31:22Z</time>
      </trkpt>
      <trkpt lat="44.38839" lon="5.50335">
        <ele>679.4</ele>
        <time>2023-07-24T10:31:23Z</time>
      </trkpt>
      <trkpt lat="44.38834" lon="5.50339">
        <ele>679.6</ele>
        <time>2023-07-24T10:31:24Z</time>
      </trkpt>
      <trkpt lat="44.38829" lon="5.50343">
        <ele>679.8</ele>
        <time>2023-07-24T10:31:25Z</time>
      </trkpt>
      <trkpt lat="44.38824" lon="5.50348">
        <ele>680</ele>
        <time>2023-07-24T10:31:26Z</time>
      </trkpt>
      <trkpt lat="44.38819" lon="5.50352">
        <ele>680.2</ele>
        <time>2023-07-24T10:31:27Z</time>
      </trkpt>
      <trkpt lat="44.38814" lon="5.50357">
        <ele>680.3</ele>
        <time>2023-07-24T10:31:28Z</time>
      </trkpt>
      <trkpt lat="44.38809" lon="5.50361">
        <ele>680.5</ele>
        <time>2023-07-24T10:31:29Z</time>
      </trkpt>
      <trkpt lat="44.38804" lon="5.50365">
        <ele>680.7</ele>
        <time>2023-07-24T10:31:30Z</time>
      </trkpt>
      <trkpt lat="44.38799" lon="5.50369">
        <ele>680.9</ele>
        <time>2023-07-24T10:31:31Z</time>
      </trkpt>
      <trkpt lat="44.38794" lon="5.50373">
        <ele>681</ele>
        <time>2023-07-24T10:31:32Z</time>
      </trkpt>
      <trkpt lat="44.38789" lon="5.50377">
        <ele>681.2</ele>
        <time>2023-07-24T10:31:33Z</time>
      </trkpt>
      <trkpt lat="44.38784" lon="5.50382">
        <ele>681.4</ele>
        <time>2023-07-24T10:31:34Z</time>
      </trkpt>
      <trkpt lat="44.38779" lon="5.50387">
        <ele>681.5</ele>
        <time>2023-07-24T10:31:35Z</time>
      </trkpt>
      <trkpt lat="44.38775" lon="5.50391">
        <ele>681.7</ele>
        <time>2023-07-24T10:31:36Z</time>
      </trkpt>
      <trkpt lat="44.3877" lon="5.50394">
        <ele>681.8</ele>
        <time>2023-07-24T10:31:37Z</time>
      </trkpt>
      <trkpt lat="44.38765" lon="5.50399">
        <ele>682</ele>
        <time>2023-07-24T10:31:38Z</time>
      </trkpt>
      <trkpt lat="44.38759" lon="5.50403">
        <ele>682.2</ele>
        <time>2023-07-24T10:31:39Z</time>
      </trkpt>
      <trkpt lat="44.38754" lon="5.50407">
        <ele>682.4</ele>
        <time>2023-07-24T10:31:40Z</time>
      </trkpt>
      <trkpt lat="44.38749" lon="5.50411">
        <ele>682.5</ele>
        <time>2023-07-24T10:31:41Z</time>
      </trkpt>
      <trkpt lat="44.38745" lon="5.50416">
        <ele>682.7</ele>
        <time>2023-07-24T10:31:42Z</time>
      </trkpt>
      <trkpt lat="44.3874" lon="5.5042">
        <ele>682.8</ele>
        <time>2023-07-24T10:31:43Z</time>
      </trkpt>
      <trkpt lat="44.38735" lon="5.50424">
        <ele>683</ele>
        <time>2023-07-24T10:31:44Z</time>
      </trkpt>
      <trkpt lat="44.3873" lon="5.50429">
        <ele>683.1</ele>
        <time>2023-07-24T10:31:45Z</time>
      </trkpt>
      <trkpt lat="44.38725" lon="5.50433">
        <ele>683.3</ele>
        <time>2023-07-24T10:31:46Z</time>
      </trkpt>
      <trkpt lat="44.38721" lon="5.50437">
        <ele>683.4</ele>
        <time>2023-07-24T10:31:47Z</time>
      </trkpt>
      <trkpt lat="44.38716" lon="5.5044">
        <ele>683.5</ele>
        <time>2023-07-24T10:31:48Z</time>
      </trkpt>
      <trkpt lat="44.3871" lon="5.50444">
        <ele>683.7</ele>
        <time>2023-07-24T10:31:49Z</time>
      </trkpt>
      <trkpt lat="44.38706" lon="5.50449">
        <ele>683.8</ele>
        <time>2023-07-24T10:31:50Z</time>
      </trkpt>
      <trkpt lat="44.38701" lon="5.50453">
        <ele>683.9</ele>
        <time>2023-07-24T10:31:51Z</time>
      </trkpt>
      <trkpt lat="44.38696" lon="5.50458">
        <ele>684</ele>
        <time>2023-07-24T10:31:52Z</time>
      </trkpt>
      <trkpt lat="44.3869" lon="5.50462">
        <ele>684.2</ele>
        <time>2023-07-24T10:31:53Z</time>
      </trkpt>
      <trkpt lat="44.38685" lon="5.50466">
        <ele>684.4</ele>
        <time>2023-07-24T10:31:54Z</time>
      </trkpt>
      <trkpt lat="44.3868" lon="5.50471">
        <ele>684.5</ele>
        <time>2023-07-24T10:31:55Z</time>
      </trkpt>
      <trkpt lat="44.38676" lon="5.50475">
        <ele>684.6</ele>
        <time>2023-07-24T10:31:56Z</time>
      </trkpt>
      <trkpt lat="44.38671" lon="5.50479">
        <ele>684.8</ele>
        <time>2023-07-24T10:31:57Z</time>
      </trkpt>
      <trkpt lat="44.38666" lon="5.50482">
        <ele>684.9</ele>
        <time>2023-07-24T10:31:58Z</time>
      </trkpt>
      <trkpt lat="44.38661" lon="5.50486">
        <ele>685.1</ele>
        <time>2023-07-24T10:31:59Z</time>
      </trkpt>
      <trkpt lat="44.38656" lon="5.50491">
        <ele>685.3</ele>
        <time>2023-07-24T10:32:00Z</time>
      </trkpt>
      <trkpt lat="44.38651" lon="5.50495">
        <ele>685.4</ele>
        <time>2023-07-24T10:32:01Z</time>
      </trkpt>
      <trkpt lat="44.38647" lon="5.505">
        <ele>685.6</ele>
        <time>2023-07-24T10:32:02Z</time>
      </trkpt>
      <trkpt lat="44.38641" lon="5.50504">
        <ele>685.8</ele>
        <time>2023-07-24T10:32:03Z</time>
      </trkpt>
      <trkpt lat="44.38636" lon="5.50509">
        <ele>686</ele>
        <time>2023-07-24T10:32:04Z</time>
      </trkpt>
      <trkpt lat="44.38631" lon="5.50513">
        <ele>686.2</ele>
        <time>2023-07-24T10:32:05Z</time>
      </trkpt>
      <trkpt lat="44.38626" lon="5.50517">
        <ele>686.4</ele>
        <time>2023-07-24T10:32:06Z</time>
      </trkpt>
      <trkpt lat="44.38621" lon="5.50522">
        <ele>686.6</ele>
        <time>2023-07-24T10:32:07Z</time>
      </trkpt>
      <trkpt lat="44.38616" lon="5.50526">
        <ele>686.7</ele>
        <time>2023-07-24T10:32:08Z</time>
      </trkpt>
      <trkpt lat="44.38611" lon="5.50531">
        <ele>686.9</ele>
        <time>2023-07-24T10:32:09Z</time>
      </trkpt>
      <trkpt lat="44.38605" lon="5.50535">
        <ele>687.1</ele>
        <time>2023-07-24T10:32:10Z</time>
      </trkpt>
      <trkpt lat="44.386" lon="5.50539">
        <ele>687.4</ele>
        <time>2023-07-24T10:32:11Z</time>
      </trkpt>
      <trkpt lat="44.38595" lon="5.50543">
        <ele>687.6</ele>
        <time>2023-07-24T10:32:12Z</time>
      </trkpt>
      <trkpt lat="44.38591" lon="5.50547">
        <ele>687.8</ele>
        <time>2023-07-24T10:32:13Z</time>
      </trkpt>
      <trkpt lat="44.38586" lon="5.50552">
        <ele>688</ele>
        <time>2023-07-24T10:32:14Z</time>
      </trkpt>
      <trkpt lat="44.38581" lon="5.50556">
        <ele>688.2</ele>
        <time>2023-07-24T10:32:15Z</time>
      </trkpt>
      <trkpt lat="44.38576" lon="5.50561">
        <ele>688.4</ele>
        <time>2023-07-24T10:32:16Z</time>
      </trkpt>
      <trkpt lat="44.38571" lon="5.50565">
        <ele>688.6</ele>
        <time>2023-07-24T10:32:17Z</time>
      </trkpt>
      <trkpt lat="44.38566" lon="5.5057">
        <ele>688.8</ele>
        <time>2023-07-24T10:32:18Z</time>
      </trkpt>
      <trkpt lat="44.38562" lon="5.50575">
        <ele>688.9</ele>
        <time>2023-07-24T10:32:19Z</time>
      </trkpt>
      <trkpt lat="44.38558" lon="5.5058">
        <ele>689.1</ele>
        <time>2023-07-24T10:32:20Z</time>
      </trkpt>
      <trkpt lat="44.38553" lon="5.50586">
        <ele>689.2</ele>
        <time>2023-07-24T10:32:21Z</time>
      </trkpt>
      <trkpt lat="44.3855" lon="5.50593">
        <ele>689.3</ele>
        <time>2023-07-24T10:32:22Z</time>
      </trkpt>
      <trkpt lat="44.38546" lon="5.506">
        <ele>689.5</ele>
        <time>2023-07-24T10:32:23Z</time>
      </trkpt>
      <trkpt lat="44.38542" lon="5.50606">
        <ele>689.7</ele>
        <time>2023-07-24T10:32:24Z</time>
      </trkpt>
      <trkpt lat="44.38539" lon="5.50612">
        <ele>689.8</ele>
        <time>2023-07-24T10:32:25Z</time>
      </trkpt>
      <trkpt lat="44.38535" lon="5.50619">
        <ele>690</ele>
        <time>2023-07-24T10:32:26Z</time>
      </trkpt>
      <trkpt lat="44.38532" lon="5.50626">
        <ele>690.2</ele>
        <time>2023-07-24T10:32:27Z</time>
      </trkpt>
      <trkpt lat="44.38528" lon="5.50632">
        <ele>690.4</ele>
        <time>2023-07-24T10:32:28Z</time>
      </trkpt>
      <trkpt lat="44.38524" lon="5.50639">
        <ele>690.5</ele>
        <time>2023-07-24T10:32:29Z</time>
      </trkpt>
      <trkpt lat="44.3852" lon="5.50645">
        <ele>690.7</ele>
        <time>2023-07-24T10:32:30Z</time>
      </trkpt>
      <trkpt lat="44.38517" lon="5.50651">
        <ele>690.9</ele>
        <time>2023-07-24T10:32:31Z</time>
      </trkpt>
      <trkpt lat="44.38513" lon="5.50657">
        <ele>691.1</ele>
        <time>2023-07-24T10:32:32Z</time>
      </trkpt>
      <trkpt lat="44.38509" lon="5.50663">
        <ele>691.2</ele>
        <time>2023-07-24T10:32:33Z</time>
      </trkpt>
      <trkpt lat="44.38506" lon="5.5067">
        <ele>691.4</ele>
        <time>2023-07-24T10:32:34Z</time>
      </trkpt>
      <trkpt lat="44.38502" lon="5.50676">
        <ele>691.6</ele>
        <time>2023-07-24T10:32:35Z</time>
      </trkpt>
      <trkpt lat="44.38499" lon="5.50683">
        <ele>691.8</ele>
        <time>2023-07-24T10:32:36Z</time>
      </trkpt>
      <trkpt lat="44.38495" lon="5.50689">
        <ele>692</ele>
        <time>2023-07-24T10:32:37Z</time>
      </trkpt>
      <trkpt lat="44.38492" lon="5.50695">
        <ele>692.2</ele>
        <time>2023-07-24T10:32:38Z</time>
      </trkpt>
      <trkpt lat="44.38489" lon="5.507">
        <ele>692.3</ele>
        <time>2023-07-24T10:32:39Z</time>
      </trkpt>
      <trkpt lat="44.38487" lon="5.50706">
        <ele>692.5</ele>
        <time>2023-07-24T10:32:40Z</time>
      </trkpt>
      <trkpt lat="44.38484" lon="5.50711">
        <ele>692.7</ele>
        <time>2023-07-24T10:32:41Z</time>
      </trkpt>
      <trkpt lat="44.38481" lon="5.50717">
        <ele>692.9</ele>
        <time>2023-07-24T10:32:42Z</time>
      </trkpt>
      <trkpt lat="44.38477" lon="5.50723">
        <ele>693.1</ele>
        <time>2023-07-24T10:32:43Z</time>
      </trkpt>
      <trkpt lat="44.38473" lon="5.5073">
        <ele>693.3</ele>
        <time>2023-07-24T10:32:44Z</time>
      </trkpt>
      <trkpt lat="44.3847" lon="5.50736">
        <ele>693.5</ele>
        <time>2023-07-24T10:32:45Z</time>
      </trkpt>
      <trkpt lat="44.38466" lon="5.50742">
        <ele>693.6</ele>
        <time>2023-07-24T10:32:46Z</time>
      </trkpt>
      <trkpt lat="44.38462" lon="5.50747">
        <ele>693.8</ele>
        <time>2023-07-24T10:32:47Z</time>
      </trkpt>
      <trkpt lat="44.38459" lon="5.50753">
        <ele>694</ele>
        <time>2023-07-24T10:32:48Z</time>
      </trkpt>
      <trkpt lat="44.38455" lon="5.50759">
        <ele>694.1</ele>
        <time>2023-07-24T10:32:49Z</time>
      </trkpt>
      <trkpt lat="44.38452" lon="5.50765">
        <ele>694.2</ele>
        <time>2023-07-24T10:32:50Z</time>
      </trkpt>
      <trkpt lat="44.38448" lon="5.5077">
        <ele>694.3</ele>
        <time>2023-07-24T10:32:51Z</time>
      </trkpt>
      <trkpt lat="44.38445" lon="5.50776">
        <ele>694.4</ele>
        <time>2023-07-24T10:32:52Z</time>
      </trkpt>
      <trkpt lat="44.38441" lon="5.50782">
        <ele>694.5</ele>
        <time>2023-07-24T10:32:53Z</time>
      </trkpt>
      <trkpt lat="44.38438" lon="5.50788">
        <ele>694.6</ele>
        <time>2023-07-24T10:32:54Z</time>
      </trkpt>
      <trkpt lat="44.38434" lon="5.50795">
        <ele>694.7</ele>
        <time>2023-07-24T10:32:55Z</time>
      </trkpt>
      <trkpt lat="44.3843" lon="5.50801">
        <ele>694.9</ele>
        <time>2023-07-24T10:32:56Z</time>
      </trkpt>
      <trkpt lat="44.38426" lon="5.50806">
        <ele>695</ele>
        <time>2023-07-24T10:32:57Z</time>
      </trkpt>
      <trkpt lat="44.38421" lon="5.5081">
        <ele>695.2</ele>
        <time>2023-07-24T10:32:58Z</time>
      </trkpt>
      <trkpt lat="44.38415" lon="5.50812">
        <ele>695.4</ele>
        <time>2023-07-24T10:32:59Z</time>
      </trkpt>
      <trkpt lat="44.3841" lon="5.50814">
        <ele>695.6</ele>
        <time>2023-07-24T10:33:00Z</time>
      </trkpt>
      <trkpt lat="44.38405" lon="5.50817">
        <ele>695.9</ele>
        <time>2023-07-24T10:33:01Z</time>
      </trkpt>
      <trkpt lat="44.38399" lon="5.50818">
        <ele>696.2</ele>
        <time>2023-07-24T10:33:02Z</time>
      </trkpt>
      <trkpt lat="44.38393" lon="5.5082">
        <ele>696.5</ele>
        <time>2023-07-24T10:33:03Z</time>
      </trkpt>
      <trkpt lat="44.38387" lon="5.5082">
        <ele>696.8</ele>
        <time>2023-07-24T10:33:04Z</time>
      </trkpt>
      <trkpt lat="44.38382" lon="5.5082">
        <ele>697.1</ele>
        <time>2023-07-24T10:33:05Z</time>
      </trkpt>
      <trkpt lat="44.38376" lon="5.50821">
        <ele>697.4</ele>
        <time>2023-07-24T10:33:06Z</time>
      </trkpt>
      <trkpt lat="44.38371" lon="5.50822">
        <ele>697.7</ele>
        <time>2023-07-24T10:33:07Z</time>
      </trkpt>
      <trkpt lat="44.38365" lon="5.50822">
        <ele>698</ele>
        <time>2023-07-24T10:33:08Z</time>
      </trkpt>
      <trkpt lat="44.3836" lon="5.50823">
        <ele>698.3</ele>
        <time>2023-07-24T10:33:09Z</time>
      </trkpt>
      <trkpt lat="44.38354" lon="5.50824">
        <ele>698.7</ele>
        <time>2023-07-24T10:33:10Z</time>
      </trkpt>
      <trkpt lat="44.38348" lon="5.50825">
        <ele>699</ele>
        <time>2023-07-24T10:33:11Z</time>
      </trkpt>
      <trkpt lat="44.38343" lon="5.50828">
        <ele>699.4</ele>
        <time>2023-07-24T10:33:12Z</time>
      </trkpt>
      <trkpt lat="44.38338" lon="5.50832">
        <ele>699.7</ele>
        <time>2023-07-24T10:33:13Z</time>
      </trkpt>
      <trkpt lat="44.38333" lon="5.50836">
        <ele>700</ele>
        <time>2023-07-24T10:33:14Z</time>
      </trkpt>
      <trkpt lat="44.38329" lon="5.50841">
        <ele>700.4</ele>
        <time>2023-07-24T10:33:15Z</time>
      </trkpt>
      <trkpt lat="44.38325" lon="5.50847">
        <ele>700.7</ele>
        <time>2023-07-24T10:33:16Z</time>
      </trkpt>
      <trkpt lat="44.38322" lon="5.50854">
        <ele>701</ele>
        <time>2023-07-24T10:33:17Z</time>
      </trkpt>
      <trkpt lat="44.38321" lon="5.50861">
        <ele>701.3</ele>
        <time>2023-07-24T10:33:18Z</time>
      </trkpt>
      <trkpt lat="44.3832" lon="5.50869">
        <ele>701.5</ele>
        <time>2023-07-24T10:33:19Z</time>
      </trkpt>
      <trkpt lat="44.38319" lon="5.50877">
        <ele>701.7</ele>
        <time>2023-07-24T10:33:20Z</time>
      </trkpt>
      <trkpt lat="44.38319" lon="5.50885">
        <ele>701.9</ele>
        <time>2023-07-24T10:33:21Z</time>
      </trkpt>
      <trkpt lat="44.3832" lon="5.50893">
        <ele>702.1</ele>
        <time>2023-07-24T10:33:22Z</time>
      </trkpt>
      <trkpt lat="44.38321" lon="5.50901">
        <ele>702.3</ele>
        <time>2023-07-24T10:33:23Z</time>
      </trkpt>
      <trkpt lat="44.38322" lon="5.5091">
        <ele>702.6</ele>
        <time>2023-07-24T10:33:24Z</time>
      </trkpt>
      <trkpt lat="44.38323" lon="5.50918">
        <ele>702.7</ele>
        <time>2023-07-24T10:33:25Z</time>
      </trkpt>
      <trkpt lat="44.38323" lon="5.50926">
        <ele>702.9</ele>
        <time>2023-07-24T10:33:26Z</time>
      </trkpt>
      <trkpt lat="44.38324" lon="5.50934">
        <ele>703.1</ele>
        <time>2023-07-24T10:33:27Z</time>
      </trkpt>
      <trkpt lat="44.38324" lon="5.50943">
        <ele>703.3</ele>
        <time>2023-07-24T10:33:28Z</time>
      </trkpt>
      <trkpt lat="44.38323" lon="5.50951">
        <ele>703.4</ele>
        <time>2023-07-24T10:33:29Z</time>
      </trkpt>
      <trkpt lat="44.38322" lon="5.50959">
        <ele>703.5</ele>
        <time>2023-07-24T10:33:30Z</time>
      </trkpt>
      <trkpt lat="44.38321" lon="5.50967">
        <ele>703.7</ele>
        <time>2023-07-24T10:33:31Z</time>
      </trkpt>
      <trkpt lat="44.38319" lon="5.50975">
        <ele>703.8</ele>
        <time>2023-07-24T10:33:32Z</time>
      </trkpt>
      <trkpt lat="44.38317" lon="5.50983">
        <ele>704</ele>
        <time>2023-07-24T10:33:33Z</time>
      </trkpt>
      <trkpt lat="44.38315" lon="5.5099">
        <ele>704.2</ele>
        <time>2023-07-24T10:33:34Z</time>
      </trkpt>
      <trkpt lat="44.38313" lon="5.50998">
        <ele>704.4</ele>
        <time>2023-07-24T10:33:35Z</time>
      </trkpt>
      <trkpt lat="44.38312" lon="5.51006">
        <ele>704.6</ele>
        <time>2023-07-24T10:33:36Z</time>
      </trkpt>
      <trkpt lat="44.3831" lon="5.51014">
        <ele>704.8</ele>
        <time>2023-07-24T10:33:37Z</time>
      </trkpt>
      <trkpt lat="44.38308" lon="5.51022">
        <ele>705</ele>
        <time>2023-07-24T10:33:38Z</time>
      </trkpt>
      <trkpt lat="44.38306" lon="5.51029">
        <ele>705.2</ele>
        <time>2023-07-24T10:33:39Z</time>
      </trkpt>
      <trkpt lat="44.38305" lon="5.51037">
        <ele>705.4</ele>
        <time>2023-07-24T10:33:40Z</time>
      </trkpt>
      <trkpt lat="44.38303" lon="5.51044">
        <ele>705.5</ele>
        <time>2023-07-24T10:33:41Z</time>
      </trkpt>
      <trkpt lat="44.38302" lon="5.51052">
        <ele>705.7</ele>
        <time>2023-07-24T10:33:42Z</time>
      </trkpt>
      <trkpt lat="44.38299" lon="5.5106">
        <ele>705.9</ele>
        <time>2023-07-24T10:33:43Z</time>
      </trkpt>
      <trkpt lat="44.38296" lon="5.51067">
        <ele>706</ele>
        <time>2023-07-24T10:33:44Z</time>
      </trkpt>
      <trkpt lat="44.38293" lon="5.51074">
        <ele>706.2</ele>
        <time>2023-07-24T10:33:45Z</time>
      </trkpt>
      <trkpt lat="44.38288" lon="5.5108">
        <ele>706.3</ele>
        <time>2023-07-24T10:33:46Z</time>
      </trkpt>
      <trkpt lat="44.38283" lon="5.51085">
        <ele>706.5</ele>
        <time>2023-07-24T10:33:47Z</time>
      </trkpt>
      <trkpt lat="44.38278" lon="5.51088">
        <ele>706.6</ele>
        <time>2023-07-24T10:33:48Z</time>
      </trkpt>
      <trkpt lat="44.38271" lon="5.51088">
        <ele>706.8</ele>
        <time>2023-07-24T10:33:49Z</time>
      </trkpt>
      <trkpt lat="44.38265" lon="5.51089">
        <ele>706.9</ele>
        <time>2023-07-24T10:33:50Z</time>
      </trkpt>
      <trkpt lat="44.38259" lon="5.51088">
        <ele>707</ele>
        <time>2023-07-24T10:33:51Z</time>
      </trkpt>
      <trkpt lat="44.38253" lon="5.51088">
        <ele>707.2</ele>
        <time>2023-07-24T10:33:52Z</time>
      </trkpt>
      <trkpt lat="44.38247" lon="5.51089">
        <ele>707.3</ele>
        <time>2023-07-24T10:33:53Z</time>
      </trkpt>
      <trkpt lat="44.38241" lon="5.5109">
        <ele>707.4</ele>
        <time>2023-07-24T10:33:54Z</time>
      </trkpt>
      <trkpt lat="44.38236" lon="5.51093">
        <ele>707.4</ele>
        <time>2023-07-24T10:33:55Z</time>
      </trkpt>
      <trkpt lat="44.38231" lon="5.51098">
        <ele>707.5</ele>
        <time>2023-07-24T10:33:56Z</time>
      </trkpt>
      <trkpt lat="44.38227" lon="5.51105">
        <ele>707.5</ele>
        <time>2023-07-24T10:33:57Z</time>
      </trkpt>
      <trkpt lat="44.38225" lon="5.51113">
        <ele>707.4</ele>
        <time>2023-07-24T10:33:58Z</time>
      </trkpt>
      <trkpt lat="44.38225" lon="5.51122">
        <ele>707.4</ele>
        <time>2023-07-24T10:33:59Z</time>
      </trkpt>
      <trkpt lat="44.38227" lon="5.51131">
        <ele>707.4</ele>
        <time>2023-07-24T10:34:00Z</time>
      </trkpt>
      <trkpt lat="44.3823" lon="5.51139">
        <ele>707.4</ele>
        <time>2023-07-24T10:34:01Z</time>
      </trkpt>
      <trkpt lat="44.38235" lon="5.51146">
        <ele>707.4</ele>
        <time>2023-07-24T10:34:02Z</time>
      </trkpt>
      <trkpt lat="44.38239" lon="5.51152">
        <ele>707.3</ele>
        <time>2023-07-24T10:34:03Z</time>
      </trkpt>
      <trkpt lat="44.38244" lon="5.51157">
        <ele>707.3</ele>
        <time>2023-07-24T10:34:04Z</time>
      </trkpt>
      <trkpt lat="44.38249" lon="5.51162">
        <ele>707.3</ele>
        <time>2023-07-24T10:34:05Z</time>
      </trkpt>
      <trkpt lat="44.38254" lon="5.51167">
        <ele>707.3</ele>
        <time>2023-07-24T10:34:06Z</time>
      </trkpt>
      <trkpt lat="44.38259" lon="5.51173">
        <ele>707.4</ele>
        <time>2023-07-24T10:34:07Z</time>
      </trkpt>
      <trkpt lat="44.38264" lon="5.51178">
        <ele>707.4</ele>
        <time>2023-07-24T10:34:08Z</time>
      </trkpt>
      <trkpt lat="44.38269" lon="5.51183">
        <ele>707.5</ele>
        <time>2023-07-24T10:34:09Z</time>
      </trkpt>
      <trkpt lat="44.38274" lon="5.51188">
        <ele>707.6</ele>
        <time>2023-07-24T10:34:10Z</time>
      </trkpt>
      <trkpt lat="44.38278" lon="5.51192">
        <ele>707.7</ele>
        <time>2023-07-24T10:34:11Z</time>
      </trkpt>
      <trkpt lat="44.38283" lon="5.51197">
        <ele>707.8</ele>
        <time>2023-07-24T10:34:12Z</time>
      </trkpt>
      <trkpt lat="44.38286" lon="5.51201">
        <ele>707.9</ele>
        <time>2023-07-24T10:34:13Z</time>
      </trkpt>
      <trkpt lat="44.3829" lon="5.51205">
        <ele>708</ele>
        <time>2023-07-24T10:34:14Z</time>
      </trkpt>
      <trkpt lat="44.38293" lon="5.5121">
        <ele>708.1</ele>
        <time>2023-07-24T10:34:15Z</time>
      </trkpt>
      <trkpt lat="44.38296" lon="5.51215">
        <ele>708.2</ele>
        <time>2023-07-24T10:34:16Z</time>
      </trkpt>
      <trkpt lat="44.38298" lon="5.51222">
        <ele>708.3</ele>
        <time>2023-07-24T10:34:17Z</time>
      </trkpt>
      <trkpt lat="44.38299" lon="5.5123">
        <ele>708.4</ele>
        <time>2023-07-24T10:34:18Z</time>
      </trkpt>
      <trkpt lat="44.38298" lon="5.51238">
        <ele>708.5</ele>
        <time>2023-07-24T10:34:19Z</time>
      </trkpt>
      <trkpt lat="44.38295" lon="5.51245">
        <ele>708.7</ele>
        <time>2023-07-24T10:34:20Z</time>
      </trkpt>
      <trkpt lat="44.38291" lon="5.51251">
        <ele>708.8</ele>
        <time>2023-07-24T10:34:21Z</time>
      </trkpt>
      <trkpt lat="44.38286" lon="5.51255">
        <ele>709</ele>
        <time>2023-07-24T10:34:22Z</time>
      </trkpt>
      <trkpt lat="44.3828" lon="5.51258">
        <ele>709.2</ele>
        <time>2023-07-24T10:34:23Z</time>
      </trkpt>
      <trkpt lat="44.38274" lon="5.5126">
        <ele>709.4</ele>
        <time>2023-07-24T10:34:24Z</time>
      </trkpt>
      <trkpt lat="44.38269" lon="5.51262">
        <ele>709.7</ele>
        <time>2023-07-24T10:34:25Z</time>
      </trkpt>
      <trkpt lat="44.38263" lon="5.51264">
        <ele>709.9</ele>
        <time>2023-07-24T10:34:26Z</time>
      </trkpt>
      <trkpt lat="44.38257" lon="5.51267">
        <ele>710.1</ele>
        <time>2023-07-24T10:34:27Z</time>
      </trkpt>
      <trkpt lat="44.38252" lon="5.51269">
        <ele>710.4</ele>
        <time>2023-07-24T10:34:28Z</time>
      </trkpt>
      <trkpt lat="44.38246" lon="5.5127">
        <ele>710.7</ele>
        <time>2023-07-24T10:34:29Z</time>
      </trkpt>
      <trkpt lat="44.3824" lon="5.51271">
        <ele>711</ele>
        <time>2023-07-24T10:34:30Z</time>
      </trkpt>
      <trkpt lat="44.38234" lon="5.51272">
        <ele>711.3</ele>
        <time>2023-07-24T10:34:31Z</time>
      </trkpt>
      <trkpt lat="44.38228" lon="5.51273">
        <ele>711.6</ele>
        <time>2023-07-24T10:34:32Z</time>
      </trkpt>
      <trkpt lat="44.38223" lon="5.51274">
        <ele>711.9</ele>
        <time>2023-07-24T10:34:33Z</time>
      </trkpt>
      <trkpt lat="44.38217" lon="5.51275">
        <ele>712.2</ele>
        <time>2023-07-24T10:34:34Z</time>
      </trkpt>
      <trkpt lat="44.38211" lon="5.51274">
        <ele>712.5</ele>
        <time>2023-07-24T10:34:35Z</time>
      </trkpt>
      <trkpt lat="44.38206" lon="5.51274">
        <ele>712.8</ele>
        <time>2023-07-24T10:34:36Z</time>
      </trkpt>
      <trkpt lat="44.382" lon="5.51273">
        <ele>713.2</ele>
        <time>2023-07-24T10:34:37Z</time>
      </trkpt>
      <trkpt lat="44.38195" lon="5.51271">
        <ele>713.5</ele>
        <time>2023-07-24T10:34:38Z</time>
      </trkpt>
      <trkpt lat="44.3819" lon="5.51269">
        <ele>713.9</ele>
        <time>2023-07-24T10:34:39Z</time>
      </trkpt>
      <trkpt lat="44.38184" lon="5.51267">
        <ele>714.2</ele>
        <time>2023-07-24T10:34:40Z</time>
      </trkpt>
      <trkpt lat="44.38179" lon="5.51266">
        <ele>714.5</ele>
        <time>2023-07-24T10:34:41Z</time>
      </trkpt>
      <trkpt lat="44.38174" lon="5.51264">
        <ele>714.8</ele>
        <time>2023-07-24T10:34:42Z</time>
      </trkpt>
      <trkpt lat="44.38168" lon="5.51262">
        <ele>715.2</ele>
        <time>2023-07-24T10:34:43Z</time>
      </trkpt>
      <trkpt lat="44.38163" lon="5.51261">
        <ele>715.5</ele>
        <time>2023-07-24T10:34:44Z</time>
      </trkpt>
      <trkpt lat="44.38158" lon="5.51259">
        <ele>715.7</ele>
        <time>2023-07-24T10:34:45Z</time>
      </trkpt>
      <trkpt lat="44.38152" lon="5.51257">
        <ele>716</ele>
        <time>2023-07-24T10:34:46Z</time>
      </trkpt>
      <trkpt lat="44.38146" lon="5.51255">
        <ele>716.2</ele>
        <time>2023-07-24T10:34:47Z</time>
      </trkpt>
      <trkpt lat="44.38141" lon="5.51253">
        <ele>716.5</ele>
        <time>2023-07-24T10:34:48Z</time>
      </trkpt>
      <trkpt lat="44.38136" lon="5.51251">
        <ele>716.7</ele>
        <time>2023-07-24T10:34:49Z</time>
      </trkpt>
      <trkpt lat="44.38131" lon="5.51249">
        <ele>717</ele>
        <time>2023-07-24T10:34:50Z</time>
      </trkpt>
      <trkpt lat="44.38126" lon="5.51247">
        <ele>717.3</ele>
        <time>2023-07-24T10:34:51Z</time>
      </trkpt>
      <trkpt lat="44.3812" lon="5.51245">
        <ele>717.5</ele>
        <time>2023-07-24T10:34:52Z</time>
      </trkpt>
      <trkpt lat="44.38115" lon="5.51242">
        <ele>717.8</ele>
        <time>2023-07-24T10:34:53Z</time>
      </trkpt>
      <trkpt lat="44.38109" lon="5.5124">
        <ele>718.1</ele>
        <time>2023-07-24T10:34:54Z</time>
      </trkpt>
      <trkpt lat="44.38104" lon="5.51238">
        <ele>718.3</ele>
        <time>2023-07-24T10:34:55Z</time>
      </trkpt>
      <trkpt lat="44.38099" lon="5.51236">
        <ele>718.5</ele>
        <time>2023-07-24T10:34:56Z</time>
      </trkpt>
      <trkpt lat="44.38094" lon="5.51234">
        <ele>718.8</ele>
        <time>2023-07-24T10:34:57Z</time>
      </trkpt>
      <trkpt lat="44.3809" lon="5.51232">
        <ele>719</ele>
        <time>2023-07-24T10:34:58Z</time>
      </trkpt>
      <trkpt lat="44.38085" lon="5.5123">
        <ele>719.2</ele>
        <time>2023-07-24T10:34:59Z</time>
      </trkpt>
      <trkpt lat="44.3808" lon="5.51229">
        <ele>719.5</ele>
        <time>2023-07-24T10:35:00Z</time>
      </trkpt>
      <trkpt lat="44.38074" lon="5.51227">
        <ele>719.7</ele>
        <time>2023-07-24T10:35:01Z</time>
      </trkpt>
      <trkpt lat="44.38069" lon="5.51227">
        <ele>720</ele>
        <time>2023-07-24T10:35:02Z</time>
      </trkpt>
      <trkpt lat="44.38064" lon="5.51228">
        <ele>720.2</ele>
        <time>2023-07-24T10:35:03Z</time>
      </trkpt>
      <trkpt lat="44.38058" lon="5.5123">
        <ele>720.4</ele>
        <time>2023-07-24T10:35:04Z</time>
      </trkpt>
      <trkpt lat="44.38054" lon="5.51235">
        <ele>720.5</ele>
        <time>2023-07-24T10:35:05Z</time>
      </trkpt>
      <trkpt lat="44.3805" lon="5.51241">
        <ele>720.7</ele>
        <time>2023-07-24T10:35:06Z</time>
      </trkpt>
      <trkpt lat="44.38047" lon="5.51249">
        <ele>720.9</ele>
        <time>2023-07-24T10:35:07Z</time>
      </trkpt>
      <trkpt lat="44.38046" lon="5.51257">
        <ele>720.9</ele>
        <time>2023-07-24T10:35:08Z</time>
      </trkpt>
      <trkpt lat="44.38045" lon="5.51265">
        <ele>721</ele>
        <time>2023-07-24T10:35:09Z</time>
      </trkpt>
      <trkpt lat="44.38044" lon="5.51273">
        <ele>721.1</ele>
        <time>2023-07-24T10:35:10Z</time>
      </trkpt>
      <trkpt lat="44.38044" lon="5.51281">
        <ele>721.1</ele>
        <time>2023-07-24T10:35:11Z</time>
      </trkpt>
      <trkpt lat="44.38044" lon="5.5129">
        <ele>721.2</ele>
        <time>2023-07-24T10:35:12Z</time>
      </trkpt>
      <trkpt lat="44.38044" lon="5.51298">
        <ele>721.3</ele>
        <time>2023-07-24T10:35:13Z</time>
      </trkpt>
      <trkpt lat="44.38044" lon="5.51306">
        <ele>721.4</ele>
        <time>2023-07-24T10:35:14Z</time>
      </trkpt>
      <trkpt lat="44.38043" lon="5.51314">
        <ele>721.5</ele>
        <time>2023-07-24T10:35:15Z</time>
      </trkpt>
      <trkpt lat="44.38043" lon="5.51323">
        <ele>721.6</ele>
        <time>2023-07-24T10:35:16Z</time>
      </trkpt>
      <trkpt lat="44.38042" lon="5.51331">
        <ele>721.6</ele>
        <time>2023-07-24T10:35:17Z</time>
      </trkpt>
      <trkpt lat="44.38041" lon="5.51338">
        <ele>721.7</ele>
        <time>2023-07-24T10:35:18Z</time>
      </trkpt>
      <trkpt lat="44.3804" lon="5.51345">
        <ele>721.8</ele>
        <time>2023-07-24T10:35:19Z</time>
      </trkpt>
      <trkpt lat="44.38039" lon="5.51351">
        <ele>721.9</ele>
        <time>2023-07-24T10:35:20Z</time>
      </trkpt>
      <trkpt lat="44.38038" lon="5.51357">
        <ele>722</ele>
        <time>2023-07-24T10:35:21Z</time>
      </trkpt>
      <trkpt lat="44.38036" lon="5.51364">
        <ele>722.1</ele>
        <time>2023-07-24T10:35:22Z</time>
      </trkpt>
      <trkpt lat="44.38034" lon="5.51372">
        <ele>722.3</ele>
        <time>2023-07-24T10:35:23Z</time>
      </trkpt>
      <trkpt lat="44.38032" lon="5.5138">
        <ele>722.5</ele>
        <time>2023-07-24T10:35:24Z</time>
      </trkpt>
      <trkpt lat="44.3803" lon="5.51388">
        <ele>722.7</ele>
        <time>2023-07-24T10:35:25Z</time>
      </trkpt>
      <trkpt lat="44.38027" lon="5.51394">
        <ele>722.8</ele>
        <time>2023-07-24T10:35:26Z</time>
      </trkpt>
      <trkpt lat="44.38023" lon="5.514">
        <ele>723</ele>
        <time>2023-07-24T10:35:27Z</time>
      </trkpt>
      <trkpt lat="44.38017" lon="5.51403">
        <ele>723.3</ele>
        <time>2023-07-24T10:35:28Z</time>
      </trkpt>
      <trkpt lat="44.38012" lon="5.51405">
        <ele>723.5</ele>
        <time>2023-07-24T10:35:29Z</time>
      </trkpt>
      <trkpt lat="44.38006" lon="5.51405">
        <ele>723.8</ele>
        <time>2023-07-24T10:35:30Z</time>
      </trkpt>
      <trkpt lat="44.38001" lon="5.51401">
        <ele>724.1</ele>
        <time>2023-07-24T10:35:31Z</time>
      </trkpt>
      <trkpt lat="44.37995" lon="5.51397">
        <ele>724.5</ele>
        <time>2023-07-24T10:35:32Z</time>
      </trkpt>
      <trkpt lat="44.37991" lon="5.51391">
        <ele>724.8</ele>
        <time>2023-07-24T10:35:33Z</time>
      </trkpt>
      <trkpt lat="44.37988" lon="5.51385">
        <ele>725.1</ele>
        <time>2023-07-24T10:35:34Z</time>
      </trkpt>
      <trkpt lat="44.37985" lon="5.51379">
        <ele>725.4</ele>
        <time>2023-07-24T10:35:35Z</time>
      </trkpt>
      <trkpt lat="44.37983" lon="5.51372">
        <ele>725.7</ele>
        <time>2023-07-24T10:35:36Z</time>
      </trkpt>
      <trkpt lat="44.3798" lon="5.51366">
        <ele>725.9</ele>
        <time>2023-07-24T10:35:37Z</time>
      </trkpt>
      <trkpt lat="44.37977" lon="5.5136">
        <ele>726.2</ele>
        <time>2023-07-24T10:35:38Z</time>
      </trkpt>
      <trkpt lat="44.37974" lon="5.51354">
        <ele>726.5</ele>
        <time>2023-07-24T10:35:39Z</time>
      </trkpt>
      <trkpt lat="44.37971" lon="5.51347">
        <ele>726.8</ele>
        <time>2023-07-24T10:35:40Z</time>
      </trkpt>
      <trkpt lat="44.37968" lon="5.5134">
        <ele>727</ele>
        <time>2023-07-24T10:35:41Z</time>
      </trkpt>
      <trkpt lat="44.37966" lon="5.51333">
        <ele>727.3</ele>
        <time>2023-07-24T10:35:42Z</time>
      </trkpt>
      <trkpt lat="44.37963" lon="5.51327">
        <ele>727.5</ele>
        <time>2023-07-24T10:35:43Z</time>
      </trkpt>
      <trkpt lat="44.3796" lon="5.51321">
        <ele>727.8</ele>
        <time>2023-07-24T10:35:44Z</time>
      </trkpt>
      <trkpt lat="44.37957" lon="5.51315">
        <ele>728</ele>
        <time>2023-07-24T10:35:45Z</time>
      </trkpt>
      <trkpt lat="44.37953" lon="5.51309">
        <ele>728.2</ele>
        <time>2023-07-24T10:35:46Z</time>
      </trkpt>
      <trkpt lat="44.37949" lon="5.51305">
        <ele>728.4</ele>
        <time>2023-07-24T10:35:47Z</time>
      </trkpt>
      <trkpt lat="44.37945" lon="5.51302">
        <ele>728.6</ele>
        <time>2023-07-24T10:35:48Z</time>
      </trkpt>
      <trkpt lat="44.3794" lon="5.51301">
        <ele>728.8</ele>
        <time>2023-07-24T10:35:49Z</time>
      </trkpt>
      <trkpt lat="44.37934" lon="5.513">
        <ele>729</ele>
        <time>2023-07-24T10:35:50Z</time>
      </trkpt>
      <trkpt lat="44.37929" lon="5.51301">
        <ele>729.2</ele>
        <time>2023-07-24T10:35:51Z</time>
      </trkpt>
      <trkpt lat="44.37924" lon="5.51303">
        <ele>729.3</ele>
        <time>2023-07-24T10:35:52Z</time>
      </trkpt>
      <trkpt lat="44.37919" lon="5.51304">
        <ele>729.5</ele>
        <time>2023-07-24T10:35:53Z</time>
      </trkpt>
      <trkpt lat="44.37913" lon="5.51305">
        <ele>729.6</ele>
        <time>2023-07-24T10:35:54Z</time>
      </trkpt>
      <trkpt lat="44.37908" lon="5.51306">
        <ele>729.7</ele>
        <time>2023-07-24T10:35:55Z</time>
      </trkpt>
      <trkpt lat="44.37903" lon="5.51306">
        <ele>729.9</ele>
        <time>2023-07-24T10:35:56Z</time>
      </trkpt>
      <trkpt lat="44.37897" lon="5.51307">
        <ele>730</ele>
        <time>2023-07-24T10:35:57Z</time>
      </trkpt>
      <trkpt lat="44.37892" lon="5.51308">
        <ele>730.1</ele>
        <time>2023-07-24T10:35:58Z</time>
      </trkpt>
      <trkpt lat="44.37887" lon="5.51309">
        <ele>730.2</ele>
        <time>2023-07-24T10:35:59Z</time>
      </trkpt>
      <trkpt lat="44.37881" lon="5.5131">
        <ele>730.3</ele>
        <time>2023-07-24T10:36:00Z</time>
      </trkpt>
      <trkpt lat="44.37876" lon="5.51312">
        <ele>730.4</ele>
        <time>2023-07-24T10:36:01Z</time>
      </trkpt>
      <trkpt lat="44.37871" lon="5.51314">
        <ele>730.4</ele>
        <time>2023-07-24T10:36:02Z</time>
      </trkpt>
      <trkpt lat="44.37865" lon="5.51315">
        <ele>730.5</ele>
        <time>2023-07-24T10:36:03Z</time>
      </trkpt>
      <trkpt lat="44.3786" lon="5.51317">
        <ele>730.6</ele>
        <time>2023-07-24T10:36:04Z</time>
      </trkpt>
      <trkpt lat="44.37854" lon="5.51318">
        <ele>730.7</ele>
        <time>2023-07-24T10:36:05Z</time>
      </trkpt>
      <trkpt lat="44.37848" lon="5.51319">
        <ele>730.9</ele>
        <time>2023-07-24T10:36:06Z</time>
      </trkpt>
      <trkpt lat="44.37842" lon="5.5132">
        <ele>731</ele>
        <time>2023-07-24T10:36:07Z</time>
      </trkpt>
      <trkpt lat="44.37837" lon="5.51321">
        <ele>731.1</ele>
        <time>2023-07-24T10:36:08Z</time>
      </trkpt>
      <trkpt lat="44.37831" lon="5.51323">
        <ele>731.2</ele>
        <time>2023-07-24T10:36:09Z</time>
      </trkpt>
      <trkpt lat="44.37825" lon="5.51324">
        <ele>731.3</ele>
        <time>2023-07-24T10:36:10Z</time>
      </trkpt>
      <trkpt lat="44.3782" lon="5.51326">
        <ele>731.5</ele>
        <time>2023-07-24T10:36:11Z</time>
      </trkpt>
      <trkpt lat="44.37815" lon="5.51327">
        <ele>731.6</ele>
        <time>2023-07-24T10:36:12Z</time>
      </trkpt>
      <trkpt lat="44.37809" lon="5.51328">
        <ele>731.7</ele>
        <time>2023-07-24T10:36:13Z</time>
      </trkpt>
      <trkpt lat="44.37803" lon="5.51329">
        <ele>731.8</ele>
        <time>2023-07-24T10:36:14Z</time>
      </trkpt>
      <trkpt lat="44.37798" lon="5.5133">
        <ele>732</ele>
        <time>2023-07-24T10:36:15Z</time>
      </trkpt>
      <trkpt lat="44.37793" lon="5.51331">
        <ele>732.1</ele>
        <time>2023-07-24T10:36:16Z</time>
      </trkpt>
      <trkpt lat="44.37788" lon="5.51332">
        <ele>732.2</ele>
        <time>2023-07-24T10:36:17Z</time>
      </trkpt>
      <trkpt lat="44.37784" lon="5.51333">
        <ele>732.3</ele>
        <time>2023-07-24T10:36:18Z</time>
      </trkpt>
      <trkpt lat="44.3778" lon="5.51334">
        <ele>732.4</ele>
        <time>2023-07-24T10:36:19Z</time>
      </trkpt>
      <trkpt lat="44.37777" lon="5.51336">
        <ele>732.5</ele>
        <time>2023-07-24T10:36:20Z</time>
      </trkpt>
      <trkpt lat="44.37774" lon="5.51338">
        <ele>732.6</ele>
        <time>2023-07-24T10:36:21Z</time>
      </trkpt>
      <trkpt lat="44.37771" lon="5.5134">
        <ele>732.6</ele>
        <time>2023-07-24T10:36:22Z</time>
      </trkpt>
      <trkpt lat="44.37768" lon="5.51341">
        <ele>732.7</ele>
        <time>2023-07-24T10:36:23Z</time>
      </trkpt>
      <trkpt lat="44.37766" lon="5.51338">
        <ele>732.6</ele>
        <time>2023-07-24T10:36:24Z</time>
      </trkpt>
      <trkpt lat="44.37765" lon="5.51336">
        <ele>732.6</ele>
        <time>2023-07-24T10:36:25Z</time>
      </trkpt>
      <trkpt lat="44.37767" lon="5.51328">
        <ele>732.4</ele>
        <time>2023-07-24T10:36:26Z</time>
      </trkpt>
      <trkpt lat="44.3777" lon="5.51322">
        <ele>732.2</ele>
        <time>2023-07-24T10:36:27Z</time>
      </trkpt>
      <trkpt lat="44.37773" lon="5.51315">
        <ele>732</ele>
        <time>2023-07-24T10:36:28Z</time>
      </trkpt>
      <trkpt lat="44.37775" lon="5.51309">
        <ele>731.9</ele>
        <time>2023-07-24T10:36:29Z</time>
      </trkpt>
      <trkpt lat="44.37774" lon="5.51303">
        <ele>731.8</ele>
        <time>2023-07-24T10:36:30Z</time>
      </trkpt>
      <trkpt lat="44.37772" lon="5.51296">
        <ele>731.7</ele>
        <time>2023-07-24T10:36:31Z</time>
      </trkpt>
      <trkpt lat="44.37768" lon="5.51291">
        <ele>731.6</ele>
        <time>2023-07-24T10:36:32Z</time>
      </trkpt>
      <trkpt lat="44.37764" lon="5.51286">
        <ele>731.5</ele>
        <time>2023-07-24T10:36:33Z</time>
      </trkpt>
      <trkpt lat="44.37759" lon="5.51281">
        <ele>731.5</ele>
        <time>2023-07-24T10:36:34Z</time>
      </trkpt>
      <trkpt lat="44.37755" lon="5.51277">
        <ele>731.5</ele>
        <time>2023-07-24T10:36:35Z</time>
      </trkpt>
      <trkpt lat="44.37751" lon="5.51274">
        <ele>731.6</ele>
        <time>2023-07-24T10:36:36Z</time>
      </trkpt>
      <trkpt lat="44.37747" lon="5.51271">
        <ele>731.6</ele>
        <time>2023-07-24T10:36:37Z</time>
      </trkpt>
      <trkpt lat="44.37744" lon="5.51269">
        <ele>731.6</ele>
        <time>2023-07-24T10:36:38Z</time>
      </trkpt>
      <trkpt lat="44.37741" lon="5.51268">
        <ele>731.7</ele>
        <time>2023-07-24T10:36:39Z</time>
      </trkpt>
      <trkpt lat="44.37737" lon="5.51267">
        <ele>731.7</ele>
        <time>2023-07-24T10:36:40Z</time>
      </trkpt>
      <trkpt lat="44.37736" lon="5.51267">
        <ele>731.7</ele>
        <time>2023-07-24T10:36:41Z</time>
      </trkpt>
      <trkpt lat="44.37733" lon="5.51267">
        <ele>731.7</ele>
        <time>2023-07-24T10:36:42Z</time>
      </trkpt>
      <trkpt lat="44.37731" lon="5.5127">
        <ele>731.9</ele>
        <time>2023-07-24T10:36:43Z</time>
      </trkpt>
      <trkpt lat="44.3773" lon="5.51273">
        <ele>731.9</ele>
        <time>2023-07-24T10:36:44Z</time>
      </trkpt>
      <trkpt lat="44.37729" lon="5.51277">
        <ele>731.8</ele>
        <time>2023-07-24T10:36:45Z</time>
      </trkpt>
      <trkpt lat="44.37729" lon="5.51281">
        <ele>731.8</ele>
        <time>2023-07-24T10:36:46Z</time>
      </trkpt>
      <trkpt lat="44.3773" lon="5.51285">
        <ele>731.8</ele>
        <time>2023-07-24T10:36:47Z</time>
      </trkpt>
      <trkpt lat="44.37732" lon="5.51289">
        <ele>731.8</ele>
        <time>2023-07-24T10:36:48Z</time>
      </trkpt>
      <trkpt lat="44.37733" lon="5.51293">
        <ele>731.8</ele>
        <time>2023-07-24T10:36:49Z</time>
      </trkpt>
      <trkpt lat="44.37736" lon="5.51297">
        <ele>731.8</ele>
        <time>2023-07-24T10:36:50Z</time>
      </trkpt>
      <trkpt lat="44.37736" lon="5.51298">
        <ele>731.8</ele>
        <time>2023-07-24T10:36:51Z</time>
      </trkpt>
      <trkpt lat="44.37738" lon="5.51299">
        <ele>731.8</ele>
        <time>2023-07-24T10:36:52Z</time>
      </trkpt>
      <trkpt lat="44.37738" lon="5.513">
        <ele>731.8</ele>
        <time>2023-07-24T10:36:53Z</time>
      </trkpt>
      <trkpt lat="44.37739" lon="5.513">
        <ele>731.8</ele>
        <time>2023-07-24T10:36:54Z</time>
      </trkpt>
      <trkpt lat="44.37739" lon="5.513">
        <ele>731.8</ele>
        <time>2023-07-24T10:36:55Z</time>
      </trkpt>
      <trkpt lat="44.37739" lon="5.51299">
        <ele>731.8</ele>
        <time>2023-07-24T10:36:56Z</time>
      </trkpt>
      <trkpt lat="44.37739" lon="5.51299">
        <ele>731.8</ele>
        <time>2023-07-24T10:36:57Z</time>
      </trkpt>
      <trkpt lat="44.3774" lon="5.51299">
        <ele>731.8</ele>
        <time>2023-07-24T10:36:58Z</time>
      </trkpt>
      <trkpt lat="44.3774" lon="5.51299">
        <ele>731.8</ele>
        <time>2023-07-24T10:36:59Z</time>
      </trkpt>
      <trkpt lat="44.3774" lon="5.51299">
        <ele>731.8</ele>
        <time>2023-07-24T10:37:00Z</time>
      </trkpt>
      <trkpt lat="44.3774" lon="5.51299">
        <ele>731.8</ele>
        <time>2023-07-24T10:37:01Z</time>
      </trkpt>
      <trkpt lat="44.3774" lon="5.51299">
        <ele>731.8</ele>
        <time>2023-07-24T10:37:02Z</time>
      </trkpt>
      <trkpt lat="44.3774" lon="5.51299">
        <ele>731.8</ele>
        <time>2023-07-24T10:37:03Z</time>
      </trkpt>
      <trkpt lat="44.3774" lon="5.51299">
        <ele>731.8</ele>
        <time>2023-07-24T10:37:04Z</time>
      </trkpt>
      <trkpt lat="44.37741" lon="5.51299">
        <ele>731.8</ele>
        <time>2023-07-24T10:37:05Z</time>
      </trkpt>
      <trkpt lat="44.37741" lon="5.513">
        <ele>731.8</ele>
        <time>2023-07-24T10:37:06Z</time>
      </trkpt>
      <trkpt lat="44.37741" lon="5.513">
        <ele>731.8</ele>
        <time>2023-07-24T10:37:07Z</time>
      </trkpt>
      <trkpt lat="44.37741" lon="5.513">
        <ele>731.8</ele>
        <time>2023-07-24T10:37:08Z</time>
      </trkpt>
      <trkpt lat="44.37741" lon="5.513">
        <ele>731.8</ele>
        <time>2023-07-24T10:37:09Z</time>
      </trkpt>
      <trkpt lat="44.37742" lon="5.51298">
        <ele>731.8</ele>
        <time>2023-07-24T10:37:36Z</time>
      </trkpt>
      <trkpt lat="44.37742" lon="5.51298">
        <ele>731.8</ele>
        <time>2023-07-24T10:37:37Z</time>
      </trkpt>
      <trkpt lat="44.37742" lon="5.51298">
        <ele>731.8</ele>
        <time>2023-07-24T10:37:38Z</time>
      </trkpt>
      <trkpt lat="44.37741" lon="5.51298">
        <ele>731.8</ele>
        <time>2023-07-24T10:37:39Z</time>
      </trkpt>
      <trkpt lat="44.37741" lon="5.51299">
        <ele>731.8</ele>
        <time>2023-07-24T10:37:40Z</time>
      </trkpt>
      <trkpt lat="44.3774" lon="5.513">
        <ele>731.8</ele>
        <time>2023-07-24T10:37:41Z</time>
      </trkpt>
      <trkpt lat="44.3774" lon="5.513">
        <ele>731.8</ele>
        <time>2023-07-24T10:37:42Z</time>
      </trkpt>
      <trkpt lat="44.3774" lon="5.513">
        <ele>731.8</ele>
        <time>2023-07-24T10:37:43Z</time>
      </trkpt>
      <trkpt lat="44.3774" lon="5.51301">
        <ele>731.8</ele>
        <time>2023-07-24T10:37:44Z</time>
      </trkpt>
      <trkpt lat="44.3774" lon="5.51301">
        <ele>731.8</ele>
        <time>2023-07-24T10:37:45Z</time>
      </trkpt>
      <trkpt lat="44.3774" lon="5.51301">
        <ele>731.8</ele>
        <time>2023-07-24T10:37:46Z</time>
      </trkpt>
      <trkpt lat="44.3774" lon="5.51301">
        <ele>731.8</ele>
        <time>2023-07-24T10:37:47Z</time>
      </trkpt>
      <trkpt lat="44.3774" lon="5.51301">
        <ele>731.8</ele>
        <time>2023-07-24T10:37:48Z</time>
      </trkpt>
      <trkpt lat="44.3774" lon="5.51301">
        <ele>731.8</ele>
        <time>2023-07-24T10:37:49Z</time>
      </trkpt>
      <trkpt lat="44.3774" lon="5.51301">
        <ele>731.8</ele>
        <time>2023-07-24T10:37:50Z</time>
      </trkpt>
      <trkpt lat="44.3774" lon="5.51301">
        <ele>731.8</ele>
        <time>2023-07-24T10:37:51Z</time>
      </trkpt>
      <trkpt lat="44.37739" lon="5.51302">
        <ele>731.8</ele>
        <time>2023-07-24T10:37:57Z</time>
      </trkpt>
      <trkpt lat="44.37738" lon="5.51302">
        <ele>731.8</ele>
        <time>2023-07-24T10:37:58Z</time>
      </trkpt>
      <trkpt lat="44.37738" lon="5.51302">
        <ele>731.8</ele>
        <time>2023-07-24T10:37:59Z</time>
      </trkpt>
      <trkpt lat="44.37738" lon="5.51302">
        <ele>731.8</ele>
        <time>2023-07-24T10:38:00Z</time>
      </trkpt>
      <trkpt lat="44.37738" lon="5.51302">
        <ele>731.8</ele>
        <time>2023-07-24T10:38:01Z</time>
      </trkpt>
      <trkpt lat="44.37738" lon="5.51302">
        <ele>731.8</ele>
        <time>2023-07-24T10:38:02Z</time>
      </trkpt>
      <trkpt lat="44.37738" lon="5.51301">
        <ele>731.8</ele>
        <time>2023-07-24T10:38:03Z</time>
      </trkpt>
      <trkpt lat="44.37738" lon="5.51301">
        <ele>731.8</ele>
        <time>2023-07-24T10:38:04Z</time>
      </trkpt>
      <trkpt lat="44.37738" lon="5.51301">
        <ele>731.8</ele>
        <time>2023-07-24T10:38:05Z</time>
      </trkpt>
      <trkpt lat="44.37738" lon="5.51301">
        <ele>731.8</ele>
        <time>2023-07-24T10:38:07Z</time>
      </trkpt>
      <trkpt lat="44.37738" lon="5.51301">
        <ele>731.8</ele>
        <time>2023-07-24T10:38:08Z</time>
      </trkpt>
      <trkpt lat="44.37738" lon="5.51301">
        <ele>731.8</ele>
        <time>2023-07-24T10:38:09Z</time>
      </trkpt>
      <trkpt lat="44.37738" lon="5.51301">
        <ele>731.8</ele>
        <time>2023-07-24T10:38:10Z</time>
      </trkpt>
      <trkpt lat="44.37738" lon="5.51301">
        <ele>731.8</ele>
        <time>2023-07-24T10:38:11Z</time>
      </trkpt>
      <trkpt lat="44.37738" lon="5.51301">
        <ele>731.8</ele>
        <time>2023-07-24T10:38:12Z</time>
      </trkpt>
      <trkpt lat="44.37738" lon="5.51301">
        <ele>731.8</ele>
        <time>2023-07-24T10:38:13Z</time>
      </trkpt>
    </trkseg>
  </trk>
</gpx>